<?xml version='1.0' encoding='UTF-8'?><gpx version="1.1" creator="JPX - https://github.com/jenetics/jpx" xmlns="http://www.topografix.com/GPX/1/1"><trk><trkseg><trkpt lat="46.02151792413984" lon="11.906118637274494"><ele>273.0</ele><time>2026-05-03T04:16:54Z</time></trkpt><trkpt lat="46.021519865314104" lon="11.906248319565782"><ele>273.0</ele><time>2026-05-03T04:18:07Z</time></trkpt><trkpt lat="46.021580975749536" lon="11.906395751648642"><ele>273.0</ele><time>2026-05-03T04:18:09Z</time></trkpt><trkpt lat="46.02159884964316" lon="11.906494019859355"><ele>273.0</ele><time>2026-05-03T04:18:10Z</time></trkpt><trkpt lat="46.02161138106107" lon="11.906607467028119"><ele>273.0</ele><time>2026-05-03T04:18:11Z</time></trkpt><trkpt lat="46.021623794182545" lon="11.906744285938569"><ele>272.8</ele><time>2026-05-03T04:18:12Z</time></trkpt><trkpt lat="46.02164460023353" lon="11.906882337047263"><ele>272.6</ele><time>2026-05-03T04:18:13Z</time></trkpt><trkpt lat="46.021667917935275" lon="11.907041721071648"><ele>272.4</ele><time>2026-05-03T04:18:14Z</time></trkpt><trkpt lat="46.02169091407492" lon="11.907200066215971"><ele>272.2</ele><time>2026-05-03T04:18:15Z</time></trkpt><trkpt lat="46.021720310502474" lon="11.907370145375316"><ele>272.0</ele><time>2026-05-03T04:18:16Z</time></trkpt><trkpt lat="46.02175103625553" lon="11.90753472132853"><ele>272.25</ele><time>2026-05-03T04:18:17Z</time></trkpt><trkpt lat="46.02178687443904" lon="11.907692616575513"><ele>272.5</ele><time>2026-05-03T04:18:17.999Z</time></trkpt><trkpt lat="46.021828637564" lon="11.907863422676183"><ele>272.75</ele><time>2026-05-03T04:18:18.999Z</time></trkpt><trkpt lat="46.021870848078095" lon="11.908031994405896"><ele>273.0</ele><time>2026-05-03T04:18:19.999Z</time></trkpt><trkpt lat="46.021909461272124" lon="11.908208879857414"><ele>273.0</ele><time>2026-05-03T04:18:20.999Z</time></trkpt><trkpt lat="46.02195111737615" lon="11.908382004419007"><ele>273.0</ele><time>2026-05-03T04:18:21.999Z</time></trkpt><trkpt lat="46.021994124984126" lon="11.908549957295717"><ele>273.0</ele><time>2026-05-03T04:18:22.999Z</time></trkpt><trkpt lat="46.02203277371796" lon="11.908720377989566"><ele>273.0</ele><time>2026-05-03T04:18:23.999Z</time></trkpt><trkpt lat="46.02206864394101" lon="11.908889461211318"><ele>273.25</ele><time>2026-05-03T04:18:24.999Z</time></trkpt><trkpt lat="46.02209819599041" lon="11.909078336212634"><ele>273.5</ele><time>2026-05-03T04:18:25.999Z</time></trkpt><trkpt lat="46.022140262579846" lon="11.90922903315134"><ele>273.75</ele><time>2026-05-03T04:18:26.999Z</time></trkpt><trkpt lat="46.02217857847899" lon="11.909389310396246"><ele>274.0</ele><time>2026-05-03T04:18:27.999Z</time></trkpt><trkpt lat="46.02221476595825" lon="11.909551297014596"><ele>274.25</ele><time>2026-05-03T04:18:28.999Z</time></trkpt><trkpt lat="46.02225174988351" lon="11.909703156021576"><ele>274.5</ele><time>2026-05-03T04:18:29.999Z</time></trkpt><trkpt lat="46.022282851321236" lon="11.909857343563559"><ele>274.75</ele><time>2026-05-03T04:18:30.999Z</time></trkpt><trkpt lat="46.02231930364354" lon="11.910017809745234"><ele>275.0</ele><time>2026-05-03T04:18:31.999Z</time></trkpt><trkpt lat="46.022351698389215" lon="11.910179856723826"><ele>275.25</ele><time>2026-05-03T04:18:32.999Z</time></trkpt><trkpt lat="46.0223849857466" lon="11.910340456829095"><ele>275.5</ele><time>2026-05-03T04:18:33.999Z</time></trkpt><trkpt lat="46.02241907497506" lon="11.910496077992994"><ele>275.75</ele><time>2026-05-03T04:18:34.999Z</time></trkpt><trkpt lat="46.0224545329974" lon="11.910660681934278"><ele>276.0</ele><time>2026-05-03T04:18:35.999Z</time></trkpt><trkpt lat="46.02247977324041" lon="11.910825722489625"><ele>276.25</ele><time>2026-05-03T04:18:36.999Z</time></trkpt><trkpt lat="46.02250486372001" lon="11.91099227849328"><ele>276.5</ele><time>2026-05-03T04:18:37.999Z</time></trkpt><trkpt lat="46.022523741939914" lon="11.91116351049896"><ele>276.75</ele><time>2026-05-03T04:18:38.999Z</time></trkpt><trkpt lat="46.02253876841397" lon="11.911330610382931"><ele>277.0</ele><time>2026-05-03T04:18:39.999Z</time></trkpt><trkpt lat="46.022546072042935" lon="11.911486623915136"><ele>277.0</ele><time>2026-05-03T04:18:40.999Z</time></trkpt><trkpt lat="46.02255306475481" lon="11.911666453844024"><ele>277.0</ele><time>2026-05-03T04:18:41.999Z</time></trkpt><trkpt lat="46.02257319866716" lon="11.91182034965983"><ele>277.0</ele><time>2026-05-03T04:18:42.999Z</time></trkpt><trkpt lat="46.02258234733684" lon="11.911953877620629"><ele>277.0</ele><time>2026-05-03T04:18:44Z</time></trkpt><trkpt lat="46.022583900409636" lon="11.91207713226769"><ele>277.0</ele><time>2026-05-03T04:18:45Z</time></trkpt><trkpt lat="46.02257164588762" lon="11.912198029364946"><ele>277.0</ele><time>2026-05-03T04:18:46Z</time></trkpt><trkpt lat="46.022542569170106" lon="11.912329535083458"><ele>277.0</ele><time>2026-05-03T04:18:47Z</time></trkpt><trkpt lat="46.02251402556871" lon="11.912468270138643"><ele>277.0</ele><time>2026-05-03T04:18:48Z</time></trkpt><trkpt lat="46.022528831994286" lon="11.912594001412383"><ele>277.0</ele><time>2026-05-03T04:18:49Z</time></trkpt><trkpt lat="46.02257285764649" lon="11.91272088942664"><ele>277.0</ele><time>2026-05-03T04:18:50Z</time></trkpt><trkpt lat="46.02261704041284" lon="11.912857125196751"><ele>276.5</ele><time>2026-05-03T04:18:51Z</time></trkpt><trkpt lat="46.02263463482028" lon="11.913014525533635"><ele>276.0</ele><time>2026-05-03T04:18:52Z</time></trkpt><trkpt lat="46.0226406962995" lon="11.913178495883983"><ele>275.5</ele><time>2026-05-03T04:18:53Z</time></trkpt><trkpt lat="46.02264984971077" lon="11.913338640594594"><ele>275.0</ele><time>2026-05-03T04:18:54Z</time></trkpt><trkpt lat="46.02266060991767" lon="11.913521731569219"><ele>275.0</ele><time>2026-05-03T04:18:55Z</time></trkpt><trkpt lat="46.02266872129069" lon="11.913700858418672"><ele>275.0</ele><time>2026-05-03T04:18:56Z</time></trkpt><trkpt lat="46.022675734232976" lon="11.913879356217125"><ele>275.0</ele><time>2026-05-03T04:18:57Z</time></trkpt><trkpt lat="46.02268212022002" lon="11.914071204975178"><ele>275.0</ele><time>2026-05-03T04:18:58Z</time></trkpt><trkpt lat="46.02268871847305" lon="11.914249216928367"><ele>275.0</ele><time>2026-05-03T04:18:59Z</time></trkpt><trkpt lat="46.022694669011614" lon="11.914432843359272"><ele>275.0</ele><time>2026-05-03T04:19:00Z</time></trkpt><trkpt lat="46.02270269213155" lon="11.914607944904867"><ele>275.0</ele><time>2026-05-03T04:19:01Z</time></trkpt><trkpt lat="46.02271135463607" lon="11.91478689856034"><ele>275.0</ele><time>2026-05-03T04:19:02Z</time></trkpt><trkpt lat="46.02271798177026" lon="11.91496206044808"><ele>275.75</ele><time>2026-05-03T04:19:03Z</time></trkpt><trkpt lat="46.022725964468165" lon="11.915137014863777"><ele>276.5</ele><time>2026-05-03T04:19:04Z</time></trkpt><trkpt lat="46.02273261853722" lon="11.91530831599716"><ele>277.25</ele><time>2026-05-03T04:19:05Z</time></trkpt><trkpt lat="46.022741227954214" lon="11.915481146873805"><ele>278.0</ele><time>2026-05-03T04:19:06Z</time></trkpt><trkpt lat="46.02275050785739" lon="11.915657167677567"><ele>278.0</ele><time>2026-05-03T04:19:07Z</time></trkpt><trkpt lat="46.02275627620334" lon="11.915825728372065"><ele>278.0</ele><time>2026-05-03T04:19:08Z</time></trkpt><trkpt lat="46.02276356768385" lon="11.915997155738067"><ele>278.0</ele><time>2026-05-03T04:19:09Z</time></trkpt><trkpt lat="46.022771929286776" lon="11.916165465568094"><ele>278.0</ele><time>2026-05-03T04:19:10Z</time></trkpt><trkpt lat="46.02278050604018" lon="11.916335144709493"><ele>279.25</ele><time>2026-05-03T04:19:11Z</time></trkpt><trkpt lat="46.02278707043601" lon="11.91650637830652"><ele>280.5</ele><time>2026-05-03T04:19:12Z</time></trkpt><trkpt lat="46.022803087841474" lon="11.916677770652335"><ele>281.75</ele><time>2026-05-03T04:19:13Z</time></trkpt><trkpt lat="46.02279806801502" lon="11.91684190411054"><ele>283.0</ele><time>2026-05-03T04:19:14Z</time></trkpt><trkpt lat="46.022800812547715" lon="11.917013370635301"><ele>283.75</ele><time>2026-05-03T04:19:15Z</time></trkpt><trkpt lat="46.02281021366281" lon="11.917188985735708"><ele>284.5</ele><time>2026-05-03T04:19:16Z</time></trkpt><trkpt lat="46.022816475408426" lon="11.917359224913561"><ele>285.25</ele><time>2026-05-03T04:19:17Z</time></trkpt><trkpt lat="46.02282352853715" lon="11.917530841556296"><ele>286.0</ele><time>2026-05-03T04:19:18Z</time></trkpt><trkpt lat="46.02283407796286" lon="11.917701573633948"><ele>286.25</ele><time>2026-05-03T04:19:19Z</time></trkpt><trkpt lat="46.02283805811801" lon="11.917872932581357"><ele>286.5</ele><time>2026-05-03T04:19:20Z</time></trkpt><trkpt lat="46.0228349169172" lon="11.918041160573106"><ele>286.75</ele><time>2026-05-03T04:19:21Z</time></trkpt><trkpt lat="46.02284659248924" lon="11.918213477783405"><ele>287.0</ele><time>2026-05-03T04:19:22Z</time></trkpt><trkpt lat="46.022860013472105" lon="11.918390074860689"><ele>288.0</ele><time>2026-05-03T04:19:23Z</time></trkpt><trkpt lat="46.02287017252014" lon="11.918568703818467"><ele>289.0</ele><time>2026-05-03T04:19:24Z</time></trkpt><trkpt lat="46.02287368304725" lon="11.918742084498456"><ele>290.0</ele><time>2026-05-03T04:19:25Z</time></trkpt><trkpt lat="46.02288049576338" lon="11.918913116484548"><ele>291.0</ele><time>2026-05-03T04:19:26Z</time></trkpt><trkpt lat="46.02289130868954" lon="11.919088527772766"><ele>291.75</ele><time>2026-05-03T04:19:27Z</time></trkpt><trkpt lat="46.02289226293991" lon="11.919252335126778"><ele>292.5</ele><time>2026-05-03T04:19:28Z</time></trkpt><trkpt lat="46.02290881265639" lon="11.919420074571422"><ele>293.25</ele><time>2026-05-03T04:19:29Z</time></trkpt><trkpt lat="46.022918358408866" lon="11.91958813088921"><ele>294.0</ele><time>2026-05-03T04:19:30Z</time></trkpt><trkpt lat="46.022929517143915" lon="11.91975723597707"><ele>294.0</ele><time>2026-05-03T04:19:31Z</time></trkpt><trkpt lat="46.02293335542463" lon="11.919929199241006"><ele>294.0</ele><time>2026-05-03T04:19:32Z</time></trkpt><trkpt lat="46.02294319102668" lon="11.920097467124762"><ele>294.0</ele><time>2026-05-03T04:19:33Z</time></trkpt><trkpt lat="46.02294248891441" lon="11.92023798590132"><ele>294.0</ele><time>2026-05-03T04:19:34Z</time></trkpt><trkpt lat="46.02296348167488" lon="11.92041983929146"><ele>293.8333333333333</ele><time>2026-05-03T04:19:35Z</time></trkpt><trkpt lat="46.02297663163166" lon="11.920588530637158"><ele>293.6666666666667</ele><time>2026-05-03T04:19:36Z</time></trkpt><trkpt lat="46.0229846791851" lon="11.920729046475122"><ele>293.5</ele><time>2026-05-03T04:19:37Z</time></trkpt><trkpt lat="46.02297748122594" lon="11.920843472727006"><ele>293.33333333333337</ele><time>2026-05-03T04:19:38Z</time></trkpt><trkpt lat="46.02295261473803" lon="11.920954314235402"><ele>293.1666666666667</ele><time>2026-05-03T04:19:39Z</time></trkpt><trkpt lat="46.02291400331602" lon="11.921027230668765"><ele>293.0</ele><time>2026-05-03T04:19:40Z</time></trkpt><trkpt lat="46.02285585250254" lon="11.92109460452293"><ele>292.6</ele><time>2026-05-03T04:19:41Z</time></trkpt><trkpt lat="46.02279899760167" lon="11.921171202086533"><ele>292.20000000000005</ele><time>2026-05-03T04:19:42Z</time></trkpt><trkpt lat="46.02277481928646" lon="11.921280347605089"><ele>291.8</ele><time>2026-05-03T04:19:43Z</time></trkpt><trkpt lat="46.02277960489544" lon="11.921417005846001"><ele>291.40000000000003</ele><time>2026-05-03T04:19:44Z</time></trkpt><trkpt lat="46.022820379217734" lon="11.921550673152645"><ele>291.0</ele><time>2026-05-03T04:19:45Z</time></trkpt><trkpt lat="46.02289030551345" lon="11.921662246418704"><ele>291.5</ele><time>2026-05-03T04:19:46Z</time></trkpt><trkpt lat="46.022977153972796" lon="11.921770502414834"><ele>292.0</ele><time>2026-05-03T04:19:47Z</time></trkpt><trkpt lat="46.02306300930997" lon="11.921894671224296"><ele>292.5</ele><time>2026-05-03T04:19:48Z</time></trkpt><trkpt lat="46.02313065811123" lon="11.922039195859817"><ele>293.0</ele><time>2026-05-03T04:19:49Z</time></trkpt><trkpt lat="46.02318466038141" lon="11.922197662235158"><ele>293.0</ele><time>2026-05-03T04:19:50Z</time></trkpt><trkpt lat="46.023241248205984" lon="11.922364229370537"><ele>293.0</ele><time>2026-05-03T04:19:51Z</time></trkpt><trkpt lat="46.02329933157109" lon="11.922523343755227"><ele>293.0</ele><time>2026-05-03T04:19:52Z</time></trkpt><trkpt lat="46.023356551752286" lon="11.922678607613214"><ele>293.0</ele><time>2026-05-03T04:19:53Z</time></trkpt><trkpt lat="46.023419873308086" lon="11.922834925208182"><ele>293.5</ele><time>2026-05-03T04:19:54Z</time></trkpt><trkpt lat="46.023483082577485" lon="11.922990264876145"><ele>294.0</ele><time>2026-05-03T04:19:55Z</time></trkpt><trkpt lat="46.02354770271999" lon="11.923144644969991"><ele>294.5</ele><time>2026-05-03T04:19:56Z</time></trkpt><trkpt lat="46.02361239679087" lon="11.923296032796165"><ele>295.0</ele><time>2026-05-03T04:19:57Z</time></trkpt><trkpt lat="46.02368243095296" lon="11.92345024053333"><ele>295.5</ele><time>2026-05-03T04:19:58Z</time></trkpt><trkpt lat="46.023751548094644" lon="11.923616589254223"><ele>296.0</ele><time>2026-05-03T04:19:59Z</time></trkpt><trkpt lat="46.02382820697938" lon="11.923747290071946"><ele>296.5</ele><time>2026-05-03T04:20:00Z</time></trkpt><trkpt lat="46.023903014227315" lon="11.923885957373493"><ele>297.0</ele><time>2026-05-03T04:20:01Z</time></trkpt><trkpt lat="46.02397659829487" lon="11.92402205642174"><ele>297.0</ele><time>2026-05-03T04:20:02Z</time></trkpt><trkpt lat="46.024047276384756" lon="11.92415512839116"><ele>297.0</ele><time>2026-05-03T04:20:03Z</time></trkpt><trkpt lat="46.024120126405215" lon="11.924285705630123"><ele>297.0</ele><time>2026-05-03T04:20:04Z</time></trkpt><trkpt lat="46.02419374046774" lon="11.924413461273897"><ele>297.0</ele><time>2026-05-03T04:20:05Z</time></trkpt><trkpt lat="46.02427082318067" lon="11.924549035279696"><ele>297.0</ele><time>2026-05-03T04:20:06Z</time></trkpt><trkpt lat="46.024350677155724" lon="11.924687550493724"><ele>297.0</ele><time>2026-05-03T04:20:07Z</time></trkpt><trkpt lat="46.024433389394005" lon="11.924828998484076"><ele>297.0</ele><time>2026-05-03T04:20:08Z</time></trkpt><trkpt lat="46.02451641821598" lon="11.924966995329047"><ele>297.0</ele><time>2026-05-03T04:20:09Z</time></trkpt><trkpt lat="46.02459875965646" lon="11.925104408778086"><ele>297.75</ele><time>2026-05-03T04:20:10Z</time></trkpt><trkpt lat="46.02467818093002" lon="11.925246174559746"><ele>298.5</ele><time>2026-05-03T04:20:11Z</time></trkpt><trkpt lat="46.02475319276197" lon="11.92539200680817"><ele>299.25</ele><time>2026-05-03T04:20:12Z</time></trkpt><trkpt lat="46.024827330259406" lon="11.925540512514484"><ele>300.0</ele><time>2026-05-03T04:20:13Z</time></trkpt><trkpt lat="46.024899991007814" lon="11.925690433382442"><ele>300.0</ele><time>2026-05-03T04:20:14Z</time></trkpt><trkpt lat="46.02496740853934" lon="11.925846493378426"><ele>300.0</ele><time>2026-05-03T04:20:15Z</time></trkpt><trkpt lat="46.025032028754545" lon="11.926000554770406"><ele>300.0</ele><time>2026-05-03T04:20:16Z</time></trkpt><trkpt lat="46.02509270503551" lon="11.926153183721555"><ele>300.0</ele><time>2026-05-03T04:20:17Z</time></trkpt><trkpt lat="46.02515037081857" lon="11.926307464959285"><ele>299.75</ele><time>2026-05-03T04:20:18Z</time></trkpt><trkpt lat="46.02521205222435" lon="11.926465867018246"><ele>299.5</ele><time>2026-05-03T04:20:19Z</time></trkpt><trkpt lat="46.025270043125346" lon="11.926624894724881"><ele>299.25</ele><time>2026-05-03T04:20:20Z</time></trkpt><trkpt lat="46.02532666720447" lon="11.926785397562226"><ele>299.0</ele><time>2026-05-03T04:20:21Z</time></trkpt><trkpt lat="46.025382962018675" lon="11.926951130872457"><ele>300.0</ele><time>2026-05-03T04:20:22Z</time></trkpt><trkpt lat="46.0254389473956" lon="11.927117895944253"><ele>301.0</ele><time>2026-05-03T04:20:23Z</time></trkpt><trkpt lat="46.025492249848575" lon="11.927283427595754"><ele>302.0</ele><time>2026-05-03T04:20:24Z</time></trkpt><trkpt lat="46.025542384838104" lon="11.92744861244718"><ele>303.0</ele><time>2026-05-03T04:20:25Z</time></trkpt><trkpt lat="46.02559600539785" lon="11.927617617438589"><ele>303.75</ele><time>2026-05-03T04:20:26Z</time></trkpt><trkpt lat="46.02564971534249" lon="11.927784702365807"><ele>304.5</ele><time>2026-05-03T04:20:27Z</time></trkpt><trkpt lat="46.02570137614399" lon="11.927954755893508"><ele>305.25</ele><time>2026-05-03T04:20:27.999Z</time></trkpt><trkpt lat="46.02575445073322" lon="11.928123114111411"><ele>306.0</ele><time>2026-05-03T04:20:28.999Z</time></trkpt><trkpt lat="46.025805994154105" lon="11.928291340986688"><ele>304.75</ele><time>2026-05-03T04:20:29.999Z</time></trkpt><trkpt lat="46.02585642952154" lon="11.928463900291678"><ele>303.5</ele><time>2026-05-03T04:20:30.999Z</time></trkpt><trkpt lat="46.02590534406894" lon="11.928632847740243"><ele>302.25</ele><time>2026-05-03T04:20:31.999Z</time></trkpt><trkpt lat="46.02595697615484" lon="11.9288028512458"><ele>301.0</ele><time>2026-05-03T04:20:32.999Z</time></trkpt><trkpt lat="46.025998334467964" lon="11.928968868976959"><ele>301.0</ele><time>2026-05-03T04:20:33.999Z</time></trkpt><trkpt lat="46.02605360288253" lon="11.929140197737077"><ele>301.0</ele><time>2026-05-03T04:20:34.999Z</time></trkpt><trkpt lat="46.02610654764003" lon="11.929313560967106"><ele>301.0</ele><time>2026-05-03T04:20:35.999Z</time></trkpt><trkpt lat="46.02615526645684" lon="11.929480148347862"><ele>301.0</ele><time>2026-05-03T04:20:36.999Z</time></trkpt><trkpt lat="46.02619975189378" lon="11.929646723578916"><ele>302.75</ele><time>2026-05-03T04:20:37.999Z</time></trkpt><trkpt lat="46.02624274689052" lon="11.929820530325074"><ele>304.5</ele><time>2026-05-03T04:20:38.999Z</time></trkpt><trkpt lat="46.02628423263023" lon="11.929996440376879"><ele>306.25</ele><time>2026-05-03T04:20:39.999Z</time></trkpt><trkpt lat="46.02632742092821" lon="11.930173456357949"><ele>308.0</ele><time>2026-05-03T04:20:40.999Z</time></trkpt><trkpt lat="46.026364802428624" lon="11.930347279539943"><ele>309.25</ele><time>2026-05-03T04:20:41.999Z</time></trkpt><trkpt lat="46.02640014861073" lon="11.930523391647005"><ele>310.5</ele><time>2026-05-03T04:20:42.999Z</time></trkpt><trkpt lat="46.026434986969115" lon="11.930703559331237"><ele>311.75</ele><time>2026-05-03T04:20:43.999Z</time></trkpt><trkpt lat="46.02645987108753" lon="11.930885064811626"><ele>313.0</ele><time>2026-05-03T04:20:44.999Z</time></trkpt><trkpt lat="46.02648734041029" lon="11.931061953506537"><ele>314.25</ele><time>2026-05-03T04:20:45.999Z</time></trkpt><trkpt lat="46.02650990685207" lon="11.93124370348425"><ele>315.5</ele><time>2026-05-03T04:20:46.999Z</time></trkpt><trkpt lat="46.026533445591284" lon="11.931428282555375"><ele>316.75</ele><time>2026-05-03T04:20:47.999Z</time></trkpt><trkpt lat="46.02655133313613" lon="11.931612258353546"><ele>318.0</ele><time>2026-05-03T04:20:48.999Z</time></trkpt><trkpt lat="46.026567011643934" lon="11.931797024372276"><ele>318.25</ele><time>2026-05-03T04:20:50Z</time></trkpt><trkpt lat="46.02658028225361" lon="11.931988449731497"><ele>318.5</ele><time>2026-05-03T04:20:51Z</time></trkpt><trkpt lat="46.026592605129466" lon="11.932176522174524"><ele>318.75</ele><time>2026-05-03T04:20:52Z</time></trkpt><trkpt lat="46.02659562807949" lon="11.932367501109683"><ele>319.0</ele><time>2026-05-03T04:20:53Z</time></trkpt><trkpt lat="46.02661035392303" lon="11.932559688167593"><ele>320.0</ele><time>2026-05-03T04:20:54Z</time></trkpt><trkpt lat="46.02661576954385" lon="11.932755422802996"><ele>321.0</ele><time>2026-05-03T04:20:55Z</time></trkpt><trkpt lat="46.026622425466094" lon="11.932957808148878"><ele>322.0</ele><time>2026-05-03T04:20:56Z</time></trkpt><trkpt lat="46.02663648901446" lon="11.933167078776778"><ele>323.0</ele><time>2026-05-03T04:20:57Z</time></trkpt><trkpt lat="46.02664979681969" lon="11.933378095353655"><ele>317.33333333333337</ele><time>2026-05-03T04:20:58Z</time></trkpt><trkpt lat="46.026659032785886" lon="11.933588391088394"><ele>311.6666666666667</ele><time>2026-05-03T04:20:59Z</time></trkpt><trkpt lat="46.02667091739467" lon="11.93380864008484"><ele>306.0</ele><time>2026-05-03T04:21:00Z</time></trkpt><trkpt lat="46.02668614647269" lon="11.93402684184667"><ele>306.5</ele><time>2026-05-03T04:21:01Z</time></trkpt><trkpt lat="46.02670614923384" lon="11.934235603145321"><ele>307.0</ele><time>2026-05-03T04:21:02Z</time></trkpt><trkpt lat="46.02672813775126" lon="11.934449246839803"><ele>307.5</ele><time>2026-05-03T04:21:03Z</time></trkpt><trkpt lat="46.02675429728208" lon="11.934655530334341"><ele>308.0</ele><time>2026-05-03T04:21:04Z</time></trkpt><trkpt lat="46.026783672900095" lon="11.934859585905425"><ele>308.0</ele><time>2026-05-03T04:21:05Z</time></trkpt><trkpt lat="46.026814932216766" lon="11.935060168688395"><ele>308.0</ele><time>2026-05-03T04:21:06Z</time></trkpt><trkpt lat="46.02684965549585" lon="11.935257480406362"><ele>308.0</ele><time>2026-05-03T04:21:07Z</time></trkpt><trkpt lat="46.026885366459524" lon="11.935457116483631"><ele>308.0</ele><time>2026-05-03T04:21:08Z</time></trkpt><trkpt lat="46.026919059291686" lon="11.935641032605142"><ele>308.0</ele><time>2026-05-03T04:21:09Z</time></trkpt><trkpt lat="46.026953342358915" lon="11.93582360601681"><ele>308.0</ele><time>2026-05-03T04:21:10Z</time></trkpt><trkpt lat="46.02699199521403" lon="11.936013830549077"><ele>308.0</ele><time>2026-05-03T04:21:11Z</time></trkpt><trkpt lat="46.02703182895116" lon="11.936202390887164"><ele>308.0</ele><time>2026-05-03T04:21:12Z</time></trkpt><trkpt lat="46.027068273492105" lon="11.936399645820444"><ele>309.75</ele><time>2026-05-03T04:21:13Z</time></trkpt><trkpt lat="46.02710443141593" lon="11.936598905487607"><ele>311.5</ele><time>2026-05-03T04:21:14Z</time></trkpt><trkpt lat="46.02714163867486" lon="11.936792657758264"><ele>313.25</ele><time>2026-05-03T04:21:15Z</time></trkpt><trkpt lat="46.02718025505041" lon="11.9369906261775"><ele>315.0</ele><time>2026-05-03T04:21:16Z</time></trkpt><trkpt lat="46.02721901391178" lon="11.93718804323155"><ele>315.25</ele><time>2026-05-03T04:21:17Z</time></trkpt><trkpt lat="46.02725625390333" lon="11.937388385217394"><ele>315.5</ele><time>2026-05-03T04:21:18Z</time></trkpt><trkpt lat="46.02729437912904" lon="11.937588656099093"><ele>315.75</ele><time>2026-05-03T04:21:19Z</time></trkpt><trkpt lat="46.02733050981483" lon="11.937787515834444"><ele>316.0</ele><time>2026-05-03T04:21:20Z</time></trkpt><trkpt lat="46.027366696812706" lon="11.937987105258097"><ele>315.0</ele><time>2026-05-03T04:21:21Z</time></trkpt><trkpt lat="46.027404241569826" lon="11.938188599033396"><ele>314.0</ele><time>2026-05-03T04:21:22Z</time></trkpt><trkpt lat="46.027445141398346" lon="11.938389546215966"><ele>313.0</ele><time>2026-05-03T04:21:23Z</time></trkpt><trkpt lat="46.02748553399934" lon="11.938590151479902"><ele>312.0</ele><time>2026-05-03T04:21:24Z</time></trkpt><trkpt lat="46.027532796901696" lon="11.938790750691538"><ele>310.25</ele><time>2026-05-03T04:21:25Z</time></trkpt><trkpt lat="46.027584131979495" lon="11.938989960179153"><ele>308.5</ele><time>2026-05-03T04:21:26Z</time></trkpt><trkpt lat="46.02763768817992" lon="11.939193379328541"><ele>306.75</ele><time>2026-05-03T04:21:27Z</time></trkpt><trkpt lat="46.02769099142124" lon="11.939386323994794"><ele>305.0</ele><time>2026-05-03T04:21:28Z</time></trkpt><trkpt lat="46.027745213608746" lon="11.939578270878055"><ele>305.0</ele><time>2026-05-03T04:21:29Z</time></trkpt><trkpt lat="46.02780038247118" lon="11.939770196081607"><ele>305.0</ele><time>2026-05-03T04:21:30Z</time></trkpt><trkpt lat="46.02785512948754" lon="11.93996152760827"><ele>305.0</ele><time>2026-05-03T04:21:31Z</time></trkpt><trkpt lat="46.02791006664964" lon="11.94015546457268"><ele>305.0</ele><time>2026-05-03T04:21:32Z</time></trkpt><trkpt lat="46.027965887510334" lon="11.940347542958946"><ele>306.25</ele><time>2026-05-03T04:21:33Z</time></trkpt><trkpt lat="46.028020420043646" lon="11.940537160982089"><ele>307.5</ele><time>2026-05-03T04:21:34Z</time></trkpt><trkpt lat="46.0280766451272" lon="11.94072703265115"><ele>308.75</ele><time>2026-05-03T04:21:35Z</time></trkpt><trkpt lat="46.028132948544766" lon="11.940915765452676"><ele>310.0</ele><time>2026-05-03T04:21:36Z</time></trkpt><trkpt lat="46.02818882893609" lon="11.941105996526195"><ele>310.25</ele><time>2026-05-03T04:21:37Z</time></trkpt><trkpt lat="46.02824296924844" lon="11.941294942760845"><ele>310.5</ele><time>2026-05-03T04:21:38Z</time></trkpt><trkpt lat="46.02829653466422" lon="11.941484155144234"><ele>310.75</ele><time>2026-05-03T04:21:39Z</time></trkpt><trkpt lat="46.02834884244268" lon="11.941672182612523"><ele>311.0</ele><time>2026-05-03T04:21:40Z</time></trkpt><trkpt lat="46.02840257167462" lon="11.941860722403103"><ele>312.0</ele><time>2026-05-03T04:21:41Z</time></trkpt><trkpt lat="46.02845592590192" lon="11.94204713738367"><ele>313.0</ele><time>2026-05-03T04:21:42Z</time></trkpt><trkpt lat="46.028510801310475" lon="11.942235347150497"><ele>314.0</ele><time>2026-05-03T04:21:43Z</time></trkpt><trkpt lat="46.028566087401565" lon="11.94242373880445"><ele>315.0</ele><time>2026-05-03T04:21:44Z</time></trkpt><trkpt lat="46.02862023609999" lon="11.942611457445315"><ele>315.0</ele><time>2026-05-03T04:21:45Z</time></trkpt><trkpt lat="46.028675213811084" lon="11.94280033909633"><ele>315.0</ele><time>2026-05-03T04:21:46Z</time></trkpt><trkpt lat="46.028731849081076" lon="11.942991725868385"><ele>315.0</ele><time>2026-05-03T04:21:47Z</time></trkpt><trkpt lat="46.02878732712582" lon="11.943182528307174"><ele>315.0</ele><time>2026-05-03T04:21:48Z</time></trkpt><trkpt lat="46.028843713207806" lon="11.943374978306654"><ele>315.5</ele><time>2026-05-03T04:21:49Z</time></trkpt><trkpt lat="46.02889789549834" lon="11.943565206296173"><ele>316.0</ele><time>2026-05-03T04:21:50Z</time></trkpt><trkpt lat="46.02895168842674" lon="11.943756478037967"><ele>316.5</ele><time>2026-05-03T04:21:51Z</time></trkpt><trkpt lat="46.02900887078302" lon="11.943951030605076"><ele>317.0</ele><time>2026-05-03T04:21:52Z</time></trkpt><trkpt lat="46.02906402822751" lon="11.94414321114708"><ele>316.75</ele><time>2026-05-03T04:21:53Z</time></trkpt><trkpt lat="46.029115887810626" lon="11.944334578934441"><ele>316.5</ele><time>2026-05-03T04:21:54Z</time></trkpt><trkpt lat="46.029166456895425" lon="11.944527708126088"><ele>316.25</ele><time>2026-05-03T04:21:55Z</time></trkpt><trkpt lat="46.0292122629033" lon="11.94472005258219"><ele>316.0</ele><time>2026-05-03T04:21:56Z</time></trkpt><trkpt lat="46.02925647937975" lon="11.944914466351493"><ele>315.25</ele><time>2026-05-03T04:21:57Z</time></trkpt><trkpt lat="46.02929563336513" lon="11.945109382026093"><ele>314.5</ele><time>2026-05-03T04:21:58Z</time></trkpt><trkpt lat="46.02933561019986" lon="11.945305693332536"><ele>313.75</ele><time>2026-05-03T04:21:59Z</time></trkpt><trkpt lat="46.02937385272083" lon="11.945502975950584"><ele>313.0</ele><time>2026-05-03T04:22:00Z</time></trkpt><trkpt lat="46.029408757788815" lon="11.945697402561677"><ele>313.25</ele><time>2026-05-03T04:22:01Z</time></trkpt><trkpt lat="46.02944415292713" lon="11.945891768133354"><ele>313.5</ele><time>2026-05-03T04:22:02Z</time></trkpt><trkpt lat="46.0294806320111" lon="11.94608673649189"><ele>313.75</ele><time>2026-05-03T04:22:03Z</time></trkpt><trkpt lat="46.0295145855121" lon="11.946277455745344"><ele>314.0</ele><time>2026-05-03T04:22:04Z</time></trkpt><trkpt lat="46.02954963935789" lon="11.94647177513628"><ele>314.0</ele><time>2026-05-03T04:22:05Z</time></trkpt><trkpt lat="46.029584661112345" lon="11.946668250457426"><ele>314.0</ele><time>2026-05-03T04:22:06Z</time></trkpt><trkpt lat="46.02962116994505" lon="11.94686113136314"><ele>314.0</ele><time>2026-05-03T04:22:07Z</time></trkpt><trkpt lat="46.02965671789005" lon="11.947057659793499"><ele>314.0</ele><time>2026-05-03T04:22:08Z</time></trkpt><trkpt lat="46.029693069535945" lon="11.947252978713548"><ele>313.75</ele><time>2026-05-03T04:22:09Z</time></trkpt><trkpt lat="46.02973132978334" lon="11.947447975477353"><ele>313.5</ele><time>2026-05-03T04:22:10Z</time></trkpt><trkpt lat="46.029767875769444" lon="11.94764373130523"><ele>313.25</ele><time>2026-05-03T04:22:11Z</time></trkpt><trkpt lat="46.02980394236081" lon="11.947839158318073"><ele>313.0</ele><time>2026-05-03T04:22:12Z</time></trkpt><trkpt lat="46.02983887971001" lon="11.948033948200367"><ele>312.75</ele><time>2026-05-03T04:22:13Z</time></trkpt><trkpt lat="46.0298759349829" lon="11.948229443205026"><ele>312.5</ele><time>2026-05-03T04:22:14Z</time></trkpt><trkpt lat="46.0299133447273" lon="11.948426368012939"><ele>312.25</ele><time>2026-05-03T04:22:15Z</time></trkpt><trkpt lat="46.02994988602077" lon="11.948624362982066"><ele>312.0</ele><time>2026-05-03T04:22:16Z</time></trkpt><trkpt lat="46.029985665886905" lon="11.948823759720655"><ele>312.0</ele><time>2026-05-03T04:22:17Z</time></trkpt><trkpt lat="46.03002151419669" lon="11.949022079500446"><ele>312.0</ele><time>2026-05-03T04:22:18Z</time></trkpt><trkpt lat="46.03005853096347" lon="11.949220447836053"><ele>312.0</ele><time>2026-05-03T04:22:19Z</time></trkpt><trkpt lat="46.03009529810665" lon="11.949419377532857"><ele>312.0</ele><time>2026-05-03T04:22:20Z</time></trkpt><trkpt lat="46.030131208704155" lon="11.949616581806934"><ele>311.25</ele><time>2026-05-03T04:22:21Z</time></trkpt><trkpt lat="46.030167349889844" lon="11.949813072425615"><ele>310.5</ele><time>2026-05-03T04:22:22Z</time></trkpt><trkpt lat="46.030205314005016" lon="11.95000757742715"><ele>309.75</ele><time>2026-05-03T04:22:23Z</time></trkpt><trkpt lat="46.03024172997897" lon="11.950202629835415"><ele>309.0</ele><time>2026-05-03T04:22:24Z</time></trkpt><trkpt lat="46.030277311183724" lon="11.95039752744803"><ele>308.5</ele><time>2026-05-03T04:22:25Z</time></trkpt><trkpt lat="46.030313965073745" lon="11.950592379553315"><ele>308.0</ele><time>2026-05-03T04:22:26Z</time></trkpt><trkpt lat="46.03034989174271" lon="11.950778673213273"><ele>307.5</ele><time>2026-05-03T04:22:27Z</time></trkpt><trkpt lat="46.03038309183055" lon="11.950965131575376"><ele>307.0</ele><time>2026-05-03T04:22:28Z</time></trkpt><trkpt lat="46.03041486193322" lon="11.951144449664282"><ele>307.0</ele><time>2026-05-03T04:22:29Z</time></trkpt><trkpt lat="46.030447665518274" lon="11.951319755931308"><ele>307.0</ele><time>2026-05-03T04:22:30Z</time></trkpt><trkpt lat="46.030478862009836" lon="11.951500044567352"><ele>307.0</ele><time>2026-05-03T04:22:31Z</time></trkpt><trkpt lat="46.03051015023825" lon="11.951687329195966"><ele>307.0</ele><time>2026-05-03T04:22:32Z</time></trkpt><trkpt lat="46.03054509801423" lon="11.951884666438122"><ele>306.25</ele><time>2026-05-03T04:22:33Z</time></trkpt><trkpt lat="46.030578620918604" lon="11.952088099453954"><ele>305.5</ele><time>2026-05-03T04:22:34Z</time></trkpt><trkpt lat="46.030609024123855" lon="11.952291811087894"><ele>304.75</ele><time>2026-05-03T04:22:35Z</time></trkpt><trkpt lat="46.03063632659747" lon="11.95249661200656"><ele>304.0</ele><time>2026-05-03T04:22:36Z</time></trkpt><trkpt lat="46.03066193497184" lon="11.952704591194124"><ele>303.75</ele><time>2026-05-03T04:22:37Z</time></trkpt><trkpt lat="46.03068594217664" lon="11.952912764646367"><ele>303.5</ele><time>2026-05-03T04:22:38Z</time></trkpt><trkpt lat="46.03070645597677" lon="11.953123722950098"><ele>303.25</ele><time>2026-05-03T04:22:39Z</time></trkpt><trkpt lat="46.03072565561613" lon="11.953335063634594"><ele>303.0</ele><time>2026-05-03T04:22:40Z</time></trkpt><trkpt lat="46.03074644512152" lon="11.953545286258144"><ele>303.0</ele><time>2026-05-03T04:22:41Z</time></trkpt><trkpt lat="46.03076861974366" lon="11.953754305412009"><ele>303.0</ele><time>2026-05-03T04:22:42Z</time></trkpt><trkpt lat="46.03078728118546" lon="11.95396293563989"><ele>303.0</ele><time>2026-05-03T04:22:43Z</time></trkpt><trkpt lat="46.03080894973607" lon="11.954170316755913"><ele>303.0</ele><time>2026-05-03T04:22:44Z</time></trkpt><trkpt lat="46.03082883728821" lon="11.954379091623823"><ele>301.75</ele><time>2026-05-03T04:22:45Z</time></trkpt><trkpt lat="46.03084925855166" lon="11.954585915339933"><ele>300.5</ele><time>2026-05-03T04:22:46Z</time></trkpt><trkpt lat="46.03086945058012" lon="11.954791532055227"><ele>299.25</ele><time>2026-05-03T04:22:47Z</time></trkpt><trkpt lat="46.03088900551438" lon="11.954996891911563"><ele>298.0</ele><time>2026-05-03T04:22:48Z</time></trkpt><trkpt lat="46.0309078705195" lon="11.955201585158699"><ele>297.75</ele><time>2026-05-03T04:22:49Z</time></trkpt><trkpt lat="46.03092729007789" lon="11.95540617449845"><ele>297.5</ele><time>2026-05-03T04:22:50Z</time></trkpt><trkpt lat="46.03094519860988" lon="11.955610760619178"><ele>297.25</ele><time>2026-05-03T04:22:51Z</time></trkpt><trkpt lat="46.030963143136894" lon="11.955814608181402"><ele>297.0</ele><time>2026-05-03T04:22:52Z</time></trkpt><trkpt lat="46.030982150203855" lon="11.95601673800314"><ele>296.75</ele><time>2026-05-03T04:22:53Z</time></trkpt><trkpt lat="46.031001353583164" lon="11.956220032561292"><ele>296.5</ele><time>2026-05-03T04:22:54Z</time></trkpt><trkpt lat="46.03102146487415" lon="11.956424728190129"><ele>296.25</ele><time>2026-05-03T04:22:54.999Z</time></trkpt><trkpt lat="46.03103984886908" lon="11.956630256300127"><ele>296.0</ele><time>2026-05-03T04:22:56Z</time></trkpt><trkpt lat="46.03105942699684" lon="11.956835669841311"><ele>295.25</ele><time>2026-05-03T04:22:57Z</time></trkpt><trkpt lat="46.03108082005497" lon="11.957042478186485"><ele>294.5</ele><time>2026-05-03T04:22:58Z</time></trkpt><trkpt lat="46.031099183016664" lon="11.957247404227742"><ele>293.75</ele><time>2026-05-03T04:22:59Z</time></trkpt><trkpt lat="46.031118436903434" lon="11.95745523140303"><ele>293.0</ele><time>2026-05-03T04:23:00Z</time></trkpt><trkpt lat="46.031138350490494" lon="11.957662506411658"><ele>292.5</ele><time>2026-05-03T04:23:01Z</time></trkpt><trkpt lat="46.031158907746395" lon="11.957870626033507"><ele>292.0</ele><time>2026-05-03T04:23:02Z</time></trkpt><trkpt lat="46.031178227279874" lon="11.958078758825511"><ele>291.5</ele><time>2026-05-03T04:23:03Z</time></trkpt><trkpt lat="46.031199795858996" lon="11.958286317497715"><ele>291.0</ele><time>2026-05-03T04:23:04Z</time></trkpt><trkpt lat="46.031219922550825" lon="11.958492034275764"><ele>290.75</ele><time>2026-05-03T04:23:05Z</time></trkpt><trkpt lat="46.031239734851376" lon="11.958690325544387"><ele>290.5</ele><time>2026-05-03T04:23:06Z</time></trkpt><trkpt lat="46.03125862866317" lon="11.95888057895733"><ele>290.25</ele><time>2026-05-03T04:23:07Z</time></trkpt><trkpt lat="46.031275750093464" lon="11.959062223985924"><ele>290.0</ele><time>2026-05-03T04:23:08Z</time></trkpt><trkpt lat="46.03129490051949" lon="11.959237229262966"><ele>289.6</ele><time>2026-05-03T04:23:09Z</time></trkpt><trkpt lat="46.0313127417477" lon="11.959409063937153"><ele>289.2</ele><time>2026-05-03T04:23:10Z</time></trkpt><trkpt lat="46.03132657403715" lon="11.959567038302168"><ele>288.8</ele><time>2026-05-03T04:23:11Z</time></trkpt><trkpt lat="46.031327850653774" lon="11.959708477070215"><ele>288.4</ele><time>2026-05-03T04:23:12Z</time></trkpt><trkpt lat="46.031307645146335" lon="11.959839163334996"><ele>288.0</ele><time>2026-05-03T04:23:13Z</time></trkpt><trkpt lat="46.03127895578344" lon="11.959961103300364"><ele>287.8</ele><time>2026-05-03T04:23:14Z</time></trkpt><trkpt lat="46.03127155352877" lon="11.960075053958708"><ele>287.6</ele><time>2026-05-03T04:23:15Z</time></trkpt><trkpt lat="46.03131027723874" lon="11.960191806367037"><ele>287.4</ele><time>2026-05-03T04:23:16Z</time></trkpt><trkpt lat="46.03136341203852" lon="11.960308471577196"><ele>287.2</ele><time>2026-05-03T04:23:17Z</time></trkpt><trkpt lat="46.031408710444396" lon="11.960446629455932"><ele>287.0</ele><time>2026-05-03T04:23:18Z</time></trkpt><trkpt lat="46.031427344323994" lon="11.960609320897094"><ele>287.0</ele><time>2026-05-03T04:23:19Z</time></trkpt><trkpt lat="46.03143565767002" lon="11.960791903320786"><ele>287.0</ele><time>2026-05-03T04:23:20Z</time></trkpt><trkpt lat="46.031449404594596" lon="11.960979370952296"><ele>287.0</ele><time>2026-05-03T04:23:21Z</time></trkpt><trkpt lat="46.031464512494104" lon="11.96117159160166"><ele>287.0</ele><time>2026-05-03T04:23:22Z</time></trkpt><trkpt lat="46.03148066279506" lon="11.961370380575415"><ele>286.75</ele><time>2026-05-03T04:23:23Z</time></trkpt><trkpt lat="46.03150020583683" lon="11.961568987823485"><ele>286.5</ele><time>2026-05-03T04:23:24Z</time></trkpt><trkpt lat="46.03152160569091" lon="11.961765658952821"><ele>286.25</ele><time>2026-05-03T04:23:25Z</time></trkpt><trkpt lat="46.03154936650123" lon="11.961960618776368"><ele>286.0</ele><time>2026-05-03T04:23:26Z</time></trkpt><trkpt lat="46.03158760088395" lon="11.962152553324627"><ele>286.0</ele><time>2026-05-03T04:23:27Z</time></trkpt><trkpt lat="46.03164008212664" lon="11.962339841867932"><ele>286.0</ele><time>2026-05-03T04:23:28Z</time></trkpt><trkpt lat="46.03170015511149" lon="11.962516319524218"><ele>286.0</ele><time>2026-05-03T04:23:29Z</time></trkpt><trkpt lat="46.031769956106636" lon="11.962684165211963"><ele>286.0</ele><time>2026-05-03T04:23:30Z</time></trkpt><trkpt lat="46.0318464761584" lon="11.962841982557327"><ele>286.25</ele><time>2026-05-03T04:23:31Z</time></trkpt><trkpt lat="46.03192639883215" lon="11.962987675385744"><ele>286.5</ele><time>2026-05-03T04:23:32Z</time></trkpt><trkpt lat="46.03200601663061" lon="11.963124968319962"><ele>286.75</ele><time>2026-05-03T04:23:33Z</time></trkpt><trkpt lat="46.03209186629657" lon="11.963269331733716"><ele>287.0</ele><time>2026-05-03T04:23:34Z</time></trkpt><trkpt lat="46.03218036216791" lon="11.963417407050294"><ele>286.25</ele><time>2026-05-03T04:23:35Z</time></trkpt><trkpt lat="46.032269154964396" lon="11.963564615614308"><ele>285.5</ele><time>2026-05-03T04:23:36Z</time></trkpt><trkpt lat="46.032359404052016" lon="11.96371582962235"><ele>284.75</ele><time>2026-05-03T04:23:37Z</time></trkpt><trkpt lat="46.0324489166972" lon="11.963868880080412"><ele>284.0</ele><time>2026-05-03T04:23:38Z</time></trkpt><trkpt lat="46.03253994056563" lon="11.964021759892525"><ele>283.0</ele><time>2026-05-03T04:23:39Z</time></trkpt><trkpt lat="46.032631245906465" lon="11.964174849811016"><ele>282.0</ele><time>2026-05-03T04:23:40Z</time></trkpt><trkpt lat="46.0327198967788" lon="11.964332177994788"><ele>281.0</ele><time>2026-05-03T04:23:41Z</time></trkpt><trkpt lat="46.0328010082873" lon="11.9644992933042"><ele>280.0</ele><time>2026-05-03T04:23:42Z</time></trkpt><trkpt lat="46.032877333155064" lon="11.964672674992437"><ele>278.75</ele><time>2026-05-03T04:23:43Z</time></trkpt><trkpt lat="46.032948855956924" lon="11.964851810148978"><ele>277.5</ele><time>2026-05-03T04:23:44Z</time></trkpt><trkpt lat="46.03301026368059" lon="11.965032707791906"><ele>276.25</ele><time>2026-05-03T04:23:45Z</time></trkpt><trkpt lat="46.03306771737023" lon="11.965216170469827"><ele>275.0</ele><time>2026-05-03T04:23:46Z</time></trkpt><trkpt lat="46.03312281530846" lon="11.965401066019563"><ele>275.0</ele><time>2026-05-03T04:23:47Z</time></trkpt><trkpt lat="46.03317848970265" lon="11.965587937171376"><ele>275.0</ele><time>2026-05-03T04:23:48Z</time></trkpt><trkpt lat="46.03323534941297" lon="11.965775126208214"><ele>275.0</ele><time>2026-05-03T04:23:49Z</time></trkpt><trkpt lat="46.033290574664605" lon="11.965959599662469"><ele>275.0</ele><time>2026-05-03T04:23:50Z</time></trkpt><trkpt lat="46.03334162784258" lon="11.966143496994043"><ele>275.0</ele><time>2026-05-03T04:23:51Z</time></trkpt><trkpt lat="46.033387434840655" lon="11.966328621110168"><ele>275.0</ele><time>2026-05-03T04:23:52Z</time></trkpt><trkpt lat="46.03342672029945" lon="11.966518891608535"><ele>275.0</ele><time>2026-05-03T04:23:53Z</time></trkpt><trkpt lat="46.033456185349024" lon="11.96671047430244"><ele>275.0</ele><time>2026-05-03T04:23:54Z</time></trkpt><trkpt lat="46.03347669841517" lon="11.966909827227239"><ele>274.0</ele><time>2026-05-03T04:23:55Z</time></trkpt><trkpt lat="46.03348510338947" lon="11.967112753865447"><ele>273.0</ele><time>2026-05-03T04:23:56Z</time></trkpt><trkpt lat="46.03348713221343" lon="11.967318282176173"><ele>272.0</ele><time>2026-05-03T04:23:57Z</time></trkpt><trkpt lat="46.03348619871554" lon="11.967519959382463"><ele>271.0</ele><time>2026-05-03T04:23:58Z</time></trkpt><trkpt lat="46.03348401838598" lon="11.967725877423687"><ele>269.75</ele><time>2026-05-03T04:23:59Z</time></trkpt><trkpt lat="46.03347871458368" lon="11.967934275185996"><ele>268.5</ele><time>2026-05-03T04:24:00Z</time></trkpt><trkpt lat="46.033472638779074" lon="11.968140964422401"><ele>267.25</ele><time>2026-05-03T04:24:01Z</time></trkpt><trkpt lat="46.03346631997942" lon="11.968350512098292"><ele>266.0</ele><time>2026-05-03T04:24:02Z</time></trkpt><trkpt lat="46.03345932234487" lon="11.96856112633394"><ele>266.0</ele><time>2026-05-03T04:24:03Z</time></trkpt><trkpt lat="46.03345341819901" lon="11.968772768505094"><ele>266.0</ele><time>2026-05-03T04:24:04Z</time></trkpt><trkpt lat="46.03344739105" lon="11.968980362488201"><ele>266.0</ele><time>2026-05-03T04:24:05Z</time></trkpt><trkpt lat="46.03344634655359" lon="11.969184171096957"><ele>266.0</ele><time>2026-05-03T04:24:06Z</time></trkpt><trkpt lat="46.033454309919804" lon="11.969397483246828"><ele>266.0</ele><time>2026-05-03T04:24:07Z</time></trkpt><trkpt lat="46.033469576768944" lon="11.969601193474716"><ele>266.0</ele><time>2026-05-03T04:24:08Z</time></trkpt><trkpt lat="46.03349656312932" lon="11.969804623736248"><ele>266.0</ele><time>2026-05-03T04:24:09Z</time></trkpt><trkpt lat="46.03353465275021" lon="11.970004470666769"><ele>266.0</ele><time>2026-05-03T04:24:10Z</time></trkpt><trkpt lat="46.03358361750063" lon="11.970199664354112"><ele>265.25</ele><time>2026-05-03T04:24:11Z</time></trkpt><trkpt lat="46.033639455896335" lon="11.97039143825763"><ele>264.5</ele><time>2026-05-03T04:24:12Z</time></trkpt><trkpt lat="46.033700482761375" lon="11.970580451065214"><ele>263.75</ele><time>2026-05-03T04:24:13Z</time></trkpt><trkpt lat="46.033764329096684" lon="11.970768770710542"><ele>263.0</ele><time>2026-05-03T04:24:14Z</time></trkpt><trkpt lat="46.03383052514266" lon="11.970954870367777"><ele>262.75</ele><time>2026-05-03T04:24:15Z</time></trkpt><trkpt lat="46.0338993708262" lon="11.971140591405115"><ele>262.5</ele><time>2026-05-03T04:24:16Z</time></trkpt><trkpt lat="46.03396979299193" lon="11.971324204429681"><ele>262.25</ele><time>2026-05-03T04:24:17Z</time></trkpt><trkpt lat="46.03403912712011" lon="11.97150867698442"><ele>262.0</ele><time>2026-05-03T04:24:18Z</time></trkpt><trkpt lat="46.03410779417111" lon="11.971697106800745"><ele>262.75</ele><time>2026-05-03T04:24:19Z</time></trkpt><trkpt lat="46.03417111058128" lon="11.971879950855381"><ele>263.5</ele><time>2026-05-03T04:24:20Z</time></trkpt><trkpt lat="46.03424127342754" lon="11.972066142100577"><ele>264.25</ele><time>2026-05-03T04:24:21Z</time></trkpt><trkpt lat="46.034313397896234" lon="11.97225205335482"><ele>265.0</ele><time>2026-05-03T04:24:22Z</time></trkpt><trkpt lat="46.03438284725922" lon="11.97243730115548"><ele>264.75</ele><time>2026-05-03T04:24:23Z</time></trkpt><trkpt lat="46.03445256309278" lon="11.972624476079309"><ele>264.5</ele><time>2026-05-03T04:24:24Z</time></trkpt><trkpt lat="46.0345233271116" lon="11.97281038272468"><ele>264.25</ele><time>2026-05-03T04:24:25Z</time></trkpt><trkpt lat="46.03459537739953" lon="11.972995209045111"><ele>264.0</ele><time>2026-05-03T04:24:26Z</time></trkpt><trkpt lat="46.034667580874974" lon="11.973178820257028"><ele>264.75</ele><time>2026-05-03T04:24:27Z</time></trkpt><trkpt lat="46.03474085351431" lon="11.97336072046349"><ele>265.5</ele><time>2026-05-03T04:24:28Z</time></trkpt><trkpt lat="46.034814235230414" lon="11.973543319496864"><ele>266.25</ele><time>2026-05-03T04:24:29Z</time></trkpt><trkpt lat="46.03488711174913" lon="11.973724534406488"><ele>267.0</ele><time>2026-05-03T04:24:30Z</time></trkpt><trkpt lat="46.03496013630289" lon="11.973904864922144"><ele>266.5</ele><time>2026-05-03T04:24:31Z</time></trkpt><trkpt lat="46.0350339153914" lon="11.97408499369196"><ele>266.0</ele><time>2026-05-03T04:24:32Z</time></trkpt><trkpt lat="46.03510666437825" lon="11.974265471872068"><ele>265.5</ele><time>2026-05-03T04:24:33Z</time></trkpt><trkpt lat="46.035179684644916" lon="11.974446800007458"><ele>265.0</ele><time>2026-05-03T04:24:34Z</time></trkpt><trkpt lat="46.03525285079581" lon="11.974624846483318"><ele>264.25</ele><time>2026-05-03T04:24:35Z</time></trkpt><trkpt lat="46.03532601181878" lon="11.97480537845471"><ele>263.5</ele><time>2026-05-03T04:24:36Z</time></trkpt><trkpt lat="46.03539806333111" lon="11.974985876197888"><ele>262.75</ele><time>2026-05-03T04:24:37Z</time></trkpt><trkpt lat="46.03547054048024" lon="11.97516889192995"><ele>262.0</ele><time>2026-05-03T04:24:38Z</time></trkpt><trkpt lat="46.03554528179169" lon="11.97535275692266"><ele>262.0</ele><time>2026-05-03T04:24:39Z</time></trkpt><trkpt lat="46.035618974341446" lon="11.975535586358207"><ele>262.0</ele><time>2026-05-03T04:24:40Z</time></trkpt><trkpt lat="46.035688300443375" lon="11.975708389248963"><ele>262.0</ele><time>2026-05-03T04:24:40.999Z</time></trkpt><trkpt lat="46.03575744898051" lon="11.97588103312171"><ele>262.0</ele><time>2026-05-03T04:24:41.999Z</time></trkpt><trkpt lat="46.035824253410595" lon="11.976041275221164"><ele>260.75</ele><time>2026-05-03T04:24:42.999Z</time></trkpt><trkpt lat="46.03588856438225" lon="11.976196820206955"><ele>259.5</ele><time>2026-05-03T04:24:43.999Z</time></trkpt><trkpt lat="46.03595383309658" lon="11.976348501748706"><ele>258.25</ele><time>2026-05-03T04:24:44.999Z</time></trkpt><trkpt lat="46.036015257493204" lon="11.976503400069776"><ele>257.0</ele><time>2026-05-03T04:24:45.999Z</time></trkpt><trkpt lat="46.036080392865216" lon="11.976664871565106"><ele>257.5</ele><time>2026-05-03T04:24:46.999Z</time></trkpt><trkpt lat="46.03614824019759" lon="11.976830590404377"><ele>258.0</ele><time>2026-05-03T04:24:47.999Z</time></trkpt><trkpt lat="46.03621748124551" lon="11.977001401795889"><ele>258.5</ele><time>2026-05-03T04:24:48.999Z</time></trkpt><trkpt lat="46.03628940543467" lon="11.977174073434226"><ele>259.0</ele><time>2026-05-03T04:24:49.999Z</time></trkpt><trkpt lat="46.036361191046886" lon="11.97734855159777"><ele>258.5</ele><time>2026-05-03T04:24:50.999Z</time></trkpt><trkpt lat="46.03643323668779" lon="11.977525512005858"><ele>258.0</ele><time>2026-05-03T04:24:51.999Z</time></trkpt><trkpt lat="46.03650359595913" lon="11.977699217827263"><ele>257.5</ele><time>2026-05-03T04:24:52.999Z</time></trkpt><trkpt lat="46.03657313332248" lon="11.97787345889948"><ele>257.0</ele><time>2026-05-03T04:24:53.999Z</time></trkpt><trkpt lat="46.03664371911171" lon="11.978051193792108"><ele>257.0</ele><time>2026-05-03T04:24:54.999Z</time></trkpt><trkpt lat="46.036715757129066" lon="11.978232000572657"><ele>257.0</ele><time>2026-05-03T04:24:55.999Z</time></trkpt><trkpt lat="46.0367888534663" lon="11.978412749958133"><ele>257.0</ele><time>2026-05-03T04:24:56.999Z</time></trkpt><trkpt lat="46.036864131149954" lon="11.97859325256315"><ele>257.0</ele><time>2026-05-03T04:24:57.999Z</time></trkpt><trkpt lat="46.03693772865344" lon="11.978773444846485"><ele>256.5</ele><time>2026-05-03T04:24:58.999Z</time></trkpt><trkpt lat="46.03701350201806" lon="11.978959627757257"><ele>256.0</ele><time>2026-05-03T04:24:59.999Z</time></trkpt><trkpt lat="46.03708835952096" lon="11.979140685398248"><ele>255.5</ele><time>2026-05-03T04:25:00.999Z</time></trkpt><trkpt lat="46.037158083217854" lon="11.979311711995525"><ele>255.0</ele><time>2026-05-03T04:25:02Z</time></trkpt><trkpt lat="46.03722641478802" lon="11.979478122817296"><ele>255.0</ele><time>2026-05-03T04:25:03Z</time></trkpt><trkpt lat="46.037291529655135" lon="11.979638294634782"><ele>255.0</ele><time>2026-05-03T04:25:04Z</time></trkpt><trkpt lat="46.03735450385685" lon="11.97979058629867"><ele>255.0</ele><time>2026-05-03T04:25:05Z</time></trkpt><trkpt lat="46.03741594100056" lon="11.979939729196943"><ele>255.0</ele><time>2026-05-03T04:25:06Z</time></trkpt><trkpt lat="46.03747388754056" lon="11.980083957684087"><ele>253.4</ele><time>2026-05-03T04:25:07Z</time></trkpt><trkpt lat="46.03752852848129" lon="11.98022441531731"><ele>251.8</ele><time>2026-05-03T04:25:08Z</time></trkpt><trkpt lat="46.03758171063788" lon="11.980360000684007"><ele>250.2</ele><time>2026-05-03T04:25:09Z</time></trkpt><trkpt lat="46.037632529947835" lon="11.980493582683046"><ele>248.6</ele><time>2026-05-03T04:25:10Z</time></trkpt><trkpt lat="46.03767845973514" lon="11.980620893628508"><ele>247.0</ele><time>2026-05-03T04:25:11Z</time></trkpt><trkpt lat="46.037724202237634" lon="11.98074344064928"><ele>247.0</ele><time>2026-05-03T04:25:12Z</time></trkpt><trkpt lat="46.03776551560619" lon="11.980852585290492"><ele>247.0</ele><time>2026-05-03T04:25:13Z</time></trkpt><trkpt lat="46.03780133796328" lon="11.980946894850856"><ele>247.0</ele><time>2026-05-03T04:25:14Z</time></trkpt><trkpt lat="46.03785140084798" lon="11.981085088360096"><ele>247.0</ele><time>2026-05-03T04:25:16Z</time></trkpt><trkpt lat="46.0379150495844" lon="11.98121061273783"><ele>247.0</ele><time>2026-05-03T04:26:19Z</time></trkpt><trkpt lat="46.037994057206646" lon="11.981364099138254"><ele>247.0</ele><time>2026-05-03T04:26:21Z</time></trkpt><trkpt lat="46.038043440985" lon="11.981466957798633"><ele>247.0</ele><time>2026-05-03T04:26:22Z</time></trkpt><trkpt lat="46.03809507234738" lon="11.98159073964838"><ele>247.0</ele><time>2026-05-03T04:26:23Z</time></trkpt><trkpt lat="46.03815682120922" lon="11.98174923327255"><ele>247.0</ele><time>2026-05-03T04:26:24Z</time></trkpt><trkpt lat="46.03823801136504" lon="11.981949829211333"><ele>246.75</ele><time>2026-05-03T04:26:25Z</time></trkpt><trkpt lat="46.03831802339883" lon="11.982134014400874"><ele>246.5</ele><time>2026-05-03T04:26:26Z</time></trkpt><trkpt lat="46.0383884855014" lon="11.98229002721068"><ele>246.25</ele><time>2026-05-03T04:26:27Z</time></trkpt><trkpt lat="46.03845034076117" lon="11.982436127396305"><ele>246.0</ele><time>2026-05-03T04:26:28Z</time></trkpt><trkpt lat="46.03850133596083" lon="11.982556204344844"><ele>246.0</ele><time>2026-05-03T04:26:29Z</time></trkpt><trkpt lat="46.03854426997537" lon="11.982665374525286"><ele>246.00000000000003</ele><time>2026-05-03T04:26:30Z</time></trkpt><trkpt lat="46.038569138536054" lon="11.98278005461271"><ele>246.00000000000003</ele><time>2026-05-03T04:26:31Z</time></trkpt><trkpt lat="46.0385626120758" lon="11.982912855033502"><ele>246.0</ele><time>2026-05-03T04:26:32Z</time></trkpt><trkpt lat="46.038556548345944" lon="11.983048654718642"><ele>246.0</ele><time>2026-05-03T04:26:33Z</time></trkpt><trkpt lat="46.0385964259908" lon="11.983192039885974"><ele>246.0</ele><time>2026-05-03T04:26:34Z</time></trkpt><trkpt lat="46.03865593093722" lon="11.983326476454303"><ele>246.00000000000003</ele><time>2026-05-03T04:26:35Z</time></trkpt><trkpt lat="46.03871135552927" lon="11.983464929674915"><ele>246.00000000000003</ele><time>2026-05-03T04:26:36Z</time></trkpt><trkpt lat="46.038726222997184" lon="11.983627663468345"><ele>246.0</ele><time>2026-05-03T04:26:37Z</time></trkpt><trkpt lat="46.038723464172485" lon="11.98378990878063"><ele>246.0</ele><time>2026-05-03T04:26:38Z</time></trkpt><trkpt lat="46.03870678334342" lon="11.983949655523112"><ele>246.0</ele><time>2026-05-03T04:26:39Z</time></trkpt><trkpt lat="46.03867961800972" lon="11.9841125766734"><ele>246.0</ele><time>2026-05-03T04:26:40Z</time></trkpt><trkpt lat="46.03863432043643" lon="11.984262403357768"><ele>246.0</ele><time>2026-05-03T04:26:40.999Z</time></trkpt><trkpt lat="46.03857950404264" lon="11.984414037644143"><ele>246.0</ele><time>2026-05-03T04:26:41.999Z</time></trkpt><trkpt lat="46.03851794582245" lon="11.984569479049426"><ele>245.0</ele><time>2026-05-03T04:26:42.999Z</time></trkpt><trkpt lat="46.03845746745852" lon="11.984721193689042"><ele>244.0</ele><time>2026-05-03T04:26:43.999Z</time></trkpt><trkpt lat="46.038396146172246" lon="11.9848822992574"><ele>243.0</ele><time>2026-05-03T04:26:44.999Z</time></trkpt><trkpt lat="46.03833472436394" lon="11.985045309413307"><ele>242.0</ele><time>2026-05-03T04:26:45.999Z</time></trkpt><trkpt lat="46.03827046438493" lon="11.985209993153026"><ele>242.0</ele><time>2026-05-03T04:26:46.999Z</time></trkpt><trkpt lat="46.03820363350042" lon="11.985371308729519"><ele>242.0</ele><time>2026-05-03T04:26:47.999Z</time></trkpt><trkpt lat="46.03813396105323" lon="11.985524689024057"><ele>242.0</ele><time>2026-05-03T04:26:48.999Z</time></trkpt><trkpt lat="46.03807660695697" lon="11.985689048755468"><ele>242.0</ele><time>2026-05-03T04:26:49.999Z</time></trkpt><trkpt lat="46.038036910238176" lon="11.985862292707083"><ele>239.75</ele><time>2026-05-03T04:26:50.999Z</time></trkpt><trkpt lat="46.038019403429715" lon="11.986051995187216"><ele>237.5</ele><time>2026-05-03T04:26:51.999Z</time></trkpt><trkpt lat="46.03801875872636" lon="11.986242496315576"><ele>235.25</ele><time>2026-05-03T04:26:52.999Z</time></trkpt><trkpt lat="46.038018685640964" lon="11.986438075543868"><ele>233.0</ele><time>2026-05-03T04:26:53.999Z</time></trkpt><trkpt lat="46.03801243153606" lon="11.986624118626526"><ele>232.75</ele><time>2026-05-03T04:26:54.999Z</time></trkpt><trkpt lat="46.03800600939321" lon="11.986815760806168"><ele>232.5</ele><time>2026-05-03T04:26:55.999Z</time></trkpt><trkpt lat="46.038001266499876" lon="11.9870058610601"><ele>232.25</ele><time>2026-05-03T04:26:56.999Z</time></trkpt><trkpt lat="46.03799521826313" lon="11.9871985302989"><ele>232.0</ele><time>2026-05-03T04:26:57.999Z</time></trkpt><trkpt lat="46.03799026719694" lon="11.987393737410803"><ele>232.5</ele><time>2026-05-03T04:26:58.999Z</time></trkpt><trkpt lat="46.03798566950681" lon="11.987582777368994"><ele>233.0</ele><time>2026-05-03T04:26:59.999Z</time></trkpt><trkpt lat="46.03798428516131" lon="11.987773022989575"><ele>233.5</ele><time>2026-05-03T04:27:00.999Z</time></trkpt><trkpt lat="46.03798677846909" lon="11.987959512423966"><ele>234.0</ele><time>2026-05-03T04:27:01.999Z</time></trkpt><trkpt lat="46.03800248729149" lon="11.98814914636893"><ele>234.0</ele><time>2026-05-03T04:27:02.999Z</time></trkpt><trkpt lat="46.03802639853475" lon="11.988333047824788"><ele>234.0</ele><time>2026-05-03T04:27:03.999Z</time></trkpt><trkpt lat="46.03805392977844" lon="11.988518317193291"><ele>234.0</ele><time>2026-05-03T04:27:04.999Z</time></trkpt><trkpt lat="46.03808329471359" lon="11.988705065432205"><ele>234.0</ele><time>2026-05-03T04:27:05.999Z</time></trkpt><trkpt lat="46.038108961610654" lon="11.988883353634572"><ele>234.5</ele><time>2026-05-03T04:27:06.999Z</time></trkpt><trkpt lat="46.03813284253069" lon="11.989056043297735"><ele>235.0</ele><time>2026-05-03T04:27:08Z</time></trkpt><trkpt lat="46.038158016868024" lon="11.989233497713398"><ele>235.5</ele><time>2026-05-03T04:27:09Z</time></trkpt><trkpt lat="46.03818247672068" lon="11.989408939258498"><ele>236.0</ele><time>2026-05-03T04:27:10Z</time></trkpt><trkpt lat="46.03820667899942" lon="11.989583754320517"><ele>236.75</ele><time>2026-05-03T04:27:11Z</time></trkpt><trkpt lat="46.038223487482824" lon="11.989761502636588"><ele>237.5</ele><time>2026-05-03T04:27:12Z</time></trkpt><trkpt lat="46.038230614499795" lon="11.98994329430661"><ele>238.25</ele><time>2026-05-03T04:27:13Z</time></trkpt><trkpt lat="46.03822889546154" lon="11.990124902417863"><ele>239.0</ele><time>2026-05-03T04:27:14Z</time></trkpt><trkpt lat="46.038222097693314" lon="11.990310241000474"><ele>239.25</ele><time>2026-05-03T04:27:15Z</time></trkpt><trkpt lat="46.038209627209824" lon="11.990498082502048"><ele>239.5</ele><time>2026-05-03T04:27:16Z</time></trkpt><trkpt lat="46.03819206205022" lon="11.990687859760156"><ele>239.75</ele><time>2026-05-03T04:27:17Z</time></trkpt><trkpt lat="46.038172433069825" lon="11.990877595398585"><ele>240.0</ele><time>2026-05-03T04:27:18Z</time></trkpt><trkpt lat="46.03815392141411" lon="11.991064780884908"><ele>240.0</ele><time>2026-05-03T04:27:19Z</time></trkpt><trkpt lat="46.038136262787305" lon="11.991251374110817"><ele>240.0</ele><time>2026-05-03T04:27:20Z</time></trkpt><trkpt lat="46.03811935660924" lon="11.99143664333953"><ele>240.0</ele><time>2026-05-03T04:27:21Z</time></trkpt><trkpt lat="46.038103484547264" lon="11.99162356156108"><ele>240.0</ele><time>2026-05-03T04:27:22Z</time></trkpt><trkpt lat="46.03809029580085" lon="11.99181130704635"><ele>240.0</ele><time>2026-05-03T04:27:23Z</time></trkpt><trkpt lat="46.038079013570595" lon="11.992001278647335"><ele>240.0</ele><time>2026-05-03T04:27:24Z</time></trkpt><trkpt lat="46.03806653951743" lon="11.992188565989244"><ele>240.0</ele><time>2026-05-03T04:27:25Z</time></trkpt><trkpt lat="46.038050197911595" lon="11.99237753138807"><ele>240.0</ele><time>2026-05-03T04:27:26Z</time></trkpt><trkpt lat="46.03803285158613" lon="11.992566314189162"><ele>240.0</ele><time>2026-05-03T04:27:27Z</time></trkpt><trkpt lat="46.038015155743146" lon="11.992754993164194"><ele>240.0</ele><time>2026-05-03T04:27:28Z</time></trkpt><trkpt lat="46.037997412235626" lon="11.992945566069876"><ele>240.0</ele><time>2026-05-03T04:27:29Z</time></trkpt><trkpt lat="46.03797755828167" lon="11.993129969836467"><ele>240.0</ele><time>2026-05-03T04:27:30Z</time></trkpt><trkpt lat="46.037955321935826" lon="11.993313785409413"><ele>240.0</ele><time>2026-05-03T04:27:31Z</time></trkpt><trkpt lat="46.03793065800157" lon="11.993497851383314"><ele>240.0</ele><time>2026-05-03T04:27:32Z</time></trkpt><trkpt lat="46.03790514069905" lon="11.993681869633804"><ele>240.0</ele><time>2026-05-03T04:27:33Z</time></trkpt><trkpt lat="46.0378836661651" lon="11.993867245041306"><ele>240.0</ele><time>2026-05-03T04:27:34Z</time></trkpt><trkpt lat="46.037868713740444" lon="11.994053948873244"><ele>240.5</ele><time>2026-05-03T04:27:35Z</time></trkpt><trkpt lat="46.03786269956836" lon="11.99423916287743"><ele>241.0</ele><time>2026-05-03T04:27:36Z</time></trkpt><trkpt lat="46.037856661822914" lon="11.99442420758844"><ele>241.5</ele><time>2026-05-03T04:27:37Z</time></trkpt><trkpt lat="46.03784256119779" lon="11.99461343403301"><ele>242.0</ele><time>2026-05-03T04:27:38Z</time></trkpt><trkpt lat="46.03782371210615" lon="11.994797904642521"><ele>242.0</ele><time>2026-05-03T04:27:39Z</time></trkpt><trkpt lat="46.037803684313225" lon="11.994986604706748"><ele>242.0</ele><time>2026-05-03T04:27:40Z</time></trkpt><trkpt lat="46.037786741297275" lon="11.995170045058458"><ele>242.0</ele><time>2026-05-03T04:27:41Z</time></trkpt><trkpt lat="46.03777154196733" lon="11.995358576984337"><ele>242.0</ele><time>2026-05-03T04:27:42Z</time></trkpt><trkpt lat="46.0377585150621" lon="11.99554596968726"><ele>242.0</ele><time>2026-05-03T04:27:43Z</time></trkpt><trkpt lat="46.03774892817566" lon="11.995728931566342"><ele>242.0</ele><time>2026-05-03T04:27:44Z</time></trkpt><trkpt lat="46.03774094105377" lon="11.995915291681207"><ele>242.0</ele><time>2026-05-03T04:27:45Z</time></trkpt><trkpt lat="46.03773377485963" lon="11.996101649369434"><ele>242.0</ele><time>2026-05-03T04:27:46Z</time></trkpt><trkpt lat="46.037724991504724" lon="11.996284667975214"><ele>242.0</ele><time>2026-05-03T04:27:47Z</time></trkpt><trkpt lat="46.037720371233554" lon="11.996472049659536"><ele>242.0</ele><time>2026-05-03T04:27:48Z</time></trkpt><trkpt lat="46.03771860943949" lon="11.99665509105083"><ele>242.0</ele><time>2026-05-03T04:27:49Z</time></trkpt><trkpt lat="46.03772031665002" lon="11.996837902730702"><ele>242.0</ele><time>2026-05-03T04:27:50Z</time></trkpt><trkpt lat="46.037721563171914" lon="11.997025113175294"><ele>241.75</ele><time>2026-05-03T04:27:51Z</time></trkpt><trkpt lat="46.037725641185226" lon="11.997217587448448"><ele>241.5</ele><time>2026-05-03T04:27:52Z</time></trkpt><trkpt lat="46.03772980448173" lon="11.997408402577891"><ele>241.25</ele><time>2026-05-03T04:27:53Z</time></trkpt><trkpt lat="46.03773844003839" lon="11.997598085732212"><ele>241.0</ele><time>2026-05-03T04:27:54Z</time></trkpt><trkpt lat="46.037752026031846" lon="11.997790075477472"><ele>241.25</ele><time>2026-05-03T04:27:55Z</time></trkpt><trkpt lat="46.037768739015675" lon="11.99798383104924"><ele>241.5</ele><time>2026-05-03T04:27:56Z</time></trkpt><trkpt lat="46.03778603419952" lon="11.998175515091122"><ele>241.75</ele><time>2026-05-03T04:27:57Z</time></trkpt><trkpt lat="46.03780548616471" lon="11.998370076440672"><ele>242.0</ele><time>2026-05-03T04:27:58Z</time></trkpt><trkpt lat="46.03782654055392" lon="11.998563620114204"><ele>242.0</ele><time>2026-05-03T04:27:59Z</time></trkpt><trkpt lat="46.03784923356332" lon="11.998758502041156"><ele>242.0</ele><time>2026-05-03T04:28:00Z</time></trkpt><trkpt lat="46.03788133317977" lon="11.998954169778553"><ele>242.0</ele><time>2026-05-03T04:28:01Z</time></trkpt><trkpt lat="46.03790582789615" lon="11.999142442492925"><ele>242.0</ele><time>2026-05-03T04:28:02Z</time></trkpt><trkpt lat="46.03793363216844" lon="11.999329436199384"><ele>241.75</ele><time>2026-05-03T04:28:03Z</time></trkpt><trkpt lat="46.03796418849702" lon="11.999513431101883"><ele>241.5</ele><time>2026-05-03T04:28:04Z</time></trkpt><trkpt lat="46.0379958646147" lon="11.999698912123353"><ele>241.25</ele><time>2026-05-03T04:28:05Z</time></trkpt><trkpt lat="46.03803212318826" lon="11.999882026521119"><ele>241.0</ele><time>2026-05-03T04:28:06Z</time></trkpt><trkpt lat="46.03807582626133" lon="12.000064513804588"><ele>241.0</ele><time>2026-05-03T04:28:07Z</time></trkpt><trkpt lat="46.03812452176139" lon="12.000247768427654"><ele>241.0</ele><time>2026-05-03T04:28:08Z</time></trkpt><trkpt lat="46.03817538495967" lon="12.000426555801223"><ele>241.0</ele><time>2026-05-03T04:28:09Z</time></trkpt><trkpt lat="46.03822949452024" lon="12.000600731063427"><ele>241.0</ele><time>2026-05-03T04:28:10Z</time></trkpt><trkpt lat="46.03828359987905" lon="12.000767647052342"><ele>241.75</ele><time>2026-05-03T04:28:11Z</time></trkpt><trkpt lat="46.03834147085236" lon="12.000932280541782"><ele>242.5</ele><time>2026-05-03T04:28:12Z</time></trkpt><trkpt lat="46.038402884874905" lon="12.001095016893387"><ele>243.25</ele><time>2026-05-03T04:28:13Z</time></trkpt><trkpt lat="46.038466626528255" lon="12.001259375554818"><ele>244.0</ele><time>2026-05-03T04:28:14Z</time></trkpt><trkpt lat="46.03853368953945" lon="12.001424573231226"><ele>244.0</ele><time>2026-05-03T04:28:15Z</time></trkpt><trkpt lat="46.03860284868922" lon="12.001587525560792"><ele>244.0</ele><time>2026-05-03T04:28:16Z</time></trkpt><trkpt lat="46.03867284685297" lon="12.001749574077358"><ele>244.0</ele><time>2026-05-03T04:28:17Z</time></trkpt><trkpt lat="46.03874829229198" lon="12.001905813043123"><ele>244.0</ele><time>2026-05-03T04:28:18Z</time></trkpt><trkpt lat="46.038829574647835" lon="12.002058014423653"><ele>243.75</ele><time>2026-05-03T04:28:19Z</time></trkpt><trkpt lat="46.038916455051115" lon="12.00220379505878"><ele>243.5</ele><time>2026-05-03T04:28:20Z</time></trkpt><trkpt lat="46.03900448460654" lon="12.00234920837258"><ele>243.25</ele><time>2026-05-03T04:28:21Z</time></trkpt><trkpt lat="46.039093098896686" lon="12.002497354687705"><ele>243.0</ele><time>2026-05-03T04:28:22Z</time></trkpt><trkpt lat="46.03918097991261" lon="12.002642801026068"><ele>243.0</ele><time>2026-05-03T04:28:23Z</time></trkpt><trkpt lat="46.03926805636052" lon="12.002788819620699"><ele>243.0</ele><time>2026-05-03T04:28:24Z</time></trkpt><trkpt lat="46.039353260513586" lon="12.002934296715603"><ele>243.0</ele><time>2026-05-03T04:28:25Z</time></trkpt><trkpt lat="46.03943839328695" lon="12.003079137370117"><ele>243.0</ele><time>2026-05-03T04:28:26Z</time></trkpt><trkpt lat="46.03952117020661" lon="12.003224660397935"><ele>243.0</ele><time>2026-05-03T04:28:27Z</time></trkpt><trkpt lat="46.03960543780426" lon="12.00337266471449"><ele>243.0</ele><time>2026-05-03T04:28:28Z</time></trkpt><trkpt lat="46.039688869615816" lon="12.003521258083873"><ele>243.0</ele><time>2026-05-03T04:28:29Z</time></trkpt><trkpt lat="46.03976984500985" lon="12.003674167779565"><ele>243.0</ele><time>2026-05-03T04:28:30Z</time></trkpt><trkpt lat="46.03984877002386" lon="12.003830355042862"><ele>243.0</ele><time>2026-05-03T04:28:31Z</time></trkpt><trkpt lat="46.03992491889986" lon="12.003990671502118"><ele>243.0</ele><time>2026-05-03T04:28:32Z</time></trkpt><trkpt lat="46.03999874996023" lon="12.004148513544362"><ele>243.0</ele><time>2026-05-03T04:28:33Z</time></trkpt><trkpt lat="46.04007311337393" lon="12.004307721610722"><ele>243.0</ele><time>2026-05-03T04:28:34Z</time></trkpt><trkpt lat="46.040146334851904" lon="12.004469680343869"><ele>243.5</ele><time>2026-05-03T04:28:35Z</time></trkpt><trkpt lat="46.040218366812205" lon="12.004632760823926"><ele>244.0</ele><time>2026-05-03T04:28:36Z</time></trkpt><trkpt lat="46.04028892598324" lon="12.004795663045792"><ele>244.5</ele><time>2026-05-03T04:28:37Z</time></trkpt><trkpt lat="46.04035964549656" lon="12.004958142089857"><ele>245.0</ele><time>2026-05-03T04:28:38Z</time></trkpt><trkpt lat="46.040430077115154" lon="12.005116765521837"><ele>245.25</ele><time>2026-05-03T04:28:39Z</time></trkpt><trkpt lat="46.0404997573733" lon="12.005274531938548"><ele>245.5</ele><time>2026-05-03T04:28:39.999Z</time></trkpt><trkpt lat="46.040570750182475" lon="12.005435030399612"><ele>245.75</ele><time>2026-05-03T04:28:40.999Z</time></trkpt><trkpt lat="46.04064030325567" lon="12.005594002780231"><ele>246.0</ele><time>2026-05-03T04:28:41.999Z</time></trkpt><trkpt lat="46.0407127293724" lon="12.005758331147145"><ele>246.0</ele><time>2026-05-03T04:28:42.999Z</time></trkpt><trkpt lat="46.04078538004092" lon="12.005922412559524"><ele>246.0</ele><time>2026-05-03T04:28:43.999Z</time></trkpt><trkpt lat="46.04085931614447" lon="12.006084793068549"><ele>246.0</ele><time>2026-05-03T04:28:44.999Z</time></trkpt><trkpt lat="46.0409295900703" lon="12.006251021668293"><ele>246.0</ele><time>2026-05-03T04:28:45.999Z</time></trkpt><trkpt lat="46.04099911650601" lon="12.006417064379637"><ele>246.0</ele><time>2026-05-03T04:28:46.999Z</time></trkpt><trkpt lat="46.04107113555054" lon="12.006581375876575"><ele>246.0</ele><time>2026-05-03T04:28:47.999Z</time></trkpt><trkpt lat="46.04114437467471" lon="12.006745761791214"><ele>246.0</ele><time>2026-05-03T04:28:48.999Z</time></trkpt><trkpt lat="46.04121635111249" lon="12.006908008045025"><ele>246.0</ele><time>2026-05-03T04:28:49.999Z</time></trkpt><trkpt lat="46.04128702017887" lon="12.007067117499371"><ele>246.25</ele><time>2026-05-03T04:28:50.999Z</time></trkpt><trkpt lat="46.041355847958464" lon="12.00723140227627"><ele>246.5</ele><time>2026-05-03T04:28:51.999Z</time></trkpt><trkpt lat="46.04142723329977" lon="12.007391659808052"><ele>246.75</ele><time>2026-05-03T04:28:52.999Z</time></trkpt><trkpt lat="46.041497853755274" lon="12.007555172495858"><ele>247.0</ele><time>2026-05-03T04:28:53.999Z</time></trkpt><trkpt lat="46.04156882878789" lon="12.007719836298902"><ele>247.25</ele><time>2026-05-03T04:28:54.999Z</time></trkpt><trkpt lat="46.04163873635387" lon="12.007880245601768"><ele>247.5</ele><time>2026-05-03T04:28:55.999Z</time></trkpt><trkpt lat="46.0417066295032" lon="12.008038120261064"><ele>247.75</ele><time>2026-05-03T04:28:56.999Z</time></trkpt><trkpt lat="46.041775336936844" lon="12.008195272943139"><ele>248.0</ele><time>2026-05-03T04:28:57.999Z</time></trkpt><trkpt lat="46.04184548853232" lon="12.00835527457909"><ele>248.25</ele><time>2026-05-03T04:28:58.999Z</time></trkpt><trkpt lat="46.041913285732925" lon="12.008513185762915"><ele>248.5</ele><time>2026-05-03T04:28:59.999Z</time></trkpt><trkpt lat="46.04198166849244" lon="12.008671999209676"><ele>248.75</ele><time>2026-05-03T04:29:00.999Z</time></trkpt><trkpt lat="46.0420507860216" lon="12.00883034567091"><ele>249.0</ele><time>2026-05-03T04:29:01.999Z</time></trkpt><trkpt lat="46.042120097362144" lon="12.008987962829181"><ele>249.0</ele><time>2026-05-03T04:29:02.999Z</time></trkpt><trkpt lat="46.04218851068248" lon="12.009144512320042"><ele>249.0</ele><time>2026-05-03T04:29:03.999Z</time></trkpt><trkpt lat="46.0422570452847" lon="12.009303148489433"><ele>249.0</ele><time>2026-05-03T04:29:04.999Z</time></trkpt><trkpt lat="46.04232601058466" lon="12.00946409920022"><ele>249.0</ele><time>2026-05-03T04:29:05.999Z</time></trkpt><trkpt lat="46.042392953094634" lon="12.009623448813116"><ele>249.0</ele><time>2026-05-03T04:29:06.999Z</time></trkpt><trkpt lat="46.042459920186744" lon="12.009784248192378"><ele>249.0</ele><time>2026-05-03T04:29:07.999Z</time></trkpt><trkpt lat="46.04252565348368" lon="12.009947018750882"><ele>249.0</ele><time>2026-05-03T04:29:08.999Z</time></trkpt><trkpt lat="46.042590516079365" lon="12.010114631559485"><ele>249.0</ele><time>2026-05-03T04:29:09.999Z</time></trkpt><trkpt lat="46.042645348529" lon="12.010270449679341"><ele>249.0</ele><time>2026-05-03T04:29:10.999Z</time></trkpt><trkpt lat="46.042638577260504" lon="12.01045574980994"><ele>248.99999999999997</ele><time>2026-05-03T04:29:11.999Z</time></trkpt><trkpt lat="46.0427337645243" lon="12.010558335925289"><ele>248.99999999999997</ele><time>2026-05-03T04:29:12.999Z</time></trkpt><trkpt lat="46.04276219178397" lon="12.010694557380312"><ele>249.0</ele><time>2026-05-03T04:29:14Z</time></trkpt><trkpt lat="46.04277909322001" lon="12.010832098756957"><ele>249.0</ele><time>2026-05-03T04:29:15Z</time></trkpt><trkpt lat="46.04279984036244" lon="12.01097426169025"><ele>249.25</ele><time>2026-05-03T04:29:16Z</time></trkpt><trkpt lat="46.04283272445681" lon="12.011115657203312"><ele>249.5</ele><time>2026-05-03T04:29:17Z</time></trkpt><trkpt lat="46.04293636787667" lon="12.011241028219507"><ele>249.75</ele><time>2026-05-03T04:29:18Z</time></trkpt><trkpt lat="46.043011664342174" lon="12.011375224561469"><ele>250.0</ele><time>2026-05-03T04:29:19Z</time></trkpt><trkpt lat="46.04304029067695" lon="12.011578430665844"><ele>250.25</ele><time>2026-05-03T04:29:20Z</time></trkpt><trkpt lat="46.04309017762996" lon="12.01175972230074"><ele>250.5</ele><time>2026-05-03T04:29:21Z</time></trkpt><trkpt lat="46.04314173202376" lon="12.011929998200438"><ele>250.75</ele><time>2026-05-03T04:29:22Z</time></trkpt><trkpt lat="46.04319318393696" lon="12.012106177270862"><ele>251.0</ele><time>2026-05-03T04:29:23Z</time></trkpt><trkpt lat="46.043242695182094" lon="12.012282832218867"><ele>251.0</ele><time>2026-05-03T04:29:24Z</time></trkpt><trkpt lat="46.04329320668919" lon="12.012459556677841"><ele>251.0</ele><time>2026-05-03T04:29:25Z</time></trkpt><trkpt lat="46.04334248138212" lon="12.012635371298842"><ele>251.0</ele><time>2026-05-03T04:29:26Z</time></trkpt><trkpt lat="46.04339216013515" lon="12.012808460326914"><ele>251.0</ele><time>2026-05-03T04:29:27Z</time></trkpt><trkpt lat="46.04344370232672" lon="12.012982502912518"><ele>250.75</ele><time>2026-05-03T04:29:28Z</time></trkpt><trkpt lat="46.04349463704114" lon="12.013156213542649"><ele>250.5</ele><time>2026-05-03T04:29:29Z</time></trkpt><trkpt lat="46.043545001805946" lon="12.013331888723805"><ele>250.25</ele><time>2026-05-03T04:29:30Z</time></trkpt><trkpt lat="46.04359490964805" lon="12.01350589919465"><ele>250.0</ele><time>2026-05-03T04:29:31Z</time></trkpt><trkpt lat="46.04364482992591" lon="12.013676713667449"><ele>250.5</ele><time>2026-05-03T04:29:32Z</time></trkpt><trkpt lat="46.04369443205208" lon="12.013847151122071"><ele>251.0</ele><time>2026-05-03T04:29:33Z</time></trkpt><trkpt lat="46.04374375690721" lon="12.01401553790775"><ele>251.5</ele><time>2026-05-03T04:29:34Z</time></trkpt><trkpt lat="46.0437911559274" lon="12.014185101859631"><ele>252.0</ele><time>2026-05-03T04:29:35Z</time></trkpt><trkpt lat="46.04383885090247" lon="12.01435319495536"><ele>253.0</ele><time>2026-05-03T04:29:36Z</time></trkpt><trkpt lat="46.04388888944579" lon="12.014520542638543"><ele>254.0</ele><time>2026-05-03T04:29:37Z</time></trkpt><trkpt lat="46.043937585578675" lon="12.014686653021716"><ele>255.0</ele><time>2026-05-03T04:29:38Z</time></trkpt><trkpt lat="46.043985199592726" lon="12.014853824507194"><ele>256.0</ele><time>2026-05-03T04:29:39Z</time></trkpt><trkpt lat="46.04403268816878" lon="12.015020672550147"><ele>255.75</ele><time>2026-05-03T04:29:40Z</time></trkpt><trkpt lat="46.04408144804154" lon="12.015189571474174"><ele>255.5</ele><time>2026-05-03T04:29:41Z</time></trkpt><trkpt lat="46.04412832462051" lon="12.015357083872335"><ele>255.25</ele><time>2026-05-03T04:29:42Z</time></trkpt><trkpt lat="46.04417838729921" lon="12.01552561503088"><ele>255.0</ele><time>2026-05-03T04:29:43Z</time></trkpt><trkpt lat="46.04422893626677" lon="12.015695874949879"><ele>255.5</ele><time>2026-05-03T04:29:44Z</time></trkpt><trkpt lat="46.04427969918162" lon="12.015866382321384"><ele>256.0</ele><time>2026-05-03T04:29:45Z</time></trkpt><trkpt lat="46.04432935760218" lon="12.016037669086396"><ele>256.5</ele><time>2026-05-03T04:29:46Z</time></trkpt><trkpt lat="46.04437641093503" lon="12.016209576107086"><ele>257.0</ele><time>2026-05-03T04:29:47Z</time></trkpt><trkpt lat="46.04441816083588" lon="12.01637965316799"><ele>257.0</ele><time>2026-05-03T04:29:48Z</time></trkpt><trkpt lat="46.04444965221648" lon="12.016539667909178"><ele>257.0</ele><time>2026-05-03T04:29:49Z</time></trkpt><trkpt lat="46.04447506621847" lon="12.016695175360526"><ele>257.0</ele><time>2026-05-03T04:29:50Z</time></trkpt><trkpt lat="46.04449255053181" lon="12.016855287914849"><ele>257.0</ele><time>2026-05-03T04:29:51Z</time></trkpt><trkpt lat="46.044504942723464" lon="12.017024750602056"><ele>257.0</ele><time>2026-05-03T04:29:52Z</time></trkpt><trkpt lat="46.044513286072075" lon="12.017196937708945"><ele>257.0</ele><time>2026-05-03T04:29:53Z</time></trkpt><trkpt lat="46.04451685449817" lon="12.017372000029349"><ele>257.0</ele><time>2026-05-03T04:29:54Z</time></trkpt><trkpt lat="46.04451803810665" lon="12.017550368503368"><ele>257.0</ele><time>2026-05-03T04:29:55Z</time></trkpt><trkpt lat="46.04451811297362" lon="12.017731294324879"><ele>257.0</ele><time>2026-05-03T04:29:56Z</time></trkpt><trkpt lat="46.044522188188395" lon="12.017907919985031"><ele>257.0</ele><time>2026-05-03T04:29:57Z</time></trkpt><trkpt lat="46.04452387568751" lon="12.018089887713392"><ele>257.0</ele><time>2026-05-03T04:29:58Z</time></trkpt><trkpt lat="46.044524739542595" lon="12.018277024041017"><ele>257.0</ele><time>2026-05-03T04:29:59Z</time></trkpt><trkpt lat="46.04452590599826" lon="12.018459021912848"><ele>257.25</ele><time>2026-05-03T04:30:00Z</time></trkpt><trkpt lat="46.04452577315421" lon="12.018640999664122"><ele>257.5</ele><time>2026-05-03T04:30:01Z</time></trkpt><trkpt lat="46.04452521877364" lon="12.018821107576182"><ele>257.75</ele><time>2026-05-03T04:30:02Z</time></trkpt><trkpt lat="46.04452499821707" lon="12.019000551692843"><ele>258.0</ele><time>2026-05-03T04:30:03Z</time></trkpt><trkpt lat="46.04452777712293" lon="12.019179479313276"><ele>258.25</ele><time>2026-05-03T04:30:04Z</time></trkpt><trkpt lat="46.0445290951723" lon="12.019358178757672"><ele>258.5</ele><time>2026-05-03T04:30:05Z</time></trkpt><trkpt lat="46.04453184048761" lon="12.019537162850355"><ele>258.75</ele><time>2026-05-03T04:30:06Z</time></trkpt><trkpt lat="46.044530332186014" lon="12.01971059353516"><ele>259.0</ele><time>2026-05-03T04:30:07Z</time></trkpt><trkpt lat="46.0445388991314" lon="12.019884148709917"><ele>259.5</ele><time>2026-05-03T04:30:08Z</time></trkpt><trkpt lat="46.0445468759046" lon="12.02005360103444"><ele>260.0</ele><time>2026-05-03T04:30:09Z</time></trkpt><trkpt lat="46.04456440423433" lon="12.020223450867112"><ele>260.5</ele><time>2026-05-03T04:30:10Z</time></trkpt><trkpt lat="46.04458819415397" lon="12.020389730888212"><ele>261.0</ele><time>2026-05-03T04:30:11Z</time></trkpt><trkpt lat="46.04461820014899" lon="12.020552061738876"><ele>261.0</ele><time>2026-05-03T04:30:12Z</time></trkpt><trkpt lat="46.044644580588376" lon="12.020716134762718"><ele>261.0</ele><time>2026-05-03T04:30:13Z</time></trkpt><trkpt lat="46.044671273420974" lon="12.02087531447112"><ele>261.0</ele><time>2026-05-03T04:30:14Z</time></trkpt><trkpt lat="46.0447041878216" lon="12.021034437267266"><ele>261.0</ele><time>2026-05-03T04:30:15Z</time></trkpt><trkpt lat="46.044744868009175" lon="12.021187063328998"><ele>261.40000000000003</ele><time>2026-05-03T04:30:16Z</time></trkpt><trkpt lat="46.04478817729671" lon="12.021339736728933"><ele>261.8</ele><time>2026-05-03T04:30:17Z</time></trkpt><trkpt lat="46.04483328067076" lon="12.021481915770613"><ele>262.20000000000005</ele><time>2026-05-03T04:30:18Z</time></trkpt><trkpt lat="46.04487643791608" lon="12.021618266208446"><ele>262.6</ele><time>2026-05-03T04:30:19Z</time></trkpt><trkpt lat="46.04491545659241" lon="12.021742735955366"><ele>263.0</ele><time>2026-05-03T04:30:20Z</time></trkpt><trkpt lat="46.04494802651838" lon="12.021862990471135"><ele>262.8</ele><time>2026-05-03T04:30:21Z</time></trkpt><trkpt lat="46.04497543517399" lon="12.021990912966567"><ele>262.6</ele><time>2026-05-03T04:30:22Z</time></trkpt><trkpt lat="46.04499741373926" lon="12.022130829383931"><ele>262.4</ele><time>2026-05-03T04:30:23Z</time></trkpt><trkpt lat="46.045018882366804" lon="12.022282467891635"><ele>262.2</ele><time>2026-05-03T04:30:24Z</time></trkpt><trkpt lat="46.04504424292825" lon="12.022442240588743"><ele>262.0</ele><time>2026-05-03T04:30:25Z</time></trkpt><trkpt lat="46.045071270937505" lon="12.02260600008454"><ele>262.0</ele><time>2026-05-03T04:30:26Z</time></trkpt><trkpt lat="46.04509987340438" lon="12.022767821239576"><ele>262.0</ele><time>2026-05-03T04:30:27Z</time></trkpt><trkpt lat="46.0451287221707" lon="12.022932638926171"><ele>262.0</ele><time>2026-05-03T04:30:28Z</time></trkpt><trkpt lat="46.045174100477446" lon="12.023102754839856"><ele>262.0</ele><time>2026-05-03T04:30:29Z</time></trkpt><trkpt lat="46.04519002983655" lon="12.023266235386968"><ele>262.25</ele><time>2026-05-03T04:30:30Z</time></trkpt><trkpt lat="46.045217048692116" lon="12.02343212997979"><ele>262.5</ele><time>2026-05-03T04:30:31Z</time></trkpt><trkpt lat="46.04524424560888" lon="12.023597890753216"><ele>262.75</ele><time>2026-05-03T04:30:32Z</time></trkpt><trkpt lat="46.04526943485868" lon="12.023762921115738"><ele>263.0</ele><time>2026-05-03T04:30:33Z</time></trkpt><trkpt lat="46.045285462033085" lon="12.023925770078561"><ele>263.0</ele><time>2026-05-03T04:30:34Z</time></trkpt><trkpt lat="46.04529240046557" lon="12.024093289099927"><ele>263.0</ele><time>2026-05-03T04:30:35Z</time></trkpt><trkpt lat="46.045288357047575" lon="12.024259276271733"><ele>263.0</ele><time>2026-05-03T04:30:36Z</time></trkpt><trkpt lat="46.04528018387665" lon="12.024428854363002"><ele>263.0</ele><time>2026-05-03T04:30:37Z</time></trkpt><trkpt lat="46.04526482981971" lon="12.02460045645057"><ele>263.25</ele><time>2026-05-03T04:30:38Z</time></trkpt><trkpt lat="46.04524726607107" lon="12.02477445482062"><ele>263.5</ele><time>2026-05-03T04:30:39Z</time></trkpt><trkpt lat="46.04522724853301" lon="12.024954832913297"><ele>263.75</ele><time>2026-05-03T04:30:40Z</time></trkpt><trkpt lat="46.045211193071566" lon="12.025127129033887"><ele>264.0</ele><time>2026-05-03T04:30:41Z</time></trkpt><trkpt lat="46.04519636309442" lon="12.025296301847776"><ele>264.0</ele><time>2026-05-03T04:30:42Z</time></trkpt><trkpt lat="46.0451820650694" lon="12.0254635196315"><ele>264.0</ele><time>2026-05-03T04:30:43Z</time></trkpt><trkpt lat="46.045168093309016" lon="12.025630998986502"><ele>264.0</ele><time>2026-05-03T04:30:44Z</time></trkpt><trkpt lat="46.04515265486789" lon="12.025801532852197"><ele>264.0</ele><time>2026-05-03T04:30:45Z</time></trkpt><trkpt lat="46.04513768399207" lon="12.0259678375876"><ele>264.0</ele><time>2026-05-03T04:30:46Z</time></trkpt><trkpt lat="46.04512093781106" lon="12.02613504668283"><ele>264.0</ele><time>2026-05-03T04:30:47Z</time></trkpt><trkpt lat="46.04510385800181" lon="12.026302230036626"><ele>264.0</ele><time>2026-05-03T04:30:48Z</time></trkpt><trkpt lat="46.04509086564034" lon="12.026470265762763"><ele>264.0</ele><time>2026-05-03T04:30:49Z</time></trkpt><trkpt lat="46.045085928237576" lon="12.026636172513829"><ele>264.0</ele><time>2026-05-03T04:30:50Z</time></trkpt><trkpt lat="46.04510518541776" lon="12.026808715791551"><ele>264.0</ele><time>2026-05-03T04:30:51Z</time></trkpt><trkpt lat="46.04513543639121" lon="12.026983607842668"><ele>264.0</ele><time>2026-05-03T04:30:52Z</time></trkpt><trkpt lat="46.04516523629829" lon="12.027160224931624"><ele>264.0</ele><time>2026-05-03T04:30:52.999Z</time></trkpt><trkpt lat="46.04519812562031" lon="12.027327174420572"><ele>264.0</ele><time>2026-05-03T04:30:53.999Z</time></trkpt><trkpt lat="46.045230968345045" lon="12.027489532245985"><ele>264.0</ele><time>2026-05-03T04:30:54.999Z</time></trkpt><trkpt lat="46.04525994647757" lon="12.027647922167334"><ele>264.0</ele><time>2026-05-03T04:30:55.999Z</time></trkpt><trkpt lat="46.04527747023125" lon="12.027809166796917"><ele>264.0</ele><time>2026-05-03T04:30:56.999Z</time></trkpt><trkpt lat="46.045276439349166" lon="12.0279718210747"><ele>264.0</ele><time>2026-05-03T04:30:57.999Z</time></trkpt><trkpt lat="46.045267690604064" lon="12.028130471375837"><ele>264.0</ele><time>2026-05-03T04:30:58.999Z</time></trkpt><trkpt lat="46.04525640449205" lon="12.028279205544845"><ele>264.0</ele><time>2026-05-03T04:30:59.999Z</time></trkpt><trkpt lat="46.0452458678423" lon="12.028419078820539"><ele>264.0</ele><time>2026-05-03T04:31:00.999Z</time></trkpt><trkpt lat="46.045237502977145" lon="12.028547377725273"><ele>264.0</ele><time>2026-05-03T04:31:01.999Z</time></trkpt><trkpt lat="46.045230505170075" lon="12.028672257841666"><ele>264.0</ele><time>2026-05-03T04:31:02.999Z</time></trkpt><trkpt lat="46.045239926566275" lon="12.028788171676158"><ele>264.0</ele><time>2026-05-03T04:31:03.999Z</time></trkpt><trkpt lat="46.0452569887787" lon="12.028909611685396"><ele>264.0</ele><time>2026-05-03T04:31:04.999Z</time></trkpt><trkpt lat="46.045269969647336" lon="12.029044214652412"><ele>264.0</ele><time>2026-05-03T04:31:05.999Z</time></trkpt><trkpt lat="46.04527467873718" lon="12.029186912537629"><ele>264.0</ele><time>2026-05-03T04:31:06.999Z</time></trkpt><trkpt lat="46.04528087796105" lon="12.029329086083745"><ele>264.2</ele><time>2026-05-03T04:31:07.999Z</time></trkpt><trkpt lat="46.04528822319414" lon="12.02946557875851"><ele>264.4</ele><time>2026-05-03T04:31:08.999Z</time></trkpt><trkpt lat="46.045297976814915" lon="12.029591025525619"><ele>264.6</ele><time>2026-05-03T04:31:09.999Z</time></trkpt><trkpt lat="46.045330565524004" lon="12.029718355103038"><ele>264.8</ele><time>2026-05-03T04:31:10.999Z</time></trkpt><trkpt lat="46.04538566939637" lon="12.02982946317777"><ele>265.0</ele><time>2026-05-03T04:31:11.999Z</time></trkpt><trkpt lat="46.04544145321982" lon="12.029943936125507"><ele>265.5</ele><time>2026-05-03T04:31:12.999Z</time></trkpt><trkpt lat="46.04548683050602" lon="12.03006948104983"><ele>266.0</ele><time>2026-05-03T04:31:13.999Z</time></trkpt><trkpt lat="46.045507328839356" lon="12.030174613733205"><ele>266.5</ele><time>2026-05-03T04:31:14.999Z</time></trkpt><trkpt lat="46.045507618934636" lon="12.030298098122978"><ele>267.0</ele><time>2026-05-03T04:31:15.999Z</time></trkpt><trkpt lat="46.0455000597574" lon="12.030409075341373"><ele>267.5</ele><time>2026-05-03T04:31:16.999Z</time></trkpt><trkpt lat="46.04547960534015" lon="12.030506756760014"><ele>268.0</ele><time>2026-05-03T04:31:17.999Z</time></trkpt><trkpt lat="46.04542981418593" lon="12.030574372309475"><ele>268.0</ele><time>2026-05-03T04:31:18.999Z</time></trkpt><trkpt lat="46.04538275513003" lon="12.030690909440848"><ele>268.0</ele><time>2026-05-03T04:31:21Z</time></trkpt><trkpt lat="46.045476976353214" lon="12.030815113939365"><ele>268.0</ele><time>2026-05-03T04:31:23Z</time></trkpt><trkpt lat="46.045562657447036" lon="12.030737827087851"><ele>268.0</ele><time>2026-05-03T04:31:24Z</time></trkpt><trkpt lat="46.045636837574385" lon="12.030672212097809"><ele>268.0</ele><time>2026-05-03T04:31:25Z</time></trkpt><trkpt lat="46.04571825760726" lon="12.030606121601547"><ele>268.6</ele><time>2026-05-03T04:31:26Z</time></trkpt><trkpt lat="46.04580532304492" lon="12.030546249563054"><ele>269.20000000000005</ele><time>2026-05-03T04:31:27Z</time></trkpt><trkpt lat="46.04589865611702" lon="12.03048253233353"><ele>269.8</ele><time>2026-05-03T04:31:28Z</time></trkpt><trkpt lat="46.0459864638548" lon="12.03041192906598"><ele>270.40000000000003</ele><time>2026-05-03T04:31:29Z</time></trkpt><trkpt lat="46.04607591498126" lon="12.030370159186964"><ele>271.0</ele><time>2026-05-03T04:31:30Z</time></trkpt><trkpt lat="46.04614697137401" lon="12.030324819405225"><ele>271.0</ele><time>2026-05-03T04:31:31Z</time></trkpt><trkpt lat="46.046252276527085" lon="12.030328964300143"><ele>271.0</ele><time>2026-05-03T04:31:33Z</time></trkpt><trkpt lat="46.04630605934189" lon="12.030493665993962"><ele>271.0</ele><time>2026-05-03T04:31:35Z</time></trkpt><trkpt lat="46.04632089988803" lon="12.030611049848439"><ele>271.0</ele><time>2026-05-03T04:31:36Z</time></trkpt><trkpt lat="46.04632970940721" lon="12.030739452699812"><ele>271.0</ele><time>2026-05-03T04:31:37Z</time></trkpt><trkpt lat="46.04633204735024" lon="12.030839005353231"><ele>271.8</ele><time>2026-05-03T04:31:38Z</time></trkpt><trkpt lat="46.04628249829763" lon="12.031009293268921"><ele>272.6</ele><time>2026-05-03T04:31:40Z</time></trkpt><trkpt lat="46.046232023202855" lon="12.031087645891676"><ele>273.4</ele><time>2026-05-03T04:31:41Z</time></trkpt><trkpt lat="46.046203622981935" lon="12.031208180814717"><ele>274.2</ele><time>2026-05-03T04:31:42Z</time></trkpt><trkpt lat="46.04617016012866" lon="12.031311512006331"><ele>275.0</ele><time>2026-05-03T04:31:43Z</time></trkpt><trkpt lat="46.04611916694092" lon="12.031452687862599"><ele>275.0</ele><time>2026-05-03T04:31:45Z</time></trkpt><trkpt lat="46.04605482233292" lon="12.031543561872894"><ele>275.0</ele><time>2026-05-03T04:31:47Z</time></trkpt><trkpt lat="46.045979260258186" lon="12.031545994134868"><ele>275.0</ele><time>2026-05-03T04:31:48Z</time></trkpt><trkpt lat="46.0459122290139" lon="12.031531717363572"><ele>275.0</ele><time>2026-05-03T04:31:49Z</time></trkpt><trkpt lat="46.04583500308131" lon="12.031518202782909"><ele>275.0</ele><time>2026-05-03T04:31:50Z</time></trkpt><trkpt lat="46.04575034212703" lon="12.031538154775282"><ele>275.0</ele><time>2026-05-03T04:31:51Z</time></trkpt><trkpt lat="46.04568052369861" lon="12.031606189797131"><ele>275.0</ele><time>2026-05-03T04:31:52Z</time></trkpt><trkpt lat="46.04561152679232" lon="12.031698873119252"><ele>275.0</ele><time>2026-05-03T04:31:53Z</time></trkpt><trkpt lat="46.04552560413882" lon="12.031754808595718"><ele>275.0</ele><time>2026-05-03T04:31:54Z</time></trkpt><trkpt lat="46.04544638079816" lon="12.031812622859793"><ele>275.0</ele><time>2026-05-03T04:31:55Z</time></trkpt><trkpt lat="46.04537303941296" lon="12.031885289941242"><ele>275.0</ele><time>2026-05-03T04:31:56Z</time></trkpt><trkpt lat="46.04531190544855" lon="12.031978269756644"><ele>275.0</ele><time>2026-05-03T04:31:57Z</time></trkpt><trkpt lat="46.045259302386825" lon="12.032085292659264"><ele>275.0</ele><time>2026-05-03T04:31:58Z</time></trkpt><trkpt lat="46.04521756349372" lon="12.032196462742235"><ele>275.0</ele><time>2026-05-03T04:31:59Z</time></trkpt><trkpt lat="46.04518136146104" lon="12.032306134602248"><ele>275.0</ele><time>2026-05-03T04:32:00Z</time></trkpt><trkpt lat="46.04515142285876" lon="12.032432331038944"><ele>275.0</ele><time>2026-05-03T04:32:01Z</time></trkpt><trkpt lat="46.04513230673682" lon="12.032565624774412"><ele>276.8</ele><time>2026-05-03T04:32:02Z</time></trkpt><trkpt lat="46.04512465693406" lon="12.032703759488879"><ele>278.6</ele><time>2026-05-03T04:32:03Z</time></trkpt><trkpt lat="46.04513070310979" lon="12.032851103002328"><ele>280.4</ele><time>2026-05-03T04:32:04Z</time></trkpt><trkpt lat="46.04514760584262" lon="12.032988459092142"><ele>282.2</ele><time>2026-05-03T04:32:05Z</time></trkpt><trkpt lat="46.04516832200686" lon="12.033099000352703"><ele>284.0</ele><time>2026-05-03T04:32:06Z</time></trkpt><trkpt lat="46.045200963102765" lon="12.03324069680527"><ele>285.75</ele><time>2026-05-03T04:32:07Z</time></trkpt><trkpt lat="46.04524893558949" lon="12.033411675289306"><ele>287.5</ele><time>2026-05-03T04:32:08Z</time></trkpt><trkpt lat="46.04529427989815" lon="12.033579598799188"><ele>289.25</ele><time>2026-05-03T04:32:09Z</time></trkpt><trkpt lat="46.045311711720196" lon="12.033751409312892"><ele>291.0</ele><time>2026-05-03T04:32:10Z</time></trkpt><trkpt lat="46.04532496679017" lon="12.033921060195967"><ele>291.0</ele><time>2026-05-03T04:32:11Z</time></trkpt><trkpt lat="46.04533610427175" lon="12.034078073025675"><ele>291.0</ele><time>2026-05-03T04:32:12Z</time></trkpt><trkpt lat="46.0453462534873" lon="12.034220952389159"><ele>291.0</ele><time>2026-05-03T04:32:13Z</time></trkpt><trkpt lat="46.04535693202406" lon="12.034364198386692"><ele>291.0</ele><time>2026-05-03T04:32:14Z</time></trkpt><trkpt lat="46.045388860930906" lon="12.034512967085721"><ele>291.0</ele><time>2026-05-03T04:32:15Z</time></trkpt><trkpt lat="46.04542032439894" lon="12.034652244857492"><ele>293.40000000000003</ele><time>2026-05-03T04:32:16Z</time></trkpt><trkpt lat="46.045466568006816" lon="12.034779013400675"><ele>295.8</ele><time>2026-05-03T04:32:17Z</time></trkpt><trkpt lat="46.04552138859561" lon="12.03490347150219"><ele>298.20000000000005</ele><time>2026-05-03T04:32:18Z</time></trkpt><trkpt lat="46.04558194753345" lon="12.03502585343808"><ele>300.6</ele><time>2026-05-03T04:32:19Z</time></trkpt><trkpt lat="46.04563889883331" lon="12.035156045996416"><ele>303.0</ele><time>2026-05-03T04:32:20Z</time></trkpt><trkpt lat="46.045726123606855" lon="12.035252388404377"><ele>303.6</ele><time>2026-05-03T04:32:21Z</time></trkpt><trkpt lat="46.045803978805985" lon="12.035371091124313"><ele>304.20000000000005</ele><time>2026-05-03T04:32:22Z</time></trkpt><trkpt lat="46.04587862127305" lon="12.035486812142722"><ele>304.8</ele><time>2026-05-03T04:32:23Z</time></trkpt><trkpt lat="46.045943770165174" lon="12.03559149354299"><ele>305.40000000000003</ele><time>2026-05-03T04:32:24Z</time></trkpt><trkpt lat="46.045999311353036" lon="12.035698472246152"><ele>306.0</ele><time>2026-05-03T04:32:25Z</time></trkpt><trkpt lat="46.046033122598836" lon="12.035806796293372"><ele>307.0</ele><time>2026-05-03T04:32:26Z</time></trkpt><trkpt lat="46.04605333317276" lon="12.035913069094537"><ele>308.0</ele><time>2026-05-03T04:32:27Z</time></trkpt><trkpt lat="46.04607058845636" lon="12.03603761959897"><ele>309.0</ele><time>2026-05-03T04:32:28Z</time></trkpt><trkpt lat="46.046086897203175" lon="12.036177083406335"><ele>310.0</ele><time>2026-05-03T04:32:29Z</time></trkpt><trkpt lat="46.04610043182235" lon="12.036324531608795"><ele>311.0</ele><time>2026-05-03T04:32:30Z</time></trkpt><trkpt lat="46.04611246883663" lon="12.03645787157226"><ele>311.0</ele><time>2026-05-03T04:32:31Z</time></trkpt><trkpt lat="46.046137488638486" lon="12.03659066592383"><ele>311.0</ele><time>2026-05-03T04:32:32Z</time></trkpt><trkpt lat="46.04617621646795" lon="12.03672237454282"><ele>311.0</ele><time>2026-05-03T04:32:33Z</time></trkpt><trkpt lat="46.04621972149701" lon="12.036839695366284"><ele>311.0</ele><time>2026-05-03T04:32:34Z</time></trkpt><trkpt lat="46.046270583345894" lon="12.03693598531136"><ele>311.0</ele><time>2026-05-03T04:32:35Z</time></trkpt><trkpt lat="46.046341137863344" lon="12.037009105604676"><ele>311.1666666666667</ele><time>2026-05-03T04:32:36Z</time></trkpt><trkpt lat="46.04642253222638" lon="12.037090305523124"><ele>311.33333333333337</ele><time>2026-05-03T04:32:37Z</time></trkpt><trkpt lat="46.04647470530472" lon="12.037187583513571"><ele>311.5</ele><time>2026-05-03T04:32:38Z</time></trkpt><trkpt lat="46.04650182999847" lon="12.037297117334063"><ele>311.6666666666667</ele><time>2026-05-03T04:32:39Z</time></trkpt><trkpt lat="46.0464996208601" lon="12.037412870156084"><ele>311.8333333333333</ele><time>2026-05-03T04:32:40Z</time></trkpt><trkpt lat="46.04645943978072" lon="12.037517522225519"><ele>312.0</ele><time>2026-05-03T04:32:41Z</time></trkpt><trkpt lat="46.04641796560254" lon="12.037625629679278"><ele>312.0</ele><time>2026-05-03T04:32:42Z</time></trkpt><trkpt lat="46.04638368292888" lon="12.037750318240544"><ele>312.0</ele><time>2026-05-03T04:32:43Z</time></trkpt><trkpt lat="46.04632853555221" lon="12.037862016852625"><ele>312.0</ele><time>2026-05-03T04:32:44Z</time></trkpt><trkpt lat="46.046269989406795" lon="12.037981383657783"><ele>312.0</ele><time>2026-05-03T04:32:45Z</time></trkpt><trkpt lat="46.046205524055296" lon="12.038108682166806"><ele>312.0</ele><time>2026-05-03T04:32:46Z</time></trkpt><trkpt lat="46.046126615590204" lon="12.038213579552059"><ele>312.3333333333333</ele><time>2026-05-03T04:32:47Z</time></trkpt><trkpt lat="46.046053420097515" lon="12.038307039516992"><ele>312.6666666666667</ele><time>2026-05-03T04:32:48Z</time></trkpt><trkpt lat="46.04599790327439" lon="12.038400541893182"><ele>313.0</ele><time>2026-05-03T04:32:49Z</time></trkpt><trkpt lat="46.04595121780907" lon="12.038488727100098"><ele>313.33333333333337</ele><time>2026-05-03T04:32:50Z</time></trkpt><trkpt lat="46.045914168112375" lon="12.03858713036103"><ele>313.6666666666667</ele><time>2026-05-03T04:32:51Z</time></trkpt><trkpt lat="46.045891042729544" lon="12.038699457446805"><ele>314.0</ele><time>2026-05-03T04:32:52Z</time></trkpt><trkpt lat="46.04588087246129" lon="12.038824408808349"><ele>314.0</ele><time>2026-05-03T04:32:53Z</time></trkpt><trkpt lat="46.045880832913646" lon="12.038959940472331"><ele>314.0</ele><time>2026-05-03T04:32:53.999Z</time></trkpt><trkpt lat="46.04588352381148" lon="12.03910628998282"><ele>314.0</ele><time>2026-05-03T04:32:54.999Z</time></trkpt><trkpt lat="46.04588482818384" lon="12.039255315201157"><ele>314.0</ele><time>2026-05-03T04:32:55.999Z</time></trkpt><trkpt lat="46.0458850895774" lon="12.039425716636337"><ele>314.0</ele><time>2026-05-03T04:32:56.999Z</time></trkpt><trkpt lat="46.04587691608636" lon="12.039589311296016"><ele>314.59999999999997</ele><time>2026-05-03T04:32:57.999Z</time></trkpt><trkpt lat="46.04586457745084" lon="12.039757884869402"><ele>315.2</ele><time>2026-05-03T04:32:58.999Z</time></trkpt><trkpt lat="46.04585121743966" lon="12.03990907124556"><ele>315.79999999999995</ele><time>2026-05-03T04:32:59.999Z</time></trkpt><trkpt lat="46.04584099036515" lon="12.040046389862038"><ele>316.4</ele><time>2026-05-03T04:33:00.999Z</time></trkpt><trkpt lat="46.045834818611134" lon="12.040170425863232"><ele>317.0</ele><time>2026-05-03T04:33:01.999Z</time></trkpt><trkpt lat="46.045835269063645" lon="12.040291345699018"><ele>317.4</ele><time>2026-05-03T04:33:02.999Z</time></trkpt><trkpt lat="46.045841035776036" lon="12.040430456004856"><ele>317.79999999999995</ele><time>2026-05-03T04:33:03.999Z</time></trkpt><trkpt lat="46.045849641446296" lon="12.040570276703848"><ele>318.2</ele><time>2026-05-03T04:33:04.999Z</time></trkpt><trkpt lat="46.04585903010639" lon="12.04071034936567"><ele>318.59999999999997</ele><time>2026-05-03T04:33:05.999Z</time></trkpt><trkpt lat="46.04586872319999" lon="12.040845110758427"><ele>319.0</ele><time>2026-05-03T04:33:06.999Z</time></trkpt><trkpt lat="46.04587387209126" lon="12.040979251454184"><ele>319.0</ele><time>2026-05-03T04:33:07.999Z</time></trkpt><trkpt lat="46.045870146400006" lon="12.041109602836768"><ele>319.0</ele><time>2026-05-03T04:33:08.999Z</time></trkpt><trkpt lat="46.045862560775994" lon="12.041232274695012"><ele>319.0</ele><time>2026-05-03T04:33:09.999Z</time></trkpt><trkpt lat="46.045847559291104" lon="12.041350354932607"><ele>319.0</ele><time>2026-05-03T04:33:10.999Z</time></trkpt><trkpt lat="46.04582500643847" lon="12.041449717941646"><ele>319.0</ele><time>2026-05-03T04:33:11.999Z</time></trkpt><trkpt lat="46.04576166741381" lon="12.04158051488928"><ele>319.0</ele><time>2026-05-03T04:33:13.999Z</time></trkpt><trkpt lat="46.04563854716655" lon="12.041636487108164"><ele>319.5</ele><time>2026-05-03T04:33:15.999Z</time></trkpt><trkpt lat="46.04552716171952" lon="12.04172104605945"><ele>320.0</ele><time>2026-05-03T04:33:17.999Z</time></trkpt><trkpt lat="46.045470703378385" lon="12.041766590392045"><ele>320.5</ele><time>2026-05-03T04:33:18.999Z</time></trkpt><trkpt lat="46.045417301489074" lon="12.04183171403585"><ele>321.0</ele><time>2026-05-03T04:33:19.999Z</time></trkpt><trkpt lat="46.045379864707385" lon="12.041913416733314"><ele>321.5</ele><time>2026-05-03T04:33:20.999Z</time></trkpt><trkpt lat="46.04533320324562" lon="12.04205878561021"><ele>322.0</ele><time>2026-05-03T04:33:22.999Z</time></trkpt><trkpt lat="46.04529317647962" lon="12.042149545163305"><ele>322.0</ele><time>2026-05-03T04:33:24.999Z</time></trkpt><trkpt lat="46.04525684895662" lon="12.042228250765637"><ele>322.0</ele><time>2026-05-03T04:33:35Z</time></trkpt><trkpt lat="46.04512312283992" lon="12.042152706045288"><ele>322.0</ele><time>2026-05-03T04:33:37Z</time></trkpt><trkpt lat="46.04505734747319" lon="12.042161039299133"><ele>322.0</ele><time>2026-05-03T04:33:39Z</time></trkpt><trkpt lat="46.04498667347992" lon="12.042139056020119"><ele>322.0</ele><time>2026-05-03T04:33:41Z</time></trkpt><trkpt lat="46.04489987819106" lon="12.042113059104311"><ele>322.0</ele><time>2026-05-03T04:33:43Z</time></trkpt><trkpt lat="46.04480983686922" lon="12.042100120763514"><ele>322.40000000000003</ele><time>2026-05-03T04:33:45Z</time></trkpt><trkpt lat="46.04472011064344" lon="12.042085128185386"><ele>322.8</ele><time>2026-05-03T04:33:47Z</time></trkpt><trkpt lat="46.044632878652244" lon="12.042056586570437"><ele>323.2</ele><time>2026-05-03T04:33:49Z</time></trkpt><trkpt lat="46.044553852963396" lon="12.04200657818546"><ele>323.6</ele><time>2026-05-03T04:33:51Z</time></trkpt><trkpt lat="46.04447826350608" lon="12.041935053673566"><ele>324.0</ele><time>2026-05-03T04:33:53Z</time></trkpt><trkpt lat="46.04437794028984" lon="12.04180450820703"><ele>324.0</ele><time>2026-05-03T04:33:55Z</time></trkpt><trkpt lat="46.04432571037491" lon="12.041717920703555"><ele>324.0</ele><time>2026-05-03T04:33:56Z</time></trkpt><trkpt lat="46.04426923269364" lon="12.041621021318452"><ele>324.0</ele><time>2026-05-03T04:33:57Z</time></trkpt><trkpt lat="46.04421348453579" lon="12.0415142097469"><ele>324.0</ele><time>2026-05-03T04:33:58Z</time></trkpt><trkpt lat="46.044155552007346" lon="12.041402155239203"><ele>324.0</ele><time>2026-05-03T04:33:59Z</time></trkpt><trkpt lat="46.04409829687673" lon="12.04128535149714"><ele>325.6666666666667</ele><time>2026-05-03T04:34:00Z</time></trkpt><trkpt lat="46.04404294113931" lon="12.041172058171458"><ele>327.3333333333333</ele><time>2026-05-03T04:34:01Z</time></trkpt><trkpt lat="46.04398583832194" lon="12.041060424821534"><ele>329.0</ele><time>2026-05-03T04:34:02Z</time></trkpt><trkpt lat="46.04393321498128" lon="12.040955938367823"><ele>330.66666666666663</ele><time>2026-05-03T04:34:03Z</time></trkpt><trkpt lat="46.043874100213415" lon="12.040875745102314"><ele>332.3333333333333</ele><time>2026-05-03T04:34:04Z</time></trkpt><trkpt lat="46.043809376918674" lon="12.040828302127938"><ele>334.0</ele><time>2026-05-03T04:34:05Z</time></trkpt><trkpt lat="46.04373412755192" lon="12.040808481635656"><ele>334.0</ele><time>2026-05-03T04:34:06Z</time></trkpt><trkpt lat="46.04365833284475" lon="12.040816205729637"><ele>334.0</ele><time>2026-05-03T04:34:07Z</time></trkpt><trkpt lat="46.04358876402224" lon="12.04083239664002"><ele>334.0</ele><time>2026-05-03T04:34:08Z</time></trkpt><trkpt lat="46.0435230550647" lon="12.040847894524818"><ele>334.0</ele><time>2026-05-03T04:34:09Z</time></trkpt><trkpt lat="46.043460359493935" lon="12.040863852307094"><ele>334.0</ele><time>2026-05-03T04:34:10Z</time></trkpt><trkpt lat="46.04338982323649" lon="12.040863088459966"><ele>334.0</ele><time>2026-05-03T04:34:11Z</time></trkpt><trkpt lat="46.04331221734273" lon="12.040871429298209"><ele>334.0</ele><time>2026-05-03T04:34:12Z</time></trkpt><trkpt lat="46.04322588222024" lon="12.040888262667409"><ele>332.4</ele><time>2026-05-03T04:34:13Z</time></trkpt><trkpt lat="46.043141286636" lon="12.040947342824655"><ele>330.79999999999995</ele><time>2026-05-03T04:34:14Z</time></trkpt><trkpt lat="46.04305787284256" lon="12.041006439615444"><ele>329.20000000000005</ele><time>2026-05-03T04:34:15Z</time></trkpt><trkpt lat="46.04295859243782" lon="12.041120717559549"><ele>327.6</ele><time>2026-05-03T04:34:16Z</time></trkpt><trkpt lat="46.04287759884796" lon="12.041243276861842"><ele>326.0</ele><time>2026-05-03T04:34:17Z</time></trkpt><trkpt lat="46.04280226168014" lon="12.041362487839073"><ele>326.0</ele><time>2026-05-03T04:34:18Z</time></trkpt><trkpt lat="46.042725337571156" lon="12.041476659148975"><ele>326.0</ele><time>2026-05-03T04:34:19Z</time></trkpt><trkpt lat="46.04265571088673" lon="12.041581965986145"><ele>326.0</ele><time>2026-05-03T04:34:20Z</time></trkpt><trkpt lat="46.04259025561026" lon="12.041676188995053"><ele>326.0</ele><time>2026-05-03T04:34:21Z</time></trkpt><trkpt lat="46.042521817693896" lon="12.041747662170156"><ele>326.0</ele><time>2026-05-03T04:34:22Z</time></trkpt><trkpt lat="46.04243821030153" lon="12.041770112188932"><ele>326.75</ele><time>2026-05-03T04:34:24Z</time></trkpt><trkpt lat="46.04248330698634" lon="12.04190354786943"><ele>327.5</ele><time>2026-05-03T04:34:34Z</time></trkpt><trkpt lat="46.04255705953093" lon="12.042051900994732"><ele>328.25</ele><time>2026-05-03T04:34:35Z</time></trkpt><trkpt lat="46.04261588128157" lon="12.042185352786671"><ele>329.0</ele><time>2026-05-03T04:34:36Z</time></trkpt><trkpt lat="46.042684541678454" lon="12.042329200119777"><ele>329.25</ele><time>2026-05-03T04:34:37Z</time></trkpt><trkpt lat="46.04275607956324" lon="12.042494456051106"><ele>329.5</ele><time>2026-05-03T04:34:38Z</time></trkpt><trkpt lat="46.04282140744757" lon="12.042668651752459"><ele>329.75</ele><time>2026-05-03T04:34:39Z</time></trkpt><trkpt lat="46.04286605143155" lon="12.042821731115373"><ele>330.0</ele><time>2026-05-03T04:34:40Z</time></trkpt><trkpt lat="46.04290565159078" lon="12.042979047968492"><ele>330.0</ele><time>2026-05-03T04:34:41Z</time></trkpt><trkpt lat="46.04294399987117" lon="12.04312951257839"><ele>330.0</ele><time>2026-05-03T04:34:42Z</time></trkpt><trkpt lat="46.04298173195116" lon="12.043278570250282"><ele>330.0</ele><time>2026-05-03T04:34:43Z</time></trkpt><trkpt lat="46.04301822925509" lon="12.043417815539241"><ele>330.0</ele><time>2026-05-03T04:34:44Z</time></trkpt><trkpt lat="46.043056303304894" lon="12.043546367080614"><ele>330.0</ele><time>2026-05-03T04:34:45Z</time></trkpt><trkpt lat="46.04309094488077" lon="12.043665633358357"><ele>330.3333333333333</ele><time>2026-05-03T04:34:46Z</time></trkpt><trkpt lat="46.04312654433665" lon="12.043775733966264"><ele>330.6666666666667</ele><time>2026-05-03T04:34:47Z</time></trkpt><trkpt lat="46.04317188889195" lon="12.043872534136483"><ele>331.0</ele><time>2026-05-03T04:34:48Z</time></trkpt><trkpt lat="46.04322056700834" lon="12.043957634795392"><ele>331.33333333333337</ele><time>2026-05-03T04:34:49Z</time></trkpt><trkpt lat="46.043271734870295" lon="12.044032395192207"><ele>331.6666666666667</ele><time>2026-05-03T04:34:50Z</time></trkpt><trkpt lat="46.04332036753478" lon="12.044097016069065"><ele>332.0</ele><time>2026-05-03T04:34:51Z</time></trkpt><trkpt lat="46.04340201713147" lon="12.044227982039148"><ele>332.33333333333337</ele><time>2026-05-03T04:34:53Z</time></trkpt><trkpt lat="46.04345074662732" lon="12.044290346053653"><ele>332.6666666666667</ele><time>2026-05-03T04:34:55Z</time></trkpt><trkpt lat="46.04338401407545" lon="12.044465305316539"><ele>333.0</ele><time>2026-05-03T04:34:57Z</time></trkpt><trkpt lat="46.04333867781084" lon="12.044538952017893"><ele>333.3333333333333</ele><time>2026-05-03T04:34:58Z</time></trkpt><trkpt lat="46.043294929387955" lon="12.044628652839096"><ele>333.66666666666663</ele><time>2026-05-03T04:34:59Z</time></trkpt><trkpt lat="46.043263386931656" lon="12.044727260901086"><ele>334.0</ele><time>2026-05-03T04:35:01Z</time></trkpt><trkpt lat="46.04325658359059" lon="12.044880743516538"><ele>334.16666666666663</ele><time>2026-05-03T04:35:05Z</time></trkpt><trkpt lat="46.043263492151574" lon="12.044984961205689"><ele>334.3333333333333</ele><time>2026-05-03T04:35:06Z</time></trkpt><trkpt lat="46.04325875842513" lon="12.045094635642517"><ele>334.5</ele><time>2026-05-03T04:35:06.999Z</time></trkpt><trkpt lat="46.04324352912016" lon="12.045197132970836"><ele>334.6666666666667</ele><time>2026-05-03T04:35:07.999Z</time></trkpt><trkpt lat="46.0432340044783" lon="12.045298193908437"><ele>334.83333333333337</ele><time>2026-05-03T04:35:08.999Z</time></trkpt><trkpt lat="46.04322422460757" lon="12.045448824329647"><ele>335.0</ele><time>2026-05-03T04:35:10.999Z</time></trkpt><trkpt lat="46.043184612546206" lon="12.045545854885818"><ele>335.0</ele><time>2026-05-03T04:35:13.999Z</time></trkpt><trkpt lat="46.043072124389724" lon="12.045517018571777"><ele>335.0</ele><time>2026-05-03T04:35:15.999Z</time></trkpt><trkpt lat="46.04300374385175" lon="12.045506925981206"><ele>335.0</ele><time>2026-05-03T04:35:16.999Z</time></trkpt><trkpt lat="46.04291880073781" lon="12.045496955297024"><ele>335.0</ele><time>2026-05-03T04:35:17.999Z</time></trkpt><trkpt lat="46.04282654680254" lon="12.045514196246666"><ele>335.0</ele><time>2026-05-03T04:35:18.999Z</time></trkpt><trkpt lat="46.04272821810772" lon="12.045530458469683"><ele>335.0</ele><time>2026-05-03T04:35:19.999Z</time></trkpt><trkpt lat="46.0426332507106" lon="12.045560585386095"><ele>335.0</ele><time>2026-05-03T04:35:20.999Z</time></trkpt><trkpt lat="46.04255105644021" lon="12.0456087002958"><ele>335.0</ele><time>2026-05-03T04:35:21.999Z</time></trkpt><trkpt lat="46.04246884400573" lon="12.045690997425044"><ele>335.0</ele><time>2026-05-03T04:35:22.999Z</time></trkpt><trkpt lat="46.04239254154072" lon="12.045800374937173"><ele>335.0</ele><time>2026-05-03T04:35:23.999Z</time></trkpt><trkpt lat="46.04232013560133" lon="12.04592834833376"><ele>339.0</ele><time>2026-05-03T04:35:24.999Z</time></trkpt><trkpt lat="46.04224031439438" lon="12.04605578553501"><ele>343.0</ele><time>2026-05-03T04:35:25.999Z</time></trkpt><trkpt lat="46.0421507403899" lon="12.046178637697956"><ele>347.0</ele><time>2026-05-03T04:35:26.999Z</time></trkpt><trkpt lat="46.042055159429246" lon="12.04629117901258"><ele>351.0</ele><time>2026-05-03T04:35:27.999Z</time></trkpt><trkpt lat="46.04194215764665" lon="12.046399377330044"><ele>351.0</ele><time>2026-05-03T04:35:28.999Z</time></trkpt><trkpt lat="46.04182952822074" lon="12.046486330390692"><ele>351.0</ele><time>2026-05-03T04:35:29.999Z</time></trkpt><trkpt lat="46.04171818221729" lon="12.046575715695344"><ele>351.0</ele><time>2026-05-03T04:35:30.999Z</time></trkpt><trkpt lat="46.04162282363403" lon="12.04669576130038"><ele>351.0</ele><time>2026-05-03T04:35:32Z</time></trkpt><trkpt lat="46.04153312421196" lon="12.046825041221929"><ele>354.0</ele><time>2026-05-03T04:35:33Z</time></trkpt><trkpt lat="46.04146388915717" lon="12.046982115972773"><ele>357.0</ele><time>2026-05-03T04:35:34Z</time></trkpt><trkpt lat="46.041391197924106" lon="12.04714886008594"><ele>360.0</ele><time>2026-05-03T04:35:35Z</time></trkpt><trkpt lat="46.04131569051184" lon="12.047320193725428"><ele>363.0</ele><time>2026-05-03T04:35:36Z</time></trkpt><trkpt lat="46.04123171162413" lon="12.047493489563461"><ele>364.0</ele><time>2026-05-03T04:35:37Z</time></trkpt><trkpt lat="46.04113444992609" lon="12.047654887304137"><ele>365.0</ele><time>2026-05-03T04:35:38Z</time></trkpt><trkpt lat="46.04105631880323" lon="12.047825427977255"><ele>366.0</ele><time>2026-05-03T04:35:39Z</time></trkpt><trkpt lat="46.04100964396236" lon="12.047964985362581"><ele>367.0</ele><time>2026-05-03T04:35:40Z</time></trkpt><trkpt lat="46.0409542323808" lon="12.04809252259219"><ele>367.0</ele><time>2026-05-03T04:35:41Z</time></trkpt><trkpt lat="46.04091274920925" lon="12.048226364770544"><ele>367.0</ele><time>2026-05-03T04:35:42Z</time></trkpt><trkpt lat="46.040870520560645" lon="12.048367957152351"><ele>367.0</ele><time>2026-05-03T04:35:43Z</time></trkpt><trkpt lat="46.04083403365163" lon="12.048524891051676"><ele>367.0</ele><time>2026-05-03T04:35:44Z</time></trkpt><trkpt lat="46.04080355367313" lon="12.048689980529021"><ele>367.0</ele><time>2026-05-03T04:35:45Z</time></trkpt><trkpt lat="46.04077558092844" lon="12.0488640970245"><ele>371.25</ele><time>2026-05-03T04:35:46Z</time></trkpt><trkpt lat="46.04074162761496" lon="12.04904309405558"><ele>375.5</ele><time>2026-05-03T04:35:47Z</time></trkpt><trkpt lat="46.040703838912094" lon="12.049232978061662"><ele>379.75</ele><time>2026-05-03T04:35:48Z</time></trkpt><trkpt lat="46.0406658830167" lon="12.049431834550544"><ele>384.0</ele><time>2026-05-03T04:35:49Z</time></trkpt><trkpt lat="46.04062714212539" lon="12.049645082738833"><ele>384.33333333333337</ele><time>2026-05-03T04:35:50Z</time></trkpt><trkpt lat="46.040589469817064" lon="12.04986667563842"><ele>384.6666666666667</ele><time>2026-05-03T04:35:51Z</time></trkpt><trkpt lat="46.04054825785409" lon="12.050092388726485"><ele>385.0</ele><time>2026-05-03T04:35:52Z</time></trkpt><trkpt lat="46.040505729255244" lon="12.050311171463322"><ele>385.0</ele><time>2026-05-03T04:35:53Z</time></trkpt><trkpt lat="46.040458721677574" lon="12.050542443448371"><ele>385.0</ele><time>2026-05-03T04:35:54Z</time></trkpt><trkpt lat="46.04040985993206" lon="12.05077863429987"><ele>385.0</ele><time>2026-05-03T04:35:55Z</time></trkpt><trkpt lat="46.040361641673236" lon="12.05100961148476"><ele>385.0</ele><time>2026-05-03T04:35:56Z</time></trkpt><trkpt lat="46.04032410191149" lon="12.05120845659276"><ele>385.0</ele><time>2026-05-03T04:35:57Z</time></trkpt><trkpt lat="46.04028796263434" lon="12.0513924317261"><ele>385.0</ele><time>2026-05-03T04:35:58Z</time></trkpt><trkpt lat="46.04025731683492" lon="12.051543247424224"><ele>385.0</ele><time>2026-05-03T04:35:59Z</time></trkpt><trkpt lat="46.04023173227587" lon="12.051663481880981"><ele>385.33333333333337</ele><time>2026-05-03T04:36:00Z</time></trkpt><trkpt lat="46.040199566387926" lon="12.05175649406211"><ele>385.6666666666667</ele><time>2026-05-03T04:36:01Z</time></trkpt><trkpt lat="46.04014927083219" lon="12.05183480740993"><ele>386.0</ele><time>2026-05-03T04:36:02Z</time></trkpt><trkpt lat="46.04007515363595" lon="12.051908873987449"><ele>386.33333333333337</ele><time>2026-05-03T04:36:03Z</time></trkpt><trkpt lat="46.039999552692365" lon="12.051983231456198"><ele>386.6666666666667</ele><time>2026-05-03T04:36:04Z</time></trkpt><trkpt lat="46.03994880834767" lon="12.05209291165532"><ele>387.0</ele><time>2026-05-03T04:36:05Z</time></trkpt><trkpt lat="46.039922646083326" lon="12.052236457552327"><ele>392.33333333333337</ele><time>2026-05-03T04:36:06Z</time></trkpt><trkpt lat="46.03992054079257" lon="12.05241686480758"><ele>397.6666666666667</ele><time>2026-05-03T04:36:07Z</time></trkpt><trkpt lat="46.03991153534504" lon="12.052643994571252"><ele>403.0</ele><time>2026-05-03T04:36:08Z</time></trkpt><trkpt lat="46.03988403302664" lon="12.05291114037863"><ele>403.0</ele><time>2026-05-03T04:36:09Z</time></trkpt><trkpt lat="46.03984816342529" lon="12.053186207185998"><ele>403.0</ele><time>2026-05-03T04:36:10Z</time></trkpt><trkpt lat="46.03981699947788" lon="12.053468112774908"><ele>403.0</ele><time>2026-05-03T04:36:11Z</time></trkpt><trkpt lat="46.03979159441739" lon="12.053757787312358"><ele>403.0</ele><time>2026-05-03T04:36:12Z</time></trkpt><trkpt lat="46.03977930436691" lon="12.054009391220536"><ele>403.0</ele><time>2026-05-03T04:36:13Z</time></trkpt><trkpt lat="46.039773890561804" lon="12.054252010906895"><ele>403.0</ele><time>2026-05-03T04:36:14Z</time></trkpt><trkpt lat="46.039776907631854" lon="12.05447369613231"><ele>403.0</ele><time>2026-05-03T04:36:15Z</time></trkpt><trkpt lat="46.039780509615035" lon="12.054683511701239"><ele>403.0</ele><time>2026-05-03T04:36:16Z</time></trkpt><trkpt lat="46.03977728861356" lon="12.05488415427904"><ele>403.0</ele><time>2026-05-03T04:36:17Z</time></trkpt><trkpt lat="46.03977021333652" lon="12.055058729881683"><ele>403.0</ele><time>2026-05-03T04:36:18Z</time></trkpt><trkpt lat="46.03976122677512" lon="12.055212867668812"><ele>403.0</ele><time>2026-05-03T04:36:19Z</time></trkpt><trkpt lat="46.039712956127914" lon="12.055331978962291"><ele>403.0</ele><time>2026-05-03T04:36:20Z</time></trkpt><trkpt lat="46.03967926236835" lon="12.055457563462499"><ele>403.0</ele><time>2026-05-03T04:36:21Z</time></trkpt><trkpt lat="46.03967439639348" lon="12.055608608765871"><ele>403.0</ele><time>2026-05-03T04:36:22Z</time></trkpt><trkpt lat="46.039678852267286" lon="12.055752409170868"><ele>403.0</ele><time>2026-05-03T04:36:23Z</time></trkpt><trkpt lat="46.03967860438248" lon="12.055893737977103"><ele>402.59999999999997</ele><time>2026-05-03T04:36:24Z</time></trkpt><trkpt lat="46.039657901081284" lon="12.056037932476519"><ele>402.2</ele><time>2026-05-03T04:36:25Z</time></trkpt><trkpt lat="46.03963261351866" lon="12.056180811454952"><ele>401.8</ele><time>2026-05-03T04:36:26Z</time></trkpt><trkpt lat="46.039607533474985" lon="12.056328817539558"><ele>401.4</ele><time>2026-05-03T04:36:27Z</time></trkpt><trkpt lat="46.03958472761248" lon="12.05647267690458"><ele>401.0</ele><time>2026-05-03T04:36:28Z</time></trkpt><trkpt lat="46.03956836342445" lon="12.056600940143197"><ele>401.16666666666663</ele><time>2026-05-03T04:36:29Z</time></trkpt><trkpt lat="46.039562514427715" lon="12.056726912928392"><ele>401.3333333333333</ele><time>2026-05-03T04:36:30Z</time></trkpt><trkpt lat="46.039569074049105" lon="12.056854342107085"><ele>401.5</ele><time>2026-05-03T04:36:31Z</time></trkpt><trkpt lat="46.03958297315995" lon="12.056974817907827"><ele>401.66666666666663</ele><time>2026-05-03T04:36:32Z</time></trkpt><trkpt lat="46.03960054783716" lon="12.057085340273487"><ele>401.8333333333333</ele><time>2026-05-03T04:36:33Z</time></trkpt><trkpt lat="46.03961470086393" lon="12.057193749304183"><ele>402.0</ele><time>2026-05-03T04:36:34Z</time></trkpt><trkpt lat="46.03962904525323" lon="12.057325913960698"><ele>402.0</ele><time>2026-05-03T04:36:36Z</time></trkpt><trkpt lat="46.03965247797245" lon="12.057434816382514"><ele>402.0</ele><time>2026-05-03T04:37:53Z</time></trkpt><trkpt lat="46.03968468804254" lon="12.05762264296855"><ele>402.0</ele><time>2026-05-03T04:37:55Z</time></trkpt><trkpt lat="46.03969814906133" lon="12.057725878867794"><ele>402.0</ele><time>2026-05-03T04:37:56Z</time></trkpt><trkpt lat="46.0397064180107" lon="12.05783707844528"><ele>402.0</ele><time>2026-05-03T04:37:57Z</time></trkpt><trkpt lat="46.03972836356899" lon="12.057974466308842"><ele>402.5</ele><time>2026-05-03T04:37:58Z</time></trkpt><trkpt lat="46.03974920340579" lon="12.05809788773193"><ele>403.0</ele><time>2026-05-03T04:37:59Z</time></trkpt><trkpt lat="46.039757126890514" lon="12.058210899506305"><ele>403.5</ele><time>2026-05-03T04:38:00Z</time></trkpt><trkpt lat="46.03977503748528" lon="12.05830422297617"><ele>404.0</ele><time>2026-05-03T04:38:01Z</time></trkpt><trkpt lat="46.03977534620208" lon="12.058405141045773"><ele>404.5</ele><time>2026-05-03T04:38:02Z</time></trkpt><trkpt lat="46.0397935480463" lon="12.058570752324295"><ele>405.0</ele><time>2026-05-03T04:38:04Z</time></trkpt><trkpt lat="46.03979233558427" lon="12.058752752685603"><ele>405.0</ele><time>2026-05-03T04:38:06Z</time></trkpt><trkpt lat="46.03981381600059" lon="12.058864404315718"><ele>405.0</ele><time>2026-05-03T04:38:07Z</time></trkpt><trkpt lat="46.039864700124774" lon="12.058984167317213"><ele>405.0</ele><time>2026-05-03T04:38:08Z</time></trkpt><trkpt lat="46.03991548443721" lon="12.059087069407925"><ele>405.0</ele><time>2026-05-03T04:38:09Z</time></trkpt><trkpt lat="46.03995301929755" lon="12.059182101128142"><ele>405.0</ele><time>2026-05-03T04:38:10Z</time></trkpt><trkpt lat="46.039983507322646" lon="12.059309139832187"><ele>405.0</ele><time>2026-05-03T04:38:12Z</time></trkpt><trkpt lat="46.039916706725414" lon="12.059321116619289"><ele>405.0</ele><time>2026-05-03T04:38:15Z</time></trkpt><trkpt lat="46.039842782566794" lon="12.05920542070521"><ele>405.0</ele><time>2026-05-03T04:38:17Z</time></trkpt><trkpt lat="46.039791046548544" lon="12.059129482882991"><ele>405.0</ele><time>2026-05-03T04:38:18Z</time></trkpt><trkpt lat="46.0397381437995" lon="12.059050984808122"><ele>405.0</ele><time>2026-05-03T04:38:19Z</time></trkpt><trkpt lat="46.03967802370254" lon="12.058960746361349"><ele>405.0</ele><time>2026-05-03T04:38:20Z</time></trkpt><trkpt lat="46.039621318663364" lon="12.058864815557655"><ele>405.0</ele><time>2026-05-03T04:38:21Z</time></trkpt><trkpt lat="46.039574993371126" lon="12.058741236575743"><ele>405.0</ele><time>2026-05-03T04:38:22Z</time></trkpt><trkpt lat="46.039541381165954" lon="12.058595614503504"><ele>405.0</ele><time>2026-05-03T04:38:23Z</time></trkpt><trkpt lat="46.03950798332265" lon="12.058453120504103"><ele>405.0</ele><time>2026-05-03T04:38:24Z</time></trkpt><trkpt lat="46.03946770656277" lon="12.058315215175673"><ele>405.0</ele><time>2026-05-03T04:38:25Z</time></trkpt><trkpt lat="46.03942030238854" lon="12.058188080164935"><ele>405.0</ele><time>2026-05-03T04:38:26Z</time></trkpt><trkpt lat="46.03936404133415" lon="12.05806052490768"><ele>405.25</ele><time>2026-05-03T04:38:27Z</time></trkpt><trkpt lat="46.03930591229246" lon="12.057929692279728"><ele>405.5</ele><time>2026-05-03T04:38:28Z</time></trkpt><trkpt lat="46.03924721734671" lon="12.057790339826724"><ele>405.75</ele><time>2026-05-03T04:38:29Z</time></trkpt><trkpt lat="46.039188191201504" lon="12.057654962152265"><ele>406.0</ele><time>2026-05-03T04:38:30Z</time></trkpt><trkpt lat="46.039122708111044" lon="12.057511512502979"><ele>410.75</ele><time>2026-05-03T04:38:31Z</time></trkpt><trkpt lat="46.03905654569064" lon="12.057363332538035"><ele>415.5</ele><time>2026-05-03T04:38:32Z</time></trkpt><trkpt lat="46.038995828095075" lon="12.057213542408679"><ele>420.25</ele><time>2026-05-03T04:38:33Z</time></trkpt><trkpt lat="46.03893531659572" lon="12.057060649460343"><ele>425.0</ele><time>2026-05-03T04:38:34Z</time></trkpt><trkpt lat="46.038875523748025" lon="12.056902981109019"><ele>425.0</ele><time>2026-05-03T04:38:35Z</time></trkpt><trkpt lat="46.03882180617217" lon="12.056745734775346"><ele>425.0</ele><time>2026-05-03T04:38:36Z</time></trkpt><trkpt lat="46.03876447808833" lon="12.056593214998358"><ele>425.0</ele><time>2026-05-03T04:38:37Z</time></trkpt><trkpt lat="46.03870591061246" lon="12.056445670599835"><ele>425.0</ele><time>2026-05-03T04:38:38Z</time></trkpt><trkpt lat="46.03863945678303" lon="12.056304244762437"><ele>424.75</ele><time>2026-05-03T04:38:39Z</time></trkpt><trkpt lat="46.03857029589392" lon="12.056161846776552"><ele>424.5</ele><time>2026-05-03T04:38:40Z</time></trkpt><trkpt lat="46.03850338522823" lon="12.056016222395131"><ele>424.25</ele><time>2026-05-03T04:38:41Z</time></trkpt><trkpt lat="46.03844167323123" lon="12.055854268422733"><ele>424.0</ele><time>2026-05-03T04:38:42Z</time></trkpt><trkpt lat="46.03838680235259" lon="12.05571479682353"><ele>424.0</ele><time>2026-05-03T04:38:43Z</time></trkpt><trkpt lat="46.0383367867582" lon="12.055565466583117"><ele>424.0</ele><time>2026-05-03T04:38:44Z</time></trkpt><trkpt lat="46.03827717750412" lon="12.0554206446265"><ele>424.0</ele><time>2026-05-03T04:38:45Z</time></trkpt><trkpt lat="46.03821371585378" lon="12.055278596471082"><ele>424.0</ele><time>2026-05-03T04:38:46Z</time></trkpt><trkpt lat="46.03814764493977" lon="12.055142342446553"><ele>428.25</ele><time>2026-05-03T04:38:47Z</time></trkpt><trkpt lat="46.0380799139445" lon="12.055003063238884"><ele>432.5</ele><time>2026-05-03T04:38:48Z</time></trkpt><trkpt lat="46.03801058911501" lon="12.054867482329573"><ele>436.75</ele><time>2026-05-03T04:38:49Z</time></trkpt><trkpt lat="46.03794240831132" lon="12.054733066630934"><ele>441.0</ele><time>2026-05-03T04:38:50Z</time></trkpt><trkpt lat="46.03787219702167" lon="12.05459710566472"><ele>441.0</ele><time>2026-05-03T04:38:51Z</time></trkpt><trkpt lat="46.0378004942652" lon="12.054461150434499"><ele>441.0</ele><time>2026-05-03T04:38:52Z</time></trkpt><trkpt lat="46.03773164526376" lon="12.054327852233278"><ele>441.0</ele><time>2026-05-03T04:38:53Z</time></trkpt><trkpt lat="46.03766133285998" lon="12.054196190044212"><ele>441.0</ele><time>2026-05-03T04:38:54Z</time></trkpt><trkpt lat="46.037588440934044" lon="12.054065493728338"><ele>440.5</ele><time>2026-05-03T04:38:55Z</time></trkpt><trkpt lat="46.037517528454785" lon="12.053934676347525"><ele>440.0</ele><time>2026-05-03T04:38:56Z</time></trkpt><trkpt lat="46.03744927955648" lon="12.05380186552913"><ele>439.5</ele><time>2026-05-03T04:38:57Z</time></trkpt><trkpt lat="46.03738061900318" lon="12.053672936519572"><ele>439.0</ele><time>2026-05-03T04:38:58Z</time></trkpt><trkpt lat="46.03731040812904" lon="12.053543397564818"><ele>442.2</ele><time>2026-05-03T04:38:59Z</time></trkpt><trkpt lat="46.03724257957091" lon="12.05341216315855"><ele>445.4</ele><time>2026-05-03T04:39:00Z</time></trkpt><trkpt lat="46.03717381416654" lon="12.053282100750593"><ele>448.6</ele><time>2026-05-03T04:39:01Z</time></trkpt><trkpt lat="46.03710691347957" lon="12.05315805234424"><ele>451.8</ele><time>2026-05-03T04:39:02Z</time></trkpt><trkpt lat="46.03704158311427" lon="12.05305089419265"><ele>455.0</ele><time>2026-05-03T04:39:03Z</time></trkpt><trkpt lat="46.03697216639887" lon="12.052966134700679"><ele>455.0</ele><time>2026-05-03T04:39:04Z</time></trkpt><trkpt lat="46.036883245069085" lon="12.052916891223964"><ele>455.0</ele><time>2026-05-03T04:39:05Z</time></trkpt><trkpt lat="46.036788138032534" lon="12.052889740553807"><ele>455.0</ele><time>2026-05-03T04:39:06Z</time></trkpt><trkpt lat="46.03668878394406" lon="12.052873793015147"><ele>455.0</ele><time>2026-05-03T04:39:07Z</time></trkpt><trkpt lat="46.03658816351852" lon="12.052866345998103"><ele>455.0</ele><time>2026-05-03T04:39:08Z</time></trkpt><trkpt lat="46.03648547242501" lon="12.052852256451134"><ele>456.2</ele><time>2026-05-03T04:39:09Z</time></trkpt><trkpt lat="46.03638254040237" lon="12.0528365864248"><ele>457.4</ele><time>2026-05-03T04:39:10Z</time></trkpt><trkpt lat="46.03628242163007" lon="12.052821021245446"><ele>458.6</ele><time>2026-05-03T04:39:11Z</time></trkpt><trkpt lat="46.03618545551238" lon="12.052805641192966"><ele>459.8</ele><time>2026-05-03T04:39:12Z</time></trkpt><trkpt lat="46.036089034244746" lon="12.052791443477988"><ele>461.0</ele><time>2026-05-03T04:39:13Z</time></trkpt><trkpt lat="46.03599075592008" lon="12.05277837724581"><ele>461.0</ele><time>2026-05-03T04:39:14Z</time></trkpt><trkpt lat="46.035888797552246" lon="12.052776705736019"><ele>461.0</ele><time>2026-05-03T04:39:15Z</time></trkpt><trkpt lat="46.03578420968278" lon="12.052793460699526"><ele>461.0</ele><time>2026-05-03T04:39:16Z</time></trkpt><trkpt lat="46.035678844222296" lon="12.052827422011116"><ele>461.0</ele><time>2026-05-03T04:39:17Z</time></trkpt><trkpt lat="46.035571905498166" lon="12.052866393585159"><ele>461.0</ele><time>2026-05-03T04:39:18Z</time></trkpt><trkpt lat="46.03546287651199" lon="12.05289890214495"><ele>460.8</ele><time>2026-05-03T04:39:19Z</time></trkpt><trkpt lat="46.035354550606904" lon="12.05291099816148"><ele>460.6</ele><time>2026-05-03T04:39:20Z</time></trkpt><trkpt lat="46.03524681531119" lon="12.052905762421965"><ele>460.4</ele><time>2026-05-03T04:39:21Z</time></trkpt><trkpt lat="46.03514275055885" lon="12.052876447366557"><ele>460.2</ele><time>2026-05-03T04:39:22Z</time></trkpt><trkpt lat="46.03504332921194" lon="12.052840142753354"><ele>460.0</ele><time>2026-05-03T04:39:23Z</time></trkpt><trkpt lat="46.03494030921396" lon="12.052827662301178"><ele>460.0</ele><time>2026-05-03T04:39:24Z</time></trkpt><trkpt lat="46.034837885128916" lon="12.052838315529149"><ele>460.0</ele><time>2026-05-03T04:39:25Z</time></trkpt><trkpt lat="46.03473242451445" lon="12.052854073851371"><ele>460.0</ele><time>2026-05-03T04:39:26Z</time></trkpt><trkpt lat="46.03462407014" lon="12.052867070381474"><ele>460.0</ele><time>2026-05-03T04:39:27Z</time></trkpt><trkpt lat="46.03452301197365" lon="12.052883661385817"><ele>460.0</ele><time>2026-05-03T04:39:28Z</time></trkpt><trkpt lat="46.034420184126105" lon="12.052916234310239"><ele>460.0</ele><time>2026-05-03T04:39:29Z</time></trkpt><trkpt lat="46.03432246542647" lon="12.05297204775937"><ele>460.0</ele><time>2026-05-03T04:39:30Z</time></trkpt><trkpt lat="46.0342259958394" lon="12.053042803276126"><ele>460.0</ele><time>2026-05-03T04:39:31Z</time></trkpt><trkpt lat="46.03412867167964" lon="12.05311461458458"><ele>460.0</ele><time>2026-05-03T04:39:32Z</time></trkpt><trkpt lat="46.034046455139226" lon="12.053164460822218"><ele>460.0</ele><time>2026-05-03T04:39:33Z</time></trkpt><trkpt lat="46.03397122025917" lon="12.05320836942615"><ele>459.83333333333337</ele><time>2026-05-03T04:39:33.999Z</time></trkpt><trkpt lat="46.03388935852714" lon="12.053248545185113"><ele>459.6666666666667</ele><time>2026-05-03T04:39:34.999Z</time></trkpt><trkpt lat="46.03381439472799" lon="12.053280415224828"><ele>459.5</ele><time>2026-05-03T04:39:35.999Z</time></trkpt><trkpt lat="46.03373762801627" lon="12.053308743338219"><ele>459.33333333333337</ele><time>2026-05-03T04:39:36.999Z</time></trkpt><trkpt lat="46.033663153111306" lon="12.053321192805962"><ele>459.1666666666667</ele><time>2026-05-03T04:39:37.999Z</time></trkpt><trkpt lat="46.03358845694806" lon="12.053316689424703"><ele>459.0</ele><time>2026-05-03T04:39:38.999Z</time></trkpt><trkpt lat="46.03350590897515" lon="12.053293054994244"><ele>459.0</ele><time>2026-05-03T04:39:39.999Z</time></trkpt><trkpt lat="46.03342360876688" lon="12.05325982827031"><ele>459.0</ele><time>2026-05-03T04:39:40.999Z</time></trkpt><trkpt lat="46.033343423003565" lon="12.053231948387808"><ele>459.0</ele><time>2026-05-03T04:39:41.999Z</time></trkpt><trkpt lat="46.033274806887086" lon="12.05321714498666"><ele>459.0</ele><time>2026-05-03T04:39:42.999Z</time></trkpt><trkpt lat="46.03320566119692" lon="12.053233878394632"><ele>459.0</ele><time>2026-05-03T04:39:44Z</time></trkpt><trkpt lat="46.03314414105221" lon="12.053283925601809"><ele>459.0</ele><time>2026-05-03T04:39:45Z</time></trkpt><trkpt lat="46.033084044296785" lon="12.05335416948084"><ele>459.6</ele><time>2026-05-03T04:39:46Z</time></trkpt><trkpt lat="46.03302184800651" lon="12.053445904626336"><ele>460.2</ele><time>2026-05-03T04:39:47Z</time></trkpt><trkpt lat="46.03295659614241" lon="12.053554894713882"><ele>460.80000000000007</ele><time>2026-05-03T04:39:48Z</time></trkpt><trkpt lat="46.032890867535734" lon="12.053673112939421"><ele>461.40000000000003</ele><time>2026-05-03T04:39:49Z</time></trkpt><trkpt lat="46.03283481250026" lon="12.053779526456363"><ele>462.0</ele><time>2026-05-03T04:39:50Z</time></trkpt><trkpt lat="46.032784836775875" lon="12.05388099819594"><ele>462.0</ele><time>2026-05-03T04:39:51Z</time></trkpt><trkpt lat="46.03273272338394" lon="12.053954649935378"><ele>462.0</ele><time>2026-05-03T04:39:52Z</time></trkpt><trkpt lat="46.03267125737044" lon="12.053983220313409"><ele>462.0</ele><time>2026-05-03T04:39:53Z</time></trkpt><trkpt lat="46.03259361501994" lon="12.053982906270022"><ele>462.0</ele><time>2026-05-03T04:39:54Z</time></trkpt><trkpt lat="46.03250782101527" lon="12.054008380997304"><ele>462.0</ele><time>2026-05-03T04:39:55Z</time></trkpt><trkpt lat="46.03242150077763" lon="12.054083912349002"><ele>462.0</ele><time>2026-05-03T04:39:56Z</time></trkpt><trkpt lat="46.03234656729502" lon="12.05415244227804"><ele>461.5</ele><time>2026-05-03T04:39:57Z</time></trkpt><trkpt lat="46.03227536803279" lon="12.054188001004592"><ele>461.0</ele><time>2026-05-03T04:39:58Z</time></trkpt><trkpt lat="46.032204987621434" lon="12.054173292903744"><ele>460.5</ele><time>2026-05-03T04:39:59Z</time></trkpt><trkpt lat="46.03216383453419" lon="12.054101347084226"><ele>460.0</ele><time>2026-05-03T04:40:00Z</time></trkpt><trkpt lat="46.03208673711839" lon="12.053966162625184"><ele>459.5</ele><time>2026-05-03T04:40:02Z</time></trkpt><trkpt lat="46.032046877512165" lon="12.053880557542724"><ele>459.0</ele><time>2026-05-03T04:40:03Z</time></trkpt><trkpt lat="46.03198757080819" lon="12.053828425348808"><ele>459.0</ele><time>2026-05-03T04:40:04Z</time></trkpt><trkpt lat="46.03190467447597" lon="12.053794060372212"><ele>459.0</ele><time>2026-05-03T04:40:05Z</time></trkpt><trkpt lat="46.03180492630456" lon="12.053774173549163"><ele>459.0</ele><time>2026-05-03T04:40:06Z</time></trkpt><trkpt lat="46.031704580412125" lon="12.05374233786043"><ele>459.0</ele><time>2026-05-03T04:40:07Z</time></trkpt><trkpt lat="46.03161838167443" lon="12.05370938968139"><ele>459.0</ele><time>2026-05-03T04:40:08Z</time></trkpt><trkpt lat="46.031534645646296" lon="12.053681596417123"><ele>456.79999999999995</ele><time>2026-05-03T04:40:09Z</time></trkpt><trkpt lat="46.031467534941214" lon="12.053658882422752"><ele>454.59999999999997</ele><time>2026-05-03T04:40:10Z</time></trkpt><trkpt lat="46.03135688396133" lon="12.053694923635517"><ele>452.4</ele><time>2026-05-03T04:40:12Z</time></trkpt><trkpt lat="46.03129600787071" lon="12.053781986145832"><ele>450.2</ele><time>2026-05-03T04:40:13Z</time></trkpt><trkpt lat="46.03121496647064" lon="12.05387276637116"><ele>448.0</ele><time>2026-05-03T04:40:14Z</time></trkpt><trkpt lat="46.03111776072997" lon="12.053961096643027"><ele>448.0</ele><time>2026-05-03T04:40:15Z</time></trkpt><trkpt lat="46.03103078084315" lon="12.05403835323571"><ele>447.99999999999994</ele><time>2026-05-03T04:40:16Z</time></trkpt><trkpt lat="46.03094031630399" lon="12.05411365208217"><ele>447.99999999999994</ele><time>2026-05-03T04:40:17Z</time></trkpt><trkpt lat="46.030863720088384" lon="12.054181276893638"><ele>448.0</ele><time>2026-05-03T04:40:18Z</time></trkpt><trkpt lat="46.03079561583895" lon="12.054232494264152"><ele>448.0</ele><time>2026-05-03T04:40:19Z</time></trkpt><trkpt lat="46.030700865095724" lon="12.05433177833193"><ele>449.33333333333337</ele><time>2026-05-03T04:40:21Z</time></trkpt><trkpt lat="46.030660537810455" lon="12.05441444748441"><ele>450.6666666666667</ele><time>2026-05-03T04:40:22Z</time></trkpt><trkpt lat="46.030631594737315" lon="12.05449887872719"><ele>452.0</ele><time>2026-05-03T04:40:23Z</time></trkpt><trkpt lat="46.03060729549774" lon="12.054647758651354"><ele>453.33333333333337</ele><time>2026-05-03T04:40:25Z</time></trkpt><trkpt lat="46.03065825148612" lon="12.054813866062627"><ele>454.6666666666667</ele><time>2026-05-03T04:40:27Z</time></trkpt><trkpt lat="46.03069556751291" lon="12.054917472926576"><ele>456.0</ele><time>2026-05-03T04:40:28Z</time></trkpt><trkpt lat="46.03074358396837" lon="12.055059159935158"><ele>456.0</ele><time>2026-05-03T04:40:30Z</time></trkpt><trkpt lat="46.03067748813444" lon="12.055165647439994"><ele>456.0</ele><time>2026-05-03T04:40:32Z</time></trkpt><trkpt lat="46.03056720193145" lon="12.055105558831828"><ele>456.0</ele><time>2026-05-03T04:40:34Z</time></trkpt><trkpt lat="46.03048761297268" lon="12.055052278712628"><ele>456.0</ele><time>2026-05-03T04:40:35Z</time></trkpt><trkpt lat="46.030382959326005" lon="12.054958063650037"><ele>456.0</ele><time>2026-05-03T04:40:36Z</time></trkpt><trkpt lat="46.03029193130116" lon="12.054905125207542"><ele>456.0</ele><time>2026-05-03T04:40:37Z</time></trkpt><trkpt lat="46.03019046783417" lon="12.054847764484014"><ele>456.0</ele><time>2026-05-03T04:40:38Z</time></trkpt><trkpt lat="46.03008690230396" lon="12.054785645073894"><ele>456.0</ele><time>2026-05-03T04:40:39Z</time></trkpt><trkpt lat="46.029978118659166" lon="12.054719835093373"><ele>456.0</ele><time>2026-05-03T04:40:40Z</time></trkpt><trkpt lat="46.02988459354321" lon="12.054664591521151"><ele>456.0</ele><time>2026-05-03T04:40:41Z</time></trkpt><trkpt lat="46.029797282579295" lon="12.054608895490121"><ele>456.20000000000005</ele><time>2026-05-03T04:40:42Z</time></trkpt><trkpt lat="46.02971428992619" lon="12.054556564780532"><ele>456.40000000000003</ele><time>2026-05-03T04:40:43Z</time></trkpt><trkpt lat="46.02963419582133" lon="12.054505224047594"><ele>456.6</ele><time>2026-05-03T04:40:44Z</time></trkpt><trkpt lat="46.02954761917467" lon="12.054443656722244"><ele>456.8</ele><time>2026-05-03T04:40:45Z</time></trkpt><trkpt lat="46.029462283791304" lon="12.054388285028093"><ele>457.0</ele><time>2026-05-03T04:40:46Z</time></trkpt><trkpt lat="46.02938249391466" lon="12.054343883381447"><ele>457.0</ele><time>2026-05-03T04:40:47Z</time></trkpt><trkpt lat="46.02930849379648" lon="12.054300127202731"><ele>457.00000000000006</ele><time>2026-05-03T04:40:48Z</time></trkpt><trkpt lat="46.0291829198263" lon="12.054340845504472"><ele>457.00000000000006</ele><time>2026-05-03T04:40:50Z</time></trkpt><trkpt lat="46.029103840795074" lon="12.054396165049372"><ele>457.0</ele><time>2026-05-03T04:40:51Z</time></trkpt><trkpt lat="46.029027327022945" lon="12.054438477814257"><ele>457.0</ele><time>2026-05-03T04:40:52Z</time></trkpt><trkpt lat="46.02893333667847" lon="12.054416464044557"><ele>460.0</ele><time>2026-05-03T04:40:53Z</time></trkpt><trkpt lat="46.028831037735095" lon="12.054405687318418"><ele>463.00000000000006</ele><time>2026-05-03T04:40:54Z</time></trkpt><trkpt lat="46.02871299019376" lon="12.054399464404273"><ele>466.00000000000006</ele><time>2026-05-03T04:40:55Z</time></trkpt><trkpt lat="46.02862130356894" lon="12.054431463553152"><ele>469.0</ele><time>2026-05-03T04:40:56Z</time></trkpt><trkpt lat="46.02855275134518" lon="12.054439386093215"><ele>472.0</ele><time>2026-05-03T04:40:57Z</time></trkpt><trkpt lat="46.02844277010698" lon="12.05439195368046"><ele>472.0</ele><time>2026-05-03T04:40:59Z</time></trkpt><trkpt lat="46.02837380816899" lon="12.054325442675825"><ele>472.00000000000006</ele><time>2026-05-03T04:41:00Z</time></trkpt><trkpt lat="46.028303089467" lon="12.0542445817046"><ele>472.00000000000006</ele><time>2026-05-03T04:41:01Z</time></trkpt><trkpt lat="46.028222097093845" lon="12.05415725882717"><ele>472.0</ele><time>2026-05-03T04:41:02Z</time></trkpt><trkpt lat="46.028144673575774" lon="12.054069573879497"><ele>472.0</ele><time>2026-05-03T04:41:03Z</time></trkpt><trkpt lat="46.02805495971633" lon="12.054001209146008"><ele>464.75</ele><time>2026-05-03T04:41:04Z</time></trkpt><trkpt lat="46.02794915524383" lon="12.053917855447402"><ele>457.5</ele><time>2026-05-03T04:41:05Z</time></trkpt><trkpt lat="46.027854689432324" lon="12.053816725343157"><ele>450.25</ele><time>2026-05-03T04:41:06Z</time></trkpt><trkpt lat="46.02775022324226" lon="12.053764625237841"><ele>443.0</ele><time>2026-05-03T04:41:07Z</time></trkpt><trkpt lat="46.02764844686293" lon="12.053704108325237"><ele>443.0</ele><time>2026-05-03T04:41:08Z</time></trkpt><trkpt lat="46.027545294019255" lon="12.053652372193895"><ele>442.99999999999994</ele><time>2026-05-03T04:41:09Z</time></trkpt><trkpt lat="46.02744257413599" lon="12.053608607626284"><ele>442.99999999999994</ele><time>2026-05-03T04:41:10Z</time></trkpt><trkpt lat="46.027339313506445" lon="12.053567325362664"><ele>443.0</ele><time>2026-05-03T04:41:11Z</time></trkpt><trkpt lat="46.027234292737404" lon="12.053512421400862"><ele>443.0</ele><time>2026-05-03T04:41:12Z</time></trkpt><trkpt lat="46.02713431838846" lon="12.053488559827167"><ele>443.4</ele><time>2026-05-03T04:41:13Z</time></trkpt><trkpt lat="46.02704522202988" lon="12.053468398113736"><ele>443.79999999999995</ele><time>2026-05-03T04:41:14Z</time></trkpt><trkpt lat="46.026957489582024" lon="12.053462902015566"><ele>444.2</ele><time>2026-05-03T04:41:15Z</time></trkpt><trkpt lat="46.02687586793481" lon="12.053487453991343"><ele>444.6</ele><time>2026-05-03T04:41:16Z</time></trkpt><trkpt lat="46.02678764691323" lon="12.053549114844868"><ele>445.0</ele><time>2026-05-03T04:41:17Z</time></trkpt><trkpt lat="46.0266951566296" lon="12.053598907735928"><ele>443.2</ele><time>2026-05-03T04:41:18Z</time></trkpt><trkpt lat="46.026598994964544" lon="12.053590624021705"><ele>441.4</ele><time>2026-05-03T04:41:19Z</time></trkpt><trkpt lat="46.02650064310661" lon="12.053566229611228"><ele>439.6</ele><time>2026-05-03T04:41:20Z</time></trkpt><trkpt lat="46.02639080296097" lon="12.053539988118944"><ele>437.8</ele><time>2026-05-03T04:41:21Z</time></trkpt><trkpt lat="46.02627852205172" lon="12.053507788192626"><ele>436.0</ele><time>2026-05-03T04:41:22Z</time></trkpt><trkpt lat="46.02616124064385" lon="12.053489566432022"><ele>436.0</ele><time>2026-05-03T04:41:23Z</time></trkpt><trkpt lat="46.026038089740176" lon="12.053485342715978"><ele>436.0</ele><time>2026-05-03T04:41:24Z</time></trkpt><trkpt lat="46.02591457266848" lon="12.05348765696903"><ele>436.0</ele><time>2026-05-03T04:41:25Z</time></trkpt><trkpt lat="46.02579571637303" lon="12.053491299782463"><ele>436.0</ele><time>2026-05-03T04:41:26Z</time></trkpt><trkpt lat="46.02568661999007" lon="12.053498790218146"><ele>432.1666666666667</ele><time>2026-05-03T04:41:27Z</time></trkpt><trkpt lat="46.02558923486169" lon="12.05350990850307"><ele>428.33333333333337</ele><time>2026-05-03T04:41:28Z</time></trkpt><trkpt lat="46.02551048735643" lon="12.053516153366914"><ele>424.5</ele><time>2026-05-03T04:41:29Z</time></trkpt><trkpt lat="46.02544506226326" lon="12.053545580457799"><ele>420.66666666666663</ele><time>2026-05-03T04:41:30Z</time></trkpt><trkpt lat="46.025392068113504" lon="12.053613050254146"><ele>416.8333333333333</ele><time>2026-05-03T04:41:31Z</time></trkpt><trkpt lat="46.02534301865429" lon="12.053733381788415"><ele>413.0</ele><time>2026-05-03T04:41:32Z</time></trkpt><trkpt lat="46.025303310134305" lon="12.053857479247831"><ele>412.99999999999994</ele><time>2026-05-03T04:41:33Z</time></trkpt><trkpt lat="46.02525400076542" lon="12.053937812249327"><ele>413.0</ele><time>2026-05-03T04:41:34Z</time></trkpt><trkpt lat="46.025193675064145" lon="12.053972471133541"><ele>413.0</ele><time>2026-05-03T04:41:35Z</time></trkpt><trkpt lat="46.02510982316296" lon="12.053969543678491"><ele>413.0</ele><time>2026-05-03T04:41:36Z</time></trkpt><trkpt lat="46.025028446048665" lon="12.05395776049883"><ele>412.99999999999994</ele><time>2026-05-03T04:41:37Z</time></trkpt><trkpt lat="46.02494344237573" lon="12.053985965130376"><ele>413.0</ele><time>2026-05-03T04:41:38Z</time></trkpt><trkpt lat="46.02486429238324" lon="12.054056907324656"><ele>416.16666666666663</ele><time>2026-05-03T04:41:39Z</time></trkpt><trkpt lat="46.02479325098408" lon="12.054131093887735"><ele>419.3333333333333</ele><time>2026-05-03T04:41:40Z</time></trkpt><trkpt lat="46.02473148136048" lon="12.054212768601756"><ele>422.5</ele><time>2026-05-03T04:41:41Z</time></trkpt><trkpt lat="46.02467605978047" lon="12.054295754790854"><ele>425.66666666666663</ele><time>2026-05-03T04:41:41.999Z</time></trkpt><trkpt lat="46.024617071454415" lon="12.054372467421194"><ele>428.8333333333333</ele><time>2026-05-03T04:41:42.999Z</time></trkpt><trkpt lat="46.02455392666186" lon="12.054448900167356"><ele>432.0</ele><time>2026-05-03T04:41:43.999Z</time></trkpt><trkpt lat="46.024490892770366" lon="12.054516736610191"><ele>432.0</ele><time>2026-05-03T04:41:44.999Z</time></trkpt><trkpt lat="46.02444484980878" lon="12.054582478014707"><ele>432.00000000000006</ele><time>2026-05-03T04:41:45.999Z</time></trkpt><trkpt lat="46.02434697160079" lon="12.054671443114504"><ele>432.00000000000006</ele><time>2026-05-03T04:41:47.999Z</time></trkpt><trkpt lat="46.024244491669066" lon="12.054635697918199"><ele>432.0</ele><time>2026-05-03T04:41:50Z</time></trkpt><trkpt lat="46.02417682024433" lon="12.054476295611321"><ele>432.0</ele><time>2026-05-03T04:41:52Z</time></trkpt><trkpt lat="46.02410099364785" lon="12.054327189126672"><ele>431.0</ele><time>2026-05-03T04:41:54Z</time></trkpt><trkpt lat="46.02402083686875" lon="12.054256607171585"><ele>430.00000000000006</ele><time>2026-05-03T04:41:55Z</time></trkpt><trkpt lat="46.02393713950536" lon="12.05417947898026"><ele>429.00000000000006</ele><time>2026-05-03T04:41:56Z</time></trkpt><trkpt lat="46.02384653659185" lon="12.054111067433832"><ele>428.0</ele><time>2026-05-03T04:41:57Z</time></trkpt><trkpt lat="46.02376702116055" lon="12.05401665038112"><ele>427.0</ele><time>2026-05-03T04:41:58Z</time></trkpt><trkpt lat="46.02370490934031" lon="12.053934502024173"><ele>427.0</ele><time>2026-05-03T04:41:59Z</time></trkpt><trkpt lat="46.02362730383368" lon="12.053834060968846"><ele>427.00000000000006</ele><time>2026-05-03T04:42:00Z</time></trkpt><trkpt lat="46.023557349466174" lon="12.053754955629392"><ele>427.00000000000006</ele><time>2026-05-03T04:42:01Z</time></trkpt><trkpt lat="46.02349086596716" lon="12.053682968047701"><ele>427.0</ele><time>2026-05-03T04:42:02Z</time></trkpt><trkpt lat="46.02342630012213" lon="12.05359385921976"><ele>427.0</ele><time>2026-05-03T04:42:03Z</time></trkpt><trkpt lat="46.023379376069435" lon="12.053489415204222"><ele>427.00000000000006</ele><time>2026-05-03T04:42:04Z</time></trkpt><trkpt lat="46.02333842294462" lon="12.053394477827647"><ele>427.0</ele><time>2026-05-03T04:42:05Z</time></trkpt><trkpt lat="46.02329037492835" lon="12.053311406563411"><ele>427.0</ele><time>2026-05-03T04:42:06Z</time></trkpt><trkpt lat="46.02323455608571" lon="12.053231701887535"><ele>427.0</ele><time>2026-05-03T04:42:07Z</time></trkpt><trkpt lat="46.0231741408275" lon="12.053159141901563"><ele>427.00000000000006</ele><time>2026-05-03T04:42:08Z</time></trkpt><trkpt lat="46.02311710668258" lon="12.053084053474542"><ele>427.0</ele><time>2026-05-03T04:42:09Z</time></trkpt><trkpt lat="46.02307193325086" lon="12.0530069204116"><ele>421.00000000000006</ele><time>2026-05-03T04:42:10Z</time></trkpt><trkpt lat="46.02302559985153" lon="12.052934609309586"><ele>415.0</ele><time>2026-05-03T04:42:11Z</time></trkpt><trkpt lat="46.02296628355548" lon="12.05288690924263"><ele>409.0</ele><time>2026-05-03T04:42:12Z</time></trkpt><trkpt lat="46.02289927903726" lon="12.052877811770582"><ele>403.0</ele><time>2026-05-03T04:42:13Z</time></trkpt><trkpt lat="46.02282701175624" lon="12.052902955613263"><ele>397.00000000000006</ele><time>2026-05-03T04:42:14Z</time></trkpt><trkpt lat="46.02273861062803" lon="12.052961939903783"><ele>391.0</ele><time>2026-05-03T04:42:15Z</time></trkpt><trkpt lat="46.022650997373916" lon="12.053001721382163"><ele>391.00000000000006</ele><time>2026-05-03T04:42:16Z</time></trkpt><trkpt lat="46.02257496799638" lon="12.053063356620543"><ele>391.0</ele><time>2026-05-03T04:42:17Z</time></trkpt><trkpt lat="46.02250331733604" lon="12.053115166864318"><ele>391.0</ele><time>2026-05-03T04:42:18Z</time></trkpt><trkpt lat="46.022432072495086" lon="12.053162399878325"><ele>391.0</ele><time>2026-05-03T04:42:19Z</time></trkpt><trkpt lat="46.022365214606864" lon="12.053216738341613"><ele>391.00000000000006</ele><time>2026-05-03T04:42:20Z</time></trkpt><trkpt lat="46.0223001876616" lon="12.05329267079373"><ele>391.0</ele><time>2026-05-03T04:42:21Z</time></trkpt><trkpt lat="46.022247160928856" lon="12.053356339448744"><ele>396.0</ele><time>2026-05-03T04:42:22Z</time></trkpt><trkpt lat="46.02212292987364" lon="12.05337517837572"><ele>401.0</ele><time>2026-05-03T04:42:24Z</time></trkpt><trkpt lat="46.022047352364126" lon="12.053335336633925"><ele>406.0</ele><time>2026-05-03T04:42:25Z</time></trkpt><trkpt lat="46.0219069639026" lon="12.0533299085164"><ele>411.0</ele><time>2026-05-03T04:42:27Z</time></trkpt><trkpt lat="46.02181630146172" lon="12.053348847685886"><ele>416.0</ele><time>2026-05-03T04:42:28Z</time></trkpt><trkpt lat="46.02173173668321" lon="12.053356411669984"><ele>419.8333333333333</ele><time>2026-05-03T04:42:29Z</time></trkpt><trkpt lat="46.021642008428394" lon="12.053368209424999"><ele>423.66666666666663</ele><time>2026-05-03T04:42:30Z</time></trkpt><trkpt lat="46.02155630520612" lon="12.053387023458848"><ele>427.5</ele><time>2026-05-03T04:42:31Z</time></trkpt><trkpt lat="46.02147894425982" lon="12.053410936481464"><ele>431.33333333333337</ele><time>2026-05-03T04:42:32Z</time></trkpt><trkpt lat="46.02140187068764" lon="12.05343630637174"><ele>435.1666666666667</ele><time>2026-05-03T04:42:33Z</time></trkpt><trkpt lat="46.021301459702784" lon="12.053413476691277"><ele>439.0</ele><time>2026-05-03T04:42:35Z</time></trkpt><trkpt lat="46.02127520879844" lon="12.053324788458939"><ele>437.1666666666667</ele><time>2026-05-03T04:42:36Z</time></trkpt><trkpt lat="46.02129849165094" lon="12.05323911721164"><ele>435.33333333333337</ele><time>2026-05-03T04:42:37Z</time></trkpt><trkpt lat="46.02129580513658" lon="12.053121480228354"><ele>433.5</ele><time>2026-05-03T04:42:38Z</time></trkpt><trkpt lat="46.02135654789533" lon="12.052989541100695"><ele>431.66666666666663</ele><time>2026-05-03T04:42:40Z</time></trkpt><trkpt lat="46.021402907586115" lon="12.052925006795428"><ele>429.8333333333333</ele><time>2026-05-03T04:42:41Z</time></trkpt><trkpt lat="46.021441689063465" lon="12.052840022865402"><ele>428.0</ele><time>2026-05-03T04:42:42Z</time></trkpt><trkpt lat="46.02148001091155" lon="12.052762583462655"><ele>427.99999999999994</ele><time>2026-05-03T04:42:43Z</time></trkpt><trkpt lat="46.02150531230052" lon="12.052672248516224"><ele>428.0</ele><time>2026-05-03T04:42:44Z</time></trkpt><trkpt lat="46.02152381520874" lon="12.052584092353356"><ele>428.0</ele><time>2026-05-03T04:42:45Z</time></trkpt><trkpt lat="46.02156421414892" lon="12.052471159838225"><ele>428.0</ele><time>2026-05-03T04:42:46Z</time></trkpt><trkpt lat="46.02157697427667" lon="12.052346146704842"><ele>427.99999999999994</ele><time>2026-05-03T04:42:47Z</time></trkpt><trkpt lat="46.02157694524531" lon="12.052232272169203"><ele>428.0</ele><time>2026-05-03T04:42:48Z</time></trkpt><trkpt lat="46.02154974105219" lon="12.052134722846498"><ele>424.16666666666663</ele><time>2026-05-03T04:42:49Z</time></trkpt><trkpt lat="46.02152534083005" lon="12.052046193041045"><ele>420.3333333333333</ele><time>2026-05-03T04:42:50Z</time></trkpt><trkpt lat="46.021486540454944" lon="12.051932259632805"><ele>416.5</ele><time>2026-05-03T04:42:51Z</time></trkpt><trkpt lat="46.02141904572494" lon="12.051832819580174"><ele>412.66666666666663</ele><time>2026-05-03T04:42:52Z</time></trkpt><trkpt lat="46.02136801237376" lon="12.051741909594025"><ele>408.8333333333333</ele><time>2026-05-03T04:42:53Z</time></trkpt><trkpt lat="46.021316826683204" lon="12.05166971209374"><ele>405.0</ele><time>2026-05-03T04:42:54Z</time></trkpt><trkpt lat="46.021331575078314" lon="12.051464578028796"><ele>400.8333333333333</ele><time>2026-05-03T04:42:56Z</time></trkpt><trkpt lat="46.0213651192676" lon="12.051336641247756"><ele>396.6666666666667</ele><time>2026-05-03T04:42:57Z</time></trkpt><trkpt lat="46.02139511322392" lon="12.051217767072231"><ele>392.5</ele><time>2026-05-03T04:42:58Z</time></trkpt><trkpt lat="46.021422359431334" lon="12.051098739981308"><ele>388.33333333333337</ele><time>2026-05-03T04:42:59Z</time></trkpt><trkpt lat="46.02144292164742" lon="12.050998934932355"><ele>384.1666666666667</ele><time>2026-05-03T04:43:00Z</time></trkpt><trkpt lat="46.02144007843552" lon="12.050899930898504"><ele>380.0</ele><time>2026-05-03T04:43:01Z</time></trkpt><trkpt lat="46.021376989741874" lon="12.05076165022825"><ele>376.0</ele><time>2026-05-03T04:43:03Z</time></trkpt><trkpt lat="46.02130688958979" lon="12.050708546851185"><ele>372.0</ele><time>2026-05-03T04:43:04Z</time></trkpt><trkpt lat="46.02120130639627" lon="12.050685036003689"><ele>368.0</ele><time>2026-05-03T04:43:05Z</time></trkpt><trkpt lat="46.02109324347619" lon="12.050659285943942"><ele>364.0</ele><time>2026-05-03T04:43:06Z</time></trkpt><trkpt lat="46.02099195339531" lon="12.05063669842452"><ele>360.0</ele><time>2026-05-03T04:43:07Z</time></trkpt><trkpt lat="46.02088842882793" lon="12.050613761552787"><ele>357.8333333333333</ele><time>2026-05-03T04:43:08Z</time></trkpt><trkpt lat="46.020786005403245" lon="12.05058399143337"><ele>355.6666666666667</ele><time>2026-05-03T04:43:09Z</time></trkpt><trkpt lat="46.020699873266736" lon="12.050525090097555"><ele>353.5</ele><time>2026-05-03T04:43:10Z</time></trkpt><trkpt lat="46.020624252889725" lon="12.050458187861793"><ele>351.33333333333337</ele><time>2026-05-03T04:43:11Z</time></trkpt><trkpt lat="46.020576574861096" lon="12.050379770133492"><ele>349.1666666666667</ele><time>2026-05-03T04:43:12Z</time></trkpt><trkpt lat="46.02052312910029" lon="12.05031307110793"><ele>347.0</ele><time>2026-05-03T04:43:13Z</time></trkpt><trkpt lat="46.020463608425146" lon="12.050166191368987"><ele>347.0</ele><time>2026-05-03T04:43:15Z</time></trkpt><trkpt lat="46.020351911642244" lon="12.050137592466665"><ele>347.0</ele><time>2026-05-03T04:43:17Z</time></trkpt><trkpt lat="46.02024134135006" lon="12.050221368874878"><ele>347.0</ele><time>2026-05-03T04:43:19Z</time></trkpt><trkpt lat="46.02017712804227" lon="12.050310081539774"><ele>347.0</ele><time>2026-05-03T04:43:20Z</time></trkpt><trkpt lat="46.02009755760644" lon="12.05040870257239"><ele>347.0</ele><time>2026-05-03T04:43:21Z</time></trkpt><trkpt lat="46.02003037682216" lon="12.050510695848383"><ele>350.8</ele><time>2026-05-03T04:43:22Z</time></trkpt><trkpt lat="46.01995706194824" lon="12.050620418365243"><ele>354.6</ele><time>2026-05-03T04:43:23Z</time></trkpt><trkpt lat="46.019900268919564" lon="12.050738589907827"><ele>358.40000000000003</ele><time>2026-05-03T04:43:24Z</time></trkpt><trkpt lat="46.019830371270196" lon="12.05082985924649"><ele>362.20000000000005</ele><time>2026-05-03T04:43:25Z</time></trkpt><trkpt lat="46.01977598320512" lon="12.050888718004424"><ele>366.0</ele><time>2026-05-03T04:43:26Z</time></trkpt><trkpt lat="46.01969244588545" lon="12.050988262797318"><ele>366.8333333333333</ele><time>2026-05-03T04:43:27.999Z</time></trkpt><trkpt lat="46.01964324789044" lon="12.051053404049965"><ele>367.6666666666667</ele><time>2026-05-03T04:43:28.999Z</time></trkpt><trkpt lat="46.019577090916144" lon="12.051136315260429"><ele>368.5</ele><time>2026-05-03T04:43:29.999Z</time></trkpt><trkpt lat="46.01951532432791" lon="12.051230458977024"><ele>369.33333333333337</ele><time>2026-05-03T04:43:30.999Z</time></trkpt><trkpt lat="46.01946492097916" lon="12.051328211878355"><ele>370.1666666666667</ele><time>2026-05-03T04:43:31.999Z</time></trkpt><trkpt lat="46.01941041710085" lon="12.051421986094761"><ele>371.0</ele><time>2026-05-03T04:43:32.999Z</time></trkpt><trkpt lat="46.0193584981046" lon="12.051508978213727"><ele>371.0</ele><time>2026-05-03T04:43:33.999Z</time></trkpt><trkpt lat="46.01930660295134" lon="12.05158908136551"><ele>371.0</ele><time>2026-05-03T04:43:34.999Z</time></trkpt><trkpt lat="46.01925545004587" lon="12.051664804834326"><ele>371.0</ele><time>2026-05-03T04:43:35.999Z</time></trkpt><trkpt lat="46.019205189943996" lon="12.051739824329246"><ele>371.0</ele><time>2026-05-03T04:43:36.999Z</time></trkpt><trkpt lat="46.01915938552375" lon="12.051813283127938"><ele>371.0</ele><time>2026-05-03T04:43:37.999Z</time></trkpt><trkpt lat="46.01911473364186" lon="12.051887639470866"><ele>371.0</ele><time>2026-05-03T04:43:38.999Z</time></trkpt><trkpt lat="46.019071742749716" lon="12.051962070033579"><ele>371.0</ele><time>2026-05-03T04:43:39.999Z</time></trkpt><trkpt lat="46.01898491093579" lon="12.0520238987057"><ele>371.83333333333337</ele><time>2026-05-03T04:43:41.999Z</time></trkpt><trkpt lat="46.018920418936375" lon="12.051935078248171"><ele>372.6666666666667</ele><time>2026-05-03T04:43:43.999Z</time></trkpt><trkpt lat="46.01883254239837" lon="12.051817866416235"><ele>373.5</ele><time>2026-05-03T04:43:45.999Z</time></trkpt><trkpt lat="46.018778340527454" lon="12.051737363207819"><ele>374.3333333333333</ele><time>2026-05-03T04:43:46.999Z</time></trkpt><trkpt lat="46.01872619647872" lon="12.05165506796574"><ele>375.16666666666663</ele><time>2026-05-03T04:43:47.999Z</time></trkpt><trkpt lat="46.01867187915028" lon="12.051572567125678"><ele>376.0</ele><time>2026-05-03T04:43:48.999Z</time></trkpt><trkpt lat="46.01861323633757" lon="12.051490785009603"><ele>380.20000000000005</ele><time>2026-05-03T04:43:49.999Z</time></trkpt><trkpt lat="46.01853678289597" lon="12.051436841882333"><ele>384.40000000000003</ele><time>2026-05-03T04:43:50.999Z</time></trkpt><trkpt lat="46.01843824384018" lon="12.051441863982156"><ele>388.6</ele><time>2026-05-03T04:43:51.999Z</time></trkpt><trkpt lat="46.018348305973234" lon="12.051489968717913"><ele>392.8</ele><time>2026-05-03T04:43:52.999Z</time></trkpt><trkpt lat="46.01825590678452" lon="12.051500771483276"><ele>397.0</ele><time>2026-05-03T04:43:53.999Z</time></trkpt><trkpt lat="46.01816469569421" lon="12.051546671234163"><ele>395.5</ele><time>2026-05-03T04:43:54.999Z</time></trkpt><trkpt lat="46.018075174805375" lon="12.051614686963958"><ele>394.0</ele><time>2026-05-03T04:43:56Z</time></trkpt><trkpt lat="46.01797671576436" lon="12.051705227518092"><ele>392.5</ele><time>2026-05-03T04:43:57Z</time></trkpt><trkpt lat="46.017864235133196" lon="12.051812016296152"><ele>391.0</ele><time>2026-05-03T04:43:58Z</time></trkpt><trkpt lat="46.01775754839902" lon="12.051960271535425"><ele>391.00000000000006</ele><time>2026-05-03T04:43:59Z</time></trkpt><trkpt lat="46.01766265266593" lon="12.052076837113134"><ele>391.0</ele><time>2026-05-03T04:44:00Z</time></trkpt><trkpt lat="46.01760268917906" lon="12.052160349225655"><ele>391.0</ele><time>2026-05-03T04:44:01Z</time></trkpt><trkpt lat="46.01753510329231" lon="12.05220887887987"><ele>391.0</ele><time>2026-05-03T04:44:02Z</time></trkpt><trkpt lat="46.01747393181238" lon="12.052258206415962"><ele>391.00000000000006</ele><time>2026-05-03T04:44:03Z</time></trkpt><trkpt lat="46.01740878423306" lon="12.052257007707185"><ele>391.0</ele><time>2026-05-03T04:44:04Z</time></trkpt><trkpt lat="46.01733797190571" lon="12.052233125989892"><ele>395.1666666666667</ele><time>2026-05-03T04:44:05Z</time></trkpt><trkpt lat="46.01724226638956" lon="12.052200064004932"><ele>399.33333333333337</ele><time>2026-05-03T04:44:06Z</time></trkpt><trkpt lat="46.01715820715531" lon="12.052157889955037"><ele>403.5</ele><time>2026-05-03T04:44:07Z</time></trkpt><trkpt lat="46.01707166968092" lon="12.052156066590953"><ele>407.66666666666663</ele><time>2026-05-03T04:44:08Z</time></trkpt><trkpt lat="46.01698348587557" lon="12.052181606885023"><ele>411.8333333333333</ele><time>2026-05-03T04:44:09Z</time></trkpt><trkpt lat="46.016905227391256" lon="12.052222741415706"><ele>416.0</ele><time>2026-05-03T04:44:10Z</time></trkpt><trkpt lat="46.01682868253195" lon="12.052255528801721"><ele>416.0</ele><time>2026-05-03T04:44:11Z</time></trkpt><trkpt lat="46.016768622530385" lon="12.052307606635697"><ele>416.0</ele><time>2026-05-03T04:44:12Z</time></trkpt><trkpt lat="46.016698058671686" lon="12.052380113992454"><ele>416.0</ele><time>2026-05-03T04:44:14Z</time></trkpt><trkpt lat="46.016654296875586" lon="12.052251494971262"><ele>416.0</ele><time>2026-05-03T04:44:16Z</time></trkpt><trkpt lat="46.01676085521072" lon="12.052120682039806"><ele>416.0</ele><time>2026-05-03T04:44:18Z</time></trkpt><trkpt lat="46.01681937332722" lon="12.052046269694907"><ele>416.0</ele><time>2026-05-03T04:44:19Z</time></trkpt><trkpt lat="46.016876799617265" lon="12.051956847191683"><ele>416.0</ele><time>2026-05-03T04:44:20Z</time></trkpt><trkpt lat="46.016934456255356" lon="12.05185236802342"><ele>416.0</ele><time>2026-05-03T04:44:21Z</time></trkpt><trkpt lat="46.016982986199785" lon="12.051738178785824"><ele>416.0</ele><time>2026-05-03T04:44:22Z</time></trkpt><trkpt lat="46.01704535155648" lon="12.051626510257737"><ele>416.0</ele><time>2026-05-03T04:44:23Z</time></trkpt><trkpt lat="46.01711734538383" lon="12.051526692937246"><ele>415.6</ele><time>2026-05-03T04:44:24Z</time></trkpt><trkpt lat="46.01719802035606" lon="12.051439602205896"><ele>415.20000000000005</ele><time>2026-05-03T04:44:25Z</time></trkpt><trkpt lat="46.01729050586552" lon="12.051365596346333"><ele>414.79999999999995</ele><time>2026-05-03T04:44:26Z</time></trkpt><trkpt lat="46.01737742279143" lon="12.051286337320768"><ele>414.4</ele><time>2026-05-03T04:44:27Z</time></trkpt><trkpt lat="46.01745496027617" lon="12.051213383520896"><ele>414.0</ele><time>2026-05-03T04:44:28Z</time></trkpt><trkpt lat="46.017518952949544" lon="12.051154649958786"><ele>414.0</ele><time>2026-05-03T04:44:29Z</time></trkpt><trkpt lat="46.017580149882775" lon="12.05107672371511"><ele>414.0</ele><time>2026-05-03T04:44:30Z</time></trkpt><trkpt lat="46.01763215789354" lon="12.050977992205643"><ele>414.0</ele><time>2026-05-03T04:44:31Z</time></trkpt><trkpt lat="46.01766950507191" lon="12.05088855646031"><ele>414.0</ele><time>2026-05-03T04:44:32Z</time></trkpt><trkpt lat="46.01769424283401" lon="12.050768830750608"><ele>414.0</ele><time>2026-05-03T04:44:34Z</time></trkpt><trkpt lat="46.01766716616496" lon="12.050684853872303"><ele>414.0</ele><time>2026-05-03T04:44:35Z</time></trkpt><trkpt lat="46.0175562371279" lon="12.050716154657449"><ele>418.4</ele><time>2026-05-03T04:44:36Z</time></trkpt><trkpt lat="46.0174912732379" lon="12.050788133311226"><ele>422.79999999999995</ele><time>2026-05-03T04:44:37Z</time></trkpt><trkpt lat="46.01742783299327" lon="12.050838497297475"><ele>427.20000000000005</ele><time>2026-05-03T04:44:38Z</time></trkpt><trkpt lat="46.01728948083863" lon="12.050825699678656"><ele>431.6</ele><time>2026-05-03T04:44:40Z</time></trkpt><trkpt lat="46.01718599958947" lon="12.050835299218356"><ele>436.0</ele><time>2026-05-03T04:44:41Z</time></trkpt><trkpt lat="46.01709322311513" lon="12.050881254485171"><ele>436.4</ele><time>2026-05-03T04:44:42Z</time></trkpt><trkpt lat="46.01699483251667" lon="12.050913338631375"><ele>436.8</ele><time>2026-05-03T04:44:43Z</time></trkpt><trkpt lat="46.016891831068136" lon="12.050969276820155"><ele>437.19999999999993</ele><time>2026-05-03T04:44:44Z</time></trkpt><trkpt lat="46.016794929116486" lon="12.05104801224877"><ele>437.59999999999997</ele><time>2026-05-03T04:44:45Z</time></trkpt><trkpt lat="46.016709529325794" lon="12.051138078121037"><ele>438.0</ele><time>2026-05-03T04:44:46Z</time></trkpt><trkpt lat="46.01661622038148" lon="12.051191829040427"><ele>440.5</ele><time>2026-05-03T04:44:47Z</time></trkpt><trkpt lat="46.01655039055956" lon="12.051233549223122"><ele>443.0</ele><time>2026-05-03T04:44:48Z</time></trkpt><trkpt lat="46.016482157340555" lon="12.051276909028376"><ele>445.5</ele><time>2026-05-03T04:44:49Z</time></trkpt><trkpt lat="46.01641925026263" lon="12.051252410673769"><ele>448.0</ele><time>2026-05-03T04:44:50Z</time></trkpt><trkpt lat="46.01628516406403" lon="12.05118292489615"><ele>450.5</ele><time>2026-05-03T04:44:52Z</time></trkpt><trkpt lat="46.01619950403973" lon="12.051150700734288"><ele>453.0</ele><time>2026-05-03T04:44:53Z</time></trkpt><trkpt lat="46.016115212621266" lon="12.051095091544346"><ele>453.0</ele><time>2026-05-03T04:44:54Z</time></trkpt><trkpt lat="46.01602179117516" lon="12.05104095912269"><ele>452.99999999999994</ele><time>2026-05-03T04:44:55Z</time></trkpt><trkpt lat="46.015925143320004" lon="12.051002815853852"><ele>452.99999999999994</ele><time>2026-05-03T04:44:56Z</time></trkpt><trkpt lat="46.01584168709727" lon="12.05099954915217"><ele>453.0</ele><time>2026-05-03T04:44:57Z</time></trkpt><trkpt lat="46.0157657006333" lon="12.051008052416407"><ele>453.0</ele><time>2026-05-03T04:44:58Z</time></trkpt><trkpt lat="46.015655685246415" lon="12.05099651568112"><ele>451.79999999999995</ele><time>2026-05-03T04:45:00Z</time></trkpt><trkpt lat="46.01557605241266" lon="12.05084746727072"><ele>450.59999999999997</ele><time>2026-05-03T04:45:02Z</time></trkpt><trkpt lat="46.015525858915325" lon="12.050748391967382"><ele>449.40000000000003</ele><time>2026-05-03T04:45:03Z</time></trkpt><trkpt lat="46.01546964848688" lon="12.050640775229411"><ele>448.20000000000005</ele><time>2026-05-03T04:45:04Z</time></trkpt><trkpt lat="46.01540104045285" lon="12.05050880605949"><ele>447.0</ele><time>2026-05-03T04:45:05Z</time></trkpt><trkpt lat="46.01532836001705" lon="12.050395840692431"><ele>450.40000000000003</ele><time>2026-05-03T04:45:06Z</time></trkpt><trkpt lat="46.01527089193264" lon="12.050302411435064"><ele>453.80000000000007</ele><time>2026-05-03T04:45:07Z</time></trkpt><trkpt lat="46.015184776545446" lon="12.050230485454831"><ele>457.2</ele><time>2026-05-03T04:45:08Z</time></trkpt><trkpt lat="46.015087099480965" lon="12.050203912932323"><ele>460.6</ele><time>2026-05-03T04:45:09Z</time></trkpt><trkpt lat="46.01498959600734" lon="12.050222692796124"><ele>464.0</ele><time>2026-05-03T04:45:10Z</time></trkpt><trkpt lat="46.01489149811028" lon="12.050272269630755"><ele>465.6</ele><time>2026-05-03T04:45:11Z</time></trkpt><trkpt lat="46.01480140859169" lon="12.050333086593561"><ele>467.2</ele><time>2026-05-03T04:45:12Z</time></trkpt><trkpt lat="46.01470192215371" lon="12.050421903672545"><ele>468.80000000000007</ele><time>2026-05-03T04:45:13Z</time></trkpt><trkpt lat="46.01461428145016" lon="12.050503775660808"><ele>470.40000000000003</ele><time>2026-05-03T04:45:14Z</time></trkpt><trkpt lat="46.01455339307611" lon="12.050599071564124"><ele>472.0</ele><time>2026-05-03T04:45:15Z</time></trkpt><trkpt lat="46.014502611035475" lon="12.050672853229026"><ele>472.0</ele><time>2026-05-03T04:45:16Z</time></trkpt><trkpt lat="46.01438976718701" lon="12.050742586640249"><ele>472.00000000000006</ele><time>2026-05-03T04:45:18Z</time></trkpt><trkpt lat="46.01430323835094" lon="12.050746914206234"><ele>472.00000000000006</ele><time>2026-05-03T04:45:19Z</time></trkpt><trkpt lat="46.014215043023924" lon="12.05073386614092"><ele>472.0</ele><time>2026-05-03T04:45:20Z</time></trkpt><trkpt lat="46.01411854256252" lon="12.050708469232942"><ele>472.0</ele><time>2026-05-03T04:45:21Z</time></trkpt><trkpt lat="46.01401545621179" lon="12.050685128308679"><ele>474.20000000000005</ele><time>2026-05-03T04:45:22Z</time></trkpt><trkpt lat="46.013906363977235" lon="12.050671297000141"><ele>476.40000000000003</ele><time>2026-05-03T04:45:23Z</time></trkpt><trkpt lat="46.013789037560244" lon="12.05065470987019"><ele>478.59999999999997</ele><time>2026-05-03T04:45:24Z</time></trkpt><trkpt lat="46.01368479535131" lon="12.050661440006017"><ele>480.79999999999995</ele><time>2026-05-03T04:45:25Z</time></trkpt><trkpt lat="46.01359878281839" lon="12.050663185132782"><ele>483.0</ele><time>2026-05-03T04:45:26Z</time></trkpt><trkpt lat="46.01350426212497" lon="12.050639788694978"><ele>483.0</ele><time>2026-05-03T04:45:27Z</time></trkpt><trkpt lat="46.01339538830466" lon="12.050613718896505"><ele>483.0</ele><time>2026-05-03T04:45:28Z</time></trkpt><trkpt lat="46.01328923669269" lon="12.050579564340197"><ele>483.0</ele><time>2026-05-03T04:45:29Z</time></trkpt><trkpt lat="46.0131754055656" lon="12.050588981484351"><ele>483.0</ele><time>2026-05-03T04:45:30Z</time></trkpt><trkpt lat="46.013046126389426" lon="12.050576086298712"><ele>484.0</ele><time>2026-05-03T04:45:31Z</time></trkpt><trkpt lat="46.012888038430866" lon="12.050501423718371"><ele>485.0</ele><time>2026-05-03T04:45:32Z</time></trkpt><trkpt lat="46.01274857053418" lon="12.050497005920603"><ele>486.0</ele><time>2026-05-03T04:45:33Z</time></trkpt><trkpt lat="46.01265013728217" lon="12.050484873770989"><ele>487.0</ele><time>2026-05-03T04:45:34Z</time></trkpt><trkpt lat="46.01256451385141" lon="12.050469251361994"><ele>486.50000000000006</ele><time>2026-05-03T04:45:35Z</time></trkpt><trkpt lat="46.01247809918425" lon="12.050475620573268"><ele>486.0</ele><time>2026-05-03T04:45:36Z</time></trkpt><trkpt lat="46.012398672377934" lon="12.050505681798784"><ele>485.5</ele><time>2026-05-03T04:45:37Z</time></trkpt><trkpt lat="46.01232183901292" lon="12.050528399259525"><ele>485.0</ele><time>2026-05-03T04:45:38Z</time></trkpt><trkpt lat="46.0122432320971" lon="12.050552606070573"><ele>484.50000000000006</ele><time>2026-05-03T04:45:38.999Z</time></trkpt><trkpt lat="46.01217253661999" lon="12.050574818249224"><ele>484.0</ele><time>2026-05-03T04:45:39.999Z</time></trkpt><trkpt lat="46.01209931279807" lon="12.050580920584164"><ele>484.00000000000006</ele><time>2026-05-03T04:45:40.999Z</time></trkpt><trkpt lat="46.0120252963742" lon="12.050565956377303"><ele>484.0</ele><time>2026-05-03T04:45:41.999Z</time></trkpt><trkpt lat="46.011948311632125" lon="12.05054035591514"><ele>484.0</ele><time>2026-05-03T04:45:42.999Z</time></trkpt><trkpt lat="46.01186485995645" lon="12.05051152907837"><ele>484.0</ele><time>2026-05-03T04:45:43.999Z</time></trkpt><trkpt lat="46.011781795540536" lon="12.050496897322557"><ele>484.00000000000006</ele><time>2026-05-03T04:45:44.999Z</time></trkpt><trkpt lat="46.01170405240445" lon="12.050495264126102"><ele>484.0</ele><time>2026-05-03T04:45:45.999Z</time></trkpt><trkpt lat="46.01164095059165" lon="12.050491041837363"><ele>486.50000000000006</ele><time>2026-05-03T04:45:46.999Z</time></trkpt><trkpt lat="46.011568990413515" lon="12.050471711455861"><ele>489.0</ele><time>2026-05-03T04:45:47.999Z</time></trkpt><trkpt lat="46.011501909008665" lon="12.050430752725557"><ele>491.5</ele><time>2026-05-03T04:45:48.999Z</time></trkpt><trkpt lat="46.011450025806774" lon="12.050375299784088"><ele>494.0</ele><time>2026-05-03T04:45:49.999Z</time></trkpt><trkpt lat="46.01138257687764" lon="12.05029666402367"><ele>496.50000000000006</ele><time>2026-05-03T04:45:51.999Z</time></trkpt><trkpt lat="46.01132978380636" lon="12.050378792161581"><ele>499.0</ele><time>2026-05-03T04:45:53.999Z</time></trkpt><trkpt lat="46.01142080841473" lon="12.050509225169"><ele>499.00000000000006</ele><time>2026-05-03T04:45:55.999Z</time></trkpt><trkpt lat="46.01149026768313" lon="12.050553235222838"><ele>499.0</ele><time>2026-05-03T04:45:56.999Z</time></trkpt><trkpt lat="46.01155194130741" lon="12.050605500533566"><ele>499.00000000000006</ele><time>2026-05-03T04:45:57.999Z</time></trkpt><trkpt lat="46.01161579661811" lon="12.050661810457694"><ele>499.00000000000006</ele><time>2026-05-03T04:45:58.999Z</time></trkpt><trkpt lat="46.01167386653867" lon="12.05070718034249"><ele>499.0</ele><time>2026-05-03T04:45:59.999Z</time></trkpt><trkpt lat="46.011735413014755" lon="12.050744449340563"><ele>499.00000000000006</ele><time>2026-05-03T04:46:00.999Z</time></trkpt><trkpt lat="46.0117961465667" lon="12.050776235701454"><ele>499.00000000000006</ele><time>2026-05-03T04:46:02Z</time></trkpt><trkpt lat="46.011862256123095" lon="12.050849601760891"><ele>499.50000000000006</ele><time>2026-05-03T04:46:04Z</time></trkpt><trkpt lat="46.011868316746785" lon="12.050952852380155"><ele>500.0</ele><time>2026-05-03T04:46:07Z</time></trkpt><trkpt lat="46.011820795604706" lon="12.051017251390665"><ele>500.5</ele><time>2026-05-03T04:46:27Z</time></trkpt><trkpt lat="46.01172613828448" lon="12.050936918238177"><ele>501.0</ele><time>2026-05-03T04:46:31Z</time></trkpt><trkpt lat="46.011638001001266" lon="12.050883326998454"><ele>501.50000000000006</ele><time>2026-05-03T04:46:32Z</time></trkpt><trkpt lat="46.01156519296734" lon="12.05086414365472"><ele>502.0</ele><time>2026-05-03T04:46:33Z</time></trkpt><trkpt lat="46.01148661109584" lon="12.05085275026373"><ele>501.50000000000006</ele><time>2026-05-03T04:46:34Z</time></trkpt><trkpt lat="46.01140966276027" lon="12.050854607067116"><ele>501.0</ele><time>2026-05-03T04:46:35Z</time></trkpt><trkpt lat="46.011336291203285" lon="12.05085772787563"><ele>500.5</ele><time>2026-05-03T04:46:36Z</time></trkpt><trkpt lat="46.01126236073651" lon="12.050853211000028"><ele>500.0</ele><time>2026-05-03T04:46:37Z</time></trkpt><trkpt lat="46.01119621317029" lon="12.050844707353098"><ele>499.50000000000006</ele><time>2026-05-03T04:46:38Z</time></trkpt><trkpt lat="46.01109575095427" lon="12.050809916815314"><ele>499.0</ele><time>2026-05-03T04:46:40Z</time></trkpt><trkpt lat="46.01103526208367" lon="12.050780211112126"><ele>499.00000000000006</ele><time>2026-05-03T04:46:41Z</time></trkpt><trkpt lat="46.01096579544611" lon="12.050745089351325"><ele>499.0</ele><time>2026-05-03T04:46:42Z</time></trkpt><trkpt lat="46.01088914861193" lon="12.050723462371232"><ele>499.0</ele><time>2026-05-03T04:46:43Z</time></trkpt><trkpt lat="46.01080786003385" lon="12.05070811133359"><ele>499.0</ele><time>2026-05-03T04:46:44Z</time></trkpt><trkpt lat="46.01072398325673" lon="12.050689213680167"><ele>499.00000000000006</ele><time>2026-05-03T04:46:45Z</time></trkpt><trkpt lat="46.01063760944773" lon="12.050669653025285"><ele>499.0</ele><time>2026-05-03T04:46:46Z</time></trkpt><trkpt lat="46.01055677616293" lon="12.050638631539266"><ele>502.33333333333337</ele><time>2026-05-03T04:46:47Z</time></trkpt><trkpt lat="46.01047837954522" lon="12.050593518632875"><ele>505.6666666666667</ele><time>2026-05-03T04:46:48Z</time></trkpt><trkpt lat="46.01040466054928" lon="12.050541234636839"><ele>509.0</ele><time>2026-05-03T04:46:49Z</time></trkpt><trkpt lat="46.01032950744143" lon="12.050487264099546"><ele>512.3333333333334</ele><time>2026-05-03T04:46:50Z</time></trkpt><trkpt lat="46.010254517847855" lon="12.050430267095114"><ele>515.6666666666666</ele><time>2026-05-03T04:46:51Z</time></trkpt><trkpt lat="46.01018250941141" lon="12.050374813116616"><ele>519.0</ele><time>2026-05-03T04:46:52Z</time></trkpt><trkpt lat="46.01011242988294" lon="12.050310925811395"><ele>519.0</ele><time>2026-05-03T04:46:53Z</time></trkpt><trkpt lat="46.01004588247316" lon="12.050234158998789"><ele>519.0</ele><time>2026-05-03T04:46:54Z</time></trkpt><trkpt lat="46.00998382169072" lon="12.050152722623741"><ele>519.0</ele><time>2026-05-03T04:46:55Z</time></trkpt><trkpt lat="46.0099256305159" lon="12.05007497451017"><ele>519.0</ele><time>2026-05-03T04:46:56Z</time></trkpt><trkpt lat="46.00986379140524" lon="12.050000084526587"><ele>519.0</ele><time>2026-05-03T04:46:57Z</time></trkpt><trkpt lat="46.0097987699008" lon="12.04993061253598"><ele>519.0</ele><time>2026-05-03T04:46:58Z</time></trkpt><trkpt lat="46.00973902334008" lon="12.049856772694291"><ele>522.3333333333334</ele><time>2026-05-03T04:46:59Z</time></trkpt><trkpt lat="46.009675356342235" lon="12.049784534248303"><ele>525.6666666666666</ele><time>2026-05-03T04:47:00Z</time></trkpt><trkpt lat="46.009608673909405" lon="12.049711000811115"><ele>529.0</ele><time>2026-05-03T04:47:01Z</time></trkpt><trkpt lat="46.0095411815232" lon="12.049636742513847"><ele>532.3333333333333</ele><time>2026-05-03T04:47:02Z</time></trkpt><trkpt lat="46.00947711108608" lon="12.049552136255056"><ele>535.6666666666666</ele><time>2026-05-03T04:47:03Z</time></trkpt><trkpt lat="46.009413014408075" lon="12.049481877211205"><ele>539.0</ele><time>2026-05-03T04:47:04Z</time></trkpt><trkpt lat="46.00934952955421" lon="12.049397174216475"><ele>539.0</ele><time>2026-05-03T04:47:05Z</time></trkpt><trkpt lat="46.00929005637634" lon="12.049319112389623"><ele>539.0</ele><time>2026-05-03T04:47:06Z</time></trkpt><trkpt lat="46.00923256660224" lon="12.049230549316093"><ele>539.0</ele><time>2026-05-03T04:47:07Z</time></trkpt><trkpt lat="46.00918240558489" lon="12.049133290461649"><ele>539.0</ele><time>2026-05-03T04:47:08Z</time></trkpt><trkpt lat="46.00914147380788" lon="12.049032343522578"><ele>539.0</ele><time>2026-05-03T04:47:09Z</time></trkpt><trkpt lat="46.00912454750981" lon="12.04893551766917"><ele>539.0</ele><time>2026-05-03T04:47:10Z</time></trkpt><trkpt lat="46.009145160290636" lon="12.048789723274082"><ele>537.8</ele><time>2026-05-03T04:47:22Z</time></trkpt><trkpt lat="46.00915983356887" lon="12.048643233152964"><ele>536.5999999999999</ele><time>2026-05-03T04:47:24Z</time></trkpt><trkpt lat="46.00916431596365" lon="12.048513960433896"><ele>535.4</ele><time>2026-05-03T04:47:26Z</time></trkpt><trkpt lat="46.00914413389205" lon="12.048355292633875"><ele>534.1999999999999</ele><time>2026-05-03T04:47:28Z</time></trkpt><trkpt lat="46.00909368965886" lon="12.04823539174836"><ele>533.0</ele><time>2026-05-03T04:47:30Z</time></trkpt><trkpt lat="46.009049753334" lon="12.048101551907408"><ele>533.0</ele><time>2026-05-03T04:47:32Z</time></trkpt><trkpt lat="46.009008455339455" lon="12.047979884618771"><ele>533.0</ele><time>2026-05-03T04:47:34Z</time></trkpt><trkpt lat="46.00897379482594" lon="12.047898168323181"><ele>533.0</ele><time>2026-05-03T04:47:35Z</time></trkpt><trkpt lat="46.00891703748177" lon="12.047771552685193"><ele>533.0</ele><time>2026-05-03T04:47:37Z</time></trkpt><trkpt lat="46.008840138603" lon="12.04766626860614"><ele>533.0</ele><time>2026-05-03T04:47:39Z</time></trkpt><trkpt lat="46.00874093720491" lon="12.047569428739646"><ele>533.0</ele><time>2026-05-03T04:47:40.999Z</time></trkpt><trkpt lat="46.008634469887824" lon="12.047526791727952"><ele>533.0</ele><time>2026-05-03T04:47:42.999Z</time></trkpt><trkpt lat="46.00852917678105" lon="12.04750238786951"><ele>533.0</ele><time>2026-05-03T04:47:44.999Z</time></trkpt><trkpt lat="46.008429217348535" lon="12.047475224479962"><ele>533.0</ele><time>2026-05-03T04:47:46.999Z</time></trkpt><trkpt lat="46.00832503579707" lon="12.047457158474785"><ele>533.0</ele><time>2026-05-03T04:47:48.999Z</time></trkpt><trkpt lat="46.00822490367243" lon="12.047446169069147"><ele>539.6</ele><time>2026-05-03T04:47:50.999Z</time></trkpt><trkpt lat="46.008125129433104" lon="12.047428936211405"><ele>546.1999999999999</ele><time>2026-05-03T04:47:52.999Z</time></trkpt><trkpt lat="46.00804425755735" lon="12.047369541782631"><ele>552.8</ele><time>2026-05-03T04:47:54.999Z</time></trkpt><trkpt lat="46.008003616990266" lon="12.047280455923856"><ele>559.4</ele><time>2026-05-03T04:47:56.999Z</time></trkpt><trkpt lat="46.008031538370666" lon="12.047132250213897"><ele>566.0</ele><time>2026-05-03T04:47:58.999Z</time></trkpt><trkpt lat="46.008073175053916" lon="12.04697244985188"><ele>566.0</ele><time>2026-05-03T04:48:00.999Z</time></trkpt><trkpt lat="46.00810634891462" lon="12.046842753149466"><ele>566.0</ele><time>2026-05-03T04:48:02.999Z</time></trkpt><trkpt lat="46.00814012085023" lon="12.046709956206554"><ele>566.0</ele><time>2026-05-03T04:48:04.999Z</time></trkpt><trkpt lat="46.00818715911" lon="12.04657938691549"><ele>566.0</ele><time>2026-05-03T04:48:06.999Z</time></trkpt><trkpt lat="46.00818901781543" lon="12.046485694720623"><ele>566.0</ele><time>2026-05-03T04:48:08Z</time></trkpt><trkpt lat="46.00817500842402" lon="12.04637935156677"><ele>566.0</ele><time>2026-05-03T04:48:09Z</time></trkpt><trkpt lat="46.008193555248845" lon="12.046253845256027"><ele>564.5</ele><time>2026-05-03T04:48:10Z</time></trkpt><trkpt lat="46.00820251567025" lon="12.046164068555601"><ele>563.0</ele><time>2026-05-03T04:48:11Z</time></trkpt><trkpt lat="46.00822374376354" lon="12.04600103197705"><ele>561.5</ele><time>2026-05-03T04:48:13Z</time></trkpt><trkpt lat="46.00818694259562" lon="12.045851082653446"><ele>560.0</ele><time>2026-05-03T04:48:15Z</time></trkpt><trkpt lat="46.0081526971806" lon="12.04575929188732"><ele>558.5</ele><time>2026-05-03T04:48:16Z</time></trkpt><trkpt lat="46.00811169742481" lon="12.045688036097772"><ele>557.0</ele><time>2026-05-03T04:48:17Z</time></trkpt><trkpt lat="46.00803067515688" lon="12.045553496031337"><ele>555.4</ele><time>2026-05-03T04:48:19Z</time></trkpt><trkpt lat="46.00795044182004" lon="12.045450242458916"><ele>553.8000000000001</ele><time>2026-05-03T04:48:21Z</time></trkpt><trkpt lat="46.007873333609965" lon="12.045350935704148"><ele>552.2</ele><time>2026-05-03T04:48:23Z</time></trkpt><trkpt lat="46.00779819948361" lon="12.045234484248802"><ele>550.6</ele><time>2026-05-03T04:48:25Z</time></trkpt><trkpt lat="46.007733665333284" lon="12.045104119690077"><ele>549.0</ele><time>2026-05-03T04:48:27Z</time></trkpt><trkpt lat="46.00770469668955" lon="12.04496342703022"><ele>547.8</ele><time>2026-05-03T04:48:29Z</time></trkpt><trkpt lat="46.007734890879526" lon="12.044813536597585"><ele>546.5999999999999</ele><time>2026-05-03T04:48:31Z</time></trkpt><trkpt lat="46.00777521101723" lon="12.044677584652108"><ele>545.4</ele><time>2026-05-03T04:48:33Z</time></trkpt><trkpt lat="46.007818412344186" lon="12.044561843110039"><ele>544.1999999999999</ele><time>2026-05-03T04:48:35Z</time></trkpt><trkpt lat="46.00784540449211" lon="12.044445722824133"><ele>543.0</ele><time>2026-05-03T04:48:37Z</time></trkpt><trkpt lat="46.00782140037314" lon="12.044333080948464"><ele>543.0</ele><time>2026-05-03T04:48:39Z</time></trkpt><trkpt lat="46.00780379717645" lon="12.044192623189527"><ele>543.0</ele><time>2026-05-03T04:48:41Z</time></trkpt><trkpt lat="46.00777136818198" lon="12.044047617794952"><ele>543.0</ele><time>2026-05-03T04:48:43Z</time></trkpt><trkpt lat="46.00773485877077" lon="12.043895924052942"><ele>543.0</ele><time>2026-05-03T04:48:45Z</time></trkpt><trkpt lat="46.007682499650784" lon="12.043751502129476"><ele>543.0</ele><time>2026-05-03T04:48:47Z</time></trkpt><trkpt lat="46.00763197318087" lon="12.043601948687467"><ele>544.1666666666666</ele><time>2026-05-03T04:48:49Z</time></trkpt><trkpt lat="46.00760474570374" lon="12.043519876963833"><ele>545.3333333333334</ele><time>2026-05-03T04:48:50Z</time></trkpt><trkpt lat="46.007541293487755" lon="12.04338046716056"><ele>546.5</ele><time>2026-05-03T04:48:52Z</time></trkpt><trkpt lat="46.00744825621151" lon="12.043280348102318"><ele>547.6666666666667</ele><time>2026-05-03T04:48:54Z</time></trkpt><trkpt lat="46.00739059939182" lon="12.043216002459753"><ele>548.8333333333334</ele><time>2026-05-03T04:48:55Z</time></trkpt><trkpt lat="46.0073189229294" lon="12.043195011383132"><ele>550.0</ele><time>2026-05-03T04:48:58Z</time></trkpt><trkpt lat="46.007291665590564" lon="12.04309104999168"><ele>550.0</ele><time>2026-05-03T04:49:00Z</time></trkpt><trkpt lat="46.007299019923856" lon="12.042992583803786"><ele>550.0</ele><time>2026-05-03T04:49:01Z</time></trkpt><trkpt lat="46.0073251907193" lon="12.042830269639966"><ele>550.0</ele><time>2026-05-03T04:49:03Z</time></trkpt><trkpt lat="46.00734836133771" lon="12.042704831585823"><ele>550.0</ele><time>2026-05-03T04:49:05Z</time></trkpt><trkpt lat="46.00734155667794" lon="12.042583256392811"><ele>550.0</ele><time>2026-05-03T04:49:07Z</time></trkpt><trkpt lat="46.00730347608697" lon="12.042448401216227"><ele>547.0</ele><time>2026-05-03T04:49:09Z</time></trkpt><trkpt lat="46.00724797370651" lon="12.042332897778865"><ele>544.0</ele><time>2026-05-03T04:49:11Z</time></trkpt><trkpt lat="46.007199368581595" lon="12.042272249982714"><ele>541.0</ele><time>2026-05-03T04:49:12Z</time></trkpt><trkpt lat="46.00715119007246" lon="12.042212134580245"><ele>538.0</ele><time>2026-05-03T04:49:13Z</time></trkpt><trkpt lat="46.00709979565321" lon="12.042150528528209"><ele>535.0</ele><time>2026-05-03T04:49:14Z</time></trkpt><trkpt lat="46.00704751875847" lon="12.04209107202954"><ele>532.0</ele><time>2026-05-03T04:49:15Z</time></trkpt><trkpt lat="46.00694891484632" lon="12.0419903201409"><ele>532.0</ele><time>2026-05-03T04:49:17Z</time></trkpt><trkpt lat="46.00689441083617" lon="12.041937820392727"><ele>532.0</ele><time>2026-05-03T04:49:18Z</time></trkpt><trkpt lat="46.006796070315445" lon="12.041849381398182"><ele>532.0</ele><time>2026-05-03T04:49:20Z</time></trkpt><trkpt lat="46.006693652090334" lon="12.041761766832243"><ele>532.0</ele><time>2026-05-03T04:49:22Z</time></trkpt><trkpt lat="46.00658705670443" lon="12.041694887631682"><ele>532.0</ele><time>2026-05-03T04:49:24Z</time></trkpt><trkpt lat="46.00648090582041" lon="12.041645508407644"><ele>533.8000000000001</ele><time>2026-05-03T04:49:26Z</time></trkpt><trkpt lat="46.00638639791134" lon="12.041601884419856"><ele>535.6</ele><time>2026-05-03T04:49:28Z</time></trkpt><trkpt lat="46.006289465259094" lon="12.041594015542035"><ele>537.4000000000001</ele><time>2026-05-03T04:49:30Z</time></trkpt><trkpt lat="46.006182613008086" lon="12.04160961433317"><ele>539.2</ele><time>2026-05-03T04:49:32Z</time></trkpt><trkpt lat="46.00610144825971" lon="12.041639632822532"><ele>541.0</ele><time>2026-05-03T04:49:34Z</time></trkpt><trkpt lat="46.00601019946644" lon="12.041681485828436"><ele>541.0</ele><time>2026-05-03T04:49:36Z</time></trkpt><trkpt lat="46.005914522388785" lon="12.041729551972455"><ele>541.0</ele><time>2026-05-03T04:49:38Z</time></trkpt><trkpt lat="46.00580857383146" lon="12.041711619678562"><ele>541.0</ele><time>2026-05-03T04:49:40Z</time></trkpt><trkpt lat="46.0057435106757" lon="12.041709967277376"><ele>541.0</ele><time>2026-05-03T04:49:41Z</time></trkpt><trkpt lat="46.00565797508178" lon="12.041711686393437"><ele>541.0</ele><time>2026-05-03T04:49:42Z</time></trkpt><trkpt lat="46.00558826792376" lon="12.041725645828928"><ele>541.0</ele><time>2026-05-03T04:49:43Z</time></trkpt><trkpt lat="46.005458482122215" lon="12.041762820568596"><ele>539.3333333333334</ele><time>2026-05-03T04:49:45Z</time></trkpt><trkpt lat="46.005396913810074" lon="12.04178281951847"><ele>537.6666666666667</ele><time>2026-05-03T04:49:46Z</time></trkpt><trkpt lat="46.0052981931181" lon="12.041836796818977"><ele>536.0</ele><time>2026-05-03T04:49:48Z</time></trkpt><trkpt lat="46.00521375301331" lon="12.041816189436044"><ele>534.3333333333334</ele><time>2026-05-03T04:49:50Z</time></trkpt><trkpt lat="46.00514117142527" lon="12.041809417275728"><ele>532.6666666666666</ele><time>2026-05-03T04:49:53Z</time></trkpt><trkpt lat="46.00507648599586" lon="12.041778386757631"><ele>531.0</ele><time>2026-05-03T04:49:56.999Z</time></trkpt><trkpt lat="46.00511076417467" lon="12.041559678374202"><ele>531.0</ele><time>2026-05-03T04:49:59.999Z</time></trkpt><trkpt lat="46.00513408157276" lon="12.04140178894335"><ele>531.0</ele><time>2026-05-03T04:50:01.999Z</time></trkpt><trkpt lat="46.005148268642024" lon="12.041310662555698"><ele>531.0</ele><time>2026-05-03T04:50:02.999Z</time></trkpt><trkpt lat="46.00515285228434" lon="12.041161681569438"><ele>531.0</ele><time>2026-05-03T04:50:04.999Z</time></trkpt><trkpt lat="46.00516620079136" lon="12.04101418318395"><ele>531.0</ele><time>2026-05-03T04:50:06.999Z</time></trkpt><trkpt lat="46.005180976787855" lon="12.040882736870072"><ele>526.4</ele><time>2026-05-03T04:50:08.999Z</time></trkpt><trkpt lat="46.00516416351887" lon="12.040752373816819"><ele>521.8</ele><time>2026-05-03T04:50:10.999Z</time></trkpt><trkpt lat="46.005085782125164" lon="12.040650445135649"><ele>517.1999999999999</ele><time>2026-05-03T04:50:12.999Z</time></trkpt><trkpt lat="46.00497865590037" lon="12.040570212443296"><ele>512.6</ele><time>2026-05-03T04:50:15Z</time></trkpt><trkpt lat="46.00489540691213" lon="12.040492854088566"><ele>508.0</ele><time>2026-05-03T04:50:17Z</time></trkpt><trkpt lat="46.004789477309835" lon="12.040462701411828"><ele>508.0</ele><time>2026-05-03T04:50:19Z</time></trkpt><trkpt lat="46.00472496240073" lon="12.040454321300478"><ele>507.99999999999994</ele><time>2026-05-03T04:50:20Z</time></trkpt><trkpt lat="46.00459873588257" lon="12.040464300576115"><ele>507.99999999999994</ele><time>2026-05-03T04:50:22Z</time></trkpt><trkpt lat="46.004491657561715" lon="12.040469174530593"><ele>508.0</ele><time>2026-05-03T04:50:24Z</time></trkpt><trkpt lat="46.00438633283559" lon="12.040476116012657"><ele>508.0</ele><time>2026-05-03T04:50:26Z</time></trkpt><trkpt lat="46.00427780294212" lon="12.040472568208124"><ele>508.00000000000006</ele><time>2026-05-03T04:50:29Z</time></trkpt><trkpt lat="46.00417572093907" lon="12.0404404100936"><ele>508.0</ele><time>2026-05-03T04:50:31Z</time></trkpt><trkpt lat="46.00410534993125" lon="12.040407739248783"><ele>508.0</ele><time>2026-05-03T04:50:32Z</time></trkpt><trkpt lat="46.003987338864135" lon="12.040355540155401"><ele>508.0</ele><time>2026-05-03T04:50:34Z</time></trkpt><trkpt lat="46.00392291351407" lon="12.040329820347031"><ele>508.00000000000006</ele><time>2026-05-03T04:50:35Z</time></trkpt><trkpt lat="46.00385995195197" lon="12.040297416660714"><ele>508.0</ele><time>2026-05-03T04:50:36Z</time></trkpt><trkpt lat="46.00374587160855" lon="12.040233146906242"><ele>507.42857142857144</ele><time>2026-05-03T04:50:38Z</time></trkpt><trkpt lat="46.00368801780864" lon="12.040182221507644"><ele>506.85714285714283</ele><time>2026-05-03T04:50:39Z</time></trkpt><trkpt lat="46.00362918428726" lon="12.04013596411936"><ele>506.2857142857143</ele><time>2026-05-03T04:50:40Z</time></trkpt><trkpt lat="46.00356311869104" lon="12.040090867984695"><ele>505.7142857142857</ele><time>2026-05-03T04:50:41Z</time></trkpt><trkpt lat="46.003501975371506" lon="12.040040738101478"><ele>505.1428571428571</ele><time>2026-05-03T04:50:42Z</time></trkpt><trkpt lat="46.00343978502419" lon="12.040002497258858"><ele>504.57142857142856</ele><time>2026-05-03T04:50:43Z</time></trkpt><trkpt lat="46.00337632892732" lon="12.039951952645099"><ele>504.0</ele><time>2026-05-03T04:50:44Z</time></trkpt><trkpt lat="46.003321544096366" lon="12.039899923269065"><ele>504.0</ele><time>2026-05-03T04:50:45Z</time></trkpt><trkpt lat="46.00326296243846" lon="12.039843165572934"><ele>504.0</ele><time>2026-05-03T04:50:46Z</time></trkpt><trkpt lat="46.00321004992205" lon="12.03978604387395"><ele>504.0</ele><time>2026-05-03T04:50:47Z</time></trkpt><trkpt lat="46.00312996286093" lon="12.039660648844064"><ele>504.0</ele><time>2026-05-03T04:50:49Z</time></trkpt><trkpt lat="46.003038135082896" lon="12.039587749661454"><ele>504.0</ele><time>2026-05-03T04:50:51Z</time></trkpt><trkpt lat="46.00294937103774" lon="12.039508143463218"><ele>504.0</ele><time>2026-05-03T04:50:53Z</time></trkpt><trkpt lat="46.002858909514444" lon="12.03946366415783"><ele>504.0</ele><time>2026-05-03T04:50:55Z</time></trkpt><trkpt lat="46.00276349621676" lon="12.039465157348912"><ele>504.0</ele><time>2026-05-03T04:50:57Z</time></trkpt><trkpt lat="46.00264859778183" lon="12.039487885012486"><ele>504.0</ele><time>2026-05-03T04:50:59Z</time></trkpt><trkpt lat="46.00253801183191" lon="12.039501762620814"><ele>504.0</ele><time>2026-05-03T04:51:01Z</time></trkpt><trkpt lat="46.00243606587426" lon="12.039479033659301"><ele>505.0</ele><time>2026-05-03T04:51:03Z</time></trkpt><trkpt lat="46.002336247924404" lon="12.039511232239219"><ele>506.0</ele><time>2026-05-03T04:51:05Z</time></trkpt><trkpt lat="46.00223444553766" lon="12.0395743317728"><ele>507.0</ele><time>2026-05-03T04:51:07Z</time></trkpt><trkpt lat="46.00213691703285" lon="12.039595549040087"><ele>508.0</ele><time>2026-05-03T04:51:09Z</time></trkpt><trkpt lat="46.00204922004145" lon="12.039591249591172"><ele>509.0</ele><time>2026-05-03T04:51:11Z</time></trkpt><trkpt lat="46.00198375221902" lon="12.03952948566583"><ele>509.0</ele><time>2026-05-03T04:51:13Z</time></trkpt><trkpt lat="46.001933360631284" lon="12.039407539111652"><ele>509.0</ele><time>2026-05-03T04:51:15Z</time></trkpt><trkpt lat="46.00191534673181" lon="12.039272501848268"><ele>509.0</ele><time>2026-05-03T04:51:17Z</time></trkpt><trkpt lat="46.001873292354055" lon="12.039181385133334"><ele>509.0</ele><time>2026-05-03T04:51:19Z</time></trkpt><trkpt lat="46.00178680297667" lon="12.0390999486283"><ele>509.0</ele><time>2026-05-03T04:51:21Z</time></trkpt><trkpt lat="46.00171288949051" lon="12.039059941646162"><ele>510.2</ele><time>2026-05-03T04:51:23Z</time></trkpt><trkpt lat="46.00162277245206" lon="12.03903934891286"><ele>511.4</ele><time>2026-05-03T04:51:25Z</time></trkpt><trkpt lat="46.00153106978652" lon="12.039064109314937"><ele>512.6</ele><time>2026-05-03T04:51:27Z</time></trkpt><trkpt lat="46.00143093658072" lon="12.039134921183356"><ele>513.8</ele><time>2026-05-03T04:51:29Z</time></trkpt><trkpt lat="46.00133660265331" lon="12.039163546762495"><ele>515.0</ele><time>2026-05-03T04:51:31Z</time></trkpt><trkpt lat="46.001239780067706" lon="12.039098905470057"><ele>509.3333333333333</ele><time>2026-05-03T04:51:33Z</time></trkpt><trkpt lat="46.00117133094236" lon="12.039051129474757"><ele>503.66666666666663</ele><time>2026-05-03T04:51:35Z</time></trkpt><trkpt lat="46.00108329465329" lon="12.039035714067722"><ele>498.0</ele><time>2026-05-03T04:51:37Z</time></trkpt><trkpt lat="46.00102024325296" lon="12.03904641948561"><ele>492.33333333333337</ele><time>2026-05-03T04:51:38Z</time></trkpt><trkpt lat="46.000914906657115" lon="12.039052157628682"><ele>486.6666666666667</ele><time>2026-05-03T04:51:40Z</time></trkpt><trkpt lat="46.00083474061789" lon="12.03901366329774"><ele>481.0</ele><time>2026-05-03T04:51:42Z</time></trkpt><trkpt lat="46.000788416733755" lon="12.038896283610278"><ele>481.00000000000006</ele><time>2026-05-03T04:51:44Z</time></trkpt><trkpt lat="46.00074796781188" lon="12.03876712073919"><ele>481.0</ele><time>2026-05-03T04:51:46Z</time></trkpt><trkpt lat="46.00069582367414" lon="12.038649221077723"><ele>481.0</ele><time>2026-05-03T04:51:48Z</time></trkpt><trkpt lat="46.000627067601165" lon="12.038562378541666"><ele>481.0</ele><time>2026-05-03T04:51:50Z</time></trkpt><trkpt lat="46.00055657726868" lon="12.038529148329898"><ele>481.00000000000006</ele><time>2026-05-03T04:51:52Z</time></trkpt><trkpt lat="46.00048090017965" lon="12.038575093728328"><ele>481.0</ele><time>2026-05-03T04:51:54Z</time></trkpt><trkpt lat="46.00038179648262" lon="12.038648021821023"><ele>481.0</ele><time>2026-05-03T04:51:56Z</time></trkpt><trkpt lat="46.00028481980643" lon="12.038696563030335"><ele>481.0</ele><time>2026-05-03T04:51:57.999Z</time></trkpt><trkpt lat="46.000186250788516" lon="12.038740618983347"><ele>481.0</ele><time>2026-05-03T04:51:59.999Z</time></trkpt><trkpt lat="46.000077962212785" lon="12.03878875670345"><ele>481.0</ele><time>2026-05-03T04:52:01.999Z</time></trkpt><trkpt lat="45.99997450646962" lon="12.038882578307636"><ele>481.0</ele><time>2026-05-03T04:52:03.999Z</time></trkpt><trkpt lat="45.999897441266846" lon="12.038950463283447"><ele>481.00000000000006</ele><time>2026-05-03T04:52:05.999Z</time></trkpt><trkpt lat="45.999847267109296" lon="12.039006384847772"><ele>481.0</ele><time>2026-05-03T04:52:08.999Z</time></trkpt><trkpt lat="45.99977777140041" lon="12.038968893501053"><ele>481.0</ele><time>2026-05-03T04:52:10.999Z</time></trkpt><trkpt lat="45.999751087033" lon="12.03885128266159"><ele>481.0</ele><time>2026-05-03T04:52:12.999Z</time></trkpt><trkpt lat="45.99975491702149" lon="12.038733934273042"><ele>481.00000000000006</ele><time>2026-05-03T04:52:14.999Z</time></trkpt><trkpt lat="45.99974622204487" lon="12.038619942157759"><ele>481.0</ele><time>2026-05-03T04:52:16.999Z</time></trkpt><trkpt lat="45.99973658995474" lon="12.038526905751"><ele>481.00000000000006</ele><time>2026-05-03T04:52:18.999Z</time></trkpt><trkpt lat="45.999688048844" lon="12.038445755305515"><ele>481.0</ele><time>2026-05-03T04:52:21Z</time></trkpt><trkpt lat="45.99961016989128" lon="12.038434576429433"><ele>481.0</ele><time>2026-05-03T04:52:23Z</time></trkpt><trkpt lat="45.99950340533436" lon="12.038417802684538"><ele>481.0</ele><time>2026-05-03T04:52:25Z</time></trkpt><trkpt lat="45.99940675472018" lon="12.038447613497176"><ele>481.00000000000006</ele><time>2026-05-03T04:52:27Z</time></trkpt><trkpt lat="45.99933101125392" lon="12.038465192499663"><ele>481.0</ele><time>2026-05-03T04:52:29Z</time></trkpt><trkpt lat="45.99923464300414" lon="12.038491827895076"><ele>482.1666666666667</ele><time>2026-05-03T04:52:31Z</time></trkpt><trkpt lat="45.99915296112508" lon="12.038460725198394"><ele>483.33333333333337</ele><time>2026-05-03T04:52:33Z</time></trkpt><trkpt lat="45.99906176076402" lon="12.038387617344794"><ele>484.5</ele><time>2026-05-03T04:52:35Z</time></trkpt><trkpt lat="45.998958476415766" lon="12.03836263383615"><ele>485.66666666666663</ele><time>2026-05-03T04:52:37Z</time></trkpt><trkpt lat="45.99889088888107" lon="12.038387198512451"><ele>486.8333333333333</ele><time>2026-05-03T04:52:38Z</time></trkpt><trkpt lat="45.99882958165141" lon="12.038426585745787"><ele>488.0</ele><time>2026-05-03T04:52:39Z</time></trkpt><trkpt lat="45.998738514051034" lon="12.038494908127221"><ele>488.0</ele><time>2026-05-03T04:52:41Z</time></trkpt><trkpt lat="45.99865332976748" lon="12.038558199290613"><ele>487.99999999999994</ele><time>2026-05-03T04:52:43Z</time></trkpt><trkpt lat="45.998564547301015" lon="12.038616773475955"><ele>487.99999999999994</ele><time>2026-05-03T04:52:45Z</time></trkpt><trkpt lat="45.99849727062655" lon="12.03866059915864"><ele>488.0</ele><time>2026-05-03T04:52:46Z</time></trkpt><trkpt lat="45.998388637474484" lon="12.038741132138908"><ele>488.0</ele><time>2026-05-03T04:52:48Z</time></trkpt><trkpt lat="45.99827913478729" lon="12.038827473405396"><ele>487.66666666666663</ele><time>2026-05-03T04:52:50Z</time></trkpt><trkpt lat="45.99818525661618" lon="12.03888272449894"><ele>487.3333333333333</ele><time>2026-05-03T04:52:52Z</time></trkpt><trkpt lat="45.99809360503419" lon="12.0389057517476"><ele>487.0</ele><time>2026-05-03T04:52:54Z</time></trkpt><trkpt lat="45.99799475997833" lon="12.038914608554155"><ele>486.66666666666663</ele><time>2026-05-03T04:52:56Z</time></trkpt><trkpt lat="45.99793002424031" lon="12.03891203251816"><ele>486.3333333333333</ele><time>2026-05-03T04:52:57Z</time></trkpt><trkpt lat="45.99784900908915" lon="12.038892151144717"><ele>486.0</ele><time>2026-05-03T04:53:00Z</time></trkpt><trkpt lat="45.99777634960367" lon="12.038879609156236"><ele>486.0</ele><time>2026-05-03T04:53:02Z</time></trkpt><trkpt lat="45.99769375717743" lon="12.03886459125252"><ele>486.0</ele><time>2026-05-03T04:53:04Z</time></trkpt><trkpt lat="45.99756144515487" lon="12.038866999497856"><ele>486.0</ele><time>2026-05-03T04:53:06Z</time></trkpt><trkpt lat="45.99744812770956" lon="12.038942003474453"><ele>486.0</ele><time>2026-05-03T04:53:08Z</time></trkpt><trkpt lat="45.997395804901075" lon="12.038997899793827"><ele>486.0</ele><time>2026-05-03T04:53:09Z</time></trkpt><trkpt lat="45.99731339103203" lon="12.03910829404113"><ele>490.25</ele><time>2026-05-03T04:53:11Z</time></trkpt><trkpt lat="45.99721785940934" lon="12.039183003048016"><ele>494.5</ele><time>2026-05-03T04:53:13Z</time></trkpt><trkpt lat="45.99710891532416" lon="12.039266136436012"><ele>498.75</ele><time>2026-05-03T04:53:15Z</time></trkpt><trkpt lat="45.99699052995695" lon="12.039294065009848"><ele>503.0</ele><time>2026-05-03T04:53:17Z</time></trkpt><trkpt lat="45.996875528785665" lon="12.039350199702996"><ele>502.99999999999994</ele><time>2026-05-03T04:53:19Z</time></trkpt><trkpt lat="45.99682538731324" lon="12.03943657193501"><ele>503.0</ele><time>2026-05-03T04:53:21Z</time></trkpt><trkpt lat="45.996785536532705" lon="12.03951608560891"><ele>503.0</ele><time>2026-05-03T04:53:23Z</time></trkpt><trkpt lat="45.996704786954055" lon="12.039637469053963"><ele>503.0</ele><time>2026-05-03T04:53:25Z</time></trkpt><trkpt lat="45.996668771576985" lon="12.039726850737049"><ele>502.99999999999994</ele><time>2026-05-03T04:53:27Z</time></trkpt><trkpt lat="45.99662152931484" lon="12.039792526630983"><ele>503.0</ele><time>2026-05-03T04:53:28Z</time></trkpt><trkpt lat="45.99655873470719" lon="12.039874295592313"><ele>504.59999999999997</ele><time>2026-05-03T04:53:29Z</time></trkpt><trkpt lat="45.99649367892968" lon="12.040030062531661"><ele>506.19999999999993</ele><time>2026-05-03T04:53:31Z</time></trkpt><trkpt lat="45.996420754255205" lon="12.040140704916968"><ele>507.8</ele><time>2026-05-03T04:53:33Z</time></trkpt><trkpt lat="45.99632592292461" lon="12.040189999846788"><ele>509.4</ele><time>2026-05-03T04:53:35Z</time></trkpt><trkpt lat="45.996230700554776" lon="12.040177524118526"><ele>511.0</ele><time>2026-05-03T04:53:37Z</time></trkpt><trkpt lat="45.99610134273202" lon="12.040192001578207"><ele>511.00000000000006</ele><time>2026-05-03T04:53:39Z</time></trkpt><trkpt lat="45.99600021307128" lon="12.040256101383267"><ele>511.0</ele><time>2026-05-03T04:53:41Z</time></trkpt><trkpt lat="45.99593613086613" lon="12.04034055945285"><ele>511.0</ele><time>2026-05-03T04:53:43Z</time></trkpt><trkpt lat="45.99587860992535" lon="12.040387851449728"><ele>511.0</ele><time>2026-05-03T04:53:46Z</time></trkpt><trkpt lat="45.99581240985261" lon="12.040333782279674"><ele>511.00000000000006</ele><time>2026-05-03T04:56:13Z</time></trkpt><trkpt lat="45.99582439349747" lon="12.04022475999068"><ele>511.0</ele><time>2026-05-03T04:56:15Z</time></trkpt><trkpt lat="45.99588500702267" lon="12.040131277343123"><ele>511.0</ele><time>2026-05-03T04:56:17Z</time></trkpt><trkpt lat="45.995921101008385" lon="12.040030352887793"><ele>511.0</ele><time>2026-05-03T04:56:18.999Z</time></trkpt><trkpt lat="45.99597288805002" lon="12.039864405053375"><ele>511.0</ele><time>2026-05-03T04:56:20.999Z</time></trkpt><trkpt lat="45.996006454213415" lon="12.039734430386684"><ele>511.0</ele><time>2026-05-03T04:56:22.999Z</time></trkpt><trkpt lat="45.99607204544648" lon="12.039615065381827"><ele>511.0</ele><time>2026-05-03T04:56:24.999Z</time></trkpt><trkpt lat="45.99614384234012" lon="12.03950358010311"><ele>509.6</ele><time>2026-05-03T04:56:26.999Z</time></trkpt><trkpt lat="45.9961398071662" lon="12.039406496083343"><ele>508.20000000000005</ele><time>2026-05-03T04:56:27.999Z</time></trkpt><trkpt lat="45.996194176468414" lon="12.03927646664761"><ele>506.79999999999995</ele><time>2026-05-03T04:56:29.999Z</time></trkpt><trkpt lat="45.99626401559983" lon="12.039175767356626"><ele>505.4</ele><time>2026-05-03T04:56:32Z</time></trkpt><trkpt lat="45.996317248214446" lon="12.03906097558087"><ele>504.0</ele><time>2026-05-03T04:56:34Z</time></trkpt><trkpt lat="45.996330555725415" lon="12.03891517360389"><ele>508.79999999999995</ele><time>2026-05-03T04:56:36Z</time></trkpt><trkpt lat="45.996352600109184" lon="12.038742765376478"><ele>513.5999999999999</ele><time>2026-05-03T04:56:38Z</time></trkpt><trkpt lat="45.99642434525656" lon="12.038670834809961"><ele>518.4</ele><time>2026-05-03T04:56:40Z</time></trkpt><trkpt lat="45.99648694146765" lon="12.03861522720568"><ele>523.1999999999999</ele><time>2026-05-03T04:56:41Z</time></trkpt><trkpt lat="45.99652596410378" lon="12.038513502834329"><ele>528.0</ele><time>2026-05-03T04:56:43Z</time></trkpt><trkpt lat="45.996510143720144" lon="12.038369789119859"><ele>532.8</ele><time>2026-05-03T04:56:45Z</time></trkpt><trkpt lat="45.996470576640924" lon="12.038286659417567"><ele>537.5999999999999</ele><time>2026-05-03T04:56:46Z</time></trkpt><trkpt lat="45.9964487070962" lon="12.038140273429095"><ele>542.4000000000001</ele><time>2026-05-03T04:56:48Z</time></trkpt><trkpt lat="45.996489002760086" lon="12.03801542142584"><ele>547.2</ele><time>2026-05-03T04:56:50Z</time></trkpt><trkpt lat="45.99655113793149" lon="12.037956927280295"><ele>552.0</ele><time>2026-05-03T04:56:52Z</time></trkpt><trkpt lat="45.9966581457617" lon="12.037958028655408"><ele>552.4</ele><time>2026-05-03T04:56:54Z</time></trkpt><trkpt lat="45.99675990613169" lon="12.037934490688034"><ele>552.8000000000001</ele><time>2026-05-03T04:56:56Z</time></trkpt><trkpt lat="45.99678077250631" lon="12.03780395572947"><ele>553.2</ele><time>2026-05-03T04:56:58Z</time></trkpt><trkpt lat="45.99674176895266" lon="12.037662394442412"><ele>553.6</ele><time>2026-05-03T04:57:00Z</time></trkpt><trkpt lat="45.996687428776234" lon="12.037548077060192"><ele>554.0</ele><time>2026-05-03T04:57:02Z</time></trkpt><trkpt lat="45.996640436348116" lon="12.037428708601531"><ele>554.0</ele><time>2026-05-03T04:57:04Z</time></trkpt><trkpt lat="45.99658468994994" lon="12.037284624138625"><ele>554.0</ele><time>2026-05-03T04:57:06Z</time></trkpt><trkpt lat="45.996558356732024" lon="12.03713995067606"><ele>554.0</ele><time>2026-05-03T04:57:08Z</time></trkpt><trkpt lat="45.99654812618369" lon="12.036994863916206"><ele>554.0</ele><time>2026-05-03T04:57:10Z</time></trkpt><trkpt lat="45.99652295425829" lon="12.036857130210283"><ele>554.0</ele><time>2026-05-03T04:57:12Z</time></trkpt><trkpt lat="45.996458514504965" lon="12.036737439816042"><ele>552.0</ele><time>2026-05-03T04:57:14Z</time></trkpt><trkpt lat="45.996390239300425" lon="12.036607684192528"><ele>550.0</ele><time>2026-05-03T04:57:16Z</time></trkpt><trkpt lat="45.99633170070356" lon="12.036455665634186"><ele>548.0</ele><time>2026-05-03T04:57:18Z</time></trkpt><trkpt lat="45.99628370106711" lon="12.036304133506597"><ele>546.0</ele><time>2026-05-03T04:57:20Z</time></trkpt><trkpt lat="45.99626166543997" lon="12.03621488664812"><ele>544.0</ele><time>2026-05-03T04:57:21Z</time></trkpt><trkpt lat="45.99624183551205" lon="12.036098617148358"><ele>544.0</ele><time>2026-05-03T04:57:22Z</time></trkpt><trkpt lat="45.99622339970158" lon="12.036011473278737"><ele>544.0</ele><time>2026-05-03T04:57:23Z</time></trkpt><trkpt lat="45.99619310899398" lon="12.035923263144474"><ele>544.0</ele><time>2026-05-03T04:57:24Z</time></trkpt><trkpt lat="45.99614298711363" lon="12.035757048917542"><ele>544.0</ele><time>2026-05-03T04:57:26Z</time></trkpt><trkpt lat="45.996120674335955" lon="12.035656897268781"><ele>544.0</ele><time>2026-05-03T04:57:27Z</time></trkpt><trkpt lat="45.99611065150297" lon="12.035501232020659"><ele>544.0</ele><time>2026-05-03T04:57:29Z</time></trkpt><trkpt lat="45.996138196128754" lon="12.035350938617102"><ele>543.4</ele><time>2026-05-03T04:57:31Z</time></trkpt><trkpt lat="45.99613264334881" lon="12.035227654607574"><ele>542.8</ele><time>2026-05-03T04:57:33Z</time></trkpt><trkpt lat="45.996074023244056" lon="12.035123886872226"><ele>542.2</ele><time>2026-05-03T04:57:35Z</time></trkpt><trkpt lat="45.995973115724546" lon="12.035053420024004"><ele>541.6</ele><time>2026-05-03T04:57:37Z</time></trkpt><trkpt lat="45.995882898827986" lon="12.03495575593366"><ele>541.0</ele><time>2026-05-03T04:57:39Z</time></trkpt><trkpt lat="45.99583067249748" lon="12.034895468934446"><ele>541.0</ele><time>2026-05-03T04:57:40Z</time></trkpt><trkpt lat="45.99574155549823" lon="12.03477786594112"><ele>541.0</ele><time>2026-05-03T04:57:42Z</time></trkpt><trkpt lat="45.995652300611155" lon="12.03468139517234"><ele>541.0</ele><time>2026-05-03T04:57:44Z</time></trkpt><trkpt lat="45.99556376107548" lon="12.034600683687838"><ele>541.0</ele><time>2026-05-03T04:57:46Z</time></trkpt><trkpt lat="45.99546800273906" lon="12.034560817512048"><ele>541.0</ele><time>2026-05-03T04:57:48Z</time></trkpt><trkpt lat="45.99537526083505" lon="12.034583490160104"><ele>541.0</ele><time>2026-05-03T04:57:50Z</time></trkpt><trkpt lat="45.99527391800483" lon="12.034594452942272"><ele>541.0</ele><time>2026-05-03T04:57:52Z</time></trkpt><trkpt lat="45.99517750619337" lon="12.03452885253237"><ele>541.0</ele><time>2026-05-03T04:57:54Z</time></trkpt><trkpt lat="45.99507340831743" lon="12.034451295126477"><ele>541.0</ele><time>2026-05-03T04:57:56Z</time></trkpt><trkpt lat="45.99496474142247" lon="12.034403927327629"><ele>541.0</ele><time>2026-05-03T04:57:58Z</time></trkpt><trkpt lat="45.9949096268093" lon="12.034357095361294"><ele>541.0</ele><time>2026-05-03T04:57:59Z</time></trkpt><trkpt lat="45.994816900559016" lon="12.034265763183576"><ele>541.0</ele><time>2026-05-03T04:58:01Z</time></trkpt><trkpt lat="45.994727140111166" lon="12.034169678512665"><ele>541.0</ele><time>2026-05-03T04:58:03Z</time></trkpt><trkpt lat="45.99464286265459" lon="12.034080718674623"><ele>541.0</ele><time>2026-05-03T04:58:05Z</time></trkpt><trkpt lat="45.99457178087584" lon="12.033971570766997"><ele>541.0</ele><time>2026-05-03T04:58:07Z</time></trkpt><trkpt lat="45.99452614987413" lon="12.033831334435918"><ele>541.0</ele><time>2026-05-03T04:58:09Z</time></trkpt><trkpt lat="45.994494898556454" lon="12.033675684365695"><ele>541.0</ele><time>2026-05-03T04:58:11Z</time></trkpt><trkpt lat="45.994466166687964" lon="12.033544593298185"><ele>541.0</ele><time>2026-05-03T04:58:13Z</time></trkpt><trkpt lat="45.99444399536079" lon="12.033438929282397"><ele>541.0</ele><time>2026-05-03T04:58:15Z</time></trkpt><trkpt lat="45.994413407676134" lon="12.033289229767245"><ele>541.0</ele><time>2026-05-03T04:58:17Z</time></trkpt><trkpt lat="45.99437219442336" lon="12.033202768990789"><ele>535.5</ele><time>2026-05-03T04:58:19Z</time></trkpt><trkpt lat="45.9943186865137" lon="12.03310133933825"><ele>530.0</ele><time>2026-05-03T04:58:20.999Z</time></trkpt><trkpt lat="45.99425682296829" lon="12.033020933439136"><ele>524.5</ele><time>2026-05-03T04:58:22.999Z</time></trkpt><trkpt lat="45.99417895779211" lon="12.032968047887174"><ele>519.0</ele><time>2026-05-03T04:58:24.999Z</time></trkpt><trkpt lat="45.99407902510315" lon="12.032936272862662"><ele>513.5</ele><time>2026-05-03T04:58:26.999Z</time></trkpt><trkpt lat="45.993997519293764" lon="12.032964728193807"><ele>508.0</ele><time>2026-05-03T04:58:28.999Z</time></trkpt><trkpt lat="45.993900479145985" lon="12.032971393382324"><ele>518.2857142857143</ele><time>2026-05-03T04:58:30.999Z</time></trkpt><trkpt lat="45.99383344586597" lon="12.032960159444325"><ele>528.5714285714286</ele><time>2026-05-03T04:58:31.999Z</time></trkpt><trkpt lat="45.99377001091559" lon="12.032947129224445"><ele>538.8571428571429</ele><time>2026-05-03T04:58:32.999Z</time></trkpt><trkpt lat="45.99370577406075" lon="12.032937146906418"><ele>549.1428571428571</ele><time>2026-05-03T04:58:33.999Z</time></trkpt><trkpt lat="45.99362529507792" lon="12.032930205953958"><ele>559.4285714285714</ele><time>2026-05-03T04:58:34.999Z</time></trkpt><trkpt lat="45.9935602564316" lon="12.032929448098024"><ele>569.7142857142858</ele><time>2026-05-03T04:58:35.999Z</time></trkpt><trkpt lat="45.9934980466643" lon="12.032913626776011"><ele>580.0</ele><time>2026-05-03T04:58:36.999Z</time></trkpt><trkpt lat="45.99343480320496" lon="12.032908057856465"><ele>584.1666666666667</ele><time>2026-05-03T04:58:38Z</time></trkpt><trkpt lat="45.99332996307302" lon="12.032890181356162"><ele>588.3333333333334</ele><time>2026-05-03T04:58:40Z</time></trkpt><trkpt lat="45.99324625370961" lon="12.032894251113518"><ele>592.5</ele><time>2026-05-03T04:58:42Z</time></trkpt><trkpt lat="45.99316295046526" lon="12.032908602241335"><ele>596.6666666666666</ele><time>2026-05-03T04:58:44Z</time></trkpt><trkpt lat="45.99310004708654" lon="12.032918020388005"><ele>600.8333333333333</ele><time>2026-05-03T04:58:46Z</time></trkpt><trkpt lat="45.99303583613752" lon="12.03290751727716"><ele>605.0</ele><time>2026-05-03T04:58:48Z</time></trkpt><trkpt lat="45.9929564386646" lon="12.032887750444752"><ele>605.0</ele><time>2026-05-03T04:58:50Z</time></trkpt><trkpt lat="45.99285670296664" lon="12.032863499079848"><ele>605.0</ele><time>2026-05-03T04:58:52Z</time></trkpt><trkpt lat="45.99274231183593" lon="12.032819091997473"><ele>605.0</ele><time>2026-05-03T04:58:54Z</time></trkpt><trkpt lat="45.99262777311794" lon="12.032815322141559"><ele>605.0</ele><time>2026-05-03T04:58:56Z</time></trkpt><trkpt lat="45.99251375762044" lon="12.03282200865555"><ele>605.0</ele><time>2026-05-03T04:58:58Z</time></trkpt><trkpt lat="45.992409182246064" lon="12.032817380156377"><ele>607.0</ele><time>2026-05-03T04:59:00Z</time></trkpt><trkpt lat="45.99229719546291" lon="12.032832361997293"><ele>609.0</ele><time>2026-05-03T04:59:02Z</time></trkpt><trkpt lat="45.99218626338086" lon="12.032827939346474"><ele>611.0</ele><time>2026-05-03T04:59:04Z</time></trkpt><trkpt lat="45.992057641047374" lon="12.032812565968177"><ele>613.0</ele><time>2026-05-03T04:59:06Z</time></trkpt><trkpt lat="45.9919403853501" lon="12.032791077083417"><ele>613.0</ele><time>2026-05-03T04:59:08Z</time></trkpt><trkpt lat="45.99183108484329" lon="12.032773888647204"><ele>613.0</ele><time>2026-05-03T04:59:10Z</time></trkpt><trkpt lat="45.99176907611936" lon="12.032755171436978"><ele>613.0</ele><time>2026-05-03T04:59:11Z</time></trkpt><trkpt lat="45.991666393328416" lon="12.03274234325178"><ele>613.0</ele><time>2026-05-03T04:59:13Z</time></trkpt><trkpt lat="45.99159639225828" lon="12.032732704752107"><ele>613.0</ele><time>2026-05-03T04:59:14Z</time></trkpt><trkpt lat="45.99152454367932" lon="12.03274933873489"><ele>613.0</ele><time>2026-05-03T04:59:15Z</time></trkpt><trkpt lat="45.99141004665731" lon="12.032762606744658"><ele>613.8</ele><time>2026-05-03T04:59:17Z</time></trkpt><trkpt lat="45.99133357825021" lon="12.032770084110659"><ele>614.5999999999999</ele><time>2026-05-03T04:59:19Z</time></trkpt><trkpt lat="45.99124878341019" lon="12.032783999057974"><ele>615.4000000000001</ele><time>2026-05-03T04:59:21Z</time></trkpt><trkpt lat="45.991127386723285" lon="12.03270051818633"><ele>616.2</ele><time>2026-05-03T04:59:23Z</time></trkpt><trkpt lat="45.991059403013395" lon="12.032685174037391"><ele>617.0</ele><time>2026-05-03T04:59:24Z</time></trkpt><trkpt lat="45.990937802345364" lon="12.032679945397476"><ele>618.8000000000001</ele><time>2026-05-03T04:59:26Z</time></trkpt><trkpt lat="45.99081692090051" lon="12.032709089547629"><ele>620.6</ele><time>2026-05-03T04:59:28Z</time></trkpt><trkpt lat="45.990699977829436" lon="12.032728934885586"><ele>622.4000000000001</ele><time>2026-05-03T04:59:30Z</time></trkpt><trkpt lat="45.99062015216551" lon="12.032734409996703"><ele>624.2</ele><time>2026-05-03T04:59:31Z</time></trkpt><trkpt lat="45.99049797810671" lon="12.032745211285638"><ele>626.0</ele><time>2026-05-03T04:59:33Z</time></trkpt><trkpt lat="45.9904330345471" lon="12.03274853512966"><ele>626.0</ele><time>2026-05-03T04:59:34Z</time></trkpt><trkpt lat="45.990363733576" lon="12.032749559748018"><ele>626.0</ele><time>2026-05-03T04:59:35Z</time></trkpt><trkpt lat="45.99025142585782" lon="12.032789764291982"><ele>626.0</ele><time>2026-05-03T04:59:37Z</time></trkpt><trkpt lat="45.99019879556607" lon="12.032727686445899"><ele>626.0</ele><time>2026-05-03T04:59:38Z</time></trkpt><trkpt lat="45.99009449624773" lon="12.032747139807732"><ele>626.0</ele><time>2026-05-03T04:59:40Z</time></trkpt><trkpt lat="45.9900297209817" lon="12.032804674816624"><ele>626.0</ele><time>2026-05-03T04:59:42Z</time></trkpt><trkpt lat="45.98989788044745" lon="12.032755442762692"><ele>627.6</ele><time>2026-05-03T04:59:44Z</time></trkpt><trkpt lat="45.98977411139264" lon="12.032729362783588"><ele>629.2</ele><time>2026-05-03T04:59:46Z</time></trkpt><trkpt lat="45.98970234805767" lon="12.032689889748736"><ele>630.8</ele><time>2026-05-03T04:59:47Z</time></trkpt><trkpt lat="45.98963850926939" lon="12.032666368914283"><ele>632.4</ele><time>2026-05-03T04:59:48Z</time></trkpt><trkpt lat="45.989537080437046" lon="12.0326483798361"><ele>634.0</ele><time>2026-05-03T04:59:50Z</time></trkpt><trkpt lat="45.9894569939547" lon="12.032573341605751"><ele>634.0</ele><time>2026-05-03T04:59:52Z</time></trkpt><trkpt lat="45.989362627514424" lon="12.032501141029032"><ele>634.0</ele><time>2026-05-03T04:59:54Z</time></trkpt><trkpt lat="45.98926403097775" lon="12.032361482676551"><ele>634.0</ele><time>2026-05-03T04:59:56Z</time></trkpt><trkpt lat="45.98920734931805" lon="12.032315553016607"><ele>634.0</ele><time>2026-05-03T04:59:57Z</time></trkpt><trkpt lat="45.98908461637328" lon="12.032259497376101"><ele>634.0</ele><time>2026-05-03T04:59:59Z</time></trkpt><trkpt lat="45.989031423014154" lon="12.03220400082439"><ele>631.25</ele><time>2026-05-03T05:00:00Z</time></trkpt><trkpt lat="45.98895078295378" lon="12.03214865682527"><ele>628.5</ele><time>2026-05-03T05:00:02Z</time></trkpt><trkpt lat="45.98884445681815" lon="12.032092707863752"><ele>625.75</ele><time>2026-05-03T05:00:04Z</time></trkpt><trkpt lat="45.988703576762745" lon="12.032112162785362"><ele>623.0</ele><time>2026-05-03T05:00:06Z</time></trkpt><trkpt lat="45.988593972755965" lon="12.032138821399869"><ele>623.0</ele><time>2026-05-03T05:00:08Z</time></trkpt><trkpt lat="45.98845653549132" lon="12.032147760155915"><ele>623.0</ele><time>2026-05-03T05:00:10Z</time></trkpt><trkpt lat="45.988353997596676" lon="12.032098492888988"><ele>623.0</ele><time>2026-05-03T05:00:12Z</time></trkpt><trkpt lat="45.988275845457395" lon="12.032061329155601"><ele>623.0</ele><time>2026-05-03T05:00:13Z</time></trkpt><trkpt lat="45.98820740337667" lon="12.032031821450806"><ele>623.0</ele><time>2026-05-03T05:00:14Z</time></trkpt><trkpt lat="45.98814277866023" lon="12.03198299271983"><ele>624.0</ele><time>2026-05-03T05:00:15Z</time></trkpt><trkpt lat="45.9880878501968" lon="12.031937568202991"><ele>625.0</ele><time>2026-05-03T05:00:16Z</time></trkpt><trkpt lat="45.98802898887495" lon="12.031900319706006"><ele>626.0</ele><time>2026-05-03T05:00:17Z</time></trkpt><trkpt lat="45.98790970358641" lon="12.031803688718222"><ele>627.0</ele><time>2026-05-03T05:00:19Z</time></trkpt><trkpt lat="45.98786175233611" lon="12.031733704923202"><ele>628.0</ele><time>2026-05-03T05:00:20Z</time></trkpt><trkpt lat="45.9877703161314" lon="12.031665725636508"><ele>629.0</ele><time>2026-05-03T05:00:22Z</time></trkpt><trkpt lat="45.98766843500495" lon="12.03162996827982"><ele>630.0</ele><time>2026-05-03T05:00:24Z</time></trkpt><trkpt lat="45.98760368974431" lon="12.031619452226574"><ele>631.0</ele><time>2026-05-03T05:00:25Z</time></trkpt><trkpt lat="45.987486252644665" lon="12.031625557009813"><ele>632.0</ele><time>2026-05-03T05:00:27Z</time></trkpt><trkpt lat="45.987420812658996" lon="12.03164277927524"><ele>633.0</ele><time>2026-05-03T05:00:28Z</time></trkpt><trkpt lat="45.98734813555514" lon="12.03165408079887"><ele>634.0</ele><time>2026-05-03T05:00:29Z</time></trkpt><trkpt lat="45.9872824026563" lon="12.031678853941939"><ele>635.0</ele><time>2026-05-03T05:00:30Z</time></trkpt><trkpt lat="45.98720750708532" lon="12.031717715422367"><ele>635.0</ele><time>2026-05-03T05:00:31Z</time></trkpt><trkpt lat="45.98712963373576" lon="12.031758020060181"><ele>635.0</ele><time>2026-05-03T05:00:32Z</time></trkpt><trkpt lat="45.98705260997933" lon="12.031796843320535"><ele>635.0</ele><time>2026-05-03T05:00:33Z</time></trkpt><trkpt lat="45.98697189421263" lon="12.031832596091801"><ele>635.0</ele><time>2026-05-03T05:00:33.999Z</time></trkpt><trkpt lat="45.986867127967926" lon="12.031823976143587"><ele>635.0</ele><time>2026-05-03T05:00:34.999Z</time></trkpt><trkpt lat="45.986764820811906" lon="12.031826298003294"><ele>635.0</ele><time>2026-05-03T05:00:35.999Z</time></trkpt><trkpt lat="45.986685340614216" lon="12.031842311116081"><ele>635.0</ele><time>2026-05-03T05:00:36.999Z</time></trkpt><trkpt lat="45.986606701490416" lon="12.03184174092471"><ele>635.0</ele><time>2026-05-03T05:00:37.999Z</time></trkpt><trkpt lat="45.98652894986575" lon="12.031841850551256"><ele>635.0</ele><time>2026-05-03T05:00:38.999Z</time></trkpt><trkpt lat="45.986452597470894" lon="12.031851910434387"><ele>635.0</ele><time>2026-05-03T05:00:39.999Z</time></trkpt><trkpt lat="45.98636669152758" lon="12.031883749990927"><ele>635.0</ele><time>2026-05-03T05:00:40.999Z</time></trkpt><trkpt lat="45.986286226227776" lon="12.031900336322186"><ele>634.8333333333333</ele><time>2026-05-03T05:00:41.999Z</time></trkpt><trkpt lat="45.98621252505604" lon="12.03189975313603"><ele>634.6666666666666</ele><time>2026-05-03T05:00:42.999Z</time></trkpt><trkpt lat="45.986137043881655" lon="12.031894073565459"><ele>634.5</ele><time>2026-05-03T05:00:44Z</time></trkpt><trkpt lat="45.98605272340958" lon="12.031899337077649"><ele>634.3333333333334</ele><time>2026-05-03T05:00:45Z</time></trkpt><trkpt lat="45.98597725356357" lon="12.031907642609898"><ele>634.1666666666667</ele><time>2026-05-03T05:00:46Z</time></trkpt><trkpt lat="45.98584801339113" lon="12.03192928732422"><ele>634.0</ele><time>2026-05-03T05:00:48Z</time></trkpt><trkpt lat="45.985767298032165" lon="12.031931221890712"><ele>633.3333333333334</ele><time>2026-05-03T05:00:49Z</time></trkpt><trkpt lat="45.98570162129611" lon="12.031952076809302"><ele>632.6666666666667</ele><time>2026-05-03T05:00:50Z</time></trkpt><trkpt lat="45.98563332199169" lon="12.031970705541264"><ele>632.0</ele><time>2026-05-03T05:00:51Z</time></trkpt><trkpt lat="45.98555730160857" lon="12.031993263440878"><ele>631.3333333333334</ele><time>2026-05-03T05:00:52Z</time></trkpt><trkpt lat="45.98547860617133" lon="12.032014682220742"><ele>630.6666666666666</ele><time>2026-05-03T05:00:53Z</time></trkpt><trkpt lat="45.98539772523505" lon="12.032021071926312"><ele>630.0</ele><time>2026-05-03T05:00:54Z</time></trkpt><trkpt lat="45.98531918212087" lon="12.032034339208463"><ele>630.0</ele><time>2026-05-03T05:00:55Z</time></trkpt><trkpt lat="45.985255074310246" lon="12.032057729703666"><ele>630.0</ele><time>2026-05-03T05:00:56Z</time></trkpt><trkpt lat="45.98517804280627" lon="12.032046960003129"><ele>630.0</ele><time>2026-05-03T05:00:57Z</time></trkpt><trkpt lat="45.98506399461014" lon="12.032007897028533"><ele>630.0</ele><time>2026-05-03T05:00:59Z</time></trkpt><trkpt lat="45.984965516093375" lon="12.03196562335092"><ele>630.0</ele><time>2026-05-03T05:01:01Z</time></trkpt><trkpt lat="45.98485428845826" lon="12.031940828805235"><ele>631.0</ele><time>2026-05-03T05:01:03Z</time></trkpt><trkpt lat="45.98477954874643" lon="12.031966741819703"><ele>632.0</ele><time>2026-05-03T05:01:04Z</time></trkpt><trkpt lat="45.98471336109762" lon="12.031995436231744"><ele>633.0</ele><time>2026-05-03T05:01:05Z</time></trkpt><trkpt lat="45.98460603582293" lon="12.03203310919994"><ele>634.0</ele><time>2026-05-03T05:01:07Z</time></trkpt><trkpt lat="45.98453768650952" lon="12.032051212464422"><ele>635.0</ele><time>2026-05-03T05:01:08Z</time></trkpt><trkpt lat="45.98444923532126" lon="12.032111652663408"><ele>636.0</ele><time>2026-05-03T05:01:10Z</time></trkpt><trkpt lat="45.98436347749085" lon="12.032196701358265"><ele>636.0</ele><time>2026-05-03T05:01:12Z</time></trkpt><trkpt lat="45.98426719848855" lon="12.03225574052052"><ele>636.0</ele><time>2026-05-03T05:01:14Z</time></trkpt><trkpt lat="45.98416073404541" lon="12.032324497338626"><ele>636.0</ele><time>2026-05-03T05:01:16Z</time></trkpt><trkpt lat="45.98404572132246" lon="12.032407173477198"><ele>636.0</ele><time>2026-05-03T05:01:18Z</time></trkpt><trkpt lat="45.98394329518617" lon="12.032470828992139"><ele>639.0</ele><time>2026-05-03T05:01:20Z</time></trkpt><trkpt lat="45.98385687379827" lon="12.032543188723752"><ele>642.0</ele><time>2026-05-03T05:01:22Z</time></trkpt><trkpt lat="45.98374741270758" lon="12.032635222840504"><ele>645.0</ele><time>2026-05-03T05:01:24Z</time></trkpt><trkpt lat="45.98365403395984" lon="12.032712073738045"><ele>648.0</ele><time>2026-05-03T05:01:26Z</time></trkpt><trkpt lat="45.98359664611869" lon="12.032758289287347"><ele>651.0</ele><time>2026-05-03T05:01:27Z</time></trkpt><trkpt lat="45.983506724557124" lon="12.032883706364771"><ele>651.0</ele><time>2026-05-03T05:01:29Z</time></trkpt><trkpt lat="45.98344836686857" lon="12.032949582924811"><ele>651.0</ele><time>2026-05-03T05:01:30Z</time></trkpt><trkpt lat="45.98334054036494" lon="12.033010586704261"><ele>651.0</ele><time>2026-05-03T05:01:32Z</time></trkpt><trkpt lat="45.9832468494595" lon="12.033083967452255"><ele>651.0</ele><time>2026-05-03T05:01:34Z</time></trkpt><trkpt lat="45.983122283279414" lon="12.03315483883391"><ele>651.0</ele><time>2026-05-03T05:01:36Z</time></trkpt><trkpt lat="45.983058800492685" lon="12.03319752548814"><ele>651.25</ele><time>2026-05-03T05:01:37Z</time></trkpt><trkpt lat="45.982988373659396" lon="12.033229614932337"><ele>651.5</ele><time>2026-05-03T05:01:40Z</time></trkpt><trkpt lat="45.982898728644805" lon="12.033264321374444"><ele>651.75</ele><time>2026-05-03T05:01:41Z</time></trkpt><trkpt lat="45.982766702149405" lon="12.033288929727652"><ele>652.0</ele><time>2026-05-03T05:01:43Z</time></trkpt><trkpt lat="45.98262215300129" lon="12.033352197584989"><ele>652.0</ele><time>2026-05-03T05:01:45Z</time></trkpt><trkpt lat="45.982559954724636" lon="12.033399102684685"><ele>652.0</ele><time>2026-05-03T05:01:46Z</time></trkpt><trkpt lat="45.982494526796515" lon="12.033454116342353"><ele>652.0</ele><time>2026-05-03T05:01:47Z</time></trkpt><trkpt lat="45.9824169642688" lon="12.03350653339809"><ele>652.0</ele><time>2026-05-03T05:01:48Z</time></trkpt><trkpt lat="45.98231448857476" lon="12.033545782541417"><ele>652.0</ele><time>2026-05-03T05:01:49Z</time></trkpt><trkpt lat="45.98222531296312" lon="12.033588317943613"><ele>652.0</ele><time>2026-05-03T05:01:50Z</time></trkpt><trkpt lat="45.98213011953182" lon="12.033635016034372"><ele>652.1666666666667</ele><time>2026-05-03T05:01:51Z</time></trkpt><trkpt lat="45.98204836636295" lon="12.03368319827171"><ele>652.3333333333334</ele><time>2026-05-03T05:01:52Z</time></trkpt><trkpt lat="45.981988866114484" lon="12.033741007602428"><ele>652.5</ele><time>2026-05-03T05:01:53Z</time></trkpt><trkpt lat="45.981894478855345" lon="12.03378703683356"><ele>652.6666666666666</ele><time>2026-05-03T05:01:54Z</time></trkpt><trkpt lat="45.98182042242242" lon="12.03382350725078"><ele>652.8333333333333</ele><time>2026-05-03T05:01:55Z</time></trkpt><trkpt lat="45.981727751010055" lon="12.033879114390496"><ele>653.0</ele><time>2026-05-03T05:01:56Z</time></trkpt><trkpt lat="45.98165405582047" lon="12.033937642315564"><ele>653.0</ele><time>2026-05-03T05:01:57Z</time></trkpt><trkpt lat="45.98158459597246" lon="12.034021258506346"><ele>653.0</ele><time>2026-05-03T05:01:58Z</time></trkpt><trkpt lat="45.98151299618013" lon="12.034055954700476"><ele>653.0</ele><time>2026-05-03T05:01:59Z</time></trkpt><trkpt lat="45.98145008933224" lon="12.034108485723635"><ele>653.0</ele><time>2026-05-03T05:02:00Z</time></trkpt><trkpt lat="45.98138407357489" lon="12.03418684971699"><ele>653.0</ele><time>2026-05-03T05:02:01Z</time></trkpt><trkpt lat="45.98132569764254" lon="12.034252280584704"><ele>653.0</ele><time>2026-05-03T05:02:02Z</time></trkpt><trkpt lat="45.981200465931664" lon="12.034349399214308"><ele>652.5999999999999</ele><time>2026-05-03T05:02:04Z</time></trkpt><trkpt lat="45.98112184375234" lon="12.034444086679866"><ele>652.1999999999999</ele><time>2026-05-03T05:02:06Z</time></trkpt><trkpt lat="45.98106154349185" lon="12.034503605658323"><ele>651.8</ele><time>2026-05-03T05:02:07Z</time></trkpt><trkpt lat="45.981014252992004" lon="12.03460982266426"><ele>651.4</ele><time>2026-05-03T05:02:09Z</time></trkpt><trkpt lat="45.98095939292094" lon="12.034694849834601"><ele>651.0</ele><time>2026-05-03T05:02:10Z</time></trkpt><trkpt lat="45.98085908244124" lon="12.03479007368717"><ele>652.0</ele><time>2026-05-03T05:02:12Z</time></trkpt><trkpt lat="45.980773973602254" lon="12.034907940494103"><ele>653.0</ele><time>2026-05-03T05:02:14Z</time></trkpt><trkpt lat="45.980661301142625" lon="12.034998461488808"><ele>654.0</ele><time>2026-05-03T05:02:16Z</time></trkpt><trkpt lat="45.980557537717495" lon="12.035050104369926"><ele>655.0</ele><time>2026-05-03T05:02:18Z</time></trkpt><trkpt lat="45.980455191127504" lon="12.0351168121306"><ele>655.0</ele><time>2026-05-03T05:02:20Z</time></trkpt><trkpt lat="45.98034517362126" lon="12.035184319408941"><ele>655.0</ele><time>2026-05-03T05:02:22Z</time></trkpt><trkpt lat="45.98025259180388" lon="12.03527224295722"><ele>655.0</ele><time>2026-05-03T05:02:24Z</time></trkpt><trkpt lat="45.9801507683827" lon="12.03533767148477"><ele>655.0</ele><time>2026-05-03T05:02:26Z</time></trkpt><trkpt lat="45.98007232410397" lon="12.03537547537921"><ele>655.0</ele><time>2026-05-03T05:02:28Z</time></trkpt><trkpt lat="45.97999568233556" lon="12.035455859315457"><ele>659.0</ele><time>2026-05-03T05:02:29Z</time></trkpt><trkpt lat="45.97994358527423" lon="12.035514039216254"><ele>663.0</ele><time>2026-05-03T05:02:30Z</time></trkpt><trkpt lat="45.979866670423284" lon="12.035611806316389"><ele>667.0</ele><time>2026-05-03T05:02:32Z</time></trkpt><trkpt lat="45.97978463516155" lon="12.035739598928403"><ele>671.0</ele><time>2026-05-03T05:02:34Z</time></trkpt><trkpt lat="45.97971264732186" lon="12.03578897633834"><ele>675.0</ele><time>2026-05-03T05:02:35Z</time></trkpt><trkpt lat="45.97961971598357" lon="12.035889878645"><ele>675.2</ele><time>2026-05-03T05:02:37Z</time></trkpt><trkpt lat="45.97953212527307" lon="12.03599724638304"><ele>675.4</ele><time>2026-05-03T05:02:38.999Z</time></trkpt><trkpt lat="45.97945510920115" lon="12.036140291681884"><ele>675.5999999999999</ele><time>2026-05-03T05:02:40.999Z</time></trkpt><trkpt lat="45.979378491044194" lon="12.036257504123254"><ele>675.8</ele><time>2026-05-03T05:02:42.999Z</time></trkpt><trkpt lat="45.97936253063168" lon="12.03634965685819"><ele>676.0</ele><time>2026-05-03T05:02:44.999Z</time></trkpt><trkpt lat="45.97932487252492" lon="12.036441065836874"><ele>676.0</ele><time>2026-05-03T05:02:45.999Z</time></trkpt><trkpt lat="45.9792469965731" lon="12.0364735388004"><ele>676.0</ele><time>2026-05-03T05:02:46.999Z</time></trkpt><trkpt lat="45.979167255142876" lon="12.0365188219269"><ele>676.0</ele><time>2026-05-03T05:02:47.999Z</time></trkpt><trkpt lat="45.97910288877425" lon="12.036557689840327"><ele>676.0</ele><time>2026-05-03T05:02:48.999Z</time></trkpt><trkpt lat="45.979014093844455" lon="12.036605000996847"><ele>676.0</ele><time>2026-05-03T05:02:51Z</time></trkpt><trkpt lat="45.978954639428515" lon="12.036707175690738"><ele>676.0</ele><time>2026-05-03T05:02:52Z</time></trkpt><trkpt lat="45.97883407182233" lon="12.036738427700975"><ele>678.1999999999999</ele><time>2026-05-03T05:02:54Z</time></trkpt><trkpt lat="45.97873272162273" lon="12.036814857288014"><ele>680.4</ele><time>2026-05-03T05:02:56Z</time></trkpt><trkpt lat="45.978635906606485" lon="12.036906650172655"><ele>682.6</ele><time>2026-05-03T05:02:58Z</time></trkpt><trkpt lat="45.978564569124394" lon="12.037019366742795"><ele>684.8</ele><time>2026-05-03T05:03:00Z</time></trkpt><trkpt lat="45.97851506666903" lon="12.037139890774633"><ele>687.0</ele><time>2026-05-03T05:03:02Z</time></trkpt><trkpt lat="45.97847795329816" lon="12.037254701297643"><ele>687.0</ele><time>2026-05-03T05:03:04Z</time></trkpt><trkpt lat="45.97843659268173" lon="12.037338733015828"><ele>687.0</ele><time>2026-05-03T05:03:05Z</time></trkpt><trkpt lat="45.978391194092254" lon="12.03740447001194"><ele>687.0</ele><time>2026-05-03T05:03:06Z</time></trkpt><trkpt lat="45.97833222056109" lon="12.037452870275056"><ele>687.0</ele><time>2026-05-03T05:03:07Z</time></trkpt><trkpt lat="45.978281809681576" lon="12.037527368899196"><ele>687.0</ele><time>2026-05-03T05:03:08Z</time></trkpt><trkpt lat="45.97819520275759" lon="12.037610698237724"><ele>687.0</ele><time>2026-05-03T05:03:10Z</time></trkpt><trkpt lat="45.978096271674026" lon="12.037711928573405"><ele>689.3333333333334</ele><time>2026-05-03T05:03:12Z</time></trkpt><trkpt lat="45.978048142394094" lon="12.03777242215871"><ele>691.6666666666666</ele><time>2026-05-03T05:03:13Z</time></trkpt><trkpt lat="45.978000604964386" lon="12.03783585806463"><ele>694.0</ele><time>2026-05-03T05:03:14Z</time></trkpt><trkpt lat="45.97791871526995" lon="12.03793434961623"><ele>696.3333333333333</ele><time>2026-05-03T05:03:16Z</time></trkpt><trkpt lat="45.97786910301035" lon="12.037995508160053"><ele>698.6666666666666</ele><time>2026-05-03T05:03:17Z</time></trkpt><trkpt lat="45.9777976801528" lon="12.038103357969444"><ele>701.0</ele><time>2026-05-03T05:03:19Z</time></trkpt><trkpt lat="45.97772473634082" lon="12.038207945301089"><ele>701.0</ele><time>2026-05-03T05:03:21Z</time></trkpt><trkpt lat="45.977671286354564" lon="12.03829054660621"><ele>701.0</ele><time>2026-05-03T05:03:23Z</time></trkpt><trkpt lat="45.977592872919274" lon="12.038431380179828"><ele>701.0</ele><time>2026-05-03T05:03:25Z</time></trkpt><trkpt lat="45.977534191332616" lon="12.038534894165664"><ele>701.0</ele><time>2026-05-03T05:03:27Z</time></trkpt><trkpt lat="45.977458437199424" lon="12.03865417978504"><ele>701.0</ele><time>2026-05-03T05:03:29Z</time></trkpt><trkpt lat="45.97741566887137" lon="12.0387581115848"><ele>703.8333333333333</ele><time>2026-05-03T05:03:31Z</time></trkpt><trkpt lat="45.977366988318906" lon="12.038842520866053"><ele>706.6666666666666</ele><time>2026-05-03T05:03:33Z</time></trkpt><trkpt lat="45.97731330818414" lon="12.038950245356476"><ele>709.5</ele><time>2026-05-03T05:03:35Z</time></trkpt><trkpt lat="45.97726625929448" lon="12.039045527778239"><ele>712.3333333333334</ele><time>2026-05-03T05:03:37Z</time></trkpt><trkpt lat="45.97719043375923" lon="12.039150366523415"><ele>715.1666666666667</ele><time>2026-05-03T05:03:39Z</time></trkpt><trkpt lat="45.97712976396072" lon="12.039200917838329"><ele>718.0</ele><time>2026-05-03T05:03:40Z</time></trkpt><trkpt lat="45.977060358140434" lon="12.03923123044222"><ele>718.5999999999999</ele><time>2026-05-03T05:03:42Z</time></trkpt><trkpt lat="45.977011698095545" lon="12.039315156175698"><ele>719.1999999999999</ele><time>2026-05-03T05:03:43Z</time></trkpt><trkpt lat="45.97689937787645" lon="12.039400807816058"><ele>719.8</ele><time>2026-05-03T05:03:45Z</time></trkpt><trkpt lat="45.97678755240058" lon="12.039462579272048"><ele>720.4</ele><time>2026-05-03T05:03:47Z</time></trkpt><trkpt lat="45.976670090479004" lon="12.039513799211406"><ele>721.0</ele><time>2026-05-03T05:03:49Z</time></trkpt><trkpt lat="45.97656993932954" lon="12.039578608950634"><ele>722.0</ele><time>2026-05-03T05:03:51Z</time></trkpt><trkpt lat="45.97647997776989" lon="12.039615796389269"><ele>723.0</ele><time>2026-05-03T05:03:53Z</time></trkpt><trkpt lat="45.97638532017853" lon="12.03967611075153"><ele>724.0</ele><time>2026-05-03T05:03:55Z</time></trkpt><trkpt lat="45.97628063400114" lon="12.03979538197279"><ele>725.0</ele><time>2026-05-03T05:03:57Z</time></trkpt><trkpt lat="45.97620672348038" lon="12.039904160675418"><ele>726.0</ele><time>2026-05-03T05:03:59Z</time></trkpt><trkpt lat="45.97614023661094" lon="12.04000803298049"><ele>726.0</ele><time>2026-05-03T05:04:01Z</time></trkpt><trkpt lat="45.97609523532619" lon="12.040116064155313"><ele>726.0</ele><time>2026-05-03T05:04:02Z</time></trkpt><trkpt lat="45.9759949927191" lon="12.040152052440755"><ele>726.0</ele><time>2026-05-03T05:04:04Z</time></trkpt><trkpt lat="45.975930613073935" lon="12.040249757445686"><ele>726.0</ele><time>2026-05-03T05:04:08Z</time></trkpt><trkpt lat="45.97585182178487" lon="12.040289128210864"><ele>726.0</ele><time>2026-05-03T05:04:10Z</time></trkpt><trkpt lat="45.97578710239459" lon="12.040377166329304"><ele>728.8333333333334</ele><time>2026-05-03T05:04:11Z</time></trkpt><trkpt lat="45.97571427466488" lon="12.040464344966873"><ele>731.6666666666666</ele><time>2026-05-03T05:04:12Z</time></trkpt><trkpt lat="45.975654009132384" lon="12.04054486542856"><ele>734.5</ele><time>2026-05-03T05:04:13Z</time></trkpt><trkpt lat="45.97559470436826" lon="12.040593827324997"><ele>737.3333333333333</ele><time>2026-05-03T05:04:14Z</time></trkpt><trkpt lat="45.97555812078994" lon="12.040669213968105"><ele>740.1666666666666</ele><time>2026-05-03T05:04:15Z</time></trkpt><trkpt lat="45.97545157788571" lon="12.040752630375849"><ele>743.0</ele><time>2026-05-03T05:04:17Z</time></trkpt><trkpt lat="45.97542712660729" lon="12.040837029478164"><ele>743.25</ele><time>2026-05-03T05:04:20Z</time></trkpt><trkpt lat="45.97534089607071" lon="12.040905269123803"><ele>743.5</ele><time>2026-05-03T05:04:23Z</time></trkpt><trkpt lat="45.97526855810113" lon="12.04097884511697"><ele>743.75</ele><time>2026-05-03T05:04:26Z</time></trkpt><trkpt lat="45.97517440024685" lon="12.041025195664773"><ele>744.0</ele><time>2026-05-03T05:04:28Z</time></trkpt><trkpt lat="45.97497748499046" lon="12.041060477505301"><ele>746.8000000000001</ele><time>2026-05-03T05:04:29Z</time></trkpt><trkpt lat="45.97485743417525" lon="12.041111162888729"><ele>749.6</ele><time>2026-05-03T05:04:31Z</time></trkpt><trkpt lat="45.97476098443213" lon="12.041161304954928"><ele>752.4</ele><time>2026-05-03T05:04:32.999Z</time></trkpt><trkpt lat="45.974666365592114" lon="12.04123364706018"><ele>755.2</ele><time>2026-05-03T05:04:35.999Z</time></trkpt><trkpt lat="45.974601345897376" lon="12.04125672238748"><ele>758.0</ele><time>2026-05-03T05:04:37.999Z</time></trkpt><trkpt lat="45.974591898462876" lon="12.041348193140658"><ele>758.0</ele><time>2026-05-03T05:05:02Z</time></trkpt><trkpt lat="45.97465285404911" lon="12.041438839691065"><ele>758.0</ele><time>2026-05-03T05:05:09Z</time></trkpt><trkpt lat="45.97457322573255" lon="12.041472550521965"><ele>758.0</ele><time>2026-05-03T05:06:48.999Z</time></trkpt><trkpt lat="45.974554493969414" lon="12.041361495359112"><ele>758.0</ele><time>2026-05-03T05:07:21Z</time></trkpt><trkpt lat="45.974629849663586" lon="12.041424611103556"><ele>758.0</ele><time>2026-05-03T05:07:30Z</time></trkpt><trkpt lat="45.974679160657224" lon="12.041347040645274"><ele>758.0</ele><time>2026-05-03T05:07:32Z</time></trkpt><trkpt lat="45.974760280994005" lon="12.041297118779617"><ele>758.0</ele><time>2026-05-03T05:07:35Z</time></trkpt><trkpt lat="45.974834566030495" lon="12.041241870839016"><ele>758.0</ele><time>2026-05-03T05:07:37Z</time></trkpt><trkpt lat="45.974946740150074" lon="12.041179969170118"><ele>758.0</ele><time>2026-05-03T05:07:39Z</time></trkpt><trkpt lat="45.97504465778407" lon="12.041118167490135"><ele>758.0</ele><time>2026-05-03T05:07:41Z</time></trkpt><trkpt lat="45.97511319884958" lon="12.041078624081331"><ele>758.0</ele><time>2026-05-03T05:07:42Z</time></trkpt><trkpt lat="45.97520123132826" lon="12.041025957151206"><ele>754.5</ele><time>2026-05-03T05:07:44Z</time></trkpt><trkpt lat="45.975298364062716" lon="12.040932501107376"><ele>751.0</ele><time>2026-05-03T05:07:46Z</time></trkpt><trkpt lat="45.97538150095299" lon="12.040806031752743"><ele>747.5</ele><time>2026-05-03T05:07:48Z</time></trkpt><trkpt lat="45.97546414542469" lon="12.04069075657905"><ele>744.0</ele><time>2026-05-03T05:07:50Z</time></trkpt><trkpt lat="45.97553845595153" lon="12.040567535024023"><ele>743.8333333333334</ele><time>2026-05-03T05:07:52Z</time></trkpt><trkpt lat="45.97557605847199" lon="12.040471846505627"><ele>743.6666666666666</ele><time>2026-05-03T05:07:54Z</time></trkpt><trkpt lat="45.97563736294513" lon="12.04044397867668"><ele>743.5</ele><time>2026-05-03T05:07:55Z</time></trkpt><trkpt lat="45.97571104981798" lon="12.040413677415378"><ele>743.3333333333333</ele><time>2026-05-03T05:07:56Z</time></trkpt><trkpt lat="45.975795269364255" lon="12.040344828848182"><ele>743.1666666666666</ele><time>2026-05-03T05:07:58Z</time></trkpt><trkpt lat="45.975847762961195" lon="12.040255467963279"><ele>743.0</ele><time>2026-05-03T05:07:59Z</time></trkpt><trkpt lat="45.975965595310136" lon="12.040187383570323"><ele>740.5</ele><time>2026-05-03T05:08:01Z</time></trkpt><trkpt lat="45.976037458885266" lon="12.040150770067157"><ele>738.0</ele><time>2026-05-03T05:08:02Z</time></trkpt><trkpt lat="45.976069610378836" lon="12.04006360216404"><ele>735.5</ele><time>2026-05-03T05:08:03Z</time></trkpt><trkpt lat="45.976138559756336" lon="12.04001114691382"><ele>733.0</ele><time>2026-05-03T05:08:04Z</time></trkpt><trkpt lat="45.97618224270281" lon="12.039945535433574"><ele>730.5</ele><time>2026-05-03T05:08:05Z</time></trkpt><trkpt lat="45.97627915851522" lon="12.039858340394678"><ele>728.0</ele><time>2026-05-03T05:08:07Z</time></trkpt><trkpt lat="45.97632849564943" lon="12.039801529225912"><ele>728.0</ele><time>2026-05-03T05:08:08Z</time></trkpt><trkpt lat="45.976417533730675" lon="12.039689256974293"><ele>728.0</ele><time>2026-05-03T05:08:10Z</time></trkpt><trkpt lat="45.97648521491912" lon="12.039643644888265"><ele>728.0</ele><time>2026-05-03T05:08:11Z</time></trkpt><trkpt lat="45.97659197573584" lon="12.039592679234952"><ele>728.0</ele><time>2026-05-03T05:08:13Z</time></trkpt><trkpt lat="45.97669520710146" lon="12.039529825339468"><ele>728.0</ele><time>2026-05-03T05:08:15Z</time></trkpt><trkpt lat="45.97675689074739" lon="12.039484807865792"><ele>726.25</ele><time>2026-05-03T05:08:16Z</time></trkpt><trkpt lat="45.976873375243166" lon="12.039431949645603"><ele>724.5</ele><time>2026-05-03T05:08:18Z</time></trkpt><trkpt lat="45.97699151998201" lon="12.039376729673107"><ele>722.75</ele><time>2026-05-03T05:08:20Z</time></trkpt><trkpt lat="45.97707850247793" lon="12.03921352259666"><ele>721.0</ele><time>2026-05-03T05:08:22Z</time></trkpt><trkpt lat="45.9771493430786" lon="12.03909281474462"><ele>720.4</ele><time>2026-05-03T05:08:24Z</time></trkpt><trkpt lat="45.97721078509471" lon="12.039037093814787"><ele>719.8</ele><time>2026-05-03T05:08:25Z</time></trkpt><trkpt lat="45.97729336802238" lon="12.038924579395925"><ele>719.1999999999999</ele><time>2026-05-03T05:08:27Z</time></trkpt><trkpt lat="45.97735555764135" lon="12.038804744974522"><ele>718.5999999999999</ele><time>2026-05-03T05:08:29Z</time></trkpt><trkpt lat="45.977458288120914" lon="12.038685500064828"><ele>718.0</ele><time>2026-05-03T05:08:31Z</time></trkpt><trkpt lat="45.977519641792476" lon="12.038636063374508"><ele>717.5</ele><time>2026-05-03T05:08:32Z</time></trkpt><trkpt lat="45.97756919144828" lon="12.038555982811102"><ele>717.0</ele><time>2026-05-03T05:08:33Z</time></trkpt><trkpt lat="45.977647543830194" lon="12.038411925170806"><ele>716.5</ele><time>2026-05-03T05:08:34.999Z</time></trkpt><trkpt lat="45.977728670552196" lon="12.038284118273019"><ele>716.0</ele><time>2026-05-03T05:08:36.999Z</time></trkpt><trkpt lat="45.97780382057137" lon="12.038128582988623"><ele>713.8571428571429</ele><time>2026-05-03T05:08:38.999Z</time></trkpt><trkpt lat="45.977848619593814" lon="12.038055149766544"><ele>711.7142857142858</ele><time>2026-05-03T05:08:39.999Z</time></trkpt><trkpt lat="45.97789997377893" lon="12.037989047892953"><ele>709.5714285714287</ele><time>2026-05-03T05:08:40.999Z</time></trkpt><trkpt lat="45.97796061722629" lon="12.037921428486431"><ele>707.4285714285714</ele><time>2026-05-03T05:08:41.999Z</time></trkpt><trkpt lat="45.978013570010795" lon="12.03784163075372"><ele>705.2857142857142</ele><time>2026-05-03T05:08:42.999Z</time></trkpt><trkpt lat="45.97807671592431" lon="12.037780067296175"><ele>703.1428571428572</ele><time>2026-05-03T05:08:43.999Z</time></trkpt><trkpt lat="45.97813976021093" lon="12.037724944123894"><ele>701.0</ele><time>2026-05-03T05:08:44.999Z</time></trkpt><trkpt lat="45.97820634359648" lon="12.037676809056103"><ele>701.0</ele><time>2026-05-03T05:08:45.999Z</time></trkpt><trkpt lat="45.97826384287332" lon="12.037593243644505"><ele>701.0</ele><time>2026-05-03T05:08:46.999Z</time></trkpt><trkpt lat="45.978315648792446" lon="12.037513124350538"><ele>701.0</ele><time>2026-05-03T05:08:47.999Z</time></trkpt><trkpt lat="45.97837409747704" lon="12.037434121480501"><ele>701.0</ele><time>2026-05-03T05:08:48.999Z</time></trkpt><trkpt lat="45.97842792823411" lon="12.037333080644336"><ele>701.0</ele><time>2026-05-03T05:08:49.999Z</time></trkpt><trkpt lat="45.97847399968988" lon="12.037252971056889"><ele>701.0</ele><time>2026-05-03T05:08:50.999Z</time></trkpt><trkpt lat="45.97855837643237" lon="12.03714201760844"><ele>698.1999999999999</ele><time>2026-05-03T05:08:52.999Z</time></trkpt><trkpt lat="45.978597672846384" lon="12.03706008437799"><ele>695.4</ele><time>2026-05-03T05:08:53.999Z</time></trkpt><trkpt lat="45.97862356988048" lon="12.036965160260479"><ele>692.6</ele><time>2026-05-03T05:08:54.999Z</time></trkpt><trkpt lat="45.97871160342736" lon="12.036858968651465"><ele>689.8</ele><time>2026-05-03T05:08:56.999Z</time></trkpt><trkpt lat="45.978811421943774" lon="12.036780671443116"><ele>687.0</ele><time>2026-05-03T05:08:58.999Z</time></trkpt><trkpt lat="45.978944193512255" lon="12.036711085092005"><ele>687.0</ele><time>2026-05-03T05:09:00.999Z</time></trkpt><trkpt lat="45.97901746463026" lon="12.036670493180734"><ele>687.0</ele><time>2026-05-03T05:09:01.999Z</time></trkpt><trkpt lat="45.97907205946302" lon="12.036616252794921"><ele>687.0</ele><time>2026-05-03T05:09:02.999Z</time></trkpt><trkpt lat="45.97917906461315" lon="12.03655261249365"><ele>687.0</ele><time>2026-05-03T05:09:04.999Z</time></trkpt><trkpt lat="45.97926945534465" lon="12.036442846939751"><ele>687.0</ele><time>2026-05-03T05:09:06.999Z</time></trkpt><trkpt lat="45.97936377334907" lon="12.036347738718918"><ele>685.1666666666666</ele><time>2026-05-03T05:09:09Z</time></trkpt><trkpt lat="45.979417543749136" lon="12.036267134291847"><ele>683.3333333333334</ele><time>2026-05-03T05:09:10Z</time></trkpt><trkpt lat="45.97944957135734" lon="12.036163443784405"><ele>681.5</ele><time>2026-05-03T05:09:11Z</time></trkpt><trkpt lat="45.97950631613116" lon="12.036003488820345"><ele>679.6666666666667</ele><time>2026-05-03T05:09:13Z</time></trkpt><trkpt lat="45.97956792879201" lon="12.03595482897495"><ele>677.8333333333334</ele><time>2026-05-03T05:09:14Z</time></trkpt><trkpt lat="45.97961701632562" lon="12.035871263491503"><ele>676.0</ele><time>2026-05-03T05:09:15Z</time></trkpt><trkpt lat="45.97967352874554" lon="12.035810317178804"><ele>675.8333333333334</ele><time>2026-05-03T05:09:16Z</time></trkpt><trkpt lat="45.97973892518632" lon="12.035695055603815"><ele>675.6666666666667</ele><time>2026-05-03T05:09:18Z</time></trkpt><trkpt lat="45.97980321706958" lon="12.035643338960055"><ele>675.5</ele><time>2026-05-03T05:09:19Z</time></trkpt><trkpt lat="45.97985508979621" lon="12.03557301907108"><ele>675.3333333333334</ele><time>2026-05-03T05:09:20Z</time></trkpt><trkpt lat="45.979905375131615" lon="12.03551160464012"><ele>675.1666666666666</ele><time>2026-05-03T05:09:21Z</time></trkpt><trkpt lat="45.97995780697867" lon="12.03545677717608"><ele>675.0</ele><time>2026-05-03T05:09:22Z</time></trkpt><trkpt lat="45.98004875969759" lon="12.035378265460087"><ele>671.6666666666666</ele><time>2026-05-03T05:09:24Z</time></trkpt><trkpt lat="45.98012628352383" lon="12.03530776210793"><ele>668.3333333333334</ele><time>2026-05-03T05:09:26Z</time></trkpt><trkpt lat="45.98022190808884" lon="12.035252315827409"><ele>665.0</ele><time>2026-05-03T05:09:28Z</time></trkpt><trkpt lat="45.980273097196886" lon="12.035180453810671"><ele>661.6666666666667</ele><time>2026-05-03T05:09:30Z</time></trkpt><trkpt lat="45.98035925328545" lon="12.035151121060844"><ele>658.3333333333334</ele><time>2026-05-03T05:09:31Z</time></trkpt><trkpt lat="45.980427861818264" lon="12.035127592687173"><ele>655.0</ele><time>2026-05-03T05:09:32Z</time></trkpt><trkpt lat="45.98051799552077" lon="12.03507821309258"><ele>655.0</ele><time>2026-05-03T05:09:33Z</time></trkpt><trkpt lat="45.98060535872561" lon="12.03500940362601"><ele>655.0</ele><time>2026-05-03T05:09:34Z</time></trkpt><trkpt lat="45.98068762594015" lon="12.034958174731619"><ele>655.0</ele><time>2026-05-03T05:09:35Z</time></trkpt><trkpt lat="45.98075748342987" lon="12.034921794272183"><ele>655.0</ele><time>2026-05-03T05:09:36Z</time></trkpt><trkpt lat="45.980823295777355" lon="12.034811061954796"><ele>655.0</ele><time>2026-05-03T05:09:38Z</time></trkpt><trkpt lat="45.980891218004224" lon="12.034774955900488"><ele>655.0</ele><time>2026-05-03T05:09:39Z</time></trkpt><trkpt lat="45.980973395181366" lon="12.03469533588217"><ele>654.3333333333334</ele><time>2026-05-03T05:09:41Z</time></trkpt><trkpt lat="45.98102730755997" lon="12.034631573060732"><ele>653.6666666666667</ele><time>2026-05-03T05:09:42Z</time></trkpt><trkpt lat="45.98108156614299" lon="12.034573490930784"><ele>653.0</ele><time>2026-05-03T05:09:43Z</time></trkpt><trkpt lat="45.981194143667004" lon="12.03448592873932"><ele>652.3333333333334</ele><time>2026-05-03T05:09:45Z</time></trkpt><trkpt lat="45.98120653814397" lon="12.034363019512147"><ele>651.6666666666666</ele><time>2026-05-03T05:09:46Z</time></trkpt><trkpt lat="45.981283701555896" lon="12.0343082982551"><ele>651.0</ele><time>2026-05-03T05:09:47Z</time></trkpt><trkpt lat="45.98135104646282" lon="12.03424157568199"><ele>651.0</ele><time>2026-05-03T05:09:48Z</time></trkpt><trkpt lat="45.98145125064003" lon="12.034154135823387"><ele>651.0</ele><time>2026-05-03T05:09:50Z</time></trkpt><trkpt lat="45.981518722498016" lon="12.034089754824222"><ele>651.0</ele><time>2026-05-03T05:09:51Z</time></trkpt><trkpt lat="45.981604490325594" lon="12.03402471049207"><ele>651.0</ele><time>2026-05-03T05:09:52Z</time></trkpt><trkpt lat="45.98166820968378" lon="12.03395794319614"><ele>651.0</ele><time>2026-05-03T05:09:53Z</time></trkpt><trkpt lat="45.981723291906206" lon="12.033909407750585"><ele>651.0</ele><time>2026-05-03T05:09:54Z</time></trkpt><trkpt lat="45.98177636758151" lon="12.033836611146175"><ele>648.1666666666666</ele><time>2026-05-03T05:09:55Z</time></trkpt><trkpt lat="45.98183603921819" lon="12.033794042188548"><ele>645.3333333333334</ele><time>2026-05-03T05:09:56Z</time></trkpt><trkpt lat="45.98193741834837" lon="12.033760217720726"><ele>642.5</ele><time>2026-05-03T05:09:57Z</time></trkpt><trkpt lat="45.98201429003467" lon="12.033684550614474"><ele>639.6666666666667</ele><time>2026-05-03T05:09:58Z</time></trkpt><trkpt lat="45.98209263186308" lon="12.03364258436507"><ele>636.8333333333334</ele><time>2026-05-03T05:09:59Z</time></trkpt><trkpt lat="45.98216539975871" lon="12.03361565116739"><ele>634.0</ele><time>2026-05-03T05:10:00Z</time></trkpt><trkpt lat="45.982226682850744" lon="12.033572339706021"><ele>634.0</ele><time>2026-05-03T05:10:01Z</time></trkpt><trkpt lat="45.98233420431201" lon="12.033496299543916"><ele>634.0</ele><time>2026-05-03T05:10:03Z</time></trkpt><trkpt lat="45.98241439246788" lon="12.033447511703411"><ele>634.0</ele><time>2026-05-03T05:10:05Z</time></trkpt><trkpt lat="45.982470009809774" lon="12.033380713386453"><ele>634.0</ele><time>2026-05-03T05:10:19Z</time></trkpt><trkpt lat="45.98253395915745" lon="12.033361873290708"><ele>634.0</ele><time>2026-05-03T05:10:20Z</time></trkpt><trkpt lat="45.9826035416666" lon="12.033331438134192"><ele>634.0</ele><time>2026-05-03T05:10:20.999Z</time></trkpt><trkpt lat="45.98268793679238" lon="12.033295964960928"><ele>633.3333333333334</ele><time>2026-05-03T05:10:21.999Z</time></trkpt><trkpt lat="45.98277276625285" lon="12.033265352741093"><ele>632.6666666666667</ele><time>2026-05-03T05:10:22.999Z</time></trkpt><trkpt lat="45.98284056567789" lon="12.033260348043815"><ele>632.0</ele><time>2026-05-03T05:10:23.999Z</time></trkpt><trkpt lat="45.98290859488451" lon="12.033227841639263"><ele>631.3333333333334</ele><time>2026-05-03T05:10:24.999Z</time></trkpt><trkpt lat="45.982963708312816" lon="12.033183726041532"><ele>630.6666666666666</ele><time>2026-05-03T05:10:25.999Z</time></trkpt><trkpt lat="45.98305718098387" lon="12.033131977544274"><ele>630.0</ele><time>2026-05-03T05:10:26.999Z</time></trkpt><trkpt lat="45.98312689337124" lon="12.033090132637756"><ele>630.0</ele><time>2026-05-03T05:10:27.999Z</time></trkpt><trkpt lat="45.98320977144079" lon="12.033063442541101"><ele>630.0</ele><time>2026-05-03T05:10:28.999Z</time></trkpt><trkpt lat="45.98328290412451" lon="12.033017468812305"><ele>630.0</ele><time>2026-05-03T05:10:29.999Z</time></trkpt><trkpt lat="45.98335494593937" lon="12.032968152202862"><ele>630.0</ele><time>2026-05-03T05:10:30.999Z</time></trkpt><trkpt lat="45.98342631338399" lon="12.032936436030534"><ele>630.0</ele><time>2026-05-03T05:10:31.999Z</time></trkpt><trkpt lat="45.98350098032864" lon="12.032866381166938"><ele>630.0</ele><time>2026-05-03T05:10:32.999Z</time></trkpt><trkpt lat="45.98355662652499" lon="12.03278759417729"><ele>630.0</ele><time>2026-05-03T05:10:33.999Z</time></trkpt><trkpt lat="45.983623069103096" lon="12.032714221334952"><ele>630.0</ele><time>2026-05-03T05:10:34.999Z</time></trkpt><trkpt lat="45.983694484153034" lon="12.032657957104153"><ele>630.0</ele><time>2026-05-03T05:10:35.999Z</time></trkpt><trkpt lat="45.98376493395527" lon="12.032589316927933"><ele>630.0</ele><time>2026-05-03T05:10:36.999Z</time></trkpt><trkpt lat="45.98383097093114" lon="12.032534186880168"><ele>630.0</ele><time>2026-05-03T05:10:37.999Z</time></trkpt><trkpt lat="45.98389855057264" lon="12.032480088929779"><ele>630.0</ele><time>2026-05-03T05:10:38.999Z</time></trkpt><trkpt lat="45.98398653831581" lon="12.032452128149261"><ele>630.0</ele><time>2026-05-03T05:10:39.999Z</time></trkpt><trkpt lat="45.98410946313926" lon="12.032382305861509"><ele>630.0</ele><time>2026-05-03T05:10:41.999Z</time></trkpt><trkpt lat="45.98419250965406" lon="12.032342070301645"><ele>630.0</ele><time>2026-05-03T05:10:42.999Z</time></trkpt><trkpt lat="45.984278039326746" lon="12.032300385065046"><ele>630.0</ele><time>2026-05-03T05:10:43.999Z</time></trkpt><trkpt lat="45.98434843181319" lon="12.032238424665488"><ele>630.0</ele><time>2026-05-03T05:10:44.999Z</time></trkpt><trkpt lat="45.9844111589867" lon="12.032187125198307"><ele>631.2</ele><time>2026-05-03T05:10:45.999Z</time></trkpt><trkpt lat="45.98446761551678" lon="12.03214072324543"><ele>632.4</ele><time>2026-05-03T05:10:46.999Z</time></trkpt><trkpt lat="45.98453020584488" lon="12.032095680590777"><ele>633.6</ele><time>2026-05-03T05:10:47.999Z</time></trkpt><trkpt lat="45.98464465700873" lon="12.032066021617203"><ele>634.8</ele><time>2026-05-03T05:10:49.999Z</time></trkpt><trkpt lat="45.98477895507778" lon="12.032014395665168"><ele>636.0</ele><time>2026-05-03T05:10:51.999Z</time></trkpt><trkpt lat="45.984901236235885" lon="12.032003553104289"><ele>636.0</ele><time>2026-05-03T05:10:53.999Z</time></trkpt><trkpt lat="45.98497312269668" lon="12.032012994725193"><ele>636.0</ele><time>2026-05-03T05:10:54.999Z</time></trkpt><trkpt lat="45.985096118202954" lon="12.032073541591803"><ele>636.0</ele><time>2026-05-03T05:10:56.999Z</time></trkpt><trkpt lat="45.985175264075" lon="12.032088193299419"><ele>636.0</ele><time>2026-05-03T05:10:57.999Z</time></trkpt><trkpt lat="45.98526114472085" lon="12.032092296760604"><ele>636.0</ele><time>2026-05-03T05:10:58.999Z</time></trkpt><trkpt lat="45.98533685218188" lon="12.032075615360494"><ele>636.0</ele><time>2026-05-03T05:10:59.999Z</time></trkpt><trkpt lat="45.98543293632111" lon="12.032078506837877"><ele>635.6666666666666</ele><time>2026-05-03T05:11:00.999Z</time></trkpt><trkpt lat="45.98552698270794" lon="12.032050130672049"><ele>635.3333333333334</ele><time>2026-05-03T05:11:01.999Z</time></trkpt><trkpt lat="45.98561371389295" lon="12.032061605647234"><ele>635.0</ele><time>2026-05-03T05:11:02.999Z</time></trkpt><trkpt lat="45.98569193339315" lon="12.032015938863626"><ele>634.6666666666667</ele><time>2026-05-03T05:11:03.999Z</time></trkpt><trkpt lat="45.985761947390245" lon="12.031968760544213"><ele>634.3333333333334</ele><time>2026-05-03T05:11:04.999Z</time></trkpt><trkpt lat="45.98584664033903" lon="12.031967841568045"><ele>634.0</ele><time>2026-05-03T05:11:05.999Z</time></trkpt><trkpt lat="45.98594162729068" lon="12.031961861104179"><ele>634.0</ele><time>2026-05-03T05:11:06.999Z</time></trkpt><trkpt lat="45.98603902626123" lon="12.03195652765044"><ele>634.0</ele><time>2026-05-03T05:11:07.999Z</time></trkpt><trkpt lat="45.986132173153464" lon="12.031934261085784"><ele>634.0</ele><time>2026-05-03T05:11:08.999Z</time></trkpt><trkpt lat="45.98621751018449" lon="12.031917417679386"><ele>634.0</ele><time>2026-05-03T05:11:09.999Z</time></trkpt><trkpt lat="45.98630384507348" lon="12.031893830269423"><ele>634.0</ele><time>2026-05-03T05:11:10.999Z</time></trkpt><trkpt lat="45.986391987646606" lon="12.03188094232507"><ele>634.0</ele><time>2026-05-03T05:11:11.999Z</time></trkpt><trkpt lat="45.9864747297294" lon="12.03186274743006"><ele>634.0</ele><time>2026-05-03T05:11:12.999Z</time></trkpt><trkpt lat="45.98655082025004" lon="12.031847951017603"><ele>634.0</ele><time>2026-05-03T05:11:14Z</time></trkpt><trkpt lat="45.98662612304283" lon="12.031859130199221"><ele>634.0</ele><time>2026-05-03T05:11:15Z</time></trkpt><trkpt lat="45.98671083936128" lon="12.031864157682147"><ele>634.0</ele><time>2026-05-03T05:11:16Z</time></trkpt><trkpt lat="45.98681275326844" lon="12.031851043635339"><ele>634.0</ele><time>2026-05-03T05:11:17Z</time></trkpt><trkpt lat="45.98694284937451" lon="12.031830872804054"><ele>634.2</ele><time>2026-05-03T05:11:18Z</time></trkpt><trkpt lat="45.98702731625776" lon="12.03180323601302"><ele>634.4</ele><time>2026-05-03T05:11:19Z</time></trkpt><trkpt lat="45.987115623890354" lon="12.031789378954368"><ele>634.6</ele><time>2026-05-03T05:11:20Z</time></trkpt><trkpt lat="45.98719772320732" lon="12.03174429096991"><ele>634.8</ele><time>2026-05-03T05:11:21Z</time></trkpt><trkpt lat="45.987302337275636" lon="12.031739085661018"><ele>635.0</ele><time>2026-05-03T05:11:22Z</time></trkpt><trkpt lat="45.987400430457186" lon="12.031705903332407"><ele>634.9999999999999</ele><time>2026-05-03T05:11:23Z</time></trkpt><trkpt lat="45.987485390859966" lon="12.031687006309516"><ele>635.0</ele><time>2026-05-03T05:11:24Z</time></trkpt><trkpt lat="45.98756463324142" lon="12.031666556026533"><ele>635.0</ele><time>2026-05-03T05:11:25Z</time></trkpt><trkpt lat="45.98762780417885" lon="12.031677829726313"><ele>635.0</ele><time>2026-05-03T05:11:26Z</time></trkpt><trkpt lat="45.987694769899335" lon="12.03170400865145"><ele>635.0</ele><time>2026-05-03T05:11:27Z</time></trkpt><trkpt lat="45.987758124848526" lon="12.031737234440255"><ele>634.9999999999999</ele><time>2026-05-03T05:11:28Z</time></trkpt><trkpt lat="45.98781809716285" lon="12.031794950715481"><ele>635.0</ele><time>2026-05-03T05:11:29Z</time></trkpt><trkpt lat="45.987888524044635" lon="12.031871109538848"><ele>633.8</ele><time>2026-05-03T05:11:30Z</time></trkpt><trkpt lat="45.98797817839744" lon="12.03193663888087"><ele>632.6</ele><time>2026-05-03T05:11:31Z</time></trkpt><trkpt lat="45.98806615050487" lon="12.03201221013254"><ele>631.4</ele><time>2026-05-03T05:11:32Z</time></trkpt><trkpt lat="45.9881444996007" lon="12.032037456409787"><ele>630.2</ele><time>2026-05-03T05:11:33Z</time></trkpt><trkpt lat="45.98822057267875" lon="12.032082780927206"><ele>629.0</ele><time>2026-05-03T05:11:34Z</time></trkpt><trkpt lat="45.98830468717631" lon="12.032129783593318"><ele>627.5</ele><time>2026-05-03T05:11:35Z</time></trkpt><trkpt lat="45.98841269320016" lon="12.032130894458518"><ele>626.0</ele><time>2026-05-03T05:11:37Z</time></trkpt><trkpt lat="45.98849281035835" lon="12.032129619615597"><ele>624.5</ele><time>2026-05-03T05:11:39Z</time></trkpt><trkpt lat="45.98866998236342" lon="12.032171013259532"><ele>623.0</ele><time>2026-05-03T05:11:41Z</time></trkpt><trkpt lat="45.98877843325516" lon="12.032176903334847"><ele>623.0</ele><time>2026-05-03T05:11:42Z</time></trkpt><trkpt lat="45.98885346536304" lon="12.032173329311004"><ele>623.0</ele><time>2026-05-03T05:11:43Z</time></trkpt><trkpt lat="45.9889173172085" lon="12.032165260888656"><ele>623.0</ele><time>2026-05-03T05:11:44Z</time></trkpt><trkpt lat="45.988977044768674" lon="12.032242336071997"><ele>623.0</ele><time>2026-05-03T05:11:46Z</time></trkpt><trkpt lat="45.98904446645262" lon="12.032274781767146"><ele>623.0</ele><time>2026-05-03T05:11:47Z</time></trkpt><trkpt lat="45.989132545485326" lon="12.032343229378322"><ele>623.0</ele><time>2026-05-03T05:11:48Z</time></trkpt><trkpt lat="45.98922743253571" lon="12.032448344739395"><ele>625.1999999999999</ele><time>2026-05-03T05:11:50Z</time></trkpt><trkpt lat="45.9893570685093" lon="12.032519773117668"><ele>627.4</ele><time>2026-05-03T05:11:52Z</time></trkpt><trkpt lat="45.98939341963472" lon="12.032595198206286"><ele>629.5999999999999</ele><time>2026-05-03T05:11:53Z</time></trkpt><trkpt lat="45.989478552618586" lon="12.032625489438777"><ele>631.8</ele><time>2026-05-03T05:11:54Z</time></trkpt><trkpt lat="45.98959632218655" lon="12.032655933143555"><ele>634.0</ele><time>2026-05-03T05:11:55Z</time></trkpt><trkpt lat="45.98967649689096" lon="12.032683739158548"><ele>634.0</ele><time>2026-05-03T05:11:56Z</time></trkpt><trkpt lat="45.98975268680103" lon="12.03271476571239"><ele>634.0</ele><time>2026-05-03T05:11:57Z</time></trkpt><trkpt lat="45.98981965422712" lon="12.032739362291881"><ele>634.0</ele><time>2026-05-03T05:11:58Z</time></trkpt><trkpt lat="45.98989390438549" lon="12.0327405222816"><ele>634.0</ele><time>2026-05-03T05:11:59Z</time></trkpt><trkpt lat="45.98997075891123" lon="12.032753270445452"><ele>634.0</ele><time>2026-05-03T05:12:00Z</time></trkpt><trkpt lat="45.99003594629856" lon="12.032730999358241"><ele>634.0</ele><time>2026-05-03T05:12:01Z</time></trkpt><trkpt lat="45.990162896950984" lon="12.032748527690151"><ele>632.6666666666667</ele><time>2026-05-03T05:12:03Z</time></trkpt><trkpt lat="45.99023912532188" lon="12.03276558173861"><ele>631.3333333333334</ele><time>2026-05-03T05:12:04Z</time></trkpt><trkpt lat="45.990307212608194" lon="12.032784550486465"><ele>630.0</ele><time>2026-05-03T05:12:05Z</time></trkpt><trkpt lat="45.99038451198682" lon="12.032785847250771"><ele>628.6666666666666</ele><time>2026-05-03T05:12:06Z</time></trkpt><trkpt lat="45.99046346009118" lon="12.03277514332154"><ele>627.3333333333333</ele><time>2026-05-03T05:12:07Z</time></trkpt><trkpt lat="45.99053763368608" lon="12.03276721956265"><ele>626.0</ele><time>2026-05-03T05:12:08Z</time></trkpt><trkpt lat="45.99064018198938" lon="12.032769426516053"><ele>626.0</ele><time>2026-05-03T05:12:09Z</time></trkpt><trkpt lat="45.99070824003786" lon="12.032755290375642"><ele>626.0</ele><time>2026-05-03T05:12:10Z</time></trkpt><trkpt lat="45.990787847749054" lon="12.032709028798294"><ele>626.0</ele><time>2026-05-03T05:12:12Z</time></trkpt><trkpt lat="45.990867106990066" lon="12.032695647071284"><ele>626.0</ele><time>2026-05-03T05:12:13Z</time></trkpt><trkpt lat="45.9909623846897" lon="12.032706203065885"><ele>626.0</ele><time>2026-05-03T05:12:15Z</time></trkpt><trkpt lat="45.99105490200851" lon="12.032751492419901"><ele>626.0</ele><time>2026-05-03T05:12:17Z</time></trkpt><trkpt lat="45.991133284617035" lon="12.032724806141987"><ele>624.2</ele><time>2026-05-03T05:12:19Z</time></trkpt><trkpt lat="45.99120287277213" lon="12.032744966111569"><ele>622.4000000000001</ele><time>2026-05-03T05:12:20Z</time></trkpt><trkpt lat="45.99131385061751" lon="12.032810314924708"><ele>620.6</ele><time>2026-05-03T05:12:21Z</time></trkpt><trkpt lat="45.99138163394594" lon="12.032823950716582"><ele>618.8000000000001</ele><time>2026-05-03T05:12:22Z</time></trkpt><trkpt lat="45.99146350984615" lon="12.032709508879334"><ele>617.0</ele><time>2026-05-03T05:12:23Z</time></trkpt><trkpt lat="45.99161934417533" lon="12.032728744958195"><ele>616.3333333333333</ele><time>2026-05-03T05:12:24Z</time></trkpt><trkpt lat="45.99171352870351" lon="12.032773722209555"><ele>615.6666666666666</ele><time>2026-05-03T05:12:25Z</time></trkpt><trkpt lat="45.99180352700268" lon="12.03279286573057"><ele>615.0</ele><time>2026-05-03T05:12:26Z</time></trkpt><trkpt lat="45.99188833166571" lon="12.032792142306814"><ele>614.3333333333334</ele><time>2026-05-03T05:12:27Z</time></trkpt><trkpt lat="45.99195580762344" lon="12.032810209330346"><ele>613.6666666666667</ele><time>2026-05-03T05:12:28Z</time></trkpt><trkpt lat="45.99202159416196" lon="12.032808105495167"><ele>613.0</ele><time>2026-05-03T05:12:29Z</time></trkpt><trkpt lat="45.99208591763299" lon="12.032814620853873"><ele>613.0</ele><time>2026-05-03T05:12:30Z</time></trkpt><trkpt lat="45.992217554823185" lon="12.032844556008207"><ele>613.0</ele><time>2026-05-03T05:12:32Z</time></trkpt><trkpt lat="45.99229503006836" lon="12.03286341450148"><ele>613.0</ele><time>2026-05-03T05:12:33Z</time></trkpt><trkpt lat="45.99235804954277" lon="12.032878082786866"><ele>613.0</ele><time>2026-05-03T05:12:34Z</time></trkpt><trkpt lat="45.992499351866755" lon="12.032903982914203"><ele>613.0</ele><time>2026-05-03T05:12:36Z</time></trkpt><trkpt lat="45.992587328110105" lon="12.032871222121807"><ele>611.6666666666667</ele><time>2026-05-03T05:12:37Z</time></trkpt><trkpt lat="45.992663544081225" lon="12.032855797806045"><ele>610.3333333333334</ele><time>2026-05-03T05:12:38Z</time></trkpt><trkpt lat="45.992748417402055" lon="12.032870348045327"><ele>609.0</ele><time>2026-05-03T05:12:39Z</time></trkpt><trkpt lat="45.9928136100783" lon="12.032898641350158"><ele>607.6666666666666</ele><time>2026-05-03T05:12:40Z</time></trkpt><trkpt lat="45.99291146802155" lon="12.032949362266125"><ele>606.3333333333333</ele><time>2026-05-03T05:12:42Z</time></trkpt><trkpt lat="45.99299067879053" lon="12.032957002049828"><ele>605.0</ele><time>2026-05-03T05:12:44Z</time></trkpt><trkpt lat="45.99307474106846" lon="12.032962555682643"><ele>605.0</ele><time>2026-05-03T05:12:58Z</time></trkpt><trkpt lat="45.99316710107063" lon="12.03294633955486"><ele>605.0</ele><time>2026-05-03T05:13:00Z</time></trkpt><trkpt lat="45.99324154555933" lon="12.032916338627967"><ele>605.0</ele><time>2026-05-03T05:13:02Z</time></trkpt><trkpt lat="45.99330580527661" lon="12.032890207383353"><ele>605.0</ele><time>2026-05-03T05:13:03Z</time></trkpt><trkpt lat="45.99336940111869" lon="12.03289220189147"><ele>605.0</ele><time>2026-05-03T05:13:03.999Z</time></trkpt><trkpt lat="45.9934585531375" lon="12.032920915683226"><ele>605.0</ele><time>2026-05-03T05:13:05.999Z</time></trkpt><trkpt lat="45.993534526600016" lon="12.03293277881845"><ele>600.0</ele><time>2026-05-03T05:13:06.999Z</time></trkpt><trkpt lat="45.99366177726716" lon="12.03294849245083"><ele>595.0</ele><time>2026-05-03T05:13:07.999Z</time></trkpt><trkpt lat="45.99374281003468" lon="12.032981682683427"><ele>590.0</ele><time>2026-05-03T05:13:08.999Z</time></trkpt><trkpt lat="45.99383345721364" lon="12.03297566308344"><ele>585.0</ele><time>2026-05-03T05:13:09.999Z</time></trkpt><trkpt lat="45.99390052626077" lon="12.03296911836323"><ele>580.0</ele><time>2026-05-03T05:13:10.999Z</time></trkpt><trkpt lat="45.994015777278214" lon="12.032954708411603"><ele>580.0</ele><time>2026-05-03T05:13:12.999Z</time></trkpt><trkpt lat="45.99410670108689" lon="12.032930843882289"><ele>580.0</ele><time>2026-05-03T05:13:14.999Z</time></trkpt><trkpt lat="45.99419164480662" lon="12.033002864662322"><ele>580.0</ele><time>2026-05-03T05:13:16.999Z</time></trkpt><trkpt lat="45.99428481047685" lon="12.03310912157262"><ele>580.0</ele><time>2026-05-03T05:13:18.999Z</time></trkpt><trkpt lat="45.99434357428843" lon="12.033235181052422"><ele>580.0</ele><time>2026-05-03T05:13:21Z</time></trkpt><trkpt lat="45.99437038246128" lon="12.03340079482643"><ele>573.5</ele><time>2026-05-03T05:13:23Z</time></trkpt><trkpt lat="45.994392084745535" lon="12.033585001954531"><ele>567.0</ele><time>2026-05-03T05:13:25Z</time></trkpt><trkpt lat="45.994412729660766" lon="12.033706094478186"><ele>560.5</ele><time>2026-05-03T05:13:26Z</time></trkpt><trkpt lat="45.99443998487896" lon="12.033808654478591"><ele>554.0</ele><time>2026-05-03T05:13:27Z</time></trkpt><trkpt lat="45.994464983256" lon="12.03390017262035"><ele>547.5</ele><time>2026-05-03T05:13:28Z</time></trkpt><trkpt lat="45.99451532402831" lon="12.03399359931721"><ele>541.0</ele><time>2026-05-03T05:13:29Z</time></trkpt><trkpt lat="45.99455574878024" lon="12.034079932517237"><ele>547.5</ele><time>2026-05-03T05:13:30Z</time></trkpt><trkpt lat="45.994629271719106" lon="12.034140810507973"><ele>554.0</ele><time>2026-05-03T05:13:31Z</time></trkpt><trkpt lat="45.99467872002969" lon="12.0342059379987"><ele>560.5</ele><time>2026-05-03T05:13:32Z</time></trkpt><trkpt lat="45.994741393077675" lon="12.034294015775085"><ele>567.0</ele><time>2026-05-03T05:13:33Z</time></trkpt><trkpt lat="45.99480346755189" lon="12.034371894711404"><ele>573.5</ele><time>2026-05-03T05:13:34Z</time></trkpt><trkpt lat="45.9948688181174" lon="12.034422229479041"><ele>580.0</ele><time>2026-05-03T05:13:35Z</time></trkpt><trkpt lat="45.99493242378389" lon="12.034487758822003"><ele>573.5</ele><time>2026-05-03T05:13:36Z</time></trkpt><trkpt lat="45.995024580684735" lon="12.034524128417194"><ele>567.0</ele><time>2026-05-03T05:13:37Z</time></trkpt><trkpt lat="45.99510126431106" lon="12.034527442951687"><ele>560.5</ele><time>2026-05-03T05:13:38Z</time></trkpt><trkpt lat="45.9951569226535" lon="12.034577939807095"><ele>554.0</ele><time>2026-05-03T05:13:39Z</time></trkpt><trkpt lat="45.995227030286706" lon="12.034593283665135"><ele>547.5</ele><time>2026-05-03T05:13:40Z</time></trkpt><trkpt lat="45.99534705979542" lon="12.034584065638255"><ele>541.0</ele><time>2026-05-03T05:13:42Z</time></trkpt><trkpt lat="45.99541233248572" lon="12.034603254015392"><ele>541.0</ele><time>2026-05-03T05:13:43Z</time></trkpt><trkpt lat="45.9955376546606" lon="12.034631321301662"><ele>541.0</ele><time>2026-05-03T05:13:45Z</time></trkpt><trkpt lat="45.99563963506622" lon="12.034726457177703"><ele>541.0</ele><time>2026-05-03T05:13:47Z</time></trkpt><trkpt lat="45.99570522972181" lon="12.034797711707997"><ele>541.0</ele><time>2026-05-03T05:13:48Z</time></trkpt><trkpt lat="45.995780791815186" lon="12.034877758003713"><ele>541.0</ele><time>2026-05-03T05:13:49Z</time></trkpt><trkpt lat="45.99584357971702" lon="12.034949320838141"><ele>538.5</ele><time>2026-05-03T05:13:50Z</time></trkpt><trkpt lat="45.99589644066382" lon="12.035012885593698"><ele>536.0</ele><time>2026-05-03T05:13:51Z</time></trkpt><trkpt lat="45.995966755728375" lon="12.035061048452663"><ele>533.5</ele><time>2026-05-03T05:13:52Z</time></trkpt><trkpt lat="45.99604287811193" lon="12.035131259471337"><ele>531.0</ele><time>2026-05-03T05:13:54Z</time></trkpt><trkpt lat="45.99611343137265" lon="12.0351955813788"><ele>528.5</ele><time>2026-05-03T05:13:56Z</time></trkpt><trkpt lat="45.996105912489035" lon="12.035347241112131"><ele>526.0</ele><time>2026-05-03T05:13:59Z</time></trkpt><trkpt lat="45.99608761985288" lon="12.0354770135833"><ele>526.0</ele><time>2026-05-03T05:14:01Z</time></trkpt><trkpt lat="45.99609117801986" lon="12.035578088391727"><ele>526.0</ele><time>2026-05-03T05:14:02Z</time></trkpt><trkpt lat="45.99610987814481" lon="12.03571524554322"><ele>526.0</ele><time>2026-05-03T05:14:03Z</time></trkpt><trkpt lat="45.99611470526565" lon="12.035823794390756"><ele>526.0</ele><time>2026-05-03T05:14:04Z</time></trkpt><trkpt lat="45.99615065802066" lon="12.035943449618404"><ele>526.0</ele><time>2026-05-03T05:14:05Z</time></trkpt><trkpt lat="45.99617141595174" lon="12.036041690601754"><ele>526.0</ele><time>2026-05-03T05:14:06Z</time></trkpt><trkpt lat="45.99621331066221" lon="12.036156277637794"><ele>529.0</ele><time>2026-05-03T05:14:07Z</time></trkpt><trkpt lat="45.99625110887913" lon="12.036247981896047"><ele>532.0</ele><time>2026-05-03T05:14:08Z</time></trkpt><trkpt lat="45.996283467890336" lon="12.036349816769121"><ele>535.0</ele><time>2026-05-03T05:14:09Z</time></trkpt><trkpt lat="45.996355896649725" lon="12.03641978701844"><ele>538.0</ele><time>2026-05-03T05:14:10Z</time></trkpt><trkpt lat="45.99640055426477" lon="12.036577509070485"><ele>541.0</ele><time>2026-05-03T05:14:12Z</time></trkpt><trkpt lat="45.996432125343766" lon="12.03666494558075"><ele>544.0</ele><time>2026-05-03T05:14:13Z</time></trkpt><trkpt lat="45.99647063132904" lon="12.03683052941332"><ele>546.0</ele><time>2026-05-03T05:14:15Z</time></trkpt><trkpt lat="45.99652058751732" lon="12.036989166192905"><ele>548.0</ele><time>2026-05-03T05:14:17Z</time></trkpt><trkpt lat="45.996575830740284" lon="12.037153108162045"><ele>550.0</ele><time>2026-05-03T05:14:19Z</time></trkpt><trkpt lat="45.99659431960585" lon="12.03725578054808"><ele>552.0</ele><time>2026-05-03T05:14:20Z</time></trkpt><trkpt lat="45.99662384477604" lon="12.037351897941672"><ele>554.0</ele><time>2026-05-03T05:14:21Z</time></trkpt><trkpt lat="45.9966684011008" lon="12.037440060041892"><ele>553.6666666666666</ele><time>2026-05-03T05:14:22Z</time></trkpt><trkpt lat="45.99671305437564" lon="12.037530916474953"><ele>553.3333333333333</ele><time>2026-05-03T05:14:23Z</time></trkpt><trkpt lat="45.99672946498477" lon="12.03763151865774"><ele>553.0</ele><time>2026-05-03T05:14:24Z</time></trkpt><trkpt lat="45.996756092693644" lon="12.03772302388935"><ele>552.6666666666666</ele><time>2026-05-03T05:14:25Z</time></trkpt><trkpt lat="45.99678581586616" lon="12.037829816470277"><ele>552.3333333333334</ele><time>2026-05-03T05:14:27Z</time></trkpt><trkpt lat="45.99670130141267" lon="12.037924935536259"><ele>552.0</ele><time>2026-05-03T05:14:30Z</time></trkpt><trkpt lat="45.99661295492559" lon="12.037884190472203"><ele>552.0</ele><time>2026-05-03T05:14:32Z</time></trkpt><trkpt lat="45.99653587822658" lon="12.03791097197979"><ele>552.0</ele><time>2026-05-03T05:14:33Z</time></trkpt><trkpt lat="45.99642842598888" lon="12.03800399366347"><ele>552.0</ele><time>2026-05-03T05:14:35Z</time></trkpt><trkpt lat="45.996407178225276" lon="12.038111874379835"><ele>552.0</ele><time>2026-05-03T05:14:36Z</time></trkpt><trkpt lat="45.996473789656946" lon="12.038225345603268"><ele>552.0</ele><time>2026-05-03T05:14:37Z</time></trkpt><trkpt lat="45.99648816379874" lon="12.038393215133247"><ele>547.2</ele><time>2026-05-03T05:14:39Z</time></trkpt><trkpt lat="45.99649823838981" lon="12.038505787320211"><ele>542.4000000000001</ele><time>2026-05-03T05:14:41Z</time></trkpt><trkpt lat="45.996426532402154" lon="12.038549872084229"><ele>537.5999999999999</ele><time>2026-05-03T05:14:43Z</time></trkpt><trkpt lat="45.996359621205976" lon="12.038538681442647"><ele>532.8</ele><time>2026-05-03T05:14:44Z</time></trkpt><trkpt lat="45.99627825318725" lon="12.038646954351444"><ele>528.0</ele><time>2026-05-03T05:14:46Z</time></trkpt><trkpt lat="45.99625436638962" lon="12.038859950209533"><ele>528.0</ele><time>2026-05-03T05:14:48Z</time></trkpt><trkpt lat="45.99623187725836" lon="12.038982875466"><ele>528.0</ele><time>2026-05-03T05:14:50Z</time></trkpt><trkpt lat="45.99620154729726" lon="12.039071610361333"><ele>528.0</ele><time>2026-05-03T05:14:52Z</time></trkpt><trkpt lat="45.99612081921185" lon="12.039173728334276"><ele>528.0</ele><time>2026-05-03T05:14:55Z</time></trkpt><trkpt lat="45.9960806168887" lon="12.039257756232413"><ele>528.0</ele><time>2026-05-03T05:14:58Z</time></trkpt><trkpt lat="45.99605310649744" lon="12.039447491041217"><ele>526.5</ele><time>2026-05-03T05:14:59Z</time></trkpt><trkpt lat="45.99601448701224" lon="12.0395818666733"><ele>525.0</ele><time>2026-05-03T05:15:00Z</time></trkpt><trkpt lat="45.99597791217923" lon="12.039698281547555"><ele>523.5</ele><time>2026-05-03T05:15:01Z</time></trkpt><trkpt lat="45.99593989821181" lon="12.03980316225653"><ele>522.0</ele><time>2026-05-03T05:15:02Z</time></trkpt><trkpt lat="45.99590261829354" lon="12.039897145166082"><ele>520.5</ele><time>2026-05-03T05:15:03Z</time></trkpt><trkpt lat="45.995844511985084" lon="12.039998024508023"><ele>519.0</ele><time>2026-05-03T05:15:05Z</time></trkpt><trkpt lat="45.995792418907776" lon="12.040095026066217"><ele>519.0</ele><time>2026-05-03T05:15:06.999Z</time></trkpt><trkpt lat="45.99575953513983" lon="12.040201311325607"><ele>519.0</ele><time>2026-05-03T05:15:07.999Z</time></trkpt><trkpt lat="45.99586741278462" lon="12.040294651851921"><ele>519.0</ele><time>2026-05-03T05:15:08.999Z</time></trkpt><trkpt lat="45.995919842908854" lon="12.040371389683981"><ele>519.0</ele><time>2026-05-03T05:15:10.999Z</time></trkpt><trkpt lat="45.996021049112066" lon="12.040352271269736"><ele>519.0</ele><time>2026-05-03T05:15:12.999Z</time></trkpt><trkpt lat="45.99612877386804" lon="12.040245162296209"><ele>517.4</ele><time>2026-05-03T05:15:14.999Z</time></trkpt><trkpt lat="45.99620809768475" lon="12.040181458929132"><ele>515.8</ele><time>2026-05-03T05:15:16.999Z</time></trkpt><trkpt lat="45.99628960369086" lon="12.040234130581347"><ele>514.2</ele><time>2026-05-03T05:15:18.999Z</time></trkpt><trkpt lat="45.99635606287088" lon="12.040237609088319"><ele>512.6</ele><time>2026-05-03T05:15:19.999Z</time></trkpt><trkpt lat="45.9964109609354" lon="12.040134959183199"><ele>511.0</ele><time>2026-05-03T05:15:22.999Z</time></trkpt><trkpt lat="45.99647717323814" lon="12.039985207811581"><ele>509.83333333333337</ele><time>2026-05-03T05:15:24.999Z</time></trkpt><trkpt lat="45.99652784325507" lon="12.039869082339635"><ele>508.6666666666667</ele><time>2026-05-03T05:15:26Z</time></trkpt><trkpt lat="45.99657696740269" lon="12.03976759014311"><ele>507.5</ele><time>2026-05-03T05:15:27Z</time></trkpt><trkpt lat="45.99663001359286" lon="12.039671412076027"><ele>506.33333333333337</ele><time>2026-05-03T05:15:28Z</time></trkpt><trkpt lat="45.99667323925207" lon="12.039602010812576"><ele>505.1666666666667</ele><time>2026-05-03T05:15:29Z</time></trkpt><trkpt lat="45.996720162831835" lon="12.039530960966186"><ele>504.0</ele><time>2026-05-03T05:15:30Z</time></trkpt><trkpt lat="45.996775360476846" lon="12.039462598338408"><ele>503.79999999999995</ele><time>2026-05-03T05:15:31Z</time></trkpt><trkpt lat="45.99686952673264" lon="12.039387740159478"><ele>503.59999999999997</ele><time>2026-05-03T05:15:33Z</time></trkpt><trkpt lat="45.9969430171826" lon="12.039338760624803"><ele>503.4</ele><time>2026-05-03T05:15:34Z</time></trkpt><trkpt lat="45.997073258964214" lon="12.039292039849533"><ele>503.2</ele><time>2026-05-03T05:15:36Z</time></trkpt><trkpt lat="45.997179908313164" lon="12.039271143392046"><ele>503.0</ele><time>2026-05-03T05:15:38Z</time></trkpt><trkpt lat="45.997253897868866" lon="12.039243953751013"><ele>504.2</ele><time>2026-05-03T05:15:39Z</time></trkpt><trkpt lat="45.99737009872702" lon="12.03912739684038"><ele>505.4</ele><time>2026-05-03T05:15:41Z</time></trkpt><trkpt lat="45.99742567986766" lon="12.039042442062513"><ele>506.59999999999997</ele><time>2026-05-03T05:15:42Z</time></trkpt><trkpt lat="45.99752184889236" lon="12.038963378025516"><ele>507.79999999999995</ele><time>2026-05-03T05:15:44Z</time></trkpt><trkpt lat="45.9976046389479" lon="12.038928698904638"><ele>509.0</ele><time>2026-05-03T05:15:46Z</time></trkpt><trkpt lat="45.997683207846094" lon="12.03893520632332"><ele>505.16666666666663</ele><time>2026-05-03T05:15:47Z</time></trkpt><trkpt lat="45.99777597322119" lon="12.038951853599892"><ele>501.3333333333333</ele><time>2026-05-03T05:15:48Z</time></trkpt><trkpt lat="45.99786204496269" lon="12.038981699635144"><ele>497.5</ele><time>2026-05-03T05:15:49Z</time></trkpt><trkpt lat="45.99794510016938" lon="12.038994410982252"><ele>493.66666666666663</ele><time>2026-05-03T05:15:50Z</time></trkpt><trkpt lat="45.998017389655814" lon="12.038993330641109"><ele>489.8333333333333</ele><time>2026-05-03T05:15:51Z</time></trkpt><trkpt lat="45.998101732826704" lon="12.038988787661923"><ele>486.0</ele><time>2026-05-03T05:15:52Z</time></trkpt><trkpt lat="45.99819114756558" lon="12.038973943014703"><ele>486.0</ele><time>2026-05-03T05:15:53Z</time></trkpt><trkpt lat="45.99828478361392" lon="12.038902029225383"><ele>486.0</ele><time>2026-05-03T05:15:55Z</time></trkpt><trkpt lat="45.99833535994853" lon="12.03881641562379"><ele>486.0</ele><time>2026-05-03T05:15:56Z</time></trkpt><trkpt lat="45.998423316420656" lon="12.038768290018062"><ele>486.0</ele><time>2026-05-03T05:15:57Z</time></trkpt><trkpt lat="45.9984921994081" lon="12.0386858559628"><ele>486.0</ele><time>2026-05-03T05:15:58Z</time></trkpt><trkpt lat="45.998564879448644" lon="12.038646714973549"><ele>486.0</ele><time>2026-05-03T05:15:59Z</time></trkpt><trkpt lat="45.9986404814962" lon="12.03858781449038"><ele>486.4</ele><time>2026-05-03T05:16:00Z</time></trkpt><trkpt lat="45.99870582935356" lon="12.03851938178289"><ele>486.8</ele><time>2026-05-03T05:16:01Z</time></trkpt><trkpt lat="45.99881300867569" lon="12.038467661170234"><ele>487.19999999999993</ele><time>2026-05-03T05:16:03Z</time></trkpt><trkpt lat="45.998906853974844" lon="12.038414619290462"><ele>487.59999999999997</ele><time>2026-05-03T05:16:05Z</time></trkpt><trkpt lat="45.99899104250391" lon="12.038403111945689"><ele>488.0</ele><time>2026-05-03T05:16:07Z</time></trkpt><trkpt lat="45.99908232526636" lon="12.038443043168604"><ele>486.59999999999997</ele><time>2026-05-03T05:16:09Z</time></trkpt><trkpt lat="45.99919504565082" lon="12.038497230275995"><ele>485.19999999999993</ele><time>2026-05-03T05:16:11Z</time></trkpt><trkpt lat="45.99926807784918" lon="12.03852845904819"><ele>483.8</ele><time>2026-05-03T05:16:12Z</time></trkpt><trkpt lat="45.99933640540275" lon="12.038523378050993"><ele>482.4</ele><time>2026-05-03T05:16:13Z</time></trkpt><trkpt lat="45.99949356601577" lon="12.038487072213519"><ele>481.0</ele><time>2026-05-03T05:16:15Z</time></trkpt><trkpt lat="45.99959270851407" lon="12.038463637659342"><ele>481.00000000000006</ele><time>2026-05-03T05:16:17Z</time></trkpt><trkpt lat="45.999676986989726" lon="12.038517789867186"><ele>481.0</ele><time>2026-05-03T05:16:20Z</time></trkpt><trkpt lat="45.99971035210242" lon="12.038622598027073"><ele>481.0</ele><time>2026-05-03T05:16:22Z</time></trkpt><trkpt lat="45.999704406256186" lon="12.038806276759699"><ele>481.0</ele><time>2026-05-03T05:16:24Z</time></trkpt><trkpt lat="45.999733140804494" lon="12.038893076916901"><ele>481.00000000000006</ele><time>2026-05-03T05:16:25Z</time></trkpt><trkpt lat="45.999749983671" lon="12.0390039297867"><ele>481.0</ele><time>2026-05-03T05:16:28Z</time></trkpt><trkpt lat="45.9998258374506" lon="12.039045764788565"><ele>481.00000000000006</ele><time>2026-05-03T05:16:30Z</time></trkpt><trkpt lat="45.99990849084818" lon="12.038987860091233"><ele>481.0</ele><time>2026-05-03T05:16:32Z</time></trkpt><trkpt lat="46.00001135370034" lon="12.038934082696734"><ele>481.0</ele><time>2026-05-03T05:16:34Z</time></trkpt><trkpt lat="46.000068691080095" lon="12.038889633717721"><ele>481.0</ele><time>2026-05-03T05:16:35Z</time></trkpt><trkpt lat="46.00013416288007" lon="12.038850099948041"><ele>481.00000000000006</ele><time>2026-05-03T05:16:36Z</time></trkpt><trkpt lat="46.00020777397454" lon="12.038823624539422"><ele>481.0</ele><time>2026-05-03T05:16:37Z</time></trkpt><trkpt lat="46.0002903677949" lon="12.038782160453023"><ele>481.0</ele><time>2026-05-03T05:16:38Z</time></trkpt><trkpt lat="46.0003684721401" lon="12.038750798937558"><ele>481.0</ele><time>2026-05-03T05:16:39Z</time></trkpt><trkpt lat="46.00046326691266" lon="12.038680463796092"><ele>481.0</ele><time>2026-05-03T05:16:41Z</time></trkpt><trkpt lat="46.000517228000014" lon="12.038612220164413"><ele>481.0</ele><time>2026-05-03T05:16:43Z</time></trkpt><trkpt lat="46.000619447431234" lon="12.038617611371288"><ele>481.0</ele><time>2026-05-03T05:16:46Z</time></trkpt><trkpt lat="46.00069905863214" lon="12.038724570229846"><ele>481.0</ele><time>2026-05-03T05:16:48Z</time></trkpt><trkpt lat="46.00075982543398" lon="12.038864891753747"><ele>481.0</ele><time>2026-05-03T05:16:50Z</time></trkpt><trkpt lat="46.00080095491562" lon="12.039008974273072"><ele>481.0</ele><time>2026-05-03T05:16:52Z</time></trkpt><trkpt lat="46.00086542884952" lon="12.039110971214875"><ele>481.0</ele><time>2026-05-03T05:16:54Z</time></trkpt><trkpt lat="46.00097288125983" lon="12.039142414924935"><ele>481.0</ele><time>2026-05-03T05:16:56Z</time></trkpt><trkpt lat="46.001047351275155" lon="12.039137774601322"><ele>481.0</ele><time>2026-05-03T05:16:57Z</time></trkpt><trkpt lat="46.00111584712987" lon="12.039108762115637"><ele>481.0</ele><time>2026-05-03T05:16:58.999Z</time></trkpt><trkpt lat="46.00121116565504" lon="12.039126302183027"><ele>481.0</ele><time>2026-05-03T05:17:01.999Z</time></trkpt><trkpt lat="46.001283536924575" lon="12.039202954386319"><ele>481.0</ele><time>2026-05-03T05:17:03.999Z</time></trkpt><trkpt lat="46.00138016695511" lon="12.039203200844849"><ele>481.0</ele><time>2026-05-03T05:17:05.999Z</time></trkpt><trkpt lat="46.001479493042375" lon="12.039121472189404"><ele>481.00000000000006</ele><time>2026-05-03T05:17:07.999Z</time></trkpt><trkpt lat="46.00154235607468" lon="12.039069586124455"><ele>481.0</ele><time>2026-05-03T05:17:08.999Z</time></trkpt><trkpt lat="46.001625783382124" lon="12.039098421631818"><ele>481.0</ele><time>2026-05-03T05:17:10.999Z</time></trkpt><trkpt lat="46.001695654376235" lon="12.039128380396685"><ele>481.0</ele><time>2026-05-03T05:17:12.999Z</time></trkpt><trkpt lat="46.001758199570176" lon="12.039157220726835"><ele>481.00000000000006</ele><time>2026-05-03T05:17:13.999Z</time></trkpt><trkpt lat="46.00184541868097" lon="12.039251321896897"><ele>481.0</ele><time>2026-05-03T05:17:15.999Z</time></trkpt><trkpt lat="46.0018673428232" lon="12.039338554936448"><ele>486.6</ele><time>2026-05-03T05:17:17.999Z</time></trkpt><trkpt lat="46.00189999995789" lon="12.03943047094453"><ele>492.20000000000005</ele><time>2026-05-03T05:17:19.999Z</time></trkpt><trkpt lat="46.001973495779495" lon="12.039565558609517"><ele>497.79999999999995</ele><time>2026-05-03T05:17:21.999Z</time></trkpt><trkpt lat="46.002066110219616" lon="12.039632210632172"><ele>503.4</ele><time>2026-05-03T05:17:23.999Z</time></trkpt><trkpt lat="46.00218552513867" lon="12.039625254189499"><ele>509.0</ele><time>2026-05-03T05:17:25.999Z</time></trkpt><trkpt lat="46.00227014098525" lon="12.039561617623955"><ele>508.99999999999994</ele><time>2026-05-03T05:17:26.999Z</time></trkpt><trkpt lat="46.00234592414657" lon="12.039556968832548"><ele>509.0</ele><time>2026-05-03T05:17:27.999Z</time></trkpt><trkpt lat="46.00241458940641" lon="12.039508693147658"><ele>509.0</ele><time>2026-05-03T05:17:28.999Z</time></trkpt><trkpt lat="46.00249479420282" lon="12.039516907947462"><ele>509.0</ele><time>2026-05-03T05:17:29.999Z</time></trkpt><trkpt lat="46.00256676387969" lon="12.039508728296804"><ele>508.99999999999994</ele><time>2026-05-03T05:17:30.999Z</time></trkpt><trkpt lat="46.00265450244344" lon="12.039536711582464"><ele>509.0</ele><time>2026-05-03T05:17:32Z</time></trkpt><trkpt lat="46.002725761279095" lon="12.0395250083275"><ele>508.16666666666663</ele><time>2026-05-03T05:17:33Z</time></trkpt><trkpt lat="46.00278913625721" lon="12.039506408910434"><ele>507.3333333333333</ele><time>2026-05-03T05:17:34Z</time></trkpt><trkpt lat="46.00287731442298" lon="12.039502530800227"><ele>506.5</ele><time>2026-05-03T05:17:36Z</time></trkpt><trkpt lat="46.00295437665373" lon="12.039558766802978"><ele>505.66666666666663</ele><time>2026-05-03T05:17:38Z</time></trkpt><trkpt lat="46.00304590128775" lon="12.039657142879397"><ele>504.8333333333333</ele><time>2026-05-03T05:17:40Z</time></trkpt><trkpt lat="46.00309935169185" lon="12.039718898389596"><ele>504.0</ele><time>2026-05-03T05:17:41Z</time></trkpt><trkpt lat="46.00316279952361" lon="12.039780526262742"><ele>504.0</ele><time>2026-05-03T05:17:42Z</time></trkpt><trkpt lat="46.00322972335054" lon="12.039848447443543"><ele>504.0</ele><time>2026-05-03T05:17:43Z</time></trkpt><trkpt lat="46.003312445868595" lon="12.039910692734065"><ele>504.0</ele><time>2026-05-03T05:17:44Z</time></trkpt><trkpt lat="46.00339464333161" lon="12.039994819348516"><ele>504.0</ele><time>2026-05-03T05:17:45Z</time></trkpt><trkpt lat="46.0034715460459" lon="12.040072692596658"><ele>504.0</ele><time>2026-05-03T05:17:46Z</time></trkpt><trkpt lat="46.003555959352944" lon="12.040142415455747"><ele>509.4</ele><time>2026-05-03T05:17:47Z</time></trkpt><trkpt lat="46.00364021579947" lon="12.040195110894253"><ele>514.8</ele><time>2026-05-03T05:17:48Z</time></trkpt><trkpt lat="46.00370518882187" lon="12.040232619642712"><ele>520.2</ele><time>2026-05-03T05:17:49Z</time></trkpt><trkpt lat="46.003814881932655" lon="12.04029344363168"><ele>525.6</ele><time>2026-05-03T05:17:51Z</time></trkpt><trkpt lat="46.00389164267899" lon="12.040373494225536"><ele>531.0</ele><time>2026-05-03T05:17:53Z</time></trkpt><trkpt lat="46.00399406933329" lon="12.040374309911162"><ele>531.0</ele><time>2026-05-03T05:17:55Z</time></trkpt><trkpt lat="46.00411293003348" lon="12.040442679448484"><ele>531.0</ele><time>2026-05-03T05:17:57Z</time></trkpt><trkpt lat="46.004248603170026" lon="12.040497964337186"><ele>531.0</ele><time>2026-05-03T05:17:59Z</time></trkpt><trkpt lat="46.00431561541729" lon="12.04050954375757"><ele>531.0</ele><time>2026-05-03T05:18:00Z</time></trkpt><trkpt lat="46.00439441027773" lon="12.040523169648377"><ele>531.0</ele><time>2026-05-03T05:18:01Z</time></trkpt><trkpt lat="46.00453138041986" lon="12.040512653802525"><ele>526.4</ele><time>2026-05-03T05:18:03Z</time></trkpt><trkpt lat="46.00459769845222" lon="12.040490992985719"><ele>521.8</ele><time>2026-05-03T05:18:04Z</time></trkpt><trkpt lat="46.00467508892221" lon="12.040480015235637"><ele>517.1999999999999</ele><time>2026-05-03T05:18:05Z</time></trkpt><trkpt lat="46.00474056198854" lon="12.040496133500135"><ele>512.6</ele><time>2026-05-03T05:18:06Z</time></trkpt><trkpt lat="46.00485077856581" lon="12.040529218085764"><ele>508.0</ele><time>2026-05-03T05:18:08Z</time></trkpt><trkpt lat="46.00496769560885" lon="12.040601896959718"><ele>505.4</ele><time>2026-05-03T05:18:10Z</time></trkpt><trkpt lat="46.00504553236467" lon="12.040695790528542"><ele>502.79999999999995</ele><time>2026-05-03T05:18:12Z</time></trkpt><trkpt lat="46.005102276976636" lon="12.040792095378912"><ele>500.2</ele><time>2026-05-03T05:18:15Z</time></trkpt><trkpt lat="46.00514507686214" lon="12.040931483105789"><ele>497.6</ele><time>2026-05-03T05:18:18Z</time></trkpt><trkpt lat="46.0051296077759" lon="12.04108058286835"><ele>495.0</ele><time>2026-05-03T05:18:19Z</time></trkpt><trkpt lat="46.005121786091856" lon="12.041212938091725"><ele>501.0</ele><time>2026-05-03T05:18:20Z</time></trkpt><trkpt lat="46.0050980535551" lon="12.041360882517248"><ele>507.0</ele><time>2026-05-03T05:18:21Z</time></trkpt><trkpt lat="46.00508296520507" lon="12.041476241269102"><ele>513.0</ele><time>2026-05-03T05:18:22Z</time></trkpt><trkpt lat="46.00506763238413" lon="12.041585571074215"><ele>519.0</ele><time>2026-05-03T05:18:23Z</time></trkpt><trkpt lat="46.00506377507968" lon="12.04170841057261"><ele>525.0</ele><time>2026-05-03T05:18:25Z</time></trkpt><trkpt lat="46.00502693521347" lon="12.041782579583096"><ele>531.0</ele><time>2026-05-03T05:18:27Z</time></trkpt><trkpt lat="46.0050957611805" lon="12.041834310150803"><ele>535.6666666666666</ele><time>2026-05-03T05:18:29Z</time></trkpt><trkpt lat="46.00519377694579" lon="12.04175837316272"><ele>540.3333333333334</ele><time>2026-05-03T05:18:31Z</time></trkpt><trkpt lat="46.00530512139023" lon="12.0417689760448"><ele>545.0</ele><time>2026-05-03T05:18:32Z</time></trkpt><trkpt lat="46.005378160102296" lon="12.041757275330871"><ele>549.6666666666667</ele><time>2026-05-03T05:18:33Z</time></trkpt><trkpt lat="46.00544835298889" lon="12.04181449647919"><ele>554.3333333333334</ele><time>2026-05-03T05:18:34Z</time></trkpt><trkpt lat="46.005518318330424" lon="12.041794182011634"><ele>559.0</ele><time>2026-05-03T05:18:35Z</time></trkpt><trkpt lat="46.00558218196913" lon="12.041775760224315"><ele>559.0</ele><time>2026-05-03T05:18:36Z</time></trkpt><trkpt lat="46.00569959838489" lon="12.041756989545416"><ele>559.0</ele><time>2026-05-03T05:18:37Z</time></trkpt><trkpt lat="46.005772041837716" lon="12.04173277584121"><ele>559.0</ele><time>2026-05-03T05:18:38Z</time></trkpt><trkpt lat="46.005838724728626" lon="12.041725194985268"><ele>559.0</ele><time>2026-05-03T05:18:39Z</time></trkpt><trkpt lat="46.005908364036316" lon="12.041720635512227"><ele>559.0</ele><time>2026-05-03T05:18:40Z</time></trkpt><trkpt lat="46.00598020865417" lon="12.041713929166127"><ele>559.0</ele><time>2026-05-03T05:18:41Z</time></trkpt><trkpt lat="46.00605883211086" lon="12.041700345015824"><ele>555.4</ele><time>2026-05-03T05:18:42Z</time></trkpt><trkpt lat="46.00616967064277" lon="12.041636505482753"><ele>551.8</ele><time>2026-05-03T05:18:44Z</time></trkpt><trkpt lat="46.00624983269753" lon="12.04161707264216"><ele>548.2</ele><time>2026-05-03T05:18:46Z</time></trkpt><trkpt lat="46.00635448214023" lon="12.04162784890472"><ele>544.6</ele><time>2026-05-03T05:18:48Z</time></trkpt><trkpt lat="46.00646195690051" lon="12.04166720062158"><ele>541.0</ele><time>2026-05-03T05:18:50Z</time></trkpt><trkpt lat="46.006575535180204" lon="12.041728487131085"><ele>541.0</ele><time>2026-05-03T05:18:52Z</time></trkpt><trkpt lat="46.006635394853895" lon="12.041761183897853"><ele>541.0</ele><time>2026-05-03T05:18:53Z</time></trkpt><trkpt lat="46.00670037151222" lon="12.041799521640096"><ele>541.0</ele><time>2026-05-03T05:18:54Z</time></trkpt><trkpt lat="46.00676057164734" lon="12.041863957044534"><ele>541.0</ele><time>2026-05-03T05:18:55Z</time></trkpt><trkpt lat="46.00683279635281" lon="12.041937607681978"><ele>541.0</ele><time>2026-05-03T05:18:56Z</time></trkpt><trkpt lat="46.00691826610929" lon="12.04201589933548"><ele>541.0</ele><time>2026-05-03T05:18:57Z</time></trkpt><trkpt lat="46.00700420137523" lon="12.04208529129783"><ele>539.5</ele><time>2026-05-03T05:18:58Z</time></trkpt><trkpt lat="46.0070632060849" lon="12.042151004725408"><ele>538.0</ele><time>2026-05-03T05:18:59Z</time></trkpt><trkpt lat="46.00712376091851" lon="12.042217179898493"><ele>536.5</ele><time>2026-05-03T05:19:00Z</time></trkpt><trkpt lat="46.0071788077766" lon="12.042281343897189"><ele>535.0</ele><time>2026-05-03T05:19:01Z</time></trkpt><trkpt lat="46.00726735634587" lon="12.042392565335632"><ele>533.5</ele><time>2026-05-03T05:19:03Z</time></trkpt><trkpt lat="46.00729650991274" lon="12.042510313811052"><ele>532.0</ele><time>2026-05-03T05:19:05Z</time></trkpt><trkpt lat="46.00729585394442" lon="12.042611846397227"><ele>535.6</ele><time>2026-05-03T05:19:07Z</time></trkpt><trkpt lat="46.007277077432484" lon="12.042806376116062"><ele>539.2</ele><time>2026-05-03T05:19:09Z</time></trkpt><trkpt lat="46.00725911967942" lon="12.042925086668316"><ele>542.8</ele><time>2026-05-03T05:19:10Z</time></trkpt><trkpt lat="46.007240601132985" lon="12.043047504453362"><ele>546.4</ele><time>2026-05-03T05:19:11Z</time></trkpt><trkpt lat="46.007236357426336" lon="12.043177065635376"><ele>550.0</ele><time>2026-05-03T05:19:13Z</time></trkpt><trkpt lat="46.00726857999231" lon="12.043260952240576"><ele>550.0</ele><time>2026-05-03T05:19:15Z</time></trkpt><trkpt lat="46.00737503809664" lon="12.043243926433112"><ele>550.0</ele><time>2026-05-03T05:19:17Z</time></trkpt><trkpt lat="46.00744442364231" lon="12.043334612957498"><ele>550.0</ele><time>2026-05-03T05:19:19Z</time></trkpt><trkpt lat="46.00752614030127" lon="12.04342335504409"><ele>550.0</ele><time>2026-05-03T05:19:21Z</time></trkpt><trkpt lat="46.00755934626553" lon="12.04350703976508"><ele>550.0</ele><time>2026-05-03T05:19:21.999Z</time></trkpt><trkpt lat="46.0075886428888" lon="12.043599557347072"><ele>550.0</ele><time>2026-05-03T05:19:22.999Z</time></trkpt><trkpt lat="46.00760066289171" lon="12.043717102901745"><ele>548.8333333333334</ele><time>2026-05-03T05:19:23.999Z</time></trkpt><trkpt lat="46.00764834397857" lon="12.043824643501035"><ele>547.6666666666667</ele><time>2026-05-03T05:19:24.999Z</time></trkpt><trkpt lat="46.00770793920581" lon="12.043904363135892"><ele>546.5</ele><time>2026-05-03T05:19:25.999Z</time></trkpt><trkpt lat="46.00773223417495" lon="12.044011171313524"><ele>545.3333333333334</ele><time>2026-05-03T05:19:26.999Z</time></trkpt><trkpt lat="46.0077521704894" lon="12.044098394327587"><ele>544.1666666666666</ele><time>2026-05-03T05:19:27.999Z</time></trkpt><trkpt lat="46.00777433944707" lon="12.0442030165699"><ele>543.0</ele><time>2026-05-03T05:19:28.999Z</time></trkpt><trkpt lat="46.00779786139994" lon="12.044326261720363"><ele>543.0</ele><time>2026-05-03T05:19:29.999Z</time></trkpt><trkpt lat="46.00781630699575" lon="12.044456467640948"><ele>543.0</ele><time>2026-05-03T05:19:31.999Z</time></trkpt><trkpt lat="46.00781475122329" lon="12.044559000556585"><ele>543.0</ele><time>2026-05-03T05:19:33.999Z</time></trkpt><trkpt lat="46.007760802603265" lon="12.04467630573527"><ele>543.0</ele><time>2026-05-03T05:19:35.999Z</time></trkpt><trkpt lat="46.00769160486897" lon="12.044845021657592"><ele>543.0</ele><time>2026-05-03T05:19:36.999Z</time></trkpt><trkpt lat="46.00766246398913" lon="12.045000703488155"><ele>544.0</ele><time>2026-05-03T05:19:39Z</time></trkpt><trkpt lat="46.00768709418174" lon="12.04509784377941"><ele>545.0</ele><time>2026-05-03T05:19:40Z</time></trkpt><trkpt lat="46.007735820059885" lon="12.04519569355594"><ele>546.0</ele><time>2026-05-03T05:19:41Z</time></trkpt><trkpt lat="46.0077991882695" lon="12.045289309516008"><ele>547.0</ele><time>2026-05-03T05:19:42Z</time></trkpt><trkpt lat="46.00787101762919" lon="12.045372432779988"><ele>548.0</ele><time>2026-05-03T05:19:43Z</time></trkpt><trkpt lat="46.007929681653415" lon="12.045449633307092"><ele>549.0</ele><time>2026-05-03T05:19:44Z</time></trkpt><trkpt lat="46.007978239637616" lon="12.045528454461005"><ele>549.0</ele><time>2026-05-03T05:19:45Z</time></trkpt><trkpt lat="46.00803873666516" lon="12.045577777815094"><ele>549.0</ele><time>2026-05-03T05:19:46Z</time></trkpt><trkpt lat="46.00806884962021" lon="12.045658157494355"><ele>549.0</ele><time>2026-05-03T05:19:47Z</time></trkpt><trkpt lat="46.00810728677517" lon="12.045731522345134"><ele>549.0</ele><time>2026-05-03T05:19:48Z</time></trkpt><trkpt lat="46.00816779326935" lon="12.045856977805787"><ele>549.0</ele><time>2026-05-03T05:19:50Z</time></trkpt><trkpt lat="46.008178075623434" lon="12.045974644317731"><ele>549.0</ele><time>2026-05-03T05:19:52Z</time></trkpt><trkpt lat="46.00815334867644" lon="12.046127330024943"><ele>550.3333333333334</ele><time>2026-05-03T05:19:54Z</time></trkpt><trkpt lat="46.00813435109375" lon="12.046219014739423"><ele>551.6666666666666</ele><time>2026-05-03T05:19:55Z</time></trkpt><trkpt lat="46.00812946708127" lon="12.046333062557357"><ele>553.0</ele><time>2026-05-03T05:19:56Z</time></trkpt><trkpt lat="46.00814655831934" lon="12.046446249805465"><ele>554.3333333333333</ele><time>2026-05-03T05:19:57Z</time></trkpt><trkpt lat="46.00814234626937" lon="12.046549101939764"><ele>555.6666666666666</ele><time>2026-05-03T05:19:58Z</time></trkpt><trkpt lat="46.00809092776782" lon="12.046694485153193"><ele>557.0</ele><time>2026-05-03T05:20:00Z</time></trkpt><trkpt lat="46.00806403315358" lon="12.046800258029107"><ele>558.8000000000001</ele><time>2026-05-03T05:20:01Z</time></trkpt><trkpt lat="46.0080194404821" lon="12.04702000462269"><ele>560.6</ele><time>2026-05-03T05:20:02Z</time></trkpt><trkpt lat="46.007966582717046" lon="12.047136202842422"><ele>562.4000000000001</ele><time>2026-05-03T05:20:04Z</time></trkpt><trkpt lat="46.00795810929047" lon="12.047270989517855"><ele>564.2</ele><time>2026-05-03T05:20:06Z</time></trkpt><trkpt lat="46.007993359857" lon="12.047361300935316"><ele>566.0</ele><time>2026-05-03T05:20:08Z</time></trkpt><trkpt lat="46.008054089874534" lon="12.047409678752741"><ele>566.0</ele><time>2026-05-03T05:20:10Z</time></trkpt><trkpt lat="46.008194250162624" lon="12.047437758443065"><ele>566.0</ele><time>2026-05-03T05:20:12Z</time></trkpt><trkpt lat="46.00827885068324" lon="12.047463966241644"><ele>566.0</ele><time>2026-05-03T05:20:13Z</time></trkpt><trkpt lat="46.00834244782457" lon="12.0474838185363"><ele>566.0</ele><time>2026-05-03T05:20:14Z</time></trkpt><trkpt lat="46.008425805318225" lon="12.047497680474896"><ele>566.0</ele><time>2026-05-03T05:20:15Z</time></trkpt><trkpt lat="46.00850193847802" lon="12.047523955764609"><ele>560.5</ele><time>2026-05-03T05:20:16Z</time></trkpt><trkpt lat="46.00856830405574" lon="12.047548535041743"><ele>555.0</ele><time>2026-05-03T05:20:17Z</time></trkpt><trkpt lat="46.008642449391594" lon="12.04757998657047"><ele>549.5</ele><time>2026-05-03T05:20:18Z</time></trkpt><trkpt lat="46.008712277097615" lon="12.047605255000516"><ele>544.0</ele><time>2026-05-03T05:20:19Z</time></trkpt><trkpt lat="46.00881142353058" lon="12.047673803747776"><ele>538.5</ele><time>2026-05-03T05:20:21Z</time></trkpt><trkpt lat="46.0089028903447" lon="12.047769854491287"><ele>533.0</ele><time>2026-05-03T05:20:23Z</time></trkpt><trkpt lat="46.00892925535459" lon="12.04788296461267"><ele>533.0</ele><time>2026-05-03T05:20:24Z</time></trkpt><trkpt lat="46.00896175722172" lon="12.047970553299816"><ele>533.0</ele><time>2026-05-03T05:20:25Z</time></trkpt><trkpt lat="46.009031953070256" lon="12.04814244349948"><ele>533.0</ele><time>2026-05-03T05:20:27Z</time></trkpt><trkpt lat="46.00908239896705" lon="12.048229534921706"><ele>533.0</ele><time>2026-05-03T05:20:28Z</time></trkpt><trkpt lat="46.009105034190256" lon="12.048351545101527"><ele>533.0</ele><time>2026-05-03T05:20:29Z</time></trkpt><trkpt lat="46.009131883041995" lon="12.048456659283776"><ele>536.8333333333333</ele><time>2026-05-03T05:20:30Z</time></trkpt><trkpt lat="46.009149299844495" lon="12.04854969055508"><ele>540.6666666666666</ele><time>2026-05-03T05:20:31Z</time></trkpt><trkpt lat="46.00913185739856" lon="12.048647704879741"><ele>544.5</ele><time>2026-05-03T05:20:32Z</time></trkpt><trkpt lat="46.00912287720112" lon="12.04875324648244"><ele>548.3333333333334</ele><time>2026-05-03T05:20:33Z</time></trkpt><trkpt lat="46.009101955691754" lon="12.048887107498784"><ele>552.1666666666667</ele><time>2026-05-03T05:20:35Z</time></trkpt><trkpt lat="46.00911185488014" lon="12.04897844279912"><ele>556.0</ele><time>2026-05-03T05:23:25Z</time></trkpt><trkpt lat="46.00914546849882" lon="12.049110960137556"><ele>552.6</ele><time>2026-05-03T05:23:27Z</time></trkpt><trkpt lat="46.009181156463356" lon="12.049211753286722"><ele>549.2</ele><time>2026-05-03T05:23:28Z</time></trkpt><trkpt lat="46.009237003064676" lon="12.049310416541728"><ele>545.8</ele><time>2026-05-03T05:23:29Z</time></trkpt><trkpt lat="46.0093091089476" lon="12.049407322297567"><ele>542.4</ele><time>2026-05-03T05:23:30Z</time></trkpt><trkpt lat="46.00940157225095" lon="12.04951096654538"><ele>539.0</ele><time>2026-05-03T05:23:31Z</time></trkpt><trkpt lat="46.009497413683924" lon="12.04961299312461"><ele>539.0</ele><time>2026-05-03T05:23:32Z</time></trkpt><trkpt lat="46.00958456386389" lon="12.049709872689567"><ele>539.0</ele><time>2026-05-03T05:23:33Z</time></trkpt><trkpt lat="46.00965340192686" lon="12.04983990106637"><ele>539.0</ele><time>2026-05-03T05:23:33.999Z</time></trkpt><trkpt lat="46.00973991038823" lon="12.049922175855492"><ele>539.0</ele><time>2026-05-03T05:23:34.999Z</time></trkpt><trkpt lat="46.00983622328919" lon="12.050003238667616"><ele>539.0</ele><time>2026-05-03T05:23:35.999Z</time></trkpt><trkpt lat="46.00991903935634" lon="12.050103890176413"><ele>535.0</ele><time>2026-05-03T05:23:36.999Z</time></trkpt><trkpt lat="46.00999825489101" lon="12.050213077280244"><ele>531.0</ele><time>2026-05-03T05:23:37.999Z</time></trkpt><trkpt lat="46.01006267092104" lon="12.050291318323943"><ele>527.0</ele><time>2026-05-03T05:23:38.999Z</time></trkpt><trkpt lat="46.010137176908366" lon="12.050364459063651"><ele>523.0</ele><time>2026-05-03T05:23:39.999Z</time></trkpt><trkpt lat="46.01021841838495" lon="12.050432960986265"><ele>519.0</ele><time>2026-05-03T05:23:40.999Z</time></trkpt><trkpt lat="46.01028719415863" lon="12.05048858840343"><ele>519.0</ele><time>2026-05-03T05:23:41.999Z</time></trkpt><trkpt lat="46.01038067900101" lon="12.050559268818226"><ele>519.0</ele><time>2026-05-03T05:23:42.999Z</time></trkpt><trkpt lat="46.01047459555332" lon="12.05060572912507"><ele>519.0</ele><time>2026-05-03T05:23:43.999Z</time></trkpt><trkpt lat="46.010566310484506" lon="12.050654150604162"><ele>519.0</ele><time>2026-05-03T05:23:44.999Z</time></trkpt><trkpt lat="46.01065862109854" lon="12.050692230789114"><ele>519.0</ele><time>2026-05-03T05:23:45.999Z</time></trkpt><trkpt lat="46.01076124543221" lon="12.050715018658464"><ele>518.3333333333334</ele><time>2026-05-03T05:23:46.999Z</time></trkpt><trkpt lat="46.010853491012206" lon="12.05072843293299"><ele>517.6666666666666</ele><time>2026-05-03T05:23:47.999Z</time></trkpt><trkpt lat="46.010934390592105" lon="12.050753124079598"><ele>517.0</ele><time>2026-05-03T05:23:48.999Z</time></trkpt><trkpt lat="46.01101114285623" lon="12.050775618597843"><ele>516.3333333333333</ele><time>2026-05-03T05:23:50Z</time></trkpt><trkpt lat="46.01109845779184" lon="12.050825841529747"><ele>515.6666666666666</ele><time>2026-05-03T05:23:52Z</time></trkpt><trkpt lat="46.01116653667447" lon="12.050833752687518"><ele>515.0</ele><time>2026-05-03T05:23:53Z</time></trkpt><trkpt lat="46.011240121386514" lon="12.050849062768771"><ele>515.0</ele><time>2026-05-03T05:23:54Z</time></trkpt><trkpt lat="46.01132877290444" lon="12.050864836045703"><ele>515.0</ele><time>2026-05-03T05:23:55Z</time></trkpt><trkpt lat="46.01143822636684" lon="12.05086702335299"><ele>515.0</ele><time>2026-05-03T05:23:56Z</time></trkpt><trkpt lat="46.011542296601725" lon="12.050861320676098"><ele>515.0</ele><time>2026-05-03T05:23:57Z</time></trkpt><trkpt lat="46.01163548321662" lon="12.050864568347036"><ele>515.0</ele><time>2026-05-03T05:23:58Z</time></trkpt><trkpt lat="46.01171076107704" lon="12.050905848618383"><ele>512.8333333333333</ele><time>2026-05-03T05:23:59Z</time></trkpt><trkpt lat="46.01181946058523" lon="12.050945525890551"><ele>510.66666666666663</ele><time>2026-05-03T05:24:01Z</time></trkpt><trkpt lat="46.01188145717722" lon="12.050881228084652"><ele>508.5</ele><time>2026-05-03T05:24:03Z</time></trkpt><trkpt lat="46.011838788473355" lon="12.050800168260777"><ele>506.33333333333337</ele><time>2026-05-03T05:24:04Z</time></trkpt><trkpt lat="46.01176822924858" lon="12.050752799471823"><ele>504.1666666666667</ele><time>2026-05-03T05:24:05Z</time></trkpt><trkpt lat="46.011683549136364" lon="12.050716280554413"><ele>502.0</ele><time>2026-05-03T05:24:06Z</time></trkpt><trkpt lat="46.01160319032511" lon="12.050633469104374"><ele>501.50000000000006</ele><time>2026-05-03T05:24:07Z</time></trkpt><trkpt lat="46.01152683549275" lon="12.050556930591245"><ele>501.0</ele><time>2026-05-03T05:24:08Z</time></trkpt><trkpt lat="46.01144612422593" lon="12.050488512082946"><ele>500.5</ele><time>2026-05-03T05:24:09Z</time></trkpt><trkpt lat="46.01139039140766" lon="12.050439266904695"><ele>500.0</ele><time>2026-05-03T05:24:10Z</time></trkpt><trkpt lat="46.011359847150565" lon="12.050343859549175"><ele>499.50000000000006</ele><time>2026-05-03T05:24:12Z</time></trkpt><trkpt lat="46.011440477117326" lon="12.050325275536661"><ele>499.0</ele><time>2026-05-03T05:24:14Z</time></trkpt><trkpt lat="46.01149392174618" lon="12.050441743628731"><ele>499.00000000000006</ele><time>2026-05-03T05:24:15Z</time></trkpt><trkpt lat="46.01157359924912" lon="12.05047984325068"><ele>499.0</ele><time>2026-05-03T05:24:16Z</time></trkpt><trkpt lat="46.01166228375753" lon="12.050497790437637"><ele>499.0</ele><time>2026-05-03T05:24:17Z</time></trkpt><trkpt lat="46.01174338113463" lon="12.050484754031816"><ele>499.0</ele><time>2026-05-03T05:24:18Z</time></trkpt><trkpt lat="46.011816328635575" lon="12.05051527907073"><ele>499.00000000000006</ele><time>2026-05-03T05:24:19Z</time></trkpt><trkpt lat="46.01189403996174" lon="12.050527536179064"><ele>499.0</ele><time>2026-05-03T05:24:20Z</time></trkpt><trkpt lat="46.011970959497155" lon="12.05055872591441"><ele>496.0</ele><time>2026-05-03T05:24:21Z</time></trkpt><trkpt lat="46.01205324792496" lon="12.050570059333104"><ele>493.0</ele><time>2026-05-03T05:24:22Z</time></trkpt><trkpt lat="46.01214028462237" lon="12.050590304115193"><ele>490.0</ele><time>2026-05-03T05:24:23Z</time></trkpt><trkpt lat="46.01222927319205" lon="12.05057257343971"><ele>487.0</ele><time>2026-05-03T05:24:24Z</time></trkpt><trkpt lat="46.01232006761643" lon="12.05053157258626"><ele>484.0</ele><time>2026-05-03T05:24:25Z</time></trkpt><trkpt lat="46.0124119630912" lon="12.05049102193108"><ele>484.6</ele><time>2026-05-03T05:24:26Z</time></trkpt><trkpt lat="46.01251793066189" lon="12.050463223064932"><ele>485.2</ele><time>2026-05-03T05:24:27Z</time></trkpt><trkpt lat="46.01262702650266" lon="12.050479370376067"><ele>485.80000000000007</ele><time>2026-05-03T05:24:28Z</time></trkpt><trkpt lat="46.01273799831303" lon="12.050513754157798"><ele>486.40000000000003</ele><time>2026-05-03T05:24:29Z</time></trkpt><trkpt lat="46.01285015730401" lon="12.050531687903536"><ele>487.0</ele><time>2026-05-03T05:24:30Z</time></trkpt><trkpt lat="46.01297520328613" lon="12.050529457580227"><ele>487.0</ele><time>2026-05-03T05:24:31Z</time></trkpt><trkpt lat="46.013097801423235" lon="12.05055325391137"><ele>487.0</ele><time>2026-05-03T05:24:32Z</time></trkpt><trkpt lat="46.01321023408948" lon="12.050606230614846"><ele>487.0</ele><time>2026-05-03T05:24:33Z</time></trkpt><trkpt lat="46.01331228997814" lon="12.050648174383898"><ele>487.0</ele><time>2026-05-03T05:24:34Z</time></trkpt><trkpt lat="46.01341705095023" lon="12.050671260226213"><ele>486.0</ele><time>2026-05-03T05:24:35Z</time></trkpt><trkpt lat="46.01352924056359" lon="12.050678465642944"><ele>485.0</ele><time>2026-05-03T05:24:36Z</time></trkpt><trkpt lat="46.01366064975652" lon="12.050688584940076"><ele>484.0</ele><time>2026-05-03T05:24:37Z</time></trkpt><trkpt lat="46.0138030735598" lon="12.050695612602984"><ele>483.0</ele><time>2026-05-03T05:24:38Z</time></trkpt><trkpt lat="46.01393714366762" lon="12.050709660113876"><ele>483.0</ele><time>2026-05-03T05:24:39Z</time></trkpt><trkpt lat="46.01406431752758" lon="12.050717486724938"><ele>482.99999999999994</ele><time>2026-05-03T05:24:40Z</time></trkpt><trkpt lat="46.014185993747596" lon="12.050753773948667"><ele>482.99999999999994</ele><time>2026-05-03T05:24:41Z</time></trkpt><trkpt lat="46.01428890949626" lon="12.05077366284504"><ele>483.0</ele><time>2026-05-03T05:24:42Z</time></trkpt><trkpt lat="46.01438078148739" lon="12.050783808759276"><ele>483.0</ele><time>2026-05-03T05:24:43Z</time></trkpt><trkpt lat="46.01449751372695" lon="12.050739149785743"><ele>480.79999999999995</ele><time>2026-05-03T05:24:45Z</time></trkpt><trkpt lat="46.01456452570959" lon="12.050666003751891"><ele>478.59999999999997</ele><time>2026-05-03T05:24:46Z</time></trkpt><trkpt lat="46.01461718862708" lon="12.050547693100812"><ele>476.40000000000003</ele><time>2026-05-03T05:24:47Z</time></trkpt><trkpt lat="46.014701819911345" lon="12.050457313444698"><ele>474.20000000000005</ele><time>2026-05-03T05:24:48Z</time></trkpt><trkpt lat="46.01479625599135" lon="12.05037745401815"><ele>472.0</ele><time>2026-05-03T05:24:49Z</time></trkpt><trkpt lat="46.01490671227951" lon="12.050301496170809"><ele>470.40000000000003</ele><time>2026-05-03T05:24:50Z</time></trkpt><trkpt lat="46.015003099313326" lon="12.05025059856883"><ele>468.80000000000007</ele><time>2026-05-03T05:24:51Z</time></trkpt><trkpt lat="46.015097626433" lon="12.05021886318989"><ele>467.2</ele><time>2026-05-03T05:24:52Z</time></trkpt><trkpt lat="46.01519196276879" lon="12.050245413066575"><ele>465.6</ele><time>2026-05-03T05:24:53Z</time></trkpt><trkpt lat="46.015271753966864" lon="12.050336648294735"><ele>464.0</ele><time>2026-05-03T05:24:54Z</time></trkpt><trkpt lat="46.015331236047516" lon="12.050443086435898"><ele>464.0</ele><time>2026-05-03T05:24:55Z</time></trkpt><trkpt lat="46.01538575555128" lon="12.050560217085534"><ele>464.0</ele><time>2026-05-03T05:24:56Z</time></trkpt><trkpt lat="46.015451985686326" lon="12.050686540469586"><ele>464.0</ele><time>2026-05-03T05:24:57Z</time></trkpt><trkpt lat="46.01551570497653" lon="12.050809583971157"><ele>464.0</ele><time>2026-05-03T05:24:58Z</time></trkpt><trkpt lat="46.015573078056384" lon="12.050922830874677"><ele>464.0</ele><time>2026-05-03T05:24:59Z</time></trkpt><trkpt lat="46.01562221465666" lon="12.050986143654741"><ele>461.79999999999995</ele><time>2026-05-03T05:25:00Z</time></trkpt><trkpt lat="46.01567477723049" lon="12.051045271674482"><ele>459.59999999999997</ele><time>2026-05-03T05:25:01Z</time></trkpt><trkpt lat="46.01576557127362" lon="12.051014350838678"><ele>457.4</ele><time>2026-05-03T05:25:02Z</time></trkpt><trkpt lat="46.01586686208117" lon="12.051025765444098"><ele>455.2</ele><time>2026-05-03T05:25:03Z</time></trkpt><trkpt lat="46.01597224954039" lon="12.051042726600958"><ele>453.0</ele><time>2026-05-03T05:25:04Z</time></trkpt><trkpt lat="46.01607940520408" lon="12.051111981556977"><ele>453.0</ele><time>2026-05-03T05:25:05Z</time></trkpt><trkpt lat="46.01616495030129" lon="12.051182189010259"><ele>453.0</ele><time>2026-05-03T05:25:06Z</time></trkpt><trkpt lat="46.016250921659065" lon="12.051249259156002"><ele>453.0</ele><time>2026-05-03T05:25:07Z</time></trkpt><trkpt lat="46.01632676891445" lon="12.051297104820147"><ele>453.0</ele><time>2026-05-03T05:25:08Z</time></trkpt><trkpt lat="46.01639627444841" lon="12.051329529076027"><ele>453.0</ele><time>2026-05-03T05:25:09Z</time></trkpt><trkpt lat="46.0164755442789" lon="12.051336018126536"><ele>453.0</ele><time>2026-05-03T05:25:10Z</time></trkpt><trkpt lat="46.01657121012002" lon="12.051304460455478"><ele>449.25</ele><time>2026-05-03T05:25:11Z</time></trkpt><trkpt lat="46.016670824862345" lon="12.051234309473985"><ele>445.5</ele><time>2026-05-03T05:25:12Z</time></trkpt><trkpt lat="46.016766618817286" lon="12.05112622065299"><ele>441.75</ele><time>2026-05-03T05:25:13Z</time></trkpt><trkpt lat="46.01686922140759" lon="12.051007586412284"><ele>438.0</ele><time>2026-05-03T05:25:14Z</time></trkpt><trkpt lat="46.01697502155609" lon="12.050933711375123"><ele>438.0</ele><time>2026-05-03T05:25:15Z</time></trkpt><trkpt lat="46.017100215105046" lon="12.050903234296896"><ele>437.99999999999994</ele><time>2026-05-03T05:25:16Z</time></trkpt><trkpt lat="46.01720942869131" lon="12.050887495853429"><ele>437.99999999999994</ele><time>2026-05-03T05:25:17Z</time></trkpt><trkpt lat="46.017315305615284" lon="12.050882695778027"><ele>438.0</ele><time>2026-05-03T05:25:18Z</time></trkpt><trkpt lat="46.01740054679938" lon="12.050888242902612"><ele>438.0</ele><time>2026-05-03T05:25:19Z</time></trkpt><trkpt lat="46.01748327335787" lon="12.05086019083156"><ele>437.6666666666667</ele><time>2026-05-03T05:25:20Z</time></trkpt><trkpt lat="46.01754248655145" lon="12.050794047898394"><ele>437.33333333333337</ele><time>2026-05-03T05:25:21Z</time></trkpt><trkpt lat="46.01759132676176" lon="12.050732161292135"><ele>437.0</ele><time>2026-05-03T05:25:22Z</time></trkpt><trkpt lat="46.0176715817557" lon="12.050768715270339"><ele>436.6666666666667</ele><time>2026-05-03T05:25:24Z</time></trkpt><trkpt lat="46.01761353914233" lon="12.050928317351461"><ele>436.33333333333337</ele><time>2026-05-03T05:25:25.999Z</time></trkpt><trkpt lat="46.017564000418766" lon="12.051026075762877"><ele>436.0</ele><time>2026-05-03T05:25:26.999Z</time></trkpt><trkpt lat="46.01751450674194" lon="12.051090620670006"><ele>436.4</ele><time>2026-05-03T05:25:27.999Z</time></trkpt><trkpt lat="46.01745386389901" lon="12.051157281410445"><ele>436.8</ele><time>2026-05-03T05:25:28.999Z</time></trkpt><trkpt lat="46.01738626709276" lon="12.05121746828077"><ele>437.19999999999993</ele><time>2026-05-03T05:25:29.999Z</time></trkpt><trkpt lat="46.01730752564915" lon="12.05128802524453"><ele>437.59999999999997</ele><time>2026-05-03T05:25:30.999Z</time></trkpt><trkpt lat="46.01722023150225" lon="12.051368351800255"><ele>438.0</ele><time>2026-05-03T05:25:31.999Z</time></trkpt><trkpt lat="46.017129285058346" lon="12.051459596184946"><ele>438.0</ele><time>2026-05-03T05:25:32.999Z</time></trkpt><trkpt lat="46.01704432053614" lon="12.051561869524733"><ele>438.0</ele><time>2026-05-03T05:25:33.999Z</time></trkpt><trkpt lat="46.01698045641404" lon="12.051680481649493"><ele>438.0</ele><time>2026-05-03T05:25:34.999Z</time></trkpt><trkpt lat="46.016917071783766" lon="12.051817639223584"><ele>438.0</ele><time>2026-05-03T05:25:35.999Z</time></trkpt><trkpt lat="46.016842005013224" lon="12.051957535897383"><ele>437.8333333333333</ele><time>2026-05-03T05:25:36.999Z</time></trkpt><trkpt lat="46.01677925891039" lon="12.052043279100763"><ele>437.66666666666663</ele><time>2026-05-03T05:25:37.999Z</time></trkpt><trkpt lat="46.01671608986033" lon="12.052116055777056"><ele>437.5</ele><time>2026-05-03T05:25:38.999Z</time></trkpt><trkpt lat="46.016647634679664" lon="12.052199049195472"><ele>437.3333333333333</ele><time>2026-05-03T05:25:39.999Z</time></trkpt><trkpt lat="46.01660766899723" lon="12.052306080221037"><ele>437.16666666666663</ele><time>2026-05-03T05:25:40.999Z</time></trkpt><trkpt lat="46.016636753616154" lon="12.052402201517118"><ele>437.0</ele><time>2026-05-03T05:25:42.999Z</time></trkpt><trkpt lat="46.016732810625335" lon="12.052393497047014"><ele>431.75</ele><time>2026-05-03T05:25:43.999Z</time></trkpt><trkpt lat="46.016883017561746" lon="12.052246648916798"><ele>426.5</ele><time>2026-05-03T05:25:45.999Z</time></trkpt><trkpt lat="46.01697437230143" lon="12.052199943566984"><ele>421.25</ele><time>2026-05-03T05:25:46.999Z</time></trkpt><trkpt lat="46.01707046550944" lon="12.052175728246889"><ele>416.0</ele><time>2026-05-03T05:25:47.999Z</time></trkpt><trkpt lat="46.01717473361239" lon="12.052206170345833"><ele>415.99999999999994</ele><time>2026-05-03T05:25:48.999Z</time></trkpt><trkpt lat="46.01726969265046" lon="12.052236137264947"><ele>416.0</ele><time>2026-05-03T05:25:49.999Z</time></trkpt><trkpt lat="46.017358494731035" lon="12.052251060637687"><ele>416.0</ele><time>2026-05-03T05:25:50.999Z</time></trkpt><trkpt lat="46.01743614142403" lon="12.052290573771284"><ele>416.0</ele><time>2026-05-03T05:25:51.999Z</time></trkpt><trkpt lat="46.017514301589955" lon="12.052286522087725"><ele>415.99999999999994</ele><time>2026-05-03T05:25:52.999Z</time></trkpt><trkpt lat="46.0175909606797" lon="12.052235796448851"><ele>416.0</ele><time>2026-05-03T05:25:53.999Z</time></trkpt><trkpt lat="46.017666507293036" lon="12.052139501748421"><ele>409.75</ele><time>2026-05-03T05:25:54.999Z</time></trkpt><trkpt lat="46.01773075699817" lon="12.052002586828575"><ele>403.5</ele><time>2026-05-03T05:25:56Z</time></trkpt><trkpt lat="46.01783476999652" lon="12.05190136573652"><ele>397.25</ele><time>2026-05-03T05:25:57Z</time></trkpt><trkpt lat="46.01793068131575" lon="12.051805801423155"><ele>391.0</ele><time>2026-05-03T05:25:58Z</time></trkpt><trkpt lat="46.01803364467608" lon="12.051708744936278"><ele>392.20000000000005</ele><time>2026-05-03T05:25:59Z</time></trkpt><trkpt lat="46.01813068867995" lon="12.051598737118338"><ele>393.40000000000003</ele><time>2026-05-03T05:26:00Z</time></trkpt><trkpt lat="46.01825070771127" lon="12.051552808607564"><ele>394.6</ele><time>2026-05-03T05:26:01Z</time></trkpt><trkpt lat="46.018325137607896" lon="12.051524904133535"><ele>395.8</ele><time>2026-05-03T05:26:02Z</time></trkpt><trkpt lat="46.01840848203866" lon="12.051477968034536"><ele>397.0</ele><time>2026-05-03T05:26:03Z</time></trkpt><trkpt lat="46.01848657603341" lon="12.0514648593119"><ele>397.00000000000006</ele><time>2026-05-03T05:26:04Z</time></trkpt><trkpt lat="46.01856192372308" lon="12.05148150283946"><ele>397.0</ele><time>2026-05-03T05:26:05Z</time></trkpt><trkpt lat="46.01861977204515" lon="12.051560101168564"><ele>397.0</ele><time>2026-05-03T05:26:06Z</time></trkpt><trkpt lat="46.018671528199036" lon="12.05164159495626"><ele>397.0</ele><time>2026-05-03T05:26:07Z</time></trkpt><trkpt lat="46.01875211651731" lon="12.051744032325281"><ele>397.00000000000006</ele><time>2026-05-03T05:26:08Z</time></trkpt><trkpt lat="46.018823960850995" lon="12.051853973563508"><ele>397.0</ele><time>2026-05-03T05:26:09Z</time></trkpt><trkpt lat="46.01889089493886" lon="12.051939746358757"><ele>392.8</ele><time>2026-05-03T05:26:10Z</time></trkpt><trkpt lat="46.01893573962547" lon="12.052006026863035"><ele>388.6</ele><time>2026-05-03T05:26:11Z</time></trkpt><trkpt lat="46.01903286649857" lon="12.052029356129355"><ele>384.40000000000003</ele><time>2026-05-03T05:26:13Z</time></trkpt><trkpt lat="46.01915187685599" lon="12.051904637010765"><ele>380.20000000000005</ele><time>2026-05-03T05:26:15Z</time></trkpt><trkpt lat="46.019208431693784" lon="12.051801277731029"><ele>376.0</ele><time>2026-05-03T05:26:16Z</time></trkpt><trkpt lat="46.01926587628514" lon="12.051693314766263"><ele>375.0</ele><time>2026-05-03T05:26:17Z</time></trkpt><trkpt lat="46.01933246999995" lon="12.051586716955201"><ele>374.0</ele><time>2026-05-03T05:26:18Z</time></trkpt><trkpt lat="46.01939978923614" lon="12.051482843783257"><ele>373.0</ele><time>2026-05-03T05:26:19Z</time></trkpt><trkpt lat="46.01947082086674" lon="12.051363724416985"><ele>372.0</ele><time>2026-05-03T05:26:20Z</time></trkpt><trkpt lat="46.019533998883624" lon="12.051253854330396"><ele>371.0</ele><time>2026-05-03T05:26:21Z</time></trkpt><trkpt lat="46.01960421560639" lon="12.051159379996847"><ele>371.0</ele><time>2026-05-03T05:26:22Z</time></trkpt><trkpt lat="46.0196876253788" lon="12.051067563811083"><ele>371.0</ele><time>2026-05-03T05:26:23Z</time></trkpt><trkpt lat="46.019769815030216" lon="12.050981513677606"><ele>371.0</ele><time>2026-05-03T05:26:24Z</time></trkpt><trkpt lat="46.01984792797234" lon="12.050857268196534"><ele>371.0</ele><time>2026-05-03T05:26:25Z</time></trkpt><trkpt lat="46.019944289206315" lon="12.050735653155327"><ele>366.20000000000005</ele><time>2026-05-03T05:26:26Z</time></trkpt><trkpt lat="46.02003649981895" lon="12.050610833111953"><ele>361.40000000000003</ele><time>2026-05-03T05:26:27Z</time></trkpt><trkpt lat="46.02010984782291" lon="12.050502259104645"><ele>356.6</ele><time>2026-05-03T05:26:28Z</time></trkpt><trkpt lat="46.02016904814482" lon="12.05040769768811"><ele>351.8</ele><time>2026-05-03T05:26:29Z</time></trkpt><trkpt lat="46.020216949148875" lon="12.050327633014916"><ele>347.0</ele><time>2026-05-03T05:26:30Z</time></trkpt><trkpt lat="46.02026203168212" lon="12.050259326301264"><ele>347.0</ele><time>2026-05-03T05:26:31Z</time></trkpt><trkpt lat="46.020372161000466" lon="12.05019147813937"><ele>347.0</ele><time>2026-05-03T05:26:33Z</time></trkpt><trkpt lat="46.02046621191059" lon="12.050221571447276"><ele>347.0</ele><time>2026-05-03T05:26:35Z</time></trkpt><trkpt lat="46.02050890891004" lon="12.050322392101865"><ele>347.0</ele><time>2026-05-03T05:26:37Z</time></trkpt><trkpt lat="46.02053748316937" lon="12.050404568406861"><ele>347.0</ele><time>2026-05-03T05:26:38Z</time></trkpt><trkpt lat="46.020604154389204" lon="12.050482497149044"><ele>347.0</ele><time>2026-05-03T05:26:39Z</time></trkpt><trkpt lat="46.02067312050372" lon="12.050550147582"><ele>347.0</ele><time>2026-05-03T05:26:40Z</time></trkpt><trkpt lat="46.020751355981965" lon="12.0506010479366"><ele>347.0</ele><time>2026-05-03T05:26:41Z</time></trkpt><trkpt lat="46.02084345982719" lon="12.050654025422556"><ele>347.0</ele><time>2026-05-03T05:26:42Z</time></trkpt><trkpt lat="46.02095516117115" lon="12.05068775318021"><ele>347.0</ele><time>2026-05-03T05:26:43Z</time></trkpt><trkpt lat="46.02110429227683" lon="12.050717857642823"><ele>349.6</ele><time>2026-05-03T05:26:44Z</time></trkpt><trkpt lat="46.02124115787689" lon="12.050747337472439"><ele>352.20000000000005</ele><time>2026-05-03T05:26:45Z</time></trkpt><trkpt lat="46.02131716435935" lon="12.050771664300962"><ele>354.8</ele><time>2026-05-03T05:26:46Z</time></trkpt><trkpt lat="46.021408429029464" lon="12.050840872740077"><ele>357.4</ele><time>2026-05-03T05:26:48Z</time></trkpt><trkpt lat="46.02139787586509" lon="12.050981008402601"><ele>360.0</ele><time>2026-05-03T05:26:50Z</time></trkpt><trkpt lat="46.021382024314384" lon="12.05107894402579"><ele>363.3333333333333</ele><time>2026-05-03T05:26:51Z</time></trkpt><trkpt lat="46.02135425231887" lon="12.051188273270387"><ele>366.6666666666667</ele><time>2026-05-03T05:26:52Z</time></trkpt><trkpt lat="46.02133760322018" lon="12.051298220693228"><ele>370.0</ele><time>2026-05-03T05:26:53Z</time></trkpt><trkpt lat="46.02132009916058" lon="12.051411635926533"><ele>373.33333333333337</ele><time>2026-05-03T05:26:54Z</time></trkpt><trkpt lat="46.021304746281764" lon="12.0515285662851"><ele>376.6666666666667</ele><time>2026-05-03T05:26:55Z</time></trkpt><trkpt lat="46.02130560027535" lon="12.051643673815827"><ele>380.0</ele><time>2026-05-03T05:26:56Z</time></trkpt><trkpt lat="46.02134220473222" lon="12.051751344631109"><ele>384.1666666666667</ele><time>2026-05-03T05:26:57Z</time></trkpt><trkpt lat="46.021378931853675" lon="12.051845120824288"><ele>388.33333333333337</ele><time>2026-05-03T05:26:58Z</time></trkpt><trkpt lat="46.02143813823064" lon="12.051911232200535"><ele>392.5</ele><time>2026-05-03T05:26:59Z</time></trkpt><trkpt lat="46.02149524398986" lon="12.052027123593195"><ele>396.6666666666667</ele><time>2026-05-03T05:27:00Z</time></trkpt><trkpt lat="46.02153410804997" lon="12.05211253414172"><ele>400.8333333333333</ele><time>2026-05-03T05:27:01Z</time></trkpt><trkpt lat="46.02156630459894" lon="12.052278074868303"><ele>405.0</ele><time>2026-05-03T05:27:03Z</time></trkpt><trkpt lat="46.02156114572463" lon="12.052395183836573"><ele>408.8333333333333</ele><time>2026-05-03T05:27:04Z</time></trkpt><trkpt lat="46.02151587662529" lon="12.052503484668922"><ele>412.66666666666663</ele><time>2026-05-03T05:27:05Z</time></trkpt><trkpt lat="46.021494558784816" lon="12.052618440022277"><ele>416.5</ele><time>2026-05-03T05:27:06Z</time></trkpt><trkpt lat="46.02147231226669" lon="12.05271230583708"><ele>420.3333333333333</ele><time>2026-05-03T05:27:07Z</time></trkpt><trkpt lat="46.02143033676149" lon="12.05281569628467"><ele>424.16666666666663</ele><time>2026-05-03T05:27:08Z</time></trkpt><trkpt lat="46.02137369881033" lon="12.052910175615303"><ele>428.0</ele><time>2026-05-03T05:27:09Z</time></trkpt><trkpt lat="46.0213158673715" lon="12.053004379004106"><ele>427.99999999999994</ele><time>2026-05-03T05:27:10Z</time></trkpt><trkpt lat="46.02127168707323" lon="12.053112589316473"><ele>428.0</ele><time>2026-05-03T05:27:11Z</time></trkpt><trkpt lat="46.021260133692074" lon="12.053213930510479"><ele>428.0</ele><time>2026-05-03T05:27:12Z</time></trkpt><trkpt lat="46.02126825776059" lon="12.053365084521447"><ele>428.0</ele><time>2026-05-03T05:27:14Z</time></trkpt><trkpt lat="46.02129375252941" lon="12.053463122859434"><ele>427.99999999999994</ele><time>2026-05-03T05:27:15Z</time></trkpt><trkpt lat="46.02139093707254" lon="12.053514416499167"><ele>428.0</ele><time>2026-05-03T05:27:16Z</time></trkpt><trkpt lat="46.02150578926508" lon="12.053427285086268"><ele>430.2</ele><time>2026-05-03T05:27:17Z</time></trkpt><trkpt lat="46.021595000632985" lon="12.053411407083653"><ele>432.4</ele><time>2026-05-03T05:27:18Z</time></trkpt><trkpt lat="46.02169184970863" lon="12.053382715780202"><ele>434.59999999999997</ele><time>2026-05-03T05:27:19Z</time></trkpt><trkpt lat="46.02178771399939" lon="12.053375133483138"><ele>436.79999999999995</ele><time>2026-05-03T05:27:20Z</time></trkpt><trkpt lat="46.021890492611256" lon="12.053366259077965"><ele>439.0</ele><time>2026-05-03T05:27:21Z</time></trkpt><trkpt lat="46.021965740785156" lon="12.053355542604411"><ele>435.1666666666667</ele><time>2026-05-03T05:27:22Z</time></trkpt><trkpt lat="46.02203649435756" lon="12.053356389352773"><ele>431.33333333333337</ele><time>2026-05-03T05:27:23Z</time></trkpt><trkpt lat="46.02210428376139" lon="12.053426711601638"><ele>427.5</ele><time>2026-05-03T05:27:24Z</time></trkpt><trkpt lat="46.02216939288142" lon="12.053440729527779"><ele>423.66666666666663</ele><time>2026-05-03T05:27:25Z</time></trkpt><trkpt lat="46.02223843258259" lon="12.053431651831863"><ele>419.8333333333333</ele><time>2026-05-03T05:27:26Z</time></trkpt><trkpt lat="46.02231522545638" lon="12.053384599389986"><ele>416.0</ele><time>2026-05-03T05:27:27Z</time></trkpt><trkpt lat="46.022379956275145" lon="12.053278508525041"><ele>412.20000000000005</ele><time>2026-05-03T05:27:28Z</time></trkpt><trkpt lat="46.0224364357268" lon="12.053205197969344"><ele>408.40000000000003</ele><time>2026-05-03T05:27:29Z</time></trkpt><trkpt lat="46.022597759587384" lon="12.05310989623973"><ele>404.6</ele><time>2026-05-03T05:27:31Z</time></trkpt><trkpt lat="46.02267466180297" lon="12.053048868100133"><ele>400.8</ele><time>2026-05-03T05:27:32Z</time></trkpt><trkpt lat="46.0227489282058" lon="12.0529927733383"><ele>397.0</ele><time>2026-05-03T05:27:33Z</time></trkpt><trkpt lat="46.022817565128605" lon="12.05294482832367"><ele>395.8</ele><time>2026-05-03T05:27:33.999Z</time></trkpt><trkpt lat="46.02287653058118" lon="12.052912935988251"><ele>394.6</ele><time>2026-05-03T05:27:34.999Z</time></trkpt><trkpt lat="46.02298315055626" lon="12.052920781153016"><ele>393.40000000000003</ele><time>2026-05-03T05:27:36.999Z</time></trkpt><trkpt lat="46.023059342902464" lon="12.05305386775421"><ele>392.20000000000005</ele><time>2026-05-03T05:27:38.999Z</time></trkpt><trkpt lat="46.0231072756389" lon="12.053135195459133"><ele>391.0</ele><time>2026-05-03T05:27:39.999Z</time></trkpt><trkpt lat="46.02317940440383" lon="12.053203248777093"><ele>391.00000000000006</ele><time>2026-05-03T05:27:40.999Z</time></trkpt><trkpt lat="46.02323858192026" lon="12.053278553134628"><ele>391.0</ele><time>2026-05-03T05:27:41.999Z</time></trkpt><trkpt lat="46.02329742000103" lon="12.053407405526581"><ele>391.0</ele><time>2026-05-03T05:27:42.999Z</time></trkpt><trkpt lat="46.02334192047666" lon="12.053500998553481"><ele>391.0</ele><time>2026-05-03T05:27:43.999Z</time></trkpt><trkpt lat="46.023388430724786" lon="12.05360643585431"><ele>391.00000000000006</ele><time>2026-05-03T05:27:44.999Z</time></trkpt><trkpt lat="46.02344055636467" lon="12.05368951172444"><ele>391.0</ele><time>2026-05-03T05:27:45.999Z</time></trkpt><trkpt lat="46.023507378958485" lon="12.053758307151833"><ele>398.20000000000005</ele><time>2026-05-03T05:27:46.999Z</time></trkpt><trkpt lat="46.02357270851872" lon="12.053836112072636"><ele>405.40000000000003</ele><time>2026-05-03T05:27:47.999Z</time></trkpt><trkpt lat="46.02363356784777" lon="12.053905414212183"><ele>412.6</ele><time>2026-05-03T05:27:48.999Z</time></trkpt><trkpt lat="46.023696950110065" lon="12.053982705488364"><ele>419.8</ele><time>2026-05-03T05:27:49.999Z</time></trkpt><trkpt lat="46.02376855088481" lon="12.054074124074466"><ele>427.0</ele><time>2026-05-03T05:27:50.999Z</time></trkpt><trkpt lat="46.023885795413335" lon="12.054167751164501"><ele>428.0</ele><time>2026-05-03T05:27:51.999Z</time></trkpt><trkpt lat="46.023951182441955" lon="12.054246457553337"><ele>429.00000000000006</ele><time>2026-05-03T05:27:52.999Z</time></trkpt><trkpt lat="46.024013592442515" lon="12.054277263339086"><ele>430.00000000000006</ele><time>2026-05-03T05:27:53.999Z</time></trkpt><trkpt lat="46.02408892681571" lon="12.054384359026693"><ele>431.0</ele><time>2026-05-03T05:27:55.999Z</time></trkpt><trkpt lat="46.024181666340795" lon="12.054531622706506"><ele>432.0</ele><time>2026-05-03T05:27:57.999Z</time></trkpt><trkpt lat="46.024230133338044" lon="12.054665968331408"><ele>432.0</ele><time>2026-05-03T05:27:58.999Z</time></trkpt><trkpt lat="46.02428548870269" lon="12.054721771225648"><ele>432.0</ele><time>2026-05-03T05:27:59.999Z</time></trkpt><trkpt lat="46.02437333562481" lon="12.054754375958261"><ele>432.0</ele><time>2026-05-03T05:28:00.999Z</time></trkpt><trkpt lat="46.02444186829204" lon="12.054675209366957"><ele>432.0</ele><time>2026-05-03T05:28:02Z</time></trkpt><trkpt lat="46.02450012632949" lon="12.054568929621345"><ele>432.0</ele><time>2026-05-03T05:28:03Z</time></trkpt><trkpt lat="46.02456750927395" lon="12.05449121785475"><ele>432.0</ele><time>2026-05-03T05:28:04Z</time></trkpt><trkpt lat="46.02465599076171" lon="12.054403232534446"><ele>432.0</ele><time>2026-05-03T05:28:05Z</time></trkpt><trkpt lat="46.0247263373873" lon="12.05428363999486"><ele>432.00000000000006</ele><time>2026-05-03T05:28:06Z</time></trkpt><trkpt lat="46.02480318352986" lon="12.05418994366575"><ele>432.00000000000006</ele><time>2026-05-03T05:28:07Z</time></trkpt><trkpt lat="46.02488375054907" lon="12.054092885376111"><ele>432.0</ele><time>2026-05-03T05:28:08Z</time></trkpt><trkpt lat="46.02495854770544" lon="12.054053546058034"><ele>432.0</ele><time>2026-05-03T05:28:09Z</time></trkpt><trkpt lat="46.025021118526574" lon="12.054016623439153"><ele>428.8333333333333</ele><time>2026-05-03T05:28:10Z</time></trkpt><trkpt lat="46.025102634362426" lon="12.054025691396737"><ele>425.66666666666663</ele><time>2026-05-03T05:28:11Z</time></trkpt><trkpt lat="46.02518075198031" lon="12.054025563904828"><ele>422.5</ele><time>2026-05-03T05:28:12Z</time></trkpt><trkpt lat="46.02526776658789" lon="12.054000537993584"><ele>419.3333333333333</ele><time>2026-05-03T05:28:13Z</time></trkpt><trkpt lat="46.025341905090734" lon="12.053888795987394"><ele>416.16666666666663</ele><time>2026-05-03T05:28:14Z</time></trkpt><trkpt lat="46.0253686294503" lon="12.053778228346854"><ele>413.0</ele><time>2026-05-03T05:28:15Z</time></trkpt><trkpt lat="46.025404862425056" lon="12.053667766487"><ele>412.99999999999994</ele><time>2026-05-03T05:28:16Z</time></trkpt><trkpt lat="46.025444104941606" lon="12.053595692494794"><ele>413.0</ele><time>2026-05-03T05:28:17Z</time></trkpt><trkpt lat="46.02549971416728" lon="12.053551700875472"><ele>413.0</ele><time>2026-05-03T05:28:18Z</time></trkpt><trkpt lat="46.02556066665879" lon="12.053581172109688"><ele>413.0</ele><time>2026-05-03T05:28:19Z</time></trkpt><trkpt lat="46.02564149435461" lon="12.053569523134078"><ele>412.99999999999994</ele><time>2026-05-03T05:28:20Z</time></trkpt><trkpt lat="46.02572333119428" lon="12.053557116269454"><ele>413.0</ele><time>2026-05-03T05:28:21Z</time></trkpt><trkpt lat="46.025829214140785" lon="12.053547088773495"><ele>417.59999999999997</ele><time>2026-05-03T05:28:22Z</time></trkpt><trkpt lat="46.02592607878193" lon="12.053546891376396"><ele>422.2</ele><time>2026-05-03T05:28:23Z</time></trkpt><trkpt lat="46.02601506181902" lon="12.053547638130611"><ele>426.8</ele><time>2026-05-03T05:28:24Z</time></trkpt><trkpt lat="46.02611294552971" lon="12.053551263939578"><ele>431.4</ele><time>2026-05-03T05:28:25Z</time></trkpt><trkpt lat="46.026203751437684" lon="12.053561206707304"><ele>436.0</ele><time>2026-05-03T05:28:26Z</time></trkpt><trkpt lat="46.02629882261556" lon="12.053583118328696"><ele>436.0</ele><time>2026-05-03T05:28:27Z</time></trkpt><trkpt lat="46.02639438740884" lon="12.05360736872227"><ele>436.0</ele><time>2026-05-03T05:28:28Z</time></trkpt><trkpt lat="46.02648809487006" lon="12.053626897179818"><ele>436.0</ele><time>2026-05-03T05:28:29Z</time></trkpt><trkpt lat="46.026608856885666" lon="12.053643455195283"><ele>436.0</ele><time>2026-05-03T05:28:30Z</time></trkpt><trkpt lat="46.02670245460611" lon="12.053640209081964"><ele>436.0</ele><time>2026-05-03T05:28:31Z</time></trkpt><trkpt lat="46.02678362600225" lon="12.053605029711928"><ele>437.50000000000006</ele><time>2026-05-03T05:28:32Z</time></trkpt><trkpt lat="46.02686885211028" lon="12.053543188227957"><ele>439.0</ele><time>2026-05-03T05:28:33Z</time></trkpt><trkpt lat="46.02693076965086" lon="12.053524665254802"><ele>440.5</ele><time>2026-05-03T05:28:34Z</time></trkpt><trkpt lat="46.02700258304628" lon="12.053518950312474"><ele>442.0</ele><time>2026-05-03T05:28:35Z</time></trkpt><trkpt lat="46.02707798671539" lon="12.053532730154961"><ele>443.50000000000006</ele><time>2026-05-03T05:28:36Z</time></trkpt><trkpt lat="46.02716806906173" lon="12.053541497062668"><ele>445.0</ele><time>2026-05-03T05:28:37Z</time></trkpt><trkpt lat="46.027261768848525" lon="12.053570695661088"><ele>445.0</ele><time>2026-05-03T05:28:38Z</time></trkpt><trkpt lat="46.02735380029111" lon="12.05360524009079"><ele>445.0</ele><time>2026-05-03T05:28:39Z</time></trkpt><trkpt lat="46.0274505309727" lon="12.05364777946821"><ele>445.0</ele><time>2026-05-03T05:28:40Z</time></trkpt><trkpt lat="46.02755111725387" lon="12.053697116682757"><ele>445.0</ele><time>2026-05-03T05:28:41Z</time></trkpt><trkpt lat="46.02764997279565" lon="12.053753295842979"><ele>445.0</ele><time>2026-05-03T05:28:42Z</time></trkpt><trkpt lat="46.02775358407631" lon="12.053808328011916"><ele>444.6</ele><time>2026-05-03T05:28:43Z</time></trkpt><trkpt lat="46.02785202865325" lon="12.053867724291703"><ele>444.2</ele><time>2026-05-03T05:28:44Z</time></trkpt><trkpt lat="46.027946740920825" lon="12.053942765861994"><ele>443.79999999999995</ele><time>2026-05-03T05:28:45Z</time></trkpt><trkpt lat="46.02804512199451" lon="12.054023112512729"><ele>443.4</ele><time>2026-05-03T05:28:46Z</time></trkpt><trkpt lat="46.02813854961754" lon="12.054103903338998"><ele>443.0</ele><time>2026-05-03T05:28:47Z</time></trkpt><trkpt lat="46.0282280727028" lon="12.054188804404864"><ele>448.79999999999995</ele><time>2026-05-03T05:28:48Z</time></trkpt><trkpt lat="46.02831547489037" lon="12.054286621370583"><ele>454.59999999999997</ele><time>2026-05-03T05:28:49Z</time></trkpt><trkpt lat="46.02839875964971" lon="12.05437977599846"><ele>460.40000000000003</ele><time>2026-05-03T05:28:50Z</time></trkpt><trkpt lat="46.02847277184151" lon="12.05444425907346"><ele>466.20000000000005</ele><time>2026-05-03T05:28:51Z</time></trkpt><trkpt lat="46.02859982955319" lon="12.05446375912998"><ele>472.0</ele><time>2026-05-03T05:28:53Z</time></trkpt><trkpt lat="46.02869162180155" lon="12.05444680912069"><ele>472.0</ele><time>2026-05-03T05:28:54Z</time></trkpt><trkpt lat="46.02877591735228" lon="12.054442978264904"><ele>472.00000000000006</ele><time>2026-05-03T05:28:55Z</time></trkpt><trkpt lat="46.028878652980666" lon="12.054460026521934"><ele>472.00000000000006</ele><time>2026-05-03T05:28:56Z</time></trkpt><trkpt lat="46.02898431989798" lon="12.054469404609746"><ele>472.0</ele><time>2026-05-03T05:28:57Z</time></trkpt><trkpt lat="46.029072003971365" lon="12.054438853887888"><ele>472.0</ele><time>2026-05-03T05:28:58Z</time></trkpt><trkpt lat="46.02914694546913" lon="12.054389901119192"><ele>469.50000000000006</ele><time>2026-05-03T05:28:59Z</time></trkpt><trkpt lat="46.02921943412877" lon="12.054349913542355"><ele>467.0</ele><time>2026-05-03T05:29:00Z</time></trkpt><trkpt lat="46.02928742171501" lon="12.05433635062975"><ele>464.5</ele><time>2026-05-03T05:29:01Z</time></trkpt><trkpt lat="46.02935237217514" lon="12.054358071630396"><ele>462.0</ele><time>2026-05-03T05:29:02Z</time></trkpt><trkpt lat="46.02941993496301" lon="12.054410163762103"><ele>459.50000000000006</ele><time>2026-05-03T05:29:03Z</time></trkpt><trkpt lat="46.029510934350746" lon="12.0544626884473"><ele>457.0</ele><time>2026-05-03T05:29:04Z</time></trkpt><trkpt lat="46.029597360685656" lon="12.054511395668754"><ele>457.0</ele><time>2026-05-03T05:29:05Z</time></trkpt><trkpt lat="46.029687843698646" lon="12.05456225900447"><ele>457.00000000000006</ele><time>2026-05-03T05:29:06Z</time></trkpt><trkpt lat="46.02978086998227" lon="12.054621614650248"><ele>457.00000000000006</ele><time>2026-05-03T05:29:07Z</time></trkpt><trkpt lat="46.02987947370173" lon="12.054683562319088"><ele>457.0</ele><time>2026-05-03T05:29:08Z</time></trkpt><trkpt lat="46.02998168225164" lon="12.054731561846575"><ele>457.0</ele><time>2026-05-03T05:29:09Z</time></trkpt><trkpt lat="46.0300646651118" lon="12.054796080239067"><ele>456.8</ele><time>2026-05-03T05:29:10Z</time></trkpt><trkpt lat="46.030160392109025" lon="12.054849662568369"><ele>456.6</ele><time>2026-05-03T05:29:11Z</time></trkpt><trkpt lat="46.030240394874156" lon="12.054898598528666"><ele>456.40000000000003</ele><time>2026-05-03T05:29:12Z</time></trkpt><trkpt lat="46.03032305372439" lon="12.054953250671305"><ele>456.20000000000005</ele><time>2026-05-03T05:29:13Z</time></trkpt><trkpt lat="46.03038873396887" lon="12.055023975408641"><ele>456.0</ele><time>2026-05-03T05:29:14Z</time></trkpt><trkpt lat="46.03047816866543" lon="12.05509314061425"><ele>456.0</ele><time>2026-05-03T05:29:15Z</time></trkpt><trkpt lat="46.03054222303942" lon="12.05514111145349"><ele>456.0</ele><time>2026-05-03T05:29:16Z</time></trkpt><trkpt lat="46.0306075601175" lon="12.055187654003255"><ele>456.0</ele><time>2026-05-03T05:29:17Z</time></trkpt><trkpt lat="46.03067322283621" lon="12.055192134721603"><ele>456.0</ele><time>2026-05-03T05:29:18Z</time></trkpt><trkpt lat="46.03077535934052" lon="12.055134945629609"><ele>456.0</ele><time>2026-05-03T05:29:20Z</time></trkpt><trkpt lat="46.030762443848204" lon="12.054960870919436"><ele>456.0</ele><time>2026-05-03T05:29:22Z</time></trkpt><trkpt lat="46.030711034945845" lon="12.054860193134488"><ele>456.0</ele><time>2026-05-03T05:29:23Z</time></trkpt><trkpt lat="46.03065360851455" lon="12.05473139258965"><ele>456.0</ele><time>2026-05-03T05:29:25Z</time></trkpt><trkpt lat="46.03063844173053" lon="12.054588591194038"><ele>456.0</ele><time>2026-05-03T05:29:27Z</time></trkpt><trkpt lat="46.030658825418506" lon="12.05448939178708"><ele>456.0</ele><time>2026-05-03T05:29:28Z</time></trkpt><trkpt lat="46.03069640521354" lon="12.054405192712235"><ele>456.0</ele><time>2026-05-03T05:29:29Z</time></trkpt><trkpt lat="46.03073691510631" lon="12.054330443103872"><ele>456.0</ele><time>2026-05-03T05:29:30Z</time></trkpt><trkpt lat="46.03083336898215" lon="12.054221795816604"><ele>454.85714285714283</ele><time>2026-05-03T05:29:32Z</time></trkpt><trkpt lat="46.030900356581114" lon="12.054176532710436"><ele>453.71428571428567</ele><time>2026-05-03T05:29:33Z</time></trkpt><trkpt lat="46.03096052196829" lon="12.054133734625852"><ele>452.57142857142856</ele><time>2026-05-03T05:29:34Z</time></trkpt><trkpt lat="46.03102346916363" lon="12.05407695296769"><ele>451.42857142857144</ele><time>2026-05-03T05:29:35Z</time></trkpt><trkpt lat="46.03108660211426" lon="12.054016266098905"><ele>450.2857142857143</ele><time>2026-05-03T05:29:36Z</time></trkpt><trkpt lat="46.03115041286244" lon="12.05395861296861"><ele>449.1428571428571</ele><time>2026-05-03T05:29:37Z</time></trkpt><trkpt lat="46.03120899170303" lon="12.053898006920564"><ele>448.0</ele><time>2026-05-03T05:29:38Z</time></trkpt><trkpt lat="46.03126765566925" lon="12.053835201968983"><ele>448.0</ele><time>2026-05-03T05:29:39Z</time></trkpt><trkpt lat="46.03131883720602" lon="12.05377923316394"><ele>447.99999999999994</ele><time>2026-05-03T05:29:40Z</time></trkpt><trkpt lat="46.03142714181134" lon="12.053717703276432"><ele>447.99999999999994</ele><time>2026-05-03T05:29:42Z</time></trkpt><trkpt lat="46.03156031754227" lon="12.053740296185104"><ele>448.0</ele><time>2026-05-03T05:29:44Z</time></trkpt><trkpt lat="46.03163768490393" lon="12.05375262776037"><ele>448.0</ele><time>2026-05-03T05:29:45Z</time></trkpt><trkpt lat="46.03171599225611" lon="12.053781544666041"><ele>450.75</ele><time>2026-05-03T05:29:45.999Z</time></trkpt><trkpt lat="46.03179376836801" lon="12.053806348561999"><ele>453.5</ele><time>2026-05-03T05:29:46.999Z</time></trkpt><trkpt lat="46.03192976725582" lon="12.053848910137967"><ele>456.25</ele><time>2026-05-03T05:29:48.999Z</time></trkpt><trkpt lat="46.03204407836473" lon="12.053925444993522"><ele>459.0</ele><time>2026-05-03T05:29:50.999Z</time></trkpt><trkpt lat="46.032120161051274" lon="12.054060103406957"><ele>459.0</ele><time>2026-05-03T05:29:52.999Z</time></trkpt><trkpt lat="46.032152559506336" lon="12.054138375685396"><ele>459.0</ele><time>2026-05-03T05:29:53.999Z</time></trkpt><trkpt lat="46.032256089470124" lon="12.054234916280683"><ele>459.0</ele><time>2026-05-03T05:29:55.999Z</time></trkpt><trkpt lat="46.032326382184074" lon="12.054206813266218"><ele>459.0</ele><time>2026-05-03T05:29:56.999Z</time></trkpt><trkpt lat="46.03239009922087" lon="12.054139538643419"><ele>459.0</ele><time>2026-05-03T05:29:57.999Z</time></trkpt><trkpt lat="46.032464566949585" lon="12.054074513888946"><ele>459.0</ele><time>2026-05-03T05:29:58.999Z</time></trkpt><trkpt lat="46.032544423466405" lon="12.054023270871546"><ele>459.6</ele><time>2026-05-03T05:29:59.999Z</time></trkpt><trkpt lat="46.03261088493081" lon="12.054006412202481"><ele>460.2</ele><time>2026-05-03T05:30:00.999Z</time></trkpt><trkpt lat="46.03273980194082" lon="12.053972022113195"><ele>460.80000000000007</ele><time>2026-05-03T05:30:02.999Z</time></trkpt><trkpt lat="46.03279831910081" lon="12.053883035161622"><ele>461.40000000000003</ele><time>2026-05-03T05:30:03.999Z</time></trkpt><trkpt lat="46.03284840328074" lon="12.05377396705746"><ele>462.0</ele><time>2026-05-03T05:30:04.999Z</time></trkpt><trkpt lat="46.03290644945356" lon="12.053661610588495"><ele>462.0</ele><time>2026-05-03T05:30:05.999Z</time></trkpt><trkpt lat="46.032963939004084" lon="12.053568460666485"><ele>462.0</ele><time>2026-05-03T05:30:06.999Z</time></trkpt><trkpt lat="46.03301225241167" lon="12.053493097687278"><ele>462.0</ele><time>2026-05-03T05:30:08Z</time></trkpt><trkpt lat="46.03306183482241" lon="12.053432698566704"><ele>462.0</ele><time>2026-05-03T05:30:09Z</time></trkpt><trkpt lat="46.03315306995022" lon="12.053327543317625"><ele>462.0</ele><time>2026-05-03T05:30:11Z</time></trkpt><trkpt lat="46.03324935065947" lon="12.05325326257236"><ele>462.0</ele><time>2026-05-03T05:30:13Z</time></trkpt><trkpt lat="46.03338122656107" lon="12.053282808373767"><ele>464.0</ele><time>2026-05-03T05:30:15Z</time></trkpt><trkpt lat="46.03345059725351" lon="12.053306591848246"><ele>466.0</ele><time>2026-05-03T05:30:16Z</time></trkpt><trkpt lat="46.03351426995229" lon="12.053322568082505"><ele>468.0</ele><time>2026-05-03T05:30:17Z</time></trkpt><trkpt lat="46.03357732571376" lon="12.053338723717205"><ele>470.0</ele><time>2026-05-03T05:30:18Z</time></trkpt><trkpt lat="46.0336541424521" lon="12.053349624958237"><ele>472.0</ele><time>2026-05-03T05:30:19Z</time></trkpt><trkpt lat="46.03373518958428" lon="12.053339849510776"><ele>474.0</ele><time>2026-05-03T05:30:20Z</time></trkpt><trkpt lat="46.03382648831675" lon="12.053312811846682"><ele>471.6666666666667</ele><time>2026-05-03T05:30:21Z</time></trkpt><trkpt lat="46.03389740447088" lon="12.053277092418718"><ele>469.33333333333337</ele><time>2026-05-03T05:30:22Z</time></trkpt><trkpt lat="46.03401632415083" lon="12.053219770331951"><ele>467.0</ele><time>2026-05-03T05:30:24Z</time></trkpt><trkpt lat="46.03408560824373" lon="12.053190542393617"><ele>464.6666666666667</ele><time>2026-05-03T05:30:25Z</time></trkpt><trkpt lat="46.03415830927195" lon="12.053147558754443"><ele>462.33333333333337</ele><time>2026-05-03T05:30:26Z</time></trkpt><trkpt lat="46.03423761942907" lon="12.053090951642632"><ele>460.0</ele><time>2026-05-03T05:30:27Z</time></trkpt><trkpt lat="46.03431572591163" lon="12.053033421909609"><ele>460.0</ele><time>2026-05-03T05:30:28Z</time></trkpt><trkpt lat="46.03439710104738" lon="12.052972537033057"><ele>460.0</ele><time>2026-05-03T05:30:29Z</time></trkpt><trkpt lat="46.034486227908424" lon="12.052927189028638"><ele>460.0</ele><time>2026-05-03T05:30:30Z</time></trkpt><trkpt lat="46.03457455502953" lon="12.052909514612644"><ele>460.0</ele><time>2026-05-03T05:30:31Z</time></trkpt><trkpt lat="46.03468172707978" lon="12.052904907219872"><ele>460.0</ele><time>2026-05-03T05:30:32Z</time></trkpt><trkpt lat="46.034782902386375" lon="12.052891415700138"><ele>460.0</ele><time>2026-05-03T05:30:33Z</time></trkpt><trkpt lat="46.034891009019425" lon="12.052869740267225"><ele>460.0</ele><time>2026-05-03T05:30:34Z</time></trkpt><trkpt lat="46.034992443192756" lon="12.05286568071318"><ele>460.0</ele><time>2026-05-03T05:30:35Z</time></trkpt><trkpt lat="46.03508960245022" lon="12.052894619985898"><ele>460.0</ele><time>2026-05-03T05:30:36Z</time></trkpt><trkpt lat="46.03519195725173" lon="12.05292934170478"><ele>460.0</ele><time>2026-05-03T05:30:37Z</time></trkpt><trkpt lat="46.03529119916731" lon="12.052948562676638"><ele>460.8</ele><time>2026-05-03T05:30:38Z</time></trkpt><trkpt lat="46.035392194188816" lon="12.052941783740923"><ele>461.6</ele><time>2026-05-03T05:30:39Z</time></trkpt><trkpt lat="46.03549326226307" lon="12.052919017303596"><ele>462.4</ele><time>2026-05-03T05:30:40Z</time></trkpt><trkpt lat="46.035596259942906" lon="12.052886655037746"><ele>463.2</ele><time>2026-05-03T05:30:41Z</time></trkpt><trkpt lat="46.03569375936915" lon="12.0528539639816"><ele>464.0</ele><time>2026-05-03T05:30:42Z</time></trkpt><trkpt lat="46.03579435327324" lon="12.05282369686725"><ele>463.4</ele><time>2026-05-03T05:30:43Z</time></trkpt><trkpt lat="46.0358935269705" lon="12.052809389496165"><ele>462.79999999999995</ele><time>2026-05-03T05:30:44Z</time></trkpt><trkpt lat="46.03599174090595" lon="12.052813204266425"><ele>462.20000000000005</ele><time>2026-05-03T05:30:45Z</time></trkpt><trkpt lat="46.0360916765289" lon="12.052826955258046"><ele>461.6</ele><time>2026-05-03T05:30:46Z</time></trkpt><trkpt lat="46.036189431455746" lon="12.052845368179716"><ele>461.0</ele><time>2026-05-03T05:30:47Z</time></trkpt><trkpt lat="46.036286416603666" lon="12.05285774447393"><ele>460.99999999999994</ele><time>2026-05-03T05:30:48Z</time></trkpt><trkpt lat="46.03638446393042" lon="12.052871443770469"><ele>461.0</ele><time>2026-05-03T05:30:49Z</time></trkpt><trkpt lat="46.0364601523739" lon="12.05288429688058"><ele>461.0</ele><time>2026-05-03T05:30:50Z</time></trkpt><trkpt lat="46.03652900263534" lon="12.052898068457242"><ele>461.0</ele><time>2026-05-03T05:30:52Z</time></trkpt><trkpt lat="46.03659589360146" lon="12.052902886054433"><ele>460.99999999999994</ele><time>2026-05-03T05:30:56Z</time></trkpt><trkpt lat="46.036667212948494" lon="12.052914661519303"><ele>461.0</ele><time>2026-05-03T05:30:58Z</time></trkpt><trkpt lat="46.03673471000056" lon="12.052908380490578"><ele>460.49999999999994</ele><time>2026-05-03T05:30:59Z</time></trkpt><trkpt lat="46.03681084873993" lon="12.052920542359018"><ele>460.0</ele><time>2026-05-03T05:31:00Z</time></trkpt><trkpt lat="46.03689858353915" lon="12.052945128928533"><ele>459.5</ele><time>2026-05-03T05:31:01Z</time></trkpt><trkpt lat="46.03697729670288" lon="12.053000813858326"><ele>459.0</ele><time>2026-05-03T05:31:02Z</time></trkpt><trkpt lat="46.03704414076411" lon="12.053084215367958"><ele>458.49999999999994</ele><time>2026-05-03T05:31:03Z</time></trkpt><trkpt lat="46.03710996369833" lon="12.05319949189417"><ele>458.0</ele><time>2026-05-03T05:31:04Z</time></trkpt><trkpt lat="46.03718118194903" lon="12.053338443119024"><ele>458.0</ele><time>2026-05-03T05:31:05Z</time></trkpt><trkpt lat="46.03726320208925" lon="12.05349770653455"><ele>458.0</ele><time>2026-05-03T05:31:06Z</time></trkpt><trkpt lat="46.03735346331075" lon="12.053660243216992"><ele>458.0</ele><time>2026-05-03T05:31:07Z</time></trkpt><trkpt lat="46.037450773672795" lon="12.053840895089538"><ele>458.0</ele><time>2026-05-03T05:31:08Z</time></trkpt><trkpt lat="46.03755116177996" lon="12.054033343837219"><ele>452.3333333333333</ele><time>2026-05-03T05:31:09Z</time></trkpt><trkpt lat="46.03764821255691" lon="12.054226058314798"><ele>446.66666666666663</ele><time>2026-05-03T05:31:10Z</time></trkpt><trkpt lat="46.03774743208524" lon="12.054406723531327"><ele>441.0</ele><time>2026-05-03T05:31:11Z</time></trkpt><trkpt lat="46.03784463596533" lon="12.054594434857588"><ele>441.0</ele><time>2026-05-03T05:31:12Z</time></trkpt><trkpt lat="46.037940927040424" lon="12.054782522466178"><ele>441.0</ele><time>2026-05-03T05:31:13Z</time></trkpt><trkpt lat="46.038034599460644" lon="12.05497260065198"><ele>441.0</ele><time>2026-05-03T05:31:14Z</time></trkpt><trkpt lat="46.038124110123704" lon="12.055150065432567"><ele>441.33333333333337</ele><time>2026-05-03T05:31:15Z</time></trkpt><trkpt lat="46.038210851768206" lon="12.05532417788375"><ele>441.6666666666667</ele><time>2026-05-03T05:31:16Z</time></trkpt><trkpt lat="46.03829141367483" lon="12.055512544993496"><ele>442.0</ele><time>2026-05-03T05:31:17Z</time></trkpt><trkpt lat="46.03836216199682" lon="12.055707484126511"><ele>436.0</ele><time>2026-05-03T05:31:18Z</time></trkpt><trkpt lat="46.038433886608175" lon="12.055900299264584"><ele>430.0</ele><time>2026-05-03T05:31:19Z</time></trkpt><trkpt lat="46.03851513711622" lon="12.05609129306205"><ele>424.0</ele><time>2026-05-03T05:31:20Z</time></trkpt><trkpt lat="46.038603274783505" lon="12.056273505311644"><ele>424.0</ele><time>2026-05-03T05:31:21Z</time></trkpt><trkpt lat="46.03868864517883" lon="12.05645497494654"><ele>424.0</ele><time>2026-05-03T05:31:22Z</time></trkpt><trkpt lat="46.03876775987244" lon="12.056646599610849"><ele>424.0</ele><time>2026-05-03T05:31:23Z</time></trkpt><trkpt lat="46.03883728383407" lon="12.056843653250022"><ele>424.33333333333337</ele><time>2026-05-03T05:31:24Z</time></trkpt><trkpt lat="46.03890910721112" lon="12.057043624249758"><ele>424.66666666666663</ele><time>2026-05-03T05:31:25Z</time></trkpt><trkpt lat="46.0389852856168" lon="12.057234275860017"><ele>425.0</ele><time>2026-05-03T05:31:26Z</time></trkpt><trkpt lat="46.03905427505438" lon="12.057421635743683"><ele>418.66666666666663</ele><time>2026-05-03T05:31:27Z</time></trkpt><trkpt lat="46.039135824824605" lon="12.057607909462465"><ele>412.33333333333337</ele><time>2026-05-03T05:31:28Z</time></trkpt><trkpt lat="46.03921461983427" lon="12.057798624169415"><ele>406.0</ele><time>2026-05-03T05:31:29Z</time></trkpt><trkpt lat="46.03929306747023" lon="12.057985631452073"><ele>406.0</ele><time>2026-05-03T05:31:30Z</time></trkpt><trkpt lat="46.039372731361844" lon="12.058166153394607"><ele>406.0</ele><time>2026-05-03T05:31:31Z</time></trkpt><trkpt lat="46.039441247565556" lon="12.05833086511969"><ele>406.0</ele><time>2026-05-03T05:31:32Z</time></trkpt><trkpt lat="46.039492663942" lon="12.058484043732328"><ele>406.0</ele><time>2026-05-03T05:31:33Z</time></trkpt><trkpt lat="46.03953160538003" lon="12.058642133501314"><ele>405.8</ele><time>2026-05-03T05:31:34Z</time></trkpt><trkpt lat="46.03956545926952" lon="12.058797080267112"><ele>405.6</ele><time>2026-05-03T05:31:35Z</time></trkpt><trkpt lat="46.03962286099851" lon="12.058934019015169"><ele>405.4</ele><time>2026-05-03T05:31:36Z</time></trkpt><trkpt lat="46.0397014565772" lon="12.059052319636782"><ele>405.2</ele><time>2026-05-03T05:31:37Z</time></trkpt><trkpt lat="46.039773079752614" lon="12.05914031041071"><ele>405.0</ele><time>2026-05-03T05:31:37.999Z</time></trkpt><trkpt lat="46.0398337601216" lon="12.05922350386763"><ele>405.0</ele><time>2026-05-03T05:31:38.999Z</time></trkpt><trkpt lat="46.0398800208672" lon="12.059299479207942"><ele>405.0</ele><time>2026-05-03T05:31:39.999Z</time></trkpt><trkpt lat="46.03993961200324" lon="12.059401501175275"><ele>405.0</ele><time>2026-05-03T05:31:41.999Z</time></trkpt><trkpt lat="46.03999560465342" lon="12.059273068074738"><ele>405.0</ele><time>2026-05-03T05:31:45.999Z</time></trkpt><trkpt lat="46.03996647208313" lon="12.059155540952945"><ele>405.0</ele><time>2026-05-03T05:31:46.999Z</time></trkpt><trkpt lat="46.039926332764395" lon="12.059056891739393"><ele>405.0</ele><time>2026-05-03T05:31:47.999Z</time></trkpt><trkpt lat="46.03988489074337" lon="12.058958128845147"><ele>405.0</ele><time>2026-05-03T05:31:48.999Z</time></trkpt><trkpt lat="46.039830604075846" lon="12.058858863042849"><ele>405.0</ele><time>2026-05-03T05:31:49.999Z</time></trkpt><trkpt lat="46.03980562347648" lon="12.058738541350355"><ele>405.0</ele><time>2026-05-03T05:31:50.999Z</time></trkpt><trkpt lat="46.03980395367797" lon="12.058613929293282"><ele>405.0</ele><time>2026-05-03T05:31:51.999Z</time></trkpt><trkpt lat="46.039803769479896" lon="12.058502611786459"><ele>405.0</ele><time>2026-05-03T05:31:52.999Z</time></trkpt><trkpt lat="46.03979514287718" lon="12.058373417953549"><ele>405.0</ele><time>2026-05-03T05:31:53.999Z</time></trkpt><trkpt lat="46.03977722474503" lon="12.058249034737374"><ele>405.25</ele><time>2026-05-03T05:31:54.999Z</time></trkpt><trkpt lat="46.03976126983645" lon="12.058105314878341"><ele>405.5</ele><time>2026-05-03T05:31:55.999Z</time></trkpt><trkpt lat="46.03974203989962" lon="12.057939824907173"><ele>405.75</ele><time>2026-05-03T05:31:56.999Z</time></trkpt><trkpt lat="46.03972119281508" lon="12.05776300066585"><ele>406.0</ele><time>2026-05-03T05:31:57.999Z</time></trkpt><trkpt lat="46.03969814779037" lon="12.057581756736793"><ele>405.0</ele><time>2026-05-03T05:31:58.999Z</time></trkpt><trkpt lat="46.039671767685626" lon="12.057398984974956"><ele>404.0</ele><time>2026-05-03T05:31:59.999Z</time></trkpt><trkpt lat="46.03964614938953" lon="12.057208751173553"><ele>403.0</ele><time>2026-05-03T05:32:00.999Z</time></trkpt><trkpt lat="46.039623157935964" lon="12.05701980539922"><ele>402.0</ele><time>2026-05-03T05:32:01.999Z</time></trkpt><trkpt lat="46.03960312438662" lon="12.056847785428923"><ele>402.0</ele><time>2026-05-03T05:32:02.999Z</time></trkpt><trkpt lat="46.03959702017702" lon="12.056671395254844"><ele>402.0</ele><time>2026-05-03T05:32:03.999Z</time></trkpt><trkpt lat="46.039620854136906" lon="12.056486740840455"><ele>402.0</ele><time>2026-05-03T05:32:04.999Z</time></trkpt><trkpt lat="46.039653928345274" lon="12.05629974500723"><ele>402.0</ele><time>2026-05-03T05:32:05.999Z</time></trkpt><trkpt lat="46.039684096202755" lon="12.056079835131744"><ele>401.75</ele><time>2026-05-03T05:32:06.999Z</time></trkpt><trkpt lat="46.03970642757305" lon="12.055880687515739"><ele>401.5</ele><time>2026-05-03T05:32:07.999Z</time></trkpt><trkpt lat="46.03971325613046" lon="12.055686313677937"><ele>401.25</ele><time>2026-05-03T05:32:08.999Z</time></trkpt><trkpt lat="46.039723458211874" lon="12.055494175957516"><ele>401.0</ele><time>2026-05-03T05:32:09.999Z</time></trkpt><trkpt lat="46.03975936239242" lon="12.055311086404906"><ele>401.0</ele><time>2026-05-03T05:32:10.999Z</time></trkpt><trkpt lat="46.039796426522216" lon="12.055125303966115"><ele>401.0</ele><time>2026-05-03T05:32:11.999Z</time></trkpt><trkpt lat="46.03980501075627" lon="12.054909733078814"><ele>401.0</ele><time>2026-05-03T05:32:12.999Z</time></trkpt><trkpt lat="46.03980331119813" lon="12.054688081558913"><ele>401.0</ele><time>2026-05-03T05:32:14Z</time></trkpt><trkpt lat="46.039804068896345" lon="12.054457189633993"><ele>401.0</ele><time>2026-05-03T05:32:15Z</time></trkpt><trkpt lat="46.03980938479059" lon="12.054223960340813"><ele>401.0</ele><time>2026-05-03T05:32:16Z</time></trkpt><trkpt lat="46.0398134685349" lon="12.053986903016325"><ele>401.0</ele><time>2026-05-03T05:32:17Z</time></trkpt><trkpt lat="46.03982262077177" lon="12.053740553316253"><ele>401.66666666666663</ele><time>2026-05-03T05:32:18Z</time></trkpt><trkpt lat="46.03984043157882" lon="12.053510062922031"><ele>402.33333333333337</ele><time>2026-05-03T05:32:19Z</time></trkpt><trkpt lat="46.039868072056194" lon="12.05328086489466"><ele>403.0</ele><time>2026-05-03T05:32:20Z</time></trkpt><trkpt lat="46.039898484869255" lon="12.053073524585031"><ele>403.0</ele><time>2026-05-03T05:32:21Z</time></trkpt><trkpt lat="46.0399239365076" lon="12.052877095301918"><ele>403.0</ele><time>2026-05-03T05:32:22Z</time></trkpt><trkpt lat="46.03994180842392" lon="12.052677686283875"><ele>403.0</ele><time>2026-05-03T05:32:23Z</time></trkpt><trkpt lat="46.039948970169476" lon="12.05248546472869"><ele>403.0</ele><time>2026-05-03T05:32:24Z</time></trkpt><trkpt lat="46.03995837071666" lon="12.05230401272132"><ele>400.33333333333337</ele><time>2026-05-03T05:32:25Z</time></trkpt><trkpt lat="46.039969312375106" lon="12.052168526265827"><ele>397.6666666666667</ele><time>2026-05-03T05:32:26Z</time></trkpt><trkpt lat="46.039995987906906" lon="12.05206446023511"><ele>395.0</ele><time>2026-05-03T05:32:27Z</time></trkpt><trkpt lat="46.040053053781484" lon="12.051963121088678"><ele>392.33333333333337</ele><time>2026-05-03T05:32:28Z</time></trkpt><trkpt lat="46.040129884190506" lon="12.051876072506921"><ele>389.6666666666667</ele><time>2026-05-03T05:32:29Z</time></trkpt><trkpt lat="46.04020804056159" lon="12.051816424227713"><ele>387.0</ele><time>2026-05-03T05:32:30Z</time></trkpt><trkpt lat="46.04025702387396" lon="12.051676453265175"><ele>386.5</ele><time>2026-05-03T05:32:31Z</time></trkpt><trkpt lat="46.040290964392746" lon="12.051513841954597"><ele>386.0</ele><time>2026-05-03T05:32:32Z</time></trkpt><trkpt lat="46.040318507970575" lon="12.051331979203791"><ele>385.5</ele><time>2026-05-03T05:32:33Z</time></trkpt><trkpt lat="46.04035829579677" lon="12.051130207681695"><ele>385.0</ele><time>2026-05-03T05:32:34Z</time></trkpt><trkpt lat="46.04040389316916" lon="12.050922724956934"><ele>385.0</ele><time>2026-05-03T05:32:35Z</time></trkpt><trkpt lat="46.040449721122904" lon="12.050713866112522"><ele>385.0</ele><time>2026-05-03T05:32:36Z</time></trkpt><trkpt lat="46.040487825781206" lon="12.050491403490442"><ele>385.0</ele><time>2026-05-03T05:32:37Z</time></trkpt><trkpt lat="46.040528496704" lon="12.050280263374786"><ele>385.0</ele><time>2026-05-03T05:32:38Z</time></trkpt><trkpt lat="46.04056974714366" lon="12.050080110960101"><ele>385.0</ele><time>2026-05-03T05:32:39Z</time></trkpt><trkpt lat="46.040609940441534" lon="12.049884865212492"><ele>385.0</ele><time>2026-05-03T05:32:40Z</time></trkpt><trkpt lat="46.04064748375087" lon="12.049693879791464"><ele>385.0</ele><time>2026-05-03T05:32:41Z</time></trkpt><trkpt lat="46.040677868441044" lon="12.04950711599055"><ele>385.25</ele><time>2026-05-03T05:32:42Z</time></trkpt><trkpt lat="46.0407092220638" lon="12.049325916499456"><ele>385.5</ele><time>2026-05-03T05:32:43Z</time></trkpt><trkpt lat="46.040746198330226" lon="12.049132860503125"><ele>385.75</ele><time>2026-05-03T05:32:44Z</time></trkpt><trkpt lat="46.04078356711362" lon="12.048942607330208"><ele>386.0</ele><time>2026-05-03T05:32:45Z</time></trkpt><trkpt lat="46.04081828068375" lon="12.048753029521666"><ele>381.75</ele><time>2026-05-03T05:32:46Z</time></trkpt><trkpt lat="46.04084949502268" lon="12.048568344987292"><ele>377.5</ele><time>2026-05-03T05:32:47Z</time></trkpt><trkpt lat="46.0408859127135" lon="12.048380983910373"><ele>373.25</ele><time>2026-05-03T05:32:48Z</time></trkpt><trkpt lat="46.04093283508431" lon="12.04820311558302"><ele>369.0</ele><time>2026-05-03T05:32:49Z</time></trkpt><trkpt lat="46.04098861654683" lon="12.048034893964264"><ele>368.5</ele><time>2026-05-03T05:32:50Z</time></trkpt><trkpt lat="46.0410545223142" lon="12.047876917834865"><ele>368.0</ele><time>2026-05-03T05:32:51Z</time></trkpt><trkpt lat="46.041126975684314" lon="12.04772441779201"><ele>367.5</ele><time>2026-05-03T05:32:52Z</time></trkpt><trkpt lat="46.0412042297296" lon="12.047589630718091"><ele>367.0</ele><time>2026-05-03T05:32:53Z</time></trkpt><trkpt lat="46.04126912099173" lon="12.047433322140149"><ele>366.0</ele><time>2026-05-03T05:32:54Z</time></trkpt><trkpt lat="46.04134195721355" lon="12.04728294603957"><ele>365.0</ele><time>2026-05-03T05:32:55Z</time></trkpt><trkpt lat="46.041410277128534" lon="12.047130494343593"><ele>364.0</ele><time>2026-05-03T05:32:56Z</time></trkpt><trkpt lat="46.04146536832657" lon="12.047007555097043"><ele>363.0</ele><time>2026-05-03T05:32:57Z</time></trkpt><trkpt lat="46.0415267297226" lon="12.046891638717977"><ele>363.0</ele><time>2026-05-03T05:32:58Z</time></trkpt><trkpt lat="46.041602848285635" lon="12.046775388406711"><ele>363.0</ele><time>2026-05-03T05:32:59Z</time></trkpt><trkpt lat="46.041691387234195" lon="12.046660297948497"><ele>363.0</ele><time>2026-05-03T05:33:00Z</time></trkpt><trkpt lat="46.04179439444524" lon="12.046558664041072"><ele>363.0</ele><time>2026-05-03T05:33:01Z</time></trkpt><trkpt lat="46.04190081929776" lon="12.046461438517671"><ele>360.0</ele><time>2026-05-03T05:33:02Z</time></trkpt><trkpt lat="46.04200720662383" lon="12.04636154029302"><ele>357.0</ele><time>2026-05-03T05:33:03Z</time></trkpt><trkpt lat="46.04210742881982" lon="12.046247552373565"><ele>354.0</ele><time>2026-05-03T05:33:04Z</time></trkpt><trkpt lat="46.042206695590835" lon="12.046126780191342"><ele>351.0</ele><time>2026-05-03T05:33:05Z</time></trkpt><trkpt lat="46.04229272331394" lon="12.045999665904878"><ele>351.0</ele><time>2026-05-03T05:33:06Z</time></trkpt><trkpt lat="46.04236310402412" lon="12.045884507401666"><ele>351.0</ele><time>2026-05-03T05:33:07Z</time></trkpt><trkpt lat="46.042425097313966" lon="12.045781613052911"><ele>351.0</ele><time>2026-05-03T05:33:08Z</time></trkpt><trkpt lat="46.04250201124283" lon="12.04569384974531"><ele>351.0</ele><time>2026-05-03T05:33:09Z</time></trkpt><trkpt lat="46.04258050417153" lon="12.045628267985103"><ele>351.0</ele><time>2026-05-03T05:33:10Z</time></trkpt><trkpt lat="46.04265970362762" lon="12.04558269348694"><ele>348.7142857142857</ele><time>2026-05-03T05:33:11Z</time></trkpt><trkpt lat="46.04273764976799" lon="12.045554143683534"><ele>346.42857142857144</ele><time>2026-05-03T05:33:12Z</time></trkpt><trkpt lat="46.04281217217659" lon="12.045536877440817"><ele>344.1428571428571</ele><time>2026-05-03T05:33:13Z</time></trkpt><trkpt lat="46.0428887155922" lon="12.045532878555742"><ele>341.8571428571429</ele><time>2026-05-03T05:33:14Z</time></trkpt><trkpt lat="46.04296178224416" lon="12.0455355303764"><ele>339.57142857142856</ele><time>2026-05-03T05:33:15Z</time></trkpt><trkpt lat="46.043031681356254" lon="12.045545870395673"><ele>337.2857142857143</ele><time>2026-05-03T05:33:16Z</time></trkpt><trkpt lat="46.043098625502104" lon="12.045558613138644"><ele>335.0</ele><time>2026-05-03T05:33:17Z</time></trkpt><trkpt lat="46.04320692917146" lon="12.045563162972698"><ele>334.99999999999994</ele><time>2026-05-03T05:33:19Z</time></trkpt><trkpt lat="46.04325580395943" lon="12.04548761393826"><ele>335.0</ele><time>2026-05-03T05:33:21Z</time></trkpt><trkpt lat="46.04325593406304" lon="12.045396071920281"><ele>335.0</ele><time>2026-05-03T05:33:22Z</time></trkpt><trkpt lat="46.043257807365904" lon="12.045290676324678"><ele>335.0</ele><time>2026-05-03T05:33:23Z</time></trkpt><trkpt lat="46.04327092715862" lon="12.045166590644758"><ele>335.0</ele><time>2026-05-03T05:33:24Z</time></trkpt><trkpt lat="46.04328005167308" lon="12.045056539821383"><ele>334.99999999999994</ele><time>2026-05-03T05:33:25Z</time></trkpt><trkpt lat="46.043293760536024" lon="12.044947344567861"><ele>335.0</ele><time>2026-05-03T05:33:26Z</time></trkpt><trkpt lat="46.043294455147475" lon="12.044839725825181"><ele>333.4</ele><time>2026-05-03T05:33:27Z</time></trkpt><trkpt lat="46.04332387002259" lon="12.044677260909253"><ele>331.8</ele><time>2026-05-03T05:33:29Z</time></trkpt><trkpt lat="46.043357376176964" lon="12.044597680675434"><ele>330.20000000000005</ele><time>2026-05-03T05:33:30Z</time></trkpt><trkpt lat="46.04343101133665" lon="12.044462716801613"><ele>328.6</ele><time>2026-05-03T05:33:32Z</time></trkpt><trkpt lat="46.043502213108965" lon="12.044370392031968"><ele>327.0</ele><time>2026-05-03T05:33:34Z</time></trkpt><trkpt lat="46.04353291036976" lon="12.044253690641753"><ele>327.0</ele><time>2026-05-03T05:34:28Z</time></trkpt><trkpt lat="46.043563823929176" lon="12.044146769642166"><ele>327.0</ele><time>2026-05-03T05:34:29Z</time></trkpt><trkpt lat="46.043601359021736" lon="12.044031021221079"><ele>327.0</ele><time>2026-05-03T05:34:30Z</time></trkpt><trkpt lat="46.04366942136359" lon="12.043960677309794"><ele>327.0</ele><time>2026-05-03T05:34:31Z</time></trkpt><trkpt lat="46.043753417402" lon="12.043883227565619"><ele>327.0</ele><time>2026-05-03T05:34:32Z</time></trkpt><trkpt lat="46.043844147898895" lon="12.04384997624095"><ele>327.0</ele><time>2026-05-03T05:34:33Z</time></trkpt><trkpt lat="46.043956640864664" lon="12.04378373753708"><ele>327.0</ele><time>2026-05-03T05:34:34Z</time></trkpt><trkpt lat="46.04407930309239" lon="12.043743107343001"><ele>327.0</ele><time>2026-05-03T05:34:35Z</time></trkpt><trkpt lat="46.04419815654813" lon="12.043701360928631"><ele>327.0</ele><time>2026-05-03T05:34:36Z</time></trkpt><trkpt lat="46.04431311234399" lon="12.04365772712596"><ele>327.0</ele><time>2026-05-03T05:34:37Z</time></trkpt><trkpt lat="46.0444170387779" lon="12.043610839011306"><ele>325.25</ele><time>2026-05-03T05:34:38Z</time></trkpt><trkpt lat="46.04454072439167" lon="12.043562378775086"><ele>323.5</ele><time>2026-05-03T05:34:39Z</time></trkpt><trkpt lat="46.044664455435715" lon="12.043522246245667"><ele>321.75</ele><time>2026-05-03T05:34:40Z</time></trkpt><trkpt lat="46.044791940184574" lon="12.043465732897781"><ele>320.0</ele><time>2026-05-03T05:34:41Z</time></trkpt><trkpt lat="46.044899362500225" lon="12.04342858721189"><ele>320.6</ele><time>2026-05-03T05:34:42Z</time></trkpt><trkpt lat="46.045004890313145" lon="12.043386253492642"><ele>321.2</ele><time>2026-05-03T05:34:43Z</time></trkpt><trkpt lat="46.04507285425766" lon="12.043347773594139"><ele>321.79999999999995</ele><time>2026-05-03T05:34:44Z</time></trkpt><trkpt lat="46.04513763903364" lon="12.043320499837016"><ele>322.4</ele><time>2026-05-03T05:34:45Z</time></trkpt><trkpt lat="46.04528578447848" lon="12.043219238259336"><ele>323.0</ele><time>2026-05-03T05:34:47Z</time></trkpt><trkpt lat="46.04536226681379" lon="12.043087397008083"><ele>322.83333333333337</ele><time>2026-05-03T05:34:49Z</time></trkpt><trkpt lat="46.045370488549686" lon="12.042971889662823"><ele>322.6666666666667</ele><time>2026-05-03T05:34:50Z</time></trkpt><trkpt lat="46.04536708751642" lon="12.04285294846963"><ele>322.5</ele><time>2026-05-03T05:34:51Z</time></trkpt><trkpt lat="46.045365497610796" lon="12.042742639513484"><ele>322.3333333333333</ele><time>2026-05-03T05:34:52Z</time></trkpt><trkpt lat="46.04534860346824" lon="12.04255448157638"><ele>322.16666666666663</ele><time>2026-05-03T05:34:54Z</time></trkpt><trkpt lat="46.045322739357914" lon="12.042452513303404"><ele>322.0</ele><time>2026-05-03T05:34:55Z</time></trkpt><trkpt lat="46.04530052742803" lon="12.042306488578147"><ele>322.0</ele><time>2026-05-03T05:34:57Z</time></trkpt><trkpt lat="46.04530074938289" lon="12.042178036968599"><ele>322.0</ele><time>2026-05-03T05:34:59Z</time></trkpt><trkpt lat="46.045340637884244" lon="12.042107252619308"><ele>322.0</ele><time>2026-05-03T05:35:00Z</time></trkpt><trkpt lat="46.045410538572376" lon="12.041921032380317"><ele>322.0</ele><time>2026-05-03T05:35:02Z</time></trkpt><trkpt lat="46.04545917742384" lon="12.041800517272721"><ele>322.0</ele><time>2026-05-03T05:35:03Z</time></trkpt><trkpt lat="46.04552216122322" lon="12.041714857013751"><ele>322.0</ele><time>2026-05-03T05:35:04Z</time></trkpt><trkpt lat="46.04560717093183" lon="12.041701183236166"><ele>322.0</ele><time>2026-05-03T05:35:05Z</time></trkpt><trkpt lat="46.04569274466113" lon="12.041657667613313"><ele>322.0</ele><time>2026-05-03T05:35:06Z</time></trkpt><trkpt lat="46.04577199880315" lon="12.041613161086655"><ele>322.0</ele><time>2026-05-03T05:35:07Z</time></trkpt><trkpt lat="46.04583304556142" lon="12.041536688773897"><ele>322.0</ele><time>2026-05-03T05:35:08Z</time></trkpt><trkpt lat="46.045872150558885" lon="12.041451015194024"><ele>322.0</ele><time>2026-05-03T05:35:09Z</time></trkpt><trkpt lat="46.04589305311999" lon="12.041324404908176"><ele>321.40000000000003</ele><time>2026-05-03T05:35:10Z</time></trkpt><trkpt lat="46.045899924334584" lon="12.041170089969567"><ele>320.8</ele><time>2026-05-03T05:35:11Z</time></trkpt><trkpt lat="46.04590552282105" lon="12.041018417827296"><ele>320.2</ele><time>2026-05-03T05:35:12Z</time></trkpt><trkpt lat="46.04589782599957" lon="12.040865072036297"><ele>319.6</ele><time>2026-05-03T05:35:13Z</time></trkpt><trkpt lat="46.04587731273513" lon="12.04069296821328"><ele>319.0</ele><time>2026-05-03T05:35:14Z</time></trkpt><trkpt lat="46.045864692252245" lon="12.040511662904088"><ele>319.0</ele><time>2026-05-03T05:35:15Z</time></trkpt><trkpt lat="46.045861097312" lon="12.04034052255859"><ele>319.0</ele><time>2026-05-03T05:35:16Z</time></trkpt><trkpt lat="46.04585487963771" lon="12.0401709432765"><ele>319.0</ele><time>2026-05-03T05:35:17Z</time></trkpt><trkpt lat="46.04585785313796" lon="12.039994491523693"><ele>319.0</ele><time>2026-05-03T05:35:18Z</time></trkpt><trkpt lat="46.045879534631545" lon="12.039812563808301"><ele>318.5</ele><time>2026-05-03T05:35:19Z</time></trkpt><trkpt lat="46.04590506366713" lon="12.039625820261852"><ele>318.0</ele><time>2026-05-03T05:35:20Z</time></trkpt><trkpt lat="46.04591358120235" lon="12.039431583911194"><ele>317.5</ele><time>2026-05-03T05:35:21Z</time></trkpt><trkpt lat="46.045908186173854" lon="12.039250118186144"><ele>317.0</ele><time>2026-05-03T05:35:22Z</time></trkpt><trkpt lat="46.04591944301453" lon="12.03908484037311"><ele>316.4</ele><time>2026-05-03T05:35:23Z</time></trkpt><trkpt lat="46.04590991438783" lon="12.03894151033137"><ele>315.79999999999995</ele><time>2026-05-03T05:35:24Z</time></trkpt><trkpt lat="46.04591216943274" lon="12.038795939763071"><ele>315.2</ele><time>2026-05-03T05:35:25Z</time></trkpt><trkpt lat="46.04592447945856" lon="12.038672863833177"><ele>314.59999999999997</ele><time>2026-05-03T05:35:26Z</time></trkpt><trkpt lat="46.04594768691708" lon="12.038582428984663"><ele>314.0</ele><time>2026-05-03T05:35:27Z</time></trkpt><trkpt lat="46.046022658674765" lon="12.038433709466878"><ele>314.0</ele><time>2026-05-03T05:35:29Z</time></trkpt><trkpt lat="46.04607669334729" lon="12.038331383719123"><ele>314.0</ele><time>2026-05-03T05:35:30Z</time></trkpt><trkpt lat="46.04614278321658" lon="12.038223617322668"><ele>314.0</ele><time>2026-05-03T05:35:31Z</time></trkpt><trkpt lat="46.04622095260601" lon="12.038103366000453"><ele>314.0</ele><time>2026-05-03T05:35:32Z</time></trkpt><trkpt lat="46.046300660563496" lon="12.037974787256127"><ele>314.0</ele><time>2026-05-03T05:35:33Z</time></trkpt><trkpt lat="46.04636223727515" lon="12.03782185396276"><ele>313.8</ele><time>2026-05-03T05:35:34Z</time></trkpt><trkpt lat="46.04642433412956" lon="12.03768587282431"><ele>313.59999999999997</ele><time>2026-05-03T05:35:35Z</time></trkpt><trkpt lat="46.04647858956638" lon="12.037562117303775"><ele>313.4</ele><time>2026-05-03T05:35:36Z</time></trkpt><trkpt lat="46.0465212527495" lon="12.037448104848094"><ele>313.2</ele><time>2026-05-03T05:35:37Z</time></trkpt><trkpt lat="46.04652836998107" lon="12.037316651543447"><ele>313.0</ele><time>2026-05-03T05:35:38Z</time></trkpt><trkpt lat="46.046508816985856" lon="12.037188708191643"><ele>313.0</ele><time>2026-05-03T05:35:39Z</time></trkpt><trkpt lat="46.04645681453561" lon="12.037078276216556"><ele>313.0</ele><time>2026-05-03T05:35:40Z</time></trkpt><trkpt lat="46.04637778370779" lon="12.036996429602768"><ele>313.0</ele><time>2026-05-03T05:35:41Z</time></trkpt><trkpt lat="46.04628997782202" lon="12.036930250428808"><ele>313.0</ele><time>2026-05-03T05:35:42Z</time></trkpt><trkpt lat="46.04624878274913" lon="12.036828074249623"><ele>313.0</ele><time>2026-05-03T05:35:43Z</time></trkpt><trkpt lat="46.04620283789697" lon="12.036716175123377"><ele>312.6</ele><time>2026-05-03T05:35:44Z</time></trkpt><trkpt lat="46.04616595132616" lon="12.03657935037436"><ele>312.20000000000005</ele><time>2026-05-03T05:35:45Z</time></trkpt><trkpt lat="46.04612258974844" lon="12.036434847407975"><ele>311.8</ele><time>2026-05-03T05:35:46Z</time></trkpt><trkpt lat="46.04610515100498" lon="12.036272279673264"><ele>311.40000000000003</ele><time>2026-05-03T05:35:47Z</time></trkpt><trkpt lat="46.046097761395565" lon="12.03610398929195"><ele>311.0</ele><time>2026-05-03T05:35:48Z</time></trkpt><trkpt lat="46.04607977015995" lon="12.035932456258335"><ele>310.40000000000003</ele><time>2026-05-03T05:35:49Z</time></trkpt><trkpt lat="46.04604664492829" lon="12.035774211750415"><ele>309.8</ele><time>2026-05-03T05:35:49.999Z</time></trkpt><trkpt lat="46.04600417865597" lon="12.035642254383388"><ele>309.20000000000005</ele><time>2026-05-03T05:35:50.999Z</time></trkpt><trkpt lat="46.04593950264813" lon="12.035517978382233"><ele>308.6</ele><time>2026-05-03T05:35:51.999Z</time></trkpt><trkpt lat="46.04584864189559" lon="12.035400546546224"><ele>308.0</ele><time>2026-05-03T05:35:52.999Z</time></trkpt><trkpt lat="46.04575041126079" lon="12.035268209841844"><ele>308.0</ele><time>2026-05-03T05:35:53.999Z</time></trkpt><trkpt lat="46.04566076300837" lon="12.035134617460471"><ele>308.0</ele><time>2026-05-03T05:35:54.999Z</time></trkpt><trkpt lat="46.045582970334145" lon="12.035005800809317"><ele>308.0</ele><time>2026-05-03T05:35:55.999Z</time></trkpt><trkpt lat="46.04551367449659" lon="12.034872598841721"><ele>308.0</ele><time>2026-05-03T05:35:56.999Z</time></trkpt><trkpt lat="46.04545746472457" lon="12.034721422379837"><ele>306.75</ele><time>2026-05-03T05:35:57.999Z</time></trkpt><trkpt lat="46.04541620806846" lon="12.034565860525479"><ele>305.5</ele><time>2026-05-03T05:35:58.999Z</time></trkpt><trkpt lat="46.04538677659038" lon="12.034410083604655"><ele>304.25</ele><time>2026-05-03T05:35:59.999Z</time></trkpt><trkpt lat="46.045371877405536" lon="12.034239174564346"><ele>303.0</ele><time>2026-05-03T05:36:00.999Z</time></trkpt><trkpt lat="46.045368708702256" lon="12.034044030072339"><ele>300.0</ele><time>2026-05-03T05:36:01.999Z</time></trkpt><trkpt lat="46.04536238227669" lon="12.033830938348174"><ele>297.0</ele><time>2026-05-03T05:36:02.999Z</time></trkpt><trkpt lat="46.045338273900065" lon="12.03363976366336"><ele>294.0</ele><time>2026-05-03T05:36:03.999Z</time></trkpt><trkpt lat="46.04530332056682" lon="12.033463282255486"><ele>291.0</ele><time>2026-05-03T05:36:04.999Z</time></trkpt><trkpt lat="46.04524930521074" lon="12.033298196307127"><ele>289.6</ele><time>2026-05-03T05:36:05.999Z</time></trkpt><trkpt lat="46.04520547046917" lon="12.033139316562153"><ele>288.20000000000005</ele><time>2026-05-03T05:36:06.999Z</time></trkpt><trkpt lat="46.045181377823326" lon="12.032997138256194"><ele>286.79999999999995</ele><time>2026-05-03T05:36:07.999Z</time></trkpt><trkpt lat="46.04516725062353" lon="12.032866538660164"><ele>285.4</ele><time>2026-05-03T05:36:08.999Z</time></trkpt><trkpt lat="46.04515659251222" lon="12.03273806687558"><ele>284.0</ele><time>2026-05-03T05:36:09.999Z</time></trkpt><trkpt lat="46.04516636296136" lon="12.032613136405999"><ele>284.0</ele><time>2026-05-03T05:36:10.999Z</time></trkpt><trkpt lat="46.04518905169922" lon="12.03250966730804"><ele>284.0</ele><time>2026-05-03T05:36:11.999Z</time></trkpt><trkpt lat="46.04521039011669" lon="12.032373689659652"><ele>284.0</ele><time>2026-05-03T05:36:12.999Z</time></trkpt><trkpt lat="46.04524356819587" lon="12.0322607267803"><ele>284.0</ele><time>2026-05-03T05:36:13.999Z</time></trkpt><trkpt lat="46.045286519627346" lon="12.032143411837435"><ele>284.0</ele><time>2026-05-03T05:36:14.999Z</time></trkpt><trkpt lat="46.04533062275596" lon="12.032041517631654"><ele>284.0</ele><time>2026-05-03T05:36:15.999Z</time></trkpt><trkpt lat="46.045371352062766" lon="12.031955542855048"><ele>282.5</ele><time>2026-05-03T05:36:16.999Z</time></trkpt><trkpt lat="46.04546136896872" lon="12.031861444763491"><ele>281.0</ele><time>2026-05-03T05:36:18.999Z</time></trkpt><trkpt lat="46.04553078922559" lon="12.031795924449067"><ele>279.5</ele><time>2026-05-03T05:36:19.999Z</time></trkpt><trkpt lat="46.045599555560514" lon="12.031750396841659"><ele>278.0</ele><time>2026-05-03T05:36:20.999Z</time></trkpt><trkpt lat="46.045673062570934" lon="12.031679792635648"><ele>276.5</ele><time>2026-05-03T05:36:21.999Z</time></trkpt><trkpt lat="46.04573656815744" lon="12.031614388056427"><ele>275.0</ele><time>2026-05-03T05:36:22.999Z</time></trkpt><trkpt lat="46.04579813415263" lon="12.03157823381384"><ele>275.0</ele><time>2026-05-03T05:36:23.999Z</time></trkpt><trkpt lat="46.04586695807091" lon="12.03156270575863"><ele>275.0</ele><time>2026-05-03T05:36:24.999Z</time></trkpt><trkpt lat="46.04593753747755" lon="12.031601582552746"><ele>275.0</ele><time>2026-05-03T05:36:26Z</time></trkpt><trkpt lat="46.0460705462513" lon="12.031614157839638"><ele>275.0</ele><time>2026-05-03T05:36:28Z</time></trkpt><trkpt lat="46.04613483549598" lon="12.031577922926362"><ele>275.0</ele><time>2026-05-03T05:36:29Z</time></trkpt><trkpt lat="46.046198694463065" lon="12.031428544359796"><ele>275.0</ele><time>2026-05-03T05:36:31Z</time></trkpt><trkpt lat="46.0462133927142" lon="12.031310284349871"><ele>275.0</ele><time>2026-05-03T05:36:32Z</time></trkpt><trkpt lat="46.04624587605498" lon="12.031179456075519"><ele>275.0</ele><time>2026-05-03T05:36:33Z</time></trkpt><trkpt lat="46.04628701307535" lon="12.031082541827262"><ele>275.0</ele><time>2026-05-03T05:36:34Z</time></trkpt><trkpt lat="46.046361855885436" lon="12.030930023587503"><ele>275.0</ele><time>2026-05-03T05:36:36Z</time></trkpt><trkpt lat="46.04636038423028" lon="12.030812417184796"><ele>274.2</ele><time>2026-05-03T05:36:37Z</time></trkpt><trkpt lat="46.04633509395691" lon="12.030681997471179"><ele>273.4</ele><time>2026-05-03T05:36:38Z</time></trkpt><trkpt lat="46.046318966122016" lon="12.030557196829397"><ele>272.6</ele><time>2026-05-03T05:36:39Z</time></trkpt><trkpt lat="46.04631503016265" lon="12.030460768940896"><ele>271.8</ele><time>2026-05-03T05:36:40Z</time></trkpt><trkpt lat="46.04627156288466" lon="12.03033630472055"><ele>271.0</ele><time>2026-05-03T05:36:42Z</time></trkpt><trkpt lat="46.04615702134034" lon="12.030266329503972"><ele>271.0</ele><time>2026-05-03T05:36:44Z</time></trkpt><trkpt lat="46.04607400574509" lon="12.030316972767805"><ele>271.0</ele><time>2026-05-03T05:36:45Z</time></trkpt><trkpt lat="46.0459906941409" lon="12.030377475018682"><ele>271.0</ele><time>2026-05-03T05:36:46Z</time></trkpt><trkpt lat="46.04589725821611" lon="12.030447741294697"><ele>271.0</ele><time>2026-05-03T05:36:47Z</time></trkpt><trkpt lat="46.04579658679254" lon="12.030523046596866"><ele>271.0</ele><time>2026-05-03T05:36:48Z</time></trkpt><trkpt lat="46.04569539898271" lon="12.030595609713545"><ele>270.40000000000003</ele><time>2026-05-03T05:36:49Z</time></trkpt><trkpt lat="46.045602778344474" lon="12.030662030634433"><ele>269.8</ele><time>2026-05-03T05:36:50Z</time></trkpt><trkpt lat="46.04552804834961" lon="12.030722451015208"><ele>269.20000000000005</ele><time>2026-05-03T05:36:51Z</time></trkpt><trkpt lat="46.04544238081029" lon="12.030780415909716"><ele>268.6</ele><time>2026-05-03T05:36:53Z</time></trkpt><trkpt lat="46.04540823661949" lon="12.030625641269944"><ele>268.0</ele><time>2026-05-03T05:36:55Z</time></trkpt><trkpt lat="46.04544511945375" lon="12.030543492456731"><ele>268.0</ele><time>2026-05-03T05:36:56Z</time></trkpt><trkpt lat="46.045516665724875" lon="12.030508046593056"><ele>268.0</ele><time>2026-05-03T05:36:57Z</time></trkpt><trkpt lat="46.04555480742393" lon="12.030391275767437"><ele>268.0</ele><time>2026-05-03T05:36:58Z</time></trkpt><trkpt lat="46.0455368411681" lon="12.03024030518849"><ele>268.0</ele><time>2026-05-03T05:36:59Z</time></trkpt><trkpt lat="46.045517579737094" lon="12.030114833819624"><ele>268.0</ele><time>2026-05-03T05:37:00Z</time></trkpt><trkpt lat="46.04548476223378" lon="12.030006747409175"><ele>268.0</ele><time>2026-05-03T05:37:01Z</time></trkpt><trkpt lat="46.04543261631566" lon="12.029886682649423"><ele>267.4</ele><time>2026-05-03T05:37:02Z</time></trkpt><trkpt lat="46.045380977481166" lon="12.029776816623079"><ele>266.8</ele><time>2026-05-03T05:37:03Z</time></trkpt><trkpt lat="46.04533931497538" lon="12.029672834407899"><ele>266.2</ele><time>2026-05-03T05:37:04Z</time></trkpt><trkpt lat="46.04530673351906" lon="12.029539945836298"><ele>265.6</ele><time>2026-05-03T05:37:05Z</time></trkpt><trkpt lat="46.045298403932414" lon="12.029386059790195"><ele>265.0</ele><time>2026-05-03T05:37:06Z</time></trkpt><trkpt lat="46.04529544352018" lon="12.02924728868996"><ele>264.8333333333333</ele><time>2026-05-03T05:37:07Z</time></trkpt><trkpt lat="46.045295028713774" lon="12.029121464463365"><ele>264.66666666666663</ele><time>2026-05-03T05:37:08Z</time></trkpt><trkpt lat="46.04528968117759" lon="12.029000451260462"><ele>264.5</ele><time>2026-05-03T05:37:09Z</time></trkpt><trkpt lat="46.04528433813194" lon="12.028887416697218"><ele>264.3333333333333</ele><time>2026-05-03T05:37:10Z</time></trkpt><trkpt lat="46.04529444029419" lon="12.02878664804338"><ele>264.1666666666667</ele><time>2026-05-03T05:37:11Z</time></trkpt><trkpt lat="46.04528427966624" lon="12.028690125878033"><ele>264.0</ele><time>2026-05-03T05:37:13Z</time></trkpt><trkpt lat="46.045293041600445" lon="12.028517872320455"><ele>264.0</ele><time>2026-05-03T05:37:15Z</time></trkpt><trkpt lat="46.04530128030765" lon="12.028387360050761"><ele>264.0</ele><time>2026-05-03T05:37:16Z</time></trkpt><trkpt lat="46.04531585947126" lon="12.02823448853872"><ele>264.0</ele><time>2026-05-03T05:37:17Z</time></trkpt><trkpt lat="46.045327995637635" lon="12.028081767810459"><ele>264.0</ele><time>2026-05-03T05:37:18Z</time></trkpt><trkpt lat="46.04533116587079" lon="12.02790927207061"><ele>264.0</ele><time>2026-05-03T05:37:19Z</time></trkpt><trkpt lat="46.045315015084995" lon="12.027722764336426"><ele>264.0</ele><time>2026-05-03T05:37:20Z</time></trkpt><trkpt lat="46.04528706833647" lon="12.027534210956286"><ele>264.0</ele><time>2026-05-03T05:37:21Z</time></trkpt><trkpt lat="46.04524506630119" lon="12.027340734841147"><ele>264.0</ele><time>2026-05-03T05:37:22Z</time></trkpt><trkpt lat="46.04520079561056" lon="12.027132769933708"><ele>264.0</ele><time>2026-05-03T05:37:23Z</time></trkpt><trkpt lat="46.045170912175394" lon="12.026942276259087"><ele>264.0</ele><time>2026-05-03T05:37:24Z</time></trkpt><trkpt lat="46.045152304986075" lon="12.026755099998637"><ele>264.0</ele><time>2026-05-03T05:37:25Z</time></trkpt><trkpt lat="46.04514229718512" lon="12.02658231059427"><ele>264.0</ele><time>2026-05-03T05:37:26Z</time></trkpt><trkpt lat="46.04514280324281" lon="12.026412097200454"><ele>264.0</ele><time>2026-05-03T05:37:27Z</time></trkpt><trkpt lat="46.045155392590324" lon="12.026257457574046"><ele>264.0</ele><time>2026-05-03T05:37:28Z</time></trkpt><trkpt lat="46.045174210669494" lon="12.026111206905885"><ele>264.0</ele><time>2026-05-03T05:37:29Z</time></trkpt><trkpt lat="46.04519297192656" lon="12.025972333999784"><ele>264.0</ele><time>2026-05-03T05:37:30Z</time></trkpt><trkpt lat="46.045202062618536" lon="12.025835846049606"><ele>264.0</ele><time>2026-05-03T05:37:31Z</time></trkpt><trkpt lat="46.04521088498943" lon="12.025704217927206"><ele>264.0</ele><time>2026-05-03T05:37:32Z</time></trkpt><trkpt lat="46.04521947305125" lon="12.025579369780434"><ele>264.0</ele><time>2026-05-03T05:37:33Z</time></trkpt><trkpt lat="46.045228571436226" lon="12.025458449524951"><ele>264.0</ele><time>2026-05-03T05:37:34Z</time></trkpt><trkpt lat="46.04523814015662" lon="12.025344928033958"><ele>264.0</ele><time>2026-05-03T05:37:35Z</time></trkpt><trkpt lat="46.0452468668614" lon="12.02523862373749"><ele>264.0</ele><time>2026-05-03T05:37:36Z</time></trkpt><trkpt lat="46.04525678967604" lon="12.025107137977715"><ele>264.0</ele><time>2026-05-03T05:37:38Z</time></trkpt><trkpt lat="46.04506378929289" lon="12.02509730713542"><ele>264.0</ele><time>2026-05-03T05:37:40Z</time></trkpt><trkpt lat="46.04497172263237" lon="12.025110625977394"><ele>264.0</ele><time>2026-05-03T05:37:41Z</time></trkpt><trkpt lat="46.04487382789162" lon="12.025105123671722"><ele>264.0</ele><time>2026-05-03T05:37:42Z</time></trkpt><trkpt lat="46.044772934580905" lon="12.025101548860256"><ele>264.0</ele><time>2026-05-03T05:37:43Z</time></trkpt><trkpt lat="46.0446583672041" lon="12.025104935989674"><ele>264.0</ele><time>2026-05-03T05:37:44Z</time></trkpt><trkpt lat="46.044539669970185" lon="12.025101539664778"><ele>264.59999999999997</ele><time>2026-05-03T05:37:45Z</time></trkpt><trkpt lat="46.04442024330231" lon="12.025096384821415"><ele>265.2</ele><time>2026-05-03T05:37:46Z</time></trkpt><trkpt lat="46.04431623096928" lon="12.025095482881717"><ele>265.79999999999995</ele><time>2026-05-03T05:37:47Z</time></trkpt><trkpt lat="46.044214702682055" lon="12.025125499457127"><ele>266.4</ele><time>2026-05-03T05:37:48Z</time></trkpt><trkpt lat="46.044112437796564" lon="12.025199719386176"><ele>267.0</ele><time>2026-05-03T05:37:49Z</time></trkpt><trkpt lat="46.044000218368694" lon="12.025272564599744"><ele>269.0</ele><time>2026-05-03T05:37:50Z</time></trkpt><trkpt lat="46.043894226900775" lon="12.025360151413983"><ele>271.0</ele><time>2026-05-03T05:37:51Z</time></trkpt><trkpt lat="46.04378081367915" lon="12.0254330700099"><ele>273.0</ele><time>2026-05-03T05:37:52Z</time></trkpt><trkpt lat="46.04367833552978" lon="12.025491567290802"><ele>275.0</ele><time>2026-05-03T05:37:53Z</time></trkpt><trkpt lat="46.043586615853975" lon="12.025538268650996"><ele>275.0</ele><time>2026-05-03T05:37:54Z</time></trkpt><trkpt lat="46.043506325170455" lon="12.025560509773864"><ele>275.0</ele><time>2026-05-03T05:37:55Z</time></trkpt><trkpt lat="46.04343475102847" lon="12.025556852693935"><ele>275.0</ele><time>2026-05-03T05:37:57Z</time></trkpt><trkpt lat="46.043369994686344" lon="12.02556638806353"><ele>275.0</ele><time>2026-05-03T05:37:58.999Z</time></trkpt><trkpt lat="46.04331988129876" lon="12.025803327309685"><ele>275.0</ele><time>2026-05-03T05:37:59.999Z</time></trkpt><trkpt lat="46.04330486231944" lon="12.025937398709404"><ele>283.25</ele><time>2026-05-03T05:38:00.999Z</time></trkpt><trkpt lat="46.043294156113646" lon="12.026086477276333"><ele>291.5</ele><time>2026-05-03T05:38:01.999Z</time></trkpt><trkpt lat="46.043283519765914" lon="12.026248084803301"><ele>299.75</ele><time>2026-05-03T05:38:02.999Z</time></trkpt><trkpt lat="46.04327276633713" lon="12.026423751021786"><ele>308.0</ele><time>2026-05-03T05:38:03.999Z</time></trkpt><trkpt lat="46.04326427099326" lon="12.026607872140595"><ele>308.25</ele><time>2026-05-03T05:38:04.999Z</time></trkpt><trkpt lat="46.043270201347376" lon="12.02679605320892"><ele>308.5</ele><time>2026-05-03T05:38:05.999Z</time></trkpt><trkpt lat="46.04326408086451" lon="12.026983577343534"><ele>308.75</ele><time>2026-05-03T05:38:06.999Z</time></trkpt><trkpt lat="46.043262879414264" lon="12.027173004366363"><ele>309.0</ele><time>2026-05-03T05:38:07.999Z</time></trkpt><trkpt lat="46.04327063625078" lon="12.027357764367299"><ele>308.8</ele><time>2026-05-03T05:38:08.999Z</time></trkpt><trkpt lat="46.0432800438127" lon="12.02752329487079"><ele>308.59999999999997</ele><time>2026-05-03T05:38:09.999Z</time></trkpt><trkpt lat="46.0432885217637" lon="12.02768195042379"><ele>308.4</ele><time>2026-05-03T05:38:10.999Z</time></trkpt><trkpt lat="46.04329197687362" lon="12.02782985331417"><ele>308.2</ele><time>2026-05-03T05:38:11.999Z</time></trkpt><trkpt lat="46.04328961871073" lon="12.02796954306972"><ele>308.0</ele><time>2026-05-03T05:38:12.999Z</time></trkpt><trkpt lat="46.04325372966389" lon="12.02807965756351"><ele>308.0</ele><time>2026-05-03T05:38:13.999Z</time></trkpt><trkpt lat="46.043219868462494" lon="12.028181522124308"><ele>308.0</ele><time>2026-05-03T05:38:14.999Z</time></trkpt><trkpt lat="46.04317145543464" lon="12.028279030324175"><ele>308.0</ele><time>2026-05-03T05:38:15.999Z</time></trkpt><trkpt lat="46.0431197419772" lon="12.028374990685894"><ele>308.0</ele><time>2026-05-03T05:38:16.999Z</time></trkpt><trkpt lat="46.04303180673149" lon="12.028464198115614"><ele>308.0</ele><time>2026-05-03T05:38:17.999Z</time></trkpt><trkpt lat="46.04294767070263" lon="12.028564767103138"><ele>308.25</ele><time>2026-05-03T05:38:18.999Z</time></trkpt><trkpt lat="46.04287497193123" lon="12.028704223602386"><ele>308.5</ele><time>2026-05-03T05:38:19.999Z</time></trkpt><trkpt lat="46.04280702485957" lon="12.02887770053617"><ele>308.75</ele><time>2026-05-03T05:38:20.999Z</time></trkpt><trkpt lat="46.04273942144246" lon="12.029055413868509"><ele>309.0</ele><time>2026-05-03T05:38:21.999Z</time></trkpt><trkpt lat="46.04267931419301" lon="12.029224555981422"><ele>308.25</ele><time>2026-05-03T05:38:22.999Z</time></trkpt><trkpt lat="46.04261581296203" lon="12.029406050223873"><ele>307.5</ele><time>2026-05-03T05:38:23.999Z</time></trkpt><trkpt lat="46.042561496785794" lon="12.029593329981335"><ele>306.75</ele><time>2026-05-03T05:38:24.999Z</time></trkpt><trkpt lat="46.04250405022248" lon="12.029766578886353"><ele>306.0</ele><time>2026-05-03T05:38:25.999Z</time></trkpt><trkpt lat="46.042439368328125" lon="12.02992297579595"><ele>309.75</ele><time>2026-05-03T05:38:26.999Z</time></trkpt><trkpt lat="46.042360874074475" lon="12.03006733198322"><ele>313.5</ele><time>2026-05-03T05:38:27.999Z</time></trkpt><trkpt lat="46.042288647303444" lon="12.030196271251071"><ele>317.25</ele><time>2026-05-03T05:38:28.999Z</time></trkpt><trkpt lat="46.04220468871294" lon="12.030309812438443"><ele>321.0</ele><time>2026-05-03T05:38:29.999Z</time></trkpt><trkpt lat="46.0421063299296" lon="12.03037629142433"><ele>321.0</ele><time>2026-05-03T05:38:30.999Z</time></trkpt><trkpt lat="46.04201288047502" lon="12.030440308131688"><ele>321.0</ele><time>2026-05-03T05:38:32Z</time></trkpt><trkpt lat="46.04191877473653" lon="12.030521827328517"><ele>321.0</ele><time>2026-05-03T05:38:33Z</time></trkpt><trkpt lat="46.041852685288596" lon="12.030657534906917"><ele>321.0</ele><time>2026-05-03T05:38:34Z</time></trkpt><trkpt lat="46.04177947270618" lon="12.030807266725986"><ele>319.5</ele><time>2026-05-03T05:38:35Z</time></trkpt><trkpt lat="46.04170455425138" lon="12.030956995908378"><ele>318.0</ele><time>2026-05-03T05:38:36Z</time></trkpt><trkpt lat="46.041633782193884" lon="12.031119306407042"><ele>316.5</ele><time>2026-05-03T05:38:37Z</time></trkpt><trkpt lat="46.04157505442836" lon="12.031281012396716"><ele>315.0</ele><time>2026-05-03T05:38:38Z</time></trkpt><trkpt lat="46.04151986719302" lon="12.031452449652816"><ele>318.25</ele><time>2026-05-03T05:38:39Z</time></trkpt><trkpt lat="46.04145794262415" lon="12.031622562002537"><ele>321.5</ele><time>2026-05-03T05:38:40Z</time></trkpt><trkpt lat="46.04138533271297" lon="12.031766729686797"><ele>324.75</ele><time>2026-05-03T05:38:41Z</time></trkpt><trkpt lat="46.04130709836796" lon="12.031906475880731"><ele>328.0</ele><time>2026-05-03T05:38:42Z</time></trkpt><trkpt lat="46.04123657694461" lon="12.032015660199333"><ele>328.0</ele><time>2026-05-03T05:38:43Z</time></trkpt><trkpt lat="46.04115812266876" lon="12.032110069995753"><ele>328.0</ele><time>2026-05-03T05:38:44Z</time></trkpt><trkpt lat="46.04105938311812" lon="12.032215674638495"><ele>328.0</ele><time>2026-05-03T05:38:45Z</time></trkpt><trkpt lat="46.04095760799932" lon="12.032313746405793"><ele>328.0</ele><time>2026-05-03T05:38:46Z</time></trkpt><trkpt lat="46.04087692676386" lon="12.032450200508995"><ele>327.25</ele><time>2026-05-03T05:38:47Z</time></trkpt><trkpt lat="46.040807420036565" lon="12.032597579962749"><ele>326.5</ele><time>2026-05-03T05:38:48Z</time></trkpt><trkpt lat="46.04075642349302" lon="12.032765603732718"><ele>325.75</ele><time>2026-05-03T05:38:49Z</time></trkpt><trkpt lat="46.04069601852832" lon="12.032941686586806"><ele>325.0</ele><time>2026-05-03T05:38:50Z</time></trkpt><trkpt lat="46.04065149630919" lon="12.033145277909721"><ele>330.25</ele><time>2026-05-03T05:38:51Z</time></trkpt><trkpt lat="46.04061637462728" lon="12.033342843777941"><ele>335.5</ele><time>2026-05-03T05:38:52Z</time></trkpt><trkpt lat="46.04056795181362" lon="12.033523599591177"><ele>340.75</ele><time>2026-05-03T05:38:53Z</time></trkpt><trkpt lat="46.04052300994065" lon="12.033674084385884"><ele>346.0</ele><time>2026-05-03T05:38:54Z</time></trkpt><trkpt lat="46.040481687636166" lon="12.033806261022734"><ele>346.0</ele><time>2026-05-03T05:38:55Z</time></trkpt><trkpt lat="46.040432363551396" lon="12.033935698442713"><ele>346.0</ele><time>2026-05-03T05:38:56Z</time></trkpt><trkpt lat="46.040377619966776" lon="12.034050077784872"><ele>346.0</ele><time>2026-05-03T05:38:57Z</time></trkpt><trkpt lat="46.0403182381197" lon="12.034167099194741"><ele>346.0</ele><time>2026-05-03T05:38:58Z</time></trkpt><trkpt lat="46.04026399624056" lon="12.0343052119969"><ele>346.0</ele><time>2026-05-03T05:38:59Z</time></trkpt><trkpt lat="46.040205919923665" lon="12.034456129437041"><ele>345.75</ele><time>2026-05-03T05:39:00Z</time></trkpt><trkpt lat="46.040136117837044" lon="12.034618300037417"><ele>345.5</ele><time>2026-05-03T05:39:01Z</time></trkpt><trkpt lat="46.0400607729565" lon="12.03477832326819"><ele>345.25</ele><time>2026-05-03T05:39:02Z</time></trkpt><trkpt lat="46.039963513816545" lon="12.034943514136577"><ele>345.0</ele><time>2026-05-03T05:39:03Z</time></trkpt><trkpt lat="46.03989951461963" lon="12.035138762072327"><ele>348.0</ele><time>2026-05-03T05:39:04Z</time></trkpt><trkpt lat="46.03983050382382" lon="12.035351281170731"><ele>351.0</ele><time>2026-05-03T05:39:05Z</time></trkpt><trkpt lat="46.03981046672202" lon="12.035593543296322"><ele>354.0</ele><time>2026-05-03T05:39:06Z</time></trkpt><trkpt lat="46.039783893292366" lon="12.035815511103436"><ele>354.0</ele><time>2026-05-03T05:39:07Z</time></trkpt><trkpt lat="46.0397387884879" lon="12.036007242959755"><ele>354.0</ele><time>2026-05-03T05:39:08Z</time></trkpt><trkpt lat="46.039703488312256" lon="12.036171712618538"><ele>354.0</ele><time>2026-05-03T05:39:09Z</time></trkpt><trkpt lat="46.03967920610201" lon="12.036313956089872"><ele>354.0</ele><time>2026-05-03T05:39:10Z</time></trkpt><trkpt lat="46.039617560601904" lon="12.036400492390962"><ele>354.0</ele><time>2026-05-03T05:39:11Z</time></trkpt><trkpt lat="46.03956009354955" lon="12.036478644347213"><ele>354.0</ele><time>2026-05-03T05:39:12Z</time></trkpt><trkpt lat="46.03949330314244" lon="12.036569106805329"><ele>354.0</ele><time>2026-05-03T05:39:13Z</time></trkpt><trkpt lat="46.03939328178251" lon="12.03659969274117"><ele>354.0</ele><time>2026-05-03T05:39:14Z</time></trkpt><trkpt lat="46.039290365466314" lon="12.036640708982441"><ele>354.0</ele><time>2026-05-03T05:39:15Z</time></trkpt><trkpt lat="46.03917609413862" lon="12.036684208439363"><ele>354.0</ele><time>2026-05-03T05:39:16Z</time></trkpt><trkpt lat="46.03907509259194" lon="12.03673013890738"><ele>355.6</ele><time>2026-05-03T05:39:17Z</time></trkpt><trkpt lat="46.03899213773024" lon="12.036811870285346"><ele>357.2</ele><time>2026-05-03T05:39:18Z</time></trkpt><trkpt lat="46.03896116927324" lon="12.036963917845817"><ele>358.8</ele><time>2026-05-03T05:39:19Z</time></trkpt><trkpt lat="46.03894109324841" lon="12.03711280140812"><ele>360.40000000000003</ele><time>2026-05-03T05:39:20Z</time></trkpt><trkpt lat="46.03890228285097" lon="12.037261374857312"><ele>362.0</ele><time>2026-05-03T05:39:21Z</time></trkpt><trkpt lat="46.03887032891178" lon="12.037415619810874"><ele>362.75</ele><time>2026-05-03T05:39:22Z</time></trkpt><trkpt lat="46.038837522309706" lon="12.037573979274114"><ele>363.5</ele><time>2026-05-03T05:39:23Z</time></trkpt><trkpt lat="46.03880935320542" lon="12.037743764835144"><ele>364.25</ele><time>2026-05-03T05:39:24Z</time></trkpt><trkpt lat="46.0387794604238" lon="12.037925385820488"><ele>365.0</ele><time>2026-05-03T05:39:25Z</time></trkpt><trkpt lat="46.03874975124514" lon="12.03810561101943"><ele>364.75</ele><time>2026-05-03T05:39:26Z</time></trkpt><trkpt lat="46.03871864153663" lon="12.038304960465718"><ele>364.5</ele><time>2026-05-03T05:39:27Z</time></trkpt><trkpt lat="46.03870765425893" lon="12.038499506296285"><ele>364.25</ele><time>2026-05-03T05:39:28Z</time></trkpt><trkpt lat="46.03868359948298" lon="12.038667124307427"><ele>364.0</ele><time>2026-05-03T05:39:29Z</time></trkpt><trkpt lat="46.038657536344104" lon="12.038819463588185"><ele>364.0</ele><time>2026-05-03T05:39:30Z</time></trkpt><trkpt lat="46.03862365298021" lon="12.038966511142002"><ele>364.0</ele><time>2026-05-03T05:39:31Z</time></trkpt><trkpt lat="46.03856202853802" lon="12.039097785890117"><ele>364.0</ele><time>2026-05-03T05:39:32Z</time></trkpt><trkpt lat="46.0385151176777" lon="12.039228674358892"><ele>364.0</ele><time>2026-05-03T05:39:33Z</time></trkpt><trkpt lat="46.03847078535114" lon="12.039325575738447"><ele>364.0</ele><time>2026-05-03T05:39:34Z</time></trkpt><trkpt lat="46.03842121826121" lon="12.039409359650707"><ele>363.2</ele><time>2026-05-03T05:39:35Z</time></trkpt><trkpt lat="46.03835689352207" lon="12.03945857388477"><ele>362.4</ele><time>2026-05-03T05:39:36Z</time></trkpt><trkpt lat="46.03826800433283" lon="12.039496026878966"><ele>361.6</ele><time>2026-05-03T05:39:37Z</time></trkpt><trkpt lat="46.03817533149943" lon="12.039550775659533"><ele>360.8</ele><time>2026-05-03T05:39:38Z</time></trkpt><trkpt lat="46.03807566788592" lon="12.039624730847583"><ele>360.0</ele><time>2026-05-03T05:39:39Z</time></trkpt><trkpt lat="46.03797638651587" lon="12.039711764154598"><ele>361.5</ele><time>2026-05-03T05:39:40Z</time></trkpt><trkpt lat="46.0378964414693" lon="12.039777834062567"><ele>363.0</ele><time>2026-05-03T05:39:41Z</time></trkpt><trkpt lat="46.03783402354034" lon="12.039851864892613"><ele>364.5</ele><time>2026-05-03T05:39:42Z</time></trkpt><trkpt lat="46.0377642642618" lon="12.039885550534706"><ele>366.0</ele><time>2026-05-03T05:39:43Z</time></trkpt><trkpt lat="46.03769960805861" lon="12.039899312045403"><ele>367.5</ele><time>2026-05-03T05:39:44Z</time></trkpt><trkpt lat="46.03762461865971" lon="12.039903051369551"><ele>369.0</ele><time>2026-05-03T05:39:45Z</time></trkpt><trkpt lat="46.03753802910022" lon="12.039892560274538"><ele>373.4</ele><time>2026-05-03T05:39:46Z</time></trkpt><trkpt lat="46.03744498869922" lon="12.039841922652156"><ele>377.79999999999995</ele><time>2026-05-03T05:39:47Z</time></trkpt><trkpt lat="46.03734283821509" lon="12.039807854742518"><ele>382.20000000000005</ele><time>2026-05-03T05:39:48Z</time></trkpt><trkpt lat="46.03722642142991" lon="12.03976924203175"><ele>386.6</ele><time>2026-05-03T05:39:49Z</time></trkpt><trkpt lat="46.037112981928836" lon="12.039769190126323"><ele>391.0</ele><time>2026-05-03T05:39:50Z</time></trkpt><trkpt lat="46.03699276138779" lon="12.039762885781512"><ele>391.0</ele><time>2026-05-03T05:39:51Z</time></trkpt><trkpt lat="46.03686186881707" lon="12.039764167061804"><ele>391.0</ele><time>2026-05-03T05:39:52Z</time></trkpt><trkpt lat="46.03673520404423" lon="12.039847152400071"><ele>391.0</ele><time>2026-05-03T05:39:53Z</time></trkpt><trkpt lat="46.03657514221514" lon="12.039890402897845"><ele>391.0</ele><time>2026-05-03T05:39:54Z</time></trkpt><trkpt lat="46.036416856198365" lon="12.03997981979009"><ele>390.5</ele><time>2026-05-03T05:39:55Z</time></trkpt><trkpt lat="46.036268508376935" lon="12.040039807649288"><ele>390.0</ele><time>2026-05-03T05:39:56Z</time></trkpt><trkpt lat="46.03612455889543" lon="12.040098382583492"><ele>389.5</ele><time>2026-05-03T05:39:57Z</time></trkpt><trkpt lat="46.03599812890994" lon="12.04015112335024"><ele>389.0</ele><time>2026-05-03T05:39:58Z</time></trkpt><trkpt lat="46.03586054166281" lon="12.04020289112275"><ele>392.0</ele><time>2026-05-03T05:39:59Z</time></trkpt><trkpt lat="46.035740479920186" lon="12.040232642974372"><ele>395.0</ele><time>2026-05-03T05:40:00Z</time></trkpt><trkpt lat="46.035632785282424" lon="12.040251589219299"><ele>398.0</ele><time>2026-05-03T05:40:01Z</time></trkpt><trkpt lat="46.03553157319764" lon="12.040267394763859"><ele>401.0</ele><time>2026-05-03T05:40:02Z</time></trkpt><trkpt lat="46.03544743055709" lon="12.040263745959988"><ele>404.0</ele><time>2026-05-03T05:40:03Z</time></trkpt><trkpt lat="46.03535044380584" lon="12.040323924869169"><ele>404.0</ele><time>2026-05-03T05:40:04Z</time></trkpt><trkpt lat="46.03531543176869" lon="12.040482280837299"><ele>404.0</ele><time>2026-05-03T05:40:05Z</time></trkpt><trkpt lat="46.0352488651039" lon="12.04057515708724"><ele>404.0</ele><time>2026-05-03T05:40:06Z</time></trkpt><trkpt lat="46.03518968249873" lon="12.040650567758808"><ele>404.0</ele><time>2026-05-03T05:40:07Z</time></trkpt><trkpt lat="46.035114056298625" lon="12.040698198661321"><ele>404.0</ele><time>2026-05-03T05:40:08Z</time></trkpt><trkpt lat="46.03502759199101" lon="12.040742432102812"><ele>407.16666666666663</ele><time>2026-05-03T05:40:09Z</time></trkpt><trkpt lat="46.03493784554437" lon="12.040776030219908"><ele>410.3333333333333</ele><time>2026-05-03T05:40:10Z</time></trkpt><trkpt lat="46.03485432101238" lon="12.040781040643017"><ele>413.5</ele><time>2026-05-03T05:40:10.999Z</time></trkpt><trkpt lat="46.03477286325664" lon="12.040779241944396"><ele>416.66666666666663</ele><time>2026-05-03T05:40:11.999Z</time></trkpt><trkpt lat="46.03469392253292" lon="12.040762194846497"><ele>419.8333333333333</ele><time>2026-05-03T05:40:12.999Z</time></trkpt><trkpt lat="46.03460863923439" lon="12.040739770375922"><ele>423.0</ele><time>2026-05-03T05:40:13.999Z</time></trkpt><trkpt lat="46.03452121141546" lon="12.040742635749082"><ele>423.0</ele><time>2026-05-03T05:40:14.999Z</time></trkpt><trkpt lat="46.03442879839762" lon="12.040710752381466"><ele>423.0</ele><time>2026-05-03T05:40:15.999Z</time></trkpt><trkpt lat="46.03433345569022" lon="12.040698528662226"><ele>423.0</ele><time>2026-05-03T05:40:16.999Z</time></trkpt><trkpt lat="46.03422998463424" lon="12.04070804247149"><ele>423.0</ele><time>2026-05-03T05:40:17.999Z</time></trkpt><trkpt lat="46.03412688992075" lon="12.040725859578744"><ele>423.0</ele><time>2026-05-03T05:40:18.999Z</time></trkpt><trkpt lat="46.03401045714518" lon="12.040766254478655"><ele>422.75</ele><time>2026-05-03T05:40:19.999Z</time></trkpt><trkpt lat="46.033880640780374" lon="12.040848629834272"><ele>422.5</ele><time>2026-05-03T05:40:20.999Z</time></trkpt><trkpt lat="46.03375826537909" lon="12.040918707429798"><ele>422.25</ele><time>2026-05-03T05:40:21.999Z</time></trkpt><trkpt lat="46.033628428271264" lon="12.040982452808608"><ele>422.0</ele><time>2026-05-03T05:40:22.999Z</time></trkpt><trkpt lat="46.03349424442782" lon="12.041052189747328"><ele>422.0</ele><time>2026-05-03T05:40:23.999Z</time></trkpt><trkpt lat="46.03332189610465" lon="12.041134949654177"><ele>422.0</ele><time>2026-05-03T05:40:24.999Z</time></trkpt><trkpt lat="46.03318968733072" lon="12.041225104074654"><ele>422.0</ele><time>2026-05-03T05:40:25.999Z</time></trkpt><trkpt lat="46.033079970608" lon="12.041309188516475"><ele>424.40000000000003</ele><time>2026-05-03T05:40:26.999Z</time></trkpt><trkpt lat="46.0329814474907" lon="12.04136533650811"><ele>426.8</ele><time>2026-05-03T05:40:27.999Z</time></trkpt><trkpt lat="46.0328995661933" lon="12.041413907104111"><ele>429.2</ele><time>2026-05-03T05:40:28.999Z</time></trkpt><trkpt lat="46.03280991896181" lon="12.041449693032943"><ele>431.6</ele><time>2026-05-03T05:40:29.999Z</time></trkpt><trkpt lat="46.03272313027172" lon="12.041465631408888"><ele>434.0</ele><time>2026-05-03T05:40:30.999Z</time></trkpt><trkpt lat="46.032648766736784" lon="12.041480036420236"><ele>433.99999999999994</ele><time>2026-05-03T05:40:31.999Z</time></trkpt><trkpt lat="46.03258079320673" lon="12.041487812793232"><ele>434.0</ele><time>2026-05-03T05:40:32.999Z</time></trkpt><trkpt lat="46.03250510224736" lon="12.0414819906438"><ele>434.0</ele><time>2026-05-03T05:40:33.999Z</time></trkpt><trkpt lat="46.03242549183571" lon="12.041475219482127"><ele>434.0</ele><time>2026-05-03T05:40:34.999Z</time></trkpt><trkpt lat="46.032349422958475" lon="12.041453689981939"><ele>433.99999999999994</ele><time>2026-05-03T05:40:35.999Z</time></trkpt><trkpt lat="46.03226950863025" lon="12.041434404842809"><ele>434.0</ele><time>2026-05-03T05:40:36.999Z</time></trkpt><trkpt lat="46.03219306679724" lon="12.041413318210811"><ele>436.3333333333333</ele><time>2026-05-03T05:40:38Z</time></trkpt><trkpt lat="46.032106042432346" lon="12.041407695630472"><ele>438.66666666666663</ele><time>2026-05-03T05:40:39Z</time></trkpt><trkpt lat="46.03202727807347" lon="12.04141532395791"><ele>441.0</ele><time>2026-05-03T05:40:40Z</time></trkpt><trkpt lat="46.03195154520057" lon="12.041429909273617"><ele>443.33333333333337</ele><time>2026-05-03T05:40:41Z</time></trkpt><trkpt lat="46.03187544649756" lon="12.04146638656774"><ele>445.6666666666667</ele><time>2026-05-03T05:40:42Z</time></trkpt><trkpt lat="46.03180302041183" lon="12.041519398569736"><ele>448.0</ele><time>2026-05-03T05:40:43Z</time></trkpt><trkpt lat="46.03173224831216" lon="12.041595465740903"><ele>450.00000000000006</ele><time>2026-05-03T05:40:44Z</time></trkpt><trkpt lat="46.031655235055624" lon="12.041648517554936"><ele>452.0</ele><time>2026-05-03T05:40:45Z</time></trkpt><trkpt lat="46.03160467046293" lon="12.04174675350621"><ele>454.0</ele><time>2026-05-03T05:40:46Z</time></trkpt><trkpt lat="46.03154509796846" lon="12.041817895771748"><ele>456.0</ele><time>2026-05-03T05:40:47Z</time></trkpt><trkpt lat="46.03148958892067" lon="12.041879995186559"><ele>458.00000000000006</ele><time>2026-05-03T05:40:48Z</time></trkpt><trkpt lat="46.03142491223291" lon="12.041930765489633"><ele>460.0</ele><time>2026-05-03T05:40:49Z</time></trkpt><trkpt lat="46.031359275772886" lon="12.041974331715204"><ele>460.00000000000006</ele><time>2026-05-03T05:40:50Z</time></trkpt><trkpt lat="46.0312939030847" lon="12.041978129612934"><ele>460.0</ele><time>2026-05-03T05:40:51Z</time></trkpt><trkpt lat="46.03122507947098" lon="12.042013045784886"><ele>460.0</ele><time>2026-05-03T05:40:52Z</time></trkpt><trkpt lat="46.03117694533943" lon="12.042086887028702"><ele>460.0</ele><time>2026-05-03T05:40:53Z</time></trkpt><trkpt lat="46.03114998119733" lon="12.042187240341725"><ele>460.00000000000006</ele><time>2026-05-03T05:40:54Z</time></trkpt><trkpt lat="46.03114044113058" lon="12.04231958166039"><ele>460.0</ele><time>2026-05-03T05:40:55Z</time></trkpt><trkpt lat="46.03112816069709" lon="12.042439246087202"><ele>459.2</ele><time>2026-05-03T05:40:57Z</time></trkpt><trkpt lat="46.03107042537268" lon="12.042565946443132"><ele>458.4</ele><time>2026-05-03T05:40:59Z</time></trkpt><trkpt lat="46.0309991432469" lon="12.04265057650682"><ele>457.6</ele><time>2026-05-03T05:41:01Z</time></trkpt><trkpt lat="46.03088174545699" lon="12.042689623458108"><ele>456.8</ele><time>2026-05-03T05:41:03Z</time></trkpt><trkpt lat="46.03080646911867" lon="12.042660610351717"><ele>456.0</ele><time>2026-05-03T05:41:04Z</time></trkpt><trkpt lat="46.03073045320632" lon="12.042629414066186"><ele>456.0</ele><time>2026-05-03T05:41:05Z</time></trkpt><trkpt lat="46.03066852296855" lon="12.042611979272147"><ele>456.0</ele><time>2026-05-03T05:41:06Z</time></trkpt><trkpt lat="46.030591575418875" lon="12.0426180610199"><ele>456.0</ele><time>2026-05-03T05:41:07Z</time></trkpt><trkpt lat="46.03050316561082" lon="12.042637949264057"><ele>456.0</ele><time>2026-05-03T05:41:08Z</time></trkpt><trkpt lat="46.03042061842443" lon="12.042655486341323"><ele>456.0</ele><time>2026-05-03T05:41:09Z</time></trkpt><trkpt lat="46.030355069525925" lon="12.042673851393923"><ele>456.0</ele><time>2026-05-03T05:41:10Z</time></trkpt><trkpt lat="46.030274498293814" lon="12.042670272923884"><ele>456.0</ele><time>2026-05-03T05:41:11Z</time></trkpt><trkpt lat="46.03017212913565" lon="12.042685927530377"><ele>456.0</ele><time>2026-05-03T05:41:12Z</time></trkpt><trkpt lat="46.03006553264298" lon="12.042768683166837"><ele>456.0</ele><time>2026-05-03T05:41:13Z</time></trkpt><trkpt lat="46.02998653952373" lon="12.0428909718643"><ele>456.0</ele><time>2026-05-03T05:41:14Z</time></trkpt><trkpt lat="46.029920609912764" lon="12.042979569126983"><ele>456.0</ele><time>2026-05-03T05:41:15Z</time></trkpt><trkpt lat="46.02984553274656" lon="12.04305454656398"><ele>456.6</ele><time>2026-05-03T05:41:16Z</time></trkpt><trkpt lat="46.02976472419757" lon="12.043126939424372"><ele>457.20000000000005</ele><time>2026-05-03T05:41:17Z</time></trkpt><trkpt lat="46.02968679615878" lon="12.043189859103405"><ele>457.79999999999995</ele><time>2026-05-03T05:41:18Z</time></trkpt><trkpt lat="46.02960183631219" lon="12.043256601863902"><ele>458.4</ele><time>2026-05-03T05:41:19Z</time></trkpt><trkpt lat="46.029509415732484" lon="12.043325547425537"><ele>459.0</ele><time>2026-05-03T05:41:20Z</time></trkpt><trkpt lat="46.0294052867061" lon="12.04339421703676"><ele>459.0</ele><time>2026-05-03T05:41:21Z</time></trkpt><trkpt lat="46.02932022576621" lon="12.043467554984227"><ele>459.0</ele><time>2026-05-03T05:41:22Z</time></trkpt><trkpt lat="46.029229687783385" lon="12.043501355677545"><ele>459.0</ele><time>2026-05-03T05:41:23Z</time></trkpt><trkpt lat="46.02913822800418" lon="12.043532135302543"><ele>459.0</ele><time>2026-05-03T05:41:24Z</time></trkpt><trkpt lat="46.029050556247704" lon="12.043567257277745"><ele>459.0</ele><time>2026-05-03T05:41:25Z</time></trkpt><trkpt lat="46.0289609681482" lon="12.043565466154941"><ele>463.2</ele><time>2026-05-03T05:41:26Z</time></trkpt><trkpt lat="46.0288600906782" lon="12.04360021323916"><ele>467.4</ele><time>2026-05-03T05:41:27Z</time></trkpt><trkpt lat="46.02875040485508" lon="12.043645172394067"><ele>471.6</ele><time>2026-05-03T05:41:28Z</time></trkpt><trkpt lat="46.02865403300244" lon="12.04368528777122"><ele>475.8</ele><time>2026-05-03T05:41:29Z</time></trkpt><trkpt lat="46.02856967781204" lon="12.043717066252587"><ele>480.0</ele><time>2026-05-03T05:41:30Z</time></trkpt><trkpt lat="46.028492453081874" lon="12.043742056313105"><ele>480.0</ele><time>2026-05-03T05:41:31Z</time></trkpt><trkpt lat="46.02840226357141" lon="12.043762173452023"><ele>480.0</ele><time>2026-05-03T05:41:32Z</time></trkpt><trkpt lat="46.0283144238043" lon="12.043791182357639"><ele>480.0</ele><time>2026-05-03T05:41:33Z</time></trkpt><trkpt lat="46.028220420262876" lon="12.043845613545036"><ele>480.0</ele><time>2026-05-03T05:41:34Z</time></trkpt><trkpt lat="46.0281210439553" lon="12.04391323617106"><ele>480.0</ele><time>2026-05-03T05:41:35Z</time></trkpt><trkpt lat="46.02803227336244" lon="12.044019963626273"><ele>482.3333333333333</ele><time>2026-05-03T05:41:36Z</time></trkpt><trkpt lat="46.02794690948835" lon="12.04408340332373"><ele>484.66666666666663</ele><time>2026-05-03T05:41:37Z</time></trkpt><trkpt lat="46.027853996661065" lon="12.044140321740299"><ele>487.0</ele><time>2026-05-03T05:41:38Z</time></trkpt><trkpt lat="46.02777008278575" lon="12.044181392400498"><ele>489.3333333333333</ele><time>2026-05-03T05:41:39Z</time></trkpt><trkpt lat="46.0276959058348" lon="12.044220734780795"><ele>491.66666666666663</ele><time>2026-05-03T05:41:40Z</time></trkpt><trkpt lat="46.027628586842155" lon="12.044253136633827"><ele>494.0</ele><time>2026-05-03T05:41:41Z</time></trkpt><trkpt lat="46.027512691117906" lon="12.04428967228316"><ele>491.49999999999994</ele><time>2026-05-03T05:41:43Z</time></trkpt><trkpt lat="46.027432949100145" lon="12.044288032229487"><ele>489.0</ele><time>2026-05-03T05:41:44Z</time></trkpt><trkpt lat="46.02734612610978" lon="12.04425674709069"><ele>486.5</ele><time>2026-05-03T05:41:45Z</time></trkpt><trkpt lat="46.027275041276205" lon="12.044249855956728"><ele>484.0</ele><time>2026-05-03T05:41:46Z</time></trkpt><trkpt lat="46.02721429912254" lon="12.044275810817648"><ele>481.49999999999994</ele><time>2026-05-03T05:41:47Z</time></trkpt><trkpt lat="46.02716625877721" lon="12.044342809214886"><ele>479.0</ele><time>2026-05-03T05:41:48Z</time></trkpt><trkpt lat="46.02714394575997" lon="12.04446561437363"><ele>479.0</ele><time>2026-05-03T05:41:49Z</time></trkpt><trkpt lat="46.02713279346743" lon="12.04460341388455"><ele>479.0</ele><time>2026-05-03T05:41:50Z</time></trkpt><trkpt lat="46.02710427370798" lon="12.044744037568666"><ele>479.0</ele><time>2026-05-03T05:41:51Z</time></trkpt><trkpt lat="46.027048281854256" lon="12.044873142773902"><ele>479.0</ele><time>2026-05-03T05:41:52Z</time></trkpt><trkpt lat="46.027011649644" lon="12.044986730875545"><ele>479.0</ele><time>2026-05-03T05:41:53Z</time></trkpt><trkpt lat="46.026974440167336" lon="12.045094572162547"><ele>475.6</ele><time>2026-05-03T05:41:54Z</time></trkpt><trkpt lat="46.02691365743966" lon="12.04516268306145"><ele>472.2</ele><time>2026-05-03T05:41:55Z</time></trkpt><trkpt lat="46.02685038968384" lon="12.045255589837113"><ele>468.80000000000007</ele><time>2026-05-03T05:41:56Z</time></trkpt><trkpt lat="46.02679487116711" lon="12.04537500157466"><ele>465.40000000000003</ele><time>2026-05-03T05:41:57Z</time></trkpt><trkpt lat="46.026735981771054" lon="12.04550814928149"><ele>462.0</ele><time>2026-05-03T05:41:58Z</time></trkpt><trkpt lat="46.02668220987459" lon="12.04563285434772"><ele>462.1666666666667</ele><time>2026-05-03T05:41:59Z</time></trkpt><trkpt lat="46.02664211163704" lon="12.045748739343162"><ele>462.33333333333337</ele><time>2026-05-03T05:42:00Z</time></trkpt><trkpt lat="46.026606701984505" lon="12.045853711569945"><ele>462.5</ele><time>2026-05-03T05:42:01Z</time></trkpt><trkpt lat="46.026583381072115" lon="12.045952936560816"><ele>462.6666666666667</ele><time>2026-05-03T05:42:02Z</time></trkpt><trkpt lat="46.02653393891637" lon="12.046019690814369"><ele>462.83333333333337</ele><time>2026-05-03T05:42:03Z</time></trkpt><trkpt lat="46.02641022930115" lon="12.046019138628502"><ele>463.0</ele><time>2026-05-03T05:42:04.999Z</time></trkpt><trkpt lat="46.02632015551617" lon="12.04600479372511"><ele>463.0</ele><time>2026-05-03T05:42:05.999Z</time></trkpt><trkpt lat="46.02621867811482" lon="12.046017445950714"><ele>462.99999999999994</ele><time>2026-05-03T05:42:06.999Z</time></trkpt><trkpt lat="46.02612911723971" lon="12.046080677975928"><ele>462.99999999999994</ele><time>2026-05-03T05:42:07.999Z</time></trkpt><trkpt lat="46.026015438544455" lon="12.046110500160387"><ele>463.0</ele><time>2026-05-03T05:42:08.999Z</time></trkpt><trkpt lat="46.02590200387699" lon="12.04616620418502"><ele>463.0</ele><time>2026-05-03T05:42:09.999Z</time></trkpt><trkpt lat="46.02578731469352" lon="12.046223836719943"><ele>465.4</ele><time>2026-05-03T05:42:10.999Z</time></trkpt><trkpt lat="46.025676055387805" lon="12.046277557434616"><ele>467.79999999999995</ele><time>2026-05-03T05:42:11.999Z</time></trkpt><trkpt lat="46.02557452969877" lon="12.046319844575594"><ele>470.2</ele><time>2026-05-03T05:42:12.999Z</time></trkpt><trkpt lat="46.02546591229804" lon="12.046348691370858"><ele>472.6</ele><time>2026-05-03T05:42:13.999Z</time></trkpt><trkpt lat="46.02535389952503" lon="12.046384536623657"><ele>475.0</ele><time>2026-05-03T05:42:14.999Z</time></trkpt><trkpt lat="46.02524548985272" lon="12.046437310534705"><ele>475.0</ele><time>2026-05-03T05:42:15.999Z</time></trkpt><trkpt lat="46.02513460781911" lon="12.046480894625212"><ele>475.0</ele><time>2026-05-03T05:42:16.999Z</time></trkpt><trkpt lat="46.02503308614058" lon="12.046542788227436"><ele>475.0</ele><time>2026-05-03T05:42:17.999Z</time></trkpt><trkpt lat="46.02493100676147" lon="12.046577658447418"><ele>475.0</ele><time>2026-05-03T05:42:18.999Z</time></trkpt><trkpt lat="46.024830777218845" lon="12.046619670886745"><ele>475.0</ele><time>2026-05-03T05:42:19.999Z</time></trkpt><trkpt lat="46.02473239764485" lon="12.046669078779003"><ele>475.8</ele><time>2026-05-03T05:42:20.999Z</time></trkpt><trkpt lat="46.02463912581921" lon="12.046699375323554"><ele>476.6</ele><time>2026-05-03T05:42:21.999Z</time></trkpt><trkpt lat="46.02455602321046" lon="12.046758281653831"><ele>477.4</ele><time>2026-05-03T05:42:22.999Z</time></trkpt><trkpt lat="46.024487014664224" lon="12.046858407433442"><ele>478.2</ele><time>2026-05-03T05:42:23.999Z</time></trkpt><trkpt lat="46.02442157471814" lon="12.046984610604552"><ele>479.0</ele><time>2026-05-03T05:42:24.999Z</time></trkpt><trkpt lat="46.02431796103726" lon="12.04706906484099"><ele>479.0</ele><time>2026-05-03T05:42:25.999Z</time></trkpt><trkpt lat="46.02425938728429" lon="12.047181186300588"><ele>479.0</ele><time>2026-05-03T05:42:26.999Z</time></trkpt><trkpt lat="46.02419682643548" lon="12.047291935915888"><ele>479.0</ele><time>2026-05-03T05:42:27.999Z</time></trkpt><trkpt lat="46.02415189594308" lon="12.04738450146972"><ele>479.0</ele><time>2026-05-03T05:42:28.999Z</time></trkpt><trkpt lat="46.024045947273" lon="12.04740719555835"><ele>479.0</ele><time>2026-05-03T05:42:30.999Z</time></trkpt><trkpt lat="46.0239128464287" lon="12.047431139123416"><ele>480.0</ele><time>2026-05-03T05:42:32.999Z</time></trkpt><trkpt lat="46.023826610098745" lon="12.047451822834361"><ele>481.0</ele><time>2026-05-03T05:42:33.999Z</time></trkpt><trkpt lat="46.02374646149038" lon="12.047477961384407"><ele>482.0</ele><time>2026-05-03T05:42:34.999Z</time></trkpt><trkpt lat="46.02368716893605" lon="12.04757618776228"><ele>483.0</ele><time>2026-05-03T05:42:35.999Z</time></trkpt><trkpt lat="46.0237008091683" lon="12.047695102429515"><ele>484.0</ele><time>2026-05-03T05:42:36.999Z</time></trkpt><trkpt lat="46.02365850945947" lon="12.047842988470608"><ele>484.00000000000006</ele><time>2026-05-03T05:42:38.999Z</time></trkpt><trkpt lat="46.02355979901666" lon="12.047931828043438"><ele>484.0</ele><time>2026-05-03T05:42:40.999Z</time></trkpt><trkpt lat="46.023485330881996" lon="12.047975722520826"><ele>484.0</ele><time>2026-05-03T05:42:41.999Z</time></trkpt><trkpt lat="46.023396228386034" lon="12.04802479282426"><ele>484.0</ele><time>2026-05-03T05:42:42.999Z</time></trkpt><trkpt lat="46.023316082522825" lon="12.0480689305939"><ele>484.00000000000006</ele><time>2026-05-03T05:42:44Z</time></trkpt><trkpt lat="46.023250018489165" lon="12.048094641647847"><ele>484.0</ele><time>2026-05-03T05:42:45Z</time></trkpt><trkpt lat="46.02311278326125" lon="12.048095910447138"><ele>485.2</ele><time>2026-05-03T05:42:47Z</time></trkpt><trkpt lat="46.0230243887695" lon="12.048081716393575"><ele>486.4</ele><time>2026-05-03T05:42:48Z</time></trkpt><trkpt lat="46.02293625636929" lon="12.048066249232397"><ele>487.6</ele><time>2026-05-03T05:42:49Z</time></trkpt><trkpt lat="46.02283674142516" lon="12.048068649167453"><ele>488.8</ele><time>2026-05-03T05:42:50Z</time></trkpt><trkpt lat="46.02274117462417" lon="12.048039762468479"><ele>490.0</ele><time>2026-05-03T05:42:51Z</time></trkpt><trkpt lat="46.02263252963339" lon="12.048034224368733"><ele>490.00000000000006</ele><time>2026-05-03T05:42:52Z</time></trkpt><trkpt lat="46.022522014088985" lon="12.048032588898854"><ele>490.0</ele><time>2026-05-03T05:42:53Z</time></trkpt><trkpt lat="46.02242692619067" lon="12.048017113095947"><ele>490.0</ele><time>2026-05-03T05:42:54Z</time></trkpt><trkpt lat="46.02234102287132" lon="12.048005544060342"><ele>490.0</ele><time>2026-05-03T05:42:55Z</time></trkpt><trkpt lat="46.022272673608256" lon="12.04797776288802"><ele>490.00000000000006</ele><time>2026-05-03T05:42:56Z</time></trkpt><trkpt lat="46.022219154734" lon="12.047927989352846"><ele>490.0</ele><time>2026-05-03T05:42:57Z</time></trkpt><trkpt lat="46.02215466415635" lon="12.047833597654714"><ele>492.1666666666667</ele><time>2026-05-03T05:42:59Z</time></trkpt><trkpt lat="46.02208648905342" lon="12.04772172424087"><ele>494.33333333333337</ele><time>2026-05-03T05:43:01Z</time></trkpt><trkpt lat="46.022049553966724" lon="12.047622827443556"><ele>496.5</ele><time>2026-05-03T05:43:02Z</time></trkpt><trkpt lat="46.02200705943202" lon="12.0475231035845"><ele>498.66666666666663</ele><time>2026-05-03T05:43:03Z</time></trkpt><trkpt lat="46.02197394304274" lon="12.047421117578216"><ele>500.8333333333333</ele><time>2026-05-03T05:43:04Z</time></trkpt><trkpt lat="46.02191320551487" lon="12.047357261939544"><ele>503.0</ele><time>2026-05-03T05:43:05Z</time></trkpt><trkpt lat="46.0218341687518" lon="12.047332751555777"><ele>503.0</ele><time>2026-05-03T05:43:06Z</time></trkpt><trkpt lat="46.021744812213925" lon="12.047325016140498"><ele>502.99999999999994</ele><time>2026-05-03T05:43:07Z</time></trkpt><trkpt lat="46.02166277621614" lon="12.047262175673803"><ele>502.99999999999994</ele><time>2026-05-03T05:43:08Z</time></trkpt><trkpt lat="46.021566647208886" lon="12.047201161008458"><ele>503.0</ele><time>2026-05-03T05:43:09Z</time></trkpt><trkpt lat="46.02145710978019" lon="12.047133243513805"><ele>503.0</ele><time>2026-05-03T05:43:10Z</time></trkpt><trkpt lat="46.02133451818173" lon="12.047080915106855"><ele>502.5</ele><time>2026-05-03T05:43:11Z</time></trkpt><trkpt lat="46.02121403459449" lon="12.047006426316036"><ele>502.0</ele><time>2026-05-03T05:43:12Z</time></trkpt><trkpt lat="46.021082220714284" lon="12.046933134196195"><ele>501.5</ele><time>2026-05-03T05:43:13Z</time></trkpt><trkpt lat="46.02094744786631" lon="12.04685319177612"><ele>501.0</ele><time>2026-05-03T05:43:14Z</time></trkpt><trkpt lat="46.020823597283226" lon="12.04677941007662"><ele>502.8</ele><time>2026-05-03T05:43:15Z</time></trkpt><trkpt lat="46.020704676979804" lon="12.04672334221178"><ele>504.6</ele><time>2026-05-03T05:43:16Z</time></trkpt><trkpt lat="46.02059830492904" lon="12.046655475300403"><ele>506.4</ele><time>2026-05-03T05:43:17Z</time></trkpt><trkpt lat="46.02050456296517" lon="12.046591070278279"><ele>508.2</ele><time>2026-05-03T05:43:18Z</time></trkpt><trkpt lat="46.02041396300303" lon="12.046536438101356"><ele>510.0</ele><time>2026-05-03T05:43:19Z</time></trkpt><trkpt lat="46.02033366168929" lon="12.046490694519445"><ele>510.0</ele><time>2026-05-03T05:43:20Z</time></trkpt><trkpt lat="46.02027121938777" lon="12.046410415025933"><ele>510.0</ele><time>2026-05-03T05:43:21Z</time></trkpt><trkpt lat="46.020213452499675" lon="12.04634070818845"><ele>510.0</ele><time>2026-05-03T05:43:22Z</time></trkpt><trkpt lat="46.02016676449114" lon="12.046278287411662"><ele>510.0</ele><time>2026-05-03T05:43:23Z</time></trkpt><trkpt lat="46.020099247241525" lon="12.046183412643455"><ele>510.0</ele><time>2026-05-03T05:43:24Z</time></trkpt><trkpt lat="46.02002273553605" lon="12.046080063928365"><ele>510.0</ele><time>2026-05-03T05:43:25Z</time></trkpt><trkpt lat="46.019938261184876" lon="12.045977640317373"><ele>510.0</ele><time>2026-05-03T05:43:26Z</time></trkpt><trkpt lat="46.01985241262709" lon="12.045875317420688"><ele>510.0</ele><time>2026-05-03T05:43:27Z</time></trkpt><trkpt lat="46.01975984974535" lon="12.045797566118695"><ele>510.0</ele><time>2026-05-03T05:43:28Z</time></trkpt><trkpt lat="46.01968793184309" lon="12.045692519024124"><ele>510.0</ele><time>2026-05-03T05:43:29Z</time></trkpt><trkpt lat="46.01960812811995" lon="12.04561649471574"><ele>510.0</ele><time>2026-05-03T05:43:30Z</time></trkpt><trkpt lat="46.019509925762215" lon="12.045537349323089"><ele>510.0</ele><time>2026-05-03T05:43:31Z</time></trkpt><trkpt lat="46.0194013186143" lon="12.045483229278796"><ele>510.0</ele><time>2026-05-03T05:43:32Z</time></trkpt><trkpt lat="46.019306596927265" lon="12.045441854953438"><ele>510.0</ele><time>2026-05-03T05:43:33Z</time></trkpt><trkpt lat="46.01922172505362" lon="12.045402326160994"><ele>510.0</ele><time>2026-05-03T05:43:34Z</time></trkpt><trkpt lat="46.0191440729095" lon="12.045354754237477"><ele>510.0</ele><time>2026-05-03T05:43:35Z</time></trkpt><trkpt lat="46.019078510582005" lon="12.045299604479526"><ele>508.5</ele><time>2026-05-03T05:43:36Z</time></trkpt><trkpt lat="46.01902049090262" lon="12.045242439750579"><ele>507.0</ele><time>2026-05-03T05:43:37Z</time></trkpt><trkpt lat="46.01896497183736" lon="12.045136840377536"><ele>505.5</ele><time>2026-05-03T05:43:38Z</time></trkpt><trkpt lat="46.01891463751702" lon="12.045040153317956"><ele>504.0</ele><time>2026-05-03T05:43:39Z</time></trkpt><trkpt lat="46.018876718645295" lon="12.044943337867618"><ele>502.5</ele><time>2026-05-03T05:43:40Z</time></trkpt><trkpt lat="46.018832470221305" lon="12.0448409959751"><ele>501.0</ele><time>2026-05-03T05:43:41Z</time></trkpt><trkpt lat="46.01877729544273" lon="12.04476351299029"><ele>501.0</ele><time>2026-05-03T05:43:42Z</time></trkpt><trkpt lat="46.01871275773986" lon="12.04470213201959"><ele>501.0</ele><time>2026-05-03T05:43:43Z</time></trkpt><trkpt lat="46.018644935296045" lon="12.044654156466066"><ele>501.0</ele><time>2026-05-03T05:43:44Z</time></trkpt><trkpt lat="46.018569158627024" lon="12.0446211558441"><ele>501.0</ele><time>2026-05-03T05:43:45Z</time></trkpt><trkpt lat="46.0184930182741" lon="12.044595393387644"><ele>501.0</ele><time>2026-05-03T05:43:46Z</time></trkpt><trkpt lat="46.01842731833115" lon="12.044555072165588"><ele>501.0</ele><time>2026-05-03T05:43:47Z</time></trkpt><trkpt lat="46.01836036634417" lon="12.044511454163835"><ele>498.14285714285717</ele><time>2026-05-03T05:43:48Z</time></trkpt><trkpt lat="46.01830517174924" lon="12.044446513407593"><ele>495.2857142857142</ele><time>2026-05-03T05:43:49Z</time></trkpt><trkpt lat="46.01826401670125" lon="12.044366024326408"><ele>492.4285714285714</ele><time>2026-05-03T05:43:50Z</time></trkpt><trkpt lat="46.01824293947783" lon="12.044268879284703"><ele>489.57142857142856</ele><time>2026-05-03T05:43:51Z</time></trkpt><trkpt lat="46.01822589905102" lon="12.044163174126673"><ele>486.71428571428567</ele><time>2026-05-03T05:43:52Z</time></trkpt><trkpt lat="46.01820587625853" lon="12.044056775035655"><ele>483.8571428571428</ele><time>2026-05-03T05:43:53Z</time></trkpt><trkpt lat="46.01817276966171" lon="12.043949311796798"><ele>480.99999999999994</ele><time>2026-05-03T05:43:54Z</time></trkpt><trkpt lat="46.018140638317874" lon="12.043835674563029"><ele>489.50000000000006</ele><time>2026-05-03T05:43:55Z</time></trkpt><trkpt lat="46.01811242575445" lon="12.043730496068623"><ele>498.0</ele><time>2026-05-03T05:43:56Z</time></trkpt><trkpt lat="46.018086554704716" lon="12.04362787990214"><ele>506.5</ele><time>2026-05-03T05:43:57Z</time></trkpt><trkpt lat="46.01806030407846" lon="12.043536846705896"><ele>515.0</ele><time>2026-05-03T05:43:58Z</time></trkpt><trkpt lat="46.01801245301059" lon="12.043467364739032"><ele>523.5</ele><time>2026-05-03T05:43:59Z</time></trkpt><trkpt lat="46.017899386078106" lon="12.043485233009422"><ele>532.0</ele><time>2026-05-03T05:44:01Z</time></trkpt><trkpt lat="46.017829922587666" lon="12.043538906128441"><ele>532.0</ele><time>2026-05-03T05:44:02Z</time></trkpt><trkpt lat="46.01776683637626" lon="12.043615858088453"><ele>532.0</ele><time>2026-05-03T05:44:03Z</time></trkpt><trkpt lat="46.0177114504523" lon="12.043677143252157"><ele>532.0</ele><time>2026-05-03T05:44:04Z</time></trkpt><trkpt lat="46.017652671099654" lon="12.043737500128435"><ele>532.0</ele><time>2026-05-03T05:44:05Z</time></trkpt><trkpt lat="46.0175452256569" lon="12.04381239216695"><ele>532.0</ele><time>2026-05-03T05:44:07Z</time></trkpt><trkpt lat="46.01748180430838" lon="12.043832155355519"><ele>532.0</ele><time>2026-05-03T05:44:08Z</time></trkpt><trkpt lat="46.017405541976395" lon="12.043846535140258"><ele>534.0</ele><time>2026-05-03T05:44:09Z</time></trkpt><trkpt lat="46.01731660180467" lon="12.043872674597976"><ele>536.0</ele><time>2026-05-03T05:44:10Z</time></trkpt><trkpt lat="46.017217784843545" lon="12.04386916112612"><ele>538.0</ele><time>2026-05-03T05:44:11Z</time></trkpt><trkpt lat="46.01712062463937" lon="12.043881162699963"><ele>540.0</ele><time>2026-05-03T05:44:12Z</time></trkpt><trkpt lat="46.01700979612312" lon="12.043907624746529"><ele>542.0</ele><time>2026-05-03T05:44:13Z</time></trkpt><trkpt lat="46.01693033786389" lon="12.043929208160119"><ele>542.0</ele><time>2026-05-03T05:44:14Z</time></trkpt><trkpt lat="46.0168576815781" lon="12.043948943966072"><ele>542.0</ele><time>2026-05-03T05:44:15Z</time></trkpt><trkpt lat="46.01677988834232" lon="12.043958373999207"><ele>542.0</ele><time>2026-05-03T05:44:16Z</time></trkpt><trkpt lat="46.01669781385133" lon="12.043956415404129"><ele>542.0</ele><time>2026-05-03T05:44:17Z</time></trkpt><trkpt lat="46.0166016518829" lon="12.043941931913656"><ele>542.0</ele><time>2026-05-03T05:44:17.999Z</time></trkpt><trkpt lat="46.01648846982928" lon="12.043922320509216"><ele>542.0</ele><time>2026-05-03T05:44:18.999Z</time></trkpt><trkpt lat="46.01638554086028" lon="12.04390865166132"><ele>539.75</ele><time>2026-05-03T05:44:19.999Z</time></trkpt><trkpt lat="46.01627327496343" lon="12.043907468596974"><ele>537.5</ele><time>2026-05-03T05:44:20.999Z</time></trkpt><trkpt lat="46.01615365137869" lon="12.04389398252832"><ele>535.25</ele><time>2026-05-03T05:44:21.999Z</time></trkpt><trkpt lat="46.01603703707785" lon="12.04388314056972"><ele>533.0</ele><time>2026-05-03T05:44:22.999Z</time></trkpt><trkpt lat="46.01591731218807" lon="12.043884145231974"><ele>531.8</ele><time>2026-05-03T05:44:23.999Z</time></trkpt><trkpt lat="46.01581046066028" lon="12.043871453738161"><ele>530.5999999999999</ele><time>2026-05-03T05:44:24.999Z</time></trkpt><trkpt lat="46.01569957351839" lon="12.043870968861313"><ele>529.4000000000001</ele><time>2026-05-03T05:44:25.999Z</time></trkpt><trkpt lat="46.01558157942357" lon="12.043846241253576"><ele>528.2</ele><time>2026-05-03T05:44:26.999Z</time></trkpt><trkpt lat="46.015477217079855" lon="12.043841782273578"><ele>527.0</ele><time>2026-05-03T05:44:27.999Z</time></trkpt><trkpt lat="46.01537707726914" lon="12.043838414918524"><ele>527.0</ele><time>2026-05-03T05:44:28.999Z</time></trkpt><trkpt lat="46.01527716771288" lon="12.043835054888076"><ele>527.0</ele><time>2026-05-03T05:44:29.999Z</time></trkpt><trkpt lat="46.01519458714377" lon="12.043831003321332"><ele>527.0</ele><time>2026-05-03T05:44:30.999Z</time></trkpt><trkpt lat="46.01512471776311" lon="12.043824808627397"><ele>527.0</ele><time>2026-05-03T05:44:31.999Z</time></trkpt><trkpt lat="46.01505229316026" lon="12.043841517837002"><ele>527.0</ele><time>2026-05-03T05:44:32.999Z</time></trkpt><trkpt lat="46.01498417433933" lon="12.043820700812624"><ele>527.0</ele><time>2026-05-03T05:44:33.999Z</time></trkpt><trkpt lat="46.01492870566244" lon="12.043764166935528"><ele>526.2857142857143</ele><time>2026-05-03T05:44:34.999Z</time></trkpt><trkpt lat="46.014873096158134" lon="12.043700123034315"><ele>525.5714285714286</ele><time>2026-05-03T05:44:35.999Z</time></trkpt><trkpt lat="46.01480844536418" lon="12.043642276803503"><ele>524.8571428571429</ele><time>2026-05-03T05:44:36.999Z</time></trkpt><trkpt lat="46.01475076337858" lon="12.043595213028855"><ele>524.1428571428571</ele><time>2026-05-03T05:44:37.999Z</time></trkpt><trkpt lat="46.01468639403519" lon="12.043593432476879"><ele>523.4285714285714</ele><time>2026-05-03T05:44:38.999Z</time></trkpt><trkpt lat="46.01460749337883" lon="12.043604401307373"><ele>522.7142857142858</ele><time>2026-05-03T05:44:39.999Z</time></trkpt><trkpt lat="46.01452460042045" lon="12.043599820756176"><ele>522.0</ele><time>2026-05-03T05:44:40.999Z</time></trkpt><trkpt lat="46.01445132525126" lon="12.043639750112796"><ele>522.0</ele><time>2026-05-03T05:44:41.999Z</time></trkpt><trkpt lat="46.014374865209845" lon="12.04363874890817"><ele>522.0</ele><time>2026-05-03T05:44:42.999Z</time></trkpt><trkpt lat="46.01430038170046" lon="12.043629849429271"><ele>522.0</ele><time>2026-05-03T05:44:43.999Z</time></trkpt><trkpt lat="46.01423084847418" lon="12.043572833937773"><ele>522.0</ele><time>2026-05-03T05:44:44.999Z</time></trkpt><trkpt lat="46.014149376627294" lon="12.043528763773093"><ele>522.0</ele><time>2026-05-03T05:44:45.999Z</time></trkpt><trkpt lat="46.014070794071074" lon="12.043483902899167"><ele>522.0</ele><time>2026-05-03T05:44:46.999Z</time></trkpt><trkpt lat="46.01399778781887" lon="12.043438091717405"><ele>524.0</ele><time>2026-05-03T05:44:47.999Z</time></trkpt><trkpt lat="46.01389050901579" lon="12.043365936366872"><ele>526.0</ele><time>2026-05-03T05:44:50Z</time></trkpt><trkpt lat="46.01384041182622" lon="12.043286178416787"><ele>528.0</ele><time>2026-05-03T05:44:52Z</time></trkpt><trkpt lat="46.01380808098305" lon="12.04312455070824"><ele>530.0</ele><time>2026-05-03T05:44:54Z</time></trkpt><trkpt lat="46.01375741657102" lon="12.043035508971405"><ele>532.0</ele><time>2026-05-03T05:44:55Z</time></trkpt><trkpt lat="46.01370347255706" lon="12.04293977899808"><ele>532.0</ele><time>2026-05-03T05:44:56Z</time></trkpt><trkpt lat="46.013650671325465" lon="12.042851181749448"><ele>532.0</ele><time>2026-05-03T05:44:57Z</time></trkpt><trkpt lat="46.01360724702121" lon="12.042777529261576"><ele>532.0</ele><time>2026-05-03T05:44:58Z</time></trkpt><trkpt lat="46.01352386108222" lon="12.042646779290376"><ele>532.0</ele><time>2026-05-03T05:45:00Z</time></trkpt><trkpt lat="46.013470661223806" lon="12.042587077282118"><ele>532.0</ele><time>2026-05-03T05:45:01Z</time></trkpt><trkpt lat="46.013430805921494" lon="12.042498215672317"><ele>532.0</ele><time>2026-05-03T05:45:02Z</time></trkpt><trkpt lat="46.013344455218586" lon="12.04246844264431"><ele>531.1666666666667</ele><time>2026-05-03T05:45:03Z</time></trkpt><trkpt lat="46.013261492490216" lon="12.042476512949689"><ele>530.3333333333334</ele><time>2026-05-03T05:45:04Z</time></trkpt><trkpt lat="46.01318923950638" lon="12.042476512952366"><ele>529.5</ele><time>2026-05-03T05:45:05Z</time></trkpt><trkpt lat="46.01309108548577" lon="12.042468570375858"><ele>528.6666666666666</ele><time>2026-05-03T05:45:07Z</time></trkpt><trkpt lat="46.01301830199808" lon="12.042486109618745"><ele>527.8333333333333</ele><time>2026-05-03T05:45:08Z</time></trkpt><trkpt lat="46.01294800306009" lon="12.042431436641639"><ele>527.0</ele><time>2026-05-03T05:45:09Z</time></trkpt><trkpt lat="46.01287309127258" lon="12.042361102250355"><ele>527.0</ele><time>2026-05-03T05:45:10Z</time></trkpt><trkpt lat="46.0128002258008" lon="12.042279838968904"><ele>527.0</ele><time>2026-05-03T05:45:11Z</time></trkpt><trkpt lat="46.012728245764" lon="12.04219578147544"><ele>527.0</ele><time>2026-05-03T05:45:12Z</time></trkpt><trkpt lat="46.01269901934661" lon="12.04204886251893"><ele>527.0</ele><time>2026-05-03T05:45:13Z</time></trkpt><trkpt lat="46.012650756210164" lon="12.041955491562993"><ele>527.0</ele><time>2026-05-03T05:45:14Z</time></trkpt><trkpt lat="46.0125957656028" lon="12.041848808414024"><ele>527.0</ele><time>2026-05-03T05:45:15Z</time></trkpt><trkpt lat="46.012543451145035" lon="12.041746459816942"><ele>527.0</ele><time>2026-05-03T05:45:16Z</time></trkpt><trkpt lat="46.012497892277665" lon="12.041658542543855"><ele>527.0</ele><time>2026-05-03T05:45:17Z</time></trkpt><trkpt lat="46.01245173604928" lon="12.04158976514238"><ele>527.0</ele><time>2026-05-03T05:45:18Z</time></trkpt><trkpt lat="46.01238975189149" lon="12.041507992418692"><ele>527.0</ele><time>2026-05-03T05:45:20Z</time></trkpt><trkpt lat="46.01237452994959" lon="12.041350305389125"><ele>527.0</ele><time>2026-05-03T05:45:23Z</time></trkpt><trkpt lat="46.01237134357744" lon="12.041256152918576"><ele>529.2</ele><time>2026-05-03T05:45:24Z</time></trkpt><trkpt lat="46.01234267691261" lon="12.041164773071905"><ele>531.4000000000001</ele><time>2026-05-03T05:45:25Z</time></trkpt><trkpt lat="46.01229090656374" lon="12.04101827337747"><ele>533.5999999999999</ele><time>2026-05-03T05:45:27Z</time></trkpt><trkpt lat="46.01224494920768" lon="12.040917895183565"><ele>535.8</ele><time>2026-05-03T05:45:28Z</time></trkpt><trkpt lat="46.012198664835765" lon="12.040808858101167"><ele>538.0</ele><time>2026-05-03T05:45:29Z</time></trkpt><trkpt lat="46.01214748931943" lon="12.04068780128302"><ele>538.0</ele><time>2026-05-03T05:45:30Z</time></trkpt><trkpt lat="46.01209073887758" lon="12.040571193552116"><ele>538.0</ele><time>2026-05-03T05:45:31Z</time></trkpt><trkpt lat="46.01203138744597" lon="12.040449191037125"><ele>538.0</ele><time>2026-05-03T05:45:32Z</time></trkpt><trkpt lat="46.011977091969" lon="12.040338205034248"><ele>538.0</ele><time>2026-05-03T05:45:33Z</time></trkpt><trkpt lat="46.011919324240765" lon="12.040216953981531"><ele>538.0</ele><time>2026-05-03T05:45:34Z</time></trkpt><trkpt lat="46.01185921916407" lon="12.04010787998542"><ele>538.0</ele><time>2026-05-03T05:45:35Z</time></trkpt><trkpt lat="46.01178880025697" lon="12.039993772192517"><ele>538.0</ele><time>2026-05-03T05:45:36Z</time></trkpt><trkpt lat="46.011722999511925" lon="12.039878221901091"><ele>538.0</ele><time>2026-05-03T05:45:37Z</time></trkpt><trkpt lat="46.011662774517816" lon="12.039768562204104"><ele>538.0</ele><time>2026-05-03T05:45:38Z</time></trkpt><trkpt lat="46.01160108550558" lon="12.03966257068299"><ele>538.0</ele><time>2026-05-03T05:45:39Z</time></trkpt><trkpt lat="46.011544111533915" lon="12.039551059850497"><ele>536.1666666666667</ele><time>2026-05-03T05:45:40Z</time></trkpt><trkpt lat="46.01149308600233" lon="12.039452335658813"><ele>534.3333333333334</ele><time>2026-05-03T05:45:41Z</time></trkpt><trkpt lat="46.01145505155498" lon="12.039356686520266"><ele>532.5</ele><time>2026-05-03T05:45:42Z</time></trkpt><trkpt lat="46.01140939173802" lon="12.039252946483677"><ele>530.6666666666666</ele><time>2026-05-03T05:45:43Z</time></trkpt><trkpt lat="46.011339199197764" lon="12.039163026271982"><ele>528.8333333333333</ele><time>2026-05-03T05:45:44Z</time></trkpt><trkpt lat="46.0112740462649" lon="12.039070255735547"><ele>527.0</ele><time>2026-05-03T05:45:45Z</time></trkpt><trkpt lat="46.011210380153315" lon="12.038989630130546"><ele>530.6666666666666</ele><time>2026-05-03T05:45:46Z</time></trkpt><trkpt lat="46.011149633385116" lon="12.038920963826905"><ele>534.3333333333333</ele><time>2026-05-03T05:45:47Z</time></trkpt><trkpt lat="46.01108322948536" lon="12.038834209776033"><ele>538.0</ele><time>2026-05-03T05:45:48Z</time></trkpt><trkpt lat="46.01100147994816" lon="12.038768324044053"><ele>541.6666666666666</ele><time>2026-05-03T05:45:49Z</time></trkpt><trkpt lat="46.01095559992432" lon="12.03869196530564"><ele>545.3333333333334</ele><time>2026-05-03T05:45:50Z</time></trkpt><trkpt lat="46.01090411070915" lon="12.038608109190363"><ele>549.0</ele><time>2026-05-03T05:45:51Z</time></trkpt><trkpt lat="46.01087069201885" lon="12.038529709224138"><ele>542.7142857142857</ele><time>2026-05-03T05:45:52Z</time></trkpt><trkpt lat="46.01082319821292" lon="12.038453747189921"><ele>536.4285714285714</ele><time>2026-05-03T05:45:53Z</time></trkpt><trkpt lat="46.01078510907326" lon="12.038356120558626"><ele>530.1428571428571</ele><time>2026-05-03T05:45:54Z</time></trkpt><trkpt lat="46.01073126930919" lon="12.038264869470678"><ele>523.8571428571429</ele><time>2026-05-03T05:45:55Z</time></trkpt><trkpt lat="46.010679463152755" lon="12.03817785848363"><ele>517.5714285714286</ele><time>2026-05-03T05:45:56Z</time></trkpt><trkpt lat="46.01063053981622" lon="12.03811530513059"><ele>511.2857142857143</ele><time>2026-05-03T05:45:57Z</time></trkpt><trkpt lat="46.01059958971064" lon="12.038026977173844"><ele>505.0</ele><time>2026-05-03T05:45:58Z</time></trkpt><trkpt lat="46.01056477117616" lon="12.037938291574045"><ele>505.00000000000006</ele><time>2026-05-03T05:45:59Z</time></trkpt><trkpt lat="46.01053423074403" lon="12.037852290113253"><ele>505.0</ele><time>2026-05-03T05:46:00Z</time></trkpt><trkpt lat="46.010509446469605" lon="12.037694593107753"><ele>505.0</ele><time>2026-05-03T05:46:02Z</time></trkpt><trkpt lat="46.01051989828639" lon="12.037516798391891"><ele>505.0</ele><time>2026-05-03T05:46:04Z</time></trkpt><trkpt lat="46.01053033744779" lon="12.03741299657814"><ele>505.00000000000006</ele><time>2026-05-03T05:46:05Z</time></trkpt><trkpt lat="46.010551169530736" lon="12.037318321541584"><ele>505.0</ele><time>2026-05-03T05:46:06Z</time></trkpt><trkpt lat="46.01061684679307" lon="12.037153519443045"><ele>508.6</ele><time>2026-05-03T05:46:08Z</time></trkpt><trkpt lat="46.01067431827783" lon="12.03704639624491"><ele>512.2</ele><time>2026-05-03T05:46:09Z</time></trkpt><trkpt lat="46.01070133474571" lon="12.0369545780937"><ele>515.8</ele><time>2026-05-03T05:46:10Z</time></trkpt><trkpt lat="46.01076093875155" lon="12.036811638753322"><ele>519.4</ele><time>2026-05-03T05:46:12Z</time></trkpt><trkpt lat="46.01081022345353" lon="12.036668054860021"><ele>523.0</ele><time>2026-05-03T05:46:13Z</time></trkpt><trkpt lat="46.010840941303606" lon="12.036553597115647"><ele>530.1999999999999</ele><time>2026-05-03T05:46:14Z</time></trkpt><trkpt lat="46.01084669429677" lon="12.036451631151504"><ele>537.4</ele><time>2026-05-03T05:46:15Z</time></trkpt><trkpt lat="46.01088447271329" lon="12.036284355117136"><ele>544.5999999999999</ele><time>2026-05-03T05:46:17Z</time></trkpt><trkpt lat="46.01093656070617" lon="12.036136007014456"><ele>551.8</ele><time>2026-05-03T05:46:19Z</time></trkpt><trkpt lat="46.01093893203991" lon="12.036003580793084"><ele>559.0</ele><time>2026-05-03T05:46:21Z</time></trkpt><trkpt lat="46.010914012294435" lon="12.035848552465099"><ele>563.5</ele><time>2026-05-03T05:46:23Z</time></trkpt><trkpt lat="46.010933077159166" lon="12.035729595028869"><ele>568.0</ele><time>2026-05-03T05:46:24.999Z</time></trkpt><trkpt lat="46.0109877966003" lon="12.035666065866122"><ele>572.5</ele><time>2026-05-03T05:46:25.999Z</time></trkpt><trkpt lat="46.01104893700391" lon="12.035634302995884"><ele>577.0</ele><time>2026-05-03T05:46:26.999Z</time></trkpt><trkpt lat="46.01112871791565" lon="12.0355487927621"><ele>581.5</ele><time>2026-05-03T05:46:27.999Z</time></trkpt><trkpt lat="46.01111072502904" lon="12.035436384460604"><ele>586.0</ele><time>2026-05-03T05:46:28.999Z</time></trkpt><trkpt lat="46.0110941564665" lon="12.035211441425488"><ele>586.0</ele><time>2026-05-03T05:46:32.999Z</time></trkpt><trkpt lat="46.01104652992255" lon="12.035141838001968"><ele>586.0</ele><time>2026-05-03T05:46:33.999Z</time></trkpt><trkpt lat="46.01093467252536" lon="12.035105356970087"><ele>586.0</ele><time>2026-05-03T05:46:35.999Z</time></trkpt><trkpt lat="46.01081812236918" lon="12.035144284634887"><ele>586.0</ele><time>2026-05-03T05:46:37.999Z</time></trkpt><trkpt lat="46.01071357581663" lon="12.03520880022483"><ele>586.0</ele><time>2026-05-03T05:46:39.999Z</time></trkpt><trkpt lat="46.01061775456508" lon="12.035279078820027"><ele>590.75</ele><time>2026-05-03T05:46:41.999Z</time></trkpt><trkpt lat="46.010550849481056" lon="12.035339459435452"><ele>595.5</ele><time>2026-05-03T05:46:43.999Z</time></trkpt><trkpt lat="46.01041945231127" lon="12.035451398675624"><ele>600.25</ele><time>2026-05-03T05:46:45.999Z</time></trkpt><trkpt lat="46.01036627395571" lon="12.035533694689958"><ele>605.0</ele><time>2026-05-03T05:46:46.999Z</time></trkpt><trkpt lat="46.010228572946254" lon="12.035637330209859"><ele>605.0</ele><time>2026-05-03T05:46:48.999Z</time></trkpt><trkpt lat="46.01014460477701" lon="12.03563249441632"><ele>605.0</ele><time>2026-05-03T05:46:49.999Z</time></trkpt><trkpt lat="46.01002776595001" lon="12.035722055855569"><ele>605.0</ele><time>2026-05-03T05:46:51.999Z</time></trkpt><trkpt lat="46.009936747031" lon="12.035779610641068"><ele>605.0</ele><time>2026-05-03T05:46:53.999Z</time></trkpt><trkpt lat="46.00980722815791" lon="12.035781553731933"><ele>605.0</ele><time>2026-05-03T05:46:56Z</time></trkpt><trkpt lat="46.00972676839991" lon="12.035797308596463"><ele>598.6666666666666</ele><time>2026-05-03T05:46:57Z</time></trkpt><trkpt lat="46.009637217259275" lon="12.03580547459494"><ele>592.3333333333333</ele><time>2026-05-03T05:46:58Z</time></trkpt><trkpt lat="46.00954525445653" lon="12.03584410090651"><ele>586.0</ele><time>2026-05-03T05:46:59Z</time></trkpt><trkpt lat="46.00945492106073" lon="12.035880827227118"><ele>579.6666666666666</ele><time>2026-05-03T05:47:00Z</time></trkpt><trkpt lat="46.0093845705007" lon="12.035891040523113"><ele>573.3333333333334</ele><time>2026-05-03T05:47:01Z</time></trkpt><trkpt lat="46.009287080892506" lon="12.035883244014855"><ele>567.0</ele><time>2026-05-03T05:47:03Z</time></trkpt><trkpt lat="46.0092193972696" lon="12.035875894776035"><ele>567.1666666666666</ele><time>2026-05-03T05:47:04Z</time></trkpt><trkpt lat="46.00915192178861" lon="12.035801901884504"><ele>567.3333333333334</ele><time>2026-05-03T05:47:05Z</time></trkpt><trkpt lat="46.00907418013894" lon="12.03576141817097"><ele>567.5</ele><time>2026-05-03T05:47:06Z</time></trkpt><trkpt lat="46.008972933199864" lon="12.035725455791503"><ele>567.6666666666667</ele><time>2026-05-03T05:47:07Z</time></trkpt><trkpt lat="46.00889317046309" lon="12.03567619789323"><ele>567.8333333333334</ele><time>2026-05-03T05:47:08Z</time></trkpt><trkpt lat="46.00882600105292" lon="12.035661909095023"><ele>568.0</ele><time>2026-05-03T05:47:09Z</time></trkpt><trkpt lat="46.00872543415072" lon="12.035622496444434"><ele>568.0</ele><time>2026-05-03T05:47:11Z</time></trkpt><trkpt lat="46.008661770575635" lon="12.035515760543765"><ele>568.0</ele><time>2026-05-03T05:47:13Z</time></trkpt><trkpt lat="46.00862561570694" lon="12.035436950151825"><ele>568.0</ele><time>2026-05-03T05:47:14Z</time></trkpt><trkpt lat="46.00859053081505" lon="12.035358411352439"><ele>568.0</ele><time>2026-05-03T05:47:15Z</time></trkpt><trkpt lat="46.00855875712582" lon="12.035278375424655"><ele>568.0</ele><time>2026-05-03T05:47:16Z</time></trkpt><trkpt lat="46.008518194519056" lon="12.035186002055877"><ele>568.0</ele><time>2026-05-03T05:47:18Z</time></trkpt><trkpt lat="46.00850432219647" lon="12.034960628064722"><ele>573.3333333333334</ele><time>2026-05-03T05:47:20Z</time></trkpt><trkpt lat="46.00846228651514" lon="12.034840461030976"><ele>578.6666666666667</ele><time>2026-05-03T05:47:22Z</time></trkpt><trkpt lat="46.00841770719039" lon="12.03477200278782"><ele>584.0</ele><time>2026-05-03T05:47:24Z</time></trkpt><trkpt lat="46.008347987385775" lon="12.034679599037835"><ele>589.3333333333334</ele><time>2026-05-03T05:47:25Z</time></trkpt><trkpt lat="46.00826307428572" lon="12.03461419205768"><ele>594.6666666666666</ele><time>2026-05-03T05:47:26Z</time></trkpt><trkpt lat="46.00817575644972" lon="12.034592701129188"><ele>600.0</ele><time>2026-05-03T05:47:27Z</time></trkpt><trkpt lat="46.00810029175118" lon="12.03458200673248"><ele>602.0</ele><time>2026-05-03T05:47:28Z</time></trkpt><trkpt lat="46.00802508601019" lon="12.034597460444528"><ele>604.0</ele><time>2026-05-03T05:47:29Z</time></trkpt><trkpt lat="46.00795478344166" lon="12.03468844266649"><ele>606.0</ele><time>2026-05-03T05:47:30Z</time></trkpt><trkpt lat="46.00794481678684" lon="12.034870619162655"><ele>608.0</ele><time>2026-05-03T05:47:31Z</time></trkpt><trkpt lat="46.00789032129706" lon="12.034965639636534"><ele>610.0</ele><time>2026-05-03T05:47:32Z</time></trkpt><trkpt lat="46.007757071015625" lon="12.03496439111864"><ele>601.8</ele><time>2026-05-03T05:47:33Z</time></trkpt><trkpt lat="46.00770077254301" lon="12.035036931457762"><ele>593.6</ele><time>2026-05-03T05:47:34Z</time></trkpt><trkpt lat="46.00767614028847" lon="12.03514013773814"><ele>585.4</ele><time>2026-05-03T05:47:36Z</time></trkpt><trkpt lat="46.00759122247433" lon="12.035198982290016"><ele>577.2</ele><time>2026-05-03T05:47:38Z</time></trkpt><trkpt lat="46.00749511415991" lon="12.035206583270547"><ele>569.0</ele><time>2026-05-03T05:47:40Z</time></trkpt><trkpt lat="46.00738134652096" lon="12.035209202849114"><ele>569.0</ele><time>2026-05-03T05:47:42Z</time></trkpt><trkpt lat="46.00726258763214" lon="12.035182788937735"><ele>569.0</ele><time>2026-05-03T05:47:44Z</time></trkpt><trkpt lat="46.00716705663433" lon="12.035191365230238"><ele>569.0</ele><time>2026-05-03T05:47:46Z</time></trkpt><trkpt lat="46.00705887330173" lon="12.035260728714286"><ele>569.0</ele><time>2026-05-03T05:47:48Z</time></trkpt><trkpt lat="46.006979023837864" lon="12.035245249645072"><ele>569.0</ele><time>2026-05-03T05:47:50Z</time></trkpt><trkpt lat="46.006915934328546" lon="12.03511854190632"><ele>569.0</ele><time>2026-05-03T05:47:52Z</time></trkpt><trkpt lat="46.00682229572066" lon="12.035019519994403"><ele>569.0</ele><time>2026-05-03T05:47:54Z</time></trkpt><trkpt lat="46.00676889604263" lon="12.034935059522933"><ele>569.0</ele><time>2026-05-03T05:47:55Z</time></trkpt><trkpt lat="46.006680065175374" lon="12.03493933312318"><ele>569.0</ele><time>2026-05-03T05:47:56Z</time></trkpt><trkpt lat="46.006627550495" lon="12.034860468609024"><ele>569.0</ele><time>2026-05-03T05:47:57Z</time></trkpt><trkpt lat="46.00657740951533" lon="12.034796296797506"><ele>569.0</ele><time>2026-05-03T05:47:58Z</time></trkpt><trkpt lat="46.006486546685366" lon="12.03471160849251"><ele>574.5</ele><time>2026-05-03T05:48:00Z</time></trkpt><trkpt lat="46.00640523902518" lon="12.0346814483459"><ele>580.0</ele><time>2026-05-03T05:48:01Z</time></trkpt><trkpt lat="46.00633892002832" lon="12.034674020278239"><ele>585.5</ele><time>2026-05-03T05:48:02Z</time></trkpt><trkpt lat="46.006268539798164" lon="12.03466784684623"><ele>591.0</ele><time>2026-05-03T05:48:03Z</time></trkpt><trkpt lat="46.0061886947743" lon="12.03465715758223"><ele>596.5</ele><time>2026-05-03T05:48:05Z</time></trkpt><trkpt lat="46.00606794138541" lon="12.034636079099984"><ele>602.0</ele><time>2026-05-03T05:48:07Z</time></trkpt><trkpt lat="46.00597847704393" lon="12.034589263324667"><ele>602.0</ele><time>2026-05-03T05:48:09Z</time></trkpt><trkpt lat="46.005919792780496" lon="12.03454052217908"><ele>602.0</ele><time>2026-05-03T05:48:10Z</time></trkpt><trkpt lat="46.0058219230146" lon="12.034465969819033"><ele>602.0</ele><time>2026-05-03T05:48:11Z</time></trkpt><trkpt lat="46.00573413692041" lon="12.034425181337763"><ele>602.0</ele><time>2026-05-03T05:48:12Z</time></trkpt><trkpt lat="46.00560717229463" lon="12.034412027168647"><ele>602.0</ele><time>2026-05-03T05:48:13Z</time></trkpt><trkpt lat="46.00549623612562" lon="12.034410547083946"><ele>599.2</ele><time>2026-05-03T05:48:14Z</time></trkpt><trkpt lat="46.005427309761316" lon="12.03440644063021"><ele>596.4000000000001</ele><time>2026-05-03T05:48:15Z</time></trkpt><trkpt lat="46.005297983126816" lon="12.03437766218357"><ele>593.5999999999999</ele><time>2026-05-03T05:48:17Z</time></trkpt><trkpt lat="46.00519664052569" lon="12.034302243166396"><ele>590.8</ele><time>2026-05-03T05:48:19Z</time></trkpt><trkpt lat="46.005145992624605" lon="12.034236711698085"><ele>588.0</ele><time>2026-05-03T05:48:20Z</time></trkpt><trkpt lat="46.00506990985456" lon="12.034160942552278"><ele>594.0</ele><time>2026-05-03T05:48:21Z</time></trkpt><trkpt lat="46.005021921769455" lon="12.034061205427902"><ele>600.0</ele><time>2026-05-03T05:48:23Z</time></trkpt><trkpt lat="46.00495854974187" lon="12.03398225431604"><ele>606.0</ele><time>2026-05-03T05:48:24Z</time></trkpt><trkpt lat="46.00490810554168" lon="12.033889410175622"><ele>612.0</ele><time>2026-05-03T05:48:25Z</time></trkpt><trkpt lat="46.00485086377776" lon="12.03380715292187"><ele>618.0</ele><time>2026-05-03T05:48:26Z</time></trkpt><trkpt lat="46.00480038972393" lon="12.033674839875506"><ele>624.0</ele><time>2026-05-03T05:48:28Z</time></trkpt><trkpt lat="46.00479789191652" lon="12.033499882656509"><ele>624.2</ele><time>2026-05-03T05:48:30Z</time></trkpt><trkpt lat="46.00479217011504" lon="12.033324383714332"><ele>624.4</ele><time>2026-05-03T05:48:32Z</time></trkpt><trkpt lat="46.004764331039375" lon="12.033220660866897"><ele>624.6</ele><time>2026-05-03T05:48:33Z</time></trkpt><trkpt lat="46.00473369576069" lon="12.033102372313742"><ele>624.8</ele><time>2026-05-03T05:48:34.999Z</time></trkpt><trkpt lat="46.004657428173864" lon="12.033033141659068"><ele>625.0</ele><time>2026-05-03T05:48:37.999Z</time></trkpt><trkpt lat="46.00457114336663" lon="12.033024617364202"><ele>625.0</ele><time>2026-05-03T05:48:38.999Z</time></trkpt><trkpt lat="46.00446096869191" lon="12.03320077381681"><ele>625.0</ele><time>2026-05-03T05:48:40.999Z</time></trkpt><trkpt lat="46.00438696450121" lon="12.033259681788351"><ele>625.0</ele><time>2026-05-03T05:48:41.999Z</time></trkpt><trkpt lat="46.00431175074014" lon="12.033390459574203"><ele>625.0</ele><time>2026-05-03T05:48:43.999Z</time></trkpt><trkpt lat="46.00426152949879" lon="12.033541430980547"><ele>625.0</ele><time>2026-05-03T05:48:45.999Z</time></trkpt><trkpt lat="46.00421881415618" lon="12.033702715491135"><ele>625.0</ele><time>2026-05-03T05:48:47.999Z</time></trkpt><trkpt lat="46.00416777117903" lon="12.033758264679744"><ele>625.0</ele><time>2026-05-03T05:48:48.999Z</time></trkpt><trkpt lat="46.00407187736375" lon="12.03386530721299"><ele>625.0</ele><time>2026-05-03T05:48:50.999Z</time></trkpt><trkpt lat="46.00396681012755" lon="12.033923679244886"><ele>625.0</ele><time>2026-05-03T05:48:52.999Z</time></trkpt><trkpt lat="46.00390534861885" lon="12.03396095046769"><ele>623.5</ele><time>2026-05-03T05:48:53.999Z</time></trkpt><trkpt lat="46.00376786898887" lon="12.03402348841408"><ele>622.0</ele><time>2026-05-03T05:48:55.999Z</time></trkpt><trkpt lat="46.00369012991217" lon="12.0340786243404"><ele>620.5</ele><time>2026-05-03T05:48:56.999Z</time></trkpt><trkpt lat="46.003630344556285" lon="12.034125761455401"><ele>619.0</ele><time>2026-05-03T05:48:57.999Z</time></trkpt><trkpt lat="46.00356360167912" lon="12.034187801386794"><ele>617.5</ele><time>2026-05-03T05:48:58.999Z</time></trkpt><trkpt lat="46.00350398515294" lon="12.034239005814552"><ele>616.0</ele><time>2026-05-03T05:48:59.999Z</time></trkpt><trkpt lat="46.003423335134826" lon="12.034224369560398"><ele>615.4</ele><time>2026-05-03T05:49:02Z</time></trkpt><trkpt lat="46.0032867017791" lon="12.034174341168097"><ele>614.8</ele><time>2026-05-03T05:49:04Z</time></trkpt><trkpt lat="46.003202376677436" lon="12.034154038342754"><ele>614.1999999999999</ele><time>2026-05-03T05:49:05Z</time></trkpt><trkpt lat="46.00310671760456" lon="12.034146709697504"><ele>613.6</ele><time>2026-05-03T05:49:06Z</time></trkpt><trkpt lat="46.00302051387068" lon="12.034136953953873"><ele>613.0</ele><time>2026-05-03T05:49:07Z</time></trkpt><trkpt lat="46.002934656523124" lon="12.03412972772576"><ele>611.1666666666667</ele><time>2026-05-03T05:49:08Z</time></trkpt><trkpt lat="46.00284695386247" lon="12.034124098155793"><ele>609.3333333333334</ele><time>2026-05-03T05:49:09Z</time></trkpt><trkpt lat="46.00276497895804" lon="12.034108174240817"><ele>607.5</ele><time>2026-05-03T05:49:10Z</time></trkpt><trkpt lat="46.0026873260576" lon="12.034089592417772"><ele>605.6666666666666</ele><time>2026-05-03T05:49:11Z</time></trkpt><trkpt lat="46.00261130855469" lon="12.034071799998546"><ele>603.8333333333333</ele><time>2026-05-03T05:49:12Z</time></trkpt><trkpt lat="46.00253979109948" lon="12.03404221984276"><ele>602.0</ele><time>2026-05-03T05:49:13Z</time></trkpt><trkpt lat="46.00247321223978" lon="12.034020133616853"><ele>602.0</ele><time>2026-05-03T05:49:14Z</time></trkpt><trkpt lat="46.00240392384096" lon="12.03400926944256"><ele>602.0</ele><time>2026-05-03T05:49:15Z</time></trkpt><trkpt lat="46.002337804217795" lon="12.034014851326472"><ele>602.0</ele><time>2026-05-03T05:49:16Z</time></trkpt><trkpt lat="46.002243633113004" lon="12.034006331554563"><ele>602.0</ele><time>2026-05-03T05:49:18Z</time></trkpt><trkpt lat="46.002191706341016" lon="12.033882252563838"><ele>602.0</ele><time>2026-05-03T05:49:20Z</time></trkpt><trkpt lat="46.00215610724975" lon="12.033711146371731"><ele>602.0</ele><time>2026-05-03T05:49:22Z</time></trkpt><trkpt lat="46.002139498720354" lon="12.033623532973882"><ele>602.0</ele><time>2026-05-03T05:49:23Z</time></trkpt><trkpt lat="46.00208430265107" lon="12.03348759373212"><ele>602.0</ele><time>2026-05-03T05:49:25Z</time></trkpt><trkpt lat="46.002016821109386" lon="12.033345280071794"><ele>602.0</ele><time>2026-05-03T05:49:27Z</time></trkpt><trkpt lat="46.00196507639287" lon="12.033193965956949"><ele>602.0</ele><time>2026-05-03T05:49:29Z</time></trkpt><trkpt lat="46.00194922933696" lon="12.03309953896078"><ele>606.8000000000001</ele><time>2026-05-03T05:49:30Z</time></trkpt><trkpt lat="46.00192416128952" lon="12.033001755497517"><ele>611.6</ele><time>2026-05-03T05:49:31Z</time></trkpt><trkpt lat="46.001914120192865" lon="12.03288201928411"><ele>616.4000000000001</ele><time>2026-05-03T05:49:32Z</time></trkpt><trkpt lat="46.001906566015705" lon="12.03277604185655"><ele>621.2</ele><time>2026-05-03T05:49:33Z</time></trkpt><trkpt lat="46.00188254409171" lon="12.032576538918429"><ele>626.0</ele><time>2026-05-03T05:49:35Z</time></trkpt><trkpt lat="46.00185403660893" lon="12.032445861580692"><ele>632.0</ele><time>2026-05-03T05:49:36Z</time></trkpt><trkpt lat="46.00184748060066" lon="12.03232976455976"><ele>638.0</ele><time>2026-05-03T05:49:37Z</time></trkpt><trkpt lat="46.00183985179229" lon="12.032139829389806"><ele>644.0</ele><time>2026-05-03T05:49:39Z</time></trkpt><trkpt lat="46.00182671332194" lon="12.032021762794013"><ele>650.0</ele><time>2026-05-03T05:49:40Z</time></trkpt><trkpt lat="46.00184322464442" lon="12.031862604840258"><ele>656.0</ele><time>2026-05-03T05:49:42Z</time></trkpt><trkpt lat="46.00187081670598" lon="12.031736822998933"><ele>663.0</ele><time>2026-05-03T05:49:44Z</time></trkpt><trkpt lat="46.00191844322766" lon="12.031632734068385"><ele>670.0</ele><time>2026-05-03T05:49:46Z</time></trkpt><trkpt lat="46.00192519560163" lon="12.031500958210522"><ele>677.0</ele><time>2026-05-03T05:49:48Z</time></trkpt><trkpt lat="46.00182343731561" lon="12.031472617148317"><ele>684.0</ele><time>2026-05-03T05:49:52Z</time></trkpt><trkpt lat="46.001719276756845" lon="12.031481056308147"><ele>691.0</ele><time>2026-05-03T05:49:53Z</time></trkpt><trkpt lat="46.001626762776546" lon="12.031502448141914"><ele>691.1666666666667</ele><time>2026-05-03T05:49:54Z</time></trkpt><trkpt lat="46.001559927252025" lon="12.03149522254587"><ele>691.3333333333334</ele><time>2026-05-03T05:49:55Z</time></trkpt><trkpt lat="46.00148166810346" lon="12.031524992836712"><ele>691.5</ele><time>2026-05-03T05:49:56Z</time></trkpt><trkpt lat="46.001405158710526" lon="12.031586960616378"><ele>691.6666666666666</ele><time>2026-05-03T05:49:57Z</time></trkpt><trkpt lat="46.00133085155322" lon="12.03168909268407"><ele>691.8333333333333</ele><time>2026-05-03T05:49:58Z</time></trkpt><trkpt lat="46.001278499281014" lon="12.031754678573334"><ele>692.0</ele><time>2026-05-03T05:49:59Z</time></trkpt><trkpt lat="46.00124115508383" lon="12.031828528444583"><ele>684.6</ele><time>2026-05-03T05:50:00Z</time></trkpt><trkpt lat="46.00113284654249" lon="12.031871504032965"><ele>677.2</ele><time>2026-05-03T05:50:02Z</time></trkpt><trkpt lat="46.00104097554883" lon="12.03182376407162"><ele>669.8</ele><time>2026-05-03T05:50:04Z</time></trkpt><trkpt lat="46.00098057608131" lon="12.031776568261257"><ele>662.4</ele><time>2026-05-03T05:50:05Z</time></trkpt><trkpt lat="46.00087831048136" lon="12.031664250344592"><ele>655.0</ele><time>2026-05-03T05:50:07Z</time></trkpt><trkpt lat="46.00071761583455" lon="12.031674634968482"><ele>652.2</ele><time>2026-05-03T05:50:08Z</time></trkpt><trkpt lat="46.00061634326604" lon="12.031670292061238"><ele>649.4</ele><time>2026-05-03T05:50:09Z</time></trkpt><trkpt lat="46.00051488698195" lon="12.0316653894067"><ele>646.5999999999999</ele><time>2026-05-03T05:50:10Z</time></trkpt><trkpt lat="46.00043588715351" lon="12.03165579272521"><ele>643.8</ele><time>2026-05-03T05:50:11Z</time></trkpt><trkpt lat="46.000362153309425" lon="12.031590926181806"><ele>641.0</ele><time>2026-05-03T05:50:12Z</time></trkpt><trkpt lat="46.000282780992976" lon="12.031518442504034"><ele>647.8</ele><time>2026-05-03T05:50:13Z</time></trkpt><trkpt lat="46.00019530517838" lon="12.031454517858966"><ele>654.5999999999999</ele><time>2026-05-03T05:50:14Z</time></trkpt><trkpt lat="46.00011790989649" lon="12.031404131246008"><ele>661.4</ele><time>2026-05-03T05:50:15Z</time></trkpt><trkpt lat="46.00004059383438" lon="12.031341319197786"><ele>668.2</ele><time>2026-05-03T05:50:16Z</time></trkpt><trkpt lat="45.99993693373474" lon="12.031263536469586"><ele>675.0</ele><time>2026-05-03T05:50:17Z</time></trkpt><trkpt lat="45.999853820043306" lon="12.031194368713464"><ele>675.0</ele><time>2026-05-03T05:50:18Z</time></trkpt><trkpt lat="45.99977662210783" lon="12.031119498304626"><ele>675.0</ele><time>2026-05-03T05:50:19Z</time></trkpt><trkpt lat="45.99970488747788" lon="12.031052293004832"><ele>675.0</ele><time>2026-05-03T05:50:20Z</time></trkpt><trkpt lat="45.9996488199295" lon="12.030984811975866"><ele>675.0</ele><time>2026-05-03T05:50:21Z</time></trkpt><trkpt lat="45.999549806435596" lon="12.030859359700463"><ele>675.0</ele><time>2026-05-03T05:50:23Z</time></trkpt><trkpt lat="45.99943561051582" lon="12.030796237810774"><ele>678.5</ele><time>2026-05-03T05:50:24Z</time></trkpt><trkpt lat="45.999363440724174" lon="12.030776616274968"><ele>682.0</ele><time>2026-05-03T05:50:25Z</time></trkpt><trkpt lat="45.999262885152326" lon="12.030753835995306"><ele>685.5</ele><time>2026-05-03T05:50:26Z</time></trkpt><trkpt lat="45.99918368274312" lon="12.030729747835503"><ele>689.0</ele><time>2026-05-03T05:50:27Z</time></trkpt><trkpt lat="45.99907324698801" lon="12.030691291475074"><ele>692.5</ele><time>2026-05-03T05:50:29Z</time></trkpt><trkpt lat="45.99900359495922" lon="12.030658950571429"><ele>696.0</ele><time>2026-05-03T05:50:31Z</time></trkpt><trkpt lat="45.99894293828028" lon="12.03060443199519"><ele>696.0</ele><time>2026-05-03T05:50:33Z</time></trkpt><trkpt lat="45.99888468163391" lon="12.030531606194392"><ele>696.0</ele><time>2026-05-03T05:50:35Z</time></trkpt><trkpt lat="45.998815732833876" lon="12.030482898895974"><ele>696.0</ele><time>2026-05-03T05:50:51.999Z</time></trkpt><trkpt lat="45.998716736480475" lon="12.030407165359524"><ele>696.0</ele><time>2026-05-03T05:50:53.999Z</time></trkpt><trkpt lat="45.99864062129392" lon="12.030368841841474"><ele>696.0</ele><time>2026-05-03T05:50:55.999Z</time></trkpt><trkpt lat="45.99856314302347" lon="12.030331042215487"><ele>696.0</ele><time>2026-05-03T05:50:59.999Z</time></trkpt><trkpt lat="45.998512720841624" lon="12.030257907001193"><ele>696.0</ele><time>2026-05-03T05:51:02.999Z</time></trkpt><trkpt lat="45.99849481413152" lon="12.030161966654795"><ele>696.0</ele><time>2026-05-03T05:51:04.999Z</time></trkpt><trkpt lat="45.998471260907486" lon="12.030048720662368"><ele>696.0</ele><time>2026-05-03T05:51:06.999Z</time></trkpt><trkpt lat="45.99845359654311" lon="12.02994840428083"><ele>696.0</ele><time>2026-05-03T05:51:09Z</time></trkpt><trkpt lat="45.99844777314761" lon="12.029836954923098"><ele>696.0</ele><time>2026-05-03T05:51:11Z</time></trkpt><trkpt lat="45.99843435567459" lon="12.029743309551288"><ele>696.0</ele><time>2026-05-03T05:51:13Z</time></trkpt><trkpt lat="45.99842326817601" lon="12.029634592342488"><ele>696.0</ele><time>2026-05-03T05:51:14Z</time></trkpt><trkpt lat="45.99839413871879" lon="12.02953348304593"><ele>693.3333333333334</ele><time>2026-05-03T05:51:16Z</time></trkpt><trkpt lat="45.99834073325204" lon="12.02939883502396"><ele>690.6666666666666</ele><time>2026-05-03T05:51:18Z</time></trkpt><trkpt lat="45.99830141683427" lon="12.029301478571751"><ele>688.0</ele><time>2026-05-03T05:51:20Z</time></trkpt><trkpt lat="45.99835655822029" lon="12.029219067163385"><ele>685.3333333333333</ele><time>2026-05-03T05:51:36Z</time></trkpt><trkpt lat="45.99835203336178" lon="12.029109088352579"><ele>682.6666666666666</ele><time>2026-05-03T05:53:47Z</time></trkpt><trkpt lat="45.99835877673876" lon="12.028975816634134"><ele>680.0</ele><time>2026-05-03T05:53:49Z</time></trkpt><trkpt lat="45.99838460585902" lon="12.028852353074841"><ele>686.2</ele><time>2026-05-03T05:53:51Z</time></trkpt><trkpt lat="45.99843519175035" lon="12.028731172436341"><ele>692.4</ele><time>2026-05-03T05:53:53Z</time></trkpt><trkpt lat="45.998410142122935" lon="12.028592833210224"><ele>698.5999999999999</ele><time>2026-05-03T05:53:55Z</time></trkpt><trkpt lat="45.99833693938781" lon="12.02851357009852"><ele>704.8</ele><time>2026-05-03T05:53:57Z</time></trkpt><trkpt lat="45.998244343313374" lon="12.02844822889219"><ele>711.0</ele><time>2026-05-03T05:53:59Z</time></trkpt><trkpt lat="45.99818556449753" lon="12.028374168739868"><ele>711.0</ele><time>2026-05-03T05:54:02Z</time></trkpt><trkpt lat="45.99826778408774" lon="12.028342010403954"><ele>711.0</ele><time>2026-05-03T05:54:04Z</time></trkpt><trkpt lat="45.99831571985604" lon="12.028419010893993"><ele>711.0</ele><time>2026-05-03T05:54:07Z</time></trkpt><trkpt lat="45.99841289296633" lon="12.028473810332775"><ele>711.0</ele><time>2026-05-03T05:54:09Z</time></trkpt><trkpt lat="45.99847727753836" lon="12.02847125330582"><ele>711.0</ele><time>2026-05-03T05:54:10Z</time></trkpt><trkpt lat="45.9985158503657" lon="12.028602472993905"><ele>711.0</ele><time>2026-05-03T05:54:14Z</time></trkpt><trkpt lat="45.99853248237959" lon="12.028726903782378"><ele>714.3333333333334</ele><time>2026-05-03T05:54:16Z</time></trkpt><trkpt lat="45.99856137116315" lon="12.028829020399021"><ele>717.6666666666666</ele><time>2026-05-03T05:54:18Z</time></trkpt><trkpt lat="45.99854632663525" lon="12.028934180451675"><ele>721.0</ele><time>2026-05-03T05:54:19Z</time></trkpt><trkpt lat="45.99857754909397" lon="12.029045236285857"><ele>724.3333333333333</ele><time>2026-05-03T05:54:21Z</time></trkpt><trkpt lat="45.99861811864023" lon="12.029129395352717"><ele>727.6666666666666</ele><time>2026-05-03T05:54:23Z</time></trkpt><trkpt lat="45.998704318259946" lon="12.029229657742956"><ele>731.0</ele><time>2026-05-03T05:54:25Z</time></trkpt><trkpt lat="45.99877704405392" lon="12.029317941147887"><ele>731.0</ele><time>2026-05-03T05:54:27Z</time></trkpt><trkpt lat="45.9988532987102" lon="12.029423248163528"><ele>731.0</ele><time>2026-05-03T05:54:29Z</time></trkpt><trkpt lat="45.99889401831277" lon="12.029516454748459"><ele>731.0</ele><time>2026-05-03T05:54:31Z</time></trkpt><trkpt lat="45.998953837042585" lon="12.029588137628828"><ele>731.0</ele><time>2026-05-03T05:54:33Z</time></trkpt><trkpt lat="45.999006896057054" lon="12.02965374921033"><ele>731.0</ele><time>2026-05-03T05:54:34Z</time></trkpt><trkpt lat="45.999075702061866" lon="12.029683347806044"><ele>731.0</ele><time>2026-05-03T05:54:35Z</time></trkpt><trkpt lat="45.99914971613302" lon="12.029702386427566"><ele>737.75</ele><time>2026-05-03T05:54:36Z</time></trkpt><trkpt lat="45.999291228523234" lon="12.029704439416259"><ele>744.5</ele><time>2026-05-03T05:54:39Z</time></trkpt><trkpt lat="45.99939909989074" lon="12.02971777165122"><ele>751.25</ele><time>2026-05-03T05:54:41Z</time></trkpt><trkpt lat="45.99948903226388" lon="12.029749174683625"><ele>758.0</ele><time>2026-05-03T05:54:42.999Z</time></trkpt><trkpt lat="45.99960255593831" lon="12.029754998179989"><ele>758.0</ele><time>2026-05-03T05:54:44.999Z</time></trkpt><trkpt lat="45.99968394898797" lon="12.02976340113025"><ele>758.0</ele><time>2026-05-03T05:54:45.999Z</time></trkpt><trkpt lat="45.999752195409684" lon="12.029786895060752"><ele>758.0</ele><time>2026-05-03T05:54:46.999Z</time></trkpt><trkpt lat="45.99982449878163" lon="12.029812533662133"><ele>758.0</ele><time>2026-05-03T05:54:47.999Z</time></trkpt><trkpt lat="45.999942989202786" lon="12.029826986980956"><ele>758.0</ele><time>2026-05-03T05:54:49.999Z</time></trkpt><trkpt lat="46.00000665287217" lon="12.029835496927266"><ele>758.0</ele><time>2026-05-03T05:54:50.999Z</time></trkpt><trkpt lat="46.0000725519136" lon="12.029847521960622"><ele>758.0</ele><time>2026-05-03T05:54:51.999Z</time></trkpt><trkpt lat="46.00019291414461" lon="12.029893007734527"><ele>758.0</ele><time>2026-05-03T05:54:53.999Z</time></trkpt><trkpt lat="46.00030922025911" lon="12.02990371115325"><ele>758.0</ele><time>2026-05-03T05:54:55.999Z</time></trkpt><trkpt lat="46.000407361788284" lon="12.029903052269383"><ele>758.0</ele><time>2026-05-03T05:54:57.999Z</time></trkpt><trkpt lat="46.00046994341358" lon="12.029890435624056"><ele>758.0</ele><time>2026-05-03T05:54:58.999Z</time></trkpt><trkpt lat="46.000576600040034" lon="12.029915133079555"><ele>758.0</ele><time>2026-05-03T05:55:00.999Z</time></trkpt><trkpt lat="46.00070650409139" lon="12.029943762404367"><ele>758.0</ele><time>2026-05-03T05:55:02.999Z</time></trkpt><trkpt lat="46.000790157072466" lon="12.02994563757561"><ele>758.0</ele><time>2026-05-03T05:55:03.999Z</time></trkpt><trkpt lat="46.00086562181916" lon="12.029965070191569"><ele>758.0</ele><time>2026-05-03T05:55:04.999Z</time></trkpt><trkpt lat="46.00098659075513" lon="12.030013828093733"><ele>758.0</ele><time>2026-05-03T05:55:06.999Z</time></trkpt><trkpt lat="46.00108304850369" lon="12.030036106494068"><ele>760.4</ele><time>2026-05-03T05:55:08.999Z</time></trkpt><trkpt lat="46.001192779503924" lon="12.030042891796388"><ele>762.8</ele><time>2026-05-03T05:55:10.999Z</time></trkpt><trkpt lat="46.001269866710295" lon="12.030042554897326"><ele>765.2</ele><time>2026-05-03T05:55:12.999Z</time></trkpt><trkpt lat="46.001371917791396" lon="12.02999536504285"><ele>767.6</ele><time>2026-05-03T05:55:14.999Z</time></trkpt><trkpt lat="46.00148148046265" lon="12.029984579847657"><ele>770.0</ele><time>2026-05-03T05:55:16.999Z</time></trkpt><trkpt lat="46.00156188170764" lon="12.029961862146125"><ele>773.0</ele><time>2026-05-03T05:55:17.999Z</time></trkpt><trkpt lat="46.00167960673616" lon="12.029974264397431"><ele>776.0</ele><time>2026-05-03T05:55:20Z</time></trkpt><trkpt lat="46.00179008876621" lon="12.030009469951692"><ele>779.0</ele><time>2026-05-03T05:55:22Z</time></trkpt><trkpt lat="46.00188112791256" lon="12.030035536618076"><ele>782.0</ele><time>2026-05-03T05:55:24Z</time></trkpt><trkpt lat="46.00200795121735" lon="12.030075764570567"><ele>782.0000000000001</ele><time>2026-05-03T05:55:26Z</time></trkpt><trkpt lat="46.002088857151946" lon="12.030084096033553"><ele>782.0</ele><time>2026-05-03T05:55:27Z</time></trkpt><trkpt lat="46.002153302709736" lon="12.030063785215601"><ele>782.0</ele><time>2026-05-03T05:55:29Z</time></trkpt><trkpt lat="46.00227015672343" lon="12.030002754249718"><ele>782.0</ele><time>2026-05-03T05:55:31Z</time></trkpt><trkpt lat="46.00233460244296" lon="12.029959855746599"><ele>782.0000000000001</ele><time>2026-05-03T05:55:32Z</time></trkpt><trkpt lat="46.00242099875593" lon="12.029869275915289"><ele>782.0</ele><time>2026-05-03T05:55:34Z</time></trkpt><trkpt lat="46.002472460257344" lon="12.029793983575352"><ele>782.0</ele><time>2026-05-03T05:55:35Z</time></trkpt><trkpt lat="46.00254206735569" lon="12.029690051321198"><ele>782.0</ele><time>2026-05-03T05:55:37Z</time></trkpt><trkpt lat="46.00257530116159" lon="12.029588202987725"><ele>782.0</ele><time>2026-05-03T05:55:39Z</time></trkpt><trkpt lat="46.00262281643786" lon="12.029441075700054"><ele>782.0</ele><time>2026-05-03T05:55:54Z</time></trkpt><trkpt lat="46.002705537645106" lon="12.029472253298296"><ele>782.0</ele><time>2026-05-03T05:55:56Z</time></trkpt><trkpt lat="46.002764291676876" lon="12.02955280277166"><ele>782.0</ele><time>2026-05-03T05:55:58Z</time></trkpt><trkpt lat="46.002864606215525" lon="12.02962541024928"><ele>782.0</ele><time>2026-05-03T05:56:00Z</time></trkpt><trkpt lat="46.00296987259793" lon="12.029711449560976"><ele>782.0</ele><time>2026-05-03T05:56:02Z</time></trkpt><trkpt lat="46.00299036332105" lon="12.029814488260097"><ele>782.0</ele><time>2026-05-03T05:56:03Z</time></trkpt><trkpt lat="46.002995938640204" lon="12.02996768945126"><ele>782.0</ele><time>2026-05-03T05:56:05Z</time></trkpt><trkpt lat="46.00300693936778" lon="12.030125984715522"><ele>775.5000000000001</ele><time>2026-05-03T05:56:07Z</time></trkpt><trkpt lat="46.00306078763813" lon="12.03024945898034"><ele>769.0</ele><time>2026-05-03T05:56:09Z</time></trkpt><trkpt lat="46.003100537185524" lon="12.030388113385179"><ele>762.5</ele><time>2026-05-03T05:56:12Z</time></trkpt><trkpt lat="46.003152082618584" lon="12.030508891802308"><ele>756.0</ele><time>2026-05-03T05:56:14Z</time></trkpt><trkpt lat="46.00318819570353" lon="12.030598061397853"><ele>749.5</ele><time>2026-05-03T05:56:16Z</time></trkpt><trkpt lat="46.003221595489" lon="12.030688573336743"><ele>743.0</ele><time>2026-05-03T05:56:20Z</time></trkpt><trkpt lat="46.038657536344104" lon="12.038819463588185"><ele>667.1999999999999</ele><time>2026-05-03T05:39:30Z</time></trkpt><trkpt lat="46.03862365298021" lon="12.038966511142002"><ele>591.4</ele><time>2026-05-03T05:39:31Z</time></trkpt><trkpt lat="46.03856202853802" lon="12.039097785890117"><ele>515.5999999999999</ele><time>2026-05-03T05:39:32Z</time></trkpt><trkpt lat="46.0385151176777" lon="12.039228674358892"><ele>439.79999999999995</ele><time>2026-05-03T05:39:33Z</time></trkpt><trkpt lat="46.03847078535114" lon="12.039325575738447"><ele>364.0</ele><time>2026-05-03T05:39:34Z</time></trkpt><trkpt lat="46.03842121826121" lon="12.039409359650707"><ele>363.2</ele><time>2026-05-03T05:39:35Z</time></trkpt><trkpt lat="46.03835689352207" lon="12.03945857388477"><ele>362.4</ele><time>2026-05-03T05:39:36Z</time></trkpt><trkpt lat="46.03826800433283" lon="12.039496026878966"><ele>361.6</ele><time>2026-05-03T05:39:37Z</time></trkpt><trkpt lat="46.03817533149943" lon="12.039550775659533"><ele>360.8</ele><time>2026-05-03T05:39:38Z</time></trkpt><trkpt lat="46.03807566788592" lon="12.039624730847583"><ele>360.0</ele><time>2026-05-03T05:39:39Z</time></trkpt><trkpt lat="46.03797638651587" lon="12.039711764154598"><ele>361.5</ele><time>2026-05-03T05:39:40Z</time></trkpt><trkpt lat="46.0378964414693" lon="12.039777834062567"><ele>363.0</ele><time>2026-05-03T05:39:41Z</time></trkpt><trkpt lat="46.03783402354034" lon="12.039851864892613"><ele>364.5</ele><time>2026-05-03T05:39:42Z</time></trkpt><trkpt lat="46.0377642642618" lon="12.039885550534706"><ele>366.0</ele><time>2026-05-03T05:39:43Z</time></trkpt><trkpt lat="46.03769960805861" lon="12.039899312045403"><ele>367.5</ele><time>2026-05-03T05:39:44Z</time></trkpt><trkpt lat="46.03762461865971" lon="12.039903051369551"><ele>369.0</ele><time>2026-05-03T05:39:45Z</time></trkpt><trkpt lat="46.03753802910022" lon="12.039892560274538"><ele>373.4</ele><time>2026-05-03T05:39:46Z</time></trkpt><trkpt lat="46.03744498869922" lon="12.039841922652156"><ele>377.79999999999995</ele><time>2026-05-03T05:39:47Z</time></trkpt><trkpt lat="46.03734283821509" lon="12.039807854742518"><ele>382.20000000000005</ele><time>2026-05-03T05:39:48Z</time></trkpt><trkpt lat="46.03722642142991" lon="12.03976924203175"><ele>386.6</ele><time>2026-05-03T05:39:49Z</time></trkpt><trkpt lat="46.037112981928836" lon="12.039769190126323"><ele>391.0</ele><time>2026-05-03T05:39:50Z</time></trkpt><trkpt lat="46.03699276138779" lon="12.039762885781512"><ele>391.0</ele><time>2026-05-03T05:39:51Z</time></trkpt><trkpt lat="46.03686186881707" lon="12.039764167061804"><ele>391.0</ele><time>2026-05-03T05:39:52Z</time></trkpt><trkpt lat="46.03673520404423" lon="12.039847152400071"><ele>391.0</ele><time>2026-05-03T05:39:53Z</time></trkpt><trkpt lat="46.03657514221514" lon="12.039890402897845"><ele>391.0</ele><time>2026-05-03T05:39:54Z</time></trkpt><trkpt lat="46.036416856198365" lon="12.03997981979009"><ele>390.5</ele><time>2026-05-03T05:39:55Z</time></trkpt><trkpt lat="46.036268508376935" lon="12.040039807649288"><ele>390.0</ele><time>2026-05-03T05:39:56Z</time></trkpt><trkpt lat="46.03612455889543" lon="12.040098382583492"><ele>389.5</ele><time>2026-05-03T05:39:57Z</time></trkpt><trkpt lat="46.03599812890994" lon="12.04015112335024"><ele>389.0</ele><time>2026-05-03T05:39:58Z</time></trkpt><trkpt lat="46.03586054166281" lon="12.04020289112275"><ele>392.0</ele><time>2026-05-03T05:39:59Z</time></trkpt><trkpt lat="46.035740479920186" lon="12.040232642974372"><ele>395.0</ele><time>2026-05-03T05:40:00Z</time></trkpt><trkpt lat="46.035632785282424" lon="12.040251589219299"><ele>398.0</ele><time>2026-05-03T05:40:01Z</time></trkpt><trkpt lat="46.03553157319764" lon="12.040267394763859"><ele>401.0</ele><time>2026-05-03T05:40:02Z</time></trkpt><trkpt lat="46.03544743055709" lon="12.040263745959988"><ele>404.0</ele><time>2026-05-03T05:40:03Z</time></trkpt><trkpt lat="46.03535044380584" lon="12.040323924869169"><ele>404.0</ele><time>2026-05-03T05:40:04Z</time></trkpt><trkpt lat="46.03531543176869" lon="12.040482280837299"><ele>404.0</ele><time>2026-05-03T05:40:05Z</time></trkpt><trkpt lat="46.0352488651039" lon="12.04057515708724"><ele>404.0</ele><time>2026-05-03T05:40:06Z</time></trkpt><trkpt lat="46.03518968249873" lon="12.040650567758808"><ele>404.0</ele><time>2026-05-03T05:40:07Z</time></trkpt><trkpt lat="46.035114056298625" lon="12.040698198661321"><ele>404.0</ele><time>2026-05-03T05:40:08Z</time></trkpt><trkpt lat="46.03502759199101" lon="12.040742432102812"><ele>407.16666666666663</ele><time>2026-05-03T05:40:09Z</time></trkpt><trkpt lat="46.03493784554437" lon="12.040776030219908"><ele>410.3333333333333</ele><time>2026-05-03T05:40:10Z</time></trkpt><trkpt lat="46.03485432101238" lon="12.040781040643017"><ele>413.5</ele><time>2026-05-03T05:40:10.999Z</time></trkpt><trkpt lat="46.03477286325664" lon="12.040779241944396"><ele>416.66666666666663</ele><time>2026-05-03T05:40:11.999Z</time></trkpt><trkpt lat="46.03469392253292" lon="12.040762194846497"><ele>419.8333333333333</ele><time>2026-05-03T05:40:12.999Z</time></trkpt><trkpt lat="46.03460863923439" lon="12.040739770375922"><ele>423.0</ele><time>2026-05-03T05:40:13.999Z</time></trkpt><trkpt lat="46.03452121141546" lon="12.040742635749082"><ele>423.0</ele><time>2026-05-03T05:40:14.999Z</time></trkpt><trkpt lat="46.03442879839762" lon="12.040710752381466"><ele>423.0</ele><time>2026-05-03T05:40:15.999Z</time></trkpt><trkpt lat="46.03433345569022" lon="12.040698528662226"><ele>423.0</ele><time>2026-05-03T05:40:16.999Z</time></trkpt><trkpt lat="46.03422998463424" lon="12.04070804247149"><ele>423.0</ele><time>2026-05-03T05:40:17.999Z</time></trkpt><trkpt lat="46.03412688992075" lon="12.040725859578744"><ele>423.0</ele><time>2026-05-03T05:40:18.999Z</time></trkpt><trkpt lat="46.03401045714518" lon="12.040766254478655"><ele>422.75</ele><time>2026-05-03T05:40:19.999Z</time></trkpt><trkpt lat="46.033880640780374" lon="12.040848629834272"><ele>422.5</ele><time>2026-05-03T05:40:20.999Z</time></trkpt><trkpt lat="46.03375826537909" lon="12.040918707429798"><ele>422.25</ele><time>2026-05-03T05:40:21.999Z</time></trkpt><trkpt lat="46.033628428271264" lon="12.040982452808608"><ele>422.0</ele><time>2026-05-03T05:40:22.999Z</time></trkpt><trkpt lat="46.03349424442782" lon="12.041052189747328"><ele>422.0</ele><time>2026-05-03T05:40:23.999Z</time></trkpt><trkpt lat="46.03332189610465" lon="12.041134949654177"><ele>422.0</ele><time>2026-05-03T05:40:24.999Z</time></trkpt><trkpt lat="46.03318968733072" lon="12.041225104074654"><ele>422.0</ele><time>2026-05-03T05:40:25.999Z</time></trkpt><trkpt lat="46.033079970608" lon="12.041309188516475"><ele>424.40000000000003</ele><time>2026-05-03T05:40:26.999Z</time></trkpt><trkpt lat="46.0329814474907" lon="12.04136533650811"><ele>426.8</ele><time>2026-05-03T05:40:27.999Z</time></trkpt><trkpt lat="46.0328995661933" lon="12.041413907104111"><ele>429.2</ele><time>2026-05-03T05:40:28.999Z</time></trkpt><trkpt lat="46.03280991896181" lon="12.041449693032943"><ele>431.6</ele><time>2026-05-03T05:40:29.999Z</time></trkpt><trkpt lat="46.03272313027172" lon="12.041465631408888"><ele>434.0</ele><time>2026-05-03T05:40:30.999Z</time></trkpt><trkpt lat="46.032648766736784" lon="12.041480036420236"><ele>433.99999999999994</ele><time>2026-05-03T05:40:31.999Z</time></trkpt><trkpt lat="46.03258079320673" lon="12.041487812793232"><ele>434.0</ele><time>2026-05-03T05:40:32.999Z</time></trkpt><trkpt lat="46.03250510224736" lon="12.0414819906438"><ele>434.0</ele><time>2026-05-03T05:40:33.999Z</time></trkpt><trkpt lat="46.03242549183571" lon="12.041475219482127"><ele>434.0</ele><time>2026-05-03T05:40:34.999Z</time></trkpt><trkpt lat="46.032349422958475" lon="12.041453689981939"><ele>433.99999999999994</ele><time>2026-05-03T05:40:35.999Z</time></trkpt><trkpt lat="46.03226950863025" lon="12.041434404842809"><ele>434.0</ele><time>2026-05-03T05:40:36.999Z</time></trkpt><trkpt lat="46.03219306679724" lon="12.041413318210811"><ele>436.3333333333333</ele><time>2026-05-03T05:40:38Z</time></trkpt><trkpt lat="46.032106042432346" lon="12.041407695630472"><ele>438.66666666666663</ele><time>2026-05-03T05:40:39Z</time></trkpt><trkpt lat="46.03202727807347" lon="12.04141532395791"><ele>441.0</ele><time>2026-05-03T05:40:40Z</time></trkpt><trkpt lat="46.03195154520057" lon="12.041429909273617"><ele>443.33333333333337</ele><time>2026-05-03T05:40:41Z</time></trkpt><trkpt lat="46.03187544649756" lon="12.04146638656774"><ele>445.6666666666667</ele><time>2026-05-03T05:40:42Z</time></trkpt><trkpt lat="46.03180302041183" lon="12.041519398569736"><ele>448.0</ele><time>2026-05-03T05:40:43Z</time></trkpt><trkpt lat="46.03173224831216" lon="12.041595465740903"><ele>450.00000000000006</ele><time>2026-05-03T05:40:44Z</time></trkpt><trkpt lat="46.031655235055624" lon="12.041648517554936"><ele>452.0</ele><time>2026-05-03T05:40:45Z</time></trkpt><trkpt lat="46.03160467046293" lon="12.04174675350621"><ele>454.0</ele><time>2026-05-03T05:40:46Z</time></trkpt><trkpt lat="46.03154509796846" lon="12.041817895771748"><ele>456.0</ele><time>2026-05-03T05:40:47Z</time></trkpt><trkpt lat="46.03148958892067" lon="12.041879995186559"><ele>458.00000000000006</ele><time>2026-05-03T05:40:48Z</time></trkpt><trkpt lat="46.03142491223291" lon="12.041930765489633"><ele>460.0</ele><time>2026-05-03T05:40:49Z</time></trkpt><trkpt lat="46.031359275772886" lon="12.041974331715204"><ele>460.00000000000006</ele><time>2026-05-03T05:40:50Z</time></trkpt><trkpt lat="46.0312939030847" lon="12.041978129612934"><ele>460.0</ele><time>2026-05-03T05:40:51Z</time></trkpt><trkpt lat="46.03122507947098" lon="12.042013045784886"><ele>460.0</ele><time>2026-05-03T05:40:52Z</time></trkpt><trkpt lat="46.03117694533943" lon="12.042086887028702"><ele>460.0</ele><time>2026-05-03T05:40:53Z</time></trkpt><trkpt lat="46.03114998119733" lon="12.042187240341725"><ele>460.00000000000006</ele><time>2026-05-03T05:40:54Z</time></trkpt><trkpt lat="46.03114044113058" lon="12.04231958166039"><ele>460.0</ele><time>2026-05-03T05:40:55Z</time></trkpt><trkpt lat="46.03112816069709" lon="12.042439246087202"><ele>459.2</ele><time>2026-05-03T05:40:57Z</time></trkpt><trkpt lat="46.03107042537268" lon="12.042565946443132"><ele>458.4</ele><time>2026-05-03T05:40:59Z</time></trkpt><trkpt lat="46.0309991432469" lon="12.04265057650682"><ele>457.6</ele><time>2026-05-03T05:41:01Z</time></trkpt><trkpt lat="46.03088174545699" lon="12.042689623458108"><ele>456.8</ele><time>2026-05-03T05:41:03Z</time></trkpt><trkpt lat="46.03080646911867" lon="12.042660610351717"><ele>456.0</ele><time>2026-05-03T05:41:04Z</time></trkpt><trkpt lat="46.03073045320632" lon="12.042629414066186"><ele>456.0</ele><time>2026-05-03T05:41:05Z</time></trkpt><trkpt lat="46.03066852296855" lon="12.042611979272147"><ele>456.0</ele><time>2026-05-03T05:41:06Z</time></trkpt><trkpt lat="46.030591575418875" lon="12.0426180610199"><ele>456.0</ele><time>2026-05-03T05:41:07Z</time></trkpt><trkpt lat="46.03050316561082" lon="12.042637949264057"><ele>456.0</ele><time>2026-05-03T05:41:08Z</time></trkpt><trkpt lat="46.03042061842443" lon="12.042655486341323"><ele>456.0</ele><time>2026-05-03T05:41:09Z</time></trkpt><trkpt lat="46.030355069525925" lon="12.042673851393923"><ele>456.0</ele><time>2026-05-03T05:41:10Z</time></trkpt><trkpt lat="46.030274498293814" lon="12.042670272923884"><ele>456.0</ele><time>2026-05-03T05:41:11Z</time></trkpt><trkpt lat="46.03017212913565" lon="12.042685927530377"><ele>456.0</ele><time>2026-05-03T05:41:12Z</time></trkpt><trkpt lat="46.03006553264298" lon="12.042768683166837"><ele>456.0</ele><time>2026-05-03T05:41:13Z</time></trkpt><trkpt lat="46.02998653952373" lon="12.0428909718643"><ele>456.0</ele><time>2026-05-03T05:41:14Z</time></trkpt><trkpt lat="46.029920609912764" lon="12.042979569126983"><ele>456.0</ele><time>2026-05-03T05:41:15Z</time></trkpt><trkpt lat="46.02984553274656" lon="12.04305454656398"><ele>456.6</ele><time>2026-05-03T05:41:16Z</time></trkpt><trkpt lat="46.02976472419757" lon="12.043126939424372"><ele>457.20000000000005</ele><time>2026-05-03T05:41:17Z</time></trkpt><trkpt lat="46.02968679615878" lon="12.043189859103405"><ele>457.79999999999995</ele><time>2026-05-03T05:41:18Z</time></trkpt><trkpt lat="46.02960183631219" lon="12.043256601863902"><ele>458.4</ele><time>2026-05-03T05:41:19Z</time></trkpt><trkpt lat="46.029509415732484" lon="12.043325547425537"><ele>459.0</ele><time>2026-05-03T05:41:20Z</time></trkpt><trkpt lat="46.0294052867061" lon="12.04339421703676"><ele>459.0</ele><time>2026-05-03T05:41:21Z</time></trkpt><trkpt lat="46.02932022576621" lon="12.043467554984227"><ele>459.0</ele><time>2026-05-03T05:41:22Z</time></trkpt><trkpt lat="46.029229687783385" lon="12.043501355677545"><ele>459.0</ele><time>2026-05-03T05:41:23Z</time></trkpt><trkpt lat="46.02913822800418" lon="12.043532135302543"><ele>459.0</ele><time>2026-05-03T05:41:24Z</time></trkpt><trkpt lat="46.029050556247704" lon="12.043567257277745"><ele>459.0</ele><time>2026-05-03T05:41:25Z</time></trkpt><trkpt lat="46.0289609681482" lon="12.043565466154941"><ele>463.2</ele><time>2026-05-03T05:41:26Z</time></trkpt><trkpt lat="46.0288600906782" lon="12.04360021323916"><ele>467.4</ele><time>2026-05-03T05:41:27Z</time></trkpt><trkpt lat="46.02875040485508" lon="12.043645172394067"><ele>471.6</ele><time>2026-05-03T05:41:28Z</time></trkpt><trkpt lat="46.02865403300244" lon="12.04368528777122"><ele>475.8</ele><time>2026-05-03T05:41:29Z</time></trkpt><trkpt lat="46.02856967781204" lon="12.043717066252587"><ele>480.0</ele><time>2026-05-03T05:41:30Z</time></trkpt><trkpt lat="46.028492453081874" lon="12.043742056313105"><ele>480.0</ele><time>2026-05-03T05:41:31Z</time></trkpt><trkpt lat="46.02840226357141" lon="12.043762173452023"><ele>480.0</ele><time>2026-05-03T05:41:32Z</time></trkpt><trkpt lat="46.0283144238043" lon="12.043791182357639"><ele>480.0</ele><time>2026-05-03T05:41:33Z</time></trkpt><trkpt lat="46.028220420262876" lon="12.043845613545036"><ele>480.0</ele><time>2026-05-03T05:41:34Z</time></trkpt><trkpt lat="46.0281210439553" lon="12.04391323617106"><ele>480.0</ele><time>2026-05-03T05:41:35Z</time></trkpt><trkpt lat="46.02803227336244" lon="12.044019963626273"><ele>482.3333333333333</ele><time>2026-05-03T05:41:36Z</time></trkpt><trkpt lat="46.02794690948835" lon="12.04408340332373"><ele>484.66666666666663</ele><time>2026-05-03T05:41:37Z</time></trkpt><trkpt lat="46.027853996661065" lon="12.044140321740299"><ele>487.0</ele><time>2026-05-03T05:41:38Z</time></trkpt><trkpt lat="46.02777008278575" lon="12.044181392400498"><ele>489.3333333333333</ele><time>2026-05-03T05:41:39Z</time></trkpt><trkpt lat="46.0276959058348" lon="12.044220734780795"><ele>491.66666666666663</ele><time>2026-05-03T05:41:40Z</time></trkpt><trkpt lat="46.027628586842155" lon="12.044253136633827"><ele>494.0</ele><time>2026-05-03T05:41:41Z</time></trkpt><trkpt lat="46.027512691117906" lon="12.04428967228316"><ele>491.49999999999994</ele><time>2026-05-03T05:41:43Z</time></trkpt><trkpt lat="46.027432949100145" lon="12.044288032229487"><ele>489.0</ele><time>2026-05-03T05:41:44Z</time></trkpt><trkpt lat="46.02734612610978" lon="12.04425674709069"><ele>486.5</ele><time>2026-05-03T05:41:45Z</time></trkpt><trkpt lat="46.027275041276205" lon="12.044249855956728"><ele>484.0</ele><time>2026-05-03T05:41:46Z</time></trkpt><trkpt lat="46.02721429912254" lon="12.044275810817648"><ele>481.49999999999994</ele><time>2026-05-03T05:41:47Z</time></trkpt><trkpt lat="46.02716625877721" lon="12.044342809214886"><ele>479.0</ele><time>2026-05-03T05:41:48Z</time></trkpt><trkpt lat="46.02714394575997" lon="12.04446561437363"><ele>479.0</ele><time>2026-05-03T05:41:49Z</time></trkpt><trkpt lat="46.02713279346743" lon="12.04460341388455"><ele>479.0</ele><time>2026-05-03T05:41:50Z</time></trkpt><trkpt lat="46.02710427370798" lon="12.044744037568666"><ele>479.0</ele><time>2026-05-03T05:41:51Z</time></trkpt><trkpt lat="46.027048281854256" lon="12.044873142773902"><ele>479.0</ele><time>2026-05-03T05:41:52Z</time></trkpt><trkpt lat="46.027011649644" lon="12.044986730875545"><ele>479.0</ele><time>2026-05-03T05:41:53Z</time></trkpt><trkpt lat="46.026974440167336" lon="12.045094572162547"><ele>475.6</ele><time>2026-05-03T05:41:54Z</time></trkpt><trkpt lat="46.02691365743966" lon="12.04516268306145"><ele>472.2</ele><time>2026-05-03T05:41:55Z</time></trkpt><trkpt lat="46.02685038968384" lon="12.045255589837113"><ele>468.80000000000007</ele><time>2026-05-03T05:41:56Z</time></trkpt><trkpt lat="46.02679487116711" lon="12.04537500157466"><ele>465.40000000000003</ele><time>2026-05-03T05:41:57Z</time></trkpt><trkpt lat="46.026735981771054" lon="12.04550814928149"><ele>462.0</ele><time>2026-05-03T05:41:58Z</time></trkpt><trkpt lat="46.02668220987459" lon="12.04563285434772"><ele>462.1666666666667</ele><time>2026-05-03T05:41:59Z</time></trkpt><trkpt lat="46.02664211163704" lon="12.045748739343162"><ele>462.33333333333337</ele><time>2026-05-03T05:42:00Z</time></trkpt><trkpt lat="46.026606701984505" lon="12.045853711569945"><ele>462.5</ele><time>2026-05-03T05:42:01Z</time></trkpt><trkpt lat="46.026583381072115" lon="12.045952936560816"><ele>462.6666666666667</ele><time>2026-05-03T05:42:02Z</time></trkpt><trkpt lat="46.02653393891637" lon="12.046019690814369"><ele>462.83333333333337</ele><time>2026-05-03T05:42:03Z</time></trkpt><trkpt lat="46.02641022930115" lon="12.046019138628502"><ele>463.0</ele><time>2026-05-03T05:42:04.999Z</time></trkpt><trkpt lat="46.02632015551617" lon="12.04600479372511"><ele>463.0</ele><time>2026-05-03T05:42:05.999Z</time></trkpt><trkpt lat="46.02621867811482" lon="12.046017445950714"><ele>462.99999999999994</ele><time>2026-05-03T05:42:06.999Z</time></trkpt><trkpt lat="46.02612911723971" lon="12.046080677975928"><ele>462.99999999999994</ele><time>2026-05-03T05:42:07.999Z</time></trkpt><trkpt lat="46.026015438544455" lon="12.046110500160387"><ele>463.0</ele><time>2026-05-03T05:42:08.999Z</time></trkpt><trkpt lat="46.02590200387699" lon="12.04616620418502"><ele>463.0</ele><time>2026-05-03T05:42:09.999Z</time></trkpt><trkpt lat="46.02578731469352" lon="12.046223836719943"><ele>465.4</ele><time>2026-05-03T05:42:10.999Z</time></trkpt><trkpt lat="46.025676055387805" lon="12.046277557434616"><ele>467.79999999999995</ele><time>2026-05-03T05:42:11.999Z</time></trkpt><trkpt lat="46.02557452969877" lon="12.046319844575594"><ele>470.2</ele><time>2026-05-03T05:42:12.999Z</time></trkpt><trkpt lat="46.02546591229804" lon="12.046348691370858"><ele>472.6</ele><time>2026-05-03T05:42:13.999Z</time></trkpt><trkpt lat="46.02535389952503" lon="12.046384536623657"><ele>475.0</ele><time>2026-05-03T05:42:14.999Z</time></trkpt><trkpt lat="46.02524548985272" lon="12.046437310534705"><ele>475.0</ele><time>2026-05-03T05:42:15.999Z</time></trkpt><trkpt lat="46.02513460781911" lon="12.046480894625212"><ele>475.0</ele><time>2026-05-03T05:42:16.999Z</time></trkpt><trkpt lat="46.02503308614058" lon="12.046542788227436"><ele>475.0</ele><time>2026-05-03T05:42:17.999Z</time></trkpt><trkpt lat="46.02493100676147" lon="12.046577658447418"><ele>475.0</ele><time>2026-05-03T05:42:18.999Z</time></trkpt><trkpt lat="46.024830777218845" lon="12.046619670886745"><ele>475.0</ele><time>2026-05-03T05:42:19.999Z</time></trkpt><trkpt lat="46.02473239764485" lon="12.046669078779003"><ele>475.8</ele><time>2026-05-03T05:42:20.999Z</time></trkpt><trkpt lat="46.02463912581921" lon="12.046699375323554"><ele>476.6</ele><time>2026-05-03T05:42:21.999Z</time></trkpt><trkpt lat="46.02455602321046" lon="12.046758281653831"><ele>477.4</ele><time>2026-05-03T05:42:22.999Z</time></trkpt><trkpt lat="46.024487014664224" lon="12.046858407433442"><ele>478.2</ele><time>2026-05-03T05:42:23.999Z</time></trkpt><trkpt lat="46.02442157471814" lon="12.046984610604552"><ele>479.0</ele><time>2026-05-03T05:42:24.999Z</time></trkpt><trkpt lat="46.02431796103726" lon="12.04706906484099"><ele>479.0</ele><time>2026-05-03T05:42:25.999Z</time></trkpt><trkpt lat="46.02425938728429" lon="12.047181186300588"><ele>479.0</ele><time>2026-05-03T05:42:26.999Z</time></trkpt><trkpt lat="46.02419682643548" lon="12.047291935915888"><ele>479.0</ele><time>2026-05-03T05:42:27.999Z</time></trkpt><trkpt lat="46.02415189594308" lon="12.04738450146972"><ele>479.0</ele><time>2026-05-03T05:42:28.999Z</time></trkpt><trkpt lat="46.024045947273" lon="12.04740719555835"><ele>479.0</ele><time>2026-05-03T05:42:30.999Z</time></trkpt><trkpt lat="46.0239128464287" lon="12.047431139123416"><ele>480.0</ele><time>2026-05-03T05:42:32.999Z</time></trkpt><trkpt lat="46.023826610098745" lon="12.047451822834361"><ele>481.0</ele><time>2026-05-03T05:42:33.999Z</time></trkpt><trkpt lat="46.02374646149038" lon="12.047477961384407"><ele>482.0</ele><time>2026-05-03T05:42:34.999Z</time></trkpt><trkpt lat="46.02368716893605" lon="12.04757618776228"><ele>483.0</ele><time>2026-05-03T05:42:35.999Z</time></trkpt><trkpt lat="46.0237008091683" lon="12.047695102429515"><ele>484.0</ele><time>2026-05-03T05:42:36.999Z</time></trkpt><trkpt lat="46.02365850945947" lon="12.047842988470608"><ele>484.00000000000006</ele><time>2026-05-03T05:42:38.999Z</time></trkpt><trkpt lat="46.02355979901666" lon="12.047931828043438"><ele>484.0</ele><time>2026-05-03T05:42:40.999Z</time></trkpt><trkpt lat="46.023485330881996" lon="12.047975722520826"><ele>484.0</ele><time>2026-05-03T05:42:41.999Z</time></trkpt><trkpt lat="46.023396228386034" lon="12.04802479282426"><ele>484.0</ele><time>2026-05-03T05:42:42.999Z</time></trkpt><trkpt lat="46.023316082522825" lon="12.0480689305939"><ele>484.00000000000006</ele><time>2026-05-03T05:42:44Z</time></trkpt><trkpt lat="46.023250018489165" lon="12.048094641647847"><ele>484.0</ele><time>2026-05-03T05:42:45Z</time></trkpt><trkpt lat="46.02311278326125" lon="12.048095910447138"><ele>485.2</ele><time>2026-05-03T05:42:47Z</time></trkpt><trkpt lat="46.0230243887695" lon="12.048081716393575"><ele>486.4</ele><time>2026-05-03T05:42:48Z</time></trkpt><trkpt lat="46.02293625636929" lon="12.048066249232397"><ele>487.6</ele><time>2026-05-03T05:42:49Z</time></trkpt><trkpt lat="46.02283674142516" lon="12.048068649167453"><ele>488.8</ele><time>2026-05-03T05:42:50Z</time></trkpt><trkpt lat="46.02274117462417" lon="12.048039762468479"><ele>490.0</ele><time>2026-05-03T05:42:51Z</time></trkpt><trkpt lat="46.02263252963339" lon="12.048034224368733"><ele>490.00000000000006</ele><time>2026-05-03T05:42:52Z</time></trkpt><trkpt lat="46.022522014088985" lon="12.048032588898854"><ele>490.0</ele><time>2026-05-03T05:42:53Z</time></trkpt><trkpt lat="46.02242692619067" lon="12.048017113095947"><ele>490.0</ele><time>2026-05-03T05:42:54Z</time></trkpt><trkpt lat="46.02234102287132" lon="12.048005544060342"><ele>490.0</ele><time>2026-05-03T05:42:55Z</time></trkpt><trkpt lat="46.022272673608256" lon="12.04797776288802"><ele>490.00000000000006</ele><time>2026-05-03T05:42:56Z</time></trkpt><trkpt lat="46.022219154734" lon="12.047927989352846"><ele>490.0</ele><time>2026-05-03T05:42:57Z</time></trkpt><trkpt lat="46.02215466415635" lon="12.047833597654714"><ele>492.1666666666667</ele><time>2026-05-03T05:42:59Z</time></trkpt><trkpt lat="46.02208648905342" lon="12.04772172424087"><ele>494.33333333333337</ele><time>2026-05-03T05:43:01Z</time></trkpt><trkpt lat="46.022049553966724" lon="12.047622827443556"><ele>496.5</ele><time>2026-05-03T05:43:02Z</time></trkpt><trkpt lat="46.02200705943202" lon="12.0475231035845"><ele>498.66666666666663</ele><time>2026-05-03T05:43:03Z</time></trkpt><trkpt lat="46.02197394304274" lon="12.047421117578216"><ele>500.8333333333333</ele><time>2026-05-03T05:43:04Z</time></trkpt><trkpt lat="46.02191320551487" lon="12.047357261939544"><ele>503.0</ele><time>2026-05-03T05:43:05Z</time></trkpt><trkpt lat="46.0218341687518" lon="12.047332751555777"><ele>503.0</ele><time>2026-05-03T05:43:06Z</time></trkpt><trkpt lat="46.021744812213925" lon="12.047325016140498"><ele>502.99999999999994</ele><time>2026-05-03T05:43:07Z</time></trkpt><trkpt lat="46.02166277621614" lon="12.047262175673803"><ele>502.99999999999994</ele><time>2026-05-03T05:43:08Z</time></trkpt><trkpt lat="46.021566647208886" lon="12.047201161008458"><ele>503.0</ele><time>2026-05-03T05:43:09Z</time></trkpt><trkpt lat="46.02145710978019" lon="12.047133243513805"><ele>503.0</ele><time>2026-05-03T05:43:10Z</time></trkpt><trkpt lat="46.02133451818173" lon="12.047080915106855"><ele>502.5</ele><time>2026-05-03T05:43:11Z</time></trkpt><trkpt lat="46.02121403459449" lon="12.047006426316036"><ele>502.0</ele><time>2026-05-03T05:43:12Z</time></trkpt><trkpt lat="46.021082220714284" lon="12.046933134196195"><ele>501.5</ele><time>2026-05-03T05:43:13Z</time></trkpt><trkpt lat="46.02094744786631" lon="12.04685319177612"><ele>501.0</ele><time>2026-05-03T05:43:14Z</time></trkpt><trkpt lat="46.020823597283226" lon="12.04677941007662"><ele>502.8</ele><time>2026-05-03T05:43:15Z</time></trkpt><trkpt lat="46.020704676979804" lon="12.04672334221178"><ele>504.6</ele><time>2026-05-03T05:43:16Z</time></trkpt><trkpt lat="46.02059830492904" lon="12.046655475300403"><ele>506.4</ele><time>2026-05-03T05:43:17Z</time></trkpt><trkpt lat="46.02050456296517" lon="12.046591070278279"><ele>508.2</ele><time>2026-05-03T05:43:18Z</time></trkpt><trkpt lat="46.02041396300303" lon="12.046536438101356"><ele>510.0</ele><time>2026-05-03T05:43:19Z</time></trkpt><trkpt lat="46.02033366168929" lon="12.046490694519445"><ele>510.0</ele><time>2026-05-03T05:43:20Z</time></trkpt><trkpt lat="46.02027121938777" lon="12.046410415025933"><ele>510.0</ele><time>2026-05-03T05:43:21Z</time></trkpt><trkpt lat="46.020213452499675" lon="12.04634070818845"><ele>510.0</ele><time>2026-05-03T05:43:22Z</time></trkpt><trkpt lat="46.02016676449114" lon="12.046278287411662"><ele>510.0</ele><time>2026-05-03T05:43:23Z</time></trkpt><trkpt lat="46.020099247241525" lon="12.046183412643455"><ele>510.0</ele><time>2026-05-03T05:43:24Z</time></trkpt><trkpt lat="46.02002273553605" lon="12.046080063928365"><ele>510.0</ele><time>2026-05-03T05:43:25Z</time></trkpt><trkpt lat="46.019938261184876" lon="12.045977640317373"><ele>510.0</ele><time>2026-05-03T05:43:26Z</time></trkpt><trkpt lat="46.01985241262709" lon="12.045875317420688"><ele>510.0</ele><time>2026-05-03T05:43:27Z</time></trkpt><trkpt lat="46.01975984974535" lon="12.045797566118695"><ele>510.0</ele><time>2026-05-03T05:43:28Z</time></trkpt><trkpt lat="46.01968793184309" lon="12.045692519024124"><ele>510.0</ele><time>2026-05-03T05:43:29Z</time></trkpt><trkpt lat="46.01960812811995" lon="12.04561649471574"><ele>510.0</ele><time>2026-05-03T05:43:30Z</time></trkpt><trkpt lat="46.019509925762215" lon="12.045537349323089"><ele>510.0</ele><time>2026-05-03T05:43:31Z</time></trkpt><trkpt lat="46.0194013186143" lon="12.045483229278796"><ele>510.0</ele><time>2026-05-03T05:43:32Z</time></trkpt><trkpt lat="46.019306596927265" lon="12.045441854953438"><ele>510.0</ele><time>2026-05-03T05:43:33Z</time></trkpt><trkpt lat="46.01922172505362" lon="12.045402326160994"><ele>510.0</ele><time>2026-05-03T05:43:34Z</time></trkpt><trkpt lat="46.0191440729095" lon="12.045354754237477"><ele>510.0</ele><time>2026-05-03T05:43:35Z</time></trkpt><trkpt lat="46.019078510582005" lon="12.045299604479526"><ele>508.5</ele><time>2026-05-03T05:43:36Z</time></trkpt><trkpt lat="46.01902049090262" lon="12.045242439750579"><ele>507.0</ele><time>2026-05-03T05:43:37Z</time></trkpt><trkpt lat="46.01896497183736" lon="12.045136840377536"><ele>505.5</ele><time>2026-05-03T05:43:38Z</time></trkpt><trkpt lat="46.01891463751702" lon="12.045040153317956"><ele>504.0</ele><time>2026-05-03T05:43:39Z</time></trkpt><trkpt lat="46.018876718645295" lon="12.044943337867618"><ele>502.5</ele><time>2026-05-03T05:43:40Z</time></trkpt><trkpt lat="46.018832470221305" lon="12.0448409959751"><ele>501.0</ele><time>2026-05-03T05:43:41Z</time></trkpt><trkpt lat="46.01877729544273" lon="12.04476351299029"><ele>501.0</ele><time>2026-05-03T05:43:42Z</time></trkpt><trkpt lat="46.01871275773986" lon="12.04470213201959"><ele>501.0</ele><time>2026-05-03T05:43:43Z</time></trkpt><trkpt lat="46.018644935296045" lon="12.044654156466066"><ele>501.0</ele><time>2026-05-03T05:43:44Z</time></trkpt><trkpt lat="46.018569158627024" lon="12.0446211558441"><ele>501.0</ele><time>2026-05-03T05:43:45Z</time></trkpt><trkpt lat="46.0184930182741" lon="12.044595393387644"><ele>501.0</ele><time>2026-05-03T05:43:46Z</time></trkpt><trkpt lat="46.01842731833115" lon="12.044555072165588"><ele>501.0</ele><time>2026-05-03T05:43:47Z</time></trkpt><trkpt lat="46.01836036634417" lon="12.044511454163835"><ele>498.14285714285717</ele><time>2026-05-03T05:43:48Z</time></trkpt><trkpt lat="46.01830517174924" lon="12.044446513407593"><ele>495.2857142857142</ele><time>2026-05-03T05:43:49Z</time></trkpt><trkpt lat="46.01826401670125" lon="12.044366024326408"><ele>492.4285714285714</ele><time>2026-05-03T05:43:50Z</time></trkpt><trkpt lat="46.01824293947783" lon="12.044268879284703"><ele>489.57142857142856</ele><time>2026-05-03T05:43:51Z</time></trkpt><trkpt lat="46.01822589905102" lon="12.044163174126673"><ele>486.71428571428567</ele><time>2026-05-03T05:43:52Z</time></trkpt><trkpt lat="46.01820587625853" lon="12.044056775035655"><ele>483.8571428571428</ele><time>2026-05-03T05:43:53Z</time></trkpt><trkpt lat="46.01817276966171" lon="12.043949311796798"><ele>480.99999999999994</ele><time>2026-05-03T05:43:54Z</time></trkpt><trkpt lat="46.018140638317874" lon="12.043835674563029"><ele>489.50000000000006</ele><time>2026-05-03T05:43:55Z</time></trkpt><trkpt lat="46.01811242575445" lon="12.043730496068623"><ele>498.0</ele><time>2026-05-03T05:43:56Z</time></trkpt><trkpt lat="46.018086554704716" lon="12.04362787990214"><ele>506.5</ele><time>2026-05-03T05:43:57Z</time></trkpt><trkpt lat="46.01806030407846" lon="12.043536846705896"><ele>515.0</ele><time>2026-05-03T05:43:58Z</time></trkpt><trkpt lat="46.01801245301059" lon="12.043467364739032"><ele>523.5</ele><time>2026-05-03T05:43:59Z</time></trkpt><trkpt lat="46.017899386078106" lon="12.043485233009422"><ele>532.0</ele><time>2026-05-03T05:44:01Z</time></trkpt><trkpt lat="46.017829922587666" lon="12.043538906128441"><ele>532.0</ele><time>2026-05-03T05:44:02Z</time></trkpt><trkpt lat="46.01776683637626" lon="12.043615858088453"><ele>532.0</ele><time>2026-05-03T05:44:03Z</time></trkpt><trkpt lat="46.0177114504523" lon="12.043677143252157"><ele>532.0</ele><time>2026-05-03T05:44:04Z</time></trkpt><trkpt lat="46.017652671099654" lon="12.043737500128435"><ele>532.0</ele><time>2026-05-03T05:44:05Z</time></trkpt><trkpt lat="46.0175452256569" lon="12.04381239216695"><ele>532.0</ele><time>2026-05-03T05:44:07Z</time></trkpt><trkpt lat="46.01748180430838" lon="12.043832155355519"><ele>532.0</ele><time>2026-05-03T05:44:08Z</time></trkpt><trkpt lat="46.017405541976395" lon="12.043846535140258"><ele>534.0</ele><time>2026-05-03T05:44:09Z</time></trkpt><trkpt lat="46.01731660180467" lon="12.043872674597976"><ele>536.0</ele><time>2026-05-03T05:44:10Z</time></trkpt><trkpt lat="46.017217784843545" lon="12.04386916112612"><ele>538.0</ele><time>2026-05-03T05:44:11Z</time></trkpt><trkpt lat="46.01712062463937" lon="12.043881162699963"><ele>540.0</ele><time>2026-05-03T05:44:12Z</time></trkpt><trkpt lat="46.01700979612312" lon="12.043907624746529"><ele>542.0</ele><time>2026-05-03T05:44:13Z</time></trkpt><trkpt lat="46.01693033786389" lon="12.043929208160119"><ele>542.0</ele><time>2026-05-03T05:44:14Z</time></trkpt><trkpt lat="46.0168576815781" lon="12.043948943966072"><ele>542.0</ele><time>2026-05-03T05:44:15Z</time></trkpt><trkpt lat="46.01677988834232" lon="12.043958373999207"><ele>542.0</ele><time>2026-05-03T05:44:16Z</time></trkpt><trkpt lat="46.01669781385133" lon="12.043956415404129"><ele>542.0</ele><time>2026-05-03T05:44:17Z</time></trkpt><trkpt lat="46.0166016518829" lon="12.043941931913656"><ele>542.0</ele><time>2026-05-03T05:44:17.999Z</time></trkpt><trkpt lat="46.01648846982928" lon="12.043922320509216"><ele>542.0</ele><time>2026-05-03T05:44:18.999Z</time></trkpt><trkpt lat="46.01638554086028" lon="12.04390865166132"><ele>539.75</ele><time>2026-05-03T05:44:19.999Z</time></trkpt><trkpt lat="46.01627327496343" lon="12.043907468596974"><ele>537.5</ele><time>2026-05-03T05:44:20.999Z</time></trkpt><trkpt lat="46.01615365137869" lon="12.04389398252832"><ele>535.25</ele><time>2026-05-03T05:44:21.999Z</time></trkpt><trkpt lat="46.01603703707785" lon="12.04388314056972"><ele>533.0</ele><time>2026-05-03T05:44:22.999Z</time></trkpt><trkpt lat="46.01591731218807" lon="12.043884145231974"><ele>531.8</ele><time>2026-05-03T05:44:23.999Z</time></trkpt><trkpt lat="46.01581046066028" lon="12.043871453738161"><ele>530.5999999999999</ele><time>2026-05-03T05:44:24.999Z</time></trkpt><trkpt lat="46.01569957351839" lon="12.043870968861313"><ele>529.4000000000001</ele><time>2026-05-03T05:44:25.999Z</time></trkpt><trkpt lat="46.01558157942357" lon="12.043846241253576"><ele>528.2</ele><time>2026-05-03T05:44:26.999Z</time></trkpt><trkpt lat="46.015477217079855" lon="12.043841782273578"><ele>527.0</ele><time>2026-05-03T05:44:27.999Z</time></trkpt><trkpt lat="46.01537707726914" lon="12.043838414918524"><ele>527.0</ele><time>2026-05-03T05:44:28.999Z</time></trkpt><trkpt lat="46.01527716771288" lon="12.043835054888076"><ele>527.0</ele><time>2026-05-03T05:44:29.999Z</time></trkpt><trkpt lat="46.01519458714377" lon="12.043831003321332"><ele>527.0</ele><time>2026-05-03T05:44:30.999Z</time></trkpt><trkpt lat="46.01512471776311" lon="12.043824808627397"><ele>527.0</ele><time>2026-05-03T05:44:31.999Z</time></trkpt><trkpt lat="46.01505229316026" lon="12.043841517837002"><ele>527.0</ele><time>2026-05-03T05:44:32.999Z</time></trkpt><trkpt lat="46.01498417433933" lon="12.043820700812624"><ele>527.0</ele><time>2026-05-03T05:44:33.999Z</time></trkpt><trkpt lat="46.01492870566244" lon="12.043764166935528"><ele>526.2857142857143</ele><time>2026-05-03T05:44:34.999Z</time></trkpt><trkpt lat="46.014873096158134" lon="12.043700123034315"><ele>525.5714285714286</ele><time>2026-05-03T05:44:35.999Z</time></trkpt><trkpt lat="46.01480844536418" lon="12.043642276803503"><ele>524.8571428571429</ele><time>2026-05-03T05:44:36.999Z</time></trkpt><trkpt lat="46.01475076337858" lon="12.043595213028855"><ele>524.1428571428571</ele><time>2026-05-03T05:44:37.999Z</time></trkpt><trkpt lat="46.01468639403519" lon="12.043593432476879"><ele>523.4285714285714</ele><time>2026-05-03T05:44:38.999Z</time></trkpt><trkpt lat="46.01460749337883" lon="12.043604401307373"><ele>522.7142857142858</ele><time>2026-05-03T05:44:39.999Z</time></trkpt><trkpt lat="46.01452460042045" lon="12.043599820756176"><ele>522.0</ele><time>2026-05-03T05:44:40.999Z</time></trkpt><trkpt lat="46.01445132525126" lon="12.043639750112796"><ele>522.0</ele><time>2026-05-03T05:44:41.999Z</time></trkpt><trkpt lat="46.014374865209845" lon="12.04363874890817"><ele>522.0</ele><time>2026-05-03T05:44:42.999Z</time></trkpt><trkpt lat="46.01430038170046" lon="12.043629849429271"><ele>522.0</ele><time>2026-05-03T05:44:43.999Z</time></trkpt><trkpt lat="46.01423084847418" lon="12.043572833937773"><ele>522.0</ele><time>2026-05-03T05:44:44.999Z</time></trkpt><trkpt lat="46.014149376627294" lon="12.043528763773093"><ele>522.0</ele><time>2026-05-03T05:44:45.999Z</time></trkpt><trkpt lat="46.014070794071074" lon="12.043483902899167"><ele>522.0</ele><time>2026-05-03T05:44:46.999Z</time></trkpt><trkpt lat="46.01399778781887" lon="12.043438091717405"><ele>524.0</ele><time>2026-05-03T05:44:47.999Z</time></trkpt><trkpt lat="46.01389050901579" lon="12.043365936366872"><ele>526.0</ele><time>2026-05-03T05:44:50Z</time></trkpt><trkpt lat="46.01384041182622" lon="12.043286178416787"><ele>528.0</ele><time>2026-05-03T05:44:52Z</time></trkpt><trkpt lat="46.01380808098305" lon="12.04312455070824"><ele>530.0</ele><time>2026-05-03T05:44:54Z</time></trkpt><trkpt lat="46.01375741657102" lon="12.043035508971405"><ele>532.0</ele><time>2026-05-03T05:44:55Z</time></trkpt><trkpt lat="46.01370347255706" lon="12.04293977899808"><ele>532.0</ele><time>2026-05-03T05:44:56Z</time></trkpt><trkpt lat="46.013650671325465" lon="12.042851181749448"><ele>532.0</ele><time>2026-05-03T05:44:57Z</time></trkpt><trkpt lat="46.01360724702121" lon="12.042777529261576"><ele>532.0</ele><time>2026-05-03T05:44:58Z</time></trkpt><trkpt lat="46.01352386108222" lon="12.042646779290376"><ele>532.0</ele><time>2026-05-03T05:45:00Z</time></trkpt><trkpt lat="46.013470661223806" lon="12.042587077282118"><ele>532.0</ele><time>2026-05-03T05:45:01Z</time></trkpt><trkpt lat="46.013430805921494" lon="12.042498215672317"><ele>532.0</ele><time>2026-05-03T05:45:02Z</time></trkpt><trkpt lat="46.013344455218586" lon="12.04246844264431"><ele>531.1666666666667</ele><time>2026-05-03T05:45:03Z</time></trkpt><trkpt lat="46.013261492490216" lon="12.042476512949689"><ele>530.3333333333334</ele><time>2026-05-03T05:45:04Z</time></trkpt><trkpt lat="46.01318923950638" lon="12.042476512952366"><ele>529.5</ele><time>2026-05-03T05:45:05Z</time></trkpt><trkpt lat="46.01309108548577" lon="12.042468570375858"><ele>528.6666666666666</ele><time>2026-05-03T05:45:07Z</time></trkpt><trkpt lat="46.01301830199808" lon="12.042486109618745"><ele>527.8333333333333</ele><time>2026-05-03T05:45:08Z</time></trkpt><trkpt lat="46.01294800306009" lon="12.042431436641639"><ele>527.0</ele><time>2026-05-03T05:45:09Z</time></trkpt><trkpt lat="46.01287309127258" lon="12.042361102250355"><ele>527.0</ele><time>2026-05-03T05:45:10Z</time></trkpt><trkpt lat="46.0128002258008" lon="12.042279838968904"><ele>527.0</ele><time>2026-05-03T05:45:11Z</time></trkpt><trkpt lat="46.012728245764" lon="12.04219578147544"><ele>527.0</ele><time>2026-05-03T05:45:12Z</time></trkpt><trkpt lat="46.01269901934661" lon="12.04204886251893"><ele>527.0</ele><time>2026-05-03T05:45:13Z</time></trkpt><trkpt lat="46.012650756210164" lon="12.041955491562993"><ele>527.0</ele><time>2026-05-03T05:45:14Z</time></trkpt><trkpt lat="46.0125957656028" lon="12.041848808414024"><ele>527.0</ele><time>2026-05-03T05:45:15Z</time></trkpt><trkpt lat="46.012543451145035" lon="12.041746459816942"><ele>527.0</ele><time>2026-05-03T05:45:16Z</time></trkpt><trkpt lat="46.012497892277665" lon="12.041658542543855"><ele>527.0</ele><time>2026-05-03T05:45:17Z</time></trkpt><trkpt lat="46.01245173604928" lon="12.04158976514238"><ele>527.0</ele><time>2026-05-03T05:45:18Z</time></trkpt><trkpt lat="46.01238975189149" lon="12.041507992418692"><ele>527.0</ele><time>2026-05-03T05:45:20Z</time></trkpt><trkpt lat="46.01237452994959" lon="12.041350305389125"><ele>527.0</ele><time>2026-05-03T05:45:23Z</time></trkpt><trkpt lat="46.01237134357744" lon="12.041256152918576"><ele>529.2</ele><time>2026-05-03T05:45:24Z</time></trkpt><trkpt lat="46.01234267691261" lon="12.041164773071905"><ele>531.4000000000001</ele><time>2026-05-03T05:45:25Z</time></trkpt><trkpt lat="46.01229090656374" lon="12.04101827337747"><ele>533.5999999999999</ele><time>2026-05-03T05:45:27Z</time></trkpt><trkpt lat="46.01224494920768" lon="12.040917895183565"><ele>535.8</ele><time>2026-05-03T05:45:28Z</time></trkpt><trkpt lat="46.012198664835765" lon="12.040808858101167"><ele>538.0</ele><time>2026-05-03T05:45:29Z</time></trkpt><trkpt lat="46.01214748931943" lon="12.04068780128302"><ele>538.0</ele><time>2026-05-03T05:45:30Z</time></trkpt><trkpt lat="46.01209073887758" lon="12.040571193552116"><ele>538.0</ele><time>2026-05-03T05:45:31Z</time></trkpt><trkpt lat="46.01203138744597" lon="12.040449191037125"><ele>538.0</ele><time>2026-05-03T05:45:32Z</time></trkpt><trkpt lat="46.011977091969" lon="12.040338205034248"><ele>538.0</ele><time>2026-05-03T05:45:33Z</time></trkpt><trkpt lat="46.011919324240765" lon="12.040216953981531"><ele>538.0</ele><time>2026-05-03T05:45:34Z</time></trkpt><trkpt lat="46.01185921916407" lon="12.04010787998542"><ele>538.0</ele><time>2026-05-03T05:45:35Z</time></trkpt><trkpt lat="46.01178880025697" lon="12.039993772192517"><ele>538.0</ele><time>2026-05-03T05:45:36Z</time></trkpt><trkpt lat="46.011722999511925" lon="12.039878221901091"><ele>538.0</ele><time>2026-05-03T05:45:37Z</time></trkpt><trkpt lat="46.011662774517816" lon="12.039768562204104"><ele>538.0</ele><time>2026-05-03T05:45:38Z</time></trkpt><trkpt lat="46.01160108550558" lon="12.03966257068299"><ele>538.0</ele><time>2026-05-03T05:45:39Z</time></trkpt><trkpt lat="46.011544111533915" lon="12.039551059850497"><ele>536.1666666666667</ele><time>2026-05-03T05:45:40Z</time></trkpt><trkpt lat="46.01149308600233" lon="12.039452335658813"><ele>534.3333333333334</ele><time>2026-05-03T05:45:41Z</time></trkpt><trkpt lat="46.01145505155498" lon="12.039356686520266"><ele>532.5</ele><time>2026-05-03T05:45:42Z</time></trkpt><trkpt lat="46.01140939173802" lon="12.039252946483677"><ele>530.6666666666666</ele><time>2026-05-03T05:45:43Z</time></trkpt><trkpt lat="46.011339199197764" lon="12.039163026271982"><ele>528.8333333333333</ele><time>2026-05-03T05:45:44Z</time></trkpt><trkpt lat="46.0112740462649" lon="12.039070255735547"><ele>527.0</ele><time>2026-05-03T05:45:45Z</time></trkpt><trkpt lat="46.011210380153315" lon="12.038989630130546"><ele>530.6666666666666</ele><time>2026-05-03T05:45:46Z</time></trkpt><trkpt lat="46.011149633385116" lon="12.038920963826905"><ele>534.3333333333333</ele><time>2026-05-03T05:45:47Z</time></trkpt><trkpt lat="46.01108322948536" lon="12.038834209776033"><ele>538.0</ele><time>2026-05-03T05:45:48Z</time></trkpt><trkpt lat="46.01100147994816" lon="12.038768324044053"><ele>541.6666666666666</ele><time>2026-05-03T05:45:49Z</time></trkpt><trkpt lat="46.01095559992432" lon="12.03869196530564"><ele>545.3333333333334</ele><time>2026-05-03T05:45:50Z</time></trkpt><trkpt lat="46.01090411070915" lon="12.038608109190363"><ele>549.0</ele><time>2026-05-03T05:45:51Z</time></trkpt><trkpt lat="46.01087069201885" lon="12.038529709224138"><ele>542.7142857142857</ele><time>2026-05-03T05:45:52Z</time></trkpt><trkpt lat="46.01082319821292" lon="12.038453747189921"><ele>536.4285714285714</ele><time>2026-05-03T05:45:53Z</time></trkpt><trkpt lat="46.01078510907326" lon="12.038356120558626"><ele>530.1428571428571</ele><time>2026-05-03T05:45:54Z</time></trkpt><trkpt lat="46.01073126930919" lon="12.038264869470678"><ele>523.8571428571429</ele><time>2026-05-03T05:45:55Z</time></trkpt><trkpt lat="46.010679463152755" lon="12.03817785848363"><ele>517.5714285714286</ele><time>2026-05-03T05:45:56Z</time></trkpt><trkpt lat="46.01063053981622" lon="12.03811530513059"><ele>511.2857142857143</ele><time>2026-05-03T05:45:57Z</time></trkpt><trkpt lat="46.01059958971064" lon="12.038026977173844"><ele>505.0</ele><time>2026-05-03T05:45:58Z</time></trkpt><trkpt lat="46.01056477117616" lon="12.037938291574045"><ele>505.00000000000006</ele><time>2026-05-03T05:45:59Z</time></trkpt><trkpt lat="46.01053423074403" lon="12.037852290113253"><ele>505.0</ele><time>2026-05-03T05:46:00Z</time></trkpt><trkpt lat="46.010509446469605" lon="12.037694593107753"><ele>505.0</ele><time>2026-05-03T05:46:02Z</time></trkpt><trkpt lat="46.01051989828639" lon="12.037516798391891"><ele>505.0</ele><time>2026-05-03T05:46:04Z</time></trkpt><trkpt lat="46.01053033744779" lon="12.03741299657814"><ele>505.00000000000006</ele><time>2026-05-03T05:46:05Z</time></trkpt><trkpt lat="46.010551169530736" lon="12.037318321541584"><ele>505.0</ele><time>2026-05-03T05:46:06Z</time></trkpt><trkpt lat="46.01061684679307" lon="12.037153519443045"><ele>508.6</ele><time>2026-05-03T05:46:08Z</time></trkpt><trkpt lat="46.01067431827783" lon="12.03704639624491"><ele>512.2</ele><time>2026-05-03T05:46:09Z</time></trkpt><trkpt lat="46.01070133474571" lon="12.0369545780937"><ele>515.8</ele><time>2026-05-03T05:46:10Z</time></trkpt><trkpt lat="46.01076093875155" lon="12.036811638753322"><ele>519.4</ele><time>2026-05-03T05:46:12Z</time></trkpt><trkpt lat="46.01081022345353" lon="12.036668054860021"><ele>523.0</ele><time>2026-05-03T05:46:13Z</time></trkpt><trkpt lat="46.010840941303606" lon="12.036553597115647"><ele>530.1999999999999</ele><time>2026-05-03T05:46:14Z</time></trkpt><trkpt lat="46.01084669429677" lon="12.036451631151504"><ele>537.4</ele><time>2026-05-03T05:46:15Z</time></trkpt><trkpt lat="46.01088447271329" lon="12.036284355117136"><ele>544.5999999999999</ele><time>2026-05-03T05:46:17Z</time></trkpt><trkpt lat="46.01093656070617" lon="12.036136007014456"><ele>551.8</ele><time>2026-05-03T05:46:19Z</time></trkpt><trkpt lat="46.01093893203991" lon="12.036003580793084"><ele>559.0</ele><time>2026-05-03T05:46:21Z</time></trkpt><trkpt lat="46.010914012294435" lon="12.035848552465099"><ele>563.5</ele><time>2026-05-03T05:46:23Z</time></trkpt><trkpt lat="46.010933077159166" lon="12.035729595028869"><ele>568.0</ele><time>2026-05-03T05:46:24.999Z</time></trkpt><trkpt lat="46.0109877966003" lon="12.035666065866122"><ele>572.5</ele><time>2026-05-03T05:46:25.999Z</time></trkpt><trkpt lat="46.01104893700391" lon="12.035634302995884"><ele>577.0</ele><time>2026-05-03T05:46:26.999Z</time></trkpt><trkpt lat="46.01112871791565" lon="12.0355487927621"><ele>581.5</ele><time>2026-05-03T05:46:27.999Z</time></trkpt><trkpt lat="46.01111072502904" lon="12.035436384460604"><ele>586.0</ele><time>2026-05-03T05:46:28.999Z</time></trkpt><trkpt lat="46.0110941564665" lon="12.035211441425488"><ele>586.0</ele><time>2026-05-03T05:46:32.999Z</time></trkpt><trkpt lat="46.01104652992255" lon="12.035141838001968"><ele>586.0</ele><time>2026-05-03T05:46:33.999Z</time></trkpt><trkpt lat="46.01093467252536" lon="12.035105356970087"><ele>586.0</ele><time>2026-05-03T05:46:35.999Z</time></trkpt><trkpt lat="46.01081812236918" lon="12.035144284634887"><ele>586.0</ele><time>2026-05-03T05:46:37.999Z</time></trkpt><trkpt lat="46.01071357581663" lon="12.03520880022483"><ele>586.0</ele><time>2026-05-03T05:46:39.999Z</time></trkpt><trkpt lat="46.01061775456508" lon="12.035279078820027"><ele>590.75</ele><time>2026-05-03T05:46:41.999Z</time></trkpt><trkpt lat="46.010550849481056" lon="12.035339459435452"><ele>595.5</ele><time>2026-05-03T05:46:43.999Z</time></trkpt><trkpt lat="46.01041945231127" lon="12.035451398675624"><ele>600.25</ele><time>2026-05-03T05:46:45.999Z</time></trkpt><trkpt lat="46.01036627395571" lon="12.035533694689958"><ele>605.0</ele><time>2026-05-03T05:46:46.999Z</time></trkpt><trkpt lat="46.010228572946254" lon="12.035637330209859"><ele>605.0</ele><time>2026-05-03T05:46:48.999Z</time></trkpt><trkpt lat="46.01014460477701" lon="12.03563249441632"><ele>605.0</ele><time>2026-05-03T05:46:49.999Z</time></trkpt><trkpt lat="46.01002776595001" lon="12.035722055855569"><ele>605.0</ele><time>2026-05-03T05:46:51.999Z</time></trkpt><trkpt lat="46.009936747031" lon="12.035779610641068"><ele>605.0</ele><time>2026-05-03T05:46:53.999Z</time></trkpt><trkpt lat="46.00980722815791" lon="12.035781553731933"><ele>605.0</ele><time>2026-05-03T05:46:56Z</time></trkpt><trkpt lat="46.00972676839991" lon="12.035797308596463"><ele>598.6666666666666</ele><time>2026-05-03T05:46:57Z</time></trkpt><trkpt lat="46.009637217259275" lon="12.03580547459494"><ele>592.3333333333333</ele><time>2026-05-03T05:46:58Z</time></trkpt><trkpt lat="46.00954525445653" lon="12.03584410090651"><ele>586.0</ele><time>2026-05-03T05:46:59Z</time></trkpt><trkpt lat="46.00945492106073" lon="12.035880827227118"><ele>579.6666666666666</ele><time>2026-05-03T05:47:00Z</time></trkpt><trkpt lat="46.0093845705007" lon="12.035891040523113"><ele>573.3333333333334</ele><time>2026-05-03T05:47:01Z</time></trkpt><trkpt lat="46.009287080892506" lon="12.035883244014855"><ele>567.0</ele><time>2026-05-03T05:47:03Z</time></trkpt><trkpt lat="46.0092193972696" lon="12.035875894776035"><ele>567.1666666666666</ele><time>2026-05-03T05:47:04Z</time></trkpt><trkpt lat="46.00915192178861" lon="12.035801901884504"><ele>567.3333333333334</ele><time>2026-05-03T05:47:05Z</time></trkpt><trkpt lat="46.00907418013894" lon="12.03576141817097"><ele>567.5</ele><time>2026-05-03T05:47:06Z</time></trkpt><trkpt lat="46.008972933199864" lon="12.035725455791503"><ele>567.6666666666667</ele><time>2026-05-03T05:47:07Z</time></trkpt><trkpt lat="46.00889317046309" lon="12.03567619789323"><ele>567.8333333333334</ele><time>2026-05-03T05:47:08Z</time></trkpt><trkpt lat="46.00882600105292" lon="12.035661909095023"><ele>568.0</ele><time>2026-05-03T05:47:09Z</time></trkpt><trkpt lat="46.00872543415072" lon="12.035622496444434"><ele>568.0</ele><time>2026-05-03T05:47:11Z</time></trkpt><trkpt lat="46.008661770575635" lon="12.035515760543765"><ele>568.0</ele><time>2026-05-03T05:47:13Z</time></trkpt><trkpt lat="46.00862561570694" lon="12.035436950151825"><ele>568.0</ele><time>2026-05-03T05:47:14Z</time></trkpt><trkpt lat="46.00859053081505" lon="12.035358411352439"><ele>568.0</ele><time>2026-05-03T05:47:15Z</time></trkpt><trkpt lat="46.00855875712582" lon="12.035278375424655"><ele>568.0</ele><time>2026-05-03T05:47:16Z</time></trkpt><trkpt lat="46.008518194519056" lon="12.035186002055877"><ele>568.0</ele><time>2026-05-03T05:47:18Z</time></trkpt><trkpt lat="46.00850432219647" lon="12.034960628064722"><ele>573.3333333333334</ele><time>2026-05-03T05:47:20Z</time></trkpt><trkpt lat="46.00846228651514" lon="12.034840461030976"><ele>578.6666666666667</ele><time>2026-05-03T05:47:22Z</time></trkpt><trkpt lat="46.00841770719039" lon="12.03477200278782"><ele>584.0</ele><time>2026-05-03T05:47:24Z</time></trkpt><trkpt lat="46.008347987385775" lon="12.034679599037835"><ele>589.3333333333334</ele><time>2026-05-03T05:47:25Z</time></trkpt><trkpt lat="46.00826307428572" lon="12.03461419205768"><ele>594.6666666666666</ele><time>2026-05-03T05:47:26Z</time></trkpt><trkpt lat="46.00817575644972" lon="12.034592701129188"><ele>600.0</ele><time>2026-05-03T05:47:27Z</time></trkpt><trkpt lat="46.00810029175118" lon="12.03458200673248"><ele>602.0</ele><time>2026-05-03T05:47:28Z</time></trkpt><trkpt lat="46.00802508601019" lon="12.034597460444528"><ele>604.0</ele><time>2026-05-03T05:47:29Z</time></trkpt><trkpt lat="46.00795478344166" lon="12.03468844266649"><ele>606.0</ele><time>2026-05-03T05:47:30Z</time></trkpt><trkpt lat="46.00794481678684" lon="12.034870619162655"><ele>608.0</ele><time>2026-05-03T05:47:31Z</time></trkpt><trkpt lat="46.00789032129706" lon="12.034965639636534"><ele>610.0</ele><time>2026-05-03T05:47:32Z</time></trkpt><trkpt lat="46.007757071015625" lon="12.03496439111864"><ele>601.8</ele><time>2026-05-03T05:47:33Z</time></trkpt><trkpt lat="46.00770077254301" lon="12.035036931457762"><ele>593.6</ele><time>2026-05-03T05:47:34Z</time></trkpt><trkpt lat="46.00767614028847" lon="12.03514013773814"><ele>585.4</ele><time>2026-05-03T05:47:36Z</time></trkpt><trkpt lat="46.00759122247433" lon="12.035198982290016"><ele>577.2</ele><time>2026-05-03T05:47:38Z</time></trkpt><trkpt lat="46.00749511415991" lon="12.035206583270547"><ele>569.0</ele><time>2026-05-03T05:47:40Z</time></trkpt><trkpt lat="46.00738134652096" lon="12.035209202849114"><ele>569.0</ele><time>2026-05-03T05:47:42Z</time></trkpt><trkpt lat="46.00726258763214" lon="12.035182788937735"><ele>569.0</ele><time>2026-05-03T05:47:44Z</time></trkpt><trkpt lat="46.00716705663433" lon="12.035191365230238"><ele>569.0</ele><time>2026-05-03T05:47:46Z</time></trkpt><trkpt lat="46.00705887330173" lon="12.035260728714286"><ele>569.0</ele><time>2026-05-03T05:47:48Z</time></trkpt><trkpt lat="46.006979023837864" lon="12.035245249645072"><ele>569.0</ele><time>2026-05-03T05:47:50Z</time></trkpt><trkpt lat="46.006915934328546" lon="12.03511854190632"><ele>569.0</ele><time>2026-05-03T05:47:52Z</time></trkpt><trkpt lat="46.00682229572066" lon="12.035019519994403"><ele>569.0</ele><time>2026-05-03T05:47:54Z</time></trkpt><trkpt lat="46.00676889604263" lon="12.034935059522933"><ele>569.0</ele><time>2026-05-03T05:47:55Z</time></trkpt><trkpt lat="46.006680065175374" lon="12.03493933312318"><ele>569.0</ele><time>2026-05-03T05:47:56Z</time></trkpt><trkpt lat="46.006627550495" lon="12.034860468609024"><ele>569.0</ele><time>2026-05-03T05:47:57Z</time></trkpt><trkpt lat="46.00657740951533" lon="12.034796296797506"><ele>569.0</ele><time>2026-05-03T05:47:58Z</time></trkpt><trkpt lat="46.006486546685366" lon="12.03471160849251"><ele>574.5</ele><time>2026-05-03T05:48:00Z</time></trkpt><trkpt lat="46.00640523902518" lon="12.0346814483459"><ele>580.0</ele><time>2026-05-03T05:48:01Z</time></trkpt><trkpt lat="46.00633892002832" lon="12.034674020278239"><ele>585.5</ele><time>2026-05-03T05:48:02Z</time></trkpt><trkpt lat="46.006268539798164" lon="12.03466784684623"><ele>591.0</ele><time>2026-05-03T05:48:03Z</time></trkpt><trkpt lat="46.0061886947743" lon="12.03465715758223"><ele>596.5</ele><time>2026-05-03T05:48:05Z</time></trkpt><trkpt lat="46.00606794138541" lon="12.034636079099984"><ele>602.0</ele><time>2026-05-03T05:48:07Z</time></trkpt><trkpt lat="46.00597847704393" lon="12.034589263324667"><ele>602.0</ele><time>2026-05-03T05:48:09Z</time></trkpt><trkpt lat="46.005919792780496" lon="12.03454052217908"><ele>602.0</ele><time>2026-05-03T05:48:10Z</time></trkpt><trkpt lat="46.0058219230146" lon="12.034465969819033"><ele>602.0</ele><time>2026-05-03T05:48:11Z</time></trkpt><trkpt lat="46.00573413692041" lon="12.034425181337763"><ele>602.0</ele><time>2026-05-03T05:48:12Z</time></trkpt><trkpt lat="46.00560717229463" lon="12.034412027168647"><ele>602.0</ele><time>2026-05-03T05:48:13Z</time></trkpt><trkpt lat="46.00549623612562" lon="12.034410547083946"><ele>599.2</ele><time>2026-05-03T05:48:14Z</time></trkpt><trkpt lat="46.005427309761316" lon="12.03440644063021"><ele>596.4000000000001</ele><time>2026-05-03T05:48:15Z</time></trkpt><trkpt lat="46.005297983126816" lon="12.03437766218357"><ele>593.5999999999999</ele><time>2026-05-03T05:48:17Z</time></trkpt><trkpt lat="46.00519664052569" lon="12.034302243166396"><ele>590.8</ele><time>2026-05-03T05:48:19Z</time></trkpt><trkpt lat="46.005145992624605" lon="12.034236711698085"><ele>588.0</ele><time>2026-05-03T05:48:20Z</time></trkpt><trkpt lat="46.00506990985456" lon="12.034160942552278"><ele>594.0</ele><time>2026-05-03T05:48:21Z</time></trkpt><trkpt lat="46.005021921769455" lon="12.034061205427902"><ele>600.0</ele><time>2026-05-03T05:48:23Z</time></trkpt><trkpt lat="46.00495854974187" lon="12.03398225431604"><ele>606.0</ele><time>2026-05-03T05:48:24Z</time></trkpt><trkpt lat="46.00490810554168" lon="12.033889410175622"><ele>612.0</ele><time>2026-05-03T05:48:25Z</time></trkpt><trkpt lat="46.00485086377776" lon="12.03380715292187"><ele>618.0</ele><time>2026-05-03T05:48:26Z</time></trkpt><trkpt lat="46.00480038972393" lon="12.033674839875506"><ele>624.0</ele><time>2026-05-03T05:48:28Z</time></trkpt><trkpt lat="46.00479789191652" lon="12.033499882656509"><ele>624.2</ele><time>2026-05-03T05:48:30Z</time></trkpt><trkpt lat="46.00479217011504" lon="12.033324383714332"><ele>624.4</ele><time>2026-05-03T05:48:32Z</time></trkpt><trkpt lat="46.004764331039375" lon="12.033220660866897"><ele>624.6</ele><time>2026-05-03T05:48:33Z</time></trkpt><trkpt lat="46.00473369576069" lon="12.033102372313742"><ele>624.8</ele><time>2026-05-03T05:48:34.999Z</time></trkpt><trkpt lat="46.004657428173864" lon="12.033033141659068"><ele>625.0</ele><time>2026-05-03T05:48:37.999Z</time></trkpt><trkpt lat="46.00457114336663" lon="12.033024617364202"><ele>625.0</ele><time>2026-05-03T05:48:38.999Z</time></trkpt><trkpt lat="46.00446096869191" lon="12.03320077381681"><ele>625.0</ele><time>2026-05-03T05:48:40.999Z</time></trkpt><trkpt lat="46.00438696450121" lon="12.033259681788351"><ele>625.0</ele><time>2026-05-03T05:48:41.999Z</time></trkpt><trkpt lat="46.00431175074014" lon="12.033390459574203"><ele>625.0</ele><time>2026-05-03T05:48:43.999Z</time></trkpt><trkpt lat="46.00426152949879" lon="12.033541430980547"><ele>625.0</ele><time>2026-05-03T05:48:45.999Z</time></trkpt><trkpt lat="46.00421881415618" lon="12.033702715491135"><ele>625.0</ele><time>2026-05-03T05:48:47.999Z</time></trkpt><trkpt lat="46.00416777117903" lon="12.033758264679744"><ele>625.0</ele><time>2026-05-03T05:48:48.999Z</time></trkpt><trkpt lat="46.00407187736375" lon="12.03386530721299"><ele>625.0</ele><time>2026-05-03T05:48:50.999Z</time></trkpt><trkpt lat="46.00396681012755" lon="12.033923679244886"><ele>625.0</ele><time>2026-05-03T05:48:52.999Z</time></trkpt><trkpt lat="46.00390534861885" lon="12.03396095046769"><ele>623.5</ele><time>2026-05-03T05:48:53.999Z</time></trkpt><trkpt lat="46.00376786898887" lon="12.03402348841408"><ele>622.0</ele><time>2026-05-03T05:48:55.999Z</time></trkpt><trkpt lat="46.00369012991217" lon="12.0340786243404"><ele>620.5</ele><time>2026-05-03T05:48:56.999Z</time></trkpt><trkpt lat="46.003630344556285" lon="12.034125761455401"><ele>619.0</ele><time>2026-05-03T05:48:57.999Z</time></trkpt><trkpt lat="46.00356360167912" lon="12.034187801386794"><ele>617.5</ele><time>2026-05-03T05:48:58.999Z</time></trkpt><trkpt lat="46.00350398515294" lon="12.034239005814552"><ele>616.0</ele><time>2026-05-03T05:48:59.999Z</time></trkpt><trkpt lat="46.003423335134826" lon="12.034224369560398"><ele>615.4</ele><time>2026-05-03T05:49:02Z</time></trkpt><trkpt lat="46.0032867017791" lon="12.034174341168097"><ele>614.8</ele><time>2026-05-03T05:49:04Z</time></trkpt><trkpt lat="46.003202376677436" lon="12.034154038342754"><ele>614.1999999999999</ele><time>2026-05-03T05:49:05Z</time></trkpt><trkpt lat="46.00310671760456" lon="12.034146709697504"><ele>613.6</ele><time>2026-05-03T05:49:06Z</time></trkpt><trkpt lat="46.00302051387068" lon="12.034136953953873"><ele>613.0</ele><time>2026-05-03T05:49:07Z</time></trkpt><trkpt lat="46.002934656523124" lon="12.03412972772576"><ele>611.1666666666667</ele><time>2026-05-03T05:49:08Z</time></trkpt><trkpt lat="46.00284695386247" lon="12.034124098155793"><ele>609.3333333333334</ele><time>2026-05-03T05:49:09Z</time></trkpt><trkpt lat="46.00276497895804" lon="12.034108174240817"><ele>607.5</ele><time>2026-05-03T05:49:10Z</time></trkpt><trkpt lat="46.0026873260576" lon="12.034089592417772"><ele>605.6666666666666</ele><time>2026-05-03T05:49:11Z</time></trkpt><trkpt lat="46.00261130855469" lon="12.034071799998546"><ele>603.8333333333333</ele><time>2026-05-03T05:49:12Z</time></trkpt><trkpt lat="46.00253979109948" lon="12.03404221984276"><ele>602.0</ele><time>2026-05-03T05:49:13Z</time></trkpt><trkpt lat="46.00247321223978" lon="12.034020133616853"><ele>602.0</ele><time>2026-05-03T05:49:14Z</time></trkpt><trkpt lat="46.00240392384096" lon="12.03400926944256"><ele>602.0</ele><time>2026-05-03T05:49:15Z</time></trkpt><trkpt lat="46.002337804217795" lon="12.034014851326472"><ele>602.0</ele><time>2026-05-03T05:49:16Z</time></trkpt><trkpt lat="46.002243633113004" lon="12.034006331554563"><ele>602.0</ele><time>2026-05-03T05:49:18Z</time></trkpt><trkpt lat="46.002191706341016" lon="12.033882252563838"><ele>602.0</ele><time>2026-05-03T05:49:20Z</time></trkpt><trkpt lat="46.00215610724975" lon="12.033711146371731"><ele>602.0</ele><time>2026-05-03T05:49:22Z</time></trkpt><trkpt lat="46.002139498720354" lon="12.033623532973882"><ele>602.0</ele><time>2026-05-03T05:49:23Z</time></trkpt><trkpt lat="46.00208430265107" lon="12.03348759373212"><ele>602.0</ele><time>2026-05-03T05:49:25Z</time></trkpt><trkpt lat="46.002016821109386" lon="12.033345280071794"><ele>602.0</ele><time>2026-05-03T05:49:27Z</time></trkpt><trkpt lat="46.00196507639287" lon="12.033193965956949"><ele>602.0</ele><time>2026-05-03T05:49:29Z</time></trkpt><trkpt lat="46.00194922933696" lon="12.03309953896078"><ele>606.8000000000001</ele><time>2026-05-03T05:49:30Z</time></trkpt><trkpt lat="46.00192416128952" lon="12.033001755497517"><ele>611.6</ele><time>2026-05-03T05:49:31Z</time></trkpt><trkpt lat="46.001914120192865" lon="12.03288201928411"><ele>616.4000000000001</ele><time>2026-05-03T05:49:32Z</time></trkpt><trkpt lat="46.001906566015705" lon="12.03277604185655"><ele>621.2</ele><time>2026-05-03T05:49:33Z</time></trkpt><trkpt lat="46.00188254409171" lon="12.032576538918429"><ele>626.0</ele><time>2026-05-03T05:49:35Z</time></trkpt><trkpt lat="46.00185403660893" lon="12.032445861580692"><ele>632.0</ele><time>2026-05-03T05:49:36Z</time></trkpt><trkpt lat="46.00184748060066" lon="12.03232976455976"><ele>638.0</ele><time>2026-05-03T05:49:37Z</time></trkpt><trkpt lat="46.00183985179229" lon="12.032139829389806"><ele>644.0</ele><time>2026-05-03T05:49:39Z</time></trkpt><trkpt lat="46.00182671332194" lon="12.032021762794013"><ele>650.0</ele><time>2026-05-03T05:49:40Z</time></trkpt><trkpt lat="46.00184322464442" lon="12.031862604840258"><ele>656.0</ele><time>2026-05-03T05:49:42Z</time></trkpt><trkpt lat="46.00187081670598" lon="12.031736822998933"><ele>663.0</ele><time>2026-05-03T05:49:44Z</time></trkpt><trkpt lat="46.00191844322766" lon="12.031632734068385"><ele>670.0</ele><time>2026-05-03T05:49:46Z</time></trkpt><trkpt lat="46.00192519560163" lon="12.031500958210522"><ele>677.0</ele><time>2026-05-03T05:49:48Z</time></trkpt><trkpt lat="46.00182343731561" lon="12.031472617148317"><ele>684.0</ele><time>2026-05-03T05:49:52Z</time></trkpt><trkpt lat="46.001719276756845" lon="12.031481056308147"><ele>691.0</ele><time>2026-05-03T05:49:53Z</time></trkpt><trkpt lat="46.001626762776546" lon="12.031502448141914"><ele>691.1666666666667</ele><time>2026-05-03T05:49:54Z</time></trkpt><trkpt lat="46.001559927252025" lon="12.03149522254587"><ele>691.3333333333334</ele><time>2026-05-03T05:49:55Z</time></trkpt><trkpt lat="46.00148166810346" lon="12.031524992836712"><ele>691.5</ele><time>2026-05-03T05:49:56Z</time></trkpt><trkpt lat="46.001405158710526" lon="12.031586960616378"><ele>691.6666666666666</ele><time>2026-05-03T05:49:57Z</time></trkpt><trkpt lat="46.00133085155322" lon="12.03168909268407"><ele>691.8333333333333</ele><time>2026-05-03T05:49:58Z</time></trkpt><trkpt lat="46.001278499281014" lon="12.031754678573334"><ele>692.0</ele><time>2026-05-03T05:49:59Z</time></trkpt><trkpt lat="46.00124115508383" lon="12.031828528444583"><ele>684.6</ele><time>2026-05-03T05:50:00Z</time></trkpt><trkpt lat="46.00113284654249" lon="12.031871504032965"><ele>677.2</ele><time>2026-05-03T05:50:02Z</time></trkpt><trkpt lat="46.00104097554883" lon="12.03182376407162"><ele>669.8</ele><time>2026-05-03T05:50:04Z</time></trkpt><trkpt lat="46.00098057608131" lon="12.031776568261257"><ele>662.4</ele><time>2026-05-03T05:50:05Z</time></trkpt><trkpt lat="46.00087831048136" lon="12.031664250344592"><ele>655.0</ele><time>2026-05-03T05:50:07Z</time></trkpt><trkpt lat="46.00071761583455" lon="12.031674634968482"><ele>652.2</ele><time>2026-05-03T05:50:08Z</time></trkpt><trkpt lat="46.00061634326604" lon="12.031670292061238"><ele>649.4</ele><time>2026-05-03T05:50:09Z</time></trkpt><trkpt lat="46.00051488698195" lon="12.0316653894067"><ele>646.5999999999999</ele><time>2026-05-03T05:50:10Z</time></trkpt><trkpt lat="46.00043588715351" lon="12.03165579272521"><ele>643.8</ele><time>2026-05-03T05:50:11Z</time></trkpt><trkpt lat="46.000362153309425" lon="12.031590926181806"><ele>641.0</ele><time>2026-05-03T05:50:12Z</time></trkpt><trkpt lat="46.000282780992976" lon="12.031518442504034"><ele>647.8</ele><time>2026-05-03T05:50:13Z</time></trkpt><trkpt lat="46.00019530517838" lon="12.031454517858966"><ele>654.5999999999999</ele><time>2026-05-03T05:50:14Z</time></trkpt><trkpt lat="46.00011790989649" lon="12.031404131246008"><ele>661.4</ele><time>2026-05-03T05:50:15Z</time></trkpt><trkpt lat="46.00004059383438" lon="12.031341319197786"><ele>668.2</ele><time>2026-05-03T05:50:16Z</time></trkpt><trkpt lat="45.99993693373474" lon="12.031263536469586"><ele>675.0</ele><time>2026-05-03T05:50:17Z</time></trkpt><trkpt lat="45.999853820043306" lon="12.031194368713464"><ele>675.0</ele><time>2026-05-03T05:50:18Z</time></trkpt><trkpt lat="45.99977662210783" lon="12.031119498304626"><ele>675.0</ele><time>2026-05-03T05:50:19Z</time></trkpt><trkpt lat="45.99970488747788" lon="12.031052293004832"><ele>675.0</ele><time>2026-05-03T05:50:20Z</time></trkpt><trkpt lat="45.9996488199295" lon="12.030984811975866"><ele>675.0</ele><time>2026-05-03T05:50:21Z</time></trkpt><trkpt lat="45.999549806435596" lon="12.030859359700463"><ele>675.0</ele><time>2026-05-03T05:50:23Z</time></trkpt><trkpt lat="45.99943561051582" lon="12.030796237810774"><ele>678.5</ele><time>2026-05-03T05:50:24Z</time></trkpt><trkpt lat="45.999363440724174" lon="12.030776616274968"><ele>682.0</ele><time>2026-05-03T05:50:25Z</time></trkpt><trkpt lat="45.999262885152326" lon="12.030753835995306"><ele>685.5</ele><time>2026-05-03T05:50:26Z</time></trkpt><trkpt lat="45.99918368274312" lon="12.030729747835503"><ele>689.0</ele><time>2026-05-03T05:50:27Z</time></trkpt><trkpt lat="45.99907324698801" lon="12.030691291475074"><ele>692.5</ele><time>2026-05-03T05:50:29Z</time></trkpt><trkpt lat="45.99900359495922" lon="12.030658950571429"><ele>696.0</ele><time>2026-05-03T05:50:31Z</time></trkpt><trkpt lat="45.99894293828028" lon="12.03060443199519"><ele>696.0</ele><time>2026-05-03T05:50:33Z</time></trkpt><trkpt lat="45.99888468163391" lon="12.030531606194392"><ele>696.0</ele><time>2026-05-03T05:50:35Z</time></trkpt><trkpt lat="45.998815732833876" lon="12.030482898895974"><ele>696.0</ele><time>2026-05-03T05:50:51.999Z</time></trkpt><trkpt lat="45.998716736480475" lon="12.030407165359524"><ele>696.0</ele><time>2026-05-03T05:50:53.999Z</time></trkpt><trkpt lat="45.99864062129392" lon="12.030368841841474"><ele>696.0</ele><time>2026-05-03T05:50:55.999Z</time></trkpt><trkpt lat="45.99856314302347" lon="12.030331042215487"><ele>696.0</ele><time>2026-05-03T05:50:59.999Z</time></trkpt><trkpt lat="45.998512720841624" lon="12.030257907001193"><ele>696.0</ele><time>2026-05-03T05:51:02.999Z</time></trkpt><trkpt lat="45.99849481413152" lon="12.030161966654795"><ele>696.0</ele><time>2026-05-03T05:51:04.999Z</time></trkpt><trkpt lat="45.998471260907486" lon="12.030048720662368"><ele>696.0</ele><time>2026-05-03T05:51:06.999Z</time></trkpt><trkpt lat="45.99845359654311" lon="12.02994840428083"><ele>696.0</ele><time>2026-05-03T05:51:09Z</time></trkpt><trkpt lat="45.99844777314761" lon="12.029836954923098"><ele>696.0</ele><time>2026-05-03T05:51:11Z</time></trkpt><trkpt lat="45.99843435567459" lon="12.029743309551288"><ele>696.0</ele><time>2026-05-03T05:51:13Z</time></trkpt><trkpt lat="45.99842326817601" lon="12.029634592342488"><ele>696.0</ele><time>2026-05-03T05:51:14Z</time></trkpt><trkpt lat="45.99839413871879" lon="12.02953348304593"><ele>693.3333333333334</ele><time>2026-05-03T05:51:16Z</time></trkpt><trkpt lat="45.99834073325204" lon="12.02939883502396"><ele>690.6666666666666</ele><time>2026-05-03T05:51:18Z</time></trkpt><trkpt lat="45.99830141683427" lon="12.029301478571751"><ele>688.0</ele><time>2026-05-03T05:51:20Z</time></trkpt><trkpt lat="45.99835655822029" lon="12.029219067163385"><ele>685.3333333333333</ele><time>2026-05-03T05:51:36Z</time></trkpt><trkpt lat="45.99835203336178" lon="12.029109088352579"><ele>682.6666666666666</ele><time>2026-05-03T05:53:47Z</time></trkpt><trkpt lat="45.99835877673876" lon="12.028975816634134"><ele>680.0</ele><time>2026-05-03T05:53:49Z</time></trkpt><trkpt lat="45.99838460585902" lon="12.028852353074841"><ele>686.2</ele><time>2026-05-03T05:53:51Z</time></trkpt><trkpt lat="45.99843519175035" lon="12.028731172436341"><ele>692.4</ele><time>2026-05-03T05:53:53Z</time></trkpt><trkpt lat="45.998410142122935" lon="12.028592833210224"><ele>698.5999999999999</ele><time>2026-05-03T05:53:55Z</time></trkpt><trkpt lat="45.99833693938781" lon="12.02851357009852"><ele>704.8</ele><time>2026-05-03T05:53:57Z</time></trkpt><trkpt lat="45.998244343313374" lon="12.02844822889219"><ele>711.0</ele><time>2026-05-03T05:53:59Z</time></trkpt><trkpt lat="45.99818556449753" lon="12.028374168739868"><ele>711.0</ele><time>2026-05-03T05:54:02Z</time></trkpt><trkpt lat="45.99826778408774" lon="12.028342010403954"><ele>711.0</ele><time>2026-05-03T05:54:04Z</time></trkpt><trkpt lat="45.99831571985604" lon="12.028419010893993"><ele>711.0</ele><time>2026-05-03T05:54:07Z</time></trkpt><trkpt lat="45.99841289296633" lon="12.028473810332775"><ele>711.0</ele><time>2026-05-03T05:54:09Z</time></trkpt><trkpt lat="45.99847727753836" lon="12.02847125330582"><ele>711.0</ele><time>2026-05-03T05:54:10Z</time></trkpt><trkpt lat="45.9985158503657" lon="12.028602472993905"><ele>711.0</ele><time>2026-05-03T05:54:14Z</time></trkpt><trkpt lat="45.99853248237959" lon="12.028726903782378"><ele>714.3333333333334</ele><time>2026-05-03T05:54:16Z</time></trkpt><trkpt lat="45.99856137116315" lon="12.028829020399021"><ele>717.6666666666666</ele><time>2026-05-03T05:54:18Z</time></trkpt><trkpt lat="45.99854632663525" lon="12.028934180451675"><ele>721.0</ele><time>2026-05-03T05:54:19Z</time></trkpt><trkpt lat="45.99857754909397" lon="12.029045236285857"><ele>724.3333333333333</ele><time>2026-05-03T05:54:21Z</time></trkpt><trkpt lat="45.99861811864023" lon="12.029129395352717"><ele>727.6666666666666</ele><time>2026-05-03T05:54:23Z</time></trkpt><trkpt lat="45.998704318259946" lon="12.029229657742956"><ele>731.0</ele><time>2026-05-03T05:54:25Z</time></trkpt><trkpt lat="45.99877704405392" lon="12.029317941147887"><ele>731.0</ele><time>2026-05-03T05:54:27Z</time></trkpt><trkpt lat="45.9988532987102" lon="12.029423248163528"><ele>731.0</ele><time>2026-05-03T05:54:29Z</time></trkpt><trkpt lat="45.99889401831277" lon="12.029516454748459"><ele>731.0</ele><time>2026-05-03T05:54:31Z</time></trkpt><trkpt lat="45.998953837042585" lon="12.029588137628828"><ele>731.0</ele><time>2026-05-03T05:54:33Z</time></trkpt><trkpt lat="45.999006896057054" lon="12.02965374921033"><ele>731.0</ele><time>2026-05-03T05:54:34Z</time></trkpt><trkpt lat="45.999075702061866" lon="12.029683347806044"><ele>731.0</ele><time>2026-05-03T05:54:35Z</time></trkpt><trkpt lat="45.99914971613302" lon="12.029702386427566"><ele>737.75</ele><time>2026-05-03T05:54:36Z</time></trkpt><trkpt lat="45.999291228523234" lon="12.029704439416259"><ele>744.5</ele><time>2026-05-03T05:54:39Z</time></trkpt><trkpt lat="45.99939909989074" lon="12.02971777165122"><ele>751.25</ele><time>2026-05-03T05:54:41Z</time></trkpt><trkpt lat="45.99948903226388" lon="12.029749174683625"><ele>758.0</ele><time>2026-05-03T05:54:42.999Z</time></trkpt><trkpt lat="45.99960255593831" lon="12.029754998179989"><ele>758.0</ele><time>2026-05-03T05:54:44.999Z</time></trkpt><trkpt lat="45.99968394898797" lon="12.02976340113025"><ele>758.0</ele><time>2026-05-03T05:54:45.999Z</time></trkpt><trkpt lat="45.999752195409684" lon="12.029786895060752"><ele>758.0</ele><time>2026-05-03T05:54:46.999Z</time></trkpt><trkpt lat="45.99982449878163" lon="12.029812533662133"><ele>758.0</ele><time>2026-05-03T05:54:47.999Z</time></trkpt><trkpt lat="45.999942989202786" lon="12.029826986980956"><ele>758.0</ele><time>2026-05-03T05:54:49.999Z</time></trkpt><trkpt lat="46.00000665287217" lon="12.029835496927266"><ele>758.0</ele><time>2026-05-03T05:54:50.999Z</time></trkpt><trkpt lat="46.0000725519136" lon="12.029847521960622"><ele>758.0</ele><time>2026-05-03T05:54:51.999Z</time></trkpt><trkpt lat="46.00019291414461" lon="12.029893007734527"><ele>758.0</ele><time>2026-05-03T05:54:53.999Z</time></trkpt><trkpt lat="46.00030922025911" lon="12.02990371115325"><ele>758.0</ele><time>2026-05-03T05:54:55.999Z</time></trkpt><trkpt lat="46.000407361788284" lon="12.029903052269383"><ele>758.0</ele><time>2026-05-03T05:54:57.999Z</time></trkpt><trkpt lat="46.00046994341358" lon="12.029890435624056"><ele>758.0</ele><time>2026-05-03T05:54:58.999Z</time></trkpt><trkpt lat="46.000576600040034" lon="12.029915133079555"><ele>758.0</ele><time>2026-05-03T05:55:00.999Z</time></trkpt><trkpt lat="46.00070650409139" lon="12.029943762404367"><ele>758.0</ele><time>2026-05-03T05:55:02.999Z</time></trkpt><trkpt lat="46.000790157072466" lon="12.02994563757561"><ele>758.0</ele><time>2026-05-03T05:55:03.999Z</time></trkpt><trkpt lat="46.00086562181916" lon="12.029965070191569"><ele>758.0</ele><time>2026-05-03T05:55:04.999Z</time></trkpt><trkpt lat="46.00098659075513" lon="12.030013828093733"><ele>758.0</ele><time>2026-05-03T05:55:06.999Z</time></trkpt><trkpt lat="46.00108304850369" lon="12.030036106494068"><ele>760.4</ele><time>2026-05-03T05:55:08.999Z</time></trkpt><trkpt lat="46.001192779503924" lon="12.030042891796388"><ele>762.8</ele><time>2026-05-03T05:55:10.999Z</time></trkpt><trkpt lat="46.001269866710295" lon="12.030042554897326"><ele>765.2</ele><time>2026-05-03T05:55:12.999Z</time></trkpt><trkpt lat="46.001371917791396" lon="12.02999536504285"><ele>767.6</ele><time>2026-05-03T05:55:14.999Z</time></trkpt><trkpt lat="46.00148148046265" lon="12.029984579847657"><ele>770.0</ele><time>2026-05-03T05:55:16.999Z</time></trkpt><trkpt lat="46.00156188170764" lon="12.029961862146125"><ele>773.0</ele><time>2026-05-03T05:55:17.999Z</time></trkpt><trkpt lat="46.00167960673616" lon="12.029974264397431"><ele>776.0</ele><time>2026-05-03T05:55:20Z</time></trkpt><trkpt lat="46.00179008876621" lon="12.030009469951692"><ele>779.0</ele><time>2026-05-03T05:55:22Z</time></trkpt><trkpt lat="46.00188112791256" lon="12.030035536618076"><ele>782.0</ele><time>2026-05-03T05:55:24Z</time></trkpt><trkpt lat="46.00200795121735" lon="12.030075764570567"><ele>782.0000000000001</ele><time>2026-05-03T05:55:26Z</time></trkpt><trkpt lat="46.002088857151946" lon="12.030084096033553"><ele>782.0</ele><time>2026-05-03T05:55:27Z</time></trkpt><trkpt lat="46.002153302709736" lon="12.030063785215601"><ele>782.0</ele><time>2026-05-03T05:55:29Z</time></trkpt><trkpt lat="46.00227015672343" lon="12.030002754249718"><ele>782.0</ele><time>2026-05-03T05:55:31Z</time></trkpt><trkpt lat="46.00233460244296" lon="12.029959855746599"><ele>782.0000000000001</ele><time>2026-05-03T05:55:32Z</time></trkpt><trkpt lat="46.00242099875593" lon="12.029869275915289"><ele>782.0</ele><time>2026-05-03T05:55:34Z</time></trkpt><trkpt lat="46.002472460257344" lon="12.029793983575352"><ele>782.0</ele><time>2026-05-03T05:55:35Z</time></trkpt><trkpt lat="46.00254206735569" lon="12.029690051321198"><ele>782.0</ele><time>2026-05-03T05:55:37Z</time></trkpt><trkpt lat="46.00257530116159" lon="12.029588202987725"><ele>782.0</ele><time>2026-05-03T05:55:39Z</time></trkpt><trkpt lat="46.00262281643786" lon="12.029441075700054"><ele>782.0</ele><time>2026-05-03T05:55:54Z</time></trkpt><trkpt lat="46.002705537645106" lon="12.029472253298296"><ele>782.0</ele><time>2026-05-03T05:55:56Z</time></trkpt><trkpt lat="46.002764291676876" lon="12.02955280277166"><ele>782.0</ele><time>2026-05-03T05:55:58Z</time></trkpt><trkpt lat="46.002864606215525" lon="12.02962541024928"><ele>782.0</ele><time>2026-05-03T05:56:00Z</time></trkpt><trkpt lat="46.00296987259793" lon="12.029711449560976"><ele>782.0</ele><time>2026-05-03T05:56:02Z</time></trkpt><trkpt lat="46.00299036332105" lon="12.029814488260097"><ele>782.0</ele><time>2026-05-03T05:56:03Z</time></trkpt><trkpt lat="46.002995938640204" lon="12.02996768945126"><ele>782.0</ele><time>2026-05-03T05:56:05Z</time></trkpt><trkpt lat="46.00300693936778" lon="12.030125984715522"><ele>775.5000000000001</ele><time>2026-05-03T05:56:07Z</time></trkpt><trkpt lat="46.00306078763813" lon="12.03024945898034"><ele>769.0</ele><time>2026-05-03T05:56:09Z</time></trkpt><trkpt lat="46.003100537185524" lon="12.030388113385179"><ele>762.5</ele><time>2026-05-03T05:56:12Z</time></trkpt><trkpt lat="46.003152082618584" lon="12.030508891802308"><ele>756.0</ele><time>2026-05-03T05:56:14Z</time></trkpt><trkpt lat="46.00318819570353" lon="12.030598061397853"><ele>749.5</ele><time>2026-05-03T05:56:16Z</time></trkpt><trkpt lat="46.003221595489" lon="12.030688573336743"><ele>743.0</ele><time>2026-05-03T05:56:20Z</time></trkpt><trkpt lat="46.003291904901054" lon="12.030678281771138"><ele>743.0</ele><time>2026-05-03T05:56:40Z</time></trkpt><trkpt lat="46.00329391632844" lon="12.03053745480084"><ele>743.0</ele><time>2026-05-03T05:56:42Z</time></trkpt><trkpt lat="46.00325157263321" lon="12.030448308016958"><ele>743.0</ele><time>2026-05-03T05:56:43.999Z</time></trkpt><trkpt lat="46.00321592126234" lon="12.030328788322231"><ele>743.0</ele><time>2026-05-03T05:56:45.999Z</time></trkpt><trkpt lat="46.003174015464" lon="12.030225264088173"><ele>743.0</ele><time>2026-05-03T05:56:47.999Z</time></trkpt><trkpt lat="46.003157540147335" lon="12.030065124812738"><ele>750.8</ele><time>2026-05-03T05:56:50.999Z</time></trkpt><trkpt lat="46.003135599307456" lon="12.02993652015526"><ele>758.5999999999999</ele><time>2026-05-03T05:56:52.999Z</time></trkpt><trkpt lat="46.00315014858386" lon="12.029781472687116"><ele>766.4000000000001</ele><time>2026-05-03T05:56:54.999Z</time></trkpt><trkpt lat="46.00314255811171" lon="12.029632362017795"><ele>774.2</ele><time>2026-05-03T05:56:56.999Z</time></trkpt><trkpt lat="46.00309698051564" lon="12.02948267350975"><ele>782.0</ele><time>2026-05-03T05:56:58.999Z</time></trkpt><trkpt lat="46.00303921036905" lon="12.029394467088775"><ele>782.0000000000001</ele><time>2026-05-03T05:57:00.999Z</time></trkpt><trkpt lat="46.00300732079324" lon="12.029287665179567"><ele>782.0</ele><time>2026-05-03T05:57:02.999Z</time></trkpt><trkpt lat="46.002930458956754" lon="12.029221505557562"><ele>782.0</ele><time>2026-05-03T05:57:04.999Z</time></trkpt><trkpt lat="46.002839810307385" lon="12.029169565460782"><ele>782.0</ele><time>2026-05-03T05:57:06.999Z</time></trkpt><trkpt lat="46.00280947284939" lon="12.029083521038261"><ele>782.0000000000001</ele><time>2026-05-03T05:57:08.999Z</time></trkpt><trkpt lat="46.00277824793599" lon="12.028996407935809"><ele>782.0</ele><time>2026-05-03T05:57:11.999Z</time></trkpt><trkpt lat="46.00268291416515" lon="12.028982420043441"><ele>782.0</ele><time>2026-05-03T05:57:13.999Z</time></trkpt><trkpt lat="46.00260262622127" lon="12.029042025835665"><ele>782.0</ele><time>2026-05-03T05:57:15.999Z</time></trkpt><trkpt lat="46.00253410837506" lon="12.029105944786549"><ele>782.0</ele><time>2026-05-03T05:57:17.999Z</time></trkpt><trkpt lat="46.00245195679608" lon="12.029202572043937"><ele>782.0</ele><time>2026-05-03T05:57:19.999Z</time></trkpt><trkpt lat="46.002376222902" lon="12.02933728569673"><ele>782.0</ele><time>2026-05-03T05:57:21.999Z</time></trkpt><trkpt lat="46.002311762701105" lon="12.029389847714269"><ele>782.0</ele><time>2026-05-03T05:57:23.999Z</time></trkpt><trkpt lat="46.00222325769234" lon="12.029357624499827"><ele>782.0</ele><time>2026-05-03T05:57:26Z</time></trkpt><trkpt lat="46.002106036620184" lon="12.029310857813742"><ele>782.0</ele><time>2026-05-03T05:57:28Z</time></trkpt><trkpt lat="46.00204185510826" lon="12.029286954620071"><ele>782.0</ele><time>2026-05-03T05:57:29Z</time></trkpt><trkpt lat="46.001945071149024" lon="12.029236116365182"><ele>782.0</ele><time>2026-05-03T05:57:31Z</time></trkpt><trkpt lat="46.00185097343488" lon="12.02916142161776"><ele>788.4000000000001</ele><time>2026-05-03T05:57:33Z</time></trkpt><trkpt lat="46.001756102923444" lon="12.02908730278095"><ele>794.8000000000001</ele><time>2026-05-03T05:57:35Z</time></trkpt><trkpt lat="46.001658439433356" lon="12.029018765871445"><ele>801.2</ele><time>2026-05-03T05:57:37Z</time></trkpt><trkpt lat="46.00158907390184" lon="12.028970637695704"><ele>807.6</ele><time>2026-05-03T05:57:39Z</time></trkpt><trkpt lat="46.00149576573226" lon="12.028919560913526"><ele>814.0</ele><time>2026-05-03T05:57:41Z</time></trkpt><trkpt lat="46.0014755048628" lon="12.028809466760539"><ele>814.0</ele><time>2026-05-03T05:57:44Z</time></trkpt><trkpt lat="46.00156815031036" lon="12.028807384345436"><ele>814.0</ele><time>2026-05-03T05:57:47Z</time></trkpt><trkpt lat="46.00168939274478" lon="12.028838881410472"><ele>814.0</ele><time>2026-05-03T05:57:49Z</time></trkpt><trkpt lat="46.001779160045736" lon="12.028851068066354"><ele>814.0</ele><time>2026-05-03T05:57:51Z</time></trkpt><trkpt lat="46.00186494996384" lon="12.028837238815314"><ele>814.0</ele><time>2026-05-03T05:57:53Z</time></trkpt><trkpt lat="46.0019669882742" lon="12.028825956180745"><ele>815.9999999999999</ele><time>2026-05-03T05:57:55Z</time></trkpt><trkpt lat="46.002044010733194" lon="12.028825364698944"><ele>818.0</ele><time>2026-05-03T05:57:56Z</time></trkpt><trkpt lat="46.00210945754404" lon="12.028792934877279"><ele>820.0</ele><time>2026-05-03T05:57:57Z</time></trkpt><trkpt lat="46.00218587636126" lon="12.0287516422951"><ele>822.0</ele><time>2026-05-03T05:57:59Z</time></trkpt><trkpt lat="46.0022471858168" lon="12.028679071057885"><ele>823.9999999999999</ele><time>2026-05-03T05:58:01Z</time></trkpt><trkpt lat="46.0021931633146" lon="12.028611226560486"><ele>826.0</ele><time>2026-05-03T05:58:04Z</time></trkpt><trkpt lat="46.00211317921626" lon="12.02863280135587"><ele>826.0</ele><time>2026-05-03T05:58:06Z</time></trkpt><trkpt lat="46.002025423374405" lon="12.028617836596018"><ele>826.0</ele><time>2026-05-03T05:58:08Z</time></trkpt><trkpt lat="46.00193987119348" lon="12.028568316425195"><ele>826.0</ele><time>2026-05-03T05:58:10Z</time></trkpt><trkpt lat="46.00185329941433" lon="12.028497742730499"><ele>826.0</ele><time>2026-05-03T05:58:12Z</time></trkpt><trkpt lat="46.00175476584572" lon="12.028435367185493"><ele>826.0</ele><time>2026-05-03T05:58:14Z</time></trkpt><trkpt lat="46.00167407500188" lon="12.02838515317998"><ele>823.9999999999999</ele><time>2026-05-03T05:58:16Z</time></trkpt><trkpt lat="46.001611867704824" lon="12.028336561017168"><ele>822.0</ele><time>2026-05-03T05:58:18Z</time></trkpt><trkpt lat="46.00152777378934" lon="12.028285184978284"><ele>820.0</ele><time>2026-05-03T05:58:20Z</time></trkpt><trkpt lat="46.00143974760547" lon="12.028249018882601"><ele>818.0</ele><time>2026-05-03T05:58:22Z</time></trkpt><trkpt lat="46.00137276207744" lon="12.028200628934448"><ele>815.9999999999999</ele><time>2026-05-03T05:58:24Z</time></trkpt><trkpt lat="46.00127740859378" lon="12.028130943410156"><ele>814.0</ele><time>2026-05-03T05:58:26Z</time></trkpt><trkpt lat="46.00118639896273" lon="12.028068812308806"><ele>819.9999999999999</ele><time>2026-05-03T05:58:28Z</time></trkpt><trkpt lat="46.00109242349852" lon="12.027995155998779"><ele>826.0</ele><time>2026-05-03T05:58:30Z</time></trkpt><trkpt lat="46.001010319833384" lon="12.027937337949181"><ele>832.0</ele><time>2026-05-03T05:58:32Z</time></trkpt><trkpt lat="46.00092528171719" lon="12.027867539339363"><ele>838.0</ele><time>2026-05-03T05:58:34Z</time></trkpt><trkpt lat="46.00085536869062" lon="12.027832715636203"><ele>843.9999999999999</ele><time>2026-05-03T05:58:36Z</time></trkpt><trkpt lat="46.000892444769214" lon="12.027740642959346"><ele>850.0</ele><time>2026-05-03T05:58:41Z</time></trkpt><trkpt lat="46.00098072060853" lon="12.027757467213547"><ele>849.9999999999999</ele><time>2026-05-03T05:58:44Z</time></trkpt><trkpt lat="46.001064645436266" lon="12.027783748083728"><ele>850.0</ele><time>2026-05-03T05:58:46Z</time></trkpt><trkpt lat="46.001134333685464" lon="12.027837107870619"><ele>850.0</ele><time>2026-05-03T05:58:48Z</time></trkpt><trkpt lat="46.00120037351949" lon="12.027842517030257"><ele>850.0</ele><time>2026-05-03T05:58:49Z</time></trkpt><trkpt lat="46.00129746909014" lon="12.02783765724897"><ele>849.9999999999999</ele><time>2026-05-03T05:58:50.999Z</time></trkpt><trkpt lat="46.00138270176705" lon="12.02787528445247"><ele>850.0</ele><time>2026-05-03T05:58:53.999Z</time></trkpt><trkpt lat="46.00146394466803" lon="12.027839911610187"><ele>850.0</ele><time>2026-05-03T05:58:56.999Z</time></trkpt><trkpt lat="46.00139051809865" lon="12.027740965123781"><ele>850.0</ele><time>2026-05-03T05:58:59.999Z</time></trkpt><trkpt lat="46.00130161590631" lon="12.027691055711685"><ele>850.0</ele><time>2026-05-03T05:59:01.999Z</time></trkpt><trkpt lat="46.00123908659009" lon="12.027619531333203"><ele>850.0</ele><time>2026-05-03T05:59:03.999Z</time></trkpt><trkpt lat="46.00115902423824" lon="12.027538260043098"><ele>850.0</ele><time>2026-05-03T05:59:05.999Z</time></trkpt><trkpt lat="46.00107049038108" lon="12.027457705004382"><ele>847.3333333333333</ele><time>2026-05-03T05:59:07.999Z</time></trkpt><trkpt lat="46.001005896091534" lon="12.027381723932315"><ele>844.6666666666666</ele><time>2026-05-03T05:59:09.999Z</time></trkpt><trkpt lat="46.00095619480132" lon="12.02728582436233"><ele>842.0</ele><time>2026-05-03T05:59:11.999Z</time></trkpt><trkpt lat="46.000883926370996" lon="12.02720242826939"><ele>839.3333333333333</ele><time>2026-05-03T05:59:13.999Z</time></trkpt><trkpt lat="46.000780920201876" lon="12.027133911236565"><ele>836.6666666666666</ele><time>2026-05-03T05:59:15.999Z</time></trkpt><trkpt lat="46.00073093482067" lon="12.027077265671473"><ele>834.0</ele><time>2026-05-03T05:59:16.999Z</time></trkpt><trkpt lat="46.00065630955983" lon="12.026971341484208"><ele>834.0</ele><time>2026-05-03T05:59:18.999Z</time></trkpt><trkpt lat="46.00060562300838" lon="12.026862513732091"><ele>834.0</ele><time>2026-05-03T05:59:20.999Z</time></trkpt><trkpt lat="46.000579290391485" lon="12.026718728940146"><ele>834.0</ele><time>2026-05-03T05:59:22.999Z</time></trkpt><trkpt lat="46.00059134351603" lon="12.026575986561316"><ele>834.0</ele><time>2026-05-03T05:59:24.999Z</time></trkpt><trkpt lat="46.00061126009312" lon="12.026489259950653"><ele>834.0</ele><time>2026-05-03T05:59:26.999Z</time></trkpt><trkpt lat="46.00066062524632" lon="12.026363536481883"><ele>838.6666666666666</ele><time>2026-05-03T05:59:28.999Z</time></trkpt><trkpt lat="46.00065991980897" lon="12.026249495481022"><ele>843.3333333333333</ele><time>2026-05-03T05:59:30.999Z</time></trkpt><trkpt lat="46.000649311490136" lon="12.026112667885508"><ele>848.0</ele><time>2026-05-03T05:59:33Z</time></trkpt><trkpt lat="46.00064835360807" lon="12.026017959177555"><ele>852.6666666666666</ele><time>2026-05-03T05:59:34Z</time></trkpt><trkpt lat="46.000615650917524" lon="12.025896190304456"><ele>857.3333333333333</ele><time>2026-05-03T05:59:36Z</time></trkpt><trkpt lat="46.00060224004759" lon="12.025778382224804"><ele>862.0</ele><time>2026-05-03T05:59:38Z</time></trkpt><trkpt lat="46.00060040103986" lon="12.025656616436741"><ele>868.2</ele><time>2026-05-03T05:59:40Z</time></trkpt><trkpt lat="46.00062131323835" lon="12.025550584243206"><ele>874.4000000000001</ele><time>2026-05-03T05:59:42Z</time></trkpt><trkpt lat="46.00063501804279" lon="12.025431223704041"><ele>880.5999999999999</ele><time>2026-05-03T05:59:44Z</time></trkpt><trkpt lat="46.000680337053005" lon="12.025335039982167"><ele>886.8</ele><time>2026-05-03T05:59:47Z</time></trkpt><trkpt lat="46.00063225214422" lon="12.025137161827521"><ele>893.0</ele><time>2026-05-03T05:59:49Z</time></trkpt><trkpt lat="46.00060491839699" lon="12.02504387306602"><ele>902.0</ele><time>2026-05-03T05:59:51Z</time></trkpt><trkpt lat="46.00057823477179" lon="12.024937911324441"><ele>911.0</ele><time>2026-05-03T05:59:53Z</time></trkpt><trkpt lat="46.00051911583282" lon="12.024831255581587"><ele>920.0</ele><time>2026-05-03T05:59:56Z</time></trkpt><trkpt lat="46.00042562534167" lon="12.024815533944409"><ele>929.0</ele><time>2026-05-03T05:59:58Z</time></trkpt><trkpt lat="46.000327987297304" lon="12.024813491171447"><ele>938.0</ele><time>2026-05-03T06:00:00Z</time></trkpt><trkpt lat="46.00023573476251" lon="12.024775936535349"><ele>938.0000000000001</ele><time>2026-05-03T06:00:02Z</time></trkpt><trkpt lat="46.00014855561313" lon="12.02479285104882"><ele>938.0</ele><time>2026-05-03T06:00:04Z</time></trkpt><trkpt lat="46.00011163908569" lon="12.02470453331433"><ele>938.0</ele><time>2026-05-03T06:00:05Z</time></trkpt><trkpt lat="46.00004503975574" lon="12.024638119671327"><ele>938.0</ele><time>2026-05-03T06:00:07Z</time></trkpt><trkpt lat="45.999943402523286" lon="12.024603125324063"><ele>938.0000000000001</ele><time>2026-05-03T06:00:09Z</time></trkpt><trkpt lat="45.99985311749886" lon="12.024647044123014"><ele>938.0</ele><time>2026-05-03T06:00:11Z</time></trkpt><trkpt lat="45.99976498552745" lon="12.02467487249218"><ele>938.0</ele><time>2026-05-03T06:00:13Z</time></trkpt><trkpt lat="45.99967786096247" lon="12.024684118398222"><ele>938.0</ele><time>2026-05-03T06:00:15Z</time></trkpt><trkpt lat="45.99960011359077" lon="12.024638327679584"><ele>938.0</ele><time>2026-05-03T06:00:17Z</time></trkpt><trkpt lat="45.99951899817643" lon="12.024570268475069"><ele>938.0</ele><time>2026-05-03T06:00:19Z</time></trkpt><trkpt lat="45.999408931503005" lon="12.024512236710924"><ele>938.0</ele><time>2026-05-03T06:00:21Z</time></trkpt><trkpt lat="45.99930764690972" lon="12.024456179759481"><ele>938.0</ele><time>2026-05-03T06:00:23Z</time></trkpt><trkpt lat="45.99920865004926" lon="12.024403613869225"><ele>938.0</ele><time>2026-05-03T06:00:25Z</time></trkpt><trkpt lat="45.99910712849311" lon="12.024408600379601"><ele>938.0</ele><time>2026-05-03T06:00:27Z</time></trkpt><trkpt lat="45.99900261040481" lon="12.024411103298503"><ele>938.0</ele><time>2026-05-03T06:00:29Z</time></trkpt><trkpt lat="45.998894406317405" lon="12.024375086858024"><ele>938.0</ele><time>2026-05-03T06:00:31Z</time></trkpt><trkpt lat="45.998815234221624" lon="12.024343830212926"><ele>936.8333333333334</ele><time>2026-05-03T06:00:33Z</time></trkpt><trkpt lat="45.99875922447762" lon="12.024244465272107"><ele>935.6666666666667</ele><time>2026-05-03T06:02:36Z</time></trkpt><trkpt lat="45.99874410552362" lon="12.024144611838175"><ele>934.5</ele><time>2026-05-03T06:02:38Z</time></trkpt><trkpt lat="45.99874934905521" lon="12.024240453392427"><ele>933.3333333333333</ele><time>2026-05-03T06:02:54.999Z</time></trkpt><trkpt lat="45.99876995710664" lon="12.02433541638074"><ele>932.1666666666666</ele><time>2026-05-03T06:02:58.999Z</time></trkpt><trkpt lat="45.998842843896" lon="12.024386118034517"><ele>931.0</ele><time>2026-05-03T06:03:01.999Z</time></trkpt><trkpt lat="45.99893890206376" lon="12.024396412864604"><ele>930.9999999999999</ele><time>2026-05-03T06:03:03.999Z</time></trkpt><trkpt lat="45.99901858860432" lon="12.024428306328241"><ele>931.0</ele><time>2026-05-03T06:03:06.999Z</time></trkpt><trkpt lat="45.999091425312045" lon="12.02443850053891"><ele>931.0</ele><time>2026-05-03T06:03:08.999Z</time></trkpt><trkpt lat="45.99920956395139" lon="12.02444051231229"><ele>931.0</ele><time>2026-05-03T06:03:10.999Z</time></trkpt><trkpt lat="45.99929493974763" lon="12.024486337300237"><ele>930.9999999999999</ele><time>2026-05-03T06:03:12.999Z</time></trkpt><trkpt lat="45.999348500817206" lon="12.024548517707004"><ele>931.0</ele><time>2026-05-03T06:03:14.999Z</time></trkpt><trkpt lat="45.99943664382019" lon="12.024563553342082"><ele>932.4</ele><time>2026-05-03T06:03:17.999Z</time></trkpt><trkpt lat="45.99949696943606" lon="12.02461103830886"><ele>933.8</ele><time>2026-05-03T06:03:18.999Z</time></trkpt><trkpt lat="45.99959565829342" lon="12.024659074383653"><ele>935.1999999999999</ele><time>2026-05-03T06:03:20.999Z</time></trkpt><trkpt lat="45.99969196260705" lon="12.024703655780876"><ele>936.5999999999999</ele><time>2026-05-03T06:03:22.999Z</time></trkpt><trkpt lat="45.999809742315975" lon="12.02468144062811"><ele>938.0</ele><time>2026-05-03T06:03:24.999Z</time></trkpt><trkpt lat="45.99992558857518" lon="12.024619728548863"><ele>938.0</ele><time>2026-05-03T06:03:26.999Z</time></trkpt><trkpt lat="46.00002445477218" lon="12.024659502317402"><ele>938.0</ele><time>2026-05-03T06:03:29.999Z</time></trkpt><trkpt lat="46.000100902569514" lon="12.024726193988977"><ele>938.0</ele><time>2026-05-03T06:03:31.999Z</time></trkpt><trkpt lat="46.00019355804004" lon="12.024766634642127"><ele>938.0</ele><time>2026-05-03T06:03:33.999Z</time></trkpt><trkpt lat="46.000287104879156" lon="12.024761146547657"><ele>938.0</ele><time>2026-05-03T06:03:35.999Z</time></trkpt><trkpt lat="46.00040136731667" lon="12.024766954286324"><ele>938.0000000000001</ele><time>2026-05-03T06:03:37.999Z</time></trkpt><trkpt lat="46.00046237999472" lon="12.024843863960818"><ele>938.0</ele><time>2026-05-03T06:03:39.999Z</time></trkpt><trkpt lat="46.000506240995335" lon="12.024925964065769"><ele>938.0</ele><time>2026-05-03T06:03:41.999Z</time></trkpt><trkpt lat="46.000508648186425" lon="12.025057151606267"><ele>938.0</ele><time>2026-05-03T06:03:44Z</time></trkpt><trkpt lat="46.00054613338813" lon="12.025132037635606"><ele>938.0000000000001</ele><time>2026-05-03T06:03:47Z</time></trkpt><trkpt lat="46.00051499907947" lon="12.025239263717085"><ele>938.0</ele><time>2026-05-03T06:03:49Z</time></trkpt><trkpt lat="46.00051215274567" lon="12.025345158485838"><ele>930.5000000000001</ele><time>2026-05-03T06:03:51Z</time></trkpt><trkpt lat="46.00052202057558" lon="12.025469652031699"><ele>923.0</ele><time>2026-05-03T06:03:52Z</time></trkpt><trkpt lat="46.00056090961448" lon="12.025551353680944"><ele>915.5</ele><time>2026-05-03T06:03:53Z</time></trkpt><trkpt lat="46.00056919134692" lon="12.025693031313745"><ele>908.0</ele><time>2026-05-03T06:03:55Z</time></trkpt><trkpt lat="46.000592842039026" lon="12.025804630859383"><ele>900.5000000000001</ele><time>2026-05-03T06:03:57Z</time></trkpt><trkpt lat="46.00059441136456" lon="12.025937914707557"><ele>893.0</ele><time>2026-05-03T06:03:59Z</time></trkpt><trkpt lat="46.0005968317427" lon="12.026137203929427"><ele>886.8</ele><time>2026-05-03T06:04:03Z</time></trkpt><trkpt lat="46.000605466160984" lon="12.026248571490775"><ele>880.5999999999999</ele><time>2026-05-03T06:04:05Z</time></trkpt><trkpt lat="46.00057962986668" lon="12.026405453526012"><ele>874.4000000000001</ele><time>2026-05-03T06:04:07Z</time></trkpt><trkpt lat="46.0005671674082" lon="12.02656584626279"><ele>868.2</ele><time>2026-05-03T06:04:09Z</time></trkpt><trkpt lat="46.00058962189838" lon="12.026676311484595"><ele>862.0</ele><time>2026-05-03T06:04:11Z</time></trkpt><trkpt lat="46.00062238993735" lon="12.026808528749637"><ele>863.9999999999999</ele><time>2026-05-03T06:04:13Z</time></trkpt><trkpt lat="46.00066640099484" lon="12.026896180721039"><ele>866.0</ele><time>2026-05-03T06:04:15Z</time></trkpt><trkpt lat="46.000723599102805" lon="12.026961175506743"><ele>868.0</ele><time>2026-05-03T06:04:17Z</time></trkpt><trkpt lat="46.00078391285739" lon="12.027059867532868"><ele>870.0</ele><time>2026-05-03T06:04:19Z</time></trkpt><trkpt lat="46.00085441245637" lon="12.027125686905965"><ele>871.9999999999999</ele><time>2026-05-03T06:04:21Z</time></trkpt><trkpt lat="46.00090889901883" lon="12.027237534097871"><ele>874.0</ele><time>2026-05-03T06:04:23Z</time></trkpt><trkpt lat="46.00099642098271" lon="12.02734400484582"><ele>873.9999999999999</ele><time>2026-05-03T06:04:25Z</time></trkpt><trkpt lat="46.00107638505914" lon="12.027409236510483"><ele>874.0</ele><time>2026-05-03T06:04:27Z</time></trkpt><trkpt lat="46.0011474396215" lon="12.027485692292714"><ele>874.0</ele><time>2026-05-03T06:04:29Z</time></trkpt><trkpt lat="46.001227196801715" lon="12.027574123395775"><ele>874.0</ele><time>2026-05-03T06:04:31Z</time></trkpt><trkpt lat="46.001290219771704" lon="12.027627037580341"><ele>873.9999999999999</ele><time>2026-05-03T06:04:33Z</time></trkpt><trkpt lat="46.001324366698455" lon="12.02770480813616"><ele>874.0</ele><time>2026-05-03T06:04:35Z</time></trkpt><trkpt lat="46.00144395924645" lon="12.027734364543075"><ele>869.9999999999999</ele><time>2026-05-03T06:04:37Z</time></trkpt><trkpt lat="46.00147199843442" lon="12.027830517262625"><ele>866.0</ele><time>2026-05-03T06:04:39Z</time></trkpt><trkpt lat="46.001419511483434" lon="12.02788514944665"><ele>862.0</ele><time>2026-05-03T06:04:41Z</time></trkpt><trkpt lat="46.00135627338397" lon="12.027851541582322"><ele>858.0</ele><time>2026-05-03T06:04:43Z</time></trkpt><trkpt lat="46.00126774055257" lon="12.02782717645235"><ele>853.9999999999999</ele><time>2026-05-03T06:04:46Z</time></trkpt><trkpt lat="46.00118867261266" lon="12.027800060974275"><ele>850.0</ele><time>2026-05-03T06:04:48Z</time></trkpt><trkpt lat="46.001112878759805" lon="12.02779039555566"><ele>850.0</ele><time>2026-05-03T06:04:50Z</time></trkpt><trkpt lat="46.001043060154785" lon="12.027754994036702"><ele>850.0</ele><time>2026-05-03T06:04:52Z</time></trkpt><trkpt lat="46.00096421029128" lon="12.027743253439395"><ele>850.0</ele><time>2026-05-03T06:04:54Z</time></trkpt><trkpt lat="46.00090199494465" lon="12.027714459692259"><ele>850.0</ele><time>2026-05-03T06:04:56Z</time></trkpt><trkpt lat="46.00086656817029" lon="12.027797394520633"><ele>850.0</ele><time>2026-05-03T06:05:00Z</time></trkpt><trkpt lat="46.00093721625719" lon="12.027858875061838"><ele>850.0</ele><time>2026-05-03T06:05:03Z</time></trkpt><trkpt lat="46.00099092079724" lon="12.02790965018523"><ele>850.0</ele><time>2026-05-03T06:05:05Z</time></trkpt><trkpt lat="46.001059902941726" lon="12.027934379469883"><ele>849.9999999999999</ele><time>2026-05-03T06:05:08Z</time></trkpt><trkpt lat="46.00110781053335" lon="12.027994485008037"><ele>850.0</ele><time>2026-05-03T06:05:09.999Z</time></trkpt><trkpt lat="46.00116353409632" lon="12.028042416586793"><ele>850.0</ele><time>2026-05-03T06:05:11.999Z</time></trkpt><trkpt lat="46.001227198729566" lon="12.028099339760335"><ele>850.0</ele><time>2026-05-03T06:05:13.999Z</time></trkpt><trkpt lat="46.0012941325899" lon="12.028138509211624"><ele>849.9999999999999</ele><time>2026-05-03T06:05:15.999Z</time></trkpt><trkpt lat="46.00138706448426" lon="12.028188864198494"><ele>850.0</ele><time>2026-05-03T06:05:17.999Z</time></trkpt><trkpt lat="46.00148641655233" lon="12.028248961395903"><ele>845.2</ele><time>2026-05-03T06:05:19.999Z</time></trkpt><trkpt lat="46.00157912645785" lon="12.028321644728408"><ele>840.4</ele><time>2026-05-03T06:05:21.999Z</time></trkpt><trkpt lat="46.00166848502857" lon="12.028373537257227"><ele>835.5999999999999</ele><time>2026-05-03T06:05:24.999Z</time></trkpt><trkpt lat="46.00178283370215" lon="12.028457198974937"><ele>830.8</ele><time>2026-05-03T06:05:26.999Z</time></trkpt><trkpt lat="46.001866618493544" lon="12.028519230627698"><ele>826.0</ele><time>2026-05-03T06:05:28.999Z</time></trkpt><trkpt lat="46.00195213773685" lon="12.028520408906314"><ele>825.9999999999999</ele><time>2026-05-03T06:05:30.999Z</time></trkpt><trkpt lat="46.00201931927981" lon="12.028540941572853"><ele>826.0</ele><time>2026-05-03T06:05:31.999Z</time></trkpt><trkpt lat="46.00208233309235" lon="12.028557386228602"><ele>826.0</ele><time>2026-05-03T06:05:32.999Z</time></trkpt><trkpt lat="46.00217668441565" lon="12.028579432678885"><ele>826.0</ele><time>2026-05-03T06:05:34.999Z</time></trkpt><trkpt lat="46.002256616572836" lon="12.028610613296568"><ele>825.9999999999999</ele><time>2026-05-03T06:05:36.999Z</time></trkpt><trkpt lat="46.0022719083181" lon="12.028705730702043"><ele>826.0</ele><time>2026-05-03T06:05:38.999Z</time></trkpt><trkpt lat="46.0021878113553" lon="12.028759116170798"><ele>826.0</ele><time>2026-05-03T06:05:40.999Z</time></trkpt><trkpt lat="46.002099242886985" lon="12.02878646090701"><ele>826.0</ele><time>2026-05-03T06:05:42.999Z</time></trkpt><trkpt lat="46.00200647590356" lon="12.028830817975399"><ele>826.0</ele><time>2026-05-03T06:05:44.999Z</time></trkpt><trkpt lat="46.00192795108369" lon="12.028827525553245"><ele>826.0</ele><time>2026-05-03T06:05:46.999Z</time></trkpt><trkpt lat="46.0018557593696" lon="12.02883941558936"><ele>826.0</ele><time>2026-05-03T06:05:48.999Z</time></trkpt><trkpt lat="46.00173363167119" lon="12.02880839265427"><ele>825.9999999999999</ele><time>2026-05-03T06:05:51Z</time></trkpt><trkpt lat="46.00166716677737" lon="12.028849386495331"><ele>826.0</ele><time>2026-05-03T06:05:52Z</time></trkpt><trkpt lat="46.00158360574718" lon="12.028826843130613"><ele>826.0</ele><time>2026-05-03T06:05:54Z</time></trkpt><trkpt lat="46.001504217738194" lon="12.028817449439435"><ele>826.0</ele><time>2026-05-03T06:05:56Z</time></trkpt><trkpt lat="46.00153956533269" lon="12.02892845214654"><ele>825.9999999999999</ele><time>2026-05-03T06:06:02Z</time></trkpt><trkpt lat="46.00161383294664" lon="12.028979603741652"><ele>826.0</ele><time>2026-05-03T06:06:04Z</time></trkpt><trkpt lat="46.00167510932717" lon="12.029003206411891"><ele>825.9999999999999</ele><time>2026-05-03T06:06:06Z</time></trkpt><trkpt lat="46.00173822890885" lon="12.029002537708338"><ele>826.0</ele><time>2026-05-03T06:06:07Z</time></trkpt><trkpt lat="46.00177828622016" lon="12.029100220965672"><ele>826.0</ele><time>2026-05-03T06:06:08Z</time></trkpt><trkpt lat="46.00182792114518" lon="12.029183823418656"><ele>826.0</ele><time>2026-05-03T06:06:10Z</time></trkpt><trkpt lat="46.00188950584442" lon="12.029227525277655"><ele>825.9999999999999</ele><time>2026-05-03T06:06:11Z</time></trkpt><trkpt lat="46.00197705465873" lon="12.029257035835231"><ele>826.0</ele><time>2026-05-03T06:06:13Z</time></trkpt><trkpt lat="46.0020836218726" lon="12.029296332434473"><ele>826.0</ele><time>2026-05-03T06:06:15Z</time></trkpt><trkpt lat="46.0021837874998" lon="12.029334902903253"><ele>826.0</ele><time>2026-05-03T06:06:17Z</time></trkpt><trkpt lat="46.0022618197673" lon="12.02935284374921"><ele>826.0</ele><time>2026-05-03T06:06:19Z</time></trkpt><trkpt lat="46.00236122142707" lon="12.029275797860658"><ele>826.0</ele><time>2026-05-03T06:06:21Z</time></trkpt><trkpt lat="46.00242744456337" lon="12.02921385837259"><ele>826.0</ele><time>2026-05-03T06:06:23Z</time></trkpt><trkpt lat="46.00248813400287" lon="12.029081726195747"><ele>825.4999999999999</ele><time>2026-05-03T06:06:26Z</time></trkpt><trkpt lat="46.00255228841096" lon="12.02900200204255"><ele>825.0</ele><time>2026-05-03T06:06:28Z</time></trkpt><trkpt lat="46.0026390010346" lon="12.028970949293234"><ele>824.5</ele><time>2026-05-03T06:06:30Z</time></trkpt><trkpt lat="46.00274264041888" lon="12.029005789926405"><ele>824.0</ele><time>2026-05-03T06:06:33Z</time></trkpt><trkpt lat="46.00279191102231" lon="12.029106909907307"><ele>823.4999999999999</ele><time>2026-05-03T06:06:35Z</time></trkpt><trkpt lat="46.00284134613613" lon="12.029180782472048"><ele>823.0</ele><time>2026-05-03T06:06:37Z</time></trkpt><trkpt lat="46.00290465934295" lon="12.029230125521904"><ele>816.1666666666666</ele><time>2026-05-03T06:06:39Z</time></trkpt><trkpt lat="46.00296261158787" lon="12.029324209146763"><ele>809.3333333333333</ele><time>2026-05-03T06:06:41Z</time></trkpt><trkpt lat="46.00302824384927" lon="12.029412678318401"><ele>802.5</ele><time>2026-05-03T06:06:43Z</time></trkpt><trkpt lat="46.00307967825859" lon="12.029529673384344"><ele>795.6666666666667</ele><time>2026-05-03T06:06:45Z</time></trkpt><trkpt lat="46.00309277510539" lon="12.029633251524222"><ele>788.8333333333334</ele><time>2026-05-03T06:06:47Z</time></trkpt><trkpt lat="46.00311562766388" lon="12.029774514766999"><ele>782.0</ele><time>2026-05-03T06:06:49Z</time></trkpt><trkpt lat="46.00314331242573" lon="12.02991957258359"><ele>775.5000000000001</ele><time>2026-05-03T06:06:51Z</time></trkpt><trkpt lat="46.00313729629244" lon="12.030027478223413"><ele>769.0</ele><time>2026-05-03T06:06:53Z</time></trkpt><trkpt lat="46.00315123923492" lon="12.030139660903217"><ele>762.5</ele><time>2026-05-03T06:06:55Z</time></trkpt><trkpt lat="46.0031981010428" lon="12.030288502281444"><ele>756.0</ele><time>2026-05-03T06:06:57Z</time></trkpt><trkpt lat="46.00324457918391" lon="12.030375191869286"><ele>749.5</ele><time>2026-05-03T06:06:59Z</time></trkpt><trkpt lat="46.00326722685764" lon="12.03046844994158"><ele>743.0</ele><time>2026-05-03T06:07:01Z</time></trkpt><trkpt lat="46.00328335944974" lon="12.030583954193164"><ele>743.0</ele><time>2026-05-03T06:07:04.999Z</time></trkpt><trkpt lat="46.00326218865096" lon="12.030687469549214"><ele>743.0</ele><time>2026-05-03T06:07:07.999Z</time></trkpt><trkpt lat="46.00319863038192" lon="12.03065665796916"><ele>743.0</ele><time>2026-05-03T06:07:22.999Z</time></trkpt><trkpt lat="46.00316976831998" lon="12.030526656500198"><ele>743.0</ele><time>2026-05-03T06:07:40.999Z</time></trkpt><trkpt lat="46.00311717643259" lon="12.030406448915844"><ele>743.0</ele><time>2026-05-03T06:07:42.999Z</time></trkpt><trkpt lat="46.003092079707145" lon="12.030308248281093"><ele>743.0</ele><time>2026-05-03T06:07:44.999Z</time></trkpt><trkpt lat="46.00306560556905" lon="12.030191598635897"><ele>743.0</ele><time>2026-05-03T06:07:46.999Z</time></trkpt><trkpt lat="46.003040503223524" lon="12.030107320595972"><ele>743.0</ele><time>2026-05-03T06:07:48.999Z</time></trkpt><trkpt lat="46.00304215393302" lon="12.029988419061334"><ele>743.0</ele><time>2026-05-03T06:07:50.999Z</time></trkpt><trkpt lat="46.0030298428641" lon="12.029856326709325"><ele>743.0</ele><time>2026-05-03T06:07:52.999Z</time></trkpt><trkpt lat="46.00298667162019" lon="12.02973703603054"><ele>743.0</ele><time>2026-05-03T06:07:54.999Z</time></trkpt><trkpt lat="46.00288223250595" lon="12.029750418651185"><ele>743.0</ele><time>2026-05-03T06:07:57Z</time></trkpt><trkpt lat="46.00274781510534" lon="12.029623135373157"><ele>743.0</ele><time>2026-05-03T06:07:59Z</time></trkpt><trkpt lat="46.002634577677455" lon="12.029681309350309"><ele>743.0</ele><time>2026-05-03T06:08:04Z</time></trkpt><trkpt lat="46.00257315890135" lon="12.029813031562627"><ele>743.0</ele><time>2026-05-03T06:08:06Z</time></trkpt><trkpt lat="46.00248091783459" lon="12.029903800376575"><ele>743.0</ele><time>2026-05-03T06:08:08Z</time></trkpt><trkpt lat="46.0024253366731" lon="12.029955969189372"><ele>743.0</ele><time>2026-05-03T06:08:09Z</time></trkpt><trkpt lat="46.002314083725146" lon="12.030008615061409"><ele>743.0</ele><time>2026-05-03T06:08:11Z</time></trkpt><trkpt lat="46.00225285890207" lon="12.030061157114242"><ele>743.0</ele><time>2026-05-03T06:08:12Z</time></trkpt><trkpt lat="46.00216441461548" lon="12.030100925888286"><ele>743.0</ele><time>2026-05-03T06:08:14Z</time></trkpt><trkpt lat="46.00206774589415" lon="12.030028943445414"><ele>743.0</ele><time>2026-05-03T06:08:16Z</time></trkpt><trkpt lat="46.00199257542403" lon="12.030005388800772"><ele>743.0</ele><time>2026-05-03T06:08:17Z</time></trkpt><trkpt lat="46.00185845603837" lon="12.029956203677797"><ele>741.0</ele><time>2026-05-03T06:08:19Z</time></trkpt><trkpt lat="46.001793810001374" lon="12.029933371731659"><ele>739.0</ele><time>2026-05-03T06:08:20Z</time></trkpt><trkpt lat="46.00168173640188" lon="12.029899916867173"><ele>737.0</ele><time>2026-05-03T06:08:22Z</time></trkpt><trkpt lat="46.00156330636518" lon="12.02991405638125"><ele>735.0</ele><time>2026-05-03T06:08:24Z</time></trkpt><trkpt lat="46.00146317887306" lon="12.029982289294667"><ele>733.0</ele><time>2026-05-03T06:08:26Z</time></trkpt><trkpt lat="46.00136212146415" lon="12.030017479154505"><ele>733.0</ele><time>2026-05-03T06:08:28Z</time></trkpt><trkpt lat="46.00128931060902" lon="12.02999446136469"><ele>733.0</ele><time>2026-05-03T06:08:29Z</time></trkpt><trkpt lat="46.00121253805803" lon="12.030007534793164"><ele>733.0</ele><time>2026-05-03T06:08:30Z</time></trkpt><trkpt lat="46.00114520415472" lon="12.030014323044432"><ele>733.0</ele><time>2026-05-03T06:08:31Z</time></trkpt><trkpt lat="46.00107130538625" lon="12.02999928132903"><ele>733.0</ele><time>2026-05-03T06:08:32Z</time></trkpt><trkpt lat="46.00098472659486" lon="12.029977303938876"><ele>733.0</ele><time>2026-05-03T06:08:33Z</time></trkpt><trkpt lat="46.00090388075528" lon="12.029952907425832"><ele>736.5714285714286</ele><time>2026-05-03T06:08:34Z</time></trkpt><trkpt lat="46.000828497062564" lon="12.029932810939087"><ele>740.1428571428571</ele><time>2026-05-03T06:08:35Z</time></trkpt><trkpt lat="46.00076309914908" lon="12.029915296615934"><ele>743.7142857142858</ele><time>2026-05-03T06:08:36Z</time></trkpt><trkpt lat="46.00069813666157" lon="12.0299134773135"><ele>747.2857142857142</ele><time>2026-05-03T06:08:37Z</time></trkpt><trkpt lat="46.000635800091516" lon="12.029894967719036"><ele>750.8571428571429</ele><time>2026-05-03T06:08:38Z</time></trkpt><trkpt lat="46.00056212518608" lon="12.02988128243444"><ele>754.4285714285714</ele><time>2026-05-03T06:08:39Z</time></trkpt><trkpt lat="46.000476607858886" lon="12.029870587932864"><ele>758.0</ele><time>2026-05-03T06:08:40Z</time></trkpt><trkpt lat="46.00038616880341" lon="12.029856996383904"><ele>758.0</ele><time>2026-05-03T06:08:41Z</time></trkpt><trkpt lat="46.00031085544853" lon="12.02984546220956"><ele>758.0</ele><time>2026-05-03T06:08:42Z</time></trkpt><trkpt lat="46.00024359688983" lon="12.029826095092435"><ele>758.0</ele><time>2026-05-03T06:08:43Z</time></trkpt><trkpt lat="46.0001620863277" lon="12.02982289923274"><ele>758.0</ele><time>2026-05-03T06:08:44Z</time></trkpt><trkpt lat="46.00009069728228" lon="12.029825265686352"><ele>758.0</ele><time>2026-05-03T06:08:45Z</time></trkpt><trkpt lat="45.99996035593043" lon="12.029796711331302"><ele>758.0</ele><time>2026-05-03T06:08:47Z</time></trkpt><trkpt lat="45.99989837304203" lon="12.02977655610358"><ele>758.0</ele><time>2026-05-03T06:08:48Z</time></trkpt><trkpt lat="45.99978371765557" lon="12.029767433170816"><ele>758.0</ele><time>2026-05-03T06:08:50Z</time></trkpt><trkpt lat="45.999737856915246" lon="12.029701096595682"><ele>758.0</ele><time>2026-05-03T06:08:51Z</time></trkpt><trkpt lat="45.99962072643284" lon="12.029697540137718"><ele>758.0</ele><time>2026-05-03T06:08:52Z</time></trkpt><trkpt lat="45.999546462349144" lon="12.029680151790618"><ele>758.0</ele><time>2026-05-03T06:08:53Z</time></trkpt><trkpt lat="45.99946871345749" lon="12.029677146460092"><ele>758.0</ele><time>2026-05-03T06:08:54Z</time></trkpt><trkpt lat="45.99936949267548" lon="12.029675278070226"><ele>758.0</ele><time>2026-05-03T06:08:56Z</time></trkpt><trkpt lat="45.999247337853554" lon="12.029663945580653"><ele>758.0</ele><time>2026-05-03T06:08:59Z</time></trkpt><trkpt lat="45.99913663017859" lon="12.02960562053632"><ele>758.0</ele><time>2026-05-03T06:09:01Z</time></trkpt><trkpt lat="45.999030129618255" lon="12.029535589952891"><ele>756.5999999999999</ele><time>2026-05-03T06:09:03Z</time></trkpt><trkpt lat="45.998960581728205" lon="12.029460029557054"><ele>755.1999999999999</ele><time>2026-05-03T06:09:05Z</time></trkpt><trkpt lat="45.99888133797951" lon="12.029362659664983"><ele>753.8</ele><time>2026-05-03T06:09:07Z</time></trkpt><trkpt lat="45.998817044970565" lon="12.029296903987952"><ele>752.4</ele><time>2026-05-03T06:09:09Z</time></trkpt><trkpt lat="45.99872076441563" lon="12.029176365866604"><ele>751.0</ele><time>2026-05-03T06:09:11Z</time></trkpt><trkpt lat="45.99869019593936" lon="12.02907833508598"><ele>751.0</ele><time>2026-05-03T06:09:12Z</time></trkpt><trkpt lat="45.998657052026545" lon="12.028944702774776"><ele>751.0</ele><time>2026-05-03T06:09:15Z</time></trkpt><trkpt lat="45.998616676962115" lon="12.028873232170453"><ele>751.0</ele><time>2026-05-03T06:09:16Z</time></trkpt><trkpt lat="45.99862019989401" lon="12.028727944708267"><ele>751.0</ele><time>2026-05-03T06:09:18Z</time></trkpt><trkpt lat="45.99858154420759" lon="12.028608552091297"><ele>751.0</ele><time>2026-05-03T06:09:20Z</time></trkpt><trkpt lat="45.998582414627094" lon="12.028449776010135"><ele>751.0</ele><time>2026-05-03T06:09:22Z</time></trkpt><trkpt lat="45.99853867841696" lon="12.028368522139766"><ele>751.0</ele><time>2026-05-03T06:09:24Z</time></trkpt><trkpt lat="45.99844872511749" lon="12.028344961847303"><ele>751.0</ele><time>2026-05-03T06:09:26Z</time></trkpt><trkpt lat="45.99835214795467" lon="12.028353045337438"><ele>751.0</ele><time>2026-05-03T06:09:28.999Z</time></trkpt><trkpt lat="45.99827396114217" lon="12.028309092024053"><ele>751.0</ele><time>2026-05-03T06:09:31.999Z</time></trkpt><trkpt lat="45.998213641706485" lon="12.02836822509101"><ele>751.0</ele><time>2026-05-03T06:09:34.999Z</time></trkpt><trkpt lat="45.998154415212795" lon="12.028447828150766"><ele>751.0</ele><time>2026-05-03T06:11:37Z</time></trkpt><trkpt lat="45.99824774590609" lon="12.028473553080012"><ele>751.0</ele><time>2026-05-03T06:11:50.999Z</time></trkpt><trkpt lat="45.99834337117474" lon="12.028570592380268"><ele>751.0</ele><time>2026-05-03T06:11:52.999Z</time></trkpt><trkpt lat="45.99836874647671" lon="12.028656711021336"><ele>751.0</ele><time>2026-05-03T06:11:54.999Z</time></trkpt><trkpt lat="45.99837671708079" lon="12.028755680826979"><ele>751.0</ele><time>2026-05-03T06:11:56.999Z</time></trkpt><trkpt lat="45.99836486187458" lon="12.02885823371284"><ele>751.0</ele><time>2026-05-03T06:11:58.999Z</time></trkpt><trkpt lat="45.99834302505681" lon="12.028948267507307"><ele>751.0</ele><time>2026-05-03T06:11:59.999Z</time></trkpt><trkpt lat="45.998334938823966" lon="12.029079461254483"><ele>751.0</ele><time>2026-05-03T06:12:01.999Z</time></trkpt><trkpt lat="45.998376113568156" lon="12.029189402003391"><ele>751.0</ele><time>2026-05-03T06:12:03.999Z</time></trkpt><trkpt lat="45.99842237859562" lon="12.029267433125918"><ele>751.0</ele><time>2026-05-03T06:12:05.999Z</time></trkpt><trkpt lat="45.99847038738805" lon="12.02936057769841"><ele>751.0</ele><time>2026-05-03T06:12:08Z</time></trkpt><trkpt lat="45.998504869182916" lon="12.029508447369631"><ele>751.0</ele><time>2026-05-03T06:12:10Z</time></trkpt><trkpt lat="45.99851774912752" lon="12.029614663270161"><ele>747.6666666666667</ele><time>2026-05-03T06:12:12Z</time></trkpt><trkpt lat="45.998535118848444" lon="12.029710100853908"><ele>744.3333333333334</ele><time>2026-05-03T06:12:14Z</time></trkpt><trkpt lat="45.998548943561225" lon="12.02981355762944"><ele>741.0</ele><time>2026-05-03T06:12:16Z</time></trkpt><trkpt lat="45.99854939153063" lon="12.029906050085033"><ele>737.6666666666666</ele><time>2026-05-03T06:12:26Z</time></trkpt><trkpt lat="45.99854337701015" lon="12.029798029270069"><ele>734.3333333333333</ele><time>2026-05-03T06:12:42Z</time></trkpt><trkpt lat="45.998517274772944" lon="12.029656930017616"><ele>731.0</ele><time>2026-05-03T06:12:44Z</time></trkpt><trkpt lat="45.99847577235616" lon="12.029487083449133"><ele>731.0</ele><time>2026-05-03T06:12:46Z</time></trkpt><trkpt lat="45.99843631569293" lon="12.029368152099403"><ele>731.0</ele><time>2026-05-03T06:12:48Z</time></trkpt><trkpt lat="45.99840088722775" lon="12.029287366246514"><ele>731.0</ele><time>2026-05-03T06:12:51Z</time></trkpt><trkpt lat="45.99838570834918" lon="12.029395913372671"><ele>731.0</ele><time>2026-05-03T06:13:02Z</time></trkpt><trkpt lat="45.9983987685921" lon="12.02949398887252"><ele>731.0</ele><time>2026-05-03T06:13:04Z</time></trkpt><trkpt lat="45.998404967949824" lon="12.029604379021805"><ele>731.0</ele><time>2026-05-03T06:13:06Z</time></trkpt><trkpt lat="45.99843572908194" lon="12.029722277275829"><ele>731.0</ele><time>2026-05-03T06:13:08Z</time></trkpt><trkpt lat="45.99845953475318" lon="12.029856927175766"><ele>731.0</ele><time>2026-05-03T06:13:10Z</time></trkpt><trkpt lat="45.998463174233855" lon="12.030004062025684"><ele>731.0</ele><time>2026-05-03T06:13:12Z</time></trkpt><trkpt lat="45.998474835148016" lon="12.03011550641014"><ele>731.0</ele><time>2026-05-03T06:13:14Z</time></trkpt><trkpt lat="45.9985327275976" lon="12.030270136648735"><ele>731.0</ele><time>2026-05-03T06:13:16Z</time></trkpt><trkpt lat="45.99860496330224" lon="12.030365143736075"><ele>724.0</ele><time>2026-05-03T06:13:18Z</time></trkpt><trkpt lat="45.9986622374355" lon="12.03045045554414"><ele>717.0</ele><time>2026-05-03T06:13:20Z</time></trkpt><trkpt lat="45.99876872138676" lon="12.030464726453298"><ele>710.0</ele><time>2026-05-03T06:13:23Z</time></trkpt><trkpt lat="45.99882383538058" lon="12.030550756061166"><ele>703.0</ele><time>2026-05-03T06:13:25Z</time></trkpt><trkpt lat="45.99892253434588" lon="12.030661615451349"><ele>696.0</ele><time>2026-05-03T06:13:27Z</time></trkpt><trkpt lat="45.99899643274002" lon="12.03075399697402"><ele>696.0</ele><time>2026-05-03T06:13:29Z</time></trkpt><trkpt lat="45.99905656699123" lon="12.030784840859765"><ele>696.0</ele><time>2026-05-03T06:13:30Z</time></trkpt><trkpt lat="45.999174633360255" lon="12.030818061823375"><ele>696.0</ele><time>2026-05-03T06:13:31.999Z</time></trkpt><trkpt lat="45.99926195047253" lon="12.03081668071576"><ele>696.0</ele><time>2026-05-03T06:13:32.999Z</time></trkpt><trkpt lat="45.99934171221868" lon="12.030857467375835"><ele>696.0</ele><time>2026-05-03T06:13:33.999Z</time></trkpt><trkpt lat="45.99942976934975" lon="12.0308753737546"><ele>696.0</ele><time>2026-05-03T06:13:34.999Z</time></trkpt><trkpt lat="45.99949035646152" lon="12.030911395444765"><ele>691.8</ele><time>2026-05-03T06:13:35.999Z</time></trkpt><trkpt lat="45.99955879256823" lon="12.030939252558529"><ele>687.5999999999999</ele><time>2026-05-03T06:13:36.999Z</time></trkpt><trkpt lat="45.9996596101758" lon="12.030993637613507"><ele>683.4</ele><time>2026-05-03T06:13:38.999Z</time></trkpt><trkpt lat="45.999740548168454" lon="12.031079067247834"><ele>679.2</ele><time>2026-05-03T06:13:39.999Z</time></trkpt><trkpt lat="45.999836773237156" lon="12.031143431290664"><ele>675.0</ele><time>2026-05-03T06:13:40.999Z</time></trkpt><trkpt lat="45.99990963204967" lon="12.031201957144036"><ele>675.0</ele><time>2026-05-03T06:13:41.999Z</time></trkpt><trkpt lat="45.99998578130182" lon="12.031261311157094"><ele>675.0</ele><time>2026-05-03T06:13:42.999Z</time></trkpt><trkpt lat="46.00004815625029" lon="12.031343747695274"><ele>675.0</ele><time>2026-05-03T06:13:43.999Z</time></trkpt><trkpt lat="46.00012413474073" lon="12.031425799172347"><ele>675.0</ele><time>2026-05-03T06:13:44.999Z</time></trkpt><trkpt lat="46.000208170624454" lon="12.031483941888027"><ele>675.0</ele><time>2026-05-03T06:13:45.999Z</time></trkpt><trkpt lat="46.0002863751379" lon="12.03153685364338"><ele>675.0</ele><time>2026-05-03T06:13:46.999Z</time></trkpt><trkpt lat="46.00035856708362" lon="12.031590839624037"><ele>675.0</ele><time>2026-05-03T06:13:47.999Z</time></trkpt><trkpt lat="46.000434968872916" lon="12.031622183772699"><ele>675.0</ele><time>2026-05-03T06:13:48.999Z</time></trkpt><trkpt lat="46.00050591281691" lon="12.03164460500206"><ele>675.0</ele><time>2026-05-03T06:13:49.999Z</time></trkpt><trkpt lat="46.00057143936257" lon="12.031688457106302"><ele>675.0</ele><time>2026-05-03T06:13:50.999Z</time></trkpt><trkpt lat="46.000638838901196" lon="12.031716626656724"><ele>675.0</ele><time>2026-05-03T06:13:51.999Z</time></trkpt><trkpt lat="46.00072841376306" lon="12.03176389304671"><ele>675.0</ele><time>2026-05-03T06:13:53.999Z</time></trkpt><trkpt lat="46.00090674615003" lon="12.031831741905485"><ele>671.0</ele><time>2026-05-03T06:13:55.999Z</time></trkpt><trkpt lat="46.000993596611224" lon="12.03184207683243"><ele>667.0</ele><time>2026-05-03T06:13:56.999Z</time></trkpt><trkpt lat="46.001118018412384" lon="12.03183682942076"><ele>663.0</ele><time>2026-05-03T06:13:58.999Z</time></trkpt><trkpt lat="46.00124435406932" lon="12.03180460488251"><ele>659.0</ele><time>2026-05-03T06:14:00.999Z</time></trkpt><trkpt lat="46.00132932552768" lon="12.031724448536739"><ele>655.0</ele><time>2026-05-03T06:14:02.999Z</time></trkpt><trkpt lat="46.00138577456229" lon="12.031663963817353"><ele>664.0</ele><time>2026-05-03T06:14:03.999Z</time></trkpt><trkpt lat="46.001524714279114" lon="12.031554206052789"><ele>673.0</ele><time>2026-05-03T06:14:04.999Z</time></trkpt><trkpt lat="46.001653214775416" lon="12.031495516791995"><ele>682.0</ele><time>2026-05-03T06:14:05.999Z</time></trkpt><trkpt lat="46.001729743450305" lon="12.031490638989007"><ele>691.0</ele><time>2026-05-03T06:14:06.999Z</time></trkpt><trkpt lat="46.0018067114912" lon="12.031454889882738"><ele>691.0</ele><time>2026-05-03T06:14:07.999Z</time></trkpt><trkpt lat="46.001918351036494" lon="12.031503464773802"><ele>691.0</ele><time>2026-05-03T06:14:08.999Z</time></trkpt><trkpt lat="46.00197447724591" lon="12.031587796242276"><ele>691.0</ele><time>2026-05-03T06:14:11.999Z</time></trkpt><trkpt lat="46.00190092543704" lon="12.031698195241159"><ele>691.0</ele><time>2026-05-03T06:14:14Z</time></trkpt><trkpt lat="46.0018242561532" lon="12.031816541448789"><ele>691.0</ele><time>2026-05-03T06:14:16Z</time></trkpt><trkpt lat="46.0017940889651" lon="12.031956774572853"><ele>684.0</ele><time>2026-05-03T06:14:18Z</time></trkpt><trkpt lat="46.0017938355958" lon="12.032173563067618"><ele>677.0</ele><time>2026-05-03T06:14:20Z</time></trkpt><trkpt lat="46.00181164644713" lon="12.032296786063947"><ele>670.0</ele><time>2026-05-03T06:14:21Z</time></trkpt><trkpt lat="46.001835620428956" lon="12.032426138351694"><ele>663.0</ele><time>2026-05-03T06:14:22Z</time></trkpt><trkpt lat="46.001862301104914" lon="12.032569706984265"><ele>656.0</ele><time>2026-05-03T06:14:23Z</time></trkpt><trkpt lat="46.00187778856625" lon="12.032696324190425"><ele>650.0</ele><time>2026-05-03T06:14:24Z</time></trkpt><trkpt lat="46.00189825000045" lon="12.032811545642385"><ele>644.0</ele><time>2026-05-03T06:14:25Z</time></trkpt><trkpt lat="46.00191176886776" lon="12.032906838862711"><ele>638.0</ele><time>2026-05-03T06:14:26Z</time></trkpt><trkpt lat="46.001930228442134" lon="12.033012472248808"><ele>632.0</ele><time>2026-05-03T06:14:27Z</time></trkpt><trkpt lat="46.001959293770476" lon="12.033186838772528"><ele>626.0</ele><time>2026-05-03T06:14:29Z</time></trkpt><trkpt lat="46.002004099762615" lon="12.033356510254203"><ele>621.2</ele><time>2026-05-03T06:14:31Z</time></trkpt><trkpt lat="46.00207699787187" lon="12.033485013933426"><ele>616.4000000000001</ele><time>2026-05-03T06:14:33Z</time></trkpt><trkpt lat="46.00212418695755" lon="12.033612911498789"><ele>611.6</ele><time>2026-05-03T06:14:35Z</time></trkpt><trkpt lat="46.002151005870935" lon="12.033748866026274"><ele>606.8000000000001</ele><time>2026-05-03T06:14:37Z</time></trkpt><trkpt lat="46.002175072046796" lon="12.033886520760424"><ele>602.0</ele><time>2026-05-03T06:14:39Z</time></trkpt><trkpt lat="46.0022216062611" lon="12.03400205870656"><ele>602.0</ele><time>2026-05-03T06:14:41Z</time></trkpt><trkpt lat="46.00229894445853" lon="12.03403997291333"><ele>602.0</ele><time>2026-05-03T06:14:43Z</time></trkpt><trkpt lat="46.00239045052604" lon="12.034008493720322"><ele>602.0</ele><time>2026-05-03T06:14:45Z</time></trkpt><trkpt lat="46.002459440174306" lon="12.03401189066049"><ele>602.0</ele><time>2026-05-03T06:14:46Z</time></trkpt><trkpt lat="46.002531373608825" lon="12.034019751671238"><ele>602.0</ele><time>2026-05-03T06:14:47Z</time></trkpt><trkpt lat="46.00261761997561" lon="12.034048186745624"><ele>602.0</ele><time>2026-05-03T06:14:48Z</time></trkpt><trkpt lat="46.00270603466867" lon="12.034082947302752"><ele>604.2</ele><time>2026-05-03T06:14:49Z</time></trkpt><trkpt lat="46.00279632732746" lon="12.034107500470059"><ele>606.4000000000001</ele><time>2026-05-03T06:14:50Z</time></trkpt><trkpt lat="46.00288983151817" lon="12.034118168650409"><ele>608.5999999999999</ele><time>2026-05-03T06:14:51Z</time></trkpt><trkpt lat="46.00298539252419" lon="12.034124149898156"><ele>610.8</ele><time>2026-05-03T06:14:52Z</time></trkpt><trkpt lat="46.003079216495635" lon="12.034137868045816"><ele>613.0</ele><time>2026-05-03T06:14:53Z</time></trkpt><trkpt lat="46.00317407660066" lon="12.034150653560989"><ele>613.0</ele><time>2026-05-03T06:14:54Z</time></trkpt><trkpt lat="46.00325463447201" lon="12.03416466493424"><ele>613.0</ele><time>2026-05-03T06:14:55Z</time></trkpt><trkpt lat="46.00334950766046" lon="12.034194629561252"><ele>613.0</ele><time>2026-05-03T06:14:56Z</time></trkpt><trkpt lat="46.0034189588138" lon="12.034220795542067"><ele>613.0</ele><time>2026-05-03T06:14:57Z</time></trkpt><trkpt lat="46.00350227050298" lon="12.034242607683241"><ele>613.0</ele><time>2026-05-03T06:14:59Z</time></trkpt><trkpt lat="46.0036015715271" lon="12.034163255870702"><ele>613.0</ele><time>2026-05-03T06:15:01Z</time></trkpt><trkpt lat="46.00367898317197" lon="12.034100107031794"><ele>615.0</ele><time>2026-05-03T06:15:02Z</time></trkpt><trkpt lat="46.00375689245373" lon="12.034058353184028"><ele>617.0</ele><time>2026-05-03T06:15:03Z</time></trkpt><trkpt lat="46.00384280665681" lon="12.034002126529462"><ele>619.0</ele><time>2026-05-03T06:15:04Z</time></trkpt><trkpt lat="46.0039330841457" lon="12.033958415754048"><ele>621.0</ele><time>2026-05-03T06:15:05Z</time></trkpt><trkpt lat="46.00400258199716" lon="12.033927682970969"><ele>623.0</ele><time>2026-05-03T06:15:06Z</time></trkpt><trkpt lat="46.00408889582704" lon="12.033866677986106"><ele>625.0</ele><time>2026-05-03T06:15:08Z</time></trkpt><trkpt lat="46.00416906701594" lon="12.033810600362019"><ele>625.0</ele><time>2026-05-03T06:15:10Z</time></trkpt><trkpt lat="46.00425040706899" lon="12.033728030263886"><ele>625.0</ele><time>2026-05-03T06:15:12Z</time></trkpt><trkpt lat="46.00424281043103" lon="12.033633523303333"><ele>625.0</ele><time>2026-05-03T06:15:13Z</time></trkpt><trkpt lat="46.00431790639949" lon="12.033539395094508"><ele>625.0</ele><time>2026-05-03T06:15:14Z</time></trkpt><trkpt lat="46.004309693419806" lon="12.03343203832797"><ele>625.0</ele><time>2026-05-03T06:15:15Z</time></trkpt><trkpt lat="46.004362973862925" lon="12.03332248731378"><ele>625.0</ele><time>2026-05-03T06:15:17Z</time></trkpt><trkpt lat="46.00445928090208" lon="12.033243163819366"><ele>625.0</ele><time>2026-05-03T06:15:20Z</time></trkpt><trkpt lat="46.00452401776775" lon="12.033172527441478"><ele>625.0</ele><time>2026-05-03T06:15:21Z</time></trkpt><trkpt lat="46.00462613670249" lon="12.033139509910011"><ele>625.0</ele><time>2026-05-03T06:15:23Z</time></trkpt><trkpt lat="46.00468567048685" lon="12.033240663592917"><ele>625.0</ele><time>2026-05-03T06:15:25Z</time></trkpt><trkpt lat="46.00474749092847" lon="12.033327295562897"><ele>625.0</ele><time>2026-05-03T06:15:26Z</time></trkpt><trkpt lat="46.00478005268958" lon="12.033507753957531"><ele>625.0</ele><time>2026-05-03T06:15:28Z</time></trkpt><trkpt lat="46.00477029385159" lon="12.033621530336497"><ele>625.0</ele><time>2026-05-03T06:15:29Z</time></trkpt><trkpt lat="46.004773696377164" lon="12.033777881216025"><ele>625.0</ele><time>2026-05-03T06:15:31Z</time></trkpt><trkpt lat="46.00483647719641" lon="12.033898293321911"><ele>625.0</ele><time>2026-05-03T06:15:33Z</time></trkpt><trkpt lat="46.004888323108325" lon="12.033956841239482"><ele>625.0</ele><time>2026-05-03T06:15:34Z</time></trkpt><trkpt lat="46.004947923751196" lon="12.03402529575945"><ele>625.0</ele><time>2026-05-03T06:15:35Z</time></trkpt><trkpt lat="46.005003075914665" lon="12.034124261095496"><ele>618.8333333333334</ele><time>2026-05-03T06:15:36Z</time></trkpt><trkpt lat="46.00504812842722" lon="12.034241892219768"><ele>612.6666666666667</ele><time>2026-05-03T06:15:37Z</time></trkpt><trkpt lat="46.00509380180291" lon="12.034314131205756"><ele>606.5</ele><time>2026-05-03T06:15:38Z</time></trkpt><trkpt lat="46.00512764181946" lon="12.034420326543229"><ele>600.3333333333334</ele><time>2026-05-03T06:15:39Z</time></trkpt><trkpt lat="46.005204995915264" lon="12.034427680632332"><ele>594.1666666666666</ele><time>2026-05-03T06:15:40Z</time></trkpt><trkpt lat="46.00530196117105" lon="12.034486540491299"><ele>588.0</ele><time>2026-05-03T06:15:42Z</time></trkpt><trkpt lat="46.00536852907164" lon="12.034494712423106"><ele>588.0</ele><time>2026-05-03T06:15:43Z</time></trkpt><trkpt lat="46.00548864707988" lon="12.034475884232895"><ele>588.0</ele><time>2026-05-03T06:15:45Z</time></trkpt><trkpt lat="46.00559836594998" lon="12.034527115416513"><ele>588.0</ele><time>2026-05-03T06:15:47Z</time></trkpt><trkpt lat="46.00566264955358" lon="12.034574941754666"><ele>588.0</ele><time>2026-05-03T06:15:48Z</time></trkpt><trkpt lat="46.00572420518384" lon="12.034635457975527"><ele>588.0</ele><time>2026-05-03T06:15:50Z</time></trkpt><trkpt lat="46.00579729162966" lon="12.034664437085409"><ele>590.8</ele><time>2026-05-03T06:15:51Z</time></trkpt><trkpt lat="46.00587390167461" lon="12.034796007765314"><ele>593.5999999999999</ele><time>2026-05-03T06:15:52Z</time></trkpt><trkpt lat="46.0060103894818" lon="12.034780476576993"><ele>596.4000000000001</ele><time>2026-05-03T06:15:53Z</time></trkpt><trkpt lat="46.0060748996033" lon="12.03477393224105"><ele>599.2</ele><time>2026-05-03T06:15:54Z</time></trkpt><trkpt lat="46.00617412503617" lon="12.03476324614805"><ele>602.0</ele><time>2026-05-03T06:15:55Z</time></trkpt><trkpt lat="46.006240462149925" lon="12.034806831363792"><ele>602.0</ele><time>2026-05-03T06:15:56Z</time></trkpt><trkpt lat="46.006336483852216" lon="12.034755149889575"><ele>602.0</ele><time>2026-05-03T06:15:57Z</time></trkpt><trkpt lat="46.00645267675907" lon="12.034833034974225"><ele>602.0</ele><time>2026-05-03T06:15:59Z</time></trkpt><trkpt lat="46.006570174728374" lon="12.034924302584967"><ele>602.0</ele><time>2026-05-03T06:16:00.999Z</time></trkpt><trkpt lat="46.00665472984933" lon="12.034941630692392"><ele>595.4</ele><time>2026-05-03T06:16:01.999Z</time></trkpt><trkpt lat="46.006752361747346" lon="12.035070996336449"><ele>588.8000000000001</ele><time>2026-05-03T06:16:03.999Z</time></trkpt><trkpt lat="46.00683012848316" lon="12.035141228116625"><ele>582.2</ele><time>2026-05-03T06:16:04.999Z</time></trkpt><trkpt lat="46.006891515738644" lon="12.035211174504528"><ele>575.6</ele><time>2026-05-03T06:16:05.999Z</time></trkpt><trkpt lat="46.00699125022757" lon="12.03525288723127"><ele>569.0</ele><time>2026-05-03T06:16:07.999Z</time></trkpt><trkpt lat="46.00706399303918" lon="12.035231356233808"><ele>569.0</ele><time>2026-05-03T06:16:09.999Z</time></trkpt><trkpt lat="46.00713156164013" lon="12.035183549441443"><ele>569.0</ele><time>2026-05-03T06:16:33Z</time></trkpt><trkpt lat="46.007253619357016" lon="12.035175690787565"><ele>569.0</ele><time>2026-05-03T06:16:36Z</time></trkpt><trkpt lat="46.007315612237186" lon="12.035226393343223"><ele>569.0</ele><time>2026-05-03T06:16:38Z</time></trkpt><trkpt lat="46.007410530649125" lon="12.03520806987246"><ele>569.0</ele><time>2026-05-03T06:16:39Z</time></trkpt><trkpt lat="46.00748702656954" lon="12.035181385644238"><ele>569.0</ele><time>2026-05-03T06:16:40Z</time></trkpt><trkpt lat="46.007613259390915" lon="12.035193196132706"><ele>568.4</ele><time>2026-05-03T06:16:42Z</time></trkpt><trkpt lat="46.007671574882636" lon="12.035060019591205"><ele>567.8</ele><time>2026-05-03T06:16:44Z</time></trkpt><trkpt lat="46.007758208118545" lon="12.03493418193437"><ele>567.2</ele><time>2026-05-03T06:16:46Z</time></trkpt><trkpt lat="46.00783119130168" lon="12.034926827761176"><ele>566.6</ele><time>2026-05-03T06:16:47Z</time></trkpt><trkpt lat="46.007889607924774" lon="12.034876144020464"><ele>566.0</ele><time>2026-05-03T06:16:48Z</time></trkpt><trkpt lat="46.007959953709765" lon="12.03477094881018"><ele>571.6666666666666</ele><time>2026-05-03T06:16:49Z</time></trkpt><trkpt lat="46.00804782696711" lon="12.03470587560051"><ele>577.3333333333333</ele><time>2026-05-03T06:16:50Z</time></trkpt><trkpt lat="46.0081377493293" lon="12.034658035591882"><ele>583.0</ele><time>2026-05-03T06:16:52Z</time></trkpt><trkpt lat="46.00821461748415" lon="12.034683015055668"><ele>588.6666666666666</ele><time>2026-05-03T06:16:53Z</time></trkpt><trkpt lat="46.008295316337694" lon="12.034733969981268"><ele>594.3333333333334</ele><time>2026-05-03T06:16:54Z</time></trkpt><trkpt lat="46.00835433720945" lon="12.034776030842508"><ele>600.0</ele><time>2026-05-03T06:16:55Z</time></trkpt><trkpt lat="46.00838964761267" lon="12.034855274841332"><ele>600.0</ele><time>2026-05-03T06:16:56Z</time></trkpt><trkpt lat="46.00841277625381" lon="12.03497062771477"><ele>600.0</ele><time>2026-05-03T06:16:57Z</time></trkpt><trkpt lat="46.008450571377345" lon="12.035169690940725"><ele>600.0</ele><time>2026-05-03T06:16:59Z</time></trkpt><trkpt lat="46.00848388351599" lon="12.035287975224739"><ele>600.0</ele><time>2026-05-03T06:17:00Z</time></trkpt><trkpt lat="46.008519980348005" lon="12.035393232821253"><ele>600.0</ele><time>2026-05-03T06:17:01Z</time></trkpt><trkpt lat="46.00855105983658" lon="12.035475809976772"><ele>594.6666666666666</ele><time>2026-05-03T06:17:02Z</time></trkpt><trkpt lat="46.00859880824347" lon="12.03555800123868"><ele>589.3333333333334</ele><time>2026-05-03T06:17:03Z</time></trkpt><trkpt lat="46.00864532949274" lon="12.03563413648488"><ele>584.0</ele><time>2026-05-03T06:17:04Z</time></trkpt><trkpt lat="46.008736854305816" lon="12.035706155349997"><ele>578.6666666666667</ele><time>2026-05-03T06:17:06Z</time></trkpt><trkpt lat="46.008842433346445" lon="12.035745345258078"><ele>573.3333333333334</ele><time>2026-05-03T06:17:08Z</time></trkpt><trkpt lat="46.00891108929125" lon="12.035759048176052"><ele>568.0</ele><time>2026-05-03T06:17:09Z</time></trkpt><trkpt lat="46.00900564325291" lon="12.03576700145657"><ele>568.0</ele><time>2026-05-03T06:17:10Z</time></trkpt><trkpt lat="46.00909329789373" lon="12.035798002653626"><ele>568.0</ele><time>2026-05-03T06:17:11Z</time></trkpt><trkpt lat="46.00915534885998" lon="12.035827280049178"><ele>568.0</ele><time>2026-05-03T06:17:12Z</time></trkpt><trkpt lat="46.00923551804382" lon="12.035919660123925"><ele>568.0</ele><time>2026-05-03T06:17:14Z</time></trkpt><trkpt lat="46.00931393495747" lon="12.03594404209577"><ele>568.0</ele><time>2026-05-03T06:17:16Z</time></trkpt><trkpt lat="46.00941927356659" lon="12.035943950903246"><ele>568.0</ele><time>2026-05-03T06:17:18Z</time></trkpt><trkpt lat="46.00948954716777" lon="12.035914504075281"><ele>567.8</ele><time>2026-05-03T06:17:19Z</time></trkpt><trkpt lat="46.009553109026506" lon="12.035895998395496"><ele>567.5999999999999</ele><time>2026-05-03T06:17:20Z</time></trkpt><trkpt lat="46.00967304832421" lon="12.035903940705138"><ele>567.4000000000001</ele><time>2026-05-03T06:17:22Z</time></trkpt><trkpt lat="46.00980874493755" lon="12.035859451947378"><ele>567.2</ele><time>2026-05-03T06:17:23Z</time></trkpt><trkpt lat="46.00987648849306" lon="12.035845712499915"><ele>567.0</ele><time>2026-05-03T06:17:24Z</time></trkpt><trkpt lat="46.009987417919284" lon="12.035857437041674"><ele>576.5</ele><time>2026-05-03T06:17:26Z</time></trkpt><trkpt lat="46.01011878088404" lon="12.035756785680782"><ele>586.0</ele><time>2026-05-03T06:17:28Z</time></trkpt><trkpt lat="46.010200799962185" lon="12.035672306490804"><ele>595.5</ele><time>2026-05-03T06:17:29Z</time></trkpt><trkpt lat="46.01031022657132" lon="12.035590402836483"><ele>605.0</ele><time>2026-05-03T06:17:31Z</time></trkpt><trkpt lat="46.0103768095676" lon="12.03553095830857"><ele>605.0</ele><time>2026-05-03T06:17:32Z</time></trkpt><trkpt lat="46.01042812240938" lon="12.035426391724524"><ele>605.0</ele><time>2026-05-03T06:17:33Z</time></trkpt><trkpt lat="46.01052857380988" lon="12.03532794767006"><ele>605.0</ele><time>2026-05-03T06:17:34Z</time></trkpt><trkpt lat="46.01060053426743" lon="12.035290509941492"><ele>605.0</ele><time>2026-05-03T06:17:35Z</time></trkpt><trkpt lat="46.01070461481738" lon="12.035211172438883"><ele>605.0</ele><time>2026-05-03T06:17:37Z</time></trkpt><trkpt lat="46.01082171297405" lon="12.035161631939008"><ele>601.2</ele><time>2026-05-03T06:17:39Z</time></trkpt><trkpt lat="46.010914992293515" lon="12.035158811539217"><ele>597.4</ele><time>2026-05-03T06:17:40Z</time></trkpt><trkpt lat="46.011030522475686" lon="12.035204717607469"><ele>593.6</ele><time>2026-05-03T06:17:42Z</time></trkpt><trkpt lat="46.011091408870435" lon="12.03531816108377"><ele>589.8</ele><time>2026-05-03T06:17:44Z</time></trkpt><trkpt lat="46.01111675477876" lon="12.035414470201138"><ele>586.0</ele><time>2026-05-03T06:17:46Z</time></trkpt><trkpt lat="46.01106200569196" lon="12.035482694860109"><ele>586.0</ele><time>2026-05-03T06:17:47Z</time></trkpt><trkpt lat="46.01100786926083" lon="12.035537769161916"><ele>586.0</ele><time>2026-05-03T06:17:48Z</time></trkpt><trkpt lat="46.01091654441124" lon="12.035677968951987"><ele>586.0</ele><time>2026-05-03T06:17:50Z</time></trkpt><trkpt lat="46.01087296801003" lon="12.035798785274093"><ele>586.0</ele><time>2026-05-03T06:17:52Z</time></trkpt><trkpt lat="46.010919712380705" lon="12.035959069337828"><ele>586.0</ele><time>2026-05-03T06:17:54Z</time></trkpt><trkpt lat="46.01092812190108" lon="12.036070414925767"><ele>582.0</ele><time>2026-05-03T06:17:56Z</time></trkpt><trkpt lat="46.010897891295414" lon="12.036152168394043"><ele>578.0</ele><time>2026-05-03T06:17:57Z</time></trkpt><trkpt lat="46.01085732354314" lon="12.036312967467147"><ele>574.0</ele><time>2026-05-03T06:17:59Z</time></trkpt><trkpt lat="46.01083667913001" lon="12.036415797335588"><ele>570.0</ele><time>2026-05-03T06:18:00Z</time></trkpt><trkpt lat="46.010828813365364" lon="12.03651630207275"><ele>566.0</ele><time>2026-05-03T06:18:01Z</time></trkpt><trkpt lat="46.01081368239561" lon="12.036617533945336"><ele>562.0</ele><time>2026-05-03T06:18:02Z</time></trkpt><trkpt lat="46.01076571057433" lon="12.036785265659388"><ele>555.5</ele><time>2026-05-03T06:18:03Z</time></trkpt><trkpt lat="46.01073793572291" lon="12.03688703183582"><ele>549.0</ele><time>2026-05-03T06:18:04Z</time></trkpt><trkpt lat="46.010693247944786" lon="12.036970342033372"><ele>542.5</ele><time>2026-05-03T06:18:05Z</time></trkpt><trkpt lat="46.01065335303539" lon="12.0370411076161"><ele>536.0</ele><time>2026-05-03T06:18:06Z</time></trkpt><trkpt lat="46.01063850203881" lon="12.037160788177578"><ele>529.5</ele><time>2026-05-03T06:18:07Z</time></trkpt><trkpt lat="46.01060708773131" lon="12.037292688526245"><ele>523.0</ele><time>2026-05-03T06:18:07.999Z</time></trkpt><trkpt lat="46.01056827093241" lon="12.037419187228947"><ele>519.4</ele><time>2026-05-03T06:18:08.999Z</time></trkpt><trkpt lat="46.01054307162092" lon="12.03753904325827"><ele>515.8</ele><time>2026-05-03T06:18:09.999Z</time></trkpt><trkpt lat="46.01052838419281" lon="12.037706892991894"><ele>512.2</ele><time>2026-05-03T06:18:11.999Z</time></trkpt><trkpt lat="46.010556551171184" lon="12.03784663256285"><ele>508.6</ele><time>2026-05-03T06:18:13.999Z</time></trkpt><trkpt lat="46.0105949653767" lon="12.037963249130417"><ele>505.0</ele><time>2026-05-03T06:18:14.999Z</time></trkpt><trkpt lat="46.01064934252217" lon="12.038041994906315"><ele>505.0</ele><time>2026-05-03T06:18:15.999Z</time></trkpt><trkpt lat="46.01070813169852" lon="12.03815348857058"><ele>505.0</ele><time>2026-05-03T06:18:16.999Z</time></trkpt><trkpt lat="46.010767450938694" lon="12.038288255480651"><ele>505.0</ele><time>2026-05-03T06:18:17.999Z</time></trkpt><trkpt lat="46.010820463232974" lon="12.038411233963851"><ele>505.0</ele><time>2026-05-03T06:18:18.999Z</time></trkpt><trkpt lat="46.010870080578066" lon="12.038507193394484"><ele>505.0</ele><time>2026-05-03T06:18:19.999Z</time></trkpt><trkpt lat="46.01091938473944" lon="12.038606003290282"><ele>516.0</ele><time>2026-05-03T06:18:20.999Z</time></trkpt><trkpt lat="46.01095667354732" lon="12.038679320942654"><ele>527.0</ele><time>2026-05-03T06:18:21.999Z</time></trkpt><trkpt lat="46.01103565265642" lon="12.038832399372128"><ele>538.0</ele><time>2026-05-03T06:18:23.999Z</time></trkpt><trkpt lat="46.01113231863891" lon="12.038931929771994"><ele>549.0</ele><time>2026-05-03T06:18:26Z</time></trkpt><trkpt lat="46.01124995899463" lon="12.039042850282804"><ele>549.0</ele><time>2026-05-03T06:18:28Z</time></trkpt><trkpt lat="46.011306002278104" lon="12.03913207578413"><ele>549.0</ele><time>2026-05-03T06:18:29Z</time></trkpt><trkpt lat="46.01135633560558" lon="12.039214549355487"><ele>549.0</ele><time>2026-05-03T06:18:30Z</time></trkpt><trkpt lat="46.011407949305834" lon="12.039288567330477"><ele>549.0</ele><time>2026-05-03T06:18:31Z</time></trkpt><trkpt lat="46.01145335691095" lon="12.039379944747973"><ele>549.0</ele><time>2026-05-03T06:18:32Z</time></trkpt><trkpt lat="46.01150092230458" lon="12.03946710765521"><ele>549.0</ele><time>2026-05-03T06:18:33Z</time></trkpt><trkpt lat="46.01154227103081" lon="12.039565682465602"><ele>546.8</ele><time>2026-05-03T06:18:34Z</time></trkpt><trkpt lat="46.01159347716409" lon="12.039689000723088"><ele>544.5999999999999</ele><time>2026-05-03T06:18:35Z</time></trkpt><trkpt lat="46.01165110337079" lon="12.039804026618194"><ele>542.4</ele><time>2026-05-03T06:18:36Z</time></trkpt><trkpt lat="46.011706298582" lon="12.039919161770927"><ele>540.1999999999999</ele><time>2026-05-03T06:18:37Z</time></trkpt><trkpt lat="46.01176229083904" lon="12.040027170238979"><ele>538.0</ele><time>2026-05-03T06:18:38Z</time></trkpt><trkpt lat="46.01181098733947" lon="12.040141571328752"><ele>538.0</ele><time>2026-05-03T06:18:39Z</time></trkpt><trkpt lat="46.011866181550786" lon="12.040199796571004"><ele>538.0</ele><time>2026-05-03T06:18:40Z</time></trkpt><trkpt lat="46.011919076394555" lon="12.04030373975718"><ele>538.0</ele><time>2026-05-03T06:18:41Z</time></trkpt><trkpt lat="46.01196123812464" lon="12.040409003258501"><ele>538.0</ele><time>2026-05-03T06:18:42Z</time></trkpt><trkpt lat="46.01200546419624" lon="12.0405060566077"><ele>538.0</ele><time>2026-05-03T06:18:43Z</time></trkpt><trkpt lat="46.01206047662243" lon="12.040609673027866"><ele>538.0</ele><time>2026-05-03T06:18:44Z</time></trkpt><trkpt lat="46.01211169119226" lon="12.04071744630434"><ele>532.6666666666667</ele><time>2026-05-03T06:18:45Z</time></trkpt><trkpt lat="46.012158379501116" lon="12.040815900548681"><ele>527.3333333333334</ele><time>2026-05-03T06:18:46Z</time></trkpt><trkpt lat="46.012203381485406" lon="12.04091381907266"><ele>522.0</ele><time>2026-05-03T06:18:47Z</time></trkpt><trkpt lat="46.0122454156548" lon="12.041006082802626"><ele>516.6666666666666</ele><time>2026-05-03T06:18:48Z</time></trkpt><trkpt lat="46.0122864626525" lon="12.041113267197726"><ele>511.3333333333333</ele><time>2026-05-03T06:18:49Z</time></trkpt><trkpt lat="46.01231868267568" lon="12.041200938572288"><ele>506.0</ele><time>2026-05-03T06:18:50Z</time></trkpt><trkpt lat="46.01232443051881" lon="12.0413152765735"><ele>506.0</ele><time>2026-05-03T06:18:51Z</time></trkpt><trkpt lat="46.01229730617512" lon="12.041473789139976"><ele>506.0</ele><time>2026-05-03T06:18:53Z</time></trkpt><trkpt lat="46.01236448214294" lon="12.041598438741092"><ele>506.0</ele><time>2026-05-03T06:18:55Z</time></trkpt><trkpt lat="46.01245771110583" lon="12.041714028703757"><ele>506.0</ele><time>2026-05-03T06:18:57Z</time></trkpt><trkpt lat="46.01250710984072" lon="12.041784251654962"><ele>506.0</ele><time>2026-05-03T06:18:58Z</time></trkpt><trkpt lat="46.01255192037869" lon="12.041884042640541"><ele>510.20000000000005</ele><time>2026-05-03T06:18:59Z</time></trkpt><trkpt lat="46.01259129028179" lon="12.04199220751181"><ele>514.4000000000001</ele><time>2026-05-03T06:19:00Z</time></trkpt><trkpt lat="46.0126549572831" lon="12.042083466937802"><ele>518.6</ele><time>2026-05-03T06:19:01Z</time></trkpt><trkpt lat="46.01269897724244" lon="12.042193489711702"><ele>522.8000000000001</ele><time>2026-05-03T06:19:02Z</time></trkpt><trkpt lat="46.012781286006664" lon="12.04229304375014"><ele>527.0</ele><time>2026-05-03T06:19:03Z</time></trkpt><trkpt lat="46.01286289833904" lon="12.04239343180063"><ele>523.0</ele><time>2026-05-03T06:19:04Z</time></trkpt><trkpt lat="46.01293488778559" lon="12.042470374588726"><ele>519.0</ele><time>2026-05-03T06:19:05Z</time></trkpt><trkpt lat="46.01301012563366" lon="12.042522208753603"><ele>515.0</ele><time>2026-05-03T06:19:06Z</time></trkpt><trkpt lat="46.01308140786262" lon="12.042564491531982"><ele>511.0</ele><time>2026-05-03T06:19:07Z</time></trkpt><trkpt lat="46.0131843568816" lon="12.04257725064638"><ele>507.0</ele><time>2026-05-03T06:19:09Z</time></trkpt><trkpt lat="46.013298911386116" lon="12.042569148436606"><ele>512.0</ele><time>2026-05-03T06:19:11Z</time></trkpt><trkpt lat="46.0134057525639" lon="12.04259055736316"><ele>517.0</ele><time>2026-05-03T06:19:12Z</time></trkpt><trkpt lat="46.013477615779756" lon="12.042681346319805"><ele>522.0</ele><time>2026-05-03T06:19:13Z</time></trkpt><trkpt lat="46.01350380798745" lon="12.042782955732346"><ele>527.0</ele><time>2026-05-03T06:19:14Z</time></trkpt><trkpt lat="46.0136101943393" lon="12.042932458988377"><ele>532.0</ele><time>2026-05-03T06:19:16Z</time></trkpt><trkpt lat="46.013688657384414" lon="12.042993115538202"><ele>532.0</ele><time>2026-05-03T06:19:17Z</time></trkpt><trkpt lat="46.01375030010829" lon="12.043107080361825"><ele>532.0</ele><time>2026-05-03T06:19:18Z</time></trkpt><trkpt lat="46.01378962919911" lon="12.043220985352468"><ele>532.0</ele><time>2026-05-03T06:19:19Z</time></trkpt><trkpt lat="46.0137907829768" lon="12.043323303491205"><ele>532.0</ele><time>2026-05-03T06:19:20Z</time></trkpt><trkpt lat="46.01384412974203" lon="12.04345669172472"><ele>532.0</ele><time>2026-05-03T06:19:22Z</time></trkpt><trkpt lat="46.013910792247124" lon="12.043478972436834"><ele>532.0</ele><time>2026-05-03T06:19:23Z</time></trkpt><trkpt lat="46.01398725618617" lon="12.04351067865766"><ele>530.3333333333334</ele><time>2026-05-03T06:19:24Z</time></trkpt><trkpt lat="46.01407683034292" lon="12.043555397171916"><ele>528.6666666666667</ele><time>2026-05-03T06:19:25Z</time></trkpt><trkpt lat="46.01414577562237" lon="12.043606610030862"><ele>527.0</ele><time>2026-05-03T06:19:26Z</time></trkpt><trkpt lat="46.01421094997786" lon="12.043649738198535"><ele>525.3333333333334</ele><time>2026-05-03T06:19:27Z</time></trkpt><trkpt lat="46.01430092985725" lon="12.043673621260002"><ele>523.6666666666666</ele><time>2026-05-03T06:19:28Z</time></trkpt><trkpt lat="46.01440326983895" lon="12.04367392835811"><ele>522.0</ele><time>2026-05-03T06:19:29Z</time></trkpt><trkpt lat="46.01448520599554" lon="12.043667984101276"><ele>522.0</ele><time>2026-05-03T06:19:30Z</time></trkpt><trkpt lat="46.01457486293092" lon="12.043649863982743"><ele>522.0</ele><time>2026-05-03T06:19:31Z</time></trkpt><trkpt lat="46.014662636764925" lon="12.043650735317048"><ele>522.0</ele><time>2026-05-03T06:19:32Z</time></trkpt><trkpt lat="46.0147488621142" lon="12.043634793745616"><ele>522.0</ele><time>2026-05-03T06:19:33Z</time></trkpt><trkpt lat="46.01484224597638" lon="12.043760785832138"><ele>522.0</ele><time>2026-05-03T06:19:35Z</time></trkpt><trkpt lat="46.01488781104759" lon="12.043830772423572"><ele>522.0</ele><time>2026-05-03T06:19:36Z</time></trkpt><trkpt lat="46.01494756252024" lon="12.043894830109418"><ele>522.0</ele><time>2026-05-03T06:19:37Z</time></trkpt><trkpt lat="46.01504138943543" lon="12.043912778077217"><ele>522.0</ele><time>2026-05-03T06:19:38Z</time></trkpt><trkpt lat="46.0151312300575" lon="12.043916633370685"><ele>522.0</ele><time>2026-05-03T06:19:39Z</time></trkpt><trkpt lat="46.015229359704094" lon="12.043944976030552"><ele>522.0</ele><time>2026-05-03T06:19:40Z</time></trkpt><trkpt lat="46.01533996064709" lon="12.043981619022567"><ele>523.25</ele><time>2026-05-03T06:19:41Z</time></trkpt><trkpt lat="46.01548542860185" lon="12.04394480587632"><ele>524.5</ele><time>2026-05-03T06:19:42Z</time></trkpt><trkpt lat="46.015638275201205" lon="12.043929276757382"><ele>525.75</ele><time>2026-05-03T06:19:43Z</time></trkpt><trkpt lat="46.015757316909834" lon="12.043929604160107"><ele>527.0</ele><time>2026-05-03T06:19:44Z</time></trkpt><trkpt lat="46.01588670477439" lon="12.043936970059542"><ele>528.5</ele><time>2026-05-03T06:19:45Z</time></trkpt><trkpt lat="46.016027406986964" lon="12.043947307823089"><ele>530.0</ele><time>2026-05-03T06:19:46Z</time></trkpt><trkpt lat="46.01616424578577" lon="12.04394846220945"><ele>531.5</ele><time>2026-05-03T06:19:47Z</time></trkpt><trkpt lat="46.01629735235249" lon="12.043973044880769"><ele>533.0</ele><time>2026-05-03T06:19:48Z</time></trkpt><trkpt lat="46.01640793930118" lon="12.043993881494757"><ele>533.0</ele><time>2026-05-03T06:19:49Z</time></trkpt><trkpt lat="46.01652039114066" lon="12.04400219847786"><ele>533.0</ele><time>2026-05-03T06:19:50Z</time></trkpt><trkpt lat="46.01661697966139" lon="12.044040946248783"><ele>533.0</ele><time>2026-05-03T06:19:51Z</time></trkpt><trkpt lat="46.01672024117256" lon="12.04406571309544"><ele>533.0</ele><time>2026-05-03T06:19:52Z</time></trkpt><trkpt lat="46.01681072107678" lon="12.044050133082466"><ele>533.0</ele><time>2026-05-03T06:19:53Z</time></trkpt><trkpt lat="46.016904054777584" lon="12.04405150830855"><ele>534.8</ele><time>2026-05-03T06:19:54Z</time></trkpt><trkpt lat="46.01699021466811" lon="12.044035070772587"><ele>536.5999999999999</ele><time>2026-05-03T06:19:55Z</time></trkpt><trkpt lat="46.01706389694189" lon="12.0440076132029"><ele>538.4000000000001</ele><time>2026-05-03T06:19:56Z</time></trkpt><trkpt lat="46.01714871016098" lon="12.043982686733926"><ele>540.2</ele><time>2026-05-03T06:19:57Z</time></trkpt><trkpt lat="46.01727140116927" lon="12.043948088759935"><ele>542.0</ele><time>2026-05-03T06:19:58Z</time></trkpt><trkpt lat="46.01737411096788" lon="12.043944412117867"><ele>542.0</ele><time>2026-05-03T06:19:59Z</time></trkpt><trkpt lat="46.01746818210905" lon="12.043950218947229"><ele>542.0</ele><time>2026-05-03T06:20:00Z</time></trkpt><trkpt lat="46.01758433366196" lon="12.043915409494248"><ele>542.0</ele><time>2026-05-03T06:20:01Z</time></trkpt><trkpt lat="46.01766784161846" lon="12.04388621013073"><ele>542.0</ele><time>2026-05-03T06:20:03Z</time></trkpt><trkpt lat="46.01771965351571" lon="12.043830662652574"><ele>542.0</ele><time>2026-05-03T06:20:04Z</time></trkpt><trkpt lat="46.017797716997606" lon="12.043748318752062"><ele>540.3333333333333</ele><time>2026-05-03T06:20:05Z</time></trkpt><trkpt lat="46.0178541643909" lon="12.043665181754942"><ele>538.6666666666666</ele><time>2026-05-03T06:20:06Z</time></trkpt><trkpt lat="46.017926633024324" lon="12.043584726354627"><ele>537.0</ele><time>2026-05-03T06:20:07Z</time></trkpt><trkpt lat="46.017984212300846" lon="12.043532675539188"><ele>535.3333333333334</ele><time>2026-05-03T06:20:08Z</time></trkpt><trkpt lat="46.018073228386015" lon="12.04358716924992"><ele>533.6666666666667</ele><time>2026-05-03T06:20:10Z</time></trkpt><trkpt lat="46.01811222565168" lon="12.043674025881906"><ele>532.0</ele><time>2026-05-03T06:20:11Z</time></trkpt><trkpt lat="46.018135095952985" lon="12.043773450552603"><ele>532.0</ele><time>2026-05-03T06:20:12Z</time></trkpt><trkpt lat="46.01816534323163" lon="12.04391250521558"><ele>532.0</ele><time>2026-05-03T06:20:13Z</time></trkpt><trkpt lat="46.01817789133155" lon="12.04412258284639"><ele>532.0</ele><time>2026-05-03T06:20:14Z</time></trkpt><trkpt lat="46.01822414079158" lon="12.044264439801944"><ele>532.0</ele><time>2026-05-03T06:20:15Z</time></trkpt><trkpt lat="46.01824098516844" lon="12.04437896470957"><ele>532.0</ele><time>2026-05-03T06:20:16Z</time></trkpt><trkpt lat="46.01831119262639" lon="12.044501997994823"><ele>526.8333333333334</ele><time>2026-05-03T06:20:18Z</time></trkpt><trkpt lat="46.01837283337979" lon="12.044549568274398"><ele>521.6666666666667</ele><time>2026-05-03T06:20:19Z</time></trkpt><trkpt lat="46.01843448388775" lon="12.044595284178389"><ele>516.5</ele><time>2026-05-03T06:20:20Z</time></trkpt><trkpt lat="46.01851268768763" lon="12.044648456419305"><ele>511.33333333333337</ele><time>2026-05-03T06:20:21Z</time></trkpt><trkpt lat="46.01859647174226" lon="12.044693416331071"><ele>506.1666666666667</ele><time>2026-05-03T06:20:22Z</time></trkpt><trkpt lat="46.0186980022038" lon="12.044750897011319"><ele>501.0</ele><time>2026-05-03T06:20:23Z</time></trkpt><trkpt lat="46.01878706578419" lon="12.044827903993458"><ele>501.0</ele><time>2026-05-03T06:20:23.999Z</time></trkpt><trkpt lat="46.01885780932866" lon="12.044916911030008"><ele>501.0</ele><time>2026-05-03T06:20:24.999Z</time></trkpt><trkpt lat="46.01889069376115" lon="12.045038309772277"><ele>501.0</ele><time>2026-05-03T06:20:25.999Z</time></trkpt><trkpt lat="46.018931294114466" lon="12.045151666253439"><ele>501.0</ele><time>2026-05-03T06:20:26.999Z</time></trkpt><trkpt lat="46.018965096574014" lon="12.045249152155085"><ele>501.0</ele><time>2026-05-03T06:20:27.999Z</time></trkpt><trkpt lat="46.01902262675972" lon="12.045294781125211"><ele>501.0</ele><time>2026-05-03T06:20:28.999Z</time></trkpt><trkpt lat="46.01910507890813" lon="12.045367895314731"><ele>503.25</ele><time>2026-05-03T06:20:29.999Z</time></trkpt><trkpt lat="46.019191257692185" lon="12.04544945744498"><ele>505.5</ele><time>2026-05-03T06:20:30.999Z</time></trkpt><trkpt lat="46.019263840329735" lon="12.045512725208738"><ele>507.75</ele><time>2026-05-03T06:20:32Z</time></trkpt><trkpt lat="46.01943175283647" lon="12.045544370740316"><ele>510.0</ele><time>2026-05-03T06:20:33Z</time></trkpt><trkpt lat="46.01954456694902" lon="12.045621486838122"><ele>510.0</ele><time>2026-05-03T06:20:34Z</time></trkpt><trkpt lat="46.01965944113947" lon="12.045725412258008"><ele>510.0</ele><time>2026-05-03T06:20:35Z</time></trkpt><trkpt lat="46.019784245416105" lon="12.045829593875354"><ele>510.0</ele><time>2026-05-03T06:20:36Z</time></trkpt><trkpt lat="46.01988843048816" lon="12.045961292629025"><ele>510.0</ele><time>2026-05-03T06:20:37Z</time></trkpt><trkpt lat="46.01996399738402" lon="12.046124208182237"><ele>510.0</ele><time>2026-05-03T06:20:38Z</time></trkpt><trkpt lat="46.02004689872639" lon="12.046238537987959"><ele>510.0</ele><time>2026-05-03T06:20:39Z</time></trkpt><trkpt lat="46.02011097341966" lon="12.046333169588886"><ele>510.0</ele><time>2026-05-03T06:20:40Z</time></trkpt><trkpt lat="46.02017203721962" lon="12.046389786217805"><ele>510.0</ele><time>2026-05-03T06:20:41Z</time></trkpt><trkpt lat="46.02025232200481" lon="12.046446699913728"><ele>510.0</ele><time>2026-05-03T06:20:42Z</time></trkpt><trkpt lat="46.02032337850382" lon="12.046519566565783"><ele>510.0</ele><time>2026-05-03T06:20:43Z</time></trkpt><trkpt lat="46.02041615340668" lon="12.046624201963628"><ele>510.0</ele><time>2026-05-03T06:20:44Z</time></trkpt><trkpt lat="46.02053323736825" lon="12.046660158073658"><ele>510.0</ele><time>2026-05-03T06:20:45Z</time></trkpt><trkpt lat="46.020652549357294" lon="12.046734714580563"><ele>510.0</ele><time>2026-05-03T06:20:46Z</time></trkpt><trkpt lat="46.020759570146275" lon="12.046812907166013"><ele>507.75</ele><time>2026-05-03T06:20:47Z</time></trkpt><trkpt lat="46.02090592489043" lon="12.04689948805271"><ele>505.5</ele><time>2026-05-03T06:20:48Z</time></trkpt><trkpt lat="46.02103704191411" lon="12.046973985364705"><ele>503.25</ele><time>2026-05-03T06:20:49Z</time></trkpt><trkpt lat="46.021171531337224" lon="12.047055198882369"><ele>501.0</ele><time>2026-05-03T06:20:50Z</time></trkpt><trkpt lat="46.02131525733568" lon="12.047121284566668"><ele>501.0</ele><time>2026-05-03T06:20:51Z</time></trkpt><trkpt lat="46.02143546973488" lon="12.047192697330079"><ele>501.0</ele><time>2026-05-03T06:20:52Z</time></trkpt><trkpt lat="46.02153497104405" lon="12.047276206686247"><ele>501.0</ele><time>2026-05-03T06:20:53Z</time></trkpt><trkpt lat="46.02162779733613" lon="12.047335066939215"><ele>501.0</ele><time>2026-05-03T06:20:54Z</time></trkpt><trkpt lat="46.02171252527815" lon="12.047360221052795"><ele>501.0</ele><time>2026-05-03T06:20:55Z</time></trkpt><trkpt lat="46.02180526771804" lon="12.047374822658337"><ele>501.4</ele><time>2026-05-03T06:20:56Z</time></trkpt><trkpt lat="46.02187628733289" lon="12.047432824665782"><ele>501.8</ele><time>2026-05-03T06:20:57Z</time></trkpt><trkpt lat="46.02194645272721" lon="12.047477964986266"><ele>502.19999999999993</ele><time>2026-05-03T06:20:58Z</time></trkpt><trkpt lat="46.02200745446299" lon="12.047653771603784"><ele>502.59999999999997</ele><time>2026-05-03T06:21:00Z</time></trkpt><trkpt lat="46.02204058850927" lon="12.047750937928779"><ele>503.0</ele><time>2026-05-03T06:21:01Z</time></trkpt><trkpt lat="46.022116505929404" lon="12.047879935828425"><ele>500.8333333333333</ele><time>2026-05-03T06:21:03Z</time></trkpt><trkpt lat="46.022160374333644" lon="12.047947781562845"><ele>498.66666666666663</ele><time>2026-05-03T06:21:04Z</time></trkpt><trkpt lat="46.02220985396864" lon="12.048004243878644"><ele>496.5</ele><time>2026-05-03T06:21:05Z</time></trkpt><trkpt lat="46.02226554573904" lon="12.048048320929368"><ele>494.33333333333337</ele><time>2026-05-03T06:21:06Z</time></trkpt><trkpt lat="46.02233853636125" lon="12.048082635204333"><ele>492.1666666666667</ele><time>2026-05-03T06:21:07Z</time></trkpt><trkpt lat="46.02242809656036" lon="12.04808298275402"><ele>490.0</ele><time>2026-05-03T06:21:08Z</time></trkpt><trkpt lat="46.022574243195145" lon="12.048067944434464"><ele>490.0</ele><time>2026-05-03T06:21:09Z</time></trkpt><trkpt lat="46.02268431763634" lon="12.048086922155083"><ele>490.0</ele><time>2026-05-03T06:21:10Z</time></trkpt><trkpt lat="46.02278958834947" lon="12.048109463078433"><ele>490.0</ele><time>2026-05-03T06:21:11Z</time></trkpt><trkpt lat="46.02286203163449" lon="12.048126079157832"><ele>490.0</ele><time>2026-05-03T06:21:12Z</time></trkpt><trkpt lat="46.02295081608744" lon="12.048148409964213"><ele>490.0</ele><time>2026-05-03T06:21:13Z</time></trkpt><trkpt lat="46.02303004129765" lon="12.048165385136148"><ele>490.00000000000006</ele><time>2026-05-03T06:21:14Z</time></trkpt><trkpt lat="46.02310459174915" lon="12.048175747175936"><ele>490.0</ele><time>2026-05-03T06:21:15Z</time></trkpt><trkpt lat="46.02318482750367" lon="12.048175083412461"><ele>490.0</ele><time>2026-05-03T06:21:16Z</time></trkpt><trkpt lat="46.02326306608562" lon="12.048156996237331"><ele>490.0</ele><time>2026-05-03T06:21:17Z</time></trkpt><trkpt lat="46.02333640732204" lon="12.0481190762939"><ele>490.00000000000006</ele><time>2026-05-03T06:21:18Z</time></trkpt><trkpt lat="46.02342124529971" lon="12.048056311524704"><ele>490.0</ele><time>2026-05-03T06:21:19Z</time></trkpt><trkpt lat="46.02349837857585" lon="12.048006428514606"><ele>489.00000000000006</ele><time>2026-05-03T06:21:20Z</time></trkpt><trkpt lat="46.023573825210455" lon="12.047967146299753"><ele>488.0</ele><time>2026-05-03T06:21:21Z</time></trkpt><trkpt lat="46.02364351971461" lon="12.047910060998706"><ele>487.0</ele><time>2026-05-03T06:21:22Z</time></trkpt><trkpt lat="46.02370014028437" lon="12.047832265469948"><ele>486.0</ele><time>2026-05-03T06:21:23Z</time></trkpt><trkpt lat="46.02372416657454" lon="12.047703852374783"><ele>485.00000000000006</ele><time>2026-05-03T06:21:24Z</time></trkpt><trkpt lat="46.0237370399508" lon="12.047594375085756"><ele>484.0</ele><time>2026-05-03T06:21:25Z</time></trkpt><trkpt lat="46.023836653365954" lon="12.047507151173107"><ele>484.00000000000006</ele><time>2026-05-03T06:21:27Z</time></trkpt><trkpt lat="46.02392267842304" lon="12.047508440966102"><ele>484.0</ele><time>2026-05-03T06:21:28Z</time></trkpt><trkpt lat="46.02399570242165" lon="12.047511537699393"><ele>484.0</ele><time>2026-05-03T06:21:29Z</time></trkpt><trkpt lat="46.024058524171686" lon="12.047497024258883"><ele>484.0</ele><time>2026-05-03T06:21:30Z</time></trkpt><trkpt lat="46.02411552231855" lon="12.047446284432166"><ele>484.00000000000006</ele><time>2026-05-03T06:21:31Z</time></trkpt><trkpt lat="46.024170512893555" lon="12.047358381666118"><ele>484.0</ele><time>2026-05-03T06:21:32Z</time></trkpt><trkpt lat="46.024221286975006" lon="12.047242901604886"><ele>483.0</ele><time>2026-05-03T06:21:33Z</time></trkpt><trkpt lat="46.02429631952971" lon="12.047133781661644"><ele>482.0</ele><time>2026-05-03T06:21:34Z</time></trkpt><trkpt lat="46.02439489753888" lon="12.047039084426768"><ele>481.0</ele><time>2026-05-03T06:21:35Z</time></trkpt><trkpt lat="46.02447066480382" lon="12.046938992777804"><ele>480.0</ele><time>2026-05-03T06:21:36Z</time></trkpt><trkpt lat="46.02453687427557" lon="12.046823570189991"><ele>479.0</ele><time>2026-05-03T06:21:37Z</time></trkpt><trkpt lat="46.02462936167918" lon="12.046759834285561"><ele>479.0</ele><time>2026-05-03T06:21:38Z</time></trkpt><trkpt lat="46.02472272455924" lon="12.046709088092776"><ele>479.0</ele><time>2026-05-03T06:21:39Z</time></trkpt><trkpt lat="46.02483184949336" lon="12.046652172789315"><ele>479.0</ele><time>2026-05-03T06:21:40Z</time></trkpt><trkpt lat="46.02495276311494" lon="12.046615910211697"><ele>479.0</ele><time>2026-05-03T06:21:41Z</time></trkpt><trkpt lat="46.02508109495896" lon="12.046552581634389"><ele>478.0</ele><time>2026-05-03T06:21:42Z</time></trkpt><trkpt lat="46.02519497472686" lon="12.046485180891157"><ele>477.0</ele><time>2026-05-03T06:21:43Z</time></trkpt><trkpt lat="46.02531002636797" lon="12.046437736186494"><ele>476.0</ele><time>2026-05-03T06:21:44Z</time></trkpt><trkpt lat="46.02541482797664" lon="12.046417936507076"><ele>475.0</ele><time>2026-05-03T06:21:45Z</time></trkpt><trkpt lat="46.02551952766639" lon="12.046395423307818"><ele>475.0</ele><time>2026-05-03T06:21:46Z</time></trkpt><trkpt lat="46.02562248872642" lon="12.046359747378533"><ele>475.0</ele><time>2026-05-03T06:21:47Z</time></trkpt><trkpt lat="46.025717606604495" lon="12.046308722898202"><ele>475.0</ele><time>2026-05-03T06:21:48Z</time></trkpt><trkpt lat="46.0258103945777" lon="12.046255210791639"><ele>475.0</ele><time>2026-05-03T06:21:49Z</time></trkpt><trkpt lat="46.0258978319819" lon="12.046210032790821"><ele>475.0</ele><time>2026-05-03T06:21:50Z</time></trkpt><trkpt lat="46.02598573925816" lon="12.046165165726915"><ele>473.00000000000006</ele><time>2026-05-03T06:21:51Z</time></trkpt><trkpt lat="46.026069508684735" lon="12.04611574117231"><ele>471.0</ele><time>2026-05-03T06:21:52Z</time></trkpt><trkpt lat="46.02614982124048" lon="12.046074165973453"><ele>469.0</ele><time>2026-05-03T06:21:53Z</time></trkpt><trkpt lat="46.026233729250876" lon="12.046044887980525"><ele>467.0</ele><time>2026-05-03T06:21:54Z</time></trkpt><trkpt lat="46.026318666574966" lon="12.046039623792254"><ele>465.00000000000006</ele><time>2026-05-03T06:21:55Z</time></trkpt><trkpt lat="46.02639668583419" lon="12.046057201954945"><ele>463.0</ele><time>2026-05-03T06:21:56Z</time></trkpt><trkpt lat="46.0264721949908" lon="12.046072182171077"><ele>463.00000000000006</ele><time>2026-05-03T06:21:57Z</time></trkpt><trkpt lat="46.026544761326825" lon="12.046048135181278"><ele>463.0</ele><time>2026-05-03T06:21:58Z</time></trkpt><trkpt lat="46.026590062834025" lon="12.045977295491623"><ele>463.0</ele><time>2026-05-03T06:21:59Z</time></trkpt><trkpt lat="46.0266247422802" lon="12.045863253166692"><ele>463.0</ele><time>2026-05-03T06:22:00Z</time></trkpt><trkpt lat="46.02668128604979" lon="12.045743451953731"><ele>463.00000000000006</ele><time>2026-05-03T06:22:01Z</time></trkpt><trkpt lat="46.0267142886866" lon="12.045596408302156"><ele>463.0</ele><time>2026-05-03T06:22:02Z</time></trkpt><trkpt lat="46.02677042361701" lon="12.04548801076637"><ele>462.79999999999995</ele><time>2026-05-03T06:22:03Z</time></trkpt><trkpt lat="46.02680746287911" lon="12.045368087312596"><ele>462.59999999999997</ele><time>2026-05-03T06:22:04Z</time></trkpt><trkpt lat="46.02688606570635" lon="12.045270174076741"><ele>462.40000000000003</ele><time>2026-05-03T06:22:05Z</time></trkpt><trkpt lat="46.02695502923638" lon="12.045152248177827"><ele>462.20000000000005</ele><time>2026-05-03T06:22:06Z</time></trkpt><trkpt lat="46.02703598361234" lon="12.045016096000925"><ele>462.0</ele><time>2026-05-03T06:22:07Z</time></trkpt><trkpt lat="46.027087008566035" lon="12.0448709292092"><ele>465.40000000000003</ele><time>2026-05-03T06:22:08Z</time></trkpt><trkpt lat="46.02712739408281" lon="12.044734828560113"><ele>468.80000000000007</ele><time>2026-05-03T06:22:09Z</time></trkpt><trkpt lat="46.02715972353761" lon="12.044599654263878"><ele>472.2</ele><time>2026-05-03T06:22:10Z</time></trkpt><trkpt lat="46.02718529323984" lon="12.044481844651948"><ele>475.6</ele><time>2026-05-03T06:22:11Z</time></trkpt><trkpt lat="46.0272110140428" lon="12.044388624074692"><ele>479.0</ele><time>2026-05-03T06:22:12Z</time></trkpt><trkpt lat="46.027291057740506" lon="12.0443082406244"><ele>478.99999999999994</ele><time>2026-05-03T06:22:14Z</time></trkpt><trkpt lat="46.02735887422938" lon="12.044311075722172"><ele>479.0</ele><time>2026-05-03T06:22:15Z</time></trkpt><trkpt lat="46.02744432545648" lon="12.044312627841098"><ele>479.0</ele><time>2026-05-03T06:22:15.999Z</time></trkpt><trkpt lat="46.02752517897965" lon="12.044324227204223"><ele>479.0</ele><time>2026-05-03T06:22:16.999Z</time></trkpt><trkpt lat="46.02760483090898" lon="12.044302028708083"><ele>478.99999999999994</ele><time>2026-05-03T06:22:17.999Z</time></trkpt><trkpt lat="46.027692661924476" lon="12.044257433963955"><ele>479.0</ele><time>2026-05-03T06:22:18.999Z</time></trkpt><trkpt lat="46.02779034774144" lon="12.044235357042002"><ele>476.0</ele><time>2026-05-03T06:22:19.999Z</time></trkpt><trkpt lat="46.027908837883196" lon="12.04416838829918"><ele>473.0</ele><time>2026-05-03T06:22:20.999Z</time></trkpt><trkpt lat="46.02799868594304" lon="12.044079314374208"><ele>470.0</ele><time>2026-05-03T06:22:21.999Z</time></trkpt><trkpt lat="46.02808334135492" lon="12.044020261043622"><ele>467.0</ele><time>2026-05-03T06:22:22.999Z</time></trkpt><trkpt lat="46.02815536102444" lon="12.043965552208087"><ele>464.0</ele><time>2026-05-03T06:22:23.999Z</time></trkpt><trkpt lat="46.028234930127624" lon="12.043894211345274"><ele>467.2</ele><time>2026-05-03T06:22:24.999Z</time></trkpt><trkpt lat="46.02831124139809" lon="12.043842888764653"><ele>470.4</ele><time>2026-05-03T06:22:25.999Z</time></trkpt><trkpt lat="46.02839906203662" lon="12.043814645237156"><ele>473.6</ele><time>2026-05-03T06:22:26.999Z</time></trkpt><trkpt lat="46.02851023937515" lon="12.043809088160048"><ele>476.8</ele><time>2026-05-03T06:22:27.999Z</time></trkpt><trkpt lat="46.02860868160932" lon="12.043781980198348"><ele>480.0</ele><time>2026-05-03T06:22:28.999Z</time></trkpt><trkpt lat="46.02872355629932" lon="12.04374982974003"><ele>480.0</ele><time>2026-05-03T06:22:29.999Z</time></trkpt><trkpt lat="46.02882863510299" lon="12.043687237370541"><ele>480.0</ele><time>2026-05-03T06:22:30.999Z</time></trkpt><trkpt lat="46.02892132856332" lon="12.043652095754071"><ele>480.0</ele><time>2026-05-03T06:22:31.999Z</time></trkpt><trkpt lat="46.028987282623625" lon="12.04363604036075"><ele>480.0</ele><time>2026-05-03T06:22:32.999Z</time></trkpt><trkpt lat="46.02911773279886" lon="12.04359462496497"><ele>480.0</ele><time>2026-05-03T06:22:33.999Z</time></trkpt><trkpt lat="46.029223100675885" lon="12.043556457538907"><ele>482.25</ele><time>2026-05-03T06:22:34.999Z</time></trkpt><trkpt lat="46.02932087176503" lon="12.043501822580188"><ele>484.5</ele><time>2026-05-03T06:22:35.999Z</time></trkpt><trkpt lat="46.02941363689139" lon="12.043421133382662"><ele>486.75</ele><time>2026-05-03T06:22:36.999Z</time></trkpt><trkpt lat="46.02955240828515" lon="12.043346847331398"><ele>489.0</ele><time>2026-05-03T06:22:38Z</time></trkpt><trkpt lat="46.029664047820056" lon="12.043271182628237"><ele>489.0</ele><time>2026-05-03T06:22:39Z</time></trkpt><trkpt lat="46.02974856745824" lon="12.043196406601194"><ele>489.0</ele><time>2026-05-03T06:22:40Z</time></trkpt><trkpt lat="46.029838822772355" lon="12.043115024095925"><ele>489.0</ele><time>2026-05-03T06:22:41Z</time></trkpt><trkpt lat="46.02992243847345" lon="12.043035043299053"><ele>489.0</ele><time>2026-05-03T06:22:42Z</time></trkpt><trkpt lat="46.02998919742527" lon="12.04295589229874"><ele>489.0</ele><time>2026-05-03T06:22:43Z</time></trkpt><trkpt lat="46.03004871721763" lon="12.042862214391887"><ele>482.4</ele><time>2026-05-03T06:22:44Z</time></trkpt><trkpt lat="46.03011767529334" lon="12.042770399463564"><ele>475.79999999999995</ele><time>2026-05-03T06:22:45Z</time></trkpt><trkpt lat="46.03020636947167" lon="12.042721434072865"><ele>469.20000000000005</ele><time>2026-05-03T06:22:46Z</time></trkpt><trkpt lat="46.03031310008835" lon="12.042709754570359"><ele>462.6</ele><time>2026-05-03T06:22:47Z</time></trkpt><trkpt lat="46.03040538637137" lon="12.04269561498213"><ele>456.0</ele><time>2026-05-03T06:22:48Z</time></trkpt><trkpt lat="46.03051063765975" lon="12.042678540494796"><ele>456.0</ele><time>2026-05-03T06:22:49Z</time></trkpt><trkpt lat="46.03060471799491" lon="12.042665170103342"><ele>456.0</ele><time>2026-05-03T06:22:50Z</time></trkpt><trkpt lat="46.03068473464076" lon="12.042691851785793"><ele>456.0</ele><time>2026-05-03T06:22:51Z</time></trkpt><trkpt lat="46.030756310439365" lon="12.042712618521033"><ele>456.0</ele><time>2026-05-03T06:22:52Z</time></trkpt><trkpt lat="46.030865763799696" lon="12.042744736389055"><ele>456.0</ele><time>2026-05-03T06:22:54Z</time></trkpt><trkpt lat="46.030930384846165" lon="12.042731445571395"><ele>456.0</ele><time>2026-05-03T06:22:55Z</time></trkpt><trkpt lat="46.031006828561885" lon="12.042699941095938"><ele>456.6666666666667</ele><time>2026-05-03T06:22:56Z</time></trkpt><trkpt lat="46.03107293756514" lon="12.04263092890851"><ele>457.33333333333337</ele><time>2026-05-03T06:22:57Z</time></trkpt><trkpt lat="46.03112739645489" lon="12.042538963533499"><ele>458.0</ele><time>2026-05-03T06:22:58Z</time></trkpt><trkpt lat="46.03116535328852" lon="12.0424322496724"><ele>458.6666666666667</ele><time>2026-05-03T06:22:59Z</time></trkpt><trkpt lat="46.03117364322579" lon="12.042312446906868"><ele>459.33333333333337</ele><time>2026-05-03T06:23:00Z</time></trkpt><trkpt lat="46.03117526245198" lon="12.042203444469973"><ele>460.0</ele><time>2026-05-03T06:23:01Z</time></trkpt><trkpt lat="46.03122422701901" lon="12.042077578734824"><ele>460.0</ele><time>2026-05-03T06:23:03Z</time></trkpt><trkpt lat="46.031369253654375" lon="12.041995932834274"><ele>460.0</ele><time>2026-05-03T06:23:05Z</time></trkpt><trkpt lat="46.031464655897835" lon="12.041932985164353"><ele>460.0</ele><time>2026-05-03T06:23:06Z</time></trkpt><trkpt lat="46.031541833078236" lon="12.041774471362737"><ele>460.0</ele><time>2026-05-03T06:23:07Z</time></trkpt><trkpt lat="46.03164235361752" lon="12.041674886737479"><ele>457.0</ele><time>2026-05-03T06:23:08Z</time></trkpt><trkpt lat="46.03173658136936" lon="12.041571728420744"><ele>454.0</ele><time>2026-05-03T06:23:09Z</time></trkpt><trkpt lat="46.03183777673786" lon="12.041497452928972"><ele>451.0</ele><time>2026-05-03T06:23:10Z</time></trkpt><trkpt lat="46.031954572547804" lon="12.041467953702067"><ele>448.0</ele><time>2026-05-03T06:23:11Z</time></trkpt><trkpt lat="46.03206693562264" lon="12.041458998515997"><ele>448.0</ele><time>2026-05-03T06:23:12Z</time></trkpt><trkpt lat="46.032175815653005" lon="12.041450205800654"><ele>447.99999999999994</ele><time>2026-05-03T06:23:13Z</time></trkpt><trkpt lat="46.032284566867254" lon="12.041469592816945"><ele>447.99999999999994</ele><time>2026-05-03T06:23:14Z</time></trkpt><trkpt lat="46.03238783412789" lon="12.041492778143981"><ele>448.0</ele><time>2026-05-03T06:23:15Z</time></trkpt><trkpt lat="46.03249498823031" lon="12.041513080571077"><ele>448.0</ele><time>2026-05-03T06:23:16Z</time></trkpt><trkpt lat="46.03260668038878" lon="12.041522040015053"><ele>445.2</ele><time>2026-05-03T06:23:17Z</time></trkpt><trkpt lat="46.03270944530678" lon="12.041499401540149"><ele>442.4</ele><time>2026-05-03T06:23:18Z</time></trkpt><trkpt lat="46.032815175010576" lon="12.041473858538774"><ele>439.59999999999997</ele><time>2026-05-03T06:23:19Z</time></trkpt><trkpt lat="46.03292588813876" lon="12.041437487332152"><ele>436.79999999999995</ele><time>2026-05-03T06:23:20Z</time></trkpt><trkpt lat="46.03303551983369" lon="12.041382687956267"><ele>434.0</ele><time>2026-05-03T06:23:21Z</time></trkpt><trkpt lat="46.03314426394704" lon="12.04130926168121"><ele>434.0</ele><time>2026-05-03T06:23:22Z</time></trkpt><trkpt lat="46.03325654133949" lon="12.041227976851156"><ele>434.0</ele><time>2026-05-03T06:23:23Z</time></trkpt><trkpt lat="46.033378889330734" lon="12.041160366973697"><ele>434.0</ele><time>2026-05-03T06:23:24Z</time></trkpt><trkpt lat="46.03350165347685" lon="12.041096435464235"><ele>434.0</ele><time>2026-05-03T06:23:25Z</time></trkpt><trkpt lat="46.033622388806265" lon="12.041024087238679"><ele>433.5</ele><time>2026-05-03T06:23:26Z</time></trkpt><trkpt lat="46.03373094470612" lon="12.040956703875487"><ele>433.0</ele><time>2026-05-03T06:23:27Z</time></trkpt><trkpt lat="46.033849194832044" lon="12.040882965457529"><ele>432.5</ele><time>2026-05-03T06:23:28Z</time></trkpt><trkpt lat="46.03397506408713" lon="12.040826045684327"><ele>432.0</ele><time>2026-05-03T06:23:29Z</time></trkpt><trkpt lat="46.03410989005046" lon="12.040768095759477"><ele>430.20000000000005</ele><time>2026-05-03T06:23:30Z</time></trkpt><trkpt lat="46.03423161979361" lon="12.040748575027106"><ele>428.40000000000003</ele><time>2026-05-03T06:23:31Z</time></trkpt><trkpt lat="46.03433085551391" lon="12.040753197070858"><ele>426.6</ele><time>2026-05-03T06:23:32Z</time></trkpt><trkpt lat="46.03443985948263" lon="12.040769031463249"><ele>424.79999999999995</ele><time>2026-05-03T06:23:33Z</time></trkpt><trkpt lat="46.03453859765029" lon="12.040794181764497"><ele>423.0</ele><time>2026-05-03T06:23:34Z</time></trkpt><trkpt lat="46.03465195028351" lon="12.040818210295365"><ele>420.4</ele><time>2026-05-03T06:23:35Z</time></trkpt><trkpt lat="46.034759423676626" lon="12.040836858752888"><ele>417.79999999999995</ele><time>2026-05-03T06:23:36Z</time></trkpt><trkpt lat="46.03486481716859" lon="12.040831961094561"><ele>415.2</ele><time>2026-05-03T06:23:37Z</time></trkpt><trkpt lat="46.034977394166845" lon="12.040820882628099"><ele>412.6</ele><time>2026-05-03T06:23:38Z</time></trkpt><trkpt lat="46.035083776865385" lon="12.040782319635635"><ele>410.0</ele><time>2026-05-03T06:23:39Z</time></trkpt><trkpt lat="46.035175439764444" lon="12.040720387240599"><ele>408.8</ele><time>2026-05-03T06:23:40Z</time></trkpt><trkpt lat="46.0352494221339" lon="12.04064614350279"><ele>407.6</ele><time>2026-05-03T06:23:41Z</time></trkpt><trkpt lat="46.03530729575403" lon="12.04053580173983"><ele>406.4</ele><time>2026-05-03T06:23:42Z</time></trkpt><trkpt lat="46.03535948432219" lon="12.040420612633369"><ele>405.2</ele><time>2026-05-03T06:23:43Z</time></trkpt><trkpt lat="46.03543617626943" lon="12.040332912377695"><ele>404.0</ele><time>2026-05-03T06:23:44Z</time></trkpt><trkpt lat="46.035533082157954" lon="12.04029812184651"><ele>404.0</ele><time>2026-05-03T06:23:45Z</time></trkpt><trkpt lat="46.0356506554265" lon="12.040278712748218"><ele>404.0</ele><time>2026-05-03T06:23:46Z</time></trkpt><trkpt lat="46.035774144227524" lon="12.040253531229373"><ele>404.0</ele><time>2026-05-03T06:23:47Z</time></trkpt><trkpt lat="46.03591037294115" lon="12.040210327426003"><ele>404.0</ele><time>2026-05-03T06:23:48Z</time></trkpt><trkpt lat="46.03605546472095" lon="12.040153478362155"><ele>405.75</ele><time>2026-05-03T06:23:49Z</time></trkpt><trkpt lat="46.036198121458774" lon="12.040089447610331"><ele>407.5</ele><time>2026-05-03T06:23:50Z</time></trkpt><trkpt lat="46.03633998233093" lon="12.04002696010945"><ele>409.25</ele><time>2026-05-03T06:23:51Z</time></trkpt><trkpt lat="46.03648223012468" lon="12.039969512871155"><ele>411.0</ele><time>2026-05-03T06:23:52Z</time></trkpt><trkpt lat="46.03662074291774" lon="12.03991131817692"><ele>406.0</ele><time>2026-05-03T06:23:53Z</time></trkpt><trkpt lat="46.03675633451879" lon="12.039853799924796"><ele>401.0</ele><time>2026-05-03T06:23:54Z</time></trkpt><trkpt lat="46.03688573322386" lon="12.039804178806902"><ele>396.0</ele><time>2026-05-03T06:23:55Z</time></trkpt><trkpt lat="46.037007216497436" lon="12.03977993469305"><ele>391.0</ele><time>2026-05-03T06:23:56Z</time></trkpt><trkpt lat="46.037115875411736" lon="12.039788726588899"><ele>391.0</ele><time>2026-05-03T06:23:57Z</time></trkpt><trkpt lat="46.03721013576987" lon="12.039806862938011"><ele>391.0</ele><time>2026-05-03T06:23:58Z</time></trkpt><trkpt lat="46.037296059015155" lon="12.039842093523061"><ele>391.0</ele><time>2026-05-03T06:23:59Z</time></trkpt><trkpt lat="46.03738948977507" lon="12.039871439807873"><ele>391.0</ele><time>2026-05-03T06:24:00Z</time></trkpt><trkpt lat="46.03747814120584" lon="12.039900233259774"><ele>391.0</ele><time>2026-05-03T06:24:01Z</time></trkpt><trkpt lat="46.03756257395584" lon="12.03992628158837"><ele>387.33333333333337</ele><time>2026-05-03T06:24:02Z</time></trkpt><trkpt lat="46.03764421975902" lon="12.039938564167102"><ele>383.6666666666667</ele><time>2026-05-03T06:24:03Z</time></trkpt><trkpt lat="46.03772235614235" lon="12.039927959434348"><ele>380.0</ele><time>2026-05-03T06:24:04Z</time></trkpt><trkpt lat="46.03780646403049" lon="12.039899060210761"><ele>376.33333333333337</ele><time>2026-05-03T06:24:05Z</time></trkpt><trkpt lat="46.03788608216376" lon="12.039849795409713"><ele>372.6666666666667</ele><time>2026-05-03T06:24:06Z</time></trkpt><trkpt lat="46.03795231260221" lon="12.039793652771257"><ele>369.0</ele><time>2026-05-03T06:24:07Z</time></trkpt><trkpt lat="46.03801370186283" lon="12.039739287742366"><ele>369.0</ele><time>2026-05-03T06:24:08Z</time></trkpt><trkpt lat="46.03807068486787" lon="12.03968931730342"><ele>369.0</ele><time>2026-05-03T06:24:09Z</time></trkpt><trkpt lat="46.03812609623703" lon="12.03964512797646"><ele>369.0</ele><time>2026-05-03T06:24:10Z</time></trkpt><trkpt lat="46.03822710281308" lon="12.039581381703231"><ele>369.0</ele><time>2026-05-03T06:24:12Z</time></trkpt><trkpt lat="46.03831640290098" lon="12.039530509928502"><ele>369.0</ele><time>2026-05-03T06:24:14Z</time></trkpt><trkpt lat="46.038384772367955" lon="12.039481465249839"><ele>369.0</ele><time>2026-05-03T06:24:16Z</time></trkpt><trkpt lat="46.03843875659604" lon="12.03943349919127"><ele>368.1666666666667</ele><time>2026-05-03T06:24:18Z</time></trkpt><trkpt lat="46.038498169643844" lon="12.039343379556708"><ele>367.3333333333333</ele><time>2026-05-03T06:24:21Z</time></trkpt><trkpt lat="46.03854829777069" lon="12.039242070895607"><ele>366.5</ele><time>2026-05-03T06:24:24Z</time></trkpt><trkpt lat="46.03858575919176" lon="12.039131445348689"><ele>365.66666666666663</ele><time>2026-05-03T06:24:27Z</time></trkpt><trkpt lat="46.038620047916815" lon="12.038990299894886"><ele>364.8333333333333</ele><time>2026-05-03T06:24:29.999Z</time></trkpt><trkpt lat="46.03866149213474" lon="12.03890553546875"><ele>364.0</ele><time>2026-05-03T06:24:30.999Z</time></trkpt><trkpt lat="46.038682717885806" lon="12.038800961734424"><ele>364.0</ele><time>2026-05-03T06:24:31.999Z</time></trkpt><trkpt lat="46.038686223388176" lon="12.03867382934223"><ele>364.0</ele><time>2026-05-03T06:24:32.999Z</time></trkpt><trkpt lat="46.038719636248466" lon="12.038536349337418"><ele>364.0</ele><time>2026-05-03T06:24:33.999Z</time></trkpt><trkpt lat="46.038739541321746" lon="12.038397358221566"><ele>364.0</ele><time>2026-05-03T06:24:34.999Z</time></trkpt><trkpt lat="46.03876105287161" lon="12.038265704248635"><ele>364.0</ele><time>2026-05-03T06:24:35.999Z</time></trkpt><trkpt lat="46.038784110151425" lon="12.038143024219494"><ele>364.2</ele><time>2026-05-03T06:24:36.999Z</time></trkpt><trkpt lat="46.03880416395765" lon="12.038021782716351"><ele>364.4</ele><time>2026-05-03T06:24:37.999Z</time></trkpt><trkpt lat="46.038824151212935" lon="12.037891958407403"><ele>364.6</ele><time>2026-05-03T06:24:38.999Z</time></trkpt><trkpt lat="46.03884367675931" lon="12.037747063181763"><ele>364.8</ele><time>2026-05-03T06:24:39.999Z</time></trkpt><trkpt lat="46.03887048014041" lon="12.037594457320008"><ele>365.0</ele><time>2026-05-03T06:24:40.999Z</time></trkpt><trkpt lat="46.038900703556855" lon="12.037435019337325"><ele>364.4</ele><time>2026-05-03T06:24:41.999Z</time></trkpt><trkpt lat="46.038931227406344" lon="12.037278200446998"><ele>363.8</ele><time>2026-05-03T06:24:42.999Z</time></trkpt><trkpt lat="46.038957727256566" lon="12.03711515378936"><ele>363.20000000000005</ele><time>2026-05-03T06:24:44Z</time></trkpt><trkpt lat="46.038983273639424" lon="12.036974137638106"><ele>362.6</ele><time>2026-05-03T06:24:45Z</time></trkpt><trkpt lat="46.03901844693557" lon="12.03686005513173"><ele>362.0</ele><time>2026-05-03T06:24:46Z</time></trkpt><trkpt lat="46.03908323987691" lon="12.036785215227042"><ele>360.40000000000003</ele><time>2026-05-03T06:24:47Z</time></trkpt><trkpt lat="46.03917634167642" lon="12.036732549889217"><ele>358.8</ele><time>2026-05-03T06:24:48Z</time></trkpt><trkpt lat="46.03928738318694" lon="12.036697463200127"><ele>357.2</ele><time>2026-05-03T06:24:49Z</time></trkpt><trkpt lat="46.03939785762836" lon="12.036657101760944"><ele>355.6</ele><time>2026-05-03T06:24:50Z</time></trkpt><trkpt lat="46.039494571232844" lon="12.036595331701031"><ele>354.0</ele><time>2026-05-03T06:24:51Z</time></trkpt><trkpt lat="46.039577485830435" lon="12.036528419786972"><ele>354.0</ele><time>2026-05-03T06:24:52Z</time></trkpt><trkpt lat="46.03964089071207" lon="12.036440076126608"><ele>354.0</ele><time>2026-05-03T06:24:53Z</time></trkpt><trkpt lat="46.039693775647436" lon="12.036328929893191"><ele>354.0</ele><time>2026-05-03T06:24:54Z</time></trkpt><trkpt lat="46.039733761232064" lon="12.036164032202018"><ele>354.0</ele><time>2026-05-03T06:24:55Z</time></trkpt><trkpt lat="46.03976685078311" lon="12.035996221670379"><ele>354.0</ele><time>2026-05-03T06:24:56Z</time></trkpt><trkpt lat="46.039802075493434" lon="12.035815430529233"><ele>354.25</ele><time>2026-05-03T06:24:57Z</time></trkpt><trkpt lat="46.03982820403331" lon="12.035623210434688"><ele>354.5</ele><time>2026-05-03T06:24:58Z</time></trkpt><trkpt lat="46.03984805549909" lon="12.035444343972532"><ele>354.75</ele><time>2026-05-03T06:24:59Z</time></trkpt><trkpt lat="46.03988231898661" lon="12.035278435473716"><ele>355.0</ele><time>2026-05-03T06:25:00Z</time></trkpt><trkpt lat="46.0399347357492" lon="12.03511833887308"><ele>352.5</ele><time>2026-05-03T06:25:01Z</time></trkpt><trkpt lat="46.03999915181577" lon="12.034957423301815"><ele>350.0</ele><time>2026-05-03T06:25:02Z</time></trkpt><trkpt lat="46.04006799520821" lon="12.03480230309525"><ele>347.5</ele><time>2026-05-03T06:25:03Z</time></trkpt><trkpt lat="46.04013925006443" lon="12.034648509750316"><ele>345.0</ele><time>2026-05-03T06:25:04Z</time></trkpt><trkpt lat="46.040208550258896" lon="12.034511954891178"><ele>345.0</ele><time>2026-05-03T06:25:05Z</time></trkpt><trkpt lat="46.0402616933113" lon="12.034376074599217"><ele>345.0</ele><time>2026-05-03T06:25:06Z</time></trkpt><trkpt lat="46.04030800684292" lon="12.034243406905897"><ele>345.0</ele><time>2026-05-03T06:25:07Z</time></trkpt><trkpt lat="46.04036041026335" lon="12.034120955923456"><ele>345.0</ele><time>2026-05-03T06:25:08Z</time></trkpt><trkpt lat="46.0404246836585" lon="12.033998077684615"><ele>345.0</ele><time>2026-05-03T06:25:09Z</time></trkpt><trkpt lat="46.04048907213255" lon="12.033849481511144"><ele>345.25</ele><time>2026-05-03T06:25:10Z</time></trkpt><trkpt lat="46.04054191854971" lon="12.033671823120896"><ele>345.5</ele><time>2026-05-03T06:25:11Z</time></trkpt><trkpt lat="46.040596024282586" lon="12.033478769930625"><ele>345.75</ele><time>2026-05-03T06:25:12Z</time></trkpt><trkpt lat="46.04064691178207" lon="12.03329464990177"><ele>346.0</ele><time>2026-05-03T06:25:13Z</time></trkpt><trkpt lat="46.04069257168586" lon="12.033111703283728"><ele>346.0</ele><time>2026-05-03T06:25:14Z</time></trkpt><trkpt lat="46.04073340006573" lon="12.032927212291506"><ele>346.0</ele><time>2026-05-03T06:25:15Z</time></trkpt><trkpt lat="46.04077868275288" lon="12.03274782690952"><ele>346.0</ele><time>2026-05-03T06:25:16Z</time></trkpt><trkpt lat="46.04083525249168" lon="12.032594599977338"><ele>346.0</ele><time>2026-05-03T06:25:17Z</time></trkpt><trkpt lat="46.040901489163396" lon="12.032460664983464"><ele>342.4</ele><time>2026-05-03T06:25:18Z</time></trkpt><trkpt lat="46.040977095500224" lon="12.032348426178459"><ele>338.8</ele><time>2026-05-03T06:25:19Z</time></trkpt><trkpt lat="46.04106436116523" lon="12.032263142981117"><ele>335.2</ele><time>2026-05-03T06:25:20Z</time></trkpt><trkpt lat="46.04115274841018" lon="12.032182517944516"><ele>331.59999999999997</ele><time>2026-05-03T06:25:21Z</time></trkpt><trkpt lat="46.0412337830093" lon="12.032088628209985"><ele>328.0</ele><time>2026-05-03T06:25:22Z</time></trkpt><trkpt lat="46.041309179673625" lon="12.031981413817558"><ele>328.0</ele><time>2026-05-03T06:25:23Z</time></trkpt><trkpt lat="46.041382685815165" lon="12.031847123732845"><ele>328.0</ele><time>2026-05-03T06:25:24Z</time></trkpt><trkpt lat="46.041453240303824" lon="12.031704894791199"><ele>328.0</ele><time>2026-05-03T06:25:25Z</time></trkpt><trkpt lat="46.041521384641115" lon="12.03156126620341"><ele>328.0</ele><time>2026-05-03T06:25:26Z</time></trkpt><trkpt lat="46.0415823117948" lon="12.031408566990132"><ele>326.25</ele><time>2026-05-03T06:25:27Z</time></trkpt><trkpt lat="46.041637000099165" lon="12.031248770272295"><ele>324.5</ele><time>2026-05-03T06:25:28Z</time></trkpt><trkpt lat="46.04168900616616" lon="12.031087418170278"><ele>322.75</ele><time>2026-05-03T06:25:29Z</time></trkpt><trkpt lat="46.041746848346655" lon="12.030929840108929"><ele>321.0</ele><time>2026-05-03T06:25:30Z</time></trkpt><trkpt lat="46.04181538803846" lon="12.030781274952536"><ele>321.0</ele><time>2026-05-03T06:25:31Z</time></trkpt><trkpt lat="46.04189110790227" lon="12.030644841261378"><ele>321.0</ele><time>2026-05-03T06:25:32Z</time></trkpt><trkpt lat="46.04197722432741" lon="12.030531092550037"><ele>321.0</ele><time>2026-05-03T06:25:33Z</time></trkpt><trkpt lat="46.042074836086485" lon="12.030453032827145"><ele>321.0</ele><time>2026-05-03T06:25:34Z</time></trkpt><trkpt lat="46.0421674220025" lon="12.030386530252436"><ele>321.0</ele><time>2026-05-03T06:25:35Z</time></trkpt><trkpt lat="46.04224708532285" lon="12.030299131269846"><ele>321.0</ele><time>2026-05-03T06:25:36Z</time></trkpt><trkpt lat="46.042314236331016" lon="12.030183506782993"><ele>321.0</ele><time>2026-05-03T06:25:37Z</time></trkpt><trkpt lat="46.042402429097166" lon="12.030073980150986"><ele>321.0</ele><time>2026-05-03T06:25:38Z</time></trkpt><trkpt lat="46.04247850863459" lon="12.029922578134624"><ele>317.25</ele><time>2026-05-03T06:25:39Z</time></trkpt><trkpt lat="46.04253941459017" lon="12.029743829409586"><ele>313.5</ele><time>2026-05-03T06:25:40Z</time></trkpt><trkpt lat="46.04262447894571" lon="12.029564285896486"><ele>309.75</ele><time>2026-05-03T06:25:41Z</time></trkpt><trkpt lat="46.04267794823865" lon="12.029359579175443"><ele>306.0</ele><time>2026-05-03T06:25:42Z</time></trkpt><trkpt lat="46.042738490355724" lon="12.029154964138645"><ele>306.75</ele><time>2026-05-03T06:25:43Z</time></trkpt><trkpt lat="46.04280657877279" lon="12.028964553168228"><ele>307.5</ele><time>2026-05-03T06:25:44Z</time></trkpt><trkpt lat="46.04287859213366" lon="12.028791119020449"><ele>308.25</ele><time>2026-05-03T06:25:45Z</time></trkpt><trkpt lat="46.042955059756196" lon="12.028662146240311"><ele>309.0</ele><time>2026-05-03T06:25:46Z</time></trkpt><trkpt lat="46.04303398674866" lon="12.028542456447536"><ele>309.0</ele><time>2026-05-03T06:25:47Z</time></trkpt><trkpt lat="46.04310744069814" lon="12.028445956880798"><ele>309.0</ele><time>2026-05-03T06:25:48Z</time></trkpt><trkpt lat="46.043176022517365" lon="12.02834557732731"><ele>309.0</ele><time>2026-05-03T06:25:49Z</time></trkpt><trkpt lat="46.04323093550099" lon="12.028252962722311"><ele>309.0</ele><time>2026-05-03T06:25:50Z</time></trkpt><trkpt lat="46.04328134362188" lon="12.028156690868967"><ele>309.0</ele><time>2026-05-03T06:25:51Z</time></trkpt><trkpt lat="46.04331265944777" lon="12.028033366456961"><ele>308.75</ele><time>2026-05-03T06:25:52Z</time></trkpt><trkpt lat="46.04332192184346" lon="12.02788343154463"><ele>308.5</ele><time>2026-05-03T06:25:53Z</time></trkpt><trkpt lat="46.04331100437944" lon="12.02771497261976"><ele>308.25</ele><time>2026-05-03T06:25:54Z</time></trkpt><trkpt lat="46.04329586656259" lon="12.027520600811616"><ele>308.0</ele><time>2026-05-03T06:25:55Z</time></trkpt><trkpt lat="46.04330112725099" lon="12.027313617213553"><ele>308.0</ele><time>2026-05-03T06:25:56Z</time></trkpt><trkpt lat="46.04329488244525" lon="12.027076242851837"><ele>308.0</ele><time>2026-05-03T06:25:57Z</time></trkpt><trkpt lat="46.043293247127245" lon="12.026845884557327"><ele>308.0</ele><time>2026-05-03T06:25:58Z</time></trkpt><trkpt lat="46.04328572422412" lon="12.026608457214866"><ele>300.5</ele><time>2026-05-03T06:25:59Z</time></trkpt><trkpt lat="46.04330022666041" lon="12.026389766071667"><ele>293.0</ele><time>2026-05-03T06:26:00Z</time></trkpt><trkpt lat="46.043319316550644" lon="12.026186887108711"><ele>285.5</ele><time>2026-05-03T06:26:01Z</time></trkpt><trkpt lat="46.04333638898877" lon="12.026006012022398"><ele>278.0</ele><time>2026-05-03T06:26:02Z</time></trkpt><trkpt lat="46.043351953955536" lon="12.025851284303776"><ele>277.4</ele><time>2026-05-03T06:26:03Z</time></trkpt><trkpt lat="46.04335976152594" lon="12.025739613034682"><ele>276.8</ele><time>2026-05-03T06:26:04Z</time></trkpt><trkpt lat="46.043400541929984" lon="12.025610603117986"><ele>276.2</ele><time>2026-05-03T06:26:06Z</time></trkpt><trkpt lat="46.04355695409394" lon="12.025576394126697"><ele>275.6</ele><time>2026-05-03T06:26:08Z</time></trkpt><trkpt lat="46.04365734566203" lon="12.025545044116543"><ele>275.0</ele><time>2026-05-03T06:26:09Z</time></trkpt><trkpt lat="46.04376699421651" lon="12.025492520068708"><ele>275.0</ele><time>2026-05-03T06:26:10Z</time></trkpt><trkpt lat="46.04388407929941" lon="12.025416826755407"><ele>275.0</ele><time>2026-05-03T06:26:11Z</time></trkpt><trkpt lat="46.04398881981041" lon="12.025336769366861"><ele>275.0</ele><time>2026-05-03T06:26:12Z</time></trkpt><trkpt lat="46.04408613988684" lon="12.02525187070404"><ele>275.0</ele><time>2026-05-03T06:26:13Z</time></trkpt><trkpt lat="46.04417848465857" lon="12.0251720012957"><ele>273.4</ele><time>2026-05-03T06:26:14Z</time></trkpt><trkpt lat="46.04427858128158" lon="12.025134173226554"><ele>271.8</ele><time>2026-05-03T06:26:15Z</time></trkpt><trkpt lat="46.04437643390343" lon="12.025133835037341"><ele>270.2</ele><time>2026-05-03T06:26:16Z</time></trkpt><trkpt lat="46.04446940833331" lon="12.025138541241516"><ele>268.6</ele><time>2026-05-03T06:26:17Z</time></trkpt><trkpt lat="46.044559676254174" lon="12.025140225713509"><ele>267.0</ele><time>2026-05-03T06:26:18Z</time></trkpt><trkpt lat="46.04464906027808" lon="12.025139257743023"><ele>267.0</ele><time>2026-05-03T06:26:19Z</time></trkpt><trkpt lat="46.044739594173976" lon="12.025144676005203"><ele>267.0</ele><time>2026-05-03T06:26:20Z</time></trkpt><trkpt lat="46.044825648484874" lon="12.025149671821191"><ele>267.0</ele><time>2026-05-03T06:26:21Z</time></trkpt><trkpt lat="46.044908276530876" lon="12.025158899389568"><ele>267.0</ele><time>2026-05-03T06:26:22Z</time></trkpt><trkpt lat="46.04498608146551" lon="12.025157525372972"><ele>267.0</ele><time>2026-05-03T06:26:23Z</time></trkpt><trkpt lat="46.04505999144231" lon="12.025151442588385"><ele>267.0</ele><time>2026-05-03T06:26:24Z</time></trkpt><trkpt lat="46.04513528712753" lon="12.025157921662196"><ele>266.4</ele><time>2026-05-03T06:26:26Z</time></trkpt><trkpt lat="46.045212583933534" lon="12.02517315663845"><ele>265.79999999999995</ele><time>2026-05-03T06:26:46.999Z</time></trkpt><trkpt lat="46.04530094495741" lon="12.025007838392671"><ele>265.2</ele><time>2026-05-03T06:26:53Z</time></trkpt><trkpt lat="46.04531884220039" lon="12.024901637272084"><ele>264.59999999999997</ele><time>2026-05-03T06:26:54Z</time></trkpt><trkpt lat="46.045322089913725" lon="12.024772175026701"><ele>264.0</ele><time>2026-05-03T06:26:55Z</time></trkpt><trkpt lat="46.0453268421774" lon="12.024630647785674"><ele>264.0</ele><time>2026-05-03T06:26:56Z</time></trkpt><trkpt lat="46.04533856460617" lon="12.024473426943782"><ele>264.0</ele><time>2026-05-03T06:26:57Z</time></trkpt><trkpt lat="46.04534768498991" lon="12.024312718613501"><ele>264.0</ele><time>2026-05-03T06:26:58Z</time></trkpt><trkpt lat="46.04534668988676" lon="12.02414793108808"><ele>264.0</ele><time>2026-05-03T06:26:59Z</time></trkpt><trkpt lat="46.0453430399866" lon="12.023980782989321"><ele>263.75</ele><time>2026-05-03T06:27:00Z</time></trkpt><trkpt lat="46.04532562761612" lon="12.023806835087157"><ele>263.5</ele><time>2026-05-03T06:27:01Z</time></trkpt><trkpt lat="46.04530505923218" lon="12.023646560648485"><ele>263.25</ele><time>2026-05-03T06:27:02Z</time></trkpt><trkpt lat="46.04527676773675" lon="12.023497256916425"><ele>263.0</ele><time>2026-05-03T06:27:03Z</time></trkpt><trkpt lat="46.04524628421458" lon="12.023342180298599"><ele>262.8</ele><time>2026-05-03T06:27:04Z</time></trkpt><trkpt lat="46.04522246130432" lon="12.023190693096895"><ele>262.6</ele><time>2026-05-03T06:27:05Z</time></trkpt><trkpt lat="46.045196098600336" lon="12.023036720518897"><ele>262.4</ele><time>2026-05-03T06:27:06Z</time></trkpt><trkpt lat="46.04517029317192" lon="12.022877074125981"><ele>262.2</ele><time>2026-05-03T06:27:07Z</time></trkpt><trkpt lat="46.04514980962982" lon="12.022721493998473"><ele>262.0</ele><time>2026-05-03T06:27:08Z</time></trkpt><trkpt lat="46.045122732045144" lon="12.02257107964399"><ele>261.8</ele><time>2026-05-03T06:27:09Z</time></trkpt><trkpt lat="46.04509954114877" lon="12.022423161102115"><ele>261.6</ele><time>2026-05-03T06:27:10Z</time></trkpt><trkpt lat="46.04507590674808" lon="12.022266477276347"><ele>261.40000000000003</ele><time>2026-05-03T06:27:11Z</time></trkpt><trkpt lat="46.04504560585426" lon="12.022109042523804"><ele>261.2</ele><time>2026-05-03T06:27:12Z</time></trkpt><trkpt lat="46.045017582568626" lon="12.021958187138504"><ele>261.0</ele><time>2026-05-03T06:27:13Z</time></trkpt><trkpt lat="46.04497755661976" lon="12.021798386321617"><ele>261.40000000000003</ele><time>2026-05-03T06:27:14Z</time></trkpt><trkpt lat="46.04494283870342" lon="12.02164530682094"><ele>261.8</ele><time>2026-05-03T06:27:15Z</time></trkpt><trkpt lat="46.044902249562156" lon="12.02149427349041"><ele>262.20000000000005</ele><time>2026-05-03T06:27:16Z</time></trkpt><trkpt lat="46.04485343475178" lon="12.021349029602813"><ele>262.6</ele><time>2026-05-03T06:27:17Z</time></trkpt><trkpt lat="46.04480690257542" lon="12.02120036931521"><ele>263.0</ele><time>2026-05-03T06:27:18Z</time></trkpt><trkpt lat="46.04477121109176" lon="12.021049898087844"><ele>263.0</ele><time>2026-05-03T06:27:19Z</time></trkpt><trkpt lat="46.04474112728523" lon="12.020900252528747"><ele>263.0</ele><time>2026-05-03T06:27:20Z</time></trkpt><trkpt lat="46.044707816492206" lon="12.020747003186365"><ele>263.0</ele><time>2026-05-03T06:27:21Z</time></trkpt><trkpt lat="46.04467691146078" lon="12.020590512110576"><ele>263.0</ele><time>2026-05-03T06:27:22Z</time></trkpt><trkpt lat="46.04465115632628" lon="12.020434447767627"><ele>263.0</ele><time>2026-05-03T06:27:23Z</time></trkpt><trkpt lat="46.044624946147344" lon="12.020275686085133"><ele>262.5</ele><time>2026-05-03T06:27:24Z</time></trkpt><trkpt lat="46.044600964732965" lon="12.020112839960673"><ele>262.0</ele><time>2026-05-03T06:27:25Z</time></trkpt><trkpt lat="46.044588892792206" lon="12.019946181422302"><ele>261.5</ele><time>2026-05-03T06:27:26Z</time></trkpt><trkpt lat="46.044584674978275" lon="12.019782225992392"><ele>261.0</ele><time>2026-05-03T06:27:27Z</time></trkpt><trkpt lat="46.04458150408796" lon="12.019616718383647"><ele>260.5</ele><time>2026-05-03T06:27:28Z</time></trkpt><trkpt lat="46.04457990002002" lon="12.019450501690885"><ele>260.0</ele><time>2026-05-03T06:27:29Z</time></trkpt><trkpt lat="46.04457843892616" lon="12.019280511013338"><ele>259.5</ele><time>2026-05-03T06:27:30Z</time></trkpt><trkpt lat="46.04457667369136" lon="12.019110975805491"><ele>259.0</ele><time>2026-05-03T06:27:31Z</time></trkpt><trkpt lat="46.044574715204405" lon="12.018942200673084"><ele>258.75</ele><time>2026-05-03T06:27:32Z</time></trkpt><trkpt lat="46.04457576033036" lon="12.01876891768377"><ele>258.5</ele><time>2026-05-03T06:27:33Z</time></trkpt><trkpt lat="46.04457572170585" lon="12.01860061345997"><ele>258.25</ele><time>2026-05-03T06:27:34Z</time></trkpt><trkpt lat="46.04457636351588" lon="12.018427809342944"><ele>258.0</ele><time>2026-05-03T06:27:35Z</time></trkpt><trkpt lat="46.04457491426604" lon="12.018252285467069"><ele>257.75</ele><time>2026-05-03T06:27:36Z</time></trkpt><trkpt lat="46.04457386083895" lon="12.01807607074047"><ele>257.5</ele><time>2026-05-03T06:27:37Z</time></trkpt><trkpt lat="46.04457443554645" lon="12.017904511730773"><ele>257.25</ele><time>2026-05-03T06:27:38Z</time></trkpt><trkpt lat="46.04457483578624" lon="12.01772996759849"><ele>257.0</ele><time>2026-05-03T06:27:39Z</time></trkpt><trkpt lat="46.04457015827382" lon="12.017545236693"><ele>257.0</ele><time>2026-05-03T06:27:40Z</time></trkpt><trkpt lat="46.044566545800706" lon="12.017360617520792"><ele>257.0</ele><time>2026-05-03T06:27:41Z</time></trkpt><trkpt lat="46.04456652974019" lon="12.017177350330194"><ele>257.0</ele><time>2026-05-03T06:27:42Z</time></trkpt><trkpt lat="46.044560722051735" lon="12.01699061616705"><ele>257.0</ele><time>2026-05-03T06:27:43Z</time></trkpt><trkpt lat="46.044548254072964" lon="12.016808587826732"><ele>257.0</ele><time>2026-05-03T06:27:44Z</time></trkpt><trkpt lat="46.044523244887635" lon="12.016626269846393"><ele>257.0</ele><time>2026-05-03T06:27:45Z</time></trkpt><trkpt lat="46.04448839495165" lon="12.016449683767698"><ele>257.0</ele><time>2026-05-03T06:27:46Z</time></trkpt><trkpt lat="46.04444509072139" lon="12.016277076024892"><ele>257.0</ele><time>2026-05-03T06:27:47Z</time></trkpt><trkpt lat="46.044394282340804" lon="12.016104998704773"><ele>257.0</ele><time>2026-05-03T06:27:48Z</time></trkpt><trkpt lat="46.044345231006396" lon="12.015931078791855"><ele>257.0</ele><time>2026-05-03T06:27:49Z</time></trkpt><trkpt lat="46.04429518923414" lon="12.015758837370917"><ele>257.0</ele><time>2026-05-03T06:27:50Z</time></trkpt><trkpt lat="46.044242841877086" lon="12.015584513993758"><ele>257.0</ele><time>2026-05-03T06:27:51Z</time></trkpt><trkpt lat="46.044195888961596" lon="12.015415037306672"><ele>256.75</ele><time>2026-05-03T06:27:52Z</time></trkpt><trkpt lat="46.044145548807165" lon="12.015247561440608"><ele>256.5</ele><time>2026-05-03T06:27:53Z</time></trkpt><trkpt lat="46.044097005914146" lon="12.015080766117622"><ele>256.25</ele><time>2026-05-03T06:27:54Z</time></trkpt><trkpt lat="46.044047248440165" lon="12.014913159152806"><ele>256.0</ele><time>2026-05-03T06:27:55Z</time></trkpt><trkpt lat="46.043999267505974" lon="12.014745596829563"><ele>256.0</ele><time>2026-05-03T06:27:56Z</time></trkpt><trkpt lat="46.0439522247097" lon="12.014576861297881"><ele>256.0</ele><time>2026-05-03T06:27:57Z</time></trkpt><trkpt lat="46.04390366246919" lon="12.014405387291497"><ele>256.0</ele><time>2026-05-03T06:27:58Z</time></trkpt><trkpt lat="46.04385354305579" lon="12.014233682019405"><ele>256.0</ele><time>2026-05-03T06:27:59Z</time></trkpt><trkpt lat="46.04380257602518" lon="12.014060450830298"><ele>255.0</ele><time>2026-05-03T06:28:00Z</time></trkpt><trkpt lat="46.04375235816784" lon="12.013886890284548"><ele>254.0</ele><time>2026-05-03T06:28:01Z</time></trkpt><trkpt lat="46.0437033526799" lon="12.013711955698335"><ele>253.0</ele><time>2026-05-03T06:28:02Z</time></trkpt><trkpt lat="46.043654374877214" lon="12.013535535714924"><ele>252.0</ele><time>2026-05-03T06:28:03Z</time></trkpt><trkpt lat="46.04360508978955" lon="12.013358455761598"><ele>251.5</ele><time>2026-05-03T06:28:04Z</time></trkpt><trkpt lat="46.04355576242109" lon="12.013181730944828"><ele>251.0</ele><time>2026-05-03T06:28:05Z</time></trkpt><trkpt lat="46.04350508331181" lon="12.013006230146155"><ele>250.5</ele><time>2026-05-03T06:28:06Z</time></trkpt><trkpt lat="46.043454558777135" lon="12.012834081987954"><ele>250.0</ele><time>2026-05-03T06:28:07Z</time></trkpt><trkpt lat="46.0434047248515" lon="12.012662355889526"><ele>249.75</ele><time>2026-05-03T06:28:08Z</time></trkpt><trkpt lat="46.04335391796631" lon="12.012489576591141"><ele>249.5</ele><time>2026-05-03T06:28:09Z</time></trkpt><trkpt lat="46.043305190045196" lon="12.012324389583643"><ele>249.25</ele><time>2026-05-03T06:28:10Z</time></trkpt><trkpt lat="46.04326062743863" lon="12.012169221812671"><ele>249.0</ele><time>2026-05-03T06:28:11Z</time></trkpt><trkpt lat="46.0432160387889" lon="12.0120229002454"><ele>249.2</ele><time>2026-05-03T06:28:12Z</time></trkpt><trkpt lat="46.043174514346454" lon="12.011885413705398"><ele>249.39999999999998</ele><time>2026-05-03T06:28:13Z</time></trkpt><trkpt lat="46.043137592551574" lon="12.011756011947327"><ele>249.6</ele><time>2026-05-03T06:28:14Z</time></trkpt><trkpt lat="46.043104068366276" lon="12.011632941691323"><ele>249.8</ele><time>2026-05-03T06:28:15Z</time></trkpt><trkpt lat="46.04307430070942" lon="12.011517041917523"><ele>250.0</ele><time>2026-05-03T06:28:16Z</time></trkpt><trkpt lat="46.04304543308341" lon="12.011408337498006"><ele>250.0</ele><time>2026-05-03T06:28:17Z</time></trkpt><trkpt lat="46.04301841728215" lon="12.011306271122177"><ele>250.0</ele><time>2026-05-03T06:28:18Z</time></trkpt><trkpt lat="46.04300038944071" lon="12.01120495974573"><ele>250.0</ele><time>2026-05-03T06:28:19Z</time></trkpt><trkpt lat="46.0429986935597" lon="12.011102281261826"><ele>250.0</ele><time>2026-05-03T06:28:20Z</time></trkpt><trkpt lat="46.04300659627436" lon="12.011005287379158"><ele>250.0</ele><time>2026-05-03T06:28:21Z</time></trkpt><trkpt lat="46.04300925719215" lon="12.010894868801152"><ele>250.0</ele><time>2026-05-03T06:28:22Z</time></trkpt><trkpt lat="46.042980177045315" lon="12.01079684912103"><ele>250.0</ele><time>2026-05-03T06:28:23Z</time></trkpt><trkpt lat="46.04291488658617" lon="12.01071263543926"><ele>249.75</ele><time>2026-05-03T06:28:24Z</time></trkpt><trkpt lat="46.04284149953673" lon="12.010623939783763"><ele>249.5</ele><time>2026-05-03T06:28:25Z</time></trkpt><trkpt lat="46.042782647712876" lon="12.010503588007307"><ele>249.25</ele><time>2026-05-03T06:28:26Z</time></trkpt><trkpt lat="46.04272593512092" lon="12.010338759164387"><ele>249.0</ele><time>2026-05-03T06:28:27Z</time></trkpt><trkpt lat="46.0426632960037" lon="12.010160413243364"><ele>249.0</ele><time>2026-05-03T06:28:28Z</time></trkpt><trkpt lat="46.04260063883165" lon="12.009991933259634"><ele>249.0</ele><time>2026-05-03T06:28:29Z</time></trkpt><trkpt lat="46.04252878599181" lon="12.009811639827898"><ele>249.0</ele><time>2026-05-03T06:28:30Z</time></trkpt><trkpt lat="46.042451793405505" lon="12.009627397389018"><ele>249.0</ele><time>2026-05-03T06:28:31Z</time></trkpt><trkpt lat="46.04237217810954" lon="12.009436328802304"><ele>249.0</ele><time>2026-05-03T06:28:32Z</time></trkpt><trkpt lat="46.0422925552029" lon="12.009245808251539"><ele>249.0</ele><time>2026-05-03T06:28:33Z</time></trkpt><trkpt lat="46.04221390514943" lon="12.00906405084786"><ele>249.0</ele><time>2026-05-03T06:28:34Z</time></trkpt><trkpt lat="46.04213691991652" lon="12.008884678512382"><ele>249.0</ele><time>2026-05-03T06:28:35Z</time></trkpt><trkpt lat="46.04205953381214" lon="12.008708016398405"><ele>249.0</ele><time>2026-05-03T06:28:36Z</time></trkpt><trkpt lat="46.04197942474329" lon="12.008532223897658"><ele>249.0</ele><time>2026-05-03T06:28:37Z</time></trkpt><trkpt lat="46.041902026482624" lon="12.008357867097024"><ele>249.0</ele><time>2026-05-03T06:28:37.999Z</time></trkpt><trkpt lat="46.041826093106664" lon="12.008181936778438"><ele>249.0</ele><time>2026-05-03T06:28:38.999Z</time></trkpt><trkpt lat="46.04174903195521" lon="12.00800621199187"><ele>248.75</ele><time>2026-05-03T06:28:39.999Z</time></trkpt><trkpt lat="46.04167399941432" lon="12.007830109963594"><ele>248.5</ele><time>2026-05-03T06:28:40.999Z</time></trkpt><trkpt lat="46.041597539540476" lon="12.007652560544239"><ele>248.25</ele><time>2026-05-03T06:28:41.999Z</time></trkpt><trkpt lat="46.04152160455495" lon="12.007476770466315"><ele>248.0</ele><time>2026-05-03T06:28:42.999Z</time></trkpt><trkpt lat="46.041442250228855" lon="12.007295218462442"><ele>247.75</ele><time>2026-05-03T06:28:43.999Z</time></trkpt><trkpt lat="46.04136290935604" lon="12.007111321844798"><ele>247.5</ele><time>2026-05-03T06:28:44.999Z</time></trkpt><trkpt lat="46.04128438672792" lon="12.006932359882123"><ele>247.25</ele><time>2026-05-03T06:28:45.999Z</time></trkpt><trkpt lat="46.04120690848177" lon="12.006757234693808"><ele>247.0</ele><time>2026-05-03T06:28:46.999Z</time></trkpt><trkpt lat="46.041134673966326" lon="12.006591686671783"><ele>246.75</ele><time>2026-05-03T06:28:47.999Z</time></trkpt><trkpt lat="46.04106110025483" lon="12.006419297817502"><ele>246.5</ele><time>2026-05-03T06:28:48.999Z</time></trkpt><trkpt lat="46.04098551340263" lon="12.006247024065024"><ele>246.25</ele><time>2026-05-03T06:28:49.999Z</time></trkpt><trkpt lat="46.040909849232506" lon="12.006074367724588"><ele>246.0</ele><time>2026-05-03T06:28:50.999Z</time></trkpt><trkpt lat="46.04083560271535" lon="12.00590016223815"><ele>246.0</ele><time>2026-05-03T06:28:51.999Z</time></trkpt><trkpt lat="46.04076025950636" lon="12.005726850553435"><ele>246.0</ele><time>2026-05-03T06:28:52.999Z</time></trkpt><trkpt lat="46.04068461456379" lon="12.005552571243673"><ele>246.0</ele><time>2026-05-03T06:28:53.999Z</time></trkpt><trkpt lat="46.040609499836705" lon="12.005378861008353"><ele>246.0</ele><time>2026-05-03T06:28:54.999Z</time></trkpt><trkpt lat="46.04053256393195" lon="12.005207144802363"><ele>246.0</ele><time>2026-05-03T06:28:56Z</time></trkpt><trkpt lat="46.04045595483973" lon="12.005034594624298"><ele>246.0</ele><time>2026-05-03T06:28:57Z</time></trkpt><trkpt lat="46.040381762878994" lon="12.004860045178186"><ele>246.0</ele><time>2026-05-03T06:28:58Z</time></trkpt><trkpt lat="46.040305688109974" lon="12.004683417911211"><ele>246.0</ele><time>2026-05-03T06:28:59Z</time></trkpt><trkpt lat="46.04023024741569" lon="12.004509456982415"><ele>245.75</ele><time>2026-05-03T06:29:00Z</time></trkpt><trkpt lat="46.04015267885967" lon="12.004336207078175"><ele>245.5</ele><time>2026-05-03T06:29:01Z</time></trkpt><trkpt lat="46.04007590718433" lon="12.004163458282829"><ele>245.25</ele><time>2026-05-03T06:29:02Z</time></trkpt><trkpt lat="46.039998859017935" lon="12.003989793643198"><ele>245.0</ele><time>2026-05-03T06:29:03Z</time></trkpt><trkpt lat="46.03992034510236" lon="12.003818950857832"><ele>244.5</ele><time>2026-05-03T06:29:04Z</time></trkpt><trkpt lat="46.03983970405881" lon="12.003648855400135"><ele>244.0</ele><time>2026-05-03T06:29:05Z</time></trkpt><trkpt lat="46.039755282933186" lon="12.003479998281462"><ele>243.5</ele><time>2026-05-03T06:29:06Z</time></trkpt><trkpt lat="46.03966884597063" lon="12.003318488283368"><ele>243.0</ele><time>2026-05-03T06:29:07Z</time></trkpt><trkpt lat="46.039580589080714" lon="12.003163584865062"><ele>243.0</ele><time>2026-05-03T06:29:08Z</time></trkpt><trkpt lat="46.03948731960012" lon="12.003002965246555"><ele>243.0</ele><time>2026-05-03T06:29:09Z</time></trkpt><trkpt lat="46.039395398847276" lon="12.002844308007694"><ele>243.0</ele><time>2026-05-03T06:29:10Z</time></trkpt><trkpt lat="46.03930269620497" lon="12.002684827411224"><ele>243.0</ele><time>2026-05-03T06:29:11Z</time></trkpt><trkpt lat="46.039210787299346" lon="12.002528625166937"><ele>243.0</ele><time>2026-05-03T06:29:12Z</time></trkpt><trkpt lat="46.039117236114414" lon="12.002374527480807"><ele>243.0</ele><time>2026-05-03T06:29:13Z</time></trkpt><trkpt lat="46.03902238837006" lon="12.002220833144005"><ele>243.0</ele><time>2026-05-03T06:29:14Z</time></trkpt><trkpt lat="46.03892969558938" lon="12.002066568974616"><ele>243.0</ele><time>2026-05-03T06:29:15Z</time></trkpt><trkpt lat="46.03883928323423" lon="12.001908910127783"><ele>243.0</ele><time>2026-05-03T06:29:16Z</time></trkpt><trkpt lat="46.03875239176149" lon="12.001747484624802"><ele>243.0</ele><time>2026-05-03T06:29:17Z</time></trkpt><trkpt lat="46.03866915510894" lon="12.001584897045428"><ele>243.0</ele><time>2026-05-03T06:29:18Z</time></trkpt><trkpt lat="46.03858924396555" lon="12.001418798014514"><ele>243.0</ele><time>2026-05-03T06:29:19Z</time></trkpt><trkpt lat="46.0385153509496" lon="12.001248874479801"><ele>243.0</ele><time>2026-05-03T06:29:20Z</time></trkpt><trkpt lat="46.03844406982008" lon="12.001075559613408"><ele>243.0</ele><time>2026-05-03T06:29:21Z</time></trkpt><trkpt lat="46.03838051016315" lon="12.000899850609754"><ele>243.0</ele><time>2026-05-03T06:29:22Z</time></trkpt><trkpt lat="46.03831923350202" lon="12.000721120193228"><ele>243.0</ele><time>2026-05-03T06:29:23Z</time></trkpt><trkpt lat="46.03826153177952" lon="12.000539901104741"><ele>242.5</ele><time>2026-05-03T06:29:24Z</time></trkpt><trkpt lat="46.03820524213102" lon="12.00035322746015"><ele>242.0</ele><time>2026-05-03T06:29:25Z</time></trkpt><trkpt lat="46.03815088315378" lon="12.000168651364346"><ele>241.5</ele><time>2026-05-03T06:29:26Z</time></trkpt><trkpt lat="46.03810432481148" lon="11.999986783657404"><ele>241.0</ele><time>2026-05-03T06:29:27Z</time></trkpt><trkpt lat="46.038062895630645" lon="11.999804384400058"><ele>241.0</ele><time>2026-05-03T06:29:28Z</time></trkpt><trkpt lat="46.038027137313755" lon="11.99961837649566"><ele>241.0</ele><time>2026-05-03T06:29:29Z</time></trkpt><trkpt lat="46.03799595640252" lon="11.999431888175794"><ele>241.0</ele><time>2026-05-03T06:29:30Z</time></trkpt><trkpt lat="46.03796713212816" lon="11.999241970732031"><ele>241.0</ele><time>2026-05-03T06:29:31Z</time></trkpt><trkpt lat="46.03793944174647" lon="11.999047862695196"><ele>241.25</ele><time>2026-05-03T06:29:32Z</time></trkpt><trkpt lat="46.03791191887244" lon="11.998854052637693"><ele>241.5</ele><time>2026-05-03T06:29:33Z</time></trkpt><trkpt lat="46.03788582717826" lon="11.998661897895552"><ele>241.75</ele><time>2026-05-03T06:29:34Z</time></trkpt><trkpt lat="46.03786275528336" lon="11.998470680138972"><ele>242.0</ele><time>2026-05-03T06:29:35Z</time></trkpt><trkpt lat="46.03784148994995" lon="11.998277389272094"><ele>241.75</ele><time>2026-05-03T06:29:36Z</time></trkpt><trkpt lat="46.03782244846755" lon="11.998081916860949"><ele>241.5</ele><time>2026-05-03T06:29:37Z</time></trkpt><trkpt lat="46.03780896695292" lon="11.997886074585931"><ele>241.25</ele><time>2026-05-03T06:29:38Z</time></trkpt><trkpt lat="46.03779709354153" lon="11.997687162559304"><ele>241.0</ele><time>2026-05-03T06:29:39Z</time></trkpt><trkpt lat="46.03778622929138" lon="11.997487807559947"><ele>241.0</ele><time>2026-05-03T06:29:40Z</time></trkpt><trkpt lat="46.0377778313083" lon="11.997289302730314"><ele>241.0</ele><time>2026-05-03T06:29:41Z</time></trkpt><trkpt lat="46.03777157213506" lon="11.997088640751281"><ele>241.0</ele><time>2026-05-03T06:29:42Z</time></trkpt><trkpt lat="46.037768974025674" lon="11.996885296521379"><ele>241.0</ele><time>2026-05-03T06:29:43Z</time></trkpt><trkpt lat="46.03777000259647" lon="11.996683494378708"><ele>241.25</ele><time>2026-05-03T06:29:44Z</time></trkpt><trkpt lat="46.03777182978425" lon="11.996482655898243"><ele>241.5</ele><time>2026-05-03T06:29:45Z</time></trkpt><trkpt lat="46.037776526497346" lon="11.996275943677627"><ele>241.75</ele><time>2026-05-03T06:29:46Z</time></trkpt><trkpt lat="46.03778597259413" lon="11.996074033452564"><ele>242.0</ele><time>2026-05-03T06:29:47Z</time></trkpt><trkpt lat="46.03779484509827" lon="11.995878833762012"><ele>242.25</ele><time>2026-05-03T06:29:48Z</time></trkpt><trkpt lat="46.037804358791796" lon="11.995675406773765"><ele>242.5</ele><time>2026-05-03T06:29:49Z</time></trkpt><trkpt lat="46.03781785864523" lon="11.995473078450779"><ele>242.75</ele><time>2026-05-03T06:29:50Z</time></trkpt><trkpt lat="46.03783156193952" lon="11.995268591191252"><ele>243.0</ele><time>2026-05-03T06:29:51Z</time></trkpt><trkpt lat="46.03784933038327" lon="11.99507153989613"><ele>242.75</ele><time>2026-05-03T06:29:52Z</time></trkpt><trkpt lat="46.03787042048064" lon="11.994874680846035"><ele>242.5</ele><time>2026-05-03T06:29:53Z</time></trkpt><trkpt lat="46.03789337798981" lon="11.994680029082904"><ele>242.25</ele><time>2026-05-03T06:29:54Z</time></trkpt><trkpt lat="46.037913161577784" lon="11.994483213019532"><ele>242.0</ele><time>2026-05-03T06:29:55Z</time></trkpt><trkpt lat="46.03793276498566" lon="11.994287516064876"><ele>241.5</ele><time>2026-05-03T06:29:56Z</time></trkpt><trkpt lat="46.037952936449194" lon="11.994085362700728"><ele>241.0</ele><time>2026-05-03T06:29:57Z</time></trkpt><trkpt lat="46.03797180702566" lon="11.993886969109512"><ele>240.5</ele><time>2026-05-03T06:29:58Z</time></trkpt><trkpt lat="46.03799089444685" lon="11.99368288892471"><ele>240.0</ele><time>2026-05-03T06:29:59Z</time></trkpt><trkpt lat="46.03800894117235" lon="11.993487688675229"><ele>240.0</ele><time>2026-05-03T06:30:00Z</time></trkpt><trkpt lat="46.03802723920926" lon="11.99328946298578"><ele>240.0</ele><time>2026-05-03T06:30:01Z</time></trkpt><trkpt lat="46.03804839618792" lon="11.993089329008699"><ele>240.0</ele><time>2026-05-03T06:30:02Z</time></trkpt><trkpt lat="46.03807117405634" lon="11.992890685031991"><ele>240.0</ele><time>2026-05-03T06:30:03Z</time></trkpt><trkpt lat="46.03809178795217" lon="11.992699791165562"><ele>240.0</ele><time>2026-05-03T06:30:04Z</time></trkpt><trkpt lat="46.038112303105464" lon="11.992514423066854"><ele>240.0</ele><time>2026-05-03T06:30:05Z</time></trkpt><trkpt lat="46.03813065419002" lon="11.992331656531807"><ele>240.0</ele><time>2026-05-03T06:30:06Z</time></trkpt><trkpt lat="46.038150002817716" lon="11.992144401423399"><ele>240.0</ele><time>2026-05-03T06:30:07Z</time></trkpt><trkpt lat="46.03816773812449" lon="11.991956104858598"><ele>240.0</ele><time>2026-05-03T06:30:08Z</time></trkpt><trkpt lat="46.038186424847446" lon="11.991768148289635"><ele>240.0</ele><time>2026-05-03T06:30:09Z</time></trkpt><trkpt lat="46.03820632702402" lon="11.991576561001951"><ele>240.0</ele><time>2026-05-03T06:30:10Z</time></trkpt><trkpt lat="46.03822645349167" lon="11.991385368287684"><ele>240.0</ele><time>2026-05-03T06:30:11Z</time></trkpt><trkpt lat="46.03824768554486" lon="11.991192788152421"><ele>240.0</ele><time>2026-05-03T06:30:12Z</time></trkpt><trkpt lat="46.038267634389285" lon="11.990999231855284"><ele>240.0</ele><time>2026-05-03T06:30:13Z</time></trkpt><trkpt lat="46.03828492070822" lon="11.990798496850795"><ele>240.0</ele><time>2026-05-03T06:30:14Z</time></trkpt><trkpt lat="46.038299842343925" lon="11.990618894001686"><ele>240.0</ele><time>2026-05-03T06:30:15Z</time></trkpt><trkpt lat="46.03831380217207" lon="11.99042303005994"><ele>239.75</ele><time>2026-05-03T06:30:16Z</time></trkpt><trkpt lat="46.03831945868903" lon="11.990234080723408"><ele>239.5</ele><time>2026-05-03T06:30:17Z</time></trkpt><trkpt lat="46.03831601907579" lon="11.99004394119976"><ele>239.25</ele><time>2026-05-03T06:30:18Z</time></trkpt><trkpt lat="46.03830371917943" lon="11.98985239309711"><ele>239.0</ele><time>2026-05-03T06:30:19Z</time></trkpt><trkpt lat="46.03828542257091" lon="11.989667053316866"><ele>239.0</ele><time>2026-05-03T06:30:20Z</time></trkpt><trkpt lat="46.03825931240496" lon="11.989478414859944"><ele>239.0</ele><time>2026-05-03T06:30:21Z</time></trkpt><trkpt lat="46.0382310983521" lon="11.98929381792485"><ele>239.0</ele><time>2026-05-03T06:30:22Z</time></trkpt><trkpt lat="46.03820460684775" lon="11.989117775320478"><ele>239.0</ele><time>2026-05-03T06:30:23Z</time></trkpt><trkpt lat="46.038175337723516" lon="11.988935992901373"><ele>238.25</ele><time>2026-05-03T06:30:24Z</time></trkpt><trkpt lat="46.03814882074258" lon="11.988756683762402"><ele>237.5</ele><time>2026-05-03T06:30:25Z</time></trkpt><trkpt lat="46.0381233176909" lon="11.98857919026644"><ele>236.75</ele><time>2026-05-03T06:30:26Z</time></trkpt><trkpt lat="46.03809827953352" lon="11.988400585012991"><ele>236.0</ele><time>2026-05-03T06:30:26.999Z</time></trkpt><trkpt lat="46.03807346234572" lon="11.988220998356896"><ele>235.5</ele><time>2026-05-03T06:30:27.999Z</time></trkpt><trkpt lat="46.038053439800954" lon="11.988038385218475"><ele>235.0</ele><time>2026-05-03T06:30:28.999Z</time></trkpt><trkpt lat="46.03804104423548" lon="11.987854754116906"><ele>234.5</ele><time>2026-05-03T06:30:29.999Z</time></trkpt><trkpt lat="46.038039392200226" lon="11.987671054072106"><ele>234.0</ele><time>2026-05-03T06:30:30.999Z</time></trkpt><trkpt lat="46.03804608203065" lon="11.987485987558642"><ele>233.5</ele><time>2026-05-03T06:30:31.999Z</time></trkpt><trkpt lat="46.03805154021563" lon="11.987300198951633"><ele>233.0</ele><time>2026-05-03T06:30:32.999Z</time></trkpt><trkpt lat="46.03805289489634" lon="11.987112753210283"><ele>232.5</ele><time>2026-05-03T06:30:33.999Z</time></trkpt><trkpt lat="46.0380562136828" lon="11.986926676056047"><ele>232.0</ele><time>2026-05-03T06:30:34.999Z</time></trkpt><trkpt lat="46.03805913643397" lon="11.986737922686139"><ele>232.25</ele><time>2026-05-03T06:30:35.999Z</time></trkpt><trkpt lat="46.0380619934727" lon="11.986548205465922"><ele>232.5</ele><time>2026-05-03T06:30:36.999Z</time></trkpt><trkpt lat="46.038061800737644" lon="11.986353988414448"><ele>232.75</ele><time>2026-05-03T06:30:37.999Z</time></trkpt><trkpt lat="46.0380627974393" lon="11.986160644624125"><ele>233.0</ele><time>2026-05-03T06:30:38.999Z</time></trkpt><trkpt lat="46.03806745542982" lon="11.98596574032689"><ele>235.25</ele><time>2026-05-03T06:30:39.999Z</time></trkpt><trkpt lat="46.03809501221224" lon="11.985774889527985"><ele>237.5</ele><time>2026-05-03T06:30:40.999Z</time></trkpt><trkpt lat="46.03814765588866" lon="11.985594336982459"><ele>239.75</ele><time>2026-05-03T06:30:41.999Z</time></trkpt><trkpt lat="46.03821782387615" lon="11.985424613205225"><ele>242.0</ele><time>2026-05-03T06:30:42.999Z</time></trkpt><trkpt lat="46.038285836828" lon="11.985252439835063"><ele>241.5</ele><time>2026-05-03T06:30:43.999Z</time></trkpt><trkpt lat="46.03835290137574" lon="11.985080905885345"><ele>241.0</ele><time>2026-05-03T06:30:44.999Z</time></trkpt><trkpt lat="46.03841825961852" lon="11.984911265197711"><ele>240.5</ele><time>2026-05-03T06:30:45.999Z</time></trkpt><trkpt lat="46.03848374473284" lon="11.984748573101383"><ele>240.0</ele><time>2026-05-03T06:30:46.999Z</time></trkpt><trkpt lat="46.03854536631814" lon="11.984593100013525"><ele>240.0</ele><time>2026-05-03T06:30:47.999Z</time></trkpt><trkpt lat="46.038604023872075" lon="11.984442406938362"><ele>240.0</ele><time>2026-05-03T06:30:48.999Z</time></trkpt><trkpt lat="46.03865979213406" lon="11.98429495883206"><ele>240.0</ele><time>2026-05-03T06:30:49.999Z</time></trkpt><trkpt lat="46.03871978341836" lon="11.984148296840921"><ele>240.0</ele><time>2026-05-03T06:30:50.999Z</time></trkpt><trkpt lat="46.03874920958193" lon="11.983979684848391"><ele>241.2</ele><time>2026-05-03T06:30:51.999Z</time></trkpt><trkpt lat="46.03876660611127" lon="11.98382467346448"><ele>242.4</ele><time>2026-05-03T06:30:52.999Z</time></trkpt><trkpt lat="46.03877210224528" lon="11.983685208574684"><ele>243.60000000000002</ele><time>2026-05-03T06:30:53.999Z</time></trkpt><trkpt lat="46.038775529174224" lon="11.983565623416299"><ele>244.8</ele><time>2026-05-03T06:30:54.999Z</time></trkpt><trkpt lat="46.03879207200225" lon="11.983454393817437"><ele>246.0</ele><time>2026-05-03T06:30:55.999Z</time></trkpt><trkpt lat="46.03882869907043" lon="11.983342975069665"><ele>246.0</ele><time>2026-05-03T06:30:56.999Z</time></trkpt><trkpt lat="46.038878058221535" lon="11.983243392297151"><ele>246.0</ele><time>2026-05-03T06:30:57.999Z</time></trkpt><trkpt lat="46.038927774695814" lon="11.98314448849471"><ele>246.0</ele><time>2026-05-03T06:30:58.999Z</time></trkpt><trkpt lat="46.03894404788095" lon="11.983025719022747"><ele>246.0</ele><time>2026-05-03T06:30:59.999Z</time></trkpt><trkpt lat="46.0389234720431" lon="11.982898500222053"><ele>246.0</ele><time>2026-05-03T06:31:00.999Z</time></trkpt><trkpt lat="46.03887308546876" lon="11.982790484244731"><ele>246.0</ele><time>2026-05-03T06:31:02Z</time></trkpt><trkpt lat="46.03879834438806" lon="11.98270811552569"><ele>246.0</ele><time>2026-05-03T06:31:03Z</time></trkpt><trkpt lat="46.038717577646246" lon="11.982639510816766"><ele>246.00000000000003</ele><time>2026-05-03T06:31:04Z</time></trkpt><trkpt lat="46.03864066341896" lon="11.982553614241136"><ele>246.00000000000003</ele><time>2026-05-03T06:31:05Z</time></trkpt><trkpt lat="46.038567954468164" lon="11.982436098650064"><ele>246.0</ele><time>2026-05-03T06:31:06Z</time></trkpt><trkpt lat="46.03849538469251" lon="11.982298558150948"><ele>246.0</ele><time>2026-05-03T06:31:07Z</time></trkpt><trkpt lat="46.03841861413761" lon="11.982144953371726"><ele>246.0</ele><time>2026-05-03T06:31:08Z</time></trkpt><trkpt lat="46.03835539872145" lon="11.982017671273782"><ele>246.00000000000003</ele><time>2026-05-03T06:31:09Z</time></trkpt><trkpt lat="46.03829303999225" lon="11.981892631665616"><ele>246.00000000000003</ele><time>2026-05-03T06:31:10Z</time></trkpt><trkpt lat="46.03822952083485" lon="11.981764799518523"><ele>246.0</ele><time>2026-05-03T06:31:11Z</time></trkpt><trkpt lat="46.03817248603789" lon="11.981629159173753"><ele>246.0</ele><time>2026-05-03T06:31:12Z</time></trkpt><trkpt lat="46.03811472237355" lon="11.981488784591061"><ele>246.25</ele><time>2026-05-03T06:31:13Z</time></trkpt><trkpt lat="46.038055199276734" lon="11.981346428740025"><ele>246.5</ele><time>2026-05-03T06:31:14Z</time></trkpt><trkpt lat="46.03799178892371" lon="11.981197543329856"><ele>246.75</ele><time>2026-05-03T06:31:15Z</time></trkpt><trkpt lat="46.037925851201834" lon="11.981044257929968"><ele>247.0</ele><time>2026-05-03T06:31:16Z</time></trkpt><trkpt lat="46.03786005018746" lon="11.980886489886903"><ele>247.0</ele><time>2026-05-03T06:31:17Z</time></trkpt><trkpt lat="46.03779585393266" lon="11.980728123521592"><ele>247.0</ele><time>2026-05-03T06:31:18Z</time></trkpt><trkpt lat="46.0377320287317" lon="11.980570924482608"><ele>247.0</ele><time>2026-05-03T06:31:19Z</time></trkpt><trkpt lat="46.037664820083464" lon="11.9804098320626"><ele>247.0</ele><time>2026-05-03T06:31:20Z</time></trkpt><trkpt lat="46.03759835542204" lon="11.98024696558888"><ele>247.0</ele><time>2026-05-03T06:31:21Z</time></trkpt><trkpt lat="46.03752945599218" lon="11.980079068432167"><ele>247.0</ele><time>2026-05-03T06:31:22Z</time></trkpt><trkpt lat="46.037457038441346" lon="11.979899752785107"><ele>247.0</ele><time>2026-05-03T06:31:23Z</time></trkpt><trkpt lat="46.03736069879781" lon="11.979670595380698"><ele>249.66666666666666</ele><time>2026-05-03T06:31:24Z</time></trkpt><trkpt lat="46.03724707048567" lon="11.979394393376413"><ele>252.33333333333331</ele><time>2026-05-03T06:31:25Z</time></trkpt><trkpt lat="46.037148540132435" lon="11.97914510697599"><ele>255.0</ele><time>2026-05-03T06:31:26Z</time></trkpt><trkpt lat="46.03705409620651" lon="11.978906180436384"><ele>255.66666666666669</ele><time>2026-05-03T06:31:27Z</time></trkpt><trkpt lat="46.036961646566255" lon="11.97867936390023"><ele>256.33333333333337</ele><time>2026-05-03T06:31:28Z</time></trkpt><trkpt lat="46.036867054732035" lon="11.978455445240142"><ele>257.0</ele><time>2026-05-03T06:31:29Z</time></trkpt><trkpt lat="46.036775396781735" lon="11.97823245423472"><ele>257.0</ele><time>2026-05-03T06:31:30Z</time></trkpt><trkpt lat="46.03668458263275" lon="11.97800900198135"><ele>257.0</ele><time>2026-05-03T06:31:31Z</time></trkpt><trkpt lat="46.03659398155526" lon="11.97778823197887"><ele>257.0</ele><time>2026-05-03T06:31:32Z</time></trkpt><trkpt lat="46.03650418692866" lon="11.977567741277527"><ele>257.6666666666667</ele><time>2026-05-03T06:31:33Z</time></trkpt><trkpt lat="46.03641515025625" lon="11.977349696012737"><ele>258.3333333333333</ele><time>2026-05-03T06:31:34Z</time></trkpt><trkpt lat="46.036325778978735" lon="11.977131833986626"><ele>259.0</ele><time>2026-05-03T06:31:35Z</time></trkpt><trkpt lat="46.03623695474049" lon="11.976916592211111"><ele>259.0</ele><time>2026-05-03T06:31:36Z</time></trkpt><trkpt lat="46.03614973714574" lon="11.976703232369271"><ele>259.0</ele><time>2026-05-03T06:31:37Z</time></trkpt><trkpt lat="46.0360640196121" lon="11.97648877585143"><ele>259.0</ele><time>2026-05-03T06:31:38Z</time></trkpt><trkpt lat="46.0359773653825" lon="11.976272000812523"><ele>258.3333333333333</ele><time>2026-05-03T06:31:39Z</time></trkpt><trkpt lat="46.035890322411284" lon="11.9760569236448"><ele>257.6666666666667</ele><time>2026-05-03T06:31:40Z</time></trkpt><trkpt lat="46.03580251619892" lon="11.975845043920884"><ele>257.0</ele><time>2026-05-03T06:31:41Z</time></trkpt><trkpt lat="46.03571523874701" lon="11.975636028469298"><ele>258.6666666666667</ele><time>2026-05-03T06:31:42Z</time></trkpt><trkpt lat="46.03562495203742" lon="11.975424640720501"><ele>260.3333333333333</ele><time>2026-05-03T06:31:43Z</time></trkpt><trkpt lat="46.03553791060237" lon="11.975209587155387"><ele>262.0</ele><time>2026-05-03T06:31:44Z</time></trkpt><trkpt lat="46.03545235977296" lon="11.97499596807504"><ele>262.0</ele><time>2026-05-03T06:31:45Z</time></trkpt><trkpt lat="46.03536232087128" lon="11.974779277747906"><ele>262.0</ele><time>2026-05-03T06:31:46Z</time></trkpt><trkpt lat="46.0352738666205" lon="11.974563446489508"><ele>262.0</ele><time>2026-05-03T06:31:47Z</time></trkpt><trkpt lat="46.035186450056884" lon="11.974346959754977"><ele>263.0</ele><time>2026-05-03T06:31:48Z</time></trkpt><trkpt lat="46.03509847349421" lon="11.97413236993617"><ele>264.0</ele><time>2026-05-03T06:31:49Z</time></trkpt><trkpt lat="46.035010222479066" lon="11.973915411249042"><ele>265.0</ele><time>2026-05-03T06:31:50Z</time></trkpt><trkpt lat="46.03492118833383" lon="11.97370017382871"><ele>264.66666666666663</ele><time>2026-05-03T06:31:51Z</time></trkpt><trkpt lat="46.03483686947037" lon="11.973491174631905"><ele>264.3333333333333</ele><time>2026-05-03T06:31:52Z</time></trkpt><trkpt lat="46.03474857713052" lon="11.973277205082832"><ele>264.0</ele><time>2026-05-03T06:31:53Z</time></trkpt><trkpt lat="46.03466361251161" lon="11.973062671541777"><ele>264.0</ele><time>2026-05-03T06:31:54Z</time></trkpt><trkpt lat="46.034578632159345" lon="11.972846129973998"><ele>264.0</ele><time>2026-05-03T06:31:55Z</time></trkpt><trkpt lat="46.03449543928619" lon="11.972629541401929"><ele>264.0</ele><time>2026-05-03T06:31:56Z</time></trkpt><trkpt lat="46.03441244027511" lon="11.972411463008449"><ele>264.3333333333333</ele><time>2026-05-03T06:31:57Z</time></trkpt><trkpt lat="46.034329719159096" lon="11.972194625488223"><ele>264.66666666666663</ele><time>2026-05-03T06:31:58Z</time></trkpt><trkpt lat="46.03425980556119" lon="11.971967083725369"><ele>265.0</ele><time>2026-05-03T06:31:59Z</time></trkpt><trkpt lat="46.03417776160223" lon="11.971749533955052"><ele>264.0</ele><time>2026-05-03T06:32:00Z</time></trkpt><trkpt lat="46.03409748515613" lon="11.971535587103864"><ele>263.0</ele><time>2026-05-03T06:32:01Z</time></trkpt><trkpt lat="46.034018659413256" lon="11.971323894933223"><ele>262.0</ele><time>2026-05-03T06:32:02Z</time></trkpt><trkpt lat="46.03394556510137" lon="11.971130575847631"><ele>262.0</ele><time>2026-05-03T06:32:03Z</time></trkpt><trkpt lat="46.03385812970058" lon="11.970942044885092"><ele>262.0</ele><time>2026-05-03T06:32:04Z</time></trkpt><trkpt lat="46.03378399118722" lon="11.970739905325146"><ele>262.0</ele><time>2026-05-03T06:32:05Z</time></trkpt><trkpt lat="46.033725080095685" lon="11.970530070149309"><ele>262.3333333333333</ele><time>2026-05-03T06:32:06Z</time></trkpt><trkpt lat="46.03364507050558" lon="11.970341156121895"><ele>262.6666666666667</ele><time>2026-05-03T06:32:07Z</time></trkpt><trkpt lat="46.03359035030078" lon="11.970133870764965"><ele>263.0</ele><time>2026-05-03T06:32:08Z</time></trkpt><trkpt lat="46.033548541265354" lon="11.969917383944237"><ele>264.0</ele><time>2026-05-03T06:32:09Z</time></trkpt><trkpt lat="46.033522355468634" lon="11.969694889014798"><ele>265.0</ele><time>2026-05-03T06:32:10Z</time></trkpt><trkpt lat="46.033506125890284" lon="11.969468911474777"><ele>266.0</ele><time>2026-05-03T06:32:11Z</time></trkpt><trkpt lat="46.03349693226151" lon="11.969239634962607"><ele>265.6666666666667</ele><time>2026-05-03T06:32:12Z</time></trkpt><trkpt lat="46.03349834048968" lon="11.969008954479417"><ele>265.3333333333333</ele><time>2026-05-03T06:32:13Z</time></trkpt><trkpt lat="46.03350402132559" lon="11.9687709463193"><ele>265.0</ele><time>2026-05-03T06:32:14Z</time></trkpt><trkpt lat="46.03350808760239" lon="11.968531935032638"><ele>265.3333333333333</ele><time>2026-05-03T06:32:15Z</time></trkpt><trkpt lat="46.03351068667985" lon="11.968288558031343"><ele>265.6666666666667</ele><time>2026-05-03T06:32:16Z</time></trkpt><trkpt lat="46.03351449201001" lon="11.968045939198536"><ele>266.0</ele><time>2026-05-03T06:32:17Z</time></trkpt><trkpt lat="46.03351955623482" lon="11.967805285092503"><ele>266.0</ele><time>2026-05-03T06:32:18Z</time></trkpt><trkpt lat="46.033521169765756" lon="11.967560655973497"><ele>266.0</ele><time>2026-05-03T06:32:19Z</time></trkpt><trkpt lat="46.03352266802701" lon="11.967318242766058"><ele>266.0</ele><time>2026-05-03T06:32:20Z</time></trkpt><trkpt lat="46.03352017281399" lon="11.967076280503182"><ele>267.6666666666667</ele><time>2026-05-03T06:32:21Z</time></trkpt><trkpt lat="46.03351275404735" lon="11.966834091501909"><ele>269.3333333333333</ele><time>2026-05-03T06:32:22Z</time></trkpt><trkpt lat="46.03348537033926" lon="11.966603324429096"><ele>271.0</ele><time>2026-05-03T06:32:23Z</time></trkpt><trkpt lat="46.03343761518465" lon="11.966370545950602"><ele>271.66666666666663</ele><time>2026-05-03T06:32:24Z</time></trkpt><trkpt lat="46.03337851619324" lon="11.966146807830143"><ele>272.3333333333333</ele><time>2026-05-03T06:32:25Z</time></trkpt><trkpt lat="46.033317209278025" lon="11.965926212549483"><ele>273.0</ele><time>2026-05-03T06:32:26Z</time></trkpt><trkpt lat="46.03325331574441" lon="11.965706659571735"><ele>273.0</ele><time>2026-05-03T06:32:27Z</time></trkpt><trkpt lat="46.03319331389014" lon="11.965506368204984"><ele>273.0</ele><time>2026-05-03T06:32:28Z</time></trkpt><trkpt lat="46.03313635006653" lon="11.96532175177578"><ele>273.0</ele><time>2026-05-03T06:32:29Z</time></trkpt><trkpt lat="46.03307884456369" lon="11.965141686502394"><ele>273.0</ele><time>2026-05-03T06:32:29.999Z</time></trkpt><trkpt lat="46.033022204698476" lon="11.964962894931967"><ele>273.5</ele><time>2026-05-03T06:32:30.999Z</time></trkpt><trkpt lat="46.032961652951286" lon="11.964783817778516"><ele>274.0</ele><time>2026-05-03T06:32:31.999Z</time></trkpt><trkpt lat="46.03289848494013" lon="11.96460945660947"><ele>274.5</ele><time>2026-05-03T06:32:32.999Z</time></trkpt><trkpt lat="46.03282765682031" lon="11.964439813244999"><ele>275.0</ele><time>2026-05-03T06:32:33.999Z</time></trkpt><trkpt lat="46.03274713712227" lon="11.96427463520198"><ele>276.25</ele><time>2026-05-03T06:32:34.999Z</time></trkpt><trkpt lat="46.03265764451275" lon="11.964114885694219"><ele>277.5</ele><time>2026-05-03T06:32:35.999Z</time></trkpt><trkpt lat="46.032563991455945" lon="11.963958759879826"><ele>278.75</ele><time>2026-05-03T06:32:36.999Z</time></trkpt><trkpt lat="46.03247182930858" lon="11.963803570234836"><ele>280.0</ele><time>2026-05-03T06:32:37.999Z</time></trkpt><trkpt lat="46.03237815169714" lon="11.96364609023355"><ele>281.0</ele><time>2026-05-03T06:32:38.999Z</time></trkpt><trkpt lat="46.03228647541917" lon="11.963495716693627"><ele>282.0</ele><time>2026-05-03T06:32:39.999Z</time></trkpt><trkpt lat="46.032193605209535" lon="11.963341135526473"><ele>283.0</ele><time>2026-05-03T06:32:40.999Z</time></trkpt><trkpt lat="46.032101955045405" lon="11.96318736301523"><ele>284.0</ele><time>2026-05-03T06:32:41.999Z</time></trkpt><trkpt lat="46.03201103871947" lon="11.96303219737028"><ele>284.5</ele><time>2026-05-03T06:32:42.999Z</time></trkpt><trkpt lat="46.03192049695123" lon="11.96287723379378"><ele>285.0</ele><time>2026-05-03T06:32:43.999Z</time></trkpt><trkpt lat="46.03183449181037" lon="11.962718408922973"><ele>285.5</ele><time>2026-05-03T06:32:44.999Z</time></trkpt><trkpt lat="46.03175911676375" lon="11.962553124963307"><ele>286.0</ele><time>2026-05-03T06:32:45.999Z</time></trkpt><trkpt lat="46.03169767025826" lon="11.962374664150927"><ele>286.0</ele><time>2026-05-03T06:32:46.999Z</time></trkpt><trkpt lat="46.03164859356412" lon="11.962189678775443"><ele>286.0</ele><time>2026-05-03T06:32:47.999Z</time></trkpt><trkpt lat="46.03160856869012" lon="11.961997548375601"><ele>286.0</ele><time>2026-05-03T06:32:48.999Z</time></trkpt><trkpt lat="46.03157561256473" lon="11.961797814079604"><ele>286.0</ele><time>2026-05-03T06:32:49.999Z</time></trkpt><trkpt lat="46.03155299301641" lon="11.9615990627334"><ele>285.75</ele><time>2026-05-03T06:32:50.999Z</time></trkpt><trkpt lat="46.031533190457615" lon="11.961400141873792"><ele>285.5</ele><time>2026-05-03T06:32:51.999Z</time></trkpt><trkpt lat="46.03151572440778" lon="11.961203117150534"><ele>285.25</ele><time>2026-05-03T06:32:52.999Z</time></trkpt><trkpt lat="46.03149685413781" lon="11.961006146304458"><ele>285.0</ele><time>2026-05-03T06:32:53.999Z</time></trkpt><trkpt lat="46.03147820193897" lon="11.960809030108846"><ele>285.5</ele><time>2026-05-03T06:32:54.999Z</time></trkpt><trkpt lat="46.031462999953" lon="11.96061371685305"><ele>286.0</ele><time>2026-05-03T06:32:55.999Z</time></trkpt><trkpt lat="46.03145077273023" lon="11.960414951298306"><ele>286.5</ele><time>2026-05-03T06:32:56.999Z</time></trkpt><trkpt lat="46.03144103226516" lon="11.960216950048917"><ele>287.0</ele><time>2026-05-03T06:32:57.999Z</time></trkpt><trkpt lat="46.0314309641864" lon="11.960018880795372"><ele>287.25</ele><time>2026-05-03T06:32:58.999Z</time></trkpt><trkpt lat="46.031406611727135" lon="11.95982577015348"><ele>287.5</ele><time>2026-05-03T06:32:59.999Z</time></trkpt><trkpt lat="46.031377523639165" lon="11.959631154560888"><ele>287.75</ele><time>2026-05-03T06:33:00.999Z</time></trkpt><trkpt lat="46.03135728589034" lon="11.959432789662419"><ele>288.0</ele><time>2026-05-03T06:33:01.999Z</time></trkpt><trkpt lat="46.03133727570257" lon="11.959234217960145"><ele>288.5</ele><time>2026-05-03T06:33:02.999Z</time></trkpt><trkpt lat="46.03131583160877" lon="11.959032954821115"><ele>289.0</ele><time>2026-05-03T06:33:03.999Z</time></trkpt><trkpt lat="46.031296826811456" lon="11.958832187948728"><ele>289.5</ele><time>2026-05-03T06:33:04.999Z</time></trkpt><trkpt lat="46.03127697632328" lon="11.958628711705849"><ele>290.0</ele><time>2026-05-03T06:33:05.999Z</time></trkpt><trkpt lat="46.031258046232644" lon="11.958423952537977"><ele>290.25</ele><time>2026-05-03T06:33:06.999Z</time></trkpt><trkpt lat="46.03123644631516" lon="11.9582157943543"><ele>290.5</ele><time>2026-05-03T06:33:08Z</time></trkpt><trkpt lat="46.03121792052473" lon="11.95801016911582"><ele>290.75</ele><time>2026-05-03T06:33:09Z</time></trkpt><trkpt lat="46.0311993051777" lon="11.957801066130122"><ele>291.0</ele><time>2026-05-03T06:33:10Z</time></trkpt><trkpt lat="46.03117988671459" lon="11.957590379903511"><ele>291.5</ele><time>2026-05-03T06:33:11Z</time></trkpt><trkpt lat="46.03115692195178" lon="11.957379145973158"><ele>292.0</ele><time>2026-05-03T06:33:12Z</time></trkpt><trkpt lat="46.031136983772996" lon="11.95716915032763"><ele>292.5</ele><time>2026-05-03T06:33:13Z</time></trkpt><trkpt lat="46.03111886038587" lon="11.95696282095946"><ele>293.0</ele><time>2026-05-03T06:33:14Z</time></trkpt><trkpt lat="46.03109777523158" lon="11.956753073912866"><ele>293.75</ele><time>2026-05-03T06:33:15Z</time></trkpt><trkpt lat="46.03107827651005" lon="11.956545530935536"><ele>294.5</ele><time>2026-05-03T06:33:16Z</time></trkpt><trkpt lat="46.03105786949614" lon="11.956338869405636"><ele>295.25</ele><time>2026-05-03T06:33:17Z</time></trkpt><trkpt lat="46.031037625377905" lon="11.956132951078029"><ele>296.0</ele><time>2026-05-03T06:33:18Z</time></trkpt><trkpt lat="46.031018501262764" lon="11.955924523244873"><ele>296.25</ele><time>2026-05-03T06:33:19Z</time></trkpt><trkpt lat="46.03100142927076" lon="11.955718157101677"><ele>296.5</ele><time>2026-05-03T06:33:20Z</time></trkpt><trkpt lat="46.03098308503608" lon="11.955513514886677"><ele>296.75</ele><time>2026-05-03T06:33:21Z</time></trkpt><trkpt lat="46.03096296448385" lon="11.955306879963947"><ele>297.0</ele><time>2026-05-03T06:33:22Z</time></trkpt><trkpt lat="46.030943441964915" lon="11.955100115498208"><ele>297.25</ele><time>2026-05-03T06:33:23Z</time></trkpt><trkpt lat="46.030922039959094" lon="11.954895291081336"><ele>297.5</ele><time>2026-05-03T06:33:24Z</time></trkpt><trkpt lat="46.03090224051399" lon="11.95468618135149"><ele>297.75</ele><time>2026-05-03T06:33:25Z</time></trkpt><trkpt lat="46.03088415563462" lon="11.95447383573361"><ele>298.0</ele><time>2026-05-03T06:33:26Z</time></trkpt><trkpt lat="46.03086459031803" lon="11.954258567138574"><ele>299.66666666666663</ele><time>2026-05-03T06:33:27Z</time></trkpt><trkpt lat="46.03084474033644" lon="11.954042994159673"><ele>301.3333333333333</ele><time>2026-05-03T06:33:28Z</time></trkpt><trkpt lat="46.03082477212505" lon="11.953827636944"><ele>303.0</ele><time>2026-05-03T06:33:29Z</time></trkpt><trkpt lat="46.030805352544014" lon="11.953613220629693"><ele>303.0</ele><time>2026-05-03T06:33:30Z</time></trkpt><trkpt lat="46.0307844062895" lon="11.953393595393194"><ele>303.0</ele><time>2026-05-03T06:33:31Z</time></trkpt><trkpt lat="46.030763881295776" lon="11.953175885306061"><ele>303.0</ele><time>2026-05-03T06:33:32Z</time></trkpt><trkpt lat="46.030742001710344" lon="11.952960248653756"><ele>303.0</ele><time>2026-05-03T06:33:33Z</time></trkpt><trkpt lat="46.030718024419436" lon="11.952745355320546"><ele>303.0</ele><time>2026-05-03T06:33:34Z</time></trkpt><trkpt lat="46.03069328812912" lon="11.952530832550318"><ele>303.0</ele><time>2026-05-03T06:33:35Z</time></trkpt><trkpt lat="46.030665041751156" lon="11.952315693476656"><ele>303.25</ele><time>2026-05-03T06:33:36Z</time></trkpt><trkpt lat="46.03063553120037" lon="11.952106458489617"><ele>303.5</ele><time>2026-05-03T06:33:37Z</time></trkpt><trkpt lat="46.030603190117326" lon="11.951897164511399"><ele>303.75</ele><time>2026-05-03T06:33:38Z</time></trkpt><trkpt lat="46.03056737732226" lon="11.951688204571806"><ele>304.0</ele><time>2026-05-03T06:33:39Z</time></trkpt><trkpt lat="46.03053043694795" lon="11.951478592743067"><ele>304.75</ele><time>2026-05-03T06:33:40Z</time></trkpt><trkpt lat="46.030492717806595" lon="11.951272072351376"><ele>305.5</ele><time>2026-05-03T06:33:41Z</time></trkpt><trkpt lat="46.03045434704985" lon="11.951066098771461"><ele>306.25</ele><time>2026-05-03T06:33:42Z</time></trkpt><trkpt lat="46.03041664846473" lon="11.95085969492165"><ele>307.0</ele><time>2026-05-03T06:33:43Z</time></trkpt><trkpt lat="46.030381367203674" lon="11.950655060205232"><ele>307.0</ele><time>2026-05-03T06:33:44Z</time></trkpt><trkpt lat="46.03034109788303" lon="11.950443849931316"><ele>307.0</ele><time>2026-05-03T06:33:45Z</time></trkpt><trkpt lat="46.03030060806373" lon="11.95023198060106"><ele>307.0</ele><time>2026-05-03T06:33:46Z</time></trkpt><trkpt lat="46.03026043827182" lon="11.950019694580444"><ele>307.66666666666663</ele><time>2026-05-03T06:33:47Z</time></trkpt><trkpt lat="46.03022146555866" lon="11.949807550383115"><ele>308.3333333333333</ele><time>2026-05-03T06:33:48Z</time></trkpt><trkpt lat="46.03018191625476" lon="11.949591678845561"><ele>309.0</ele><time>2026-05-03T06:33:49Z</time></trkpt><trkpt lat="46.03014399022661" lon="11.949380364192779"><ele>310.0</ele><time>2026-05-03T06:33:50Z</time></trkpt><trkpt lat="46.03010568910829" lon="11.949167209861391"><ele>311.0</ele><time>2026-05-03T06:33:51Z</time></trkpt><trkpt lat="46.0300675593146" lon="11.94895586970253"><ele>312.0</ele><time>2026-05-03T06:33:52Z</time></trkpt><trkpt lat="46.03002742230987" lon="11.948741754540393"><ele>312.0</ele><time>2026-05-03T06:33:53Z</time></trkpt><trkpt lat="46.029987473578686" lon="11.948530050758494"><ele>312.0</ele><time>2026-05-03T06:33:54Z</time></trkpt><trkpt lat="46.029947655034796" lon="11.948319448395342"><ele>312.0</ele><time>2026-05-03T06:33:55Z</time></trkpt><trkpt lat="46.02990912119854" lon="11.9481093338952"><ele>312.3333333333333</ele><time>2026-05-03T06:33:56Z</time></trkpt><trkpt lat="46.02987052053274" lon="11.947900020189348"><ele>312.66666666666663</ele><time>2026-05-03T06:33:57Z</time></trkpt><trkpt lat="46.02983130327768" lon="11.947688466226229"><ele>313.0</ele><time>2026-05-03T06:33:58Z</time></trkpt><trkpt lat="46.029793505173465" lon="11.947479565894604"><ele>313.0</ele><time>2026-05-03T06:33:59Z</time></trkpt><trkpt lat="46.029755028490634" lon="11.947269231732093"><ele>313.0</ele><time>2026-05-03T06:34:00Z</time></trkpt><trkpt lat="46.029715499152935" lon="11.947058700985092"><ele>313.0</ele><time>2026-05-03T06:34:01Z</time></trkpt><trkpt lat="46.02967632251716" lon="11.946849012465412"><ele>313.25</ele><time>2026-05-03T06:34:02Z</time></trkpt><trkpt lat="46.029640373901934" lon="11.946644836347692"><ele>313.5</ele><time>2026-05-03T06:34:03Z</time></trkpt><trkpt lat="46.02960120871892" lon="11.946436121502733"><ele>313.75</ele><time>2026-05-03T06:34:04Z</time></trkpt><trkpt lat="46.02956029054756" lon="11.946225654389618"><ele>314.0</ele><time>2026-05-03T06:34:05Z</time></trkpt><trkpt lat="46.02952072870061" lon="11.946015954227962"><ele>313.6666666666667</ele><time>2026-05-03T06:34:06Z</time></trkpt><trkpt lat="46.02948252712452" lon="11.945806866402457"><ele>313.3333333333333</ele><time>2026-05-03T06:34:07Z</time></trkpt><trkpt lat="46.02944309116228" lon="11.945595518600392"><ele>313.0</ele><time>2026-05-03T06:34:08Z</time></trkpt><trkpt lat="46.0294019953742" lon="11.945380797163358"><ele>313.0</ele><time>2026-05-03T06:34:09Z</time></trkpt><trkpt lat="46.029361041031905" lon="11.945167697310815"><ele>313.0</ele><time>2026-05-03T06:34:10Z</time></trkpt><trkpt lat="46.029318185704476" lon="11.944954045872372"><ele>313.0</ele><time>2026-05-03T06:34:11Z</time></trkpt><trkpt lat="46.02926745646473" lon="11.944733441380004"><ele>313.66666666666663</ele><time>2026-05-03T06:34:12Z</time></trkpt><trkpt lat="46.029216818173126" lon="11.944525424147468"><ele>314.3333333333333</ele><time>2026-05-03T06:34:13Z</time></trkpt><trkpt lat="46.02916222603067" lon="11.944315632875293"><ele>315.0</ele><time>2026-05-03T06:34:14Z</time></trkpt><trkpt lat="46.02911008400157" lon="11.944107468353558"><ele>315.6666666666667</ele><time>2026-05-03T06:34:15Z</time></trkpt><trkpt lat="46.029056420593605" lon="11.943897892239393"><ele>316.33333333333337</ele><time>2026-05-03T06:34:16Z</time></trkpt><trkpt lat="46.028997794638634" lon="11.943687165129113"><ele>317.0</ele><time>2026-05-03T06:34:17Z</time></trkpt><trkpt lat="46.028935579805285" lon="11.94347806779995"><ele>316.33333333333337</ele><time>2026-05-03T06:34:18Z</time></trkpt><trkpt lat="46.02887340320953" lon="11.943272222971514"><ele>315.6666666666667</ele><time>2026-05-03T06:34:19Z</time></trkpt><trkpt lat="46.02881016880552" lon="11.943063125222215"><ele>315.0</ele><time>2026-05-03T06:34:20Z</time></trkpt><trkpt lat="46.02874900519496" lon="11.942854801931924"><ele>315.0</ele><time>2026-05-03T06:34:21Z</time></trkpt><trkpt lat="46.02868826927387" lon="11.942646489534429"><ele>315.0</ele><time>2026-05-03T06:34:22Z</time></trkpt><trkpt lat="46.028632611923356" lon="11.942448979939183"><ele>315.0</ele><time>2026-05-03T06:34:23Z</time></trkpt><trkpt lat="46.02857252777595" lon="11.94225066829874"><ele>315.0</ele><time>2026-05-03T06:34:24Z</time></trkpt><trkpt lat="46.02851392152184" lon="11.942047970770906"><ele>315.0</ele><time>2026-05-03T06:34:25Z</time></trkpt><trkpt lat="46.02845495803711" lon="11.941843407093558"><ele>315.0</ele><time>2026-05-03T06:34:26Z</time></trkpt><trkpt lat="46.02839617998401" lon="11.941637972225355"><ele>314.0</ele><time>2026-05-03T06:34:27Z</time></trkpt><trkpt lat="46.02833751392308" lon="11.941431716127964"><ele>313.0</ele><time>2026-05-03T06:34:28Z</time></trkpt><trkpt lat="46.02827504158333" lon="11.94122226454225"><ele>312.0</ele><time>2026-05-03T06:34:29Z</time></trkpt><trkpt lat="46.02821475810551" lon="11.941018772345416"><ele>311.3333333333333</ele><time>2026-05-03T06:34:30Z</time></trkpt><trkpt lat="46.02815685629899" lon="11.940812783126233"><ele>310.66666666666663</ele><time>2026-05-03T06:34:31Z</time></trkpt><trkpt lat="46.028096430373054" lon="11.940604508564329"><ele>310.0</ele><time>2026-05-03T06:34:32Z</time></trkpt><trkpt lat="46.02803903356943" lon="11.940402932595669"><ele>310.0</ele><time>2026-05-03T06:34:33Z</time></trkpt><trkpt lat="46.02797899949935" lon="11.940197318497002"><ele>310.0</ele><time>2026-05-03T06:34:33.999Z</time></trkpt><trkpt lat="46.02792054661339" lon="11.9399932256042"><ele>310.0</ele><time>2026-05-03T06:34:34.999Z</time></trkpt><trkpt lat="46.02786047345301" lon="11.939784817204595"><ele>308.3333333333333</ele><time>2026-05-03T06:34:35.999Z</time></trkpt><trkpt lat="46.02780099708686" lon="11.939578425698153"><ele>306.6666666666667</ele><time>2026-05-03T06:34:36.999Z</time></trkpt><trkpt lat="46.027745122596905" lon="11.93937229846344"><ele>305.0</ele><time>2026-05-03T06:34:37.999Z</time></trkpt><trkpt lat="46.027691511182056" lon="11.939166413697986"><ele>305.0</ele><time>2026-05-03T06:34:38.999Z</time></trkpt><trkpt lat="46.02763606044967" lon="11.938962252022458"><ele>305.0</ele><time>2026-05-03T06:34:39.999Z</time></trkpt><trkpt lat="46.02758326047058" lon="11.938757864273057"><ele>305.0</ele><time>2026-05-03T06:34:40.999Z</time></trkpt><trkpt lat="46.02753689470942" lon="11.938557084706082"><ele>304.75</ele><time>2026-05-03T06:34:41.999Z</time></trkpt><trkpt lat="46.02749539600581" lon="11.93835454843103"><ele>304.5</ele><time>2026-05-03T06:34:42.999Z</time></trkpt><trkpt lat="46.02745773510307" lon="11.938149388311015"><ele>304.25</ele><time>2026-05-03T06:34:43.999Z</time></trkpt><trkpt lat="46.02742069186305" lon="11.937947034323104"><ele>304.0</ele><time>2026-05-03T06:34:44.999Z</time></trkpt><trkpt lat="46.027382747318114" lon="11.937745056323713"><ele>308.0</ele><time>2026-05-03T06:34:45.999Z</time></trkpt><trkpt lat="46.02734256963453" lon="11.937536472080406"><ele>312.0</ele><time>2026-05-03T06:34:46.999Z</time></trkpt><trkpt lat="46.02730099535972" lon="11.937326628328918"><ele>316.0</ele><time>2026-05-03T06:34:47.999Z</time></trkpt><trkpt lat="46.02725777715376" lon="11.93711802288177"><ele>316.0</ele><time>2026-05-03T06:34:48.999Z</time></trkpt><trkpt lat="46.0272207805183" lon="11.936914544031701"><ele>316.0</ele><time>2026-05-03T06:34:49.999Z</time></trkpt><trkpt lat="46.027182534707464" lon="11.936703483725356"><ele>316.0</ele><time>2026-05-03T06:34:50.999Z</time></trkpt><trkpt lat="46.027144345844334" lon="11.936497125160782"><ele>316.0</ele><time>2026-05-03T06:34:51.999Z</time></trkpt><trkpt lat="46.02710529095565" lon="11.936286772930826"><ele>315.66666666666663</ele><time>2026-05-03T06:34:52.999Z</time></trkpt><trkpt lat="46.02706544338564" lon="11.93608042778474"><ele>315.3333333333333</ele><time>2026-05-03T06:34:53.999Z</time></trkpt><trkpt lat="46.02702392379702" lon="11.935868054985924"><ele>315.0</ele><time>2026-05-03T06:34:54.999Z</time></trkpt><trkpt lat="46.0269825842111" lon="11.935659626652203"><ele>312.6666666666667</ele><time>2026-05-03T06:34:55.999Z</time></trkpt><trkpt lat="46.02694086810813" lon="11.93544841749378"><ele>310.33333333333337</ele><time>2026-05-03T06:34:56.999Z</time></trkpt><trkpt lat="46.02690032513481" lon="11.935241609644017"><ele>308.0</ele><time>2026-05-03T06:34:57.999Z</time></trkpt><trkpt lat="46.02686142866147" lon="11.935034473716309"><ele>308.0</ele><time>2026-05-03T06:34:58.999Z</time></trkpt><trkpt lat="46.02682594782154" lon="11.934821241839284"><ele>308.0</ele><time>2026-05-03T06:34:59.999Z</time></trkpt><trkpt lat="46.026795477626635" lon="11.934609523940875"><ele>308.0</ele><time>2026-05-03T06:35:00.999Z</time></trkpt><trkpt lat="46.026772430260166" lon="11.934406244110614"><ele>308.0</ele><time>2026-05-03T06:35:01.999Z</time></trkpt><trkpt lat="46.02675903885482" lon="11.934216672119963"><ele>307.5</ele><time>2026-05-03T06:35:02.999Z</time></trkpt><trkpt lat="46.02674528600487" lon="11.934024332363068"><ele>307.0</ele><time>2026-05-03T06:35:03.999Z</time></trkpt><trkpt lat="46.02673282060668" lon="11.933829364746803"><ele>306.5</ele><time>2026-05-03T06:35:04.999Z</time></trkpt><trkpt lat="46.026722928910154" lon="11.933636107539416"><ele>306.0</ele><time>2026-05-03T06:35:05.999Z</time></trkpt><trkpt lat="46.02671031497618" lon="11.933437219272486"><ele>305.75</ele><time>2026-05-03T06:35:06.999Z</time></trkpt><trkpt lat="46.02670043154753" lon="11.93323444047912"><ele>305.5</ele><time>2026-05-03T06:35:07.999Z</time></trkpt><trkpt lat="46.026690798989826" lon="11.933029567559869"><ele>305.25</ele><time>2026-05-03T06:35:08.999Z</time></trkpt><trkpt lat="46.02667667955084" lon="11.93282860558323"><ele>305.0</ele><time>2026-05-03T06:35:09.999Z</time></trkpt><trkpt lat="46.026664034554734" lon="11.932636364533458"><ele>304.75</ele><time>2026-05-03T06:35:10.999Z</time></trkpt><trkpt lat="46.02665184488597" lon="11.932431642639955"><ele>304.5</ele><time>2026-05-03T06:35:11.999Z</time></trkpt><trkpt lat="46.02664179025344" lon="11.932221013408535"><ele>304.25</ele><time>2026-05-03T06:35:12.999Z</time></trkpt><trkpt lat="46.026632614095746" lon="11.932017763317813"><ele>304.0</ele><time>2026-05-03T06:35:14Z</time></trkpt><trkpt lat="46.02661785091644" lon="11.93183005529695"><ele>307.5</ele><time>2026-05-03T06:35:15Z</time></trkpt><trkpt lat="46.02660050797663" lon="11.931642409629585"><ele>311.0</ele><time>2026-05-03T06:35:16Z</time></trkpt><trkpt lat="46.02658119571759" lon="11.931447723344444"><ele>314.5</ele><time>2026-05-03T06:35:17Z</time></trkpt><trkpt lat="46.026558672012925" lon="11.931250602027154"><ele>318.0</ele><time>2026-05-03T06:35:18Z</time></trkpt><trkpt lat="46.0265367270294" lon="11.931065811245103"><ele>316.75</ele><time>2026-05-03T06:35:19Z</time></trkpt><trkpt lat="46.02651157441855" lon="11.930887805261666"><ele>315.5</ele><time>2026-05-03T06:35:20Z</time></trkpt><trkpt lat="46.02648185896944" lon="11.930705554613604"><ele>314.25</ele><time>2026-05-03T06:35:21Z</time></trkpt><trkpt lat="46.02644799119021" lon="11.930519720036964"><ele>313.0</ele><time>2026-05-03T06:35:22Z</time></trkpt><trkpt lat="46.02640991820201" lon="11.930338765755854"><ele>313.0</ele><time>2026-05-03T06:35:23Z</time></trkpt><trkpt lat="46.02636711265371" lon="11.930159578086334"><ele>313.0</ele><time>2026-05-03T06:35:24Z</time></trkpt><trkpt lat="46.02632828692015" lon="11.929988399770078"><ele>313.0</ele><time>2026-05-03T06:35:25Z</time></trkpt><trkpt lat="46.02628742786879" lon="11.929817543051959"><ele>313.0</ele><time>2026-05-03T06:35:26Z</time></trkpt><trkpt lat="46.02624470131749" lon="11.929643704373357"><ele>311.75</ele><time>2026-05-03T06:35:27Z</time></trkpt><trkpt lat="46.02620313899736" lon="11.929479568343238"><ele>310.5</ele><time>2026-05-03T06:35:28Z</time></trkpt><trkpt lat="46.026158225297856" lon="11.92931317111952"><ele>309.25</ele><time>2026-05-03T06:35:29Z</time></trkpt><trkpt lat="46.02611060888029" lon="11.929142898187164"><ele>308.0</ele><time>2026-05-03T06:35:30Z</time></trkpt><trkpt lat="46.02606161746231" lon="11.928973987789677"><ele>306.25</ele><time>2026-05-03T06:35:31Z</time></trkpt><trkpt lat="46.02601020211944" lon="11.928804439718958"><ele>304.5</ele><time>2026-05-03T06:35:32Z</time></trkpt><trkpt lat="46.025956842195455" lon="11.928638978732621"><ele>302.75</ele><time>2026-05-03T06:35:33Z</time></trkpt><trkpt lat="46.025908522040886" lon="11.928488791845952"><ele>301.0</ele><time>2026-05-03T06:35:34Z</time></trkpt><trkpt lat="46.025861253955625" lon="11.928338453691657"><ele>300.0</ele><time>2026-05-03T06:35:35Z</time></trkpt><trkpt lat="46.02581219746692" lon="11.928174377531905"><ele>299.0</ele><time>2026-05-03T06:35:36Z</time></trkpt><trkpt lat="46.0257615064239" lon="11.928004581313443"><ele>298.0</ele><time>2026-05-03T06:35:37Z</time></trkpt><trkpt lat="46.02570951824486" lon="11.927835294648776"><ele>297.0</ele><time>2026-05-03T06:35:38Z</time></trkpt><trkpt lat="46.0256534599618" lon="11.927660165008545"><ele>298.5</ele><time>2026-05-03T06:35:39Z</time></trkpt><trkpt lat="46.0255969890845" lon="11.927481785108922"><ele>300.0</ele><time>2026-05-03T06:35:40Z</time></trkpt><trkpt lat="46.025548487370955" lon="11.927322744799044"><ele>301.5</ele><time>2026-05-03T06:35:41Z</time></trkpt><trkpt lat="46.02550217193646" lon="11.927170020217321"><ele>303.0</ele><time>2026-05-03T06:35:42Z</time></trkpt><trkpt lat="46.02545502422013" lon="11.927012512731109"><ele>303.0</ele><time>2026-05-03T06:35:43Z</time></trkpt><trkpt lat="46.02540724918659" lon="11.926855926500858"><ele>303.0</ele><time>2026-05-03T06:35:44Z</time></trkpt><trkpt lat="46.02535667870658" lon="11.926697826367098"><ele>303.0</ele><time>2026-05-03T06:35:45Z</time></trkpt><trkpt lat="46.02530152153957" lon="11.926539791544812"><ele>303.0</ele><time>2026-05-03T06:35:46Z</time></trkpt><trkpt lat="46.02524110117745" lon="11.926380101250189"><ele>302.25</ele><time>2026-05-03T06:35:47Z</time></trkpt><trkpt lat="46.02517759467556" lon="11.926217003388931"><ele>301.5</ele><time>2026-05-03T06:35:48Z</time></trkpt><trkpt lat="46.025110165560314" lon="11.926054212677823"><ele>300.75</ele><time>2026-05-03T06:35:49Z</time></trkpt><trkpt lat="46.02504593338005" lon="11.925901774827029"><ele>300.0</ele><time>2026-05-03T06:35:50Z</time></trkpt><trkpt lat="46.024977024334234" lon="11.925743321511298"><ele>300.0</ele><time>2026-05-03T06:35:51Z</time></trkpt><trkpt lat="46.02490355562879" lon="11.92558674018929"><ele>300.0</ele><time>2026-05-03T06:35:52Z</time></trkpt><trkpt lat="46.02483150174624" lon="11.925432504524888"><ele>300.0</ele><time>2026-05-03T06:35:53Z</time></trkpt><trkpt lat="46.024753718864844" lon="11.925281015598209"><ele>300.0</ele><time>2026-05-03T06:35:54Z</time></trkpt><trkpt lat="46.02467363280079" lon="11.925131550471075"><ele>299.25</ele><time>2026-05-03T06:35:55Z</time></trkpt><trkpt lat="46.02459891820756" lon="11.92497840833683"><ele>298.5</ele><time>2026-05-03T06:35:56Z</time></trkpt><trkpt lat="46.02451925220614" lon="11.924832975808014"><ele>297.75</ele><time>2026-05-03T06:35:57Z</time></trkpt><trkpt lat="46.02443186615019" lon="11.924692346635524"><ele>297.0</ele><time>2026-05-03T06:35:58Z</time></trkpt><trkpt lat="46.02435238742847" lon="11.924551019225845"><ele>297.0</ele><time>2026-05-03T06:35:59Z</time></trkpt><trkpt lat="46.024272116090856" lon="11.924409653765796"><ele>297.0</ele><time>2026-05-03T06:36:00Z</time></trkpt><trkpt lat="46.02418921821099" lon="11.924268578792214"><ele>297.0</ele><time>2026-05-03T06:36:01Z</time></trkpt><trkpt lat="46.024103134671776" lon="11.924126056600471"><ele>297.0</ele><time>2026-05-03T06:36:02Z</time></trkpt><trkpt lat="46.024018745092384" lon="11.92397945862995"><ele>297.0</ele><time>2026-05-03T06:36:03Z</time></trkpt><trkpt lat="46.0239360004719" lon="11.923828147987711"><ele>297.0</ele><time>2026-05-03T06:36:04Z</time></trkpt><trkpt lat="46.023849782979894" lon="11.923668945919077"><ele>297.0</ele><time>2026-05-03T06:36:05Z</time></trkpt><trkpt lat="46.0237707354104" lon="11.923507767085855"><ele>297.0</ele><time>2026-05-03T06:36:06Z</time></trkpt><trkpt lat="46.023701233804495" lon="11.923357376499636"><ele>296.5</ele><time>2026-05-03T06:36:07Z</time></trkpt><trkpt lat="46.02363389606873" lon="11.923209985893093"><ele>296.0</ele><time>2026-05-03T06:36:08Z</time></trkpt><trkpt lat="46.023567739932155" lon="11.923052878530845"><ele>295.5</ele><time>2026-05-03T06:36:09Z</time></trkpt><trkpt lat="46.02350261412498" lon="11.922890547667738"><ele>295.0</ele><time>2026-05-03T06:36:10Z</time></trkpt><trkpt lat="46.023437895831805" lon="11.922727383803007"><ele>295.0</ele><time>2026-05-03T06:36:11Z</time></trkpt><trkpt lat="46.023378992180845" lon="11.922576430036017"><ele>295.0</ele><time>2026-05-03T06:36:12Z</time></trkpt><trkpt lat="46.023326120953044" lon="11.922430123936632"><ele>295.0</ele><time>2026-05-03T06:36:13Z</time></trkpt><trkpt lat="46.0232767897522" lon="11.922288255584043"><ele>295.0</ele><time>2026-05-03T06:36:14Z</time></trkpt><trkpt lat="46.023233279775724" lon="11.922152315630179"><ele>295.0</ele><time>2026-05-03T06:36:15Z</time></trkpt><trkpt lat="46.023194932036034" lon="11.922021323209178"><ele>294.6</ele><time>2026-05-03T06:36:16Z</time></trkpt><trkpt lat="46.02316305628758" lon="11.921891667449886"><ele>294.2</ele><time>2026-05-03T06:36:17Z</time></trkpt><trkpt lat="46.02313965075892" lon="11.921765104783711"><ele>293.8</ele><time>2026-05-03T06:36:18Z</time></trkpt><trkpt lat="46.02312735042689" lon="11.921642471052653"><ele>293.4</ele><time>2026-05-03T06:36:19Z</time></trkpt><trkpt lat="46.02313525878623" lon="11.921525358591417"><ele>293.0</ele><time>2026-05-03T06:36:20Z</time></trkpt><trkpt lat="46.02315719128753" lon="11.921391147142357"><ele>293.0</ele><time>2026-05-03T06:36:21Z</time></trkpt><trkpt lat="46.023156059884165" lon="11.92124560931472"><ele>293.0</ele><time>2026-05-03T06:36:22Z</time></trkpt><trkpt lat="46.02311251975409" lon="11.921102605071543"><ele>293.0</ele><time>2026-05-03T06:36:23Z</time></trkpt><trkpt lat="46.023063014987514" lon="11.92096752379807"><ele>293.0</ele><time>2026-05-03T06:36:24Z</time></trkpt><trkpt lat="46.02303816928257" lon="11.920814171757643"><ele>293.0</ele><time>2026-05-03T06:36:25Z</time></trkpt><trkpt lat="46.02302668653584" lon="11.920653384670754"><ele>293.0</ele><time>2026-05-03T06:36:26Z</time></trkpt><trkpt lat="46.02301813362633" lon="11.920508550521188"><ele>293.0</ele><time>2026-05-03T06:36:27Z</time></trkpt><trkpt lat="46.02300542161177" lon="11.92036790932743"><ele>293.0</ele><time>2026-05-03T06:36:28Z</time></trkpt><trkpt lat="46.022991541283425" lon="11.920225446153427"><ele>293.0</ele><time>2026-05-03T06:36:29Z</time></trkpt><trkpt lat="46.02298185097784" lon="11.920067482372964"><ele>293.0</ele><time>2026-05-03T06:36:30Z</time></trkpt><trkpt lat="46.02297069747432" lon="11.919897858205504"><ele>293.25</ele><time>2026-05-03T06:36:31Z</time></trkpt><trkpt lat="46.022960279121975" lon="11.91972130304362"><ele>293.5</ele><time>2026-05-03T06:36:32Z</time></trkpt><trkpt lat="46.02295273787605" lon="11.919531570373609"><ele>293.75</ele><time>2026-05-03T06:36:33Z</time></trkpt><trkpt lat="46.022945361141005" lon="11.919330657136658"><ele>294.0</ele><time>2026-05-03T06:36:34Z</time></trkpt><trkpt lat="46.02293594361623" lon="11.919116215051895"><ele>293.25</ele><time>2026-05-03T06:36:35Z</time></trkpt><trkpt lat="46.02292614127557" lon="11.918898229556632"><ele>292.5</ele><time>2026-05-03T06:36:36Z</time></trkpt><trkpt lat="46.02291938607701" lon="11.918705663928018"><ele>291.75</ele><time>2026-05-03T06:36:37Z</time></trkpt><trkpt lat="46.0229112548938" lon="11.918523667873961"><ele>291.0</ele><time>2026-05-03T06:36:38Z</time></trkpt><trkpt lat="46.02290088373036" lon="11.918351470896475"><ele>290.0</ele><time>2026-05-03T06:36:39Z</time></trkpt><trkpt lat="46.02289155442309" lon="11.918187851353446"><ele>289.0</ele><time>2026-05-03T06:36:40Z</time></trkpt><trkpt lat="46.0228815535974" lon="11.918022547084233"><ele>288.0</ele><time>2026-05-03T06:36:41Z</time></trkpt><trkpt lat="46.022871556161995" lon="11.917847568091995"><ele>287.0</ele><time>2026-05-03T06:36:42Z</time></trkpt><trkpt lat="46.02286469427207" lon="11.917668598801646"><ele>286.75</ele><time>2026-05-03T06:36:42.999Z</time></trkpt><trkpt lat="46.02285740254529" lon="11.917482946039561"><ele>286.5</ele><time>2026-05-03T06:36:43.999Z</time></trkpt><trkpt lat="46.02285119710257" lon="11.91729792801636"><ele>286.25</ele><time>2026-05-03T06:36:44.999Z</time></trkpt><trkpt lat="46.02284456029659" lon="11.91711861581117"><ele>286.0</ele><time>2026-05-03T06:36:45.999Z</time></trkpt><trkpt lat="46.022838590933915" lon="11.916955326960583"><ele>286.0</ele><time>2026-05-03T06:36:46.999Z</time></trkpt><trkpt lat="46.02283165989041" lon="11.916790848123668"><ele>286.0</ele><time>2026-05-03T06:36:47.999Z</time></trkpt><trkpt lat="46.0228244531923" lon="11.916618038746856"><ele>286.0</ele><time>2026-05-03T06:36:48.999Z</time></trkpt><trkpt lat="46.02281610906292" lon="11.916444078333528"><ele>286.0</ele><time>2026-05-03T06:36:49.999Z</time></trkpt><trkpt lat="46.022809376906295" lon="11.916262205187152"><ele>285.25</ele><time>2026-05-03T06:36:50.999Z</time></trkpt><trkpt lat="46.02280181675813" lon="11.916086277826148"><ele>284.5</ele><time>2026-05-03T06:36:51.999Z</time></trkpt><trkpt lat="46.02279845479246" lon="11.915923305590072"><ele>283.75</ele><time>2026-05-03T06:36:52.999Z</time></trkpt><trkpt lat="46.022792323772165" lon="11.915762808887067"><ele>283.0</ele><time>2026-05-03T06:36:53.999Z</time></trkpt><trkpt lat="46.02278326720195" lon="11.915591795919868"><ele>281.75</ele><time>2026-05-03T06:36:54.999Z</time></trkpt><trkpt lat="46.02277513945938" lon="11.915424961283083"><ele>280.5</ele><time>2026-05-03T06:36:55.999Z</time></trkpt><trkpt lat="46.02276960207079" lon="11.915259596742727"><ele>279.25</ele><time>2026-05-03T06:36:56.999Z</time></trkpt><trkpt lat="46.02276473810333" lon="11.915090572293597"><ele>278.0</ele><time>2026-05-03T06:36:57.999Z</time></trkpt><trkpt lat="46.022759092092556" lon="11.914911106977552"><ele>277.4</ele><time>2026-05-03T06:36:58.999Z</time></trkpt><trkpt lat="46.02275130177449" lon="11.914730750185878"><ele>276.8</ele><time>2026-05-03T06:36:59.999Z</time></trkpt><trkpt lat="46.022743633524485" lon="11.914567012648918"><ele>276.2</ele><time>2026-05-03T06:37:00.999Z</time></trkpt><trkpt lat="46.02273856594672" lon="11.914413332554801"><ele>275.6</ele><time>2026-05-03T06:37:01.999Z</time></trkpt><trkpt lat="46.02273218526222" lon="11.914264929503195"><ele>275.0</ele><time>2026-05-03T06:37:02.999Z</time></trkpt><trkpt lat="46.02272440885508" lon="11.914109668359625"><ele>275.0</ele><time>2026-05-03T06:37:03.999Z</time></trkpt><trkpt lat="46.02271612256038" lon="11.913950585723965"><ele>275.0</ele><time>2026-05-03T06:37:04.999Z</time></trkpt><trkpt lat="46.022708995912204" lon="11.913788006396375"><ele>275.0</ele><time>2026-05-03T06:37:05.999Z</time></trkpt><trkpt lat="46.022701686031404" lon="11.913624664234934"><ele>275.0</ele><time>2026-05-03T06:37:06.999Z</time></trkpt><trkpt lat="46.02269521998149" lon="11.913475309057572"><ele>275.0</ele><time>2026-05-03T06:37:07.999Z</time></trkpt><trkpt lat="46.022689076119754" lon="11.913334523274024"><ele>275.0</ele><time>2026-05-03T06:37:08.999Z</time></trkpt><trkpt lat="46.02268551383483" lon="11.913205810146984"><ele>275.0</ele><time>2026-05-03T06:37:09.999Z</time></trkpt><trkpt lat="46.02268214971788" lon="11.913085013692598"><ele>275.0</ele><time>2026-05-03T06:37:10.999Z</time></trkpt><trkpt lat="46.02267678134412" lon="11.912974585972657"><ele>275.0</ele><time>2026-05-03T06:37:11.999Z</time></trkpt><trkpt lat="46.02267250068358" lon="11.912874418871743"><ele>275.0</ele><time>2026-05-03T06:37:12.999Z</time></trkpt><trkpt lat="46.0226705374421" lon="11.91278096162643"><ele>275.0</ele><time>2026-05-03T06:37:13.999Z</time></trkpt><trkpt lat="46.02268867297059" lon="11.912608319059741"><ele>275.0</ele><time>2026-05-03T06:37:15.999Z</time></trkpt><trkpt lat="46.022708330599905" lon="11.912517707399745"><ele>275.0</ele><time>2026-05-03T06:37:16.999Z</time></trkpt><trkpt lat="46.02270459567049" lon="11.91242672473324"><ele>275.0</ele><time>2026-05-03T06:37:17.999Z</time></trkpt><trkpt lat="46.02262237111822" lon="11.912319647349067"><ele>275.0</ele><time>2026-05-03T06:37:20Z</time></trkpt><trkpt lat="46.022530704346835" lon="11.912414515825764"><ele>275.0</ele><time>2026-05-03T06:37:22Z</time></trkpt><trkpt lat="46.02252580570992" lon="11.91250953904809"><ele>275.0</ele><time>2026-05-03T06:37:23Z</time></trkpt><trkpt lat="46.022556856637884" lon="11.912612899936784"><ele>275.0</ele><time>2026-05-03T06:37:24Z</time></trkpt><trkpt lat="46.022592071369054" lon="11.912731507899927"><ele>275.0</ele><time>2026-05-03T06:37:25Z</time></trkpt><trkpt lat="46.022613385505224" lon="11.912863290730794"><ele>275.0</ele><time>2026-05-03T06:37:26Z</time></trkpt><trkpt lat="46.022630672732795" lon="11.913020420377725"><ele>275.0</ele><time>2026-05-03T06:37:27Z</time></trkpt><trkpt lat="46.02264246267743" lon="11.913185134880628"><ele>275.0</ele><time>2026-05-03T06:37:28Z</time></trkpt><trkpt lat="46.022652044519155" lon="11.913333822164578"><ele>275.0</ele><time>2026-05-03T06:37:29Z</time></trkpt><trkpt lat="46.022660553490816" lon="11.913478688057197"><ele>275.0</ele><time>2026-05-03T06:37:30Z</time></trkpt><trkpt lat="46.02267003089143" lon="11.91362001417103"><ele>275.0</ele><time>2026-05-03T06:37:31Z</time></trkpt><trkpt lat="46.02267746736013" lon="11.91376070288098"><ele>275.0</ele><time>2026-05-03T06:37:32Z</time></trkpt><trkpt lat="46.02268386602212" lon="11.913913402296975"><ele>275.0</ele><time>2026-05-03T06:37:33Z</time></trkpt><trkpt lat="46.02268879380565" lon="11.914064663917896"><ele>275.0</ele><time>2026-05-03T06:37:34Z</time></trkpt><trkpt lat="46.022692798857626" lon="11.914206046625972"><ele>275.0</ele><time>2026-05-03T06:37:35Z</time></trkpt><trkpt lat="46.022696393347964" lon="11.914333808352824"><ele>275.0</ele><time>2026-05-03T06:37:36Z</time></trkpt><trkpt lat="46.02270184992316" lon="11.91446801479314"><ele>275.0</ele><time>2026-05-03T06:37:37Z</time></trkpt><trkpt lat="46.022707809616776" lon="11.91461414200535"><ele>275.0</ele><time>2026-05-03T06:37:38Z</time></trkpt><trkpt lat="46.02271421946437" lon="11.914765500862256"><ele>275.0</ele><time>2026-05-03T06:37:39Z</time></trkpt><trkpt lat="46.02272098868827" lon="11.914922812408262"><ele>275.0</ele><time>2026-05-03T06:37:40Z</time></trkpt><trkpt lat="46.02272835815781" lon="11.915083827777591"><ele>275.0</ele><time>2026-05-03T06:37:41Z</time></trkpt><trkpt lat="46.02273723990644" lon="11.91524877489164"><ele>275.0</ele><time>2026-05-03T06:37:42Z</time></trkpt><trkpt lat="46.02274638385459" lon="11.915416366183347"><ele>275.75</ele><time>2026-05-03T06:37:43Z</time></trkpt><trkpt lat="46.02275584669852" lon="11.915590455269584"><ele>276.5</ele><time>2026-05-03T06:37:44Z</time></trkpt><trkpt lat="46.02276419556338" lon="11.915771916440523"><ele>277.25</ele><time>2026-05-03T06:37:45Z</time></trkpt><trkpt lat="46.022770961720006" lon="11.915938087605802"><ele>278.0</ele><time>2026-05-03T06:37:46Z</time></trkpt><trkpt lat="46.02277669590836" lon="11.916093344661641"><ele>279.25</ele><time>2026-05-03T06:37:47Z</time></trkpt><trkpt lat="46.02278215306081" lon="11.916249219137509"><ele>280.5</ele><time>2026-05-03T06:37:48Z</time></trkpt><trkpt lat="46.022786695261196" lon="11.916412465780084"><ele>281.75</ele><time>2026-05-03T06:37:49Z</time></trkpt><trkpt lat="46.02278979724453" lon="11.91657645470593"><ele>283.0</ele><time>2026-05-03T06:37:50Z</time></trkpt><trkpt lat="46.0227954542261" lon="11.91674227198536"><ele>283.75</ele><time>2026-05-03T06:37:51Z</time></trkpt><trkpt lat="46.022801729544696" lon="11.916912447855411"><ele>284.5</ele><time>2026-05-03T06:37:52Z</time></trkpt><trkpt lat="46.022808985820326" lon="11.917096484461924"><ele>285.25</ele><time>2026-05-03T06:37:53Z</time></trkpt><trkpt lat="46.02281671590768" lon="11.917285058017795"><ele>286.0</ele><time>2026-05-03T06:37:54Z</time></trkpt><trkpt lat="46.02282411806704" lon="11.917471571929132"><ele>286.25</ele><time>2026-05-03T06:37:55Z</time></trkpt><trkpt lat="46.02283494932469" lon="11.917660922532304"><ele>286.5</ele><time>2026-05-03T06:37:56Z</time></trkpt><trkpt lat="46.02284345292881" lon="11.917851061904818"><ele>286.75</ele><time>2026-05-03T06:37:57Z</time></trkpt><trkpt lat="46.0228512202847" lon="11.918038792595706"><ele>287.0</ele><time>2026-05-03T06:37:58Z</time></trkpt><trkpt lat="46.02285826937198" lon="11.918226271400165"><ele>288.0</ele><time>2026-05-03T06:37:59Z</time></trkpt><trkpt lat="46.022870404773954" lon="11.918417466187778"><ele>289.0</ele><time>2026-05-03T06:38:00Z</time></trkpt><trkpt lat="46.02287981618797" lon="11.918604429057535"><ele>290.0</ele><time>2026-05-03T06:38:01Z</time></trkpt><trkpt lat="46.02288826271585" lon="11.918795718142631"><ele>291.0</ele><time>2026-05-03T06:38:02Z</time></trkpt><trkpt lat="46.022895802474224" lon="11.918990167634933"><ele>291.0</ele><time>2026-05-03T06:38:03Z</time></trkpt><trkpt lat="46.02290546126446" lon="11.919183483381874"><ele>291.0</ele><time>2026-05-03T06:38:04Z</time></trkpt><trkpt lat="46.02291552766679" lon="11.919379483212108"><ele>291.0</ele><time>2026-05-03T06:38:05Z</time></trkpt><trkpt lat="46.022924711837256" lon="11.919575565313078"><ele>291.0</ele><time>2026-05-03T06:38:06Z</time></trkpt><trkpt lat="46.022935470195435" lon="11.919776013301849"><ele>291.5</ele><time>2026-05-03T06:38:07Z</time></trkpt><trkpt lat="46.02294516318359" lon="11.919964922855298"><ele>292.0</ele><time>2026-05-03T06:38:08Z</time></trkpt><trkpt lat="46.02295680207377" lon="11.920140880070164"><ele>292.5</ele><time>2026-05-03T06:38:09Z</time></trkpt><trkpt lat="46.02296480799285" lon="11.920301786035955"><ele>293.0</ele><time>2026-05-03T06:38:10Z</time></trkpt><trkpt lat="46.022973263294475" lon="11.920452787772795"><ele>293.0</ele><time>2026-05-03T06:38:11Z</time></trkpt><trkpt lat="46.02297985848249" lon="11.920586501082369"><ele>293.0</ele><time>2026-05-03T06:38:12Z</time></trkpt><trkpt lat="46.02298489905331" lon="11.920712623554625"><ele>293.0</ele><time>2026-05-03T06:38:13Z</time></trkpt><trkpt lat="46.022988125432846" lon="11.920823982912788"><ele>293.0</ele><time>2026-05-03T06:38:14Z</time></trkpt><trkpt lat="46.022968726070125" lon="11.920927416906254"><ele>293.0</ele><time>2026-05-03T06:38:15Z</time></trkpt><trkpt lat="46.02292319065495" lon="11.921026189814368"><ele>293.0</ele><time>2026-05-03T06:38:16Z</time></trkpt><trkpt lat="46.022852615483956" lon="11.921120099329878"><ele>292.6666666666667</ele><time>2026-05-03T06:38:17Z</time></trkpt><trkpt lat="46.022793911384525" lon="11.921222153210925"><ele>292.33333333333337</ele><time>2026-05-03T06:38:18Z</time></trkpt><trkpt lat="46.02278242969335" lon="11.92134436399746"><ele>292.0</ele><time>2026-05-03T06:38:19Z</time></trkpt><trkpt lat="46.022809443320384" lon="11.921463050844345"><ele>291.6666666666667</ele><time>2026-05-03T06:38:20Z</time></trkpt><trkpt lat="46.022869843770046" lon="11.921551001421216"><ele>291.3333333333333</ele><time>2026-05-03T06:38:21Z</time></trkpt><trkpt lat="46.022957051864424" lon="11.921589771933823"><ele>291.0</ele><time>2026-05-03T06:38:22Z</time></trkpt><trkpt lat="46.02303995890463" lon="11.921580022622377"><ele>291.0</ele><time>2026-05-03T06:38:23Z</time></trkpt><trkpt lat="46.02310992949643" lon="11.921517486313471"><ele>291.0</ele><time>2026-05-03T06:38:24Z</time></trkpt><trkpt lat="46.02315292265169" lon="11.921410588135785"><ele>291.0</ele><time>2026-05-03T06:38:25Z</time></trkpt><trkpt lat="46.02316378867572" lon="11.921284824112806"><ele>291.0</ele><time>2026-05-03T06:38:26Z</time></trkpt><trkpt lat="46.023136154937774" lon="11.921156510067167"><ele>291.0</ele><time>2026-05-03T06:38:27Z</time></trkpt><trkpt lat="46.02308266356509" lon="11.921021467146888"><ele>291.5</ele><time>2026-05-03T06:38:28Z</time></trkpt><trkpt lat="46.02304248756389" lon="11.920863207650422"><ele>292.0</ele><time>2026-05-03T06:38:29Z</time></trkpt><trkpt lat="46.023030335806396" lon="11.920678400093268"><ele>292.5</ele><time>2026-05-03T06:38:30Z</time></trkpt><trkpt lat="46.023019358852295" lon="11.920491363710305"><ele>293.0</ele><time>2026-05-03T06:38:31Z</time></trkpt><trkpt lat="46.02300329354491" lon="11.920313998387307"><ele>293.0</ele><time>2026-05-03T06:38:32Z</time></trkpt><trkpt lat="46.02298840555869" lon="11.920128033139083"><ele>293.0</ele><time>2026-05-03T06:38:33Z</time></trkpt><trkpt lat="46.0229753488119" lon="11.91993713058048"><ele>293.0</ele><time>2026-05-03T06:38:34Z</time></trkpt><trkpt lat="46.022964626258485" lon="11.919737424021095"><ele>293.0</ele><time>2026-05-03T06:38:35Z</time></trkpt><trkpt lat="46.022956786847935" lon="11.919543761320917"><ele>293.25</ele><time>2026-05-03T06:38:36Z</time></trkpt><trkpt lat="46.022948011455505" lon="11.919360972576087"><ele>293.5</ele><time>2026-05-03T06:38:37Z</time></trkpt><trkpt lat="46.02293791897539" lon="11.919178290108983"><ele>293.75</ele><time>2026-05-03T06:38:38Z</time></trkpt><trkpt lat="46.022928939311186" lon="11.918988864583316"><ele>294.0</ele><time>2026-05-03T06:38:38.999Z</time></trkpt><trkpt lat="46.02291918801797" lon="11.918795351437877"><ele>293.25</ele><time>2026-05-03T06:38:39.999Z</time></trkpt><trkpt lat="46.02291240593525" lon="11.918601101260009"><ele>292.5</ele><time>2026-05-03T06:38:40.999Z</time></trkpt><trkpt lat="46.02290577348262" lon="11.9184054992378"><ele>291.75</ele><time>2026-05-03T06:38:41.999Z</time></trkpt><trkpt lat="46.02289672005887" lon="11.918207131204012"><ele>291.0</ele><time>2026-05-03T06:38:42.999Z</time></trkpt><trkpt lat="46.0228843798896" lon="11.918005151625728"><ele>290.0</ele><time>2026-05-03T06:38:43.999Z</time></trkpt><trkpt lat="46.02287634901362" lon="11.917804826047739"><ele>289.0</ele><time>2026-05-03T06:38:44.999Z</time></trkpt><trkpt lat="46.02286996140274" lon="11.917603571284273"><ele>288.0</ele><time>2026-05-03T06:38:45.999Z</time></trkpt><trkpt lat="46.02286125360729" lon="11.917399907077836"><ele>287.0</ele><time>2026-05-03T06:38:46.999Z</time></trkpt><trkpt lat="46.02285309314782" lon="11.91720152499329"><ele>286.75</ele><time>2026-05-03T06:38:47.999Z</time></trkpt><trkpt lat="46.022844676488845" lon="11.917013207430696"><ele>286.5</ele><time>2026-05-03T06:38:48.999Z</time></trkpt><trkpt lat="46.022836369864976" lon="11.916824037361264"><ele>286.25</ele><time>2026-05-03T06:38:49.999Z</time></trkpt><trkpt lat="46.02282410512302" lon="11.916628733878683"><ele>286.0</ele><time>2026-05-03T06:38:50.999Z</time></trkpt><trkpt lat="46.02281866403973" lon="11.916446139482153"><ele>285.25</ele><time>2026-05-03T06:38:51.999Z</time></trkpt><trkpt lat="46.022813600465895" lon="11.916265284450247"><ele>284.5</ele><time>2026-05-03T06:38:52.999Z</time></trkpt><trkpt lat="46.02280578915201" lon="11.916075177768391"><ele>283.75</ele><time>2026-05-03T06:38:53.999Z</time></trkpt><trkpt lat="46.02279902165356" lon="11.91588740709925"><ele>283.0</ele><time>2026-05-03T06:38:54.999Z</time></trkpt><trkpt lat="46.022791402126494" lon="11.915699456863493"><ele>281.75</ele><time>2026-05-03T06:38:55.999Z</time></trkpt><trkpt lat="46.02278256362861" lon="11.915520007757308"><ele>280.5</ele><time>2026-05-03T06:38:56.999Z</time></trkpt><trkpt lat="46.02277645215553" lon="11.915347867709547"><ele>279.25</ele><time>2026-05-03T06:38:57.999Z</time></trkpt><trkpt lat="46.02277008251796" lon="11.91517678684423"><ele>278.0</ele><time>2026-05-03T06:38:58.999Z</time></trkpt><trkpt lat="46.02276435959837" lon="11.914993539521253"><ele>277.25</ele><time>2026-05-03T06:38:59.999Z</time></trkpt><trkpt lat="46.02275696504973" lon="11.914804825146055"><ele>276.5</ele><time>2026-05-03T06:39:00.999Z</time></trkpt><trkpt lat="46.022747467549216" lon="11.914621130210548"><ele>275.75</ele><time>2026-05-03T06:39:01.999Z</time></trkpt><trkpt lat="46.022740326560466" lon="11.91444802463251"><ele>275.0</ele><time>2026-05-03T06:39:02.999Z</time></trkpt><trkpt lat="46.02273208435898" lon="11.9142837005219"><ele>275.0</ele><time>2026-05-03T06:39:03.999Z</time></trkpt><trkpt lat="46.02272399860167" lon="11.914117099907648"><ele>275.0</ele><time>2026-05-03T06:39:04.999Z</time></trkpt><trkpt lat="46.022715955074474" lon="11.913950226516398"><ele>275.0</ele><time>2026-05-03T06:39:05.999Z</time></trkpt><trkpt lat="46.022706490608584" lon="11.913781114710105"><ele>275.0</ele><time>2026-05-03T06:39:06.999Z</time></trkpt><trkpt lat="46.02269671113065" lon="11.91360820186472"><ele>275.0</ele><time>2026-05-03T06:39:07.999Z</time></trkpt><trkpt lat="46.022688558519704" lon="11.913436173726868"><ele>275.0</ele><time>2026-05-03T06:39:08.999Z</time></trkpt><trkpt lat="46.02268092637084" lon="11.913272825889887"><ele>275.0</ele><time>2026-05-03T06:39:09.999Z</time></trkpt><trkpt lat="46.0226737418212" lon="11.913121310268888"><ele>275.0</ele><time>2026-05-03T06:39:10.999Z</time></trkpt><trkpt lat="46.02266952277931" lon="11.912979867713991"><ele>275.0</ele><time>2026-05-03T06:39:11.999Z</time></trkpt><trkpt lat="46.02266686179552" lon="11.912845446561176"><ele>275.0</ele><time>2026-05-03T06:39:12.999Z</time></trkpt><trkpt lat="46.022674458444534" lon="11.912721283547382"><ele>275.0</ele><time>2026-05-03T06:39:13.999Z</time></trkpt><trkpt lat="46.022696866612996" lon="11.912607458027084"><ele>275.0</ele><time>2026-05-03T06:39:14.999Z</time></trkpt><trkpt lat="46.0227101349085" lon="11.91250009815599"><ele>275.0</ele><time>2026-05-03T06:39:15.999Z</time></trkpt><trkpt lat="46.02270573500786" lon="11.912403607406906"><ele>275.0</ele><time>2026-05-03T06:39:19.999Z</time></trkpt><trkpt lat="46.02267348413304" lon="11.912262746825606"><ele>275.0</ele><time>2026-05-03T06:39:21.999Z</time></trkpt><trkpt lat="46.022646338348025" lon="11.912128138332468"><ele>275.5</ele><time>2026-05-03T06:39:22.999Z</time></trkpt><trkpt lat="46.02262711506125" lon="11.911959743699084"><ele>276.0</ele><time>2026-05-03T06:39:23.999Z</time></trkpt><trkpt lat="46.0226184828458" lon="11.911789759956132"><ele>276.5</ele><time>2026-05-03T06:39:24.999Z</time></trkpt><trkpt lat="46.022608403412654" lon="11.911599323746797"><ele>277.0</ele><time>2026-05-03T06:39:26Z</time></trkpt><trkpt lat="46.022592051898485" lon="11.911404321325302"><ele>277.0</ele><time>2026-05-03T06:39:27Z</time></trkpt><trkpt lat="46.02257270888095" lon="11.911207090517278"><ele>277.0</ele><time>2026-05-03T06:39:28Z</time></trkpt><trkpt lat="46.02254917635858" lon="11.91102114542809"><ele>277.0</ele><time>2026-05-03T06:39:29Z</time></trkpt><trkpt lat="46.02252132869525" lon="11.91082988873776"><ele>277.0</ele><time>2026-05-03T06:39:30Z</time></trkpt><trkpt lat="46.02248896595339" lon="11.91063796709067"><ele>276.75</ele><time>2026-05-03T06:39:31Z</time></trkpt><trkpt lat="46.02245244916678" lon="11.91044522219088"><ele>276.5</ele><time>2026-05-03T06:39:32Z</time></trkpt><trkpt lat="46.02242345756132" lon="11.910262852469913"><ele>276.25</ele><time>2026-05-03T06:39:33Z</time></trkpt><trkpt lat="46.02238491306247" lon="11.9100766105532"><ele>276.0</ele><time>2026-05-03T06:39:34Z</time></trkpt><trkpt lat="46.02233851063617" lon="11.909885610882503"><ele>275.75</ele><time>2026-05-03T06:39:35Z</time></trkpt><trkpt lat="46.02229649049916" lon="11.909694534222579"><ele>275.5</ele><time>2026-05-03T06:39:36Z</time></trkpt><trkpt lat="46.022257201072584" lon="11.909506140949064"><ele>275.25</ele><time>2026-05-03T06:39:37Z</time></trkpt><trkpt lat="46.02221626618758" lon="11.90931363713465"><ele>275.0</ele><time>2026-05-03T06:39:38Z</time></trkpt><trkpt lat="46.02217366141912" lon="11.909124187629276"><ele>274.75</ele><time>2026-05-03T06:39:39Z</time></trkpt><trkpt lat="46.02213370236953" lon="11.908939755670334"><ele>274.5</ele><time>2026-05-03T06:39:40Z</time></trkpt><trkpt lat="46.022088484767565" lon="11.908747169788384"><ele>274.25</ele><time>2026-05-03T06:39:41Z</time></trkpt><trkpt lat="46.02204375493701" lon="11.908559286427277"><ele>274.0</ele><time>2026-05-03T06:39:42Z</time></trkpt><trkpt lat="46.022003695863425" lon="11.90838210036419"><ele>273.75</ele><time>2026-05-03T06:39:43Z</time></trkpt><trkpt lat="46.02196592496733" lon="11.908201452114492"><ele>273.5</ele><time>2026-05-03T06:39:44Z</time></trkpt><trkpt lat="46.02192817904145" lon="11.90801976735864"><ele>273.25</ele><time>2026-05-03T06:39:45Z</time></trkpt><trkpt lat="46.02189240327505" lon="11.907840971826104"><ele>273.0</ele><time>2026-05-03T06:39:46Z</time></trkpt><trkpt lat="46.02185441352666" lon="11.907658458348559"><ele>272.75</ele><time>2026-05-03T06:39:47Z</time></trkpt><trkpt lat="46.0218158137703" lon="11.907477484751434"><ele>272.5</ele><time>2026-05-03T06:39:48Z</time></trkpt><trkpt lat="46.02177877421163" lon="11.90729410817124"><ele>272.25</ele><time>2026-05-03T06:39:49Z</time></trkpt><trkpt lat="46.021744327957556" lon="11.907105226650096"><ele>272.0</ele><time>2026-05-03T06:39:50Z</time></trkpt><trkpt lat="46.02171420065992" lon="11.906918020660902"><ele>272.25</ele><time>2026-05-03T06:39:51Z</time></trkpt><trkpt lat="46.02168682586902" lon="11.906730991568697"><ele>272.5</ele><time>2026-05-03T06:39:52Z</time></trkpt><trkpt lat="46.02166439773335" lon="11.906548029034482"><ele>272.75</ele><time>2026-05-03T06:39:53Z</time></trkpt><trkpt lat="46.021644670059835" lon="11.906375682894515"><ele>273.0</ele><time>2026-05-03T06:39:54Z</time></trkpt><trkpt lat="46.02162729189667" lon="11.906213995653898"><ele>273.0</ele><time>2026-05-03T06:39:55Z</time></trkpt><trkpt lat="46.02161057984354" lon="11.90605842597217"><ele>273.0</ele><time>2026-05-03T06:39:56Z</time></trkpt><trkpt lat="46.02159890819165" lon="11.905912284953855"><ele>273.0</ele><time>2026-05-03T06:39:57Z</time></trkpt><trkpt lat="46.02159053020962" lon="11.905766334157963"><ele>273.0</ele><time>2026-05-03T06:39:58Z</time></trkpt><trkpt lat="46.02158435265799" lon="11.905629934648527"><ele>273.0</ele><time>2026-05-03T06:39:59Z</time></trkpt><trkpt lat="46.02157783545685" lon="11.905505653701075"><ele>273.1666666666667</ele><time>2026-05-03T06:40:00Z</time></trkpt><trkpt lat="46.02157609030567" lon="11.905393432664315"><ele>273.3333333333333</ele><time>2026-05-03T06:40:01Z</time></trkpt><trkpt lat="46.021599228139536" lon="11.905293878751767"><ele>273.5</ele><time>2026-05-03T06:40:02Z</time></trkpt><trkpt lat="46.021636959462626" lon="11.905209031292616"><ele>273.66666666666663</ele><time>2026-05-03T06:40:03Z</time></trkpt><trkpt lat="46.021696299059776" lon="11.90513787113112"><ele>273.8333333333333</ele><time>2026-05-03T06:40:04Z</time></trkpt><trkpt lat="46.02177259986334" lon="11.90509339697691"><ele>274.0</ele><time>2026-05-03T06:40:05Z</time></trkpt><trkpt lat="46.021865096683236" lon="11.905067191055345"><ele>274.0</ele><time>2026-05-03T06:40:06Z</time></trkpt><trkpt lat="46.02196680232936" lon="11.905043115551585"><ele>274.0</ele><time>2026-05-03T06:40:07Z</time></trkpt><trkpt lat="46.02208347554613" lon="11.90501247547919"><ele>274.0</ele><time>2026-05-03T06:40:08Z</time></trkpt><trkpt lat="46.02220622369021" lon="11.9049811495172"><ele>274.0</ele><time>2026-05-03T06:40:09Z</time></trkpt><trkpt lat="46.02231023540371" lon="11.904953517693679"><ele>274.0</ele><time>2026-05-03T06:40:10Z</time></trkpt><trkpt lat="46.02240308547023" lon="11.904930779077258"><ele>274.0</ele><time>2026-05-03T06:40:11Z</time></trkpt><trkpt lat="46.022491465253935" lon="11.904922489735526"><ele>274.0</ele><time>2026-05-03T06:40:12Z</time></trkpt><trkpt lat="46.02256624533152" lon="11.904959998677079"><ele>274.0</ele><time>2026-05-03T06:40:13Z</time></trkpt><trkpt lat="46.02264747522971" lon="11.90502663867327"><ele>274.0</ele><time>2026-05-03T06:40:14Z</time></trkpt><trkpt lat="46.022744074806354" lon="11.905080601716152"><ele>274.75</ele><time>2026-05-03T06:40:15Z</time></trkpt><trkpt lat="46.02284959704309" lon="11.90510316895232"><ele>275.5</ele><time>2026-05-03T06:40:16Z</time></trkpt><trkpt lat="46.02296271340049" lon="11.905079670054894"><ele>276.25</ele><time>2026-05-03T06:40:17Z</time></trkpt><trkpt lat="46.02311290942076" lon="11.905013866647996"><ele>277.0</ele><time>2026-05-03T06:40:18Z</time></trkpt><trkpt lat="46.02330010142359" lon="11.904960665778258"><ele>277.66666666666663</ele><time>2026-05-03T06:40:19Z</time></trkpt><trkpt lat="46.02348334354977" lon="11.904915159042051"><ele>278.3333333333333</ele><time>2026-05-03T06:40:20Z</time></trkpt><trkpt lat="46.02365427756821" lon="11.904865768844946"><ele>279.0</ele><time>2026-05-03T06:40:21Z</time></trkpt><trkpt lat="46.023813466295266" lon="11.90482131049926"><ele>279.0</ele><time>2026-05-03T06:40:22Z</time></trkpt><trkpt lat="46.02397398090175" lon="11.904776410035335"><ele>279.0</ele><time>2026-05-03T06:40:23Z</time></trkpt><trkpt lat="46.02412994845278" lon="11.9047335331101"><ele>279.0</ele><time>2026-05-03T06:40:24Z</time></trkpt><trkpt lat="46.024282884645864" lon="11.90469100651502"><ele>280.0</ele><time>2026-05-03T06:40:25Z</time></trkpt><trkpt lat="46.024433922292054" lon="11.904648971991403"><ele>281.0</ele><time>2026-05-03T06:40:26Z</time></trkpt><trkpt lat="46.02457665167785" lon="11.904606946239046"><ele>282.0</ele><time>2026-05-03T06:40:27Z</time></trkpt><trkpt lat="46.024711254261355" lon="11.904567791736328"><ele>283.0</ele><time>2026-05-03T06:40:28Z</time></trkpt><trkpt lat="46.024837214234836" lon="11.904531799133455"><ele>283.0</ele><time>2026-05-03T06:40:29Z</time></trkpt><trkpt lat="46.02495695256964" lon="11.904498018046672"><ele>283.0</ele><time>2026-05-03T06:40:30Z</time></trkpt><trkpt lat="46.02506863191542" lon="11.904475589654766"><ele>283.0</ele><time>2026-05-03T06:40:31Z</time></trkpt><trkpt lat="46.02516765918689" lon="11.904480562025986"><ele>283.0</ele><time>2026-05-03T06:40:32Z</time></trkpt><trkpt lat="46.025240560563056" lon="11.90451234478371"><ele>283.0</ele><time>2026-05-03T06:40:33Z</time></trkpt><trkpt lat="46.02530129920121" lon="11.90455946060629"><ele>282.8571428571429</ele><time>2026-05-03T06:40:34Z</time></trkpt><trkpt lat="46.0253576924459" lon="11.904603894529686"><ele>282.7142857142857</ele><time>2026-05-03T06:40:35Z</time></trkpt><trkpt lat="46.02542757693363" lon="11.904601801519819"><ele>282.57142857142856</ele><time>2026-05-03T06:40:36Z</time></trkpt><trkpt lat="46.02548040729968" lon="11.904529189123148"><ele>282.42857142857144</ele><time>2026-05-03T06:40:37Z</time></trkpt><trkpt lat="46.0254784397952" lon="11.904436741018165"><ele>282.2857142857143</ele><time>2026-05-03T06:40:38Z</time></trkpt><trkpt lat="46.025445177076456" lon="11.904334781668817"><ele>282.14285714285717</ele><time>2026-05-03T06:40:39Z</time></trkpt><trkpt lat="46.02539861749621" lon="11.904215083680151"><ele>282.0</ele><time>2026-05-03T06:40:40Z</time></trkpt><trkpt lat="46.02536000903701" lon="11.90404010843701"><ele>282.0</ele><time>2026-05-03T06:40:41Z</time></trkpt><trkpt lat="46.025335042164315" lon="11.903875724310781"><ele>282.0</ele><time>2026-05-03T06:40:42Z</time></trkpt><trkpt lat="46.025340388567976" lon="11.903776413747755"><ele>282.0</ele><time>2026-05-03T06:40:44Z</time></trkpt><trkpt lat="46.02547984199941" lon="11.903739505595471"><ele>282.0</ele><time>2026-05-03T06:40:47Z</time></trkpt><trkpt lat="46.025553009769105" lon="11.903746790732333"><ele>282.0</ele><time>2026-05-03T06:40:48Z</time></trkpt><trkpt lat="46.02562382514784" lon="11.903771799626224"><ele>282.0</ele><time>2026-05-03T06:40:49Z</time></trkpt><trkpt lat="46.02568497218243" lon="11.903868678530714"><ele>282.0</ele><time>2026-05-03T06:40:50Z</time></trkpt><trkpt lat="46.02575995994494" lon="11.90391893543836"><ele>282.0</ele><time>2026-05-03T06:40:51Z</time></trkpt><trkpt lat="46.02581035477239" lon="11.903985179024806"><ele>282.0</ele><time>2026-05-03T06:40:52Z</time></trkpt><trkpt lat="46.025860438494966" lon="11.904040291948096"><ele>282.0</ele><time>2026-05-03T06:40:53Z</time></trkpt><trkpt lat="46.025935658442606" lon="11.904144349630185"><ele>282.0</ele><time>2026-05-03T06:40:54.999Z</time></trkpt><trkpt lat="46.02606364652216" lon="11.903988336271766"><ele>281.8</ele><time>2026-05-03T06:40:57.999Z</time></trkpt><trkpt lat="46.02609829711091" lon="11.903866186768841"><ele>281.6</ele><time>2026-05-03T06:40:59.999Z</time></trkpt><trkpt lat="46.02614908183867" lon="11.903721463780206"><ele>281.40000000000003</ele><time>2026-05-03T06:41:01.999Z</time></trkpt><trkpt lat="46.02619306671278" lon="11.903606678092677"><ele>281.2</ele><time>2026-05-03T06:41:03.999Z</time></trkpt><trkpt lat="46.02622257263609" lon="11.903524377663299"><ele>281.0</ele><time>2026-05-03T06:41:13.999Z</time></trkpt><trkpt lat="46.026368537843716" lon="11.903550844203183"><ele>281.00000000000006</ele><time>2026-05-03T06:41:51Z</time></trkpt><trkpt lat="46.02630528413602" lon="11.903569363332764"><ele>281.0</ele><time>2026-05-03T06:42:34Z</time></trkpt><trkpt lat="46.02629981175104" lon="11.903474519161142"><ele>281.0</ele><time>2026-05-03T06:42:45Z</time></trkpt><trkpt lat="46.026236404403384" lon="11.903421825017231"><ele>281.0</ele><time>2026-05-03T06:43:06Z</time></trkpt><trkpt lat="46.02616851059379" lon="11.903429186149108"><ele>281.0</ele><time>2026-05-03T06:43:16Z</time></trkpt><trkpt lat="46.026239841941916" lon="11.903490274133748"><ele>281.00000000000006</ele><time>2026-05-03T06:43:42Z</time></trkpt><trkpt lat="46.02626996596413" lon="11.903590566237266"><ele>281.0</ele><time>2026-05-03T06:43:46Z</time></trkpt><trkpt lat="46.026332034123655" lon="11.90360952293597"><ele>281.0</ele><time>2026-05-03T06:43:51Z</time></trkpt><trkpt lat="46.02631190155964" lon="11.903504169623025"><ele>281.0</ele><time>2026-05-03T06:44:15Z</time></trkpt><trkpt lat="46.02655553280003" lon="11.903476762879507"><ele>281.0</ele><time>2026-05-03T06:44:24Z</time></trkpt><trkpt lat="46.026581066473874" lon="11.903381610204391"><ele>281.0</ele><time>2026-05-03T06:44:28Z</time></trkpt><trkpt lat="46.026515063587894" lon="11.903417458392154"><ele>281.0</ele><time>2026-05-03T06:44:33Z</time></trkpt><trkpt lat="46.02637291835711" lon="11.903438918037441"><ele>281.0</ele><time>2026-05-03T06:44:45Z</time></trkpt></trkseg></trk></gpx>